<?xml version='1.0' encoding='UTF-8'?><gpx version="1.1" creator="JPX - https://github.com/jenetics/jpx" xmlns="http://www.topografix.com/GPX/1/1"><trk><trkseg><trkpt lat="45.61061" lon="8.9384083"><ele>221.0</ele><time>2026-04-25T05:02:52.227Z</time></trkpt><trkpt lat="45.6105517" lon="8.9382717"><ele>221.00000000000003</ele><time>2026-04-25T05:02:54.229Z</time></trkpt><trkpt lat="45.6105917" lon="8.9381533"><ele>221.00000000000003</ele><time>2026-04-25T05:02:56.228Z</time></trkpt><trkpt lat="45.610685" lon="8.938045"><ele>221.0</ele><time>2026-04-25T05:02:58.227Z</time></trkpt><trkpt lat="45.610745" lon="8.9380117"><ele>221.0</ele><time>2026-04-25T05:02:59.229Z</time></trkpt><trkpt lat="45.61084" lon="8.9380067"><ele>221.0</ele><time>2026-04-25T05:03:01.228Z</time></trkpt><trkpt lat="45.6109133" lon="8.9381017"><ele>221.00000000000003</ele><time>2026-04-25T05:03:03.228Z</time></trkpt><trkpt lat="45.6109467" lon="8.938195"><ele>221.00000000000003</ele><time>2026-04-25T05:03:04.227Z</time></trkpt><trkpt lat="45.610975" lon="8.9383117"><ele>221.0</ele><time>2026-04-25T05:03:05.228Z</time></trkpt><trkpt lat="45.610995" lon="8.9384483"><ele>221.0</ele><time>2026-04-25T05:03:06.231Z</time></trkpt><trkpt lat="45.6110133" lon="8.938605"><ele>221.0</ele><time>2026-04-25T05:03:07.23Z</time></trkpt><trkpt lat="45.611035" lon="8.938785"><ele>221.0</ele><time>2026-04-25T05:03:08.229Z</time></trkpt><trkpt lat="45.6110583" lon="8.9389733"><ele>221.0</ele><time>2026-04-25T05:03:09.228Z</time></trkpt><trkpt lat="45.611085" lon="8.9391583"><ele>221.0</ele><time>2026-04-25T05:03:10.227Z</time></trkpt><trkpt lat="45.6111083" lon="8.93936"><ele>221.0</ele><time>2026-04-25T05:03:11.229Z</time></trkpt><trkpt lat="45.611135" lon="8.9395733"><ele>221.0</ele><time>2026-04-25T05:03:12.228Z</time></trkpt><trkpt lat="45.6111617" lon="8.9398"><ele>221.0</ele><time>2026-04-25T05:03:13.227Z</time></trkpt><trkpt lat="45.6111883" lon="8.940035"><ele>221.0</ele><time>2026-04-25T05:03:14.229Z</time></trkpt><trkpt lat="45.6112167" lon="8.9402717"><ele>221.0</ele><time>2026-04-25T05:03:15.228Z</time></trkpt><trkpt lat="45.6112417" lon="8.9405033"><ele>221.0</ele><time>2026-04-25T05:03:16.228Z</time></trkpt><trkpt lat="45.6112683" lon="8.9407333"><ele>221.66666666666669</ele><time>2026-04-25T05:03:17.227Z</time></trkpt><trkpt lat="45.6112967" lon="8.940965"><ele>222.33333333333331</ele><time>2026-04-25T05:03:18.227Z</time></trkpt><trkpt lat="45.611325" lon="8.9412017"><ele>223.0</ele><time>2026-04-25T05:03:19.228Z</time></trkpt><trkpt lat="45.6113517" lon="8.9414417"><ele>223.0</ele><time>2026-04-25T05:03:20.229Z</time></trkpt><trkpt lat="45.6113817" lon="8.94168"><ele>223.0</ele><time>2026-04-25T05:03:21.229Z</time></trkpt><trkpt lat="45.61141" lon="8.9419167"><ele>223.0</ele><time>2026-04-25T05:03:22.229Z</time></trkpt><trkpt lat="45.6114367" lon="8.9421467"><ele>223.0</ele><time>2026-04-25T05:03:23.227Z</time></trkpt><trkpt lat="45.6114633" lon="8.9423717"><ele>223.0</ele><time>2026-04-25T05:03:24.228Z</time></trkpt><trkpt lat="45.61149" lon="8.9425917"><ele>223.0</ele><time>2026-04-25T05:03:25.229Z</time></trkpt><trkpt lat="45.61152" lon="8.9428067"><ele>223.0</ele><time>2026-04-25T05:03:26.229Z</time></trkpt><trkpt lat="45.611545" lon="8.94301"><ele>223.0</ele><time>2026-04-25T05:03:27.229Z</time></trkpt><trkpt lat="45.6115667" lon="8.9432133"><ele>223.0</ele><time>2026-04-25T05:03:28.227Z</time></trkpt><trkpt lat="45.6115867" lon="8.9434167"><ele>223.0</ele><time>2026-04-25T05:03:29.228Z</time></trkpt><trkpt lat="45.6116067" lon="8.9436183"><ele>222.75</ele><time>2026-04-25T05:03:30.228Z</time></trkpt><trkpt lat="45.6116283" lon="8.943825"><ele>222.5</ele><time>2026-04-25T05:03:31.227Z</time></trkpt><trkpt lat="45.6116483" lon="8.9440267"><ele>222.25</ele><time>2026-04-25T05:03:32.227Z</time></trkpt><trkpt lat="45.6116617" lon="8.944215"><ele>222.0</ele><time>2026-04-25T05:03:33.229Z</time></trkpt><trkpt lat="45.6116767" lon="8.9443883"><ele>221.39999999999998</ele><time>2026-04-25T05:03:34.23Z</time></trkpt><trkpt lat="45.6116867" lon="8.94454"><ele>220.79999999999998</ele><time>2026-04-25T05:03:35.229Z</time></trkpt><trkpt lat="45.6116917" lon="8.944665"><ele>220.2</ele><time>2026-04-25T05:03:36.228Z</time></trkpt><trkpt lat="45.61169" lon="8.9447667"><ele>219.6</ele><time>2026-04-25T05:03:37.231Z</time></trkpt><trkpt lat="45.6116567" lon="8.9449283"><ele>219.0</ele><time>2026-04-25T05:03:39.227Z</time></trkpt><trkpt lat="45.611635" lon="8.9451117"><ele>219.0</ele><time>2026-04-25T05:03:41.229Z</time></trkpt><trkpt lat="45.6116483" lon="8.94521"><ele>218.99999999999997</ele><time>2026-04-25T05:03:42.229Z</time></trkpt><trkpt lat="45.6116733" lon="8.9453367"><ele>218.99999999999997</ele><time>2026-04-25T05:03:43.227Z</time></trkpt><trkpt lat="45.6116933" lon="8.94549"><ele>219.0</ele><time>2026-04-25T05:03:44.228Z</time></trkpt><trkpt lat="45.6117117" lon="8.945655"><ele>219.0</ele><time>2026-04-25T05:03:45.227Z</time></trkpt><trkpt lat="45.6117233" lon="8.9458317"><ele>219.0</ele><time>2026-04-25T05:03:46.227Z</time></trkpt><trkpt lat="45.6117333" lon="8.946025"><ele>219.0</ele><time>2026-04-25T05:03:47.227Z</time></trkpt><trkpt lat="45.6117383" lon="8.9462233"><ele>219.0</ele><time>2026-04-25T05:03:48.228Z</time></trkpt><trkpt lat="45.6117467" lon="8.9464383"><ele>219.0</ele><time>2026-04-25T05:03:49.228Z</time></trkpt><trkpt lat="45.6117583" lon="8.94665"><ele>218.75</ele><time>2026-04-25T05:03:50.23Z</time></trkpt><trkpt lat="45.6117683" lon="8.9468617"><ele>218.5</ele><time>2026-04-25T05:03:51.229Z</time></trkpt><trkpt lat="45.6117767" lon="8.94707"><ele>218.25</ele><time>2026-04-25T05:03:52.229Z</time></trkpt><trkpt lat="45.6117817" lon="8.9472733"><ele>218.0</ele><time>2026-04-25T05:03:53.229Z</time></trkpt><trkpt lat="45.6117867" lon="8.94746"><ele>218.0</ele><time>2026-04-25T05:03:54.229Z</time></trkpt><trkpt lat="45.61179" lon="8.9476333"><ele>218.0</ele><time>2026-04-25T05:03:55.23Z</time></trkpt><trkpt lat="45.6117933" lon="8.9478067"><ele>218.0</ele><time>2026-04-25T05:03:56.229Z</time></trkpt><trkpt lat="45.6118" lon="8.9479817"><ele>218.0</ele><time>2026-04-25T05:03:57.229Z</time></trkpt><trkpt lat="45.611805" lon="8.9481583"><ele>218.0</ele><time>2026-04-25T05:03:58.229Z</time></trkpt><trkpt lat="45.6118117" lon="8.9483383"><ele>218.0</ele><time>2026-04-25T05:03:59.229Z</time></trkpt><trkpt lat="45.6118167" lon="8.9485133"><ele>218.0</ele><time>2026-04-25T05:04:00.23Z</time></trkpt><trkpt lat="45.6118217" lon="8.948675"><ele>218.0</ele><time>2026-04-25T05:04:01.23Z</time></trkpt><trkpt lat="45.611825" lon="8.94882"><ele>218.00000000000003</ele><time>2026-04-25T05:04:02.229Z</time></trkpt><trkpt lat="45.6118317" lon="8.948945"><ele>218.0</ele><time>2026-04-25T05:04:03.23Z</time></trkpt><trkpt lat="45.6118317" lon="8.9490667"><ele>218.0</ele><time>2026-04-25T05:04:04.229Z</time></trkpt><trkpt lat="45.61183" lon="8.949175"><ele>218.0</ele><time>2026-04-25T05:04:05.232Z</time></trkpt><trkpt lat="45.6118133" lon="8.949295"><ele>218.00000000000003</ele><time>2026-04-25T05:04:07.228Z</time></trkpt><trkpt lat="45.6118133" lon="8.9494383"><ele>218.0</ele><time>2026-04-25T05:04:09.228Z</time></trkpt><trkpt lat="45.6118267" lon="8.9495333"><ele>218.2</ele><time>2026-04-25T05:04:10.228Z</time></trkpt><trkpt lat="45.6118483" lon="8.9496317"><ele>218.4</ele><time>2026-04-25T05:04:11.228Z</time></trkpt><trkpt lat="45.6118633" lon="8.94974"><ele>218.59999999999997</ele><time>2026-04-25T05:04:12.229Z</time></trkpt><trkpt lat="45.6118733" lon="8.949875"><ele>218.79999999999998</ele><time>2026-04-25T05:04:13.229Z</time></trkpt><trkpt lat="45.61188" lon="8.9500217"><ele>219.0</ele><time>2026-04-25T05:04:14.228Z</time></trkpt><trkpt lat="45.6118883" lon="8.9501833"><ele>219.0</ele><time>2026-04-25T05:04:15.228Z</time></trkpt><trkpt lat="45.611895" lon="8.950355"><ele>219.0</ele><time>2026-04-25T05:04:16.229Z</time></trkpt><trkpt lat="45.611905" lon="8.95053"><ele>219.0</ele><time>2026-04-25T05:04:17.229Z</time></trkpt><trkpt lat="45.611915" lon="8.9507017"><ele>219.0</ele><time>2026-04-25T05:04:18.229Z</time></trkpt><trkpt lat="45.611925" lon="8.9508667"><ele>218.75</ele><time>2026-04-25T05:04:19.228Z</time></trkpt><trkpt lat="45.611935" lon="8.951035"><ele>218.5</ele><time>2026-04-25T05:04:20.23Z</time></trkpt><trkpt lat="45.6119417" lon="8.9512133"><ele>218.25</ele><time>2026-04-25T05:04:21.228Z</time></trkpt><trkpt lat="45.61195" lon="8.9513983"><ele>218.0</ele><time>2026-04-25T05:04:22.229Z</time></trkpt><trkpt lat="45.6119567" lon="8.9515917"><ele>217.75</ele><time>2026-04-25T05:04:23.228Z</time></trkpt><trkpt lat="45.611965" lon="8.95179"><ele>217.5</ele><time>2026-04-25T05:04:24.229Z</time></trkpt><trkpt lat="45.6119717" lon="8.9519933"><ele>217.25</ele><time>2026-04-25T05:04:25.228Z</time></trkpt><trkpt lat="45.6119767" lon="8.9521967"><ele>217.0</ele><time>2026-04-25T05:04:26.228Z</time></trkpt><trkpt lat="45.6119783" lon="8.9523717"><ele>217.0</ele><time>2026-04-25T05:04:27.231Z</time></trkpt><trkpt lat="45.6119867" lon="8.95255"><ele>217.0</ele><time>2026-04-25T05:04:28.228Z</time></trkpt><trkpt lat="45.6119933" lon="8.9527317"><ele>217.0</ele><time>2026-04-25T05:04:29.228Z</time></trkpt><trkpt lat="45.6119983" lon="8.9529167"><ele>217.0</ele><time>2026-04-25T05:04:30.227Z</time></trkpt><trkpt lat="45.612005" lon="8.953105"><ele>217.25</ele><time>2026-04-25T05:04:31.227Z</time></trkpt><trkpt lat="45.612015" lon="8.95329"><ele>217.5</ele><time>2026-04-25T05:04:32.228Z</time></trkpt><trkpt lat="45.6120233" lon="8.953475"><ele>217.75</ele><time>2026-04-25T05:04:33.229Z</time></trkpt><trkpt lat="45.6120317" lon="8.953655"><ele>218.0</ele><time>2026-04-25T05:04:34.229Z</time></trkpt><trkpt lat="45.6120367" lon="8.9538283"><ele>218.0</ele><time>2026-04-25T05:04:35.229Z</time></trkpt><trkpt lat="45.6120433" lon="8.9540033"><ele>218.0</ele><time>2026-04-25T05:04:36.23Z</time></trkpt><trkpt lat="45.6120467" lon="8.9541833"><ele>218.0</ele><time>2026-04-25T05:04:37.229Z</time></trkpt><trkpt lat="45.6120517" lon="8.9543617"><ele>218.0</ele><time>2026-04-25T05:04:38.229Z</time></trkpt><trkpt lat="45.6120567" lon="8.9545417"><ele>217.75</ele><time>2026-04-25T05:04:39.228Z</time></trkpt><trkpt lat="45.6120633" lon="8.95472"><ele>217.5</ele><time>2026-04-25T05:04:40.228Z</time></trkpt><trkpt lat="45.6120683" lon="8.9548967"><ele>217.25</ele><time>2026-04-25T05:04:41.229Z</time></trkpt><trkpt lat="45.6120717" lon="8.9550717"><ele>217.0</ele><time>2026-04-25T05:04:42.231Z</time></trkpt><trkpt lat="45.612075" lon="8.9552433"><ele>217.0</ele><time>2026-04-25T05:04:43.23Z</time></trkpt><trkpt lat="45.61208" lon="8.9554033"><ele>217.0</ele><time>2026-04-25T05:04:44.228Z</time></trkpt><trkpt lat="45.612085" lon="8.955555"><ele>217.0</ele><time>2026-04-25T05:04:45.229Z</time></trkpt><trkpt lat="45.61209" lon="8.955695"><ele>217.0</ele><time>2026-04-25T05:04:46.228Z</time></trkpt><trkpt lat="45.6120917" lon="8.9558267"><ele>217.0</ele><time>2026-04-25T05:04:47.228Z</time></trkpt><trkpt lat="45.6120933" lon="8.955945"><ele>216.99999999999997</ele><time>2026-04-25T05:04:48.23Z</time></trkpt><trkpt lat="45.6120983" lon="8.9560517"><ele>217.0</ele><time>2026-04-25T05:04:49.228Z</time></trkpt><trkpt lat="45.6121" lon="8.9561467"><ele>217.0</ele><time>2026-04-25T05:04:50.228Z</time></trkpt><trkpt lat="45.6120933" lon="8.9562367"><ele>217.0</ele><time>2026-04-25T05:04:51.23Z</time></trkpt><trkpt lat="45.6120533" lon="8.9564117"><ele>216.99999999999997</ele><time>2026-04-25T05:04:53.228Z</time></trkpt><trkpt lat="45.612045" lon="8.956505"><ele>217.0</ele><time>2026-04-25T05:04:54.229Z</time></trkpt><trkpt lat="45.612055" lon="8.9566017"><ele>216.99999999999997</ele><time>2026-04-25T05:04:55.228Z</time></trkpt><trkpt lat="45.6120817" lon="8.9566917"><ele>217.0</ele><time>2026-04-25T05:04:56.229Z</time></trkpt><trkpt lat="45.6121067" lon="8.9567783"><ele>217.0</ele><time>2026-04-25T05:04:57.231Z</time></trkpt><trkpt lat="45.612125" lon="8.9568783"><ele>217.0</ele><time>2026-04-25T05:04:58.229Z</time></trkpt><trkpt lat="45.61214" lon="8.9570117"><ele>216.99999999999997</ele><time>2026-04-25T05:04:59.228Z</time></trkpt><trkpt lat="45.612155" lon="8.957185"><ele>217.0</ele><time>2026-04-25T05:05:00.231Z</time></trkpt><trkpt lat="45.612165" lon="8.9573933"><ele>216.66666666666666</ele><time>2026-04-25T05:05:01.229Z</time></trkpt><trkpt lat="45.6121717" lon="8.9576217"><ele>216.33333333333331</ele><time>2026-04-25T05:05:02.23Z</time></trkpt><trkpt lat="45.6121733" lon="8.9578617"><ele>216.0</ele><time>2026-04-25T05:05:03.228Z</time></trkpt><trkpt lat="45.612175" lon="8.958115"><ele>216.0</ele><time>2026-04-25T05:05:04.228Z</time></trkpt><trkpt lat="45.61218" lon="8.9583867"><ele>216.0</ele><time>2026-04-25T05:05:05.23Z</time></trkpt><trkpt lat="45.61219" lon="8.9586617"><ele>216.0</ele><time>2026-04-25T05:05:06.228Z</time></trkpt><trkpt lat="45.6121967" lon="8.9589367"><ele>216.0</ele><time>2026-04-25T05:05:07.229Z</time></trkpt><trkpt lat="45.6122" lon="8.9592167"><ele>216.0</ele><time>2026-04-25T05:05:08.23Z</time></trkpt><trkpt lat="45.6122" lon="8.959495"><ele>216.0</ele><time>2026-04-25T05:05:09.228Z</time></trkpt><trkpt lat="45.6122" lon="8.9597767"><ele>216.0</ele><time>2026-04-25T05:05:10.228Z</time></trkpt><trkpt lat="45.6122" lon="8.9600617"><ele>216.0</ele><time>2026-04-25T05:05:11.228Z</time></trkpt><trkpt lat="45.6122017" lon="8.9603383"><ele>216.0</ele><time>2026-04-25T05:05:12.228Z</time></trkpt><trkpt lat="45.61221" lon="8.9606133"><ele>216.0</ele><time>2026-04-25T05:05:13.228Z</time></trkpt><trkpt lat="45.6122183" lon="8.9608767"><ele>216.0</ele><time>2026-04-25T05:05:14.229Z</time></trkpt><trkpt lat="45.6122283" lon="8.9611417"><ele>216.0</ele><time>2026-04-25T05:05:15.23Z</time></trkpt><trkpt lat="45.612235" lon="8.96141"><ele>216.0</ele><time>2026-04-25T05:05:16.228Z</time></trkpt><trkpt lat="45.6122433" lon="8.9616633"><ele>216.0</ele><time>2026-04-25T05:05:17.228Z</time></trkpt><trkpt lat="45.6122533" lon="8.9618883"><ele>216.0</ele><time>2026-04-25T05:05:18.228Z</time></trkpt><trkpt lat="45.6122633" lon="8.9620917"><ele>215.75</ele><time>2026-04-25T05:05:19.229Z</time></trkpt><trkpt lat="45.6122717" lon="8.96228"><ele>215.5</ele><time>2026-04-25T05:05:20.228Z</time></trkpt><trkpt lat="45.6122717" lon="8.9624467"><ele>215.25</ele><time>2026-04-25T05:05:21.23Z</time></trkpt><trkpt lat="45.6122517" lon="8.9626167"><ele>215.0</ele><time>2026-04-25T05:05:22.231Z</time></trkpt><trkpt lat="45.6122217" lon="8.962795"><ele>215.0</ele><time>2026-04-25T05:05:23.23Z</time></trkpt><trkpt lat="45.61217" lon="8.96298"><ele>215.0</ele><time>2026-04-25T05:05:24.232Z</time></trkpt><trkpt lat="45.612115" lon="8.9631633"><ele>215.0</ele><time>2026-04-25T05:05:25.229Z</time></trkpt><trkpt lat="45.612065" lon="8.9633467"><ele>215.0</ele><time>2026-04-25T05:05:26.228Z</time></trkpt><trkpt lat="45.612025" lon="8.9635233"><ele>214.6</ele><time>2026-04-25T05:05:27.228Z</time></trkpt><trkpt lat="45.61199" lon="8.963685"><ele>214.2</ele><time>2026-04-25T05:05:28.227Z</time></trkpt><trkpt lat="45.611955" lon="8.9638233"><ele>213.8</ele><time>2026-04-25T05:05:29.228Z</time></trkpt><trkpt lat="45.6119083" lon="8.963945"><ele>213.4</ele><time>2026-04-25T05:05:30.228Z</time></trkpt><trkpt lat="45.6118467" lon="8.9640533"><ele>213.0</ele><time>2026-04-25T05:05:31.229Z</time></trkpt><trkpt lat="45.6117733" lon="8.9641533"><ele>213.0</ele><time>2026-04-25T05:05:32.231Z</time></trkpt><trkpt lat="45.6116967" lon="8.964255"><ele>213.0</ele><time>2026-04-25T05:05:33.231Z</time></trkpt><trkpt lat="45.611635" lon="8.9643683"><ele>213.0</ele><time>2026-04-25T05:05:34.229Z</time></trkpt><trkpt lat="45.6115967" lon="8.9645017"><ele>213.0</ele><time>2026-04-25T05:05:35.228Z</time></trkpt><trkpt lat="45.6115933" lon="8.964645"><ele>213.0</ele><time>2026-04-25T05:05:36.228Z</time></trkpt><trkpt lat="45.61162" lon="8.964795"><ele>213.0</ele><time>2026-04-25T05:05:37.23Z</time></trkpt><trkpt lat="45.6116667" lon="8.9649483"><ele>213.0</ele><time>2026-04-25T05:05:38.228Z</time></trkpt><trkpt lat="45.6117283" lon="8.9651067"><ele>213.0</ele><time>2026-04-25T05:05:39.229Z</time></trkpt><trkpt lat="45.6118" lon="8.96527"><ele>213.0</ele><time>2026-04-25T05:05:40.228Z</time></trkpt><trkpt lat="45.6118833" lon="8.96544"><ele>213.0</ele><time>2026-04-25T05:05:41.229Z</time></trkpt><trkpt lat="45.6119783" lon="8.96562"><ele>213.0</ele><time>2026-04-25T05:05:42.228Z</time></trkpt><trkpt lat="45.6120817" lon="8.9657983"><ele>213.0</ele><time>2026-04-25T05:05:43.23Z</time></trkpt><trkpt lat="45.61218" lon="8.96597"><ele>213.0</ele><time>2026-04-25T05:05:44.23Z</time></trkpt><trkpt lat="45.6122667" lon="8.9661467"><ele>213.0</ele><time>2026-04-25T05:05:45.23Z</time></trkpt><trkpt lat="45.6123433" lon="8.96633"><ele>213.0</ele><time>2026-04-25T05:05:46.228Z</time></trkpt><trkpt lat="45.6124" lon="8.9665133"><ele>213.0</ele><time>2026-04-25T05:05:47.229Z</time></trkpt><trkpt lat="45.612435" lon="8.9666967"><ele>213.0</ele><time>2026-04-25T05:05:48.229Z</time></trkpt><trkpt lat="45.6124583" lon="8.9668867"><ele>213.0</ele><time>2026-04-25T05:05:49.228Z</time></trkpt><trkpt lat="45.6124733" lon="8.9670783"><ele>213.0</ele><time>2026-04-25T05:05:50.23Z</time></trkpt><trkpt lat="45.6124867" lon="8.9672833"><ele>213.0</ele><time>2026-04-25T05:05:51.23Z</time></trkpt><trkpt lat="45.6125" lon="8.9675067"><ele>213.0</ele><time>2026-04-25T05:05:52.228Z</time></trkpt><trkpt lat="45.6125133" lon="8.967755"><ele>213.0</ele><time>2026-04-25T05:05:53.228Z</time></trkpt><trkpt lat="45.6125267" lon="8.9680133"><ele>213.0</ele><time>2026-04-25T05:05:54.232Z</time></trkpt><trkpt lat="45.6125367" lon="8.9682867"><ele>213.0</ele><time>2026-04-25T05:05:55.229Z</time></trkpt><trkpt lat="45.612545" lon="8.9685617"><ele>213.0</ele><time>2026-04-25T05:05:56.23Z</time></trkpt><trkpt lat="45.6125517" lon="8.968845"><ele>213.0</ele><time>2026-04-25T05:05:57.229Z</time></trkpt><trkpt lat="45.61256" lon="8.9691333"><ele>213.0</ele><time>2026-04-25T05:05:58.228Z</time></trkpt><trkpt lat="45.6125683" lon="8.9694267"><ele>213.0</ele><time>2026-04-25T05:05:59.228Z</time></trkpt><trkpt lat="45.6125717" lon="8.9697317"><ele>213.0</ele><time>2026-04-25T05:06:00.229Z</time></trkpt><trkpt lat="45.6125817" lon="8.97003"><ele>213.66666666666669</ele><time>2026-04-25T05:06:01.23Z</time></trkpt><trkpt lat="45.6125933" lon="8.9703183"><ele>214.33333333333334</ele><time>2026-04-25T05:06:02.229Z</time></trkpt><trkpt lat="45.612605" lon="8.970605"><ele>215.0</ele><time>2026-04-25T05:06:03.229Z</time></trkpt><trkpt lat="45.6126167" lon="8.9708933"><ele>215.0</ele><time>2026-04-25T05:06:04.229Z</time></trkpt><trkpt lat="45.6126267" lon="8.9711817"><ele>215.0</ele><time>2026-04-25T05:06:05.228Z</time></trkpt><trkpt lat="45.6126367" lon="8.9714683"><ele>215.0</ele><time>2026-04-25T05:06:06.229Z</time></trkpt><trkpt lat="45.6126467" lon="8.9717633"><ele>214.0</ele><time>2026-04-25T05:06:07.228Z</time></trkpt><trkpt lat="45.6126583" lon="8.97206"><ele>213.0</ele><time>2026-04-25T05:06:08.229Z</time></trkpt><trkpt lat="45.61267" lon="8.97236"><ele>212.0</ele><time>2026-04-25T05:06:09.232Z</time></trkpt><trkpt lat="45.6126783" lon="8.9726633"><ele>212.0</ele><time>2026-04-25T05:06:10.228Z</time></trkpt><trkpt lat="45.6126883" lon="8.9729633"><ele>212.0</ele><time>2026-04-25T05:06:11.229Z</time></trkpt><trkpt lat="45.6126983" lon="8.973265"><ele>212.0</ele><time>2026-04-25T05:06:12.228Z</time></trkpt><trkpt lat="45.6127067" lon="8.973565"><ele>213.0</ele><time>2026-04-25T05:06:13.23Z</time></trkpt><trkpt lat="45.6127167" lon="8.9738667"><ele>214.0</ele><time>2026-04-25T05:06:14.229Z</time></trkpt><trkpt lat="45.612725" lon="8.974165"><ele>215.0</ele><time>2026-04-25T05:06:15.229Z</time></trkpt><trkpt lat="45.6127333" lon="8.9744617"><ele>215.0</ele><time>2026-04-25T05:06:16.23Z</time></trkpt><trkpt lat="45.6127433" lon="8.9747567"><ele>215.0</ele><time>2026-04-25T05:06:17.228Z</time></trkpt><trkpt lat="45.6127533" lon="8.97505"><ele>215.0</ele><time>2026-04-25T05:06:18.229Z</time></trkpt><trkpt lat="45.61276" lon="8.975345"><ele>214.0</ele><time>2026-04-25T05:06:19.228Z</time></trkpt><trkpt lat="45.61277" lon="8.975645"><ele>213.0</ele><time>2026-04-25T05:06:20.229Z</time></trkpt><trkpt lat="45.6127817" lon="8.9759433"><ele>212.0</ele><time>2026-04-25T05:06:21.228Z</time></trkpt><trkpt lat="45.612795" lon="8.9762417"><ele>212.0</ele><time>2026-04-25T05:06:22.228Z</time></trkpt><trkpt lat="45.61281" lon="8.97654"><ele>212.0</ele><time>2026-04-25T05:06:23.231Z</time></trkpt><trkpt lat="45.6128217" lon="8.9768367"><ele>212.0</ele><time>2026-04-25T05:06:24.233Z</time></trkpt><trkpt lat="45.6128283" lon="8.9771367"><ele>211.66666666666669</ele><time>2026-04-25T05:06:25.228Z</time></trkpt><trkpt lat="45.61284" lon="8.9774383"><ele>211.33333333333331</ele><time>2026-04-25T05:06:26.231Z</time></trkpt><trkpt lat="45.6128517" lon="8.9777317"><ele>211.0</ele><time>2026-04-25T05:06:27.229Z</time></trkpt><trkpt lat="45.612865" lon="8.97802"><ele>211.0</ele><time>2026-04-25T05:06:28.229Z</time></trkpt><trkpt lat="45.6128783" lon="8.9783033"><ele>211.0</ele><time>2026-04-25T05:06:29.229Z</time></trkpt><trkpt lat="45.6128917" lon="8.978585"><ele>211.0</ele><time>2026-04-25T05:06:30.23Z</time></trkpt><trkpt lat="45.6129017" lon="8.9788667"><ele>210.33333333333331</ele><time>2026-04-25T05:06:31.23Z</time></trkpt><trkpt lat="45.612915" lon="8.97915"><ele>209.66666666666669</ele><time>2026-04-25T05:06:32.229Z</time></trkpt><trkpt lat="45.612925" lon="8.9794383"><ele>209.0</ele><time>2026-04-25T05:06:33.23Z</time></trkpt><trkpt lat="45.6129333" lon="8.9797267"><ele>208.66666666666669</ele><time>2026-04-25T05:06:34.227Z</time></trkpt><trkpt lat="45.61294" lon="8.9800167"><ele>208.33333333333331</ele><time>2026-04-25T05:06:35.228Z</time></trkpt><trkpt lat="45.6129433" lon="8.9803083"><ele>208.0</ele><time>2026-04-25T05:06:36.227Z</time></trkpt><trkpt lat="45.6129517" lon="8.9806"><ele>207.66666666666666</ele><time>2026-04-25T05:06:37.228Z</time></trkpt><trkpt lat="45.6129583" lon="8.980895"><ele>207.33333333333331</ele><time>2026-04-25T05:06:38.233Z</time></trkpt><trkpt lat="45.6129683" lon="8.9811883"><ele>207.0</ele><time>2026-04-25T05:06:39.229Z</time></trkpt><trkpt lat="45.6129783" lon="8.98148"><ele>208.33333333333331</ele><time>2026-04-25T05:06:40.228Z</time></trkpt><trkpt lat="45.6129867" lon="8.9817733"><ele>209.66666666666666</ele><time>2026-04-25T05:06:41.228Z</time></trkpt><trkpt lat="45.612995" lon="8.9820633"><ele>211.0</ele><time>2026-04-25T05:06:42.24Z</time></trkpt><trkpt lat="45.613005" lon="8.9823567"><ele>210.33333333333331</ele><time>2026-04-25T05:06:43.228Z</time></trkpt><trkpt lat="45.613015" lon="8.9826467"><ele>209.66666666666669</ele><time>2026-04-25T05:06:44.228Z</time></trkpt><trkpt lat="45.6130283" lon="8.98294"><ele>209.0</ele><time>2026-04-25T05:06:45.228Z</time></trkpt><trkpt lat="45.6130383" lon="8.983235"><ele>209.33333333333334</ele><time>2026-04-25T05:06:46.228Z</time></trkpt><trkpt lat="45.6130467" lon="8.9835317"><ele>209.66666666666669</ele><time>2026-04-25T05:06:47.229Z</time></trkpt><trkpt lat="45.6130567" lon="8.9838283"><ele>210.0</ele><time>2026-04-25T05:06:48.229Z</time></trkpt><trkpt lat="45.6130683" lon="8.9841283"><ele>209.66666666666669</ele><time>2026-04-25T05:06:49.23Z</time></trkpt><trkpt lat="45.61308" lon="8.9844267"><ele>209.33333333333334</ele><time>2026-04-25T05:06:50.228Z</time></trkpt><trkpt lat="45.6130917" lon="8.9847267"><ele>209.0</ele><time>2026-04-25T05:06:51.228Z</time></trkpt><trkpt lat="45.6131033" lon="8.9850283"><ele>209.0</ele><time>2026-04-25T05:06:52.229Z</time></trkpt><trkpt lat="45.6131133" lon="8.98533"><ele>209.0</ele><time>2026-04-25T05:06:53.228Z</time></trkpt><trkpt lat="45.6131233" lon="8.9856333"><ele>209.0</ele><time>2026-04-25T05:06:54.229Z</time></trkpt><trkpt lat="45.6131333" lon="8.9859383"><ele>209.0</ele><time>2026-04-25T05:06:55.228Z</time></trkpt><trkpt lat="45.613145" lon="8.98624"><ele>209.0</ele><time>2026-04-25T05:06:56.228Z</time></trkpt><trkpt lat="45.613155" lon="8.9865433"><ele>209.0</ele><time>2026-04-25T05:06:57.337Z</time></trkpt><trkpt lat="45.6131767" lon="8.987145"><ele>209.33333333333334</ele><time>2026-04-25T05:06:59.227Z</time></trkpt><trkpt lat="45.6131883" lon="8.9874483"><ele>209.66666666666669</ele><time>2026-04-25T05:07:00.228Z</time></trkpt><trkpt lat="45.6131967" lon="8.9877517"><ele>210.0</ele><time>2026-04-25T05:07:01.228Z</time></trkpt><trkpt lat="45.6132067" lon="8.9880533"><ele>209.0</ele><time>2026-04-25T05:07:02.229Z</time></trkpt><trkpt lat="45.6132167" lon="8.9883617"><ele>208.0</ele><time>2026-04-25T05:07:03.23Z</time></trkpt><trkpt lat="45.613225" lon="8.9886633"><ele>207.0</ele><time>2026-04-25T05:07:04.228Z</time></trkpt><trkpt lat="45.6132333" lon="8.988945"><ele>206.66666666666669</ele><time>2026-04-25T05:07:05.229Z</time></trkpt><trkpt lat="45.61324" lon="8.98921"><ele>206.33333333333334</ele><time>2026-04-25T05:07:06.229Z</time></trkpt><trkpt lat="45.6132467" lon="8.9894617"><ele>206.0</ele><time>2026-04-25T05:07:07.23Z</time></trkpt><trkpt lat="45.61325" lon="8.9897"><ele>206.0</ele><time>2026-04-25T05:07:08.228Z</time></trkpt><trkpt lat="45.613255" lon="8.989925"><ele>206.0</ele><time>2026-04-25T05:07:09.229Z</time></trkpt><trkpt lat="45.6132583" lon="8.9901433"><ele>206.0</ele><time>2026-04-25T05:07:10.228Z</time></trkpt><trkpt lat="45.6132633" lon="8.9903533"><ele>206.25</ele><time>2026-04-25T05:07:11.229Z</time></trkpt><trkpt lat="45.6132733" lon="8.9905483"><ele>206.5</ele><time>2026-04-25T05:07:12.229Z</time></trkpt><trkpt lat="45.6132933" lon="8.99072"><ele>206.75</ele><time>2026-04-25T05:07:13.231Z</time></trkpt><trkpt lat="45.6133217" lon="8.99087"><ele>207.0</ele><time>2026-04-25T05:07:14.229Z</time></trkpt><trkpt lat="45.6133483" lon="8.9910183"><ele>207.0</ele><time>2026-04-25T05:07:15.23Z</time></trkpt><trkpt lat="45.61337" lon="8.991175"><ele>207.0</ele><time>2026-04-25T05:07:16.228Z</time></trkpt><trkpt lat="45.6133783" lon="8.9913417"><ele>207.0</ele><time>2026-04-25T05:07:17.229Z</time></trkpt><trkpt lat="45.6133767" lon="8.9915133"><ele>207.0</ele><time>2026-04-25T05:07:18.228Z</time></trkpt><trkpt lat="45.6133633" lon="8.991695"><ele>207.0</ele><time>2026-04-25T05:07:19.229Z</time></trkpt><trkpt lat="45.6133433" lon="8.9918817"><ele>207.0</ele><time>2026-04-25T05:07:20.228Z</time></trkpt><trkpt lat="45.6133333" lon="8.9920733"><ele>207.0</ele><time>2026-04-25T05:07:21.23Z</time></trkpt><trkpt lat="45.61333" lon="8.992275"><ele>207.0</ele><time>2026-04-25T05:07:22.229Z</time></trkpt><trkpt lat="45.613335" lon="8.99248"><ele>207.25</ele><time>2026-04-25T05:07:23.23Z</time></trkpt><trkpt lat="45.61335" lon="8.99269"><ele>207.5</ele><time>2026-04-25T05:07:24.228Z</time></trkpt><trkpt lat="45.613365" lon="8.992905"><ele>207.75</ele><time>2026-04-25T05:07:25.229Z</time></trkpt><trkpt lat="45.6133733" lon="8.9931183"><ele>208.0</ele><time>2026-04-25T05:07:26.228Z</time></trkpt><trkpt lat="45.61338" lon="8.993335"><ele>208.0</ele><time>2026-04-25T05:07:27.23Z</time></trkpt><trkpt lat="45.61339" lon="8.99356"><ele>208.0</ele><time>2026-04-25T05:07:28.228Z</time></trkpt><trkpt lat="45.6134017" lon="8.9937967"><ele>208.0</ele><time>2026-04-25T05:07:29.228Z</time></trkpt><trkpt lat="45.6134183" lon="8.9940383"><ele>208.0</ele><time>2026-04-25T05:07:30.228Z</time></trkpt><trkpt lat="45.613435" lon="8.994285"><ele>208.0</ele><time>2026-04-25T05:07:31.228Z</time></trkpt><trkpt lat="45.61345" lon="8.9945483"><ele>208.0</ele><time>2026-04-25T05:07:32.229Z</time></trkpt><trkpt lat="45.613465" lon="8.9948067"><ele>208.0</ele><time>2026-04-25T05:07:33.23Z</time></trkpt><trkpt lat="45.6134733" lon="8.9950533"><ele>208.0</ele><time>2026-04-25T05:07:34.229Z</time></trkpt><trkpt lat="45.6134783" lon="8.9952883"><ele>208.0</ele><time>2026-04-25T05:07:35.228Z</time></trkpt><trkpt lat="45.6134833" lon="8.9955083"><ele>208.0</ele><time>2026-04-25T05:07:36.23Z</time></trkpt><trkpt lat="45.6134867" lon="8.9957117"><ele>208.0</ele><time>2026-04-25T05:07:37.229Z</time></trkpt><trkpt lat="45.6134883" lon="8.9959033"><ele>208.0</ele><time>2026-04-25T05:07:38.228Z</time></trkpt><trkpt lat="45.6134933" lon="8.9960783"><ele>208.0</ele><time>2026-04-25T05:07:39.23Z</time></trkpt><trkpt lat="45.6135" lon="8.9962433"><ele>207.8</ele><time>2026-04-25T05:07:40.23Z</time></trkpt><trkpt lat="45.61351" lon="8.9963983"><ele>207.60000000000002</ele><time>2026-04-25T05:07:41.229Z</time></trkpt><trkpt lat="45.6135183" lon="8.9965467"><ele>207.39999999999998</ele><time>2026-04-25T05:07:42.229Z</time></trkpt><trkpt lat="45.6135267" lon="8.9966933"><ele>207.2</ele><time>2026-04-25T05:07:43.23Z</time></trkpt><trkpt lat="45.6135333" lon="8.9968433"><ele>207.0</ele><time>2026-04-25T05:07:44.229Z</time></trkpt><trkpt lat="45.6135317" lon="8.9969867"><ele>207.0</ele><time>2026-04-25T05:07:45.23Z</time></trkpt><trkpt lat="45.6135317" lon="8.9971183"><ele>207.0</ele><time>2026-04-25T05:07:46.231Z</time></trkpt><trkpt lat="45.6135367" lon="8.9972583"><ele>207.0</ele><time>2026-04-25T05:07:47.229Z</time></trkpt><trkpt lat="45.6135433" lon="8.997415"><ele>207.0</ele><time>2026-04-25T05:07:48.23Z</time></trkpt><trkpt lat="45.61355" lon="8.9975917"><ele>207.0</ele><time>2026-04-25T05:07:49.231Z</time></trkpt><trkpt lat="45.6135533" lon="8.9977867"><ele>207.0</ele><time>2026-04-25T05:07:50.229Z</time></trkpt><trkpt lat="45.6135583" lon="8.9979983"><ele>207.0</ele><time>2026-04-25T05:07:51.23Z</time></trkpt><trkpt lat="45.6135633" lon="8.9982133"><ele>207.0</ele><time>2026-04-25T05:07:52.228Z</time></trkpt><trkpt lat="45.6135683" lon="8.9984317"><ele>207.33333333333331</ele><time>2026-04-25T05:07:53.229Z</time></trkpt><trkpt lat="45.6135767" lon="8.99865"><ele>207.66666666666666</ele><time>2026-04-25T05:07:54.229Z</time></trkpt><trkpt lat="45.613585" lon="8.9988783"><ele>208.0</ele><time>2026-04-25T05:07:55.229Z</time></trkpt><trkpt lat="45.6135933" lon="8.9991067"><ele>208.0</ele><time>2026-04-25T05:07:56.228Z</time></trkpt><trkpt lat="45.6136017" lon="8.99933"><ele>208.0</ele><time>2026-04-25T05:07:57.229Z</time></trkpt><trkpt lat="45.6136083" lon="8.99955"><ele>208.0</ele><time>2026-04-25T05:07:58.228Z</time></trkpt><trkpt lat="45.6136133" lon="8.9997767"><ele>208.0</ele><time>2026-04-25T05:07:59.228Z</time></trkpt><trkpt lat="45.6136167" lon="8.9999967"><ele>208.0</ele><time>2026-04-25T05:08:00.231Z</time></trkpt><trkpt lat="45.613625" lon="9.0002017"><ele>208.0</ele><time>2026-04-25T05:08:01.23Z</time></trkpt><trkpt lat="45.61363" lon="9.000395"><ele>208.0</ele><time>2026-04-25T05:08:02.228Z</time></trkpt><trkpt lat="45.6136367" lon="9.0005783"><ele>208.0</ele><time>2026-04-25T05:08:03.232Z</time></trkpt><trkpt lat="45.6136417" lon="9.00075"><ele>208.0</ele><time>2026-04-25T05:08:04.23Z</time></trkpt><trkpt lat="45.6136467" lon="9.0009033"><ele>208.0</ele><time>2026-04-25T05:08:05.231Z</time></trkpt><trkpt lat="45.61365" lon="9.001045"><ele>208.0</ele><time>2026-04-25T05:08:06.227Z</time></trkpt><trkpt lat="45.6136567" lon="9.0011883"><ele>208.0</ele><time>2026-04-25T05:08:07.228Z</time></trkpt><trkpt lat="45.613665" lon="9.0013433"><ele>207.5</ele><time>2026-04-25T05:08:08.229Z</time></trkpt><trkpt lat="45.61367" lon="9.001515"><ele>207.0</ele><time>2026-04-25T05:08:09.228Z</time></trkpt><trkpt lat="45.61368" lon="9.0017"><ele>206.5</ele><time>2026-04-25T05:08:10.228Z</time></trkpt><trkpt lat="45.6136933" lon="9.001885"><ele>206.0</ele><time>2026-04-25T05:08:11.228Z</time></trkpt><trkpt lat="45.613715" lon="9.0020683"><ele>206.0</ele><time>2026-04-25T05:08:12.228Z</time></trkpt><trkpt lat="45.6137383" lon="9.0022517"><ele>206.0</ele><time>2026-04-25T05:08:13.228Z</time></trkpt><trkpt lat="45.613765" lon="9.00243"><ele>206.0</ele><time>2026-04-25T05:08:14.228Z</time></trkpt><trkpt lat="45.6137933" lon="9.0026083"><ele>206.0</ele><time>2026-04-25T05:08:15.228Z</time></trkpt><trkpt lat="45.6138233" lon="9.00279"><ele>206.0</ele><time>2026-04-25T05:08:16.228Z</time></trkpt><trkpt lat="45.6138533" lon="9.0029783"><ele>206.0</ele><time>2026-04-25T05:08:17.227Z</time></trkpt><trkpt lat="45.6138933" lon="9.0031717"><ele>206.0</ele><time>2026-04-25T05:08:18.229Z</time></trkpt><trkpt lat="45.613935" lon="9.003375"><ele>206.0</ele><time>2026-04-25T05:08:19.231Z</time></trkpt><trkpt lat="45.613985" lon="9.0035767"><ele>206.33333333333334</ele><time>2026-04-25T05:08:20.229Z</time></trkpt><trkpt lat="45.6140417" lon="9.003785"><ele>206.66666666666669</ele><time>2026-04-25T05:08:21.23Z</time></trkpt><trkpt lat="45.6141017" lon="9.003995"><ele>207.0</ele><time>2026-04-25T05:08:22.23Z</time></trkpt><trkpt lat="45.6141667" lon="9.0042067"><ele>207.0</ele><time>2026-04-25T05:08:23.229Z</time></trkpt><trkpt lat="45.6142367" lon="9.0044183"><ele>207.0</ele><time>2026-04-25T05:08:24.23Z</time></trkpt><trkpt lat="45.614305" lon="9.0046233"><ele>207.0</ele><time>2026-04-25T05:08:25.228Z</time></trkpt><trkpt lat="45.6143767" lon="9.0048233"><ele>207.0</ele><time>2026-04-25T05:08:26.229Z</time></trkpt><trkpt lat="45.6144583" lon="9.005015"><ele>207.0</ele><time>2026-04-25T05:08:27.23Z</time></trkpt><trkpt lat="45.6145483" lon="9.0052067"><ele>207.0</ele><time>2026-04-25T05:08:28.228Z</time></trkpt><trkpt lat="45.6146417" lon="9.0053967"><ele>207.0</ele><time>2026-04-25T05:08:29.227Z</time></trkpt><trkpt lat="45.6147367" lon="9.005585"><ele>207.0</ele><time>2026-04-25T05:08:30.227Z</time></trkpt><trkpt lat="45.61484" lon="9.0057667"><ele>207.0</ele><time>2026-04-25T05:08:31.229Z</time></trkpt><trkpt lat="45.6149467" lon="9.0059467"><ele>207.0</ele><time>2026-04-25T05:08:32.227Z</time></trkpt><trkpt lat="45.615055" lon="9.00613"><ele>207.0</ele><time>2026-04-25T05:08:33.229Z</time></trkpt><trkpt lat="45.6151633" lon="9.0063133"><ele>207.0</ele><time>2026-04-25T05:08:34.229Z</time></trkpt><trkpt lat="45.6152717" lon="9.0064983"><ele>206.33333333333331</ele><time>2026-04-25T05:08:35.228Z</time></trkpt><trkpt lat="45.6153767" lon="9.00668"><ele>205.66666666666666</ele><time>2026-04-25T05:08:36.228Z</time></trkpt><trkpt lat="45.6154783" lon="9.0068483"><ele>205.0</ele><time>2026-04-25T05:08:37.23Z</time></trkpt><trkpt lat="45.6155717" lon="9.0070033"><ele>205.0</ele><time>2026-04-25T05:08:38.229Z</time></trkpt><trkpt lat="45.6156567" lon="9.0071483"><ele>205.0</ele><time>2026-04-25T05:08:39.23Z</time></trkpt><trkpt lat="45.615735" lon="9.00728"><ele>205.0</ele><time>2026-04-25T05:08:40.228Z</time></trkpt><trkpt lat="45.615805" lon="9.0074017"><ele>205.0</ele><time>2026-04-25T05:08:41.228Z</time></trkpt><trkpt lat="45.6158717" lon="9.0075167"><ele>205.4</ele><time>2026-04-25T05:08:42.229Z</time></trkpt><trkpt lat="45.615935" lon="9.0076267"><ele>205.8</ele><time>2026-04-25T05:08:43.23Z</time></trkpt><trkpt lat="45.615995" lon="9.007735"><ele>206.2</ele><time>2026-04-25T05:08:44.229Z</time></trkpt><trkpt lat="45.6160533" lon="9.0078367"><ele>206.6</ele><time>2026-04-25T05:08:45.231Z</time></trkpt><trkpt lat="45.6161117" lon="9.00793"><ele>207.0</ele><time>2026-04-25T05:08:46.23Z</time></trkpt><trkpt lat="45.616165" lon="9.0080217"><ele>207.2857142857143</ele><time>2026-04-25T05:08:47.231Z</time></trkpt><trkpt lat="45.6162183" lon="9.0081133"><ele>207.57142857142858</ele><time>2026-04-25T05:08:48.23Z</time></trkpt><trkpt lat="45.6162683" lon="9.0081933"><ele>207.85714285714286</ele><time>2026-04-25T05:08:49.229Z</time></trkpt><trkpt lat="45.6163133" lon="9.008275"><ele>208.14285714285717</ele><time>2026-04-25T05:08:50.228Z</time></trkpt><trkpt lat="45.6163567" lon="9.0083533"><ele>208.42857142857142</ele><time>2026-04-25T05:08:51.229Z</time></trkpt><trkpt lat="45.6164" lon="9.0084283"><ele>208.71428571428572</ele><time>2026-04-25T05:08:52.228Z</time></trkpt><trkpt lat="45.61644" lon="9.0084983"><ele>209.0</ele><time>2026-04-25T05:08:53.228Z</time></trkpt><trkpt lat="45.6165167" lon="9.00863"><ele>209.33333333333334</ele><time>2026-04-25T05:08:55.228Z</time></trkpt><trkpt lat="45.616585" lon="9.008745"><ele>209.66666666666669</ele><time>2026-04-25T05:08:57.23Z</time></trkpt><trkpt lat="45.6166467" lon="9.00885"><ele>210.0</ele><time>2026-04-25T05:08:59.228Z</time></trkpt><trkpt lat="45.616705" lon="9.008945"><ele>210.33333333333331</ele><time>2026-04-25T05:09:01.23Z</time></trkpt><trkpt lat="45.6167567" lon="9.0090317"><ele>210.66666666666666</ele><time>2026-04-25T05:09:03.228Z</time></trkpt><trkpt lat="45.6168" lon="9.00911"><ele>211.0</ele><time>2026-04-25T05:09:05.228Z</time></trkpt><trkpt lat="45.61684" lon="9.0091817"><ele>210.99999999999997</ele><time>2026-04-25T05:09:07.227Z</time></trkpt><trkpt lat="45.6168833" lon="9.0092717"><ele>211.0</ele><time>2026-04-25T05:09:10.228Z</time></trkpt><trkpt lat="45.6169517" lon="9.0093967"><ele>211.0</ele><time>2026-04-25T05:09:56.229Z</time></trkpt><trkpt lat="45.6169917" lon="9.0094733"><ele>211.0</ele><time>2026-04-25T05:09:57.228Z</time></trkpt><trkpt lat="45.6170467" lon="9.0095617"><ele>210.99999999999997</ele><time>2026-04-25T05:09:58.227Z</time></trkpt><trkpt lat="45.6171033" lon="9.0096483"><ele>211.0</ele><time>2026-04-25T05:09:59.229Z</time></trkpt><trkpt lat="45.6171617" lon="9.0097433"><ele>211.0</ele><time>2026-04-25T05:10:00.23Z</time></trkpt><trkpt lat="45.61722" lon="9.009845"><ele>211.0</ele><time>2026-04-25T05:10:01.23Z</time></trkpt><trkpt lat="45.6172883" lon="9.0099633"><ele>211.0</ele><time>2026-04-25T05:10:02.229Z</time></trkpt><trkpt lat="45.6173617" lon="9.0100917"><ele>211.0</ele><time>2026-04-25T05:10:03.228Z</time></trkpt><trkpt lat="45.6174417" lon="9.01023"><ele>211.0</ele><time>2026-04-25T05:10:04.227Z</time></trkpt><trkpt lat="45.6175233" lon="9.0103667"><ele>211.0</ele><time>2026-04-25T05:10:05.229Z</time></trkpt><trkpt lat="45.617605" lon="9.0105"><ele>211.0</ele><time>2026-04-25T05:10:06.227Z</time></trkpt><trkpt lat="45.6176883" lon="9.01064"><ele>211.0</ele><time>2026-04-25T05:10:07.227Z</time></trkpt><trkpt lat="45.6177717" lon="9.0107933"><ele>211.0</ele><time>2026-04-25T05:10:08.228Z</time></trkpt><trkpt lat="45.6178617" lon="9.010945"><ele>211.0</ele><time>2026-04-25T05:10:09.229Z</time></trkpt><trkpt lat="45.6179533" lon="9.0111"><ele>211.0</ele><time>2026-04-25T05:10:10.228Z</time></trkpt><trkpt lat="45.6180467" lon="9.01126"><ele>211.0</ele><time>2026-04-25T05:10:11.23Z</time></trkpt><trkpt lat="45.6181433" lon="9.0114233"><ele>211.0</ele><time>2026-04-25T05:10:12.229Z</time></trkpt><trkpt lat="45.6182367" lon="9.0115833"><ele>211.5</ele><time>2026-04-25T05:10:13.227Z</time></trkpt><trkpt lat="45.6183317" lon="9.0117383"><ele>212.0</ele><time>2026-04-25T05:10:14.228Z</time></trkpt><trkpt lat="45.6184333" lon="9.011895"><ele>212.5</ele><time>2026-04-25T05:10:15.228Z</time></trkpt><trkpt lat="45.6185333" lon="9.0120567"><ele>213.0</ele><time>2026-04-25T05:10:16.227Z</time></trkpt><trkpt lat="45.618635" lon="9.0122217"><ele>212.66666666666669</ele><time>2026-04-25T05:10:17.227Z</time></trkpt><trkpt lat="45.6187417" lon="9.0123867"><ele>212.33333333333334</ele><time>2026-04-25T05:10:18.228Z</time></trkpt><trkpt lat="45.6188483" lon="9.0125617"><ele>212.0</ele><time>2026-04-25T05:10:19.229Z</time></trkpt><trkpt lat="45.6189533" lon="9.01274"><ele>212.0</ele><time>2026-04-25T05:10:20.23Z</time></trkpt><trkpt lat="45.6190583" lon="9.01292"><ele>212.0</ele><time>2026-04-25T05:10:21.229Z</time></trkpt><trkpt lat="45.6191617" lon="9.0131017"><ele>212.0</ele><time>2026-04-25T05:10:22.229Z</time></trkpt><trkpt lat="45.6192717" lon="9.0132867"><ele>211.66666666666669</ele><time>2026-04-25T05:10:23.228Z</time></trkpt><trkpt lat="45.619385" lon="9.0134767"><ele>211.33333333333331</ele><time>2026-04-25T05:10:24.229Z</time></trkpt><trkpt lat="45.619505" lon="9.0136733"><ele>211.0</ele><time>2026-04-25T05:10:25.228Z</time></trkpt><trkpt lat="45.6196267" lon="9.0138783"><ele>210.66666666666666</ele><time>2026-04-25T05:10:26.227Z</time></trkpt><trkpt lat="45.6197517" lon="9.0140833"><ele>210.33333333333331</ele><time>2026-04-25T05:10:27.228Z</time></trkpt><trkpt lat="45.6198683" lon="9.014285"><ele>210.0</ele><time>2026-04-25T05:10:28.228Z</time></trkpt><trkpt lat="45.6199867" lon="9.0144883"><ele>210.0</ele><time>2026-04-25T05:10:29.228Z</time></trkpt><trkpt lat="45.620105" lon="9.01469"><ele>210.0</ele><time>2026-04-25T05:10:30.228Z</time></trkpt><trkpt lat="45.620225" lon="9.01489"><ele>210.0</ele><time>2026-04-25T05:10:31.228Z</time></trkpt><trkpt lat="45.620345" lon="9.01509"><ele>211.66666666666669</ele><time>2026-04-25T05:10:32.227Z</time></trkpt><trkpt lat="45.620465" lon="9.0152917"><ele>213.33333333333334</ele><time>2026-04-25T05:10:33.227Z</time></trkpt><trkpt lat="45.620585" lon="9.0154983"><ele>215.0</ele><time>2026-04-25T05:10:34.228Z</time></trkpt><trkpt lat="45.6206983" lon="9.0157"><ele>215.33333333333334</ele><time>2026-04-25T05:10:35.227Z</time></trkpt><trkpt lat="45.6208067" lon="9.015885"><ele>215.66666666666669</ele><time>2026-04-25T05:10:36.227Z</time></trkpt><trkpt lat="45.62091" lon="9.0160567"><ele>216.0</ele><time>2026-04-25T05:10:37.228Z</time></trkpt><trkpt lat="45.62101" lon="9.0162167"><ele>216.0</ele><time>2026-04-25T05:10:38.227Z</time></trkpt><trkpt lat="45.6211" lon="9.0163767"><ele>216.0</ele><time>2026-04-25T05:10:39.229Z</time></trkpt><trkpt lat="45.6211833" lon="9.016515"><ele>216.0</ele><time>2026-04-25T05:10:40.228Z</time></trkpt><trkpt lat="45.62126" lon="9.0166517"><ele>216.0</ele><time>2026-04-25T05:10:41.227Z</time></trkpt><trkpt lat="45.621335" lon="9.016785"><ele>215.4</ele><time>2026-04-25T05:10:42.227Z</time></trkpt><trkpt lat="45.6214" lon="9.0169067"><ele>214.8</ele><time>2026-04-25T05:10:43.227Z</time></trkpt><trkpt lat="45.6214483" lon="9.01703"><ele>214.20000000000002</ele><time>2026-04-25T05:10:44.23Z</time></trkpt><trkpt lat="45.6214883" lon="9.0171433"><ele>213.60000000000002</ele><time>2026-04-25T05:10:45.23Z</time></trkpt><trkpt lat="45.6215383" lon="9.01724"><ele>213.0</ele><time>2026-04-25T05:10:46.227Z</time></trkpt><trkpt lat="45.6216" lon="9.0173267"><ele>213.0</ele><time>2026-04-25T05:10:47.227Z</time></trkpt><trkpt lat="45.6216833" lon="9.0174267"><ele>213.0</ele><time>2026-04-25T05:10:48.227Z</time></trkpt><trkpt lat="45.62177" lon="9.017555"><ele>213.0</ele><time>2026-04-25T05:10:49.229Z</time></trkpt><trkpt lat="45.62186" lon="9.0176883"><ele>213.0</ele><time>2026-04-25T05:10:50.229Z</time></trkpt><trkpt lat="45.6219467" lon="9.0178267"><ele>213.0</ele><time>2026-04-25T05:10:51.231Z</time></trkpt><trkpt lat="45.6220267" lon="9.0179533"><ele>213.0</ele><time>2026-04-25T05:10:52.228Z</time></trkpt><trkpt lat="45.622095" lon="9.01807"><ele>213.0</ele><time>2026-04-25T05:10:53.231Z</time></trkpt><trkpt lat="45.622155" lon="9.018185"><ele>213.0</ele><time>2026-04-25T05:10:54.23Z</time></trkpt><trkpt lat="45.6222017" lon="9.0183017"><ele>213.0</ele><time>2026-04-25T05:10:55.227Z</time></trkpt><trkpt lat="45.62223" lon="9.0184217"><ele>212.66666666666666</ele><time>2026-04-25T05:10:56.227Z</time></trkpt><trkpt lat="45.622245" lon="9.0185417"><ele>212.33333333333331</ele><time>2026-04-25T05:10:57.23Z</time></trkpt><trkpt lat="45.6222633" lon="9.0186533"><ele>212.0</ele><time>2026-04-25T05:10:58.228Z</time></trkpt><trkpt lat="45.6222917" lon="9.0187383"><ele>211.66666666666666</ele><time>2026-04-25T05:10:59.228Z</time></trkpt><trkpt lat="45.62234" lon="9.0188083"><ele>211.33333333333331</ele><time>2026-04-25T05:11:00.228Z</time></trkpt><trkpt lat="45.62242" lon="9.0188133"><ele>211.0</ele><time>2026-04-25T05:11:01.227Z</time></trkpt><trkpt lat="45.6225033" lon="9.0187817"><ele>211.0</ele><time>2026-04-25T05:11:02.227Z</time></trkpt><trkpt lat="45.62258" lon="9.0187217"><ele>211.0</ele><time>2026-04-25T05:11:03.229Z</time></trkpt><trkpt lat="45.62267" lon="9.0186367"><ele>211.0</ele><time>2026-04-25T05:11:04.229Z</time></trkpt><trkpt lat="45.6227717" lon="9.0185617"><ele>211.0</ele><time>2026-04-25T05:11:05.227Z</time></trkpt><trkpt lat="45.622885" lon="9.018515"><ele>211.0</ele><time>2026-04-25T05:11:06.229Z</time></trkpt><trkpt lat="45.62301" lon="9.0184783"><ele>212.0</ele><time>2026-04-25T05:11:07.229Z</time></trkpt><trkpt lat="45.6231517" lon="9.018435"><ele>213.0</ele><time>2026-04-25T05:11:08.227Z</time></trkpt><trkpt lat="45.6233033" lon="9.0183833"><ele>214.0</ele><time>2026-04-25T05:11:09.228Z</time></trkpt><trkpt lat="45.6234517" lon="9.01833"><ele>213.33333333333331</ele><time>2026-04-25T05:11:10.23Z</time></trkpt><trkpt lat="45.6236" lon="9.0182783"><ele>212.66666666666669</ele><time>2026-04-25T05:11:11.233Z</time></trkpt><trkpt lat="45.6237533" lon="9.0182267"><ele>212.0</ele><time>2026-04-25T05:11:12.228Z</time></trkpt><trkpt lat="45.6239167" lon="9.018185"><ele>211.66666666666669</ele><time>2026-04-25T05:11:13.227Z</time></trkpt><trkpt lat="45.624085" lon="9.0181517"><ele>211.33333333333331</ele><time>2026-04-25T05:11:14.229Z</time></trkpt><trkpt lat="45.6242583" lon="9.0181267"><ele>211.0</ele><time>2026-04-25T05:11:15.227Z</time></trkpt><trkpt lat="45.624425" lon="9.0180967"><ele>213.0</ele><time>2026-04-25T05:11:16.227Z</time></trkpt><trkpt lat="45.6245783" lon="9.01806"><ele>215.0</ele><time>2026-04-25T05:11:17.229Z</time></trkpt><trkpt lat="45.6247333" lon="9.0180183"><ele>217.0</ele><time>2026-04-25T05:11:18.228Z</time></trkpt><trkpt lat="45.62489" lon="9.0179733"><ele>217.0</ele><time>2026-04-25T05:11:19.229Z</time></trkpt><trkpt lat="45.6250433" lon="9.017925"><ele>217.0</ele><time>2026-04-25T05:11:20.229Z</time></trkpt><trkpt lat="45.6252017" lon="9.01788"><ele>217.0</ele><time>2026-04-25T05:11:21.229Z</time></trkpt><trkpt lat="45.625365" lon="9.0178333"><ele>216.33333333333331</ele><time>2026-04-25T05:11:22.229Z</time></trkpt><trkpt lat="45.6255317" lon="9.0177883"><ele>215.66666666666669</ele><time>2026-04-25T05:11:23.229Z</time></trkpt><trkpt lat="45.6257" lon="9.0177417"><ele>215.0</ele><time>2026-04-25T05:11:24.23Z</time></trkpt><trkpt lat="45.6258667" lon="9.0176983"><ele>215.0</ele><time>2026-04-25T05:11:25.23Z</time></trkpt><trkpt lat="45.626035" lon="9.017665"><ele>215.0</ele><time>2026-04-25T05:11:26.227Z</time></trkpt><trkpt lat="45.6262033" lon="9.017625"><ele>215.0</ele><time>2026-04-25T05:11:27.228Z</time></trkpt><trkpt lat="45.6263733" lon="9.0175883"><ele>215.33333333333334</ele><time>2026-04-25T05:11:28.228Z</time></trkpt><trkpt lat="45.6265467" lon="9.0175517"><ele>215.66666666666669</ele><time>2026-04-25T05:11:29.229Z</time></trkpt><trkpt lat="45.626725" lon="9.0175183"><ele>216.0</ele><time>2026-04-25T05:11:30.229Z</time></trkpt><trkpt lat="45.6269033" lon="9.0174917"><ele>216.0</ele><time>2026-04-25T05:11:31.229Z</time></trkpt><trkpt lat="45.6270867" lon="9.0174617"><ele>216.0</ele><time>2026-04-25T05:11:32.229Z</time></trkpt><trkpt lat="45.6272717" lon="9.01743"><ele>216.0</ele><time>2026-04-25T05:11:33.229Z</time></trkpt><trkpt lat="45.6274567" lon="9.0174"><ele>216.0</ele><time>2026-04-25T05:11:34.227Z</time></trkpt><trkpt lat="45.6276433" lon="9.0173717"><ele>216.0</ele><time>2026-04-25T05:11:35.228Z</time></trkpt><trkpt lat="45.6278317" lon="9.017345"><ele>216.0</ele><time>2026-04-25T05:11:36.228Z</time></trkpt><trkpt lat="45.628025" lon="9.0173117"><ele>217.33333333333331</ele><time>2026-04-25T05:11:37.228Z</time></trkpt><trkpt lat="45.6282183" lon="9.0172783"><ele>218.66666666666666</ele><time>2026-04-25T05:11:38.228Z</time></trkpt><trkpt lat="45.6284133" lon="9.017245"><ele>220.0</ele><time>2026-04-25T05:11:39.228Z</time></trkpt><trkpt lat="45.6286067" lon="9.017215"><ele>219.66666666666666</ele><time>2026-04-25T05:11:40.227Z</time></trkpt><trkpt lat="45.6287933" lon="9.0171883"><ele>219.33333333333331</ele><time>2026-04-25T05:11:41.227Z</time></trkpt><trkpt lat="45.6289833" lon="9.0171617"><ele>219.0</ele><time>2026-04-25T05:11:42.228Z</time></trkpt><trkpt lat="45.6291817" lon="9.0171317"><ele>219.0</ele><time>2026-04-25T05:11:43.229Z</time></trkpt><trkpt lat="45.6293783" lon="9.0171"><ele>219.0</ele><time>2026-04-25T05:11:44.23Z</time></trkpt><trkpt lat="45.629575" lon="9.0170667"><ele>219.0</ele><time>2026-04-25T05:11:45.229Z</time></trkpt><trkpt lat="45.6297733" lon="9.01704"><ele>219.0</ele><time>2026-04-25T05:11:46.229Z</time></trkpt><trkpt lat="45.6299683" lon="9.017015"><ele>219.0</ele><time>2026-04-25T05:11:47.228Z</time></trkpt><trkpt lat="45.63014" lon="9.0169883"><ele>219.0</ele><time>2026-04-25T05:11:48.229Z</time></trkpt><trkpt lat="45.6303033" lon="9.016965"><ele>219.5</ele><time>2026-04-25T05:11:49.228Z</time></trkpt><trkpt lat="45.63046" lon="9.0169433"><ele>220.0</ele><time>2026-04-25T05:11:50.228Z</time></trkpt><trkpt lat="45.6306067" lon="9.0169283"><ele>220.5</ele><time>2026-04-25T05:11:51.228Z</time></trkpt><trkpt lat="45.63074" lon="9.01692"><ele>221.0</ele><time>2026-04-25T05:11:52.231Z</time></trkpt><trkpt lat="45.6308683" lon="9.01692"><ele>221.0</ele><time>2026-04-25T05:11:53.229Z</time></trkpt><trkpt lat="45.6309933" lon="9.0169283"><ele>221.0</ele><time>2026-04-25T05:11:54.229Z</time></trkpt><trkpt lat="45.6311133" lon="9.0169367"><ele>221.0</ele><time>2026-04-25T05:11:55.228Z</time></trkpt><trkpt lat="45.6312267" lon="9.0169433"><ele>221.0</ele><time>2026-04-25T05:11:56.227Z</time></trkpt><trkpt lat="45.6313233" lon="9.0169517"><ele>220.83333333333334</ele><time>2026-04-25T05:11:57.228Z</time></trkpt><trkpt lat="45.631405" lon="9.0169633"><ele>220.66666666666669</ele><time>2026-04-25T05:11:58.228Z</time></trkpt><trkpt lat="45.6314767" lon="9.0169783"><ele>220.5</ele><time>2026-04-25T05:11:59.229Z</time></trkpt><trkpt lat="45.6315833" lon="9.01706"><ele>220.33333333333331</ele><time>2026-04-25T05:12:01.229Z</time></trkpt><trkpt lat="45.631615" lon="9.0171433"><ele>220.16666666666666</ele><time>2026-04-25T05:12:02.228Z</time></trkpt><trkpt lat="45.6316333" lon="9.0172367"><ele>220.0</ele><time>2026-04-25T05:12:03.227Z</time></trkpt><trkpt lat="45.6316233" lon="9.0174183"><ele>219.75</ele><time>2026-04-25T05:12:05.227Z</time></trkpt><trkpt lat="45.6315233" lon="9.0175567"><ele>219.5</ele><time>2026-04-25T05:12:06.228Z</time></trkpt><trkpt lat="45.631415" lon="9.0177117"><ele>219.25</ele><time>2026-04-25T05:12:07.228Z</time></trkpt><trkpt lat="45.6313283" lon="9.0178433"><ele>219.0</ele><time>2026-04-25T05:12:08.228Z</time></trkpt><trkpt lat="45.6312417" lon="9.0179783"><ele>219.0</ele><time>2026-04-25T05:12:09.228Z</time></trkpt><trkpt lat="45.6311483" lon="9.0181117"><ele>218.99999999999997</ele><time>2026-04-25T05:12:10.228Z</time></trkpt><trkpt lat="45.6310567" lon="9.0182383"><ele>218.99999999999997</ele><time>2026-04-25T05:12:11.23Z</time></trkpt><trkpt lat="45.630985" lon="9.0183367"><ele>219.0</ele><time>2026-04-25T05:12:12.227Z</time></trkpt><trkpt lat="45.6309233" lon="9.01841"><ele>219.0</ele><time>2026-04-25T05:12:13.229Z</time></trkpt><trkpt lat="45.63087" lon="9.0184617"><ele>219.2</ele><time>2026-04-25T05:12:14.228Z</time></trkpt><trkpt lat="45.630775" lon="9.0185267"><ele>219.39999999999998</ele><time>2026-04-25T05:12:16.228Z</time></trkpt><trkpt lat="45.6306967" lon="9.01862"><ele>219.6</ele><time>2026-04-25T05:12:18.229Z</time></trkpt><trkpt lat="45.63073" lon="9.018755"><ele>219.8</ele><time>2026-04-25T05:12:20.228Z</time></trkpt><trkpt lat="45.6307767" lon="9.0188283"><ele>220.0</ele><time>2026-04-25T05:12:21.23Z</time></trkpt><trkpt lat="45.6308233" lon="9.018915"><ele>220.0</ele><time>2026-04-25T05:12:22.23Z</time></trkpt><trkpt lat="45.6308617" lon="9.01902"><ele>220.0</ele><time>2026-04-25T05:12:23.228Z</time></trkpt><trkpt lat="45.63087" lon="9.0191483"><ele>220.0</ele><time>2026-04-25T05:12:24.228Z</time></trkpt><trkpt lat="45.63087" lon="9.0193033"><ele>220.0</ele><time>2026-04-25T05:12:25.227Z</time></trkpt><trkpt lat="45.630865" lon="9.019485"><ele>220.0</ele><time>2026-04-25T05:12:26.228Z</time></trkpt><trkpt lat="45.63086" lon="9.0196783"><ele>220.0</ele><time>2026-04-25T05:12:27.228Z</time></trkpt><trkpt lat="45.63085" lon="9.0198683"><ele>220.0</ele><time>2026-04-25T05:12:28.227Z</time></trkpt><trkpt lat="45.6308417" lon="9.0200667"><ele>220.0</ele><time>2026-04-25T05:12:29.227Z</time></trkpt><trkpt lat="45.6308333" lon="9.0202683"><ele>220.0</ele><time>2026-04-25T05:12:30.228Z</time></trkpt><trkpt lat="45.6308283" lon="9.020475"><ele>220.0</ele><time>2026-04-25T05:12:31.227Z</time></trkpt><trkpt lat="45.6308167" lon="9.0206817"><ele>220.0</ele><time>2026-04-25T05:12:32.228Z</time></trkpt><trkpt lat="45.6308083" lon="9.0208933"><ele>220.0</ele><time>2026-04-25T05:12:33.227Z</time></trkpt><trkpt lat="45.630805" lon="9.0211033"><ele>220.0</ele><time>2026-04-25T05:12:34.227Z</time></trkpt><trkpt lat="45.6307967" lon="9.0213117"><ele>220.25</ele><time>2026-04-25T05:12:35.23Z</time></trkpt><trkpt lat="45.6307883" lon="9.0215217"><ele>220.5</ele><time>2026-04-25T05:12:36.227Z</time></trkpt><trkpt lat="45.630785" lon="9.02174"><ele>220.75</ele><time>2026-04-25T05:12:37.227Z</time></trkpt><trkpt lat="45.63078" lon="9.0219517"><ele>221.0</ele><time>2026-04-25T05:12:38.228Z</time></trkpt><trkpt lat="45.6307767" lon="9.0221433"><ele>221.0</ele><time>2026-04-25T05:12:39.227Z</time></trkpt><trkpt lat="45.6307733" lon="9.0223267"><ele>221.0</ele><time>2026-04-25T05:12:40.228Z</time></trkpt><trkpt lat="45.6307667" lon="9.0225117"><ele>221.0</ele><time>2026-04-25T05:12:41.227Z</time></trkpt><trkpt lat="45.63076" lon="9.0226933"><ele>221.0</ele><time>2026-04-25T05:12:42.227Z</time></trkpt><trkpt lat="45.6307567" lon="9.0228783"><ele>220.75</ele><time>2026-04-25T05:12:43.228Z</time></trkpt><trkpt lat="45.63075" lon="9.0230683"><ele>220.5</ele><time>2026-04-25T05:12:44.227Z</time></trkpt><trkpt lat="45.6307433" lon="9.02326"><ele>220.25</ele><time>2026-04-25T05:12:45.228Z</time></trkpt><trkpt lat="45.630735" lon="9.0234533"><ele>220.0</ele><time>2026-04-25T05:12:46.228Z</time></trkpt><trkpt lat="45.6307333" lon="9.023625"><ele>220.0</ele><time>2026-04-25T05:12:47.227Z</time></trkpt><trkpt lat="45.6307333" lon="9.0237867"><ele>220.0</ele><time>2026-04-25T05:12:48.228Z</time></trkpt><trkpt lat="45.63073" lon="9.0239617"><ele>220.0</ele><time>2026-04-25T05:12:49.229Z</time></trkpt><trkpt lat="45.6307283" lon="9.0241383"><ele>220.0</ele><time>2026-04-25T05:12:50.227Z</time></trkpt><trkpt lat="45.6307233" lon="9.0243233"><ele>221.0</ele><time>2026-04-25T05:12:51.227Z</time></trkpt><trkpt lat="45.630715" lon="9.0245183"><ele>222.0</ele><time>2026-04-25T05:12:52.227Z</time></trkpt><trkpt lat="45.630705" lon="9.0247167"><ele>223.0</ele><time>2026-04-25T05:12:53.228Z</time></trkpt><trkpt lat="45.6307" lon="9.0249"><ele>224.0</ele><time>2026-04-25T05:12:54.227Z</time></trkpt><trkpt lat="45.6306983" lon="9.0250767"><ele>224.0</ele><time>2026-04-25T05:12:55.227Z</time></trkpt><trkpt lat="45.6306967" lon="9.0252467"><ele>224.0</ele><time>2026-04-25T05:12:56.228Z</time></trkpt><trkpt lat="45.6307" lon="9.0254133"><ele>224.0</ele><time>2026-04-25T05:12:57.229Z</time></trkpt><trkpt lat="45.6306967" lon="9.02558"><ele>224.0</ele><time>2026-04-25T05:12:58.228Z</time></trkpt><trkpt lat="45.630695" lon="9.0257517"><ele>223.5</ele><time>2026-04-25T05:12:59.229Z</time></trkpt><trkpt lat="45.6306917" lon="9.0259283"><ele>223.0</ele><time>2026-04-25T05:13:00.227Z</time></trkpt><trkpt lat="45.630685" lon="9.0261017"><ele>222.5</ele><time>2026-04-25T05:13:01.227Z</time></trkpt><trkpt lat="45.6306783" lon="9.0262767"><ele>222.0</ele><time>2026-04-25T05:13:02.226Z</time></trkpt><trkpt lat="45.63067" lon="9.0264517"><ele>222.0</ele><time>2026-04-25T05:13:03.227Z</time></trkpt><trkpt lat="45.6306667" lon="9.0266167"><ele>222.0</ele><time>2026-04-25T05:13:04.228Z</time></trkpt><trkpt lat="45.6306633" lon="9.0267733"><ele>222.0</ele><time>2026-04-25T05:13:05.227Z</time></trkpt><trkpt lat="45.6306583" lon="9.02692"><ele>222.0</ele><time>2026-04-25T05:13:06.228Z</time></trkpt><trkpt lat="45.6306467" lon="9.027055"><ele>222.0</ele><time>2026-04-25T05:13:07.229Z</time></trkpt><trkpt lat="45.6306333" lon="9.027175"><ele>222.0</ele><time>2026-04-25T05:13:08.228Z</time></trkpt><trkpt lat="45.6306217" lon="9.0272833"><ele>222.0</ele><time>2026-04-25T05:13:09.229Z</time></trkpt><trkpt lat="45.6306117" lon="9.027385"><ele>222.0</ele><time>2026-04-25T05:13:10.229Z</time></trkpt><trkpt lat="45.6305933" lon="9.0274783"><ele>222.0</ele><time>2026-04-25T05:13:11.228Z</time></trkpt><trkpt lat="45.6305667" lon="9.027565"><ele>222.0</ele><time>2026-04-25T05:13:12.227Z</time></trkpt><trkpt lat="45.6305417" lon="9.027655"><ele>222.0</ele><time>2026-04-25T05:13:13.232Z</time></trkpt><trkpt lat="45.6305317" lon="9.0277467"><ele>222.0</ele><time>2026-04-25T05:13:14.228Z</time></trkpt><trkpt lat="45.6305767" lon="9.02788"><ele>222.0</ele><time>2026-04-25T05:13:16.228Z</time></trkpt><trkpt lat="45.6306767" lon="9.0279433"><ele>222.0</ele><time>2026-04-25T05:13:18.228Z</time></trkpt><trkpt lat="45.6307283" lon="9.028"><ele>222.0</ele><time>2026-04-25T05:13:19.228Z</time></trkpt><trkpt lat="45.630785" lon="9.028065"><ele>222.0</ele><time>2026-04-25T05:13:20.228Z</time></trkpt><trkpt lat="45.6308367" lon="9.0281367"><ele>222.0</ele><time>2026-04-25T05:13:21.229Z</time></trkpt><trkpt lat="45.6308867" lon="9.0282233"><ele>222.0</ele><time>2026-04-25T05:13:22.229Z</time></trkpt><trkpt lat="45.630945" lon="9.028325"><ele>222.2</ele><time>2026-04-25T05:13:23.228Z</time></trkpt><trkpt lat="45.6310067" lon="9.0284333"><ele>222.39999999999998</ele><time>2026-04-25T05:13:24.228Z</time></trkpt><trkpt lat="45.6310667" lon="9.028535"><ele>222.60000000000002</ele><time>2026-04-25T05:13:25.228Z</time></trkpt><trkpt lat="45.6311233" lon="9.0286333"><ele>222.8</ele><time>2026-04-25T05:13:26.227Z</time></trkpt><trkpt lat="45.6311833" lon="9.0287367"><ele>223.0</ele><time>2026-04-25T05:13:27.228Z</time></trkpt><trkpt lat="45.6312433" lon="9.0288383"><ele>223.16666666666666</ele><time>2026-04-25T05:13:28.324Z</time></trkpt><trkpt lat="45.6312967" lon="9.0289367"><ele>223.33333333333331</ele><time>2026-04-25T05:13:29.227Z</time></trkpt><trkpt lat="45.6313367" lon="9.02904"><ele>223.5</ele><time>2026-04-25T05:13:30.229Z</time></trkpt><trkpt lat="45.63137" lon="9.02913"><ele>223.66666666666669</ele><time>2026-04-25T05:13:31.229Z</time></trkpt><trkpt lat="45.6314183" lon="9.029205"><ele>223.83333333333334</ele><time>2026-04-25T05:13:32.23Z</time></trkpt><trkpt lat="45.6314633" lon="9.0292817"><ele>224.0</ele><time>2026-04-25T05:13:33.228Z</time></trkpt><trkpt lat="45.6315117" lon="9.0293567"><ele>224.00000000000003</ele><time>2026-04-25T05:13:34.228Z</time></trkpt><trkpt lat="45.6315567" lon="9.0294317"><ele>224.0</ele><time>2026-04-25T05:13:35.227Z</time></trkpt><trkpt lat="45.6316033" lon="9.0295"><ele>224.0</ele><time>2026-04-25T05:13:36.226Z</time></trkpt><trkpt lat="45.63165" lon="9.0295717"><ele>224.0</ele><time>2026-04-25T05:13:37.229Z</time></trkpt><trkpt lat="45.631695" lon="9.0296367"><ele>224.00000000000003</ele><time>2026-04-25T05:13:38.228Z</time></trkpt><trkpt lat="45.6317683" lon="9.02975"><ele>224.0</ele><time>2026-04-25T05:13:40.227Z</time></trkpt><trkpt lat="45.63183" lon="9.0298317"><ele>224.0</ele><time>2026-04-25T05:13:42.228Z</time></trkpt><trkpt lat="45.6318817" lon="9.0299083"><ele>223.99999999999997</ele><time>2026-04-25T05:13:44.229Z</time></trkpt><trkpt lat="45.63192" lon="9.02998"><ele>223.99999999999997</ele><time>2026-04-25T05:13:46.229Z</time></trkpt><trkpt lat="45.6319717" lon="9.0300933"><ele>224.0</ele><time>2026-04-25T05:13:50.229Z</time></trkpt><trkpt lat="45.6320483" lon="9.030245"><ele>224.0</ele><time>2026-04-25T05:13:52.229Z</time></trkpt><trkpt lat="45.6321067" lon="9.030345"><ele>224.39999999999998</ele><time>2026-04-25T05:13:53.229Z</time></trkpt><trkpt lat="45.6321783" lon="9.0304667"><ele>224.79999999999998</ele><time>2026-04-25T05:13:54.23Z</time></trkpt><trkpt lat="45.6322533" lon="9.0305983"><ele>225.20000000000002</ele><time>2026-04-25T05:13:55.229Z</time></trkpt><trkpt lat="45.63232" lon="9.0307033"><ele>225.60000000000002</ele><time>2026-04-25T05:13:56.231Z</time></trkpt><trkpt lat="45.6323867" lon="9.030805"><ele>226.0</ele><time>2026-04-25T05:13:57.23Z</time></trkpt><trkpt lat="45.63246" lon="9.0309"><ele>225.16666666666666</ele><time>2026-04-25T05:13:58.229Z</time></trkpt><trkpt lat="45.632535" lon="9.0309933"><ele>224.33333333333331</ele><time>2026-04-25T05:13:59.229Z</time></trkpt><trkpt lat="45.6326083" lon="9.0310733"><ele>223.5</ele><time>2026-04-25T05:14:00.229Z</time></trkpt><trkpt lat="45.6326733" lon="9.031145"><ele>222.66666666666669</ele><time>2026-04-25T05:14:01.23Z</time></trkpt><trkpt lat="45.63272" lon="9.031225"><ele>221.83333333333334</ele><time>2026-04-25T05:14:02.229Z</time></trkpt><trkpt lat="45.6327467" lon="9.031315"><ele>221.0</ele><time>2026-04-25T05:14:03.23Z</time></trkpt><trkpt lat="45.6327633" lon="9.031415"><ele>221.0</ele><time>2026-04-25T05:14:04.229Z</time></trkpt><trkpt lat="45.632775" lon="9.0315217"><ele>221.00000000000003</ele><time>2026-04-25T05:14:05.228Z</time></trkpt><trkpt lat="45.6327817" lon="9.0316517"><ele>221.00000000000003</ele><time>2026-04-25T05:14:06.229Z</time></trkpt><trkpt lat="45.6327733" lon="9.0318033"><ele>221.0</ele><time>2026-04-25T05:14:07.229Z</time></trkpt><trkpt lat="45.6327633" lon="9.0319733"><ele>221.0</ele><time>2026-04-25T05:14:08.231Z</time></trkpt><trkpt lat="45.6327617" lon="9.0321583"><ele>220.66666666666669</ele><time>2026-04-25T05:14:09.228Z</time></trkpt><trkpt lat="45.63275" lon="9.03236"><ele>220.33333333333331</ele><time>2026-04-25T05:14:10.229Z</time></trkpt><trkpt lat="45.6327567" lon="9.03258"><ele>220.0</ele><time>2026-04-25T05:14:11.229Z</time></trkpt><trkpt lat="45.6327683" lon="9.032805"><ele>220.5</ele><time>2026-04-25T05:14:12.23Z</time></trkpt><trkpt lat="45.632775" lon="9.03302"><ele>221.0</ele><time>2026-04-25T05:14:13.231Z</time></trkpt><trkpt lat="45.6327883" lon="9.0332267"><ele>221.5</ele><time>2026-04-25T05:14:14.23Z</time></trkpt><trkpt lat="45.6328" lon="9.0334367"><ele>222.0</ele><time>2026-04-25T05:14:15.228Z</time></trkpt><trkpt lat="45.6328033" lon="9.0336417"><ele>222.0</ele><time>2026-04-25T05:14:16.228Z</time></trkpt><trkpt lat="45.632805" lon="9.0338433"><ele>222.0</ele><time>2026-04-25T05:14:17.228Z</time></trkpt><trkpt lat="45.6328167" lon="9.0340167"><ele>222.0</ele><time>2026-04-25T05:14:18.229Z</time></trkpt><trkpt lat="45.6328283" lon="9.0342133"><ele>222.0</ele><time>2026-04-25T05:14:19.229Z</time></trkpt><trkpt lat="45.6328383" lon="9.034405"><ele>221.0</ele><time>2026-04-25T05:14:20.227Z</time></trkpt><trkpt lat="45.6328433" lon="9.0345933"><ele>220.0</ele><time>2026-04-25T05:14:21.23Z</time></trkpt><trkpt lat="45.6328483" lon="9.0347783"><ele>219.0</ele><time>2026-04-25T05:14:22.23Z</time></trkpt><trkpt lat="45.632855" lon="9.03496"><ele>218.0</ele><time>2026-04-25T05:14:23.228Z</time></trkpt><trkpt lat="45.6328617" lon="9.035145"><ele>218.0</ele><time>2026-04-25T05:14:24.23Z</time></trkpt><trkpt lat="45.632855" lon="9.035335"><ele>218.0</ele><time>2026-04-25T05:14:25.229Z</time></trkpt><trkpt lat="45.6328583" lon="9.0355183"><ele>218.0</ele><time>2026-04-25T05:14:26.228Z</time></trkpt><trkpt lat="45.6328667" lon="9.0357083"><ele>218.0</ele><time>2026-04-25T05:14:27.228Z</time></trkpt><trkpt lat="45.6328783" lon="9.0358983"><ele>217.75</ele><time>2026-04-25T05:14:28.228Z</time></trkpt><trkpt lat="45.632905" lon="9.0360867"><ele>217.5</ele><time>2026-04-25T05:14:29.229Z</time></trkpt><trkpt lat="45.632935" lon="9.0362683"><ele>217.25</ele><time>2026-04-25T05:14:30.228Z</time></trkpt><trkpt lat="45.6329667" lon="9.03644"><ele>217.0</ele><time>2026-04-25T05:14:31.229Z</time></trkpt><trkpt lat="45.6330017" lon="9.036595"><ele>217.0</ele><time>2026-04-25T05:14:32.23Z</time></trkpt><trkpt lat="45.633035" lon="9.03674"><ele>217.0</ele><time>2026-04-25T05:14:33.23Z</time></trkpt><trkpt lat="45.6330717" lon="9.036885"><ele>217.0</ele><time>2026-04-25T05:14:34.229Z</time></trkpt><trkpt lat="45.6331017" lon="9.03702"><ele>217.0</ele><time>2026-04-25T05:14:35.229Z</time></trkpt><trkpt lat="45.63313" lon="9.0371483"><ele>217.0</ele><time>2026-04-25T05:14:36.228Z</time></trkpt><trkpt lat="45.63316" lon="9.0372717"><ele>217.0</ele><time>2026-04-25T05:14:37.228Z</time></trkpt><trkpt lat="45.6331883" lon="9.0373933"><ele>217.0</ele><time>2026-04-25T05:14:38.229Z</time></trkpt><trkpt lat="45.6332133" lon="9.0375117"><ele>217.0</ele><time>2026-04-25T05:14:39.229Z</time></trkpt><trkpt lat="45.63323" lon="9.03764"><ele>217.0</ele><time>2026-04-25T05:14:40.229Z</time></trkpt><trkpt lat="45.63324" lon="9.0377767"><ele>217.0</ele><time>2026-04-25T05:14:41.228Z</time></trkpt><trkpt lat="45.63325" lon="9.0379217"><ele>217.0</ele><time>2026-04-25T05:14:42.228Z</time></trkpt><trkpt lat="45.6332517" lon="9.0381017"><ele>217.0</ele><time>2026-04-25T05:14:43.23Z</time></trkpt><trkpt lat="45.633245" lon="9.0383033"><ele>217.0</ele><time>2026-04-25T05:14:44.228Z</time></trkpt><trkpt lat="45.6332383" lon="9.0385167"><ele>217.0</ele><time>2026-04-25T05:14:45.229Z</time></trkpt><trkpt lat="45.6332383" lon="9.0387317"><ele>217.0</ele><time>2026-04-25T05:14:46.229Z</time></trkpt><trkpt lat="45.6332417" lon="9.038945"><ele>217.0</ele><time>2026-04-25T05:14:47.228Z</time></trkpt><trkpt lat="45.6332433" lon="9.0391517"><ele>217.0</ele><time>2026-04-25T05:14:48.23Z</time></trkpt><trkpt lat="45.6332583" lon="9.039335"><ele>217.0</ele><time>2026-04-25T05:14:49.231Z</time></trkpt><trkpt lat="45.6332867" lon="9.0394967"><ele>217.49999999999997</ele><time>2026-04-25T05:14:50.23Z</time></trkpt><trkpt lat="45.6333233" lon="9.039635"><ele>218.0</ele><time>2026-04-25T05:14:51.23Z</time></trkpt><trkpt lat="45.6333567" lon="9.03975"><ele>218.5</ele><time>2026-04-25T05:14:52.229Z</time></trkpt><trkpt lat="45.63339" lon="9.0398633"><ele>219.0</ele><time>2026-04-25T05:14:53.232Z</time></trkpt><trkpt lat="45.63341" lon="9.0399633"><ele>219.49999999999997</ele><time>2026-04-25T05:14:54.228Z</time></trkpt><trkpt lat="45.6334283" lon="9.04005"><ele>220.0</ele><time>2026-04-25T05:14:55.228Z</time></trkpt><trkpt lat="45.633455" lon="9.0401383"><ele>220.0</ele><time>2026-04-25T05:14:56.229Z</time></trkpt><trkpt lat="45.63351" lon="9.0402467"><ele>220.0</ele><time>2026-04-25T05:14:57.232Z</time></trkpt><trkpt lat="45.6335767" lon="9.0403683"><ele>220.0</ele><time>2026-04-25T05:14:58.228Z</time></trkpt><trkpt lat="45.6336383" lon="9.0404933"><ele>220.0</ele><time>2026-04-25T05:14:59.228Z</time></trkpt><trkpt lat="45.6336917" lon="9.0406117"><ele>220.0</ele><time>2026-04-25T05:15:00.229Z</time></trkpt><trkpt lat="45.6337433" lon="9.04074"><ele>220.0</ele><time>2026-04-25T05:15:01.229Z</time></trkpt><trkpt lat="45.6337933" lon="9.0408817"><ele>220.0</ele><time>2026-04-25T05:15:02.23Z</time></trkpt><trkpt lat="45.6338417" lon="9.0410133"><ele>220.0</ele><time>2026-04-25T05:15:03.228Z</time></trkpt><trkpt lat="45.6338833" lon="9.0411583"><ele>220.0</ele><time>2026-04-25T05:15:04.229Z</time></trkpt><trkpt lat="45.6339083" lon="9.0412983"><ele>220.0</ele><time>2026-04-25T05:15:05.228Z</time></trkpt><trkpt lat="45.6339217" lon="9.0414283"><ele>220.0</ele><time>2026-04-25T05:15:06.229Z</time></trkpt><trkpt lat="45.6339283" lon="9.0415483"><ele>220.0</ele><time>2026-04-25T05:15:07.228Z</time></trkpt><trkpt lat="45.6339283" lon="9.04168"><ele>220.0</ele><time>2026-04-25T05:15:08.232Z</time></trkpt><trkpt lat="45.633925" lon="9.0418333"><ele>220.0</ele><time>2026-04-25T05:15:09.231Z</time></trkpt><trkpt lat="45.6339183" lon="9.042"><ele>220.0</ele><time>2026-04-25T05:15:10.229Z</time></trkpt><trkpt lat="45.633905" lon="9.0421767"><ele>220.0</ele><time>2026-04-25T05:15:11.229Z</time></trkpt><trkpt lat="45.633895" lon="9.0423617"><ele>220.0</ele><time>2026-04-25T05:15:12.228Z</time></trkpt><trkpt lat="45.6338817" lon="9.0425483"><ele>220.0</ele><time>2026-04-25T05:15:13.228Z</time></trkpt><trkpt lat="45.633865" lon="9.04273"><ele>220.0</ele><time>2026-04-25T05:15:14.227Z</time></trkpt><trkpt lat="45.6338467" lon="9.04292"><ele>220.25</ele><time>2026-04-25T05:15:15.228Z</time></trkpt><trkpt lat="45.6338317" lon="9.0431167"><ele>220.5</ele><time>2026-04-25T05:15:16.227Z</time></trkpt><trkpt lat="45.6338183" lon="9.0433133"><ele>220.75</ele><time>2026-04-25T05:15:17.23Z</time></trkpt><trkpt lat="45.6338067" lon="9.04352"><ele>221.0</ele><time>2026-04-25T05:15:18.229Z</time></trkpt><trkpt lat="45.6337933" lon="9.0437367"><ele>221.0</ele><time>2026-04-25T05:15:19.229Z</time></trkpt><trkpt lat="45.6337833" lon="9.0439517"><ele>221.0</ele><time>2026-04-25T05:15:20.235Z</time></trkpt><trkpt lat="45.6337717" lon="9.04416"><ele>221.0</ele><time>2026-04-25T05:15:21.231Z</time></trkpt><trkpt lat="45.6337617" lon="9.044355"><ele>221.0</ele><time>2026-04-25T05:15:22.231Z</time></trkpt><trkpt lat="45.6337467" lon="9.0445317"><ele>221.0</ele><time>2026-04-25T05:15:23.231Z</time></trkpt><trkpt lat="45.6337333" lon="9.04469"><ele>221.00000000000003</ele><time>2026-04-25T05:15:24.23Z</time></trkpt><trkpt lat="45.6337183" lon="9.044835"><ele>221.00000000000003</ele><time>2026-04-25T05:15:25.23Z</time></trkpt><trkpt lat="45.6337033" lon="9.044975"><ele>221.0</ele><time>2026-04-25T05:15:26.232Z</time></trkpt><trkpt lat="45.6336933" lon="9.04512"><ele>221.0</ele><time>2026-04-25T05:15:27.23Z</time></trkpt><trkpt lat="45.6336833" lon="9.0452733"><ele>221.0</ele><time>2026-04-25T05:15:28.23Z</time></trkpt><trkpt lat="45.633675" lon="9.0454383"><ele>221.0</ele><time>2026-04-25T05:15:29.229Z</time></trkpt><trkpt lat="45.6336667" lon="9.04561"><ele>221.0</ele><time>2026-04-25T05:15:30.228Z</time></trkpt><trkpt lat="45.6336567" lon="9.0457783"><ele>221.0</ele><time>2026-04-25T05:15:31.228Z</time></trkpt><trkpt lat="45.6336417" lon="9.045935"><ele>221.0</ele><time>2026-04-25T05:15:32.23Z</time></trkpt><trkpt lat="45.6336317" lon="9.046085"><ele>221.00000000000003</ele><time>2026-04-25T05:15:33.23Z</time></trkpt><trkpt lat="45.6336183" lon="9.046225"><ele>221.00000000000003</ele><time>2026-04-25T05:15:34.23Z</time></trkpt><trkpt lat="45.6336067" lon="9.0463467"><ele>221.0</ele><time>2026-04-25T05:15:35.228Z</time></trkpt><trkpt lat="45.633595" lon="9.0464433"><ele>221.0</ele><time>2026-04-25T05:15:36.229Z</time></trkpt><trkpt lat="45.6335483" lon="9.0465633"><ele>221.0</ele><time>2026-04-25T05:15:38.23Z</time></trkpt><trkpt lat="45.6334417" lon="9.0465733"><ele>221.00000000000003</ele><time>2026-04-25T05:15:40.228Z</time></trkpt><trkpt lat="45.63337" lon="9.046575"><ele>221.00000000000003</ele><time>2026-04-25T05:15:41.229Z</time></trkpt><trkpt lat="45.6332833" lon="9.0465683"><ele>221.0</ele><time>2026-04-25T05:15:42.228Z</time></trkpt><trkpt lat="45.6331833" lon="9.046565"><ele>221.0</ele><time>2026-04-25T05:15:43.229Z</time></trkpt><trkpt lat="45.63305" lon="9.046565"><ele>221.0</ele><time>2026-04-25T05:15:44.228Z</time></trkpt><trkpt lat="45.632905" lon="9.0465583"><ele>221.0</ele><time>2026-04-25T05:15:45.228Z</time></trkpt><trkpt lat="45.6327417" lon="9.046555"><ele>221.0</ele><time>2026-04-25T05:15:46.23Z</time></trkpt><trkpt lat="45.6325633" lon="9.04655"><ele>220.66666666666669</ele><time>2026-04-25T05:15:47.229Z</time></trkpt><trkpt lat="45.632375" lon="9.04654"><ele>220.33333333333331</ele><time>2026-04-25T05:15:48.229Z</time></trkpt><trkpt lat="45.6321983" lon="9.046525"><ele>220.0</ele><time>2026-04-25T05:15:49.229Z</time></trkpt><trkpt lat="45.6320217" lon="9.0465133"><ele>220.0</ele><time>2026-04-25T05:15:50.229Z</time></trkpt><trkpt lat="45.6318367" lon="9.0465067"><ele>220.0</ele><time>2026-04-25T05:15:51.233Z</time></trkpt><trkpt lat="45.6316483" lon="9.04649"><ele>220.0</ele><time>2026-04-25T05:15:52.228Z</time></trkpt><trkpt lat="45.6314767" lon="9.046485"><ele>220.0</ele><time>2026-04-25T05:15:53.228Z</time></trkpt><trkpt lat="45.631305" lon="9.0464817"><ele>220.0</ele><time>2026-04-25T05:15:54.229Z</time></trkpt><trkpt lat="45.6311317" lon="9.046475"><ele>220.0</ele><time>2026-04-25T05:15:55.229Z</time></trkpt><trkpt lat="45.6309583" lon="9.046475"><ele>220.66666666666666</ele><time>2026-04-25T05:15:56.229Z</time></trkpt><trkpt lat="45.6307817" lon="9.046475"><ele>221.33333333333331</ele><time>2026-04-25T05:15:57.229Z</time></trkpt><trkpt lat="45.630605" lon="9.0464717"><ele>222.0</ele><time>2026-04-25T05:15:58.229Z</time></trkpt><trkpt lat="45.6304283" lon="9.0464683"><ele>222.0</ele><time>2026-04-25T05:15:59.231Z</time></trkpt><trkpt lat="45.6302517" lon="9.046465"><ele>222.0</ele><time>2026-04-25T05:16:00.229Z</time></trkpt><trkpt lat="45.6300833" lon="9.0464583"><ele>222.0</ele><time>2026-04-25T05:16:01.232Z</time></trkpt><trkpt lat="45.6299267" lon="9.0464583"><ele>222.0</ele><time>2026-04-25T05:16:02.229Z</time></trkpt><trkpt lat="45.6297867" lon="9.0464567"><ele>222.0</ele><time>2026-04-25T05:16:03.23Z</time></trkpt><trkpt lat="45.62966" lon="9.04645"><ele>222.0</ele><time>2026-04-25T05:16:04.229Z</time></trkpt><trkpt lat="45.6295433" lon="9.0464367"><ele>222.0</ele><time>2026-04-25T05:16:05.23Z</time></trkpt><trkpt lat="45.6294417" lon="9.0464083"><ele>221.5</ele><time>2026-04-25T05:16:06.229Z</time></trkpt><trkpt lat="45.62936" lon="9.0463667"><ele>221.0</ele><time>2026-04-25T05:16:07.23Z</time></trkpt><trkpt lat="45.6292933" lon="9.0463317"><ele>220.5</ele><time>2026-04-25T05:16:08.23Z</time></trkpt><trkpt lat="45.629175" lon="9.0463383"><ele>220.0</ele><time>2026-04-25T05:16:10.23Z</time></trkpt><trkpt lat="45.6291117" lon="9.04638"><ele>219.5</ele><time>2026-04-25T05:16:11.228Z</time></trkpt><trkpt lat="45.62904" lon="9.04641"><ele>219.0</ele><time>2026-04-25T05:16:12.229Z</time></trkpt><trkpt lat="45.6289567" lon="9.04643"><ele>219.0</ele><time>2026-04-25T05:16:13.228Z</time></trkpt><trkpt lat="45.6288717" lon="9.0464417"><ele>219.0</ele><time>2026-04-25T05:16:14.228Z</time></trkpt><trkpt lat="45.6287933" lon="9.0464367"><ele>219.0</ele><time>2026-04-25T05:16:15.229Z</time></trkpt><trkpt lat="45.62872" lon="9.04643"><ele>219.0</ele><time>2026-04-25T05:16:16.229Z</time></trkpt><trkpt lat="45.62865" lon="9.0464283"><ele>219.0</ele><time>2026-04-25T05:16:17.228Z</time></trkpt><trkpt lat="45.628585" lon="9.0464183"><ele>219.0</ele><time>2026-04-25T05:16:18.229Z</time></trkpt><trkpt lat="45.6285183" lon="9.0464117"><ele>219.0</ele><time>2026-04-25T05:16:19.229Z</time></trkpt><trkpt lat="45.62839" lon="9.04638"><ele>218.6</ele><time>2026-04-25T05:16:21.23Z</time></trkpt><trkpt lat="45.6282683" lon="9.046415"><ele>218.2</ele><time>2026-04-25T05:16:23.229Z</time></trkpt><trkpt lat="45.6282367" lon="9.04652"><ele>217.79999999999998</ele><time>2026-04-25T05:16:25.228Z</time></trkpt><trkpt lat="45.628305" lon="9.0466517"><ele>217.39999999999998</ele><time>2026-04-25T05:16:27.229Z</time></trkpt><trkpt lat="45.6283883" lon="9.0467383"><ele>217.0</ele><time>2026-04-25T05:16:28.228Z</time></trkpt><trkpt lat="45.6284733" lon="9.0468533"><ele>217.0</ele><time>2026-04-25T05:16:29.228Z</time></trkpt><trkpt lat="45.628555" lon="9.0469833"><ele>217.0</ele><time>2026-04-25T05:16:30.228Z</time></trkpt><trkpt lat="45.62861" lon="9.047115"><ele>217.0</ele><time>2026-04-25T05:16:31.228Z</time></trkpt><trkpt lat="45.6286417" lon="9.0472583"><ele>217.0</ele><time>2026-04-25T05:16:32.228Z</time></trkpt><trkpt lat="45.6286533" lon="9.0474183"><ele>217.0</ele><time>2026-04-25T05:16:33.228Z</time></trkpt><trkpt lat="45.6286567" lon="9.0475967"><ele>217.0</ele><time>2026-04-25T05:16:34.227Z</time></trkpt><trkpt lat="45.6286583" lon="9.0477817"><ele>217.0</ele><time>2026-04-25T05:16:35.228Z</time></trkpt><trkpt lat="45.62866" lon="9.0479833"><ele>217.0</ele><time>2026-04-25T05:16:36.227Z</time></trkpt><trkpt lat="45.62866" lon="9.0481983"><ele>217.0</ele><time>2026-04-25T05:16:37.228Z</time></trkpt><trkpt lat="45.6286583" lon="9.0484217"><ele>217.0</ele><time>2026-04-25T05:16:38.227Z</time></trkpt><trkpt lat="45.6286567" lon="9.0486433"><ele>217.0</ele><time>2026-04-25T05:16:39.229Z</time></trkpt><trkpt lat="45.6286567" lon="9.048855"><ele>217.0</ele><time>2026-04-25T05:16:40.229Z</time></trkpt><trkpt lat="45.6286583" lon="9.0490667"><ele>217.0</ele><time>2026-04-25T05:16:41.228Z</time></trkpt><trkpt lat="45.62866" lon="9.0492767"><ele>217.0</ele><time>2026-04-25T05:16:42.229Z</time></trkpt><trkpt lat="45.6286583" lon="9.04948"><ele>217.0</ele><time>2026-04-25T05:16:43.228Z</time></trkpt><trkpt lat="45.6286633" lon="9.0496683"><ele>217.0</ele><time>2026-04-25T05:16:44.227Z</time></trkpt><trkpt lat="45.6286667" lon="9.04985"><ele>217.0</ele><time>2026-04-25T05:16:45.228Z</time></trkpt><trkpt lat="45.62868" lon="9.0500217"><ele>217.0</ele><time>2026-04-25T05:16:46.227Z</time></trkpt><trkpt lat="45.62871" lon="9.05019"><ele>217.0</ele><time>2026-04-25T05:16:47.228Z</time></trkpt><trkpt lat="45.6287567" lon="9.050355"><ele>217.0</ele><time>2026-04-25T05:16:48.227Z</time></trkpt><trkpt lat="45.6288167" lon="9.050505"><ele>217.0</ele><time>2026-04-25T05:16:49.228Z</time></trkpt><trkpt lat="45.628885" lon="9.0506467"><ele>217.0</ele><time>2026-04-25T05:16:50.229Z</time></trkpt><trkpt lat="45.6289533" lon="9.050785"><ele>217.0</ele><time>2026-04-25T05:16:51.229Z</time></trkpt><trkpt lat="45.6290267" lon="9.0509233"><ele>217.0</ele><time>2026-04-25T05:16:52.229Z</time></trkpt><trkpt lat="45.6291033" lon="9.051065"><ele>217.0</ele><time>2026-04-25T05:16:53.228Z</time></trkpt><trkpt lat="45.62918" lon="9.0512067"><ele>217.0</ele><time>2026-04-25T05:16:54.229Z</time></trkpt><trkpt lat="45.6292567" lon="9.0513467"><ele>217.0</ele><time>2026-04-25T05:16:55.234Z</time></trkpt><trkpt lat="45.629325" lon="9.0514883"><ele>217.0</ele><time>2026-04-25T05:16:56.229Z</time></trkpt><trkpt lat="45.62938" lon="9.05164"><ele>217.0</ele><time>2026-04-25T05:16:57.231Z</time></trkpt><trkpt lat="45.6294183" lon="9.0518067"><ele>217.0</ele><time>2026-04-25T05:16:58.23Z</time></trkpt><trkpt lat="45.6294367" lon="9.05199"><ele>217.0</ele><time>2026-04-25T05:16:59.229Z</time></trkpt><trkpt lat="45.62944" lon="9.0521917"><ele>217.0</ele><time>2026-04-25T05:17:00.23Z</time></trkpt><trkpt lat="45.6294317" lon="9.0524267"><ele>216.66666666666666</ele><time>2026-04-25T05:17:01.228Z</time></trkpt><trkpt lat="45.6294233" lon="9.05269"><ele>216.33333333333331</ele><time>2026-04-25T05:17:02.229Z</time></trkpt><trkpt lat="45.62941" lon="9.052975"><ele>216.0</ele><time>2026-04-25T05:17:03.229Z</time></trkpt><trkpt lat="45.6293983" lon="9.0532733"><ele>216.0</ele><time>2026-04-25T05:17:04.229Z</time></trkpt><trkpt lat="45.6293867" lon="9.0535817"><ele>216.0</ele><time>2026-04-25T05:17:05.229Z</time></trkpt><trkpt lat="45.6293767" lon="9.053895"><ele>216.0</ele><time>2026-04-25T05:17:06.229Z</time></trkpt><trkpt lat="45.6293683" lon="9.054205"><ele>216.0</ele><time>2026-04-25T05:17:07.228Z</time></trkpt><trkpt lat="45.6293583" lon="9.0545"><ele>216.0</ele><time>2026-04-25T05:17:08.228Z</time></trkpt><trkpt lat="45.6293483" lon="9.054775"><ele>216.0</ele><time>2026-04-25T05:17:09.229Z</time></trkpt><trkpt lat="45.6293367" lon="9.0550383"><ele>215.66666666666669</ele><time>2026-04-25T05:17:10.23Z</time></trkpt><trkpt lat="45.62933" lon="9.0552883"><ele>215.33333333333334</ele><time>2026-04-25T05:17:11.229Z</time></trkpt><trkpt lat="45.6293217" lon="9.0555467"><ele>215.0</ele><time>2026-04-25T05:17:12.228Z</time></trkpt><trkpt lat="45.6293117" lon="9.0558167"><ele>215.0</ele><time>2026-04-25T05:17:13.228Z</time></trkpt><trkpt lat="45.6293033" lon="9.056085"><ele>215.0</ele><time>2026-04-25T05:17:14.227Z</time></trkpt><trkpt lat="45.6292917" lon="9.05636"><ele>215.0</ele><time>2026-04-25T05:17:15.229Z</time></trkpt><trkpt lat="45.6292833" lon="9.0566417"><ele>215.66666666666669</ele><time>2026-04-25T05:17:16.231Z</time></trkpt><trkpt lat="45.62928" lon="9.05692"><ele>216.33333333333331</ele><time>2026-04-25T05:17:17.229Z</time></trkpt><trkpt lat="45.6292783" lon="9.0571967"><ele>217.0</ele><time>2026-04-25T05:17:18.229Z</time></trkpt><trkpt lat="45.6292783" lon="9.05747"><ele>215.66666666666666</ele><time>2026-04-25T05:17:19.229Z</time></trkpt><trkpt lat="45.6292783" lon="9.0577483"><ele>214.33333333333331</ele><time>2026-04-25T05:17:20.228Z</time></trkpt><trkpt lat="45.6292767" lon="9.0580167"><ele>213.0</ele><time>2026-04-25T05:17:21.231Z</time></trkpt><trkpt lat="45.629275" lon="9.0582717"><ele>213.33333333333331</ele><time>2026-04-25T05:17:22.228Z</time></trkpt><trkpt lat="45.62927" lon="9.0585117"><ele>213.66666666666666</ele><time>2026-04-25T05:17:23.228Z</time></trkpt><trkpt lat="45.6292683" lon="9.0587283"><ele>214.0</ele><time>2026-04-25T05:17:24.228Z</time></trkpt><trkpt lat="45.629265" lon="9.0589367"><ele>214.75</ele><time>2026-04-25T05:17:25.23Z</time></trkpt><trkpt lat="45.6292633" lon="9.0591333"><ele>215.5</ele><time>2026-04-25T05:17:26.228Z</time></trkpt><trkpt lat="45.62926" lon="9.0593183"><ele>216.25</ele><time>2026-04-25T05:17:27.228Z</time></trkpt><trkpt lat="45.6292583" lon="9.0594867"><ele>217.0</ele><time>2026-04-25T05:17:28.228Z</time></trkpt><trkpt lat="45.62925" lon="9.0596367"><ele>217.0</ele><time>2026-04-25T05:17:29.228Z</time></trkpt><trkpt lat="45.6292283" lon="9.0597817"><ele>217.0</ele><time>2026-04-25T05:17:30.227Z</time></trkpt><trkpt lat="45.629205" lon="9.05988"><ele>217.0</ele><time>2026-04-25T05:17:31.23Z</time></trkpt><trkpt lat="45.6291633" lon="9.0599733"><ele>217.0</ele><time>2026-04-25T05:17:33.229Z</time></trkpt><trkpt lat="45.6290933" lon="9.0600883"><ele>217.0</ele><time>2026-04-25T05:17:37.229Z</time></trkpt><trkpt lat="45.6290367" lon="9.0602583"><ele>217.0</ele><time>2026-04-25T05:17:39.228Z</time></trkpt><trkpt lat="45.6290383" lon="9.0603933"><ele>217.0</ele><time>2026-04-25T05:17:40.228Z</time></trkpt><trkpt lat="45.62906" lon="9.0605317"><ele>217.0</ele><time>2026-04-25T05:17:41.228Z</time></trkpt><trkpt lat="45.6291117" lon="9.06068"><ele>217.0</ele><time>2026-04-25T05:17:42.228Z</time></trkpt><trkpt lat="45.6291633" lon="9.0608417"><ele>217.0</ele><time>2026-04-25T05:17:43.228Z</time></trkpt><trkpt lat="45.6291983" lon="9.061025"><ele>216.66666666666666</ele><time>2026-04-25T05:17:44.229Z</time></trkpt><trkpt lat="45.629215" lon="9.06123"><ele>216.33333333333331</ele><time>2026-04-25T05:17:45.228Z</time></trkpt><trkpt lat="45.629215" lon="9.0614533"><ele>216.0</ele><time>2026-04-25T05:17:46.228Z</time></trkpt><trkpt lat="45.6292133" lon="9.061695"><ele>216.0</ele><time>2026-04-25T05:17:47.228Z</time></trkpt><trkpt lat="45.62921" lon="9.06195"><ele>216.0</ele><time>2026-04-25T05:17:48.229Z</time></trkpt><trkpt lat="45.6292067" lon="9.06221"><ele>216.0</ele><time>2026-04-25T05:17:49.23Z</time></trkpt><trkpt lat="45.6292" lon="9.06248"><ele>216.0</ele><time>2026-04-25T05:17:50.228Z</time></trkpt><trkpt lat="45.62919" lon="9.06276"><ele>216.0</ele><time>2026-04-25T05:17:51.229Z</time></trkpt><trkpt lat="45.6291767" lon="9.0630483"><ele>216.0</ele><time>2026-04-25T05:17:52.229Z</time></trkpt><trkpt lat="45.629165" lon="9.063345"><ele>216.0</ele><time>2026-04-25T05:17:53.228Z</time></trkpt><trkpt lat="45.6291483" lon="9.0636517"><ele>216.0</ele><time>2026-04-25T05:17:54.23Z</time></trkpt><trkpt lat="45.62913" lon="9.0639633"><ele>216.0</ele><time>2026-04-25T05:17:55.228Z</time></trkpt><trkpt lat="45.6291117" lon="9.0642817"><ele>216.0</ele><time>2026-04-25T05:17:56.228Z</time></trkpt><trkpt lat="45.6290917" lon="9.064605"><ele>216.0</ele><time>2026-04-25T05:17:57.229Z</time></trkpt><trkpt lat="45.6290717" lon="9.064935"><ele>216.5</ele><time>2026-04-25T05:17:58.227Z</time></trkpt><trkpt lat="45.6290533" lon="9.0652667"><ele>217.0</ele><time>2026-04-25T05:17:59.228Z</time></trkpt><trkpt lat="45.629035" lon="9.0655983"><ele>217.5</ele><time>2026-04-25T05:18:00.229Z</time></trkpt><trkpt lat="45.6290167" lon="9.06593"><ele>218.0</ele><time>2026-04-25T05:18:01.23Z</time></trkpt><trkpt lat="45.629" lon="9.066265"><ele>218.0</ele><time>2026-04-25T05:18:02.23Z</time></trkpt><trkpt lat="45.6289817" lon="9.0666017"><ele>218.0</ele><time>2026-04-25T05:18:03.228Z</time></trkpt><trkpt lat="45.628965" lon="9.0669283"><ele>218.33333333333334</ele><time>2026-04-25T05:18:04.228Z</time></trkpt><trkpt lat="45.62895" lon="9.0672233"><ele>218.66666666666669</ele><time>2026-04-25T05:18:05.228Z</time></trkpt><trkpt lat="45.6289333" lon="9.0674867"><ele>219.0</ele><time>2026-04-25T05:18:06.229Z</time></trkpt><trkpt lat="45.6289217" lon="9.0677283"><ele>219.0</ele><time>2026-04-25T05:18:07.229Z</time></trkpt><trkpt lat="45.62891" lon="9.0679533"><ele>219.0</ele><time>2026-04-25T05:18:08.227Z</time></trkpt><trkpt lat="45.6288983" lon="9.068165"><ele>219.0</ele><time>2026-04-25T05:18:09.231Z</time></trkpt><trkpt lat="45.6288867" lon="9.0683633"><ele>219.0</ele><time>2026-04-25T05:18:10.228Z</time></trkpt><trkpt lat="45.6288733" lon="9.068545"><ele>219.0</ele><time>2026-04-25T05:18:11.229Z</time></trkpt><trkpt lat="45.628865" lon="9.0687133"><ele>218.99999999999997</ele><time>2026-04-25T05:18:12.227Z</time></trkpt><trkpt lat="45.628855" lon="9.0688733"><ele>218.99999999999997</ele><time>2026-04-25T05:18:13.229Z</time></trkpt><trkpt lat="45.6288467" lon="9.0690333"><ele>219.0</ele><time>2026-04-25T05:18:14.229Z</time></trkpt><trkpt lat="45.6288367" lon="9.0691817"><ele>219.0</ele><time>2026-04-25T05:18:15.229Z</time></trkpt><trkpt lat="45.628825" lon="9.069335"><ele>219.0</ele><time>2026-04-25T05:18:16.228Z</time></trkpt><trkpt lat="45.6288133" lon="9.069495"><ele>219.0</ele><time>2026-04-25T05:18:17.227Z</time></trkpt><trkpt lat="45.6288033" lon="9.06966"><ele>219.0</ele><time>2026-04-25T05:18:18.227Z</time></trkpt><trkpt lat="45.6287917" lon="9.0698283"><ele>219.0</ele><time>2026-04-25T05:18:19.228Z</time></trkpt><trkpt lat="45.6287817" lon="9.0699917"><ele>219.0</ele><time>2026-04-25T05:18:20.228Z</time></trkpt><trkpt lat="45.6287717" lon="9.07015"><ele>218.99999999999997</ele><time>2026-04-25T05:18:21.227Z</time></trkpt><trkpt lat="45.628765" lon="9.0702983"><ele>218.99999999999997</ele><time>2026-04-25T05:18:22.227Z</time></trkpt><trkpt lat="45.6287567" lon="9.0704367"><ele>219.0</ele><time>2026-04-25T05:18:23.229Z</time></trkpt><trkpt lat="45.6287517" lon="9.0705617"><ele>219.0</ele><time>2026-04-25T05:18:24.227Z</time></trkpt><trkpt lat="45.6287417" lon="9.0706717"><ele>219.0</ele><time>2026-04-25T05:18:25.228Z</time></trkpt><trkpt lat="45.6287317" lon="9.0708317"><ele>218.99999999999997</ele><time>2026-04-25T05:18:27.229Z</time></trkpt><trkpt lat="45.62873" lon="9.0709533"><ele>218.99999999999997</ele><time>2026-04-25T05:18:29.227Z</time></trkpt><trkpt lat="45.62872" lon="9.0711317"><ele>219.0</ele><time>2026-04-25T05:18:31.227Z</time></trkpt><trkpt lat="45.6287117" lon="9.0712517"><ele>219.0</ele><time>2026-04-25T05:18:32.228Z</time></trkpt><trkpt lat="45.6287017" lon="9.07139"><ele>219.0</ele><time>2026-04-25T05:18:33.23Z</time></trkpt><trkpt lat="45.6286917" lon="9.0715467"><ele>219.0</ele><time>2026-04-25T05:18:34.228Z</time></trkpt><trkpt lat="45.6286817" lon="9.0717167"><ele>219.0</ele><time>2026-04-25T05:18:35.23Z</time></trkpt><trkpt lat="45.628675" lon="9.071895"><ele>219.0</ele><time>2026-04-25T05:18:36.228Z</time></trkpt><trkpt lat="45.6286683" lon="9.0720867"><ele>219.33333333333331</ele><time>2026-04-25T05:18:37.228Z</time></trkpt><trkpt lat="45.6286617" lon="9.0723017"><ele>219.66666666666666</ele><time>2026-04-25T05:18:38.228Z</time></trkpt><trkpt lat="45.6286533" lon="9.0725517"><ele>220.0</ele><time>2026-04-25T05:18:39.228Z</time></trkpt><trkpt lat="45.6286367" lon="9.0728367"><ele>220.0</ele><time>2026-04-25T05:18:40.228Z</time></trkpt><trkpt lat="45.6286183" lon="9.073135"><ele>220.0</ele><time>2026-04-25T05:18:41.228Z</time></trkpt><trkpt lat="45.6285983" lon="9.0734367"><ele>220.0</ele><time>2026-04-25T05:18:42.228Z</time></trkpt><trkpt lat="45.6285783" lon="9.0737383"><ele>220.0</ele><time>2026-04-25T05:18:43.228Z</time></trkpt><trkpt lat="45.6285617" lon="9.0740267"><ele>220.0</ele><time>2026-04-25T05:18:44.227Z</time></trkpt><trkpt lat="45.62855" lon="9.0742933"><ele>220.0</ele><time>2026-04-25T05:18:45.228Z</time></trkpt><trkpt lat="45.6285367" lon="9.0745483"><ele>219.66666666666666</ele><time>2026-04-25T05:18:46.231Z</time></trkpt><trkpt lat="45.628525" lon="9.07479"><ele>219.33333333333331</ele><time>2026-04-25T05:18:47.228Z</time></trkpt><trkpt lat="45.628515" lon="9.0750233"><ele>219.0</ele><time>2026-04-25T05:18:48.227Z</time></trkpt><trkpt lat="45.6285033" lon="9.0752517"><ele>219.0</ele><time>2026-04-25T05:18:49.228Z</time></trkpt><trkpt lat="45.628495" lon="9.075475"><ele>219.0</ele><time>2026-04-25T05:18:50.227Z</time></trkpt><trkpt lat="45.628485" lon="9.0756967"><ele>219.0</ele><time>2026-04-25T05:18:51.229Z</time></trkpt><trkpt lat="45.6284767" lon="9.0759183"><ele>218.66666666666669</ele><time>2026-04-25T05:18:52.228Z</time></trkpt><trkpt lat="45.6284717" lon="9.0761367"><ele>218.33333333333334</ele><time>2026-04-25T05:18:53.23Z</time></trkpt><trkpt lat="45.628465" lon="9.0763617"><ele>218.0</ele><time>2026-04-25T05:18:54.228Z</time></trkpt><trkpt lat="45.6284583" lon="9.07658"><ele>218.0</ele><time>2026-04-25T05:18:55.228Z</time></trkpt><trkpt lat="45.6284533" lon="9.076775"><ele>218.0</ele><time>2026-04-25T05:18:56.228Z</time></trkpt><trkpt lat="45.62845" lon="9.0769433"><ele>218.0</ele><time>2026-04-25T05:18:57.228Z</time></trkpt><trkpt lat="45.62845" lon="9.0771083"><ele>218.0</ele><time>2026-04-25T05:18:58.229Z</time></trkpt><trkpt lat="45.6284367" lon="9.07729"><ele>217.75</ele><time>2026-04-25T05:18:59.227Z</time></trkpt><trkpt lat="45.6284333" lon="9.07748"><ele>217.5</ele><time>2026-04-25T05:19:00.228Z</time></trkpt><trkpt lat="45.628435" lon="9.0776817"><ele>217.25</ele><time>2026-04-25T05:19:01.229Z</time></trkpt><trkpt lat="45.6284317" lon="9.0778717"><ele>217.0</ele><time>2026-04-25T05:19:02.228Z</time></trkpt><trkpt lat="45.62843" lon="9.07804"><ele>217.0</ele><time>2026-04-25T05:19:03.23Z</time></trkpt><trkpt lat="45.6284233" lon="9.0781817"><ele>217.0</ele><time>2026-04-25T05:19:04.228Z</time></trkpt><trkpt lat="45.6284133" lon="9.078315"><ele>217.0</ele><time>2026-04-25T05:19:05.228Z</time></trkpt><trkpt lat="45.6284083" lon="9.0784417"><ele>217.0</ele><time>2026-04-25T05:19:06.228Z</time></trkpt><trkpt lat="45.6284033" lon="9.0785767"><ele>217.0</ele><time>2026-04-25T05:19:07.227Z</time></trkpt><trkpt lat="45.6283983" lon="9.0787333"><ele>216.66666666666666</ele><time>2026-04-25T05:19:08.229Z</time></trkpt><trkpt lat="45.62839" lon="9.078925"><ele>216.33333333333331</ele><time>2026-04-25T05:19:09.231Z</time></trkpt><trkpt lat="45.628375" lon="9.079145"><ele>216.0</ele><time>2026-04-25T05:19:10.228Z</time></trkpt><trkpt lat="45.6283617" lon="9.0793783"><ele>216.0</ele><time>2026-04-25T05:19:11.228Z</time></trkpt><trkpt lat="45.6283517" lon="9.0796083"><ele>216.0</ele><time>2026-04-25T05:19:12.227Z</time></trkpt><trkpt lat="45.628345" lon="9.0798267"><ele>216.0</ele><time>2026-04-25T05:19:13.229Z</time></trkpt><trkpt lat="45.62834" lon="9.0800317"><ele>216.25</ele><time>2026-04-25T05:19:14.23Z</time></trkpt><trkpt lat="45.6283283" lon="9.080225"><ele>216.5</ele><time>2026-04-25T05:19:15.23Z</time></trkpt><trkpt lat="45.62832" lon="9.0804033"><ele>216.75</ele><time>2026-04-25T05:19:16.23Z</time></trkpt><trkpt lat="45.62831" lon="9.08057"><ele>217.0</ele><time>2026-04-25T05:19:17.229Z</time></trkpt><trkpt lat="45.6283017" lon="9.0807167"><ele>217.0</ele><time>2026-04-25T05:19:18.229Z</time></trkpt><trkpt lat="45.628305" lon="9.0808617"><ele>217.0</ele><time>2026-04-25T05:19:19.229Z</time></trkpt><trkpt lat="45.6283183" lon="9.080995"><ele>217.0</ele><time>2026-04-25T05:19:20.227Z</time></trkpt><trkpt lat="45.6283317" lon="9.08113"><ele>217.0</ele><time>2026-04-25T05:19:21.228Z</time></trkpt><trkpt lat="45.628365" lon="9.0812733"><ele>217.0</ele><time>2026-04-25T05:19:22.227Z</time></trkpt><trkpt lat="45.6284017" lon="9.0814283"><ele>217.0</ele><time>2026-04-25T05:19:23.228Z</time></trkpt><trkpt lat="45.6284417" lon="9.0815917"><ele>217.0</ele><time>2026-04-25T05:19:24.232Z</time></trkpt><trkpt lat="45.6284833" lon="9.0817533"><ele>217.0</ele><time>2026-04-25T05:19:25.23Z</time></trkpt><trkpt lat="45.62852" lon="9.081925"><ele>217.0</ele><time>2026-04-25T05:19:26.227Z</time></trkpt><trkpt lat="45.6285617" lon="9.0821067"><ele>217.5</ele><time>2026-04-25T05:19:27.228Z</time></trkpt><trkpt lat="45.6285967" lon="9.0822917"><ele>218.0</ele><time>2026-04-25T05:19:28.229Z</time></trkpt><trkpt lat="45.6286283" lon="9.0824783"><ele>218.5</ele><time>2026-04-25T05:19:29.229Z</time></trkpt><trkpt lat="45.628645" lon="9.08266"><ele>219.0</ele><time>2026-04-25T05:19:30.227Z</time></trkpt><trkpt lat="45.6286683" lon="9.08284"><ele>220.0</ele><time>2026-04-25T05:19:31.228Z</time></trkpt><trkpt lat="45.6287217" lon="9.0830033"><ele>221.0</ele><time>2026-04-25T05:19:32.227Z</time></trkpt><trkpt lat="45.6287933" lon="9.08316"><ele>222.0</ele><time>2026-04-25T05:19:33.228Z</time></trkpt><trkpt lat="45.6288783" lon="9.0833067"><ele>223.0</ele><time>2026-04-25T05:19:34.228Z</time></trkpt><trkpt lat="45.6289667" lon="9.08346"><ele>223.5</ele><time>2026-04-25T05:19:35.228Z</time></trkpt><trkpt lat="45.6290433" lon="9.0836267"><ele>224.0</ele><time>2026-04-25T05:19:36.227Z</time></trkpt><trkpt lat="45.6290983" lon="9.0838"><ele>224.5</ele><time>2026-04-25T05:19:37.227Z</time></trkpt><trkpt lat="45.6291367" lon="9.083985"><ele>225.0</ele><time>2026-04-25T05:19:38.228Z</time></trkpt><trkpt lat="45.62917" lon="9.0841767"><ele>225.0</ele><time>2026-04-25T05:19:39.229Z</time></trkpt><trkpt lat="45.6292" lon="9.0843667"><ele>225.0</ele><time>2026-04-25T05:19:40.228Z</time></trkpt><trkpt lat="45.629225" lon="9.0845617"><ele>225.0</ele><time>2026-04-25T05:19:41.229Z</time></trkpt><trkpt lat="45.6292517" lon="9.0847483"><ele>225.0</ele><time>2026-04-25T05:19:42.227Z</time></trkpt><trkpt lat="45.629275" lon="9.0849067"><ele>225.0</ele><time>2026-04-25T05:19:43.229Z</time></trkpt><trkpt lat="45.6292883" lon="9.085025"><ele>225.0</ele><time>2026-04-25T05:19:44.227Z</time></trkpt><trkpt lat="45.629295" lon="9.0851283"><ele>225.0</ele><time>2026-04-25T05:19:45.229Z</time></trkpt><trkpt lat="45.629305" lon="9.08523"><ele>225.0</ele><time>2026-04-25T05:19:46.227Z</time></trkpt><trkpt lat="45.62932" lon="9.08533"><ele>225.0</ele><time>2026-04-25T05:19:47.228Z</time></trkpt><trkpt lat="45.6293333" lon="9.08545"><ele>225.0</ele><time>2026-04-25T05:19:48.23Z</time></trkpt><trkpt lat="45.6293483" lon="9.0855883"><ele>225.0</ele><time>2026-04-25T05:19:49.228Z</time></trkpt><trkpt lat="45.6293683" lon="9.0857467"><ele>225.0</ele><time>2026-04-25T05:19:50.227Z</time></trkpt><trkpt lat="45.6293817" lon="9.0859117"><ele>225.0</ele><time>2026-04-25T05:19:51.227Z</time></trkpt><trkpt lat="45.6293983" lon="9.086075"><ele>225.0</ele><time>2026-04-25T05:19:52.229Z</time></trkpt><trkpt lat="45.629415" lon="9.0862433"><ele>225.0</ele><time>2026-04-25T05:19:53.227Z</time></trkpt><trkpt lat="45.629435" lon="9.086415"><ele>225.0</ele><time>2026-04-25T05:19:54.227Z</time></trkpt><trkpt lat="45.629455" lon="9.0865917"><ele>225.0</ele><time>2026-04-25T05:19:55.228Z</time></trkpt><trkpt lat="45.6294767" lon="9.0867717"><ele>225.0</ele><time>2026-04-25T05:19:56.227Z</time></trkpt><trkpt lat="45.6294983" lon="9.0869567"><ele>225.25</ele><time>2026-04-25T05:19:57.229Z</time></trkpt><trkpt lat="45.629515" lon="9.0871433"><ele>225.5</ele><time>2026-04-25T05:19:58.227Z</time></trkpt><trkpt lat="45.629525" lon="9.0873333"><ele>225.75</ele><time>2026-04-25T05:19:59.228Z</time></trkpt><trkpt lat="45.629525" lon="9.0875433"><ele>226.0</ele><time>2026-04-25T05:20:00.227Z</time></trkpt><trkpt lat="45.6295133" lon="9.0877633"><ele>226.33333333333331</ele><time>2026-04-25T05:20:01.228Z</time></trkpt><trkpt lat="45.6295" lon="9.0879833"><ele>226.66666666666669</ele><time>2026-04-25T05:20:02.227Z</time></trkpt><trkpt lat="45.6294867" lon="9.0881933"><ele>227.0</ele><time>2026-04-25T05:20:03.228Z</time></trkpt><trkpt lat="45.62947" lon="9.088405"><ele>225.33333333333334</ele><time>2026-04-25T05:20:04.227Z</time></trkpt><trkpt lat="45.6294583" lon="9.0886167"><ele>223.66666666666669</ele><time>2026-04-25T05:20:05.227Z</time></trkpt><trkpt lat="45.6294467" lon="9.0888367"><ele>222.0</ele><time>2026-04-25T05:20:06.228Z</time></trkpt><trkpt lat="45.6294367" lon="9.0890633"><ele>223.33333333333331</ele><time>2026-04-25T05:20:07.229Z</time></trkpt><trkpt lat="45.6294283" lon="9.0893017"><ele>224.66666666666666</ele><time>2026-04-25T05:20:08.227Z</time></trkpt><trkpt lat="45.6294167" lon="9.0895533"><ele>226.0</ele><time>2026-04-25T05:20:09.228Z</time></trkpt><trkpt lat="45.6294033" lon="9.089825"><ele>227.0</ele><time>2026-04-25T05:20:10.229Z</time></trkpt><trkpt lat="45.629385" lon="9.0901067"><ele>228.0</ele><time>2026-04-25T05:20:11.227Z</time></trkpt><trkpt lat="45.6293683" lon="9.0903933"><ele>229.0</ele><time>2026-04-25T05:20:12.228Z</time></trkpt><trkpt lat="45.6293617" lon="9.0906717"><ele>229.0</ele><time>2026-04-25T05:20:13.227Z</time></trkpt><trkpt lat="45.6293517" lon="9.0909333"><ele>229.0</ele><time>2026-04-25T05:20:14.228Z</time></trkpt><trkpt lat="45.6293367" lon="9.09119"><ele>229.0</ele><time>2026-04-25T05:20:15.228Z</time></trkpt><trkpt lat="45.6293233" lon="9.091445"><ele>229.0</ele><time>2026-04-25T05:20:16.228Z</time></trkpt><trkpt lat="45.6293067" lon="9.0917033"><ele>229.0</ele><time>2026-04-25T05:20:17.228Z</time></trkpt><trkpt lat="45.6292883" lon="9.0919617"><ele>229.0</ele><time>2026-04-25T05:20:18.229Z</time></trkpt><trkpt lat="45.6292717" lon="9.09222"><ele>228.33333333333331</ele><time>2026-04-25T05:20:19.228Z</time></trkpt><trkpt lat="45.62926" lon="9.0924733"><ele>227.66666666666669</ele><time>2026-04-25T05:20:20.227Z</time></trkpt><trkpt lat="45.6292517" lon="9.09273"><ele>227.0</ele><time>2026-04-25T05:20:21.228Z</time></trkpt><trkpt lat="45.6292517" lon="9.092985"><ele>227.0</ele><time>2026-04-25T05:20:22.228Z</time></trkpt><trkpt lat="45.6292683" lon="9.0932417"><ele>227.0</ele><time>2026-04-25T05:20:23.228Z</time></trkpt><trkpt lat="45.629295" lon="9.0935"><ele>227.0</ele><time>2026-04-25T05:20:24.228Z</time></trkpt><trkpt lat="45.6293317" lon="9.093765"><ele>227.33333333333334</ele><time>2026-04-25T05:20:25.227Z</time></trkpt><trkpt lat="45.6293717" lon="9.0940333"><ele>227.66666666666669</ele><time>2026-04-25T05:20:26.227Z</time></trkpt><trkpt lat="45.6294067" lon="9.0943083"><ele>228.0</ele><time>2026-04-25T05:20:27.229Z</time></trkpt><trkpt lat="45.629445" lon="9.0945867"><ele>228.0</ele><time>2026-04-25T05:20:28.227Z</time></trkpt><trkpt lat="45.6294767" lon="9.0948733"><ele>228.0</ele><time>2026-04-25T05:20:29.227Z</time></trkpt><trkpt lat="45.6295117" lon="9.095165"><ele>228.0</ele><time>2026-04-25T05:20:30.227Z</time></trkpt><trkpt lat="45.62955" lon="9.095455"><ele>227.33333333333331</ele><time>2026-04-25T05:20:31.227Z</time></trkpt><trkpt lat="45.6295883" lon="9.09575"><ele>226.66666666666666</ele><time>2026-04-25T05:20:32.227Z</time></trkpt><trkpt lat="45.6296233" lon="9.0960383"><ele>226.0</ele><time>2026-04-25T05:20:33.229Z</time></trkpt><trkpt lat="45.62966" lon="9.096325"><ele>226.0</ele><time>2026-04-25T05:20:34.227Z</time></trkpt><trkpt lat="45.6296933" lon="9.0966033"><ele>226.0</ele><time>2026-04-25T05:20:35.227Z</time></trkpt><trkpt lat="45.6297267" lon="9.0968633"><ele>226.0</ele><time>2026-04-25T05:20:36.229Z</time></trkpt><trkpt lat="45.6297583" lon="9.0971083"><ele>226.0</ele><time>2026-04-25T05:20:37.23Z</time></trkpt><trkpt lat="45.62979" lon="9.09734"><ele>226.0</ele><time>2026-04-25T05:20:38.23Z</time></trkpt><trkpt lat="45.6298217" lon="9.09756"><ele>226.0</ele><time>2026-04-25T05:20:39.23Z</time></trkpt><trkpt lat="45.6298517" lon="9.0977817"><ele>225.66666666666666</ele><time>2026-04-25T05:20:40.228Z</time></trkpt><trkpt lat="45.62988" lon="9.0979967"><ele>225.33333333333331</ele><time>2026-04-25T05:20:41.229Z</time></trkpt><trkpt lat="45.6299133" lon="9.098215"><ele>225.0</ele><time>2026-04-25T05:20:42.229Z</time></trkpt><trkpt lat="45.6299583" lon="9.0984367"><ele>225.0</ele><time>2026-04-25T05:20:43.229Z</time></trkpt><trkpt lat="45.6300133" lon="9.0986533"><ele>225.0</ele><time>2026-04-25T05:20:44.228Z</time></trkpt><trkpt lat="45.630085" lon="9.0988667"><ele>225.0</ele><time>2026-04-25T05:20:45.227Z</time></trkpt><trkpt lat="45.6301667" lon="9.099075"><ele>225.5</ele><time>2026-04-25T05:20:46.227Z</time></trkpt><trkpt lat="45.6302533" lon="9.0992617"><ele>226.0</ele><time>2026-04-25T05:20:47.227Z</time></trkpt><trkpt lat="45.6303383" lon="9.0994317"><ele>226.5</ele><time>2026-04-25T05:20:48.227Z</time></trkpt><trkpt lat="45.6304267" lon="9.099585"><ele>227.0</ele><time>2026-04-25T05:20:49.229Z</time></trkpt><trkpt lat="45.6305067" lon="9.0997183"><ele>227.2</ele><time>2026-04-25T05:20:50.229Z</time></trkpt><trkpt lat="45.6305783" lon="9.0998317"><ele>227.39999999999998</ele><time>2026-04-25T05:20:51.229Z</time></trkpt><trkpt lat="45.6306333" lon="9.0999417"><ele>227.60000000000002</ele><time>2026-04-25T05:20:52.228Z</time></trkpt><trkpt lat="45.6306683" lon="9.1000617"><ele>227.8</ele><time>2026-04-25T05:20:53.228Z</time></trkpt><trkpt lat="45.6306917" lon="9.1001817"><ele>228.0</ele><time>2026-04-25T05:20:54.231Z</time></trkpt><trkpt lat="45.6307167" lon="9.10029"><ele>227.66666666666666</ele><time>2026-04-25T05:20:55.229Z</time></trkpt><trkpt lat="45.6307517" lon="9.100375"><ele>227.33333333333331</ele><time>2026-04-25T05:20:56.227Z</time></trkpt><trkpt lat="45.6307983" lon="9.1004383"><ele>227.0</ele><time>2026-04-25T05:20:57.229Z</time></trkpt><trkpt lat="45.63084" lon="9.1005067"><ele>226.66666666666666</ele><time>2026-04-25T05:20:58.23Z</time></trkpt><trkpt lat="45.6308783" lon="9.1006717"><ele>226.33333333333331</ele><time>2026-04-25T05:21:00.227Z</time></trkpt><trkpt lat="45.6308567" lon="9.100835"><ele>226.0</ele><time>2026-04-25T05:21:02.232Z</time></trkpt><trkpt lat="45.6307633" lon="9.1009483"><ele>225.83333333333331</ele><time>2026-04-25T05:21:04.228Z</time></trkpt><trkpt lat="45.6307033" lon="9.1009767"><ele>225.66666666666666</ele><time>2026-04-25T05:21:05.227Z</time></trkpt><trkpt lat="45.6306333" lon="9.1009833"><ele>225.5</ele><time>2026-04-25T05:21:06.228Z</time></trkpt><trkpt lat="45.63054" lon="9.100975"><ele>225.33333333333331</ele><time>2026-04-25T05:21:08.228Z</time></trkpt><trkpt lat="45.6306167" lon="9.1010167"><ele>225.16666666666666</ele><time>2026-04-25T05:21:27.227Z</time></trkpt><trkpt lat="45.6307317" lon="9.100965"><ele>225.0</ele><time>2026-04-25T05:21:29.229Z</time></trkpt><trkpt lat="45.6308267" lon="9.100865"><ele>225.2</ele><time>2026-04-25T05:21:31.227Z</time></trkpt><trkpt lat="45.63089" lon="9.1007033"><ele>225.4</ele><time>2026-04-25T05:21:33.227Z</time></trkpt><trkpt lat="45.630915" lon="9.1006133"><ele>225.60000000000002</ele><time>2026-04-25T05:21:34.227Z</time></trkpt><trkpt lat="45.630945" lon="9.1004733"><ele>225.8</ele><time>2026-04-25T05:21:36.229Z</time></trkpt><trkpt lat="45.6310033" lon="9.1004133"><ele>226.0</ele><time>2026-04-25T05:21:38.229Z</time></trkpt><trkpt lat="45.6312067" lon="9.1004383"><ele>225.5</ele><time>2026-04-25T05:21:41.23Z</time></trkpt><trkpt lat="45.631305" lon="9.1004767"><ele>225.0</ele><time>2026-04-25T05:21:42.228Z</time></trkpt><trkpt lat="45.6314017" lon="9.100525"><ele>224.5</ele><time>2026-04-25T05:21:43.228Z</time></trkpt><trkpt lat="45.63151" lon="9.1005733"><ele>224.0</ele><time>2026-04-25T05:21:44.227Z</time></trkpt><trkpt lat="45.6316367" lon="9.10063"><ele>224.0</ele><time>2026-04-25T05:21:45.228Z</time></trkpt><trkpt lat="45.6317667" lon="9.10069"><ele>224.0</ele><time>2026-04-25T05:21:46.23Z</time></trkpt><trkpt lat="45.6319" lon="9.1007533"><ele>224.0</ele><time>2026-04-25T05:21:47.227Z</time></trkpt><trkpt lat="45.6320417" lon="9.10082"><ele>224.0</ele><time>2026-04-25T05:21:48.229Z</time></trkpt><trkpt lat="45.6321917" lon="9.1008867"><ele>224.66666666666669</ele><time>2026-04-25T05:21:49.23Z</time></trkpt><trkpt lat="45.63235" lon="9.1009567"><ele>225.33333333333331</ele><time>2026-04-25T05:21:50.229Z</time></trkpt><trkpt lat="45.6325067" lon="9.1010317"><ele>226.0</ele><time>2026-04-25T05:21:51.23Z</time></trkpt><trkpt lat="45.6326633" lon="9.1011033"><ele>225.66666666666666</ele><time>2026-04-25T05:21:52.23Z</time></trkpt><trkpt lat="45.632825" lon="9.101175"><ele>225.33333333333331</ele><time>2026-04-25T05:21:53.229Z</time></trkpt><trkpt lat="45.6329983" lon="9.10125"><ele>225.0</ele><time>2026-04-25T05:21:54.23Z</time></trkpt><trkpt lat="45.6331767" lon="9.1013333"><ele>225.0</ele><time>2026-04-25T05:21:55.229Z</time></trkpt><trkpt lat="45.6333567" lon="9.1014117"><ele>225.0</ele><time>2026-04-25T05:21:56.227Z</time></trkpt><trkpt lat="45.6335383" lon="9.101495"><ele>225.0</ele><time>2026-04-25T05:21:57.228Z</time></trkpt><trkpt lat="45.6337083" lon="9.1015717"><ele>227.0</ele><time>2026-04-25T05:21:58.227Z</time></trkpt><trkpt lat="45.633865" lon="9.101645"><ele>229.0</ele><time>2026-04-25T05:21:59.227Z</time></trkpt><trkpt lat="45.6340117" lon="9.1017133"><ele>231.0</ele><time>2026-04-25T05:22:00.228Z</time></trkpt><trkpt lat="45.634155" lon="9.1017833"><ele>231.0</ele><time>2026-04-25T05:22:01.229Z</time></trkpt><trkpt lat="45.634305" lon="9.1018567"><ele>231.0</ele><time>2026-04-25T05:22:02.229Z</time></trkpt><trkpt lat="45.6344533" lon="9.1019367"><ele>231.0</ele><time>2026-04-25T05:22:03.23Z</time></trkpt><trkpt lat="45.634595" lon="9.1020283"><ele>230.66666666666669</ele><time>2026-04-25T05:22:04.229Z</time></trkpt><trkpt lat="45.63474" lon="9.102145"><ele>230.33333333333334</ele><time>2026-04-25T05:22:05.23Z</time></trkpt><trkpt lat="45.6348817" lon="9.1022733"><ele>230.0</ele><time>2026-04-25T05:22:06.232Z</time></trkpt><trkpt lat="45.6350167" lon="9.1024133"><ele>229.66666666666669</ele><time>2026-04-25T05:22:07.229Z</time></trkpt><trkpt lat="45.635135" lon="9.1025717"><ele>229.33333333333331</ele><time>2026-04-25T05:22:08.23Z</time></trkpt><trkpt lat="45.63524" lon="9.1027617"><ele>229.0</ele><time>2026-04-25T05:22:09.23Z</time></trkpt><trkpt lat="45.63533" lon="9.1029683"><ele>228.66666666666666</ele><time>2026-04-25T05:22:10.229Z</time></trkpt><trkpt lat="45.635405" lon="9.1031883"><ele>228.33333333333331</ele><time>2026-04-25T05:22:11.228Z</time></trkpt><trkpt lat="45.6354683" lon="9.1034167"><ele>228.0</ele><time>2026-04-25T05:22:12.23Z</time></trkpt><trkpt lat="45.6355217" lon="9.10365"><ele>229.0</ele><time>2026-04-25T05:22:13.233Z</time></trkpt><trkpt lat="45.63556" lon="9.10389"><ele>230.0</ele><time>2026-04-25T05:22:14.23Z</time></trkpt><trkpt lat="45.6355917" lon="9.1041367"><ele>231.0</ele><time>2026-04-25T05:22:15.231Z</time></trkpt><trkpt lat="45.635625" lon="9.10439"><ele>231.33333333333331</ele><time>2026-04-25T05:22:16.229Z</time></trkpt><trkpt lat="45.6356483" lon="9.1046517"><ele>231.66666666666666</ele><time>2026-04-25T05:22:17.227Z</time></trkpt><trkpt lat="45.6356717" lon="9.1049117"><ele>232.0</ele><time>2026-04-25T05:22:18.228Z</time></trkpt><trkpt lat="45.6356967" lon="9.1051667"><ele>232.0</ele><time>2026-04-25T05:22:19.23Z</time></trkpt><trkpt lat="45.6357233" lon="9.10542"><ele>232.0</ele><time>2026-04-25T05:22:20.231Z</time></trkpt><trkpt lat="45.63575" lon="9.1056783"><ele>232.0</ele><time>2026-04-25T05:22:21.23Z</time></trkpt><trkpt lat="45.635775" lon="9.10593"><ele>231.33333333333331</ele><time>2026-04-25T05:22:22.23Z</time></trkpt><trkpt lat="45.6357967" lon="9.10619"><ele>230.66666666666669</ele><time>2026-04-25T05:22:23.232Z</time></trkpt><trkpt lat="45.6358317" lon="9.1064617"><ele>230.0</ele><time>2026-04-25T05:22:24.229Z</time></trkpt><trkpt lat="45.6358683" lon="9.1067367"><ele>230.0</ele><time>2026-04-25T05:22:25.228Z</time></trkpt><trkpt lat="45.6359" lon="9.107"><ele>230.0</ele><time>2026-04-25T05:22:26.228Z</time></trkpt><trkpt lat="45.63593" lon="9.1072617"><ele>230.0</ele><time>2026-04-25T05:22:27.228Z</time></trkpt><trkpt lat="45.63596" lon="9.10753"><ele>230.0</ele><time>2026-04-25T05:22:28.23Z</time></trkpt><trkpt lat="45.6359883" lon="9.1077933"><ele>230.0</ele><time>2026-04-25T05:22:29.229Z</time></trkpt><trkpt lat="45.6360167" lon="9.1080417"><ele>230.0</ele><time>2026-04-25T05:22:30.227Z</time></trkpt><trkpt lat="45.6360383" lon="9.1082783"><ele>230.25</ele><time>2026-04-25T05:22:31.229Z</time></trkpt><trkpt lat="45.6360667" lon="9.108505"><ele>230.5</ele><time>2026-04-25T05:22:32.229Z</time></trkpt><trkpt lat="45.6360933" lon="9.10871"><ele>230.75</ele><time>2026-04-25T05:22:33.229Z</time></trkpt><trkpt lat="45.636115" lon="9.1089017"><ele>231.0</ele><time>2026-04-25T05:22:34.228Z</time></trkpt><trkpt lat="45.63613" lon="9.109075"><ele>231.0</ele><time>2026-04-25T05:22:35.227Z</time></trkpt><trkpt lat="45.6361367" lon="9.10922"><ele>231.0</ele><time>2026-04-25T05:22:36.227Z</time></trkpt><trkpt lat="45.6361333" lon="9.1093533"><ele>231.0</ele><time>2026-04-25T05:22:37.228Z</time></trkpt><trkpt lat="45.6361183" lon="9.1094617"><ele>231.0</ele><time>2026-04-25T05:22:38.228Z</time></trkpt><trkpt lat="45.6360867" lon="9.1095583"><ele>231.0</ele><time>2026-04-25T05:22:39.228Z</time></trkpt><trkpt lat="45.6360417" lon="9.1096333"><ele>231.0</ele><time>2026-04-25T05:22:40.227Z</time></trkpt><trkpt lat="45.6359983" lon="9.109715"><ele>231.0</ele><time>2026-04-25T05:22:41.227Z</time></trkpt><trkpt lat="45.6359767" lon="9.109805"><ele>231.00000000000003</ele><time>2026-04-25T05:22:42.228Z</time></trkpt><trkpt lat="45.636" lon="9.1099883"><ele>231.00000000000003</ele><time>2026-04-25T05:22:44.231Z</time></trkpt><trkpt lat="45.636045" lon="9.1101067"><ele>231.0</ele><time>2026-04-25T05:22:45.227Z</time></trkpt><trkpt lat="45.6361067" lon="9.110225"><ele>231.0</ele><time>2026-04-25T05:22:46.228Z</time></trkpt><trkpt lat="45.6361833" lon="9.1103433"><ele>231.0</ele><time>2026-04-25T05:22:47.228Z</time></trkpt><trkpt lat="45.6362483" lon="9.1104567"><ele>231.00000000000003</ele><time>2026-04-25T05:22:48.228Z</time></trkpt><trkpt lat="45.6362883" lon="9.110585"><ele>231.00000000000003</ele><time>2026-04-25T05:22:49.229Z</time></trkpt><trkpt lat="45.63631" lon="9.1107233"><ele>231.0</ele><time>2026-04-25T05:22:50.232Z</time></trkpt><trkpt lat="45.6363283" lon="9.1108833"><ele>231.0</ele><time>2026-04-25T05:22:51.231Z</time></trkpt><trkpt lat="45.636345" lon="9.1110567"><ele>230.75</ele><time>2026-04-25T05:22:52.231Z</time></trkpt><trkpt lat="45.636365" lon="9.11124"><ele>230.5</ele><time>2026-04-25T05:22:53.23Z</time></trkpt><trkpt lat="45.636385" lon="9.111435"><ele>230.25</ele><time>2026-04-25T05:22:54.23Z</time></trkpt><trkpt lat="45.6364067" lon="9.1116367"><ele>230.0</ele><time>2026-04-25T05:22:55.23Z</time></trkpt><trkpt lat="45.636435" lon="9.1118467"><ele>230.0</ele><time>2026-04-25T05:22:56.228Z</time></trkpt><trkpt lat="45.6364567" lon="9.11206"><ele>230.0</ele><time>2026-04-25T05:22:57.229Z</time></trkpt><trkpt lat="45.636475" lon="9.1122733"><ele>230.0</ele><time>2026-04-25T05:22:58.229Z</time></trkpt><trkpt lat="45.6365033" lon="9.1125017"><ele>230.66666666666669</ele><time>2026-04-25T05:22:59.229Z</time></trkpt><trkpt lat="45.6365283" lon="9.1127367"><ele>231.33333333333331</ele><time>2026-04-25T05:23:00.228Z</time></trkpt><trkpt lat="45.6365517" lon="9.1129817"><ele>232.0</ele><time>2026-04-25T05:23:01.229Z</time></trkpt><trkpt lat="45.6365783" lon="9.1132267"><ele>232.66666666666666</ele><time>2026-04-25T05:23:02.228Z</time></trkpt><trkpt lat="45.6366083" lon="9.1134767"><ele>233.33333333333331</ele><time>2026-04-25T05:23:03.228Z</time></trkpt><trkpt lat="45.6366383" lon="9.113735"><ele>234.0</ele><time>2026-04-25T05:23:04.229Z</time></trkpt><trkpt lat="45.6366683" lon="9.1139867"><ele>233.66666666666669</ele><time>2026-04-25T05:23:05.228Z</time></trkpt><trkpt lat="45.6366967" lon="9.1142333"><ele>233.33333333333334</ele><time>2026-04-25T05:23:06.228Z</time></trkpt><trkpt lat="45.6367217" lon="9.1144717"><ele>233.0</ele><time>2026-04-25T05:23:07.228Z</time></trkpt><trkpt lat="45.6367467" lon="9.1147183"><ele>232.33333333333334</ele><time>2026-04-25T05:23:08.229Z</time></trkpt><trkpt lat="45.63677" lon="9.1149583"><ele>231.66666666666669</ele><time>2026-04-25T05:23:09.228Z</time></trkpt><trkpt lat="45.6367917" lon="9.11519"><ele>231.0</ele><time>2026-04-25T05:23:10.228Z</time></trkpt><trkpt lat="45.6368117" lon="9.11541"><ele>231.0</ele><time>2026-04-25T05:23:11.229Z</time></trkpt><trkpt lat="45.6368233" lon="9.1156217"><ele>231.0</ele><time>2026-04-25T05:23:12.228Z</time></trkpt><trkpt lat="45.6368217" lon="9.11584"><ele>231.0</ele><time>2026-04-25T05:23:13.229Z</time></trkpt><trkpt lat="45.6368033" lon="9.116075"><ele>230.66666666666669</ele><time>2026-04-25T05:23:14.229Z</time></trkpt><trkpt lat="45.636775" lon="9.1163117"><ele>230.33333333333334</ele><time>2026-04-25T05:23:15.228Z</time></trkpt><trkpt lat="45.6367333" lon="9.1165533"><ele>230.0</ele><time>2026-04-25T05:23:16.228Z</time></trkpt><trkpt lat="45.6366783" lon="9.1167917"><ele>230.0</ele><time>2026-04-25T05:23:17.227Z</time></trkpt><trkpt lat="45.6366117" lon="9.1170383"><ele>230.0</ele><time>2026-04-25T05:23:18.228Z</time></trkpt><trkpt lat="45.6365367" lon="9.1172933"><ele>230.0</ele><time>2026-04-25T05:23:19.228Z</time></trkpt><trkpt lat="45.636455" lon="9.1175567"><ele>230.66666666666669</ele><time>2026-04-25T05:23:20.229Z</time></trkpt><trkpt lat="45.6363733" lon="9.1178283"><ele>231.33333333333331</ele><time>2026-04-25T05:23:21.23Z</time></trkpt><trkpt lat="45.6362883" lon="9.1181083"><ele>232.0</ele><time>2026-04-25T05:23:22.23Z</time></trkpt><trkpt lat="45.6362067" lon="9.1183817"><ele>232.33333333333331</ele><time>2026-04-25T05:23:23.23Z</time></trkpt><trkpt lat="45.63613" lon="9.11864"><ele>232.66666666666669</ele><time>2026-04-25T05:23:24.231Z</time></trkpt><trkpt lat="45.6360533" lon="9.1188883"><ele>233.0</ele><time>2026-04-25T05:23:25.228Z</time></trkpt><trkpt lat="45.635975" lon="9.119125"><ele>233.0</ele><time>2026-04-25T05:23:26.228Z</time></trkpt><trkpt lat="45.6358817" lon="9.1193533"><ele>233.0</ele><time>2026-04-25T05:23:27.229Z</time></trkpt><trkpt lat="45.6357867" lon="9.1195817"><ele>233.0</ele><time>2026-04-25T05:23:28.229Z</time></trkpt><trkpt lat="45.635685" lon="9.1198067"><ele>232.0</ele><time>2026-04-25T05:23:29.228Z</time></trkpt><trkpt lat="45.6355833" lon="9.1200217"><ele>231.0</ele><time>2026-04-25T05:23:30.229Z</time></trkpt><trkpt lat="45.6354883" lon="9.1202183"><ele>230.0</ele><time>2026-04-25T05:23:31.228Z</time></trkpt><trkpt lat="45.635395" lon="9.1204033"><ele>230.5</ele><time>2026-04-25T05:23:32.228Z</time></trkpt><trkpt lat="45.6353033" lon="9.1205833"><ele>231.0</ele><time>2026-04-25T05:23:33.228Z</time></trkpt><trkpt lat="45.6352233" lon="9.12075"><ele>231.5</ele><time>2026-04-25T05:23:34.229Z</time></trkpt><trkpt lat="45.635145" lon="9.1209083"><ele>232.0</ele><time>2026-04-25T05:23:35.228Z</time></trkpt><trkpt lat="45.635065" lon="9.1210667"><ele>232.0</ele><time>2026-04-25T05:23:36.228Z</time></trkpt><trkpt lat="45.6349817" lon="9.1212333"><ele>232.0</ele><time>2026-04-25T05:23:37.228Z</time></trkpt><trkpt lat="45.6348967" lon="9.12141"><ele>232.0</ele><time>2026-04-25T05:23:38.227Z</time></trkpt><trkpt lat="45.6348083" lon="9.1215917"><ele>232.0</ele><time>2026-04-25T05:23:39.228Z</time></trkpt><trkpt lat="45.6347183" lon="9.121775"><ele>232.0</ele><time>2026-04-25T05:23:40.231Z</time></trkpt><trkpt lat="45.63463" lon="9.12195"><ele>232.0</ele><time>2026-04-25T05:23:41.231Z</time></trkpt><trkpt lat="45.6345467" lon="9.12211"><ele>232.0</ele><time>2026-04-25T05:23:42.231Z</time></trkpt><trkpt lat="45.6344683" lon="9.1222633"><ele>232.0</ele><time>2026-04-25T05:23:43.229Z</time></trkpt><trkpt lat="45.6343967" lon="9.1224133"><ele>232.0</ele><time>2026-04-25T05:23:44.23Z</time></trkpt><trkpt lat="45.6343233" lon="9.122545"><ele>232.0</ele><time>2026-04-25T05:23:45.23Z</time></trkpt><trkpt lat="45.6342533" lon="9.1226783"><ele>232.0</ele><time>2026-04-25T05:23:46.228Z</time></trkpt><trkpt lat="45.634195" lon="9.1227967"><ele>232.0</ele><time>2026-04-25T05:23:47.23Z</time></trkpt><trkpt lat="45.6341317" lon="9.122905"><ele>232.0</ele><time>2026-04-25T05:23:48.228Z</time></trkpt><trkpt lat="45.6340783" lon="9.12299"><ele>231.99999999999997</ele><time>2026-04-25T05:23:49.231Z</time></trkpt><trkpt lat="45.6340133" lon="9.1230733"><ele>232.0</ele><time>2026-04-25T05:23:50.229Z</time></trkpt><trkpt lat="45.6339483" lon="9.12315"><ele>232.0</ele><time>2026-04-25T05:23:51.228Z</time></trkpt><trkpt lat="45.633885" lon="9.1232317"><ele>232.0</ele><time>2026-04-25T05:23:52.228Z</time></trkpt><trkpt lat="45.6338417" lon="9.12333"><ele>231.99999999999997</ele><time>2026-04-25T05:23:53.228Z</time></trkpt><trkpt lat="45.6338183" lon="9.1234383"><ele>232.0</ele><time>2026-04-25T05:23:54.228Z</time></trkpt><trkpt lat="45.63382" lon="9.12355"><ele>231.83333333333331</ele><time>2026-04-25T05:23:55.228Z</time></trkpt><trkpt lat="45.63385" lon="9.1236433"><ele>231.66666666666666</ele><time>2026-04-25T05:23:56.229Z</time></trkpt><trkpt lat="45.6339317" lon="9.1237017"><ele>231.5</ele><time>2026-04-25T05:23:57.228Z</time></trkpt><trkpt lat="45.6340133" lon="9.1237233"><ele>231.33333333333331</ele><time>2026-04-25T05:23:58.228Z</time></trkpt><trkpt lat="45.6341017" lon="9.123715"><ele>231.16666666666666</ele><time>2026-04-25T05:23:59.229Z</time></trkpt><trkpt lat="45.634195" lon="9.1236883"><ele>231.0</ele><time>2026-04-25T05:24:00.229Z</time></trkpt><trkpt lat="45.634295" lon="9.1236433"><ele>231.0</ele><time>2026-04-25T05:24:01.228Z</time></trkpt><trkpt lat="45.6344017" lon="9.1235867"><ele>231.0</ele><time>2026-04-25T05:24:02.228Z</time></trkpt><trkpt lat="45.6345117" lon="9.1235083"><ele>231.0</ele><time>2026-04-25T05:24:03.229Z</time></trkpt><trkpt lat="45.6346267" lon="9.12342"><ele>231.0</ele><time>2026-04-25T05:24:04.229Z</time></trkpt><trkpt lat="45.6347417" lon="9.12334"><ele>231.0</ele><time>2026-04-25T05:24:05.227Z</time></trkpt><trkpt lat="45.6348533" lon="9.1232717"><ele>231.0</ele><time>2026-04-25T05:24:06.228Z</time></trkpt><trkpt lat="45.6349583" lon="9.12322"><ele>231.0</ele><time>2026-04-25T05:24:07.228Z</time></trkpt><trkpt lat="45.6350667" lon="9.1231767"><ele>231.0</ele><time>2026-04-25T05:24:08.229Z</time></trkpt><trkpt lat="45.635185" lon="9.123145"><ele>231.0</ele><time>2026-04-25T05:24:09.227Z</time></trkpt><trkpt lat="45.635315" lon="9.1231167"><ele>231.0</ele><time>2026-04-25T05:24:10.228Z</time></trkpt><trkpt lat="45.635455" lon="9.123085"><ele>231.0</ele><time>2026-04-25T05:24:11.228Z</time></trkpt><trkpt lat="45.6356017" lon="9.1230517"><ele>231.0</ele><time>2026-04-25T05:24:12.228Z</time></trkpt><trkpt lat="45.6357567" lon="9.1230167"><ele>231.0</ele><time>2026-04-25T05:24:13.229Z</time></trkpt><trkpt lat="45.6359133" lon="9.1229817"><ele>231.0</ele><time>2026-04-25T05:24:14.227Z</time></trkpt><trkpt lat="45.636065" lon="9.1229467"><ele>231.0</ele><time>2026-04-25T05:24:15.228Z</time></trkpt><trkpt lat="45.636215" lon="9.1229"><ele>230.0</ele><time>2026-04-25T05:24:16.227Z</time></trkpt><trkpt lat="45.6363717" lon="9.12286"><ele>229.0</ele><time>2026-04-25T05:24:17.228Z</time></trkpt><trkpt lat="45.636535" lon="9.1228283"><ele>228.0</ele><time>2026-04-25T05:24:18.229Z</time></trkpt><trkpt lat="45.6367033" lon="9.1227883"><ele>228.0</ele><time>2026-04-25T05:24:19.229Z</time></trkpt><trkpt lat="45.63688" lon="9.1227433"><ele>228.0</ele><time>2026-04-25T05:24:20.229Z</time></trkpt><trkpt lat="45.6370617" lon="9.1226967"><ele>228.0</ele><time>2026-04-25T05:24:21.229Z</time></trkpt><trkpt lat="45.6372517" lon="9.1226517"><ele>228.66666666666669</ele><time>2026-04-25T05:24:22.229Z</time></trkpt><trkpt lat="45.6374383" lon="9.1226067"><ele>229.33333333333334</ele><time>2026-04-25T05:24:23.228Z</time></trkpt><trkpt lat="45.6376267" lon="9.1225617"><ele>230.0</ele><time>2026-04-25T05:24:24.23Z</time></trkpt><trkpt lat="45.6378183" lon="9.1225183"><ele>230.0</ele><time>2026-04-25T05:24:25.229Z</time></trkpt><trkpt lat="45.63801" lon="9.12248"><ele>230.0</ele><time>2026-04-25T05:24:26.23Z</time></trkpt><trkpt lat="45.6382033" lon="9.1224367"><ele>230.0</ele><time>2026-04-25T05:24:27.228Z</time></trkpt><trkpt lat="45.6383933" lon="9.122395"><ele>230.0</ele><time>2026-04-25T05:24:28.227Z</time></trkpt><trkpt lat="45.63857" lon="9.1223567"><ele>230.0</ele><time>2026-04-25T05:24:29.228Z</time></trkpt><trkpt lat="45.638735" lon="9.1223217"><ele>230.0</ele><time>2026-04-25T05:24:30.228Z</time></trkpt><trkpt lat="45.6388833" lon="9.12229"><ele>230.5</ele><time>2026-04-25T05:24:31.228Z</time></trkpt><trkpt lat="45.6390167" lon="9.12226"><ele>231.0</ele><time>2026-04-25T05:24:32.227Z</time></trkpt><trkpt lat="45.63914" lon="9.1222283"><ele>231.5</ele><time>2026-04-25T05:24:33.23Z</time></trkpt><trkpt lat="45.639255" lon="9.1222"><ele>232.0</ele><time>2026-04-25T05:24:34.232Z</time></trkpt><trkpt lat="45.63936" lon="9.1221733"><ele>232.0</ele><time>2026-04-25T05:24:35.229Z</time></trkpt><trkpt lat="45.63946" lon="9.1221517"><ele>232.0</ele><time>2026-04-25T05:24:36.229Z</time></trkpt><trkpt lat="45.63956" lon="9.1221417"><ele>232.0</ele><time>2026-04-25T05:24:37.229Z</time></trkpt><trkpt lat="45.6396617" lon="9.1221583"><ele>232.0</ele><time>2026-04-25T05:24:38.231Z</time></trkpt><trkpt lat="45.6397583" lon="9.1222133"><ele>232.0</ele><time>2026-04-25T05:24:39.231Z</time></trkpt><trkpt lat="45.6398467" lon="9.122305"><ele>232.5</ele><time>2026-04-25T05:24:40.233Z</time></trkpt><trkpt lat="45.6399233" lon="9.1224183"><ele>233.0</ele><time>2026-04-25T05:24:41.229Z</time></trkpt><trkpt lat="45.6399967" lon="9.1225483"><ele>233.5</ele><time>2026-04-25T05:24:42.227Z</time></trkpt><trkpt lat="45.6400733" lon="9.1226867"><ele>234.0</ele><time>2026-04-25T05:24:43.228Z</time></trkpt><trkpt lat="45.6401533" lon="9.1228317"><ele>234.0</ele><time>2026-04-25T05:24:44.227Z</time></trkpt><trkpt lat="45.6402317" lon="9.1229633"><ele>234.0</ele><time>2026-04-25T05:24:45.228Z</time></trkpt><trkpt lat="45.6403083" lon="9.1230867"><ele>234.0</ele><time>2026-04-25T05:24:46.228Z</time></trkpt><trkpt lat="45.64038" lon="9.12321"><ele>234.0</ele><time>2026-04-25T05:24:47.229Z</time></trkpt><trkpt lat="45.6404517" lon="9.1233367"><ele>234.0</ele><time>2026-04-25T05:24:48.228Z</time></trkpt><trkpt lat="45.6405283" lon="9.1234633"><ele>234.0</ele><time>2026-04-25T05:24:49.228Z</time></trkpt><trkpt lat="45.6406117" lon="9.1236"><ele>234.0</ele><time>2026-04-25T05:24:50.228Z</time></trkpt><trkpt lat="45.6407" lon="9.12375"><ele>234.0</ele><time>2026-04-25T05:24:51.23Z</time></trkpt><trkpt lat="45.64079" lon="9.1239083"><ele>233.75</ele><time>2026-04-25T05:24:52.228Z</time></trkpt><trkpt lat="45.64088" lon="9.1240683"><ele>233.5</ele><time>2026-04-25T05:24:53.229Z</time></trkpt><trkpt lat="45.6409767" lon="9.1242267"><ele>233.25</ele><time>2026-04-25T05:24:54.229Z</time></trkpt><trkpt lat="45.6410717" lon="9.1243917"><ele>233.0</ele><time>2026-04-25T05:24:55.228Z</time></trkpt><trkpt lat="45.641165" lon="9.1245517"><ele>233.0</ele><time>2026-04-25T05:24:56.228Z</time></trkpt><trkpt lat="45.6412533" lon="9.1247"><ele>233.0</ele><time>2026-04-25T05:24:57.228Z</time></trkpt><trkpt lat="45.6413383" lon="9.1248383"><ele>233.0</ele><time>2026-04-25T05:24:58.231Z</time></trkpt><trkpt lat="45.641415" lon="9.1249683"><ele>233.0</ele><time>2026-04-25T05:24:59.23Z</time></trkpt><trkpt lat="45.6414833" lon="9.12509"><ele>232.66666666666669</ele><time>2026-04-25T05:25:00.229Z</time></trkpt><trkpt lat="45.641545" lon="9.1252"><ele>232.33333333333334</ele><time>2026-04-25T05:25:01.229Z</time></trkpt><trkpt lat="45.641595" lon="9.1253017"><ele>232.0</ele><time>2026-04-25T05:25:02.23Z</time></trkpt><trkpt lat="45.641635" lon="9.125405"><ele>231.66666666666669</ele><time>2026-04-25T05:25:03.228Z</time></trkpt><trkpt lat="45.6416733" lon="9.1255067"><ele>231.33333333333334</ele><time>2026-04-25T05:25:04.227Z</time></trkpt><trkpt lat="45.6417283" lon="9.1256033"><ele>231.0</ele><time>2026-04-25T05:25:05.229Z</time></trkpt><trkpt lat="45.6418117" lon="9.1256917"><ele>231.0</ele><time>2026-04-25T05:25:06.228Z</time></trkpt><trkpt lat="45.6419017" lon="9.125805"><ele>231.0</ele><time>2026-04-25T05:25:07.229Z</time></trkpt><trkpt lat="45.641985" lon="9.125935"><ele>231.0</ele><time>2026-04-25T05:25:08.227Z</time></trkpt><trkpt lat="45.642065" lon="9.1260783"><ele>231.0</ele><time>2026-04-25T05:25:09.228Z</time></trkpt><trkpt lat="45.64215" lon="9.1262283"><ele>230.75</ele><time>2026-04-25T05:25:10.231Z</time></trkpt><trkpt lat="45.6422333" lon="9.1263917"><ele>230.5</ele><time>2026-04-25T05:25:11.228Z</time></trkpt><trkpt lat="45.642305" lon="9.1265733"><ele>230.25</ele><time>2026-04-25T05:25:12.227Z</time></trkpt><trkpt lat="45.6423683" lon="9.1267633"><ele>230.0</ele><time>2026-04-25T05:25:13.228Z</time></trkpt><trkpt lat="45.6424217" lon="9.1269633"><ele>230.66666666666669</ele><time>2026-04-25T05:25:14.228Z</time></trkpt><trkpt lat="45.64247" lon="9.1271767"><ele>231.33333333333331</ele><time>2026-04-25T05:25:15.229Z</time></trkpt><trkpt lat="45.6425133" lon="9.1273933"><ele>232.0</ele><time>2026-04-25T05:25:16.228Z</time></trkpt><trkpt lat="45.6425517" lon="9.12761"><ele>232.5</ele><time>2026-04-25T05:25:17.229Z</time></trkpt><trkpt lat="45.642585" lon="9.1278167"><ele>233.0</ele><time>2026-04-25T05:25:18.23Z</time></trkpt><trkpt lat="45.6426167" lon="9.128"><ele>233.5</ele><time>2026-04-25T05:25:19.229Z</time></trkpt><trkpt lat="45.642645" lon="9.1281733"><ele>234.0</ele><time>2026-04-25T05:25:20.23Z</time></trkpt><trkpt lat="45.6426667" lon="9.1283367"><ele>234.25</ele><time>2026-04-25T05:25:21.229Z</time></trkpt><trkpt lat="45.6426817" lon="9.1284917"><ele>234.5</ele><time>2026-04-25T05:25:22.23Z</time></trkpt><trkpt lat="45.6426883" lon="9.1286467"><ele>234.75</ele><time>2026-04-25T05:25:23.229Z</time></trkpt><trkpt lat="45.642695" lon="9.1288117"><ele>235.0</ele><time>2026-04-25T05:25:24.23Z</time></trkpt><trkpt lat="45.6426983" lon="9.128985"><ele>235.0</ele><time>2026-04-25T05:25:25.228Z</time></trkpt><trkpt lat="45.6427017" lon="9.1291717"><ele>235.0</ele><time>2026-04-25T05:25:26.227Z</time></trkpt><trkpt lat="45.6427083" lon="9.129365"><ele>235.0</ele><time>2026-04-25T05:25:27.231Z</time></trkpt><trkpt lat="45.6427167" lon="9.12956"><ele>235.0</ele><time>2026-04-25T05:25:28.229Z</time></trkpt><trkpt lat="45.642725" lon="9.1297517"><ele>234.75</ele><time>2026-04-25T05:25:29.229Z</time></trkpt><trkpt lat="45.642735" lon="9.129925"><ele>234.5</ele><time>2026-04-25T05:25:30.229Z</time></trkpt><trkpt lat="45.6427367" lon="9.1300883"><ele>234.25</ele><time>2026-04-25T05:25:31.228Z</time></trkpt><trkpt lat="45.6427417" lon="9.130255"><ele>234.0</ele><time>2026-04-25T05:25:32.228Z</time></trkpt><trkpt lat="45.642745" lon="9.13041"><ele>234.0</ele><time>2026-04-25T05:25:33.228Z</time></trkpt><trkpt lat="45.64275" lon="9.130575"><ele>234.0</ele><time>2026-04-25T05:25:34.227Z</time></trkpt><trkpt lat="45.6427533" lon="9.13075"><ele>234.0</ele><time>2026-04-25T05:25:35.229Z</time></trkpt><trkpt lat="45.642755" lon="9.1309367"><ele>234.0</ele><time>2026-04-25T05:25:36.227Z</time></trkpt><trkpt lat="45.6427583" lon="9.1311083"><ele>234.0</ele><time>2026-04-25T05:25:37.229Z</time></trkpt><trkpt lat="45.64276" lon="9.1312517"><ele>233.99999999999997</ele><time>2026-04-25T05:25:38.229Z</time></trkpt><trkpt lat="45.6427617" lon="9.1313817"><ele>233.99999999999997</ele><time>2026-04-25T05:25:39.229Z</time></trkpt><trkpt lat="45.6427667" lon="9.13151"><ele>234.0</ele><time>2026-04-25T05:25:40.23Z</time></trkpt><trkpt lat="45.642775" lon="9.131645"><ele>234.0</ele><time>2026-04-25T05:25:41.227Z</time></trkpt><trkpt lat="45.64278" lon="9.1318033"><ele>233.75</ele><time>2026-04-25T05:25:42.227Z</time></trkpt><trkpt lat="45.6427783" lon="9.1319783"><ele>233.5</ele><time>2026-04-25T05:25:43.227Z</time></trkpt><trkpt lat="45.6427717" lon="9.132155"><ele>233.25</ele><time>2026-04-25T05:25:44.228Z</time></trkpt><trkpt lat="45.6427733" lon="9.13235"><ele>233.0</ele><time>2026-04-25T05:25:45.229Z</time></trkpt><trkpt lat="45.64278" lon="9.13255"><ele>232.75</ele><time>2026-04-25T05:25:46.228Z</time></trkpt><trkpt lat="45.6427917" lon="9.1327467"><ele>232.5</ele><time>2026-04-25T05:25:47.228Z</time></trkpt><trkpt lat="45.6427983" lon="9.132935"><ele>232.25</ele><time>2026-04-25T05:25:48.228Z</time></trkpt><trkpt lat="45.6428217" lon="9.1331133"><ele>232.0</ele><time>2026-04-25T05:25:49.228Z</time></trkpt><trkpt lat="45.64284" lon="9.133285"><ele>232.5</ele><time>2026-04-25T05:25:50.228Z</time></trkpt><trkpt lat="45.6428633" lon="9.1334567"><ele>233.0</ele><time>2026-04-25T05:25:51.229Z</time></trkpt><trkpt lat="45.64289" lon="9.133625"><ele>233.5</ele><time>2026-04-25T05:25:52.227Z</time></trkpt><trkpt lat="45.6429133" lon="9.1337867"><ele>234.0</ele><time>2026-04-25T05:25:53.228Z</time></trkpt><trkpt lat="45.6429333" lon="9.1339467"><ele>234.33333333333334</ele><time>2026-04-25T05:25:54.227Z</time></trkpt><trkpt lat="45.642955" lon="9.1341017"><ele>234.66666666666669</ele><time>2026-04-25T05:25:55.229Z</time></trkpt><trkpt lat="45.6429783" lon="9.1342467"><ele>235.0</ele><time>2026-04-25T05:25:56.229Z</time></trkpt><trkpt lat="45.643" lon="9.134355"><ele>235.33333333333334</ele><time>2026-04-25T05:25:57.229Z</time></trkpt><trkpt lat="45.6430167" lon="9.1344683"><ele>235.66666666666669</ele><time>2026-04-25T05:25:58.227Z</time></trkpt><trkpt lat="45.6430367" lon="9.1345583"><ele>236.0</ele><time>2026-04-25T05:25:59.229Z</time></trkpt><trkpt lat="45.6430533" lon="9.1346933"><ele>236.0</ele><time>2026-04-25T05:26:01.228Z</time></trkpt><trkpt lat="45.6430767" lon="9.1347833"><ele>236.0</ele><time>2026-04-25T05:26:04.229Z</time></trkpt><trkpt lat="45.643095" lon="9.1348767"><ele>236.0</ele><time>2026-04-25T05:27:47.228Z</time></trkpt><trkpt lat="45.643125" lon="9.1350033"><ele>236.0</ele><time>2026-04-25T05:27:49.228Z</time></trkpt><trkpt lat="45.6431483" lon="9.1350917"><ele>236.0</ele><time>2026-04-25T05:27:50.227Z</time></trkpt><trkpt lat="45.64317" lon="9.135185"><ele>236.0</ele><time>2026-04-25T05:27:51.229Z</time></trkpt><trkpt lat="45.6432017" lon="9.135285"><ele>236.0</ele><time>2026-04-25T05:27:52.228Z</time></trkpt><trkpt lat="45.6432317" lon="9.135375"><ele>235.66666666666669</ele><time>2026-04-25T05:27:53.229Z</time></trkpt><trkpt lat="45.643285" lon="9.1354467"><ele>235.33333333333334</ele><time>2026-04-25T05:27:54.227Z</time></trkpt><trkpt lat="45.64335" lon="9.135495"><ele>235.0</ele><time>2026-04-25T05:27:55.228Z</time></trkpt><trkpt lat="45.6434233" lon="9.1355467"><ele>234.66666666666669</ele><time>2026-04-25T05:27:56.227Z</time></trkpt><trkpt lat="45.6435" lon="9.135605"><ele>234.33333333333334</ele><time>2026-04-25T05:27:57.23Z</time></trkpt><trkpt lat="45.6435817" lon="9.1356667"><ele>234.0</ele><time>2026-04-25T05:27:58.23Z</time></trkpt><trkpt lat="45.6436483" lon="9.13573"><ele>231.39999999999998</ele><time>2026-04-25T05:27:59.229Z</time></trkpt><trkpt lat="45.6436767" lon="9.1358533"><ele>228.79999999999998</ele><time>2026-04-25T05:28:01.228Z</time></trkpt><trkpt lat="45.6436183" lon="9.1359667"><ele>226.20000000000002</ele><time>2026-04-25T05:28:03.233Z</time></trkpt><trkpt lat="45.6435533" lon="9.1359967"><ele>223.60000000000002</ele><time>2026-04-25T05:28:04.228Z</time></trkpt><trkpt lat="45.64347" lon="9.136065"><ele>221.0</ele><time>2026-04-25T05:28:06.232Z</time></trkpt><trkpt lat="45.64342" lon="9.1361867"><ele>221.0</ele><time>2026-04-25T05:28:08.227Z</time></trkpt><trkpt lat="45.6434267" lon="9.1363083"><ele>221.00000000000003</ele><time>2026-04-25T05:28:09.227Z</time></trkpt><trkpt lat="45.6434467" lon="9.1364617"><ele>221.00000000000003</ele><time>2026-04-25T05:28:10.229Z</time></trkpt><trkpt lat="45.6434567" lon="9.1366033"><ele>221.0</ele><time>2026-04-25T05:28:11.228Z</time></trkpt><trkpt lat="45.6434617" lon="9.1367417"><ele>221.0</ele><time>2026-04-25T05:28:12.23Z</time></trkpt><trkpt lat="45.64346" lon="9.1368767"><ele>219.85714285714286</ele><time>2026-04-25T05:28:13.227Z</time></trkpt><trkpt lat="45.6434533" lon="9.1369833"><ele>218.71428571428572</ele><time>2026-04-25T05:28:14.229Z</time></trkpt><trkpt lat="45.6434483" lon="9.137085"><ele>217.57142857142856</ele><time>2026-04-25T05:28:15.23Z</time></trkpt><trkpt lat="45.6434383" lon="9.1371867"><ele>216.42857142857144</ele><time>2026-04-25T05:28:16.227Z</time></trkpt><trkpt lat="45.6434167" lon="9.1372867"><ele>215.28571428571428</ele><time>2026-04-25T05:28:17.23Z</time></trkpt><trkpt lat="45.6433867" lon="9.13738"><ele>214.14285714285714</ele><time>2026-04-25T05:28:18.227Z</time></trkpt><trkpt lat="45.64336" lon="9.137485"><ele>213.0</ele><time>2026-04-25T05:28:19.227Z</time></trkpt><trkpt lat="45.6433417" lon="9.1376017"><ele>212.60000000000002</ele><time>2026-04-25T05:28:20.229Z</time></trkpt><trkpt lat="45.64332" lon="9.1377233"><ele>212.20000000000002</ele><time>2026-04-25T05:28:21.229Z</time></trkpt><trkpt lat="45.6433167" lon="9.13786"><ele>211.8</ele><time>2026-04-25T05:28:22.227Z</time></trkpt><trkpt lat="45.64332" lon="9.1380067"><ele>211.4</ele><time>2026-04-25T05:28:23.227Z</time></trkpt><trkpt lat="45.6433233" lon="9.1381517"><ele>211.0</ele><time>2026-04-25T05:28:24.23Z</time></trkpt><trkpt lat="45.6433233" lon="9.1382883"><ele>210.99999999999997</ele><time>2026-04-25T05:28:25.227Z</time></trkpt><trkpt lat="45.64332" lon="9.1384167"><ele>211.0</ele><time>2026-04-25T05:28:26.228Z</time></trkpt><trkpt lat="45.643315" lon="9.1385317"><ele>211.0</ele><time>2026-04-25T05:28:27.228Z</time></trkpt><trkpt lat="45.64331" lon="9.1386267"><ele>211.0</ele><time>2026-04-25T05:28:28.229Z</time></trkpt><trkpt lat="45.6432833" lon="9.1387633"><ele>210.99999999999997</ele><time>2026-04-25T05:28:30.229Z</time></trkpt><trkpt lat="45.643205" lon="9.1388667"><ele>211.0</ele><time>2026-04-25T05:28:32.227Z</time></trkpt><trkpt lat="45.6431567" lon="9.13893"><ele>210.99999999999997</ele><time>2026-04-25T05:28:33.227Z</time></trkpt><trkpt lat="45.643125" lon="9.13901"><ele>211.0</ele><time>2026-04-25T05:28:34.229Z</time></trkpt><trkpt lat="45.6430967" lon="9.1390983"><ele>211.0</ele><time>2026-04-25T05:28:35.228Z</time></trkpt><trkpt lat="45.643075" lon="9.1392033"><ele>211.0</ele><time>2026-04-25T05:28:36.228Z</time></trkpt><trkpt lat="45.6430533" lon="9.139325"><ele>210.99999999999997</ele><time>2026-04-25T05:28:37.229Z</time></trkpt><trkpt lat="45.6430283" lon="9.1394617"><ele>211.0</ele><time>2026-04-25T05:28:38.229Z</time></trkpt><trkpt lat="45.6430033" lon="9.139615"><ele>211.20000000000002</ele><time>2026-04-25T05:28:39.229Z</time></trkpt><trkpt lat="45.642975" lon="9.1397767"><ele>211.4</ele><time>2026-04-25T05:28:40.229Z</time></trkpt><trkpt lat="45.64295" lon="9.1399317"><ele>211.6</ele><time>2026-04-25T05:28:41.228Z</time></trkpt><trkpt lat="45.642925" lon="9.1400817"><ele>211.8</ele><time>2026-04-25T05:28:42.229Z</time></trkpt><trkpt lat="45.6429017" lon="9.1402283"><ele>212.0</ele><time>2026-04-25T05:28:43.228Z</time></trkpt><trkpt lat="45.64287" lon="9.140365"><ele>212.00000000000003</ele><time>2026-04-25T05:28:44.229Z</time></trkpt><trkpt lat="45.6428433" lon="9.1404983"><ele>212.0</ele><time>2026-04-25T05:28:45.228Z</time></trkpt><trkpt lat="45.6428217" lon="9.14062"><ele>212.0</ele><time>2026-04-25T05:28:46.229Z</time></trkpt><trkpt lat="45.6427983" lon="9.140735"><ele>212.0</ele><time>2026-04-25T05:28:47.229Z</time></trkpt><trkpt lat="45.64278" lon="9.1408467"><ele>212.00000000000003</ele><time>2026-04-25T05:28:48.229Z</time></trkpt><trkpt lat="45.6427633" lon="9.14095"><ele>212.0</ele><time>2026-04-25T05:28:49.229Z</time></trkpt><trkpt lat="45.6427483" lon="9.14105"><ele>211.6</ele><time>2026-04-25T05:28:50.229Z</time></trkpt><trkpt lat="45.6427233" lon="9.14121"><ele>211.2</ele><time>2026-04-25T05:28:52.23Z</time></trkpt><trkpt lat="45.642695" lon="9.1413183"><ele>210.8</ele><time>2026-04-25T05:28:54.229Z</time></trkpt><trkpt lat="45.642625" lon="9.1413583"><ele>210.4</ele><time>2026-04-25T05:35:05.227Z</time></trkpt><trkpt lat="45.6426133" lon="9.1414967"><ele>210.0</ele><time>2026-04-25T05:35:08.23Z</time></trkpt><trkpt lat="45.6426033" lon="9.1416167"><ele>210.0</ele><time>2026-04-25T05:35:10.229Z</time></trkpt><trkpt lat="45.6426017" lon="9.1418033"><ele>210.0</ele><time>2026-04-25T05:35:12.229Z</time></trkpt><trkpt lat="45.6426083" lon="9.141925"><ele>210.0</ele><time>2026-04-25T05:35:13.229Z</time></trkpt><trkpt lat="45.64261" lon="9.1420583"><ele>210.0</ele><time>2026-04-25T05:35:14.23Z</time></trkpt><trkpt lat="45.64261" lon="9.142195"><ele>210.0</ele><time>2026-04-25T05:35:15.231Z</time></trkpt><trkpt lat="45.6426117" lon="9.14234"><ele>210.0</ele><time>2026-04-25T05:35:16.229Z</time></trkpt><trkpt lat="45.642615" lon="9.1424883"><ele>210.0</ele><time>2026-04-25T05:35:17.229Z</time></trkpt><trkpt lat="45.6426117" lon="9.142625"><ele>210.0</ele><time>2026-04-25T05:35:18.231Z</time></trkpt><trkpt lat="45.6426083" lon="9.1427567"><ele>210.0</ele><time>2026-04-25T05:35:19.229Z</time></trkpt><trkpt lat="45.6426067" lon="9.142895"><ele>210.0</ele><time>2026-04-25T05:35:20.229Z</time></trkpt><trkpt lat="45.6425983" lon="9.1430483"><ele>210.0</ele><time>2026-04-25T05:35:21.23Z</time></trkpt><trkpt lat="45.64258" lon="9.1432117"><ele>210.0</ele><time>2026-04-25T05:35:22.229Z</time></trkpt><trkpt lat="45.642555" lon="9.1433733"><ele>210.0</ele><time>2026-04-25T05:35:23.23Z</time></trkpt><trkpt lat="45.6425283" lon="9.1435317"><ele>210.0</ele><time>2026-04-25T05:35:24.23Z</time></trkpt><trkpt lat="45.6425033" lon="9.1436767"><ele>210.0</ele><time>2026-04-25T05:35:25.23Z</time></trkpt><trkpt lat="45.6424767" lon="9.1438167"><ele>210.0</ele><time>2026-04-25T05:35:26.23Z</time></trkpt><trkpt lat="45.6424533" lon="9.14395"><ele>210.0</ele><time>2026-04-25T05:35:27.229Z</time></trkpt><trkpt lat="45.64243" lon="9.1440783"><ele>210.0</ele><time>2026-04-25T05:35:28.229Z</time></trkpt><trkpt lat="45.6424083" lon="9.1441983"><ele>210.0</ele><time>2026-04-25T05:35:29.23Z</time></trkpt><trkpt lat="45.642385" lon="9.1443117"><ele>210.16666666666666</ele><time>2026-04-25T05:35:30.229Z</time></trkpt><trkpt lat="45.6423667" lon="9.1444217"><ele>210.33333333333331</ele><time>2026-04-25T05:35:31.23Z</time></trkpt><trkpt lat="45.642345" lon="9.1445233"><ele>210.5</ele><time>2026-04-25T05:35:32.229Z</time></trkpt><trkpt lat="45.6423283" lon="9.1446267"><ele>210.66666666666666</ele><time>2026-04-25T05:35:33.23Z</time></trkpt><trkpt lat="45.64231" lon="9.1447367"><ele>210.83333333333331</ele><time>2026-04-25T05:35:34.23Z</time></trkpt><trkpt lat="45.64229" lon="9.1448617"><ele>211.0</ele><time>2026-04-25T05:35:35.228Z</time></trkpt><trkpt lat="45.6422667" lon="9.145005"><ele>210.25</ele><time>2026-04-25T05:35:36.228Z</time></trkpt><trkpt lat="45.6422383" lon="9.1451633"><ele>209.5</ele><time>2026-04-25T05:35:37.23Z</time></trkpt><trkpt lat="45.64221" lon="9.145335"><ele>208.75</ele><time>2026-04-25T05:35:38.23Z</time></trkpt><trkpt lat="45.642175" lon="9.1455133"><ele>208.0</ele><time>2026-04-25T05:35:39.229Z</time></trkpt><trkpt lat="45.64214" lon="9.1457"><ele>208.0</ele><time>2026-04-25T05:35:40.229Z</time></trkpt><trkpt lat="45.6421183" lon="9.145885"><ele>208.0</ele><time>2026-04-25T05:35:41.23Z</time></trkpt><trkpt lat="45.6421017" lon="9.1460667"><ele>208.0</ele><time>2026-04-25T05:35:42.23Z</time></trkpt><trkpt lat="45.6420683" lon="9.14623"><ele>208.0</ele><time>2026-04-25T05:35:43.229Z</time></trkpt><trkpt lat="45.6420317" lon="9.1463733"><ele>208.0</ele><time>2026-04-25T05:35:44.229Z</time></trkpt><trkpt lat="45.6420017" lon="9.1465033"><ele>208.0</ele><time>2026-04-25T05:35:45.23Z</time></trkpt><trkpt lat="45.6419717" lon="9.1466283"><ele>208.0</ele><time>2026-04-25T05:35:46.23Z</time></trkpt><trkpt lat="45.6419333" lon="9.146765"><ele>208.0</ele><time>2026-04-25T05:35:47.23Z</time></trkpt><trkpt lat="45.641895" lon="9.1469"><ele>208.0</ele><time>2026-04-25T05:35:48.23Z</time></trkpt><trkpt lat="45.64186" lon="9.147025"><ele>208.0</ele><time>2026-04-25T05:35:49.229Z</time></trkpt><trkpt lat="45.6418333" lon="9.14714"><ele>208.0</ele><time>2026-04-25T05:35:50.23Z</time></trkpt><trkpt lat="45.64181" lon="9.147255"><ele>208.0</ele><time>2026-04-25T05:35:51.23Z</time></trkpt><trkpt lat="45.64179" lon="9.1473817"><ele>208.0</ele><time>2026-04-25T05:35:52.228Z</time></trkpt><trkpt lat="45.641765" lon="9.147525"><ele>208.0</ele><time>2026-04-25T05:35:53.23Z</time></trkpt><trkpt lat="45.6417383" lon="9.147685"><ele>208.25</ele><time>2026-04-25T05:35:54.229Z</time></trkpt><trkpt lat="45.6417117" lon="9.1478567"><ele>208.5</ele><time>2026-04-25T05:35:55.23Z</time></trkpt><trkpt lat="45.6416783" lon="9.1480433"><ele>208.75</ele><time>2026-04-25T05:35:56.227Z</time></trkpt><trkpt lat="45.6416417" lon="9.1482417"><ele>209.0</ele><time>2026-04-25T05:35:57.227Z</time></trkpt><trkpt lat="45.6416" lon="9.14845"><ele>209.25</ele><time>2026-04-25T05:35:58.227Z</time></trkpt><trkpt lat="45.6415533" lon="9.1486617"><ele>209.5</ele><time>2026-04-25T05:35:59.227Z</time></trkpt><trkpt lat="45.6415133" lon="9.14886"><ele>209.75</ele><time>2026-04-25T05:36:00.228Z</time></trkpt><trkpt lat="45.6414783" lon="9.1490417"><ele>210.0</ele><time>2026-04-25T05:36:01.227Z</time></trkpt><trkpt lat="45.6414417" lon="9.149215"><ele>209.6</ele><time>2026-04-25T05:36:02.228Z</time></trkpt><trkpt lat="45.6414117" lon="9.14937"><ele>209.2</ele><time>2026-04-25T05:36:03.227Z</time></trkpt><trkpt lat="45.6413867" lon="9.1495083"><ele>208.8</ele><time>2026-04-25T05:36:04.232Z</time></trkpt><trkpt lat="45.6413617" lon="9.1496317"><ele>208.4</ele><time>2026-04-25T05:36:05.228Z</time></trkpt><trkpt lat="45.6413367" lon="9.1497433"><ele>208.0</ele><time>2026-04-25T05:36:06.227Z</time></trkpt><trkpt lat="45.6413133" lon="9.1498467"><ele>208.0</ele><time>2026-04-25T05:36:07.228Z</time></trkpt><trkpt lat="45.6412917" lon="9.1499433"><ele>208.0</ele><time>2026-04-25T05:36:08.227Z</time></trkpt><trkpt lat="45.64127" lon="9.150035"><ele>208.0</ele><time>2026-04-25T05:36:09.227Z</time></trkpt><trkpt lat="45.6412233" lon="9.1502"><ele>208.0</ele><time>2026-04-25T05:36:11.227Z</time></trkpt><trkpt lat="45.6411717" lon="9.1503517"><ele>208.0</ele><time>2026-04-25T05:36:13.227Z</time></trkpt><trkpt lat="45.6411167" lon="9.15048"><ele>207.99999999999997</ele><time>2026-04-25T05:36:15.228Z</time></trkpt><trkpt lat="45.6411017" lon="9.1505783"><ele>208.0</ele><time>2026-04-25T05:36:16.227Z</time></trkpt><trkpt lat="45.641095" lon="9.1506967"><ele>208.0</ele><time>2026-04-25T05:36:17.228Z</time></trkpt><trkpt lat="45.6410917" lon="9.150815"><ele>208.0</ele><time>2026-04-25T05:36:18.227Z</time></trkpt><trkpt lat="45.641085" lon="9.1509267"><ele>207.99999999999997</ele><time>2026-04-25T05:36:19.227Z</time></trkpt><trkpt lat="45.641065" lon="9.1510767"><ele>208.0</ele><time>2026-04-25T05:36:21.229Z</time></trkpt><trkpt lat="45.6410467" lon="9.151215"><ele>208.16666666666666</ele><time>2026-04-25T05:36:23.228Z</time></trkpt><trkpt lat="45.641025" lon="9.1513"><ele>208.33333333333331</ele><time>2026-04-25T05:36:24.228Z</time></trkpt><trkpt lat="45.641" lon="9.1514033"><ele>208.5</ele><time>2026-04-25T05:36:25.227Z</time></trkpt><trkpt lat="45.640975" lon="9.151515"><ele>208.66666666666669</ele><time>2026-04-25T05:36:26.228Z</time></trkpt><trkpt lat="45.6409483" lon="9.1516317"><ele>208.83333333333334</ele><time>2026-04-25T05:36:27.233Z</time></trkpt><trkpt lat="45.6409233" lon="9.1517417"><ele>209.0</ele><time>2026-04-25T05:36:28.229Z</time></trkpt><trkpt lat="45.6409" lon="9.15185"><ele>208.6</ele><time>2026-04-25T05:36:29.229Z</time></trkpt><trkpt lat="45.640875" lon="9.1519667"><ele>208.2</ele><time>2026-04-25T05:36:30.229Z</time></trkpt><trkpt lat="45.6408467" lon="9.152095"><ele>207.79999999999998</ele><time>2026-04-25T05:36:31.229Z</time></trkpt><trkpt lat="45.6408167" lon="9.1522367"><ele>207.39999999999998</ele><time>2026-04-25T05:36:32.229Z</time></trkpt><trkpt lat="45.640785" lon="9.152385"><ele>207.0</ele><time>2026-04-25T05:36:33.229Z</time></trkpt><trkpt lat="45.6407567" lon="9.152525"><ele>207.0</ele><time>2026-04-25T05:36:34.229Z</time></trkpt><trkpt lat="45.6407317" lon="9.1526583"><ele>207.0</ele><time>2026-04-25T05:36:35.229Z</time></trkpt><trkpt lat="45.6406983" lon="9.1527917"><ele>207.0</ele><time>2026-04-25T05:36:36.229Z</time></trkpt><trkpt lat="45.64067" lon="9.1529267"><ele>207.0</ele><time>2026-04-25T05:36:37.227Z</time></trkpt><trkpt lat="45.6406417" lon="9.15306"><ele>207.0</ele><time>2026-04-25T05:36:38.227Z</time></trkpt><trkpt lat="45.640615" lon="9.153195"><ele>207.6</ele><time>2026-04-25T05:36:39.228Z</time></trkpt><trkpt lat="45.64059" lon="9.1533283"><ele>208.2</ele><time>2026-04-25T05:36:40.228Z</time></trkpt><trkpt lat="45.6405583" lon="9.15347"><ele>208.8</ele><time>2026-04-25T05:36:41.227Z</time></trkpt><trkpt lat="45.6405283" lon="9.1536233"><ele>209.4</ele><time>2026-04-25T05:36:42.231Z</time></trkpt><trkpt lat="45.6404917" lon="9.1537933"><ele>210.0</ele><time>2026-04-25T05:36:43.229Z</time></trkpt><trkpt lat="45.64045" lon="9.1539633"><ele>210.0</ele><time>2026-04-25T05:36:44.228Z</time></trkpt><trkpt lat="45.6404167" lon="9.1541333"><ele>210.0</ele><time>2026-04-25T05:36:45.229Z</time></trkpt><trkpt lat="45.6403833" lon="9.15431"><ele>210.0</ele><time>2026-04-25T05:36:46.229Z</time></trkpt><trkpt lat="45.6403433" lon="9.1544983"><ele>210.0</ele><time>2026-04-25T05:36:47.23Z</time></trkpt><trkpt lat="45.6402983" lon="9.1546917"><ele>209.75</ele><time>2026-04-25T05:36:48.229Z</time></trkpt><trkpt lat="45.640255" lon="9.15489"><ele>209.5</ele><time>2026-04-25T05:36:49.229Z</time></trkpt><trkpt lat="45.6402117" lon="9.1550883"><ele>209.25</ele><time>2026-04-25T05:36:50.229Z</time></trkpt><trkpt lat="45.6401667" lon="9.1552817"><ele>209.0</ele><time>2026-04-25T05:36:51.231Z</time></trkpt><trkpt lat="45.6401217" lon="9.1554733"><ele>209.0</ele><time>2026-04-25T05:36:52.229Z</time></trkpt><trkpt lat="45.64008" lon="9.1556567"><ele>209.0</ele><time>2026-04-25T05:36:53.228Z</time></trkpt><trkpt lat="45.64004" lon="9.155825"><ele>209.0</ele><time>2026-04-25T05:36:54.229Z</time></trkpt><trkpt lat="45.6400017" lon="9.1559833"><ele>209.0</ele><time>2026-04-25T05:36:55.229Z</time></trkpt><trkpt lat="45.6399667" lon="9.1561217"><ele>209.16666666666669</ele><time>2026-04-25T05:36:56.229Z</time></trkpt><trkpt lat="45.639935" lon="9.156245"><ele>209.33333333333334</ele><time>2026-04-25T05:36:57.227Z</time></trkpt><trkpt lat="45.6399067" lon="9.156355"><ele>209.5</ele><time>2026-04-25T05:36:58.227Z</time></trkpt><trkpt lat="45.639875" lon="9.156455"><ele>209.66666666666669</ele><time>2026-04-25T05:36:59.228Z</time></trkpt><trkpt lat="45.639845" lon="9.1565583"><ele>209.83333333333334</ele><time>2026-04-25T05:37:00.229Z</time></trkpt><trkpt lat="45.6398133" lon="9.1566833"><ele>210.0</ele><time>2026-04-25T05:37:01.227Z</time></trkpt><trkpt lat="45.6397833" lon="9.156825"><ele>210.0</ele><time>2026-04-25T05:37:02.227Z</time></trkpt><trkpt lat="45.6397483" lon="9.156975"><ele>210.0</ele><time>2026-04-25T05:37:03.227Z</time></trkpt><trkpt lat="45.6397183" lon="9.157125"><ele>210.0</ele><time>2026-04-25T05:37:04.227Z</time></trkpt><trkpt lat="45.639685" lon="9.1572617"><ele>210.0</ele><time>2026-04-25T05:37:05.227Z</time></trkpt><trkpt lat="45.6396533" lon="9.1573867"><ele>210.0</ele><time>2026-04-25T05:37:06.227Z</time></trkpt><trkpt lat="45.6396283" lon="9.1574933"><ele>210.2</ele><time>2026-04-25T05:37:07.227Z</time></trkpt><trkpt lat="45.63961" lon="9.15758"><ele>210.4</ele><time>2026-04-25T05:37:08.228Z</time></trkpt><trkpt lat="45.6395683" lon="9.1577583"><ele>210.60000000000002</ele><time>2026-04-25T05:37:10.228Z</time></trkpt><trkpt lat="45.639545" lon="9.1578633"><ele>210.8</ele><time>2026-04-25T05:37:11.227Z</time></trkpt><trkpt lat="45.639515" lon="9.1579783"><ele>211.0</ele><time>2026-04-25T05:37:12.229Z</time></trkpt><trkpt lat="45.6394717" lon="9.158135"><ele>210.66666666666666</ele><time>2026-04-25T05:37:13.227Z</time></trkpt><trkpt lat="45.6394267" lon="9.1583"><ele>210.33333333333331</ele><time>2026-04-25T05:37:14.228Z</time></trkpt><trkpt lat="45.6393883" lon="9.1585067"><ele>210.0</ele><time>2026-04-25T05:37:15.227Z</time></trkpt><trkpt lat="45.63933" lon="9.1587483"><ele>210.0</ele><time>2026-04-25T05:37:16.228Z</time></trkpt><trkpt lat="45.63929" lon="9.1590033"><ele>210.0</ele><time>2026-04-25T05:37:17.227Z</time></trkpt><trkpt lat="45.6392467" lon="9.1592383"><ele>210.0</ele><time>2026-04-25T05:37:18.229Z</time></trkpt><trkpt lat="45.6392033" lon="9.1594517"><ele>210.0</ele><time>2026-04-25T05:37:19.227Z</time></trkpt><trkpt lat="45.6391533" lon="9.159655"><ele>210.0</ele><time>2026-04-25T05:37:20.227Z</time></trkpt><trkpt lat="45.6390967" lon="9.159855"><ele>210.0</ele><time>2026-04-25T05:37:21.228Z</time></trkpt><trkpt lat="45.6390483" lon="9.1600517"><ele>210.0</ele><time>2026-04-25T05:37:22.229Z</time></trkpt><trkpt lat="45.63899" lon="9.1602617"><ele>210.33333333333331</ele><time>2026-04-25T05:37:23.23Z</time></trkpt><trkpt lat="45.6389383" lon="9.1604833"><ele>210.66666666666666</ele><time>2026-04-25T05:37:24.23Z</time></trkpt><trkpt lat="45.6388917" lon="9.1607067"><ele>211.0</ele><time>2026-04-25T05:37:25.227Z</time></trkpt><trkpt lat="45.6388383" lon="9.16093"><ele>211.33333333333331</ele><time>2026-04-25T05:37:26.227Z</time></trkpt><trkpt lat="45.6387883" lon="9.161145"><ele>211.66666666666669</ele><time>2026-04-25T05:37:27.227Z</time></trkpt><trkpt lat="45.6387417" lon="9.1613533"><ele>212.0</ele><time>2026-04-25T05:37:28.228Z</time></trkpt><trkpt lat="45.638695" lon="9.1615517"><ele>212.0</ele><time>2026-04-25T05:37:29.229Z</time></trkpt><trkpt lat="45.63865" lon="9.1617433"><ele>212.0</ele><time>2026-04-25T05:37:30.228Z</time></trkpt><trkpt lat="45.63861" lon="9.16192"><ele>212.0</ele><time>2026-04-25T05:37:31.228Z</time></trkpt><trkpt lat="45.6385767" lon="9.1620717"><ele>212.0</ele><time>2026-04-25T05:37:32.228Z</time></trkpt><trkpt lat="45.63855" lon="9.16221"><ele>211.83333333333334</ele><time>2026-04-25T05:37:33.231Z</time></trkpt><trkpt lat="45.63852" lon="9.1623483"><ele>211.66666666666669</ele><time>2026-04-25T05:37:34.228Z</time></trkpt><trkpt lat="45.6385" lon="9.1624717"><ele>211.5</ele><time>2026-04-25T05:37:35.228Z</time></trkpt><trkpt lat="45.6384783" lon="9.1625733"><ele>211.33333333333331</ele><time>2026-04-25T05:37:36.227Z</time></trkpt><trkpt lat="45.6384583" lon="9.1626767"><ele>211.16666666666666</ele><time>2026-04-25T05:37:37.228Z</time></trkpt><trkpt lat="45.6384283" lon="9.162805"><ele>211.0</ele><time>2026-04-25T05:37:38.229Z</time></trkpt><trkpt lat="45.6383917" lon="9.1629617"><ele>211.0</ele><time>2026-04-25T05:37:39.228Z</time></trkpt><trkpt lat="45.638345" lon="9.16314"><ele>211.0</ele><time>2026-04-25T05:37:40.227Z</time></trkpt><trkpt lat="45.6383017" lon="9.1633317"><ele>211.0</ele><time>2026-04-25T05:37:41.229Z</time></trkpt><trkpt lat="45.6382567" lon="9.163525"><ele>211.0</ele><time>2026-04-25T05:37:42.229Z</time></trkpt><trkpt lat="45.6382067" lon="9.16373"><ele>210.66666666666666</ele><time>2026-04-25T05:37:43.229Z</time></trkpt><trkpt lat="45.6381617" lon="9.1639683"><ele>210.33333333333331</ele><time>2026-04-25T05:37:44.227Z</time></trkpt><trkpt lat="45.6381067" lon="9.1642067"><ele>210.0</ele><time>2026-04-25T05:37:45.227Z</time></trkpt><trkpt lat="45.638085" lon="9.1644283"><ele>210.5</ele><time>2026-04-25T05:37:46.227Z</time></trkpt><trkpt lat="45.6380717" lon="9.1646367"><ele>211.0</ele><time>2026-04-25T05:37:47.228Z</time></trkpt><trkpt lat="45.63807" lon="9.1648367"><ele>211.5</ele><time>2026-04-25T05:37:48.227Z</time></trkpt><trkpt lat="45.6380717" lon="9.1650283"><ele>212.0</ele><time>2026-04-25T05:37:49.227Z</time></trkpt><trkpt lat="45.63808" lon="9.165225"><ele>212.0</ele><time>2026-04-25T05:37:50.228Z</time></trkpt><trkpt lat="45.6380917" lon="9.1654233"><ele>212.0</ele><time>2026-04-25T05:37:51.229Z</time></trkpt><trkpt lat="45.6381017" lon="9.16562"><ele>212.0</ele><time>2026-04-25T05:37:52.227Z</time></trkpt><trkpt lat="45.63811" lon="9.1658033"><ele>212.0</ele><time>2026-04-25T05:37:53.227Z</time></trkpt><trkpt lat="45.63812" lon="9.1659733"><ele>211.75</ele><time>2026-04-25T05:37:54.227Z</time></trkpt><trkpt lat="45.6381267" lon="9.1661433"><ele>211.5</ele><time>2026-04-25T05:37:55.229Z</time></trkpt><trkpt lat="45.638135" lon="9.1663183"><ele>211.25</ele><time>2026-04-25T05:37:56.227Z</time></trkpt><trkpt lat="45.6381417" lon="9.1664967"><ele>211.0</ele><time>2026-04-25T05:37:57.228Z</time></trkpt><trkpt lat="45.63815" lon="9.166675"><ele>211.0</ele><time>2026-04-25T05:37:58.229Z</time></trkpt><trkpt lat="45.638155" lon="9.1668583"><ele>211.0</ele><time>2026-04-25T05:37:59.227Z</time></trkpt><trkpt lat="45.6381617" lon="9.1670417"><ele>211.0</ele><time>2026-04-25T05:38:00.227Z</time></trkpt><trkpt lat="45.63817" lon="9.1672267"><ele>211.0</ele><time>2026-04-25T05:38:01.229Z</time></trkpt><trkpt lat="45.638175" lon="9.1674083"><ele>211.33333333333331</ele><time>2026-04-25T05:38:02.33Z</time></trkpt><trkpt lat="45.6381867" lon="9.1677633"><ele>211.66666666666669</ele><time>2026-04-25T05:38:04.228Z</time></trkpt><trkpt lat="45.6381917" lon="9.1679383"><ele>212.0</ele><time>2026-04-25T05:38:05.227Z</time></trkpt><trkpt lat="45.6381983" lon="9.1681117"><ele>211.75</ele><time>2026-04-25T05:38:06.228Z</time></trkpt><trkpt lat="45.638205" lon="9.1682783"><ele>211.5</ele><time>2026-04-25T05:38:07.227Z</time></trkpt><trkpt lat="45.6382133" lon="9.1684433"><ele>211.25</ele><time>2026-04-25T05:38:08.229Z</time></trkpt><trkpt lat="45.6382167" lon="9.168605"><ele>211.0</ele><time>2026-04-25T05:38:09.229Z</time></trkpt><trkpt lat="45.6382217" lon="9.1687633"><ele>211.0</ele><time>2026-04-25T05:38:10.228Z</time></trkpt><trkpt lat="45.638225" lon="9.16892"><ele>211.0</ele><time>2026-04-25T05:38:11.23Z</time></trkpt><trkpt lat="45.6382317" lon="9.1690767"><ele>211.0</ele><time>2026-04-25T05:38:12.227Z</time></trkpt><trkpt lat="45.6382383" lon="9.1692333"><ele>211.0</ele><time>2026-04-25T05:38:13.229Z</time></trkpt><trkpt lat="45.638245" lon="9.1693967"><ele>211.0</ele><time>2026-04-25T05:38:14.227Z</time></trkpt><trkpt lat="45.6382517" lon="9.16956"><ele>211.0</ele><time>2026-04-25T05:38:15.227Z</time></trkpt><trkpt lat="45.6382567" lon="9.16973"><ele>211.0</ele><time>2026-04-25T05:38:16.227Z</time></trkpt><trkpt lat="45.6382633" lon="9.1698917"><ele>211.0</ele><time>2026-04-25T05:38:17.228Z</time></trkpt><trkpt lat="45.6382667" lon="9.17005"><ele>211.0</ele><time>2026-04-25T05:38:18.227Z</time></trkpt><trkpt lat="45.63827" lon="9.1701983"><ele>211.0</ele><time>2026-04-25T05:38:19.227Z</time></trkpt><trkpt lat="45.6382717" lon="9.170345"><ele>211.20000000000002</ele><time>2026-04-25T05:38:20.227Z</time></trkpt><trkpt lat="45.6382767" lon="9.170495"><ele>211.4</ele><time>2026-04-25T05:38:21.228Z</time></trkpt><trkpt lat="45.6382833" lon="9.170645"><ele>211.6</ele><time>2026-04-25T05:38:22.227Z</time></trkpt><trkpt lat="45.6382883" lon="9.170795"><ele>211.8</ele><time>2026-04-25T05:38:23.228Z</time></trkpt><trkpt lat="45.6382933" lon="9.170935"><ele>212.0</ele><time>2026-04-25T05:38:24.228Z</time></trkpt><trkpt lat="45.6382967" lon="9.1710617"><ele>212.0</ele><time>2026-04-25T05:38:25.227Z</time></trkpt><trkpt lat="45.6382983" lon="9.1711683"><ele>212.0</ele><time>2026-04-25T05:38:26.228Z</time></trkpt><trkpt lat="45.6383" lon="9.1713333"><ele>212.0</ele><time>2026-04-25T05:38:28.227Z</time></trkpt><trkpt lat="45.6383033" lon="9.1714233"><ele>212.0</ele><time>2026-04-25T05:38:30.228Z</time></trkpt><trkpt lat="45.6383217" lon="9.17164"><ele>212.0</ele><time>2026-04-25T05:39:15.227Z</time></trkpt><trkpt lat="45.63833" lon="9.171765"><ele>212.0</ele><time>2026-04-25T05:39:16.228Z</time></trkpt><trkpt lat="45.63834" lon="9.1719167"><ele>212.0</ele><time>2026-04-25T05:39:17.227Z</time></trkpt><trkpt lat="45.6383467" lon="9.1720833"><ele>212.0</ele><time>2026-04-25T05:39:18.228Z</time></trkpt><trkpt lat="45.638355" lon="9.1722583"><ele>212.0</ele><time>2026-04-25T05:39:19.227Z</time></trkpt><trkpt lat="45.638365" lon="9.1724333"><ele>211.75</ele><time>2026-04-25T05:39:20.227Z</time></trkpt><trkpt lat="45.6383767" lon="9.172605"><ele>211.5</ele><time>2026-04-25T05:39:21.228Z</time></trkpt><trkpt lat="45.6383817" lon="9.1727683"><ele>211.25</ele><time>2026-04-25T05:39:22.228Z</time></trkpt><trkpt lat="45.6383883" lon="9.1729367"><ele>211.0</ele><time>2026-04-25T05:39:23.227Z</time></trkpt><trkpt lat="45.6384017" lon="9.1731283"><ele>211.0</ele><time>2026-04-25T05:39:24.228Z</time></trkpt><trkpt lat="45.638415" lon="9.173355"><ele>211.0</ele><time>2026-04-25T05:39:25.229Z</time></trkpt><trkpt lat="45.6384217" lon="9.1736067"><ele>211.0</ele><time>2026-04-25T05:39:26.229Z</time></trkpt><trkpt lat="45.638425" lon="9.1738617"><ele>211.0</ele><time>2026-04-25T05:39:27.23Z</time></trkpt><trkpt lat="45.6384267" lon="9.1741017"><ele>211.0</ele><time>2026-04-25T05:39:28.228Z</time></trkpt><trkpt lat="45.6384283" lon="9.1743267"><ele>211.0</ele><time>2026-04-25T05:39:29.229Z</time></trkpt><trkpt lat="45.6384267" lon="9.17454"><ele>211.0</ele><time>2026-04-25T05:39:30.228Z</time></trkpt><trkpt lat="45.63843" lon="9.1747333"><ele>211.0</ele><time>2026-04-25T05:39:31.228Z</time></trkpt><trkpt lat="45.6384317" lon="9.1749217"><ele>211.0</ele><time>2026-04-25T05:39:32.228Z</time></trkpt><trkpt lat="45.6384367" lon="9.17512"><ele>211.0</ele><time>2026-04-25T05:39:33.227Z</time></trkpt><trkpt lat="45.6384433" lon="9.1753283"><ele>211.0</ele><time>2026-04-25T05:39:34.227Z</time></trkpt><trkpt lat="45.6384533" lon="9.17554"><ele>211.0</ele><time>2026-04-25T05:39:35.227Z</time></trkpt><trkpt lat="45.6384617" lon="9.1757533"><ele>211.0</ele><time>2026-04-25T05:39:36.231Z</time></trkpt><trkpt lat="45.6384683" lon="9.17596"><ele>211.0</ele><time>2026-04-25T05:39:37.227Z</time></trkpt><trkpt lat="45.6384733" lon="9.1761533"><ele>211.0</ele><time>2026-04-25T05:39:38.227Z</time></trkpt><trkpt lat="45.6384883" lon="9.1763333"><ele>211.0</ele><time>2026-04-25T05:39:39.228Z</time></trkpt><trkpt lat="45.638515" lon="9.1765033"><ele>211.0</ele><time>2026-04-25T05:39:40.228Z</time></trkpt><trkpt lat="45.6385633" lon="9.1766583"><ele>211.0</ele><time>2026-04-25T05:39:41.227Z</time></trkpt><trkpt lat="45.6386433" lon="9.176795"><ele>211.5</ele><time>2026-04-25T05:39:42.23Z</time></trkpt><trkpt lat="45.6387367" lon="9.17689"><ele>212.0</ele><time>2026-04-25T05:39:43.23Z</time></trkpt><trkpt lat="45.6388417" lon="9.176945"><ele>212.5</ele><time>2026-04-25T05:39:44.227Z</time></trkpt><trkpt lat="45.6389567" lon="9.17698"><ele>213.0</ele><time>2026-04-25T05:39:45.228Z</time></trkpt><trkpt lat="45.6390717" lon="9.1770183"><ele>213.0</ele><time>2026-04-25T05:39:46.229Z</time></trkpt><trkpt lat="45.6391783" lon="9.1770733"><ele>213.0</ele><time>2026-04-25T05:39:47.228Z</time></trkpt><trkpt lat="45.639275" lon="9.1771567"><ele>213.0</ele><time>2026-04-25T05:39:48.229Z</time></trkpt><trkpt lat="45.6393517" lon="9.1772583"><ele>213.0</ele><time>2026-04-25T05:39:49.227Z</time></trkpt><trkpt lat="45.6394033" lon="9.17738"><ele>213.0</ele><time>2026-04-25T05:39:50.228Z</time></trkpt><trkpt lat="45.63944" lon="9.17752"><ele>213.0</ele><time>2026-04-25T05:39:51.229Z</time></trkpt><trkpt lat="45.6394617" lon="9.1776767"><ele>213.0</ele><time>2026-04-25T05:39:52.23Z</time></trkpt><trkpt lat="45.639475" lon="9.1778433"><ele>213.0</ele><time>2026-04-25T05:39:53.227Z</time></trkpt><trkpt lat="45.6394917" lon="9.178025"><ele>213.0</ele><time>2026-04-25T05:39:54.228Z</time></trkpt><trkpt lat="45.63951" lon="9.1781967"><ele>213.16666666666666</ele><time>2026-04-25T05:39:55.227Z</time></trkpt><trkpt lat="45.639525" lon="9.1783467"><ele>213.33333333333331</ele><time>2026-04-25T05:39:56.228Z</time></trkpt><trkpt lat="45.6395333" lon="9.1784867"><ele>213.5</ele><time>2026-04-25T05:39:57.229Z</time></trkpt><trkpt lat="45.6395317" lon="9.178605"><ele>213.66666666666666</ele><time>2026-04-25T05:39:58.227Z</time></trkpt><trkpt lat="45.63951" lon="9.1787083"><ele>213.83333333333331</ele><time>2026-04-25T05:39:59.227Z</time></trkpt><trkpt lat="45.63947" lon="9.1788"><ele>214.0</ele><time>2026-04-25T05:40:00.229Z</time></trkpt><trkpt lat="45.63941" lon="9.1788933"><ele>213.99999999999997</ele><time>2026-04-25T05:40:01.227Z</time></trkpt><trkpt lat="45.639355" lon="9.1789783"><ele>214.0</ele><time>2026-04-25T05:40:02.227Z</time></trkpt><trkpt lat="45.6393" lon="9.179075"><ele>214.0</ele><time>2026-04-25T05:40:03.228Z</time></trkpt><trkpt lat="45.6392567" lon="9.1791767"><ele>214.0</ele><time>2026-04-25T05:40:04.227Z</time></trkpt><trkpt lat="45.6392433" lon="9.1792783"><ele>213.99999999999997</ele><time>2026-04-25T05:40:05.231Z</time></trkpt><trkpt lat="45.6392917" lon="9.17939"><ele>214.0</ele><time>2026-04-25T05:40:06.228Z</time></trkpt><trkpt lat="45.6393567" lon="9.1795083"><ele>214.0</ele><time>2026-04-25T05:40:07.228Z</time></trkpt><trkpt lat="45.6394333" lon="9.179645"><ele>214.0</ele><time>2026-04-25T05:40:08.233Z</time></trkpt><trkpt lat="45.639505" lon="9.1797983"><ele>214.0</ele><time>2026-04-25T05:40:09.229Z</time></trkpt><trkpt lat="45.63956" lon="9.1799667"><ele>214.0</ele><time>2026-04-25T05:40:10.227Z</time></trkpt><trkpt lat="45.6396017" lon="9.1801417"><ele>213.75</ele><time>2026-04-25T05:40:11.227Z</time></trkpt><trkpt lat="45.6396333" lon="9.1803267"><ele>213.5</ele><time>2026-04-25T05:40:12.228Z</time></trkpt><trkpt lat="45.6396483" lon="9.1805033"><ele>213.25</ele><time>2026-04-25T05:40:13.229Z</time></trkpt><trkpt lat="45.639665" lon="9.180685"><ele>213.0</ele><time>2026-04-25T05:40:14.228Z</time></trkpt><trkpt lat="45.6396817" lon="9.1808717"><ele>213.0</ele><time>2026-04-25T05:40:15.23Z</time></trkpt><trkpt lat="45.639695" lon="9.1810583"><ele>213.0</ele><time>2026-04-25T05:40:16.227Z</time></trkpt><trkpt lat="45.6397117" lon="9.18125"><ele>213.0</ele><time>2026-04-25T05:40:17.23Z</time></trkpt><trkpt lat="45.6397267" lon="9.18145"><ele>213.0</ele><time>2026-04-25T05:40:18.229Z</time></trkpt><trkpt lat="45.6397433" lon="9.18165"><ele>213.0</ele><time>2026-04-25T05:40:19.228Z</time></trkpt><trkpt lat="45.63976" lon="9.1818517"><ele>213.0</ele><time>2026-04-25T05:40:20.23Z</time></trkpt><trkpt lat="45.6397767" lon="9.182045"><ele>213.0</ele><time>2026-04-25T05:40:21.228Z</time></trkpt><trkpt lat="45.6397917" lon="9.182225"><ele>213.0</ele><time>2026-04-25T05:40:22.228Z</time></trkpt><trkpt lat="45.6398017" lon="9.1823817"><ele>212.8</ele><time>2026-04-25T05:40:23.227Z</time></trkpt><trkpt lat="45.6398133" lon="9.1825233"><ele>212.60000000000002</ele><time>2026-04-25T05:40:24.229Z</time></trkpt><trkpt lat="45.6398267" lon="9.182655"><ele>212.39999999999998</ele><time>2026-04-25T05:40:25.227Z</time></trkpt><trkpt lat="45.6398383" lon="9.1827783"><ele>212.2</ele><time>2026-04-25T05:40:26.229Z</time></trkpt><trkpt lat="45.63985" lon="9.1829"><ele>212.0</ele><time>2026-04-25T05:40:27.227Z</time></trkpt><trkpt lat="45.639865" lon="9.1830383"><ele>212.25</ele><time>2026-04-25T05:40:28.229Z</time></trkpt><trkpt lat="45.6398817" lon="9.1831983"><ele>212.5</ele><time>2026-04-25T05:40:29.227Z</time></trkpt><trkpt lat="45.6398967" lon="9.1833817"><ele>212.75</ele><time>2026-04-25T05:40:30.229Z</time></trkpt><trkpt lat="45.63991" lon="9.1835767"><ele>213.0</ele><time>2026-04-25T05:40:31.228Z</time></trkpt><trkpt lat="45.6399183" lon="9.1837833"><ele>213.0</ele><time>2026-04-25T05:40:32.227Z</time></trkpt><trkpt lat="45.63993" lon="9.1839867"><ele>213.0</ele><time>2026-04-25T05:40:33.228Z</time></trkpt><trkpt lat="45.6399417" lon="9.1841867"><ele>213.0</ele><time>2026-04-25T05:40:34.227Z</time></trkpt><trkpt lat="45.6399533" lon="9.1843867"><ele>213.0</ele><time>2026-04-25T05:40:35.228Z</time></trkpt><trkpt lat="45.639965" lon="9.184585"><ele>213.5</ele><time>2026-04-25T05:40:36.228Z</time></trkpt><trkpt lat="45.6399783" lon="9.184785"><ele>214.0</ele><time>2026-04-25T05:40:37.228Z</time></trkpt><trkpt lat="45.6399933" lon="9.18499"><ele>214.5</ele><time>2026-04-25T05:40:38.228Z</time></trkpt><trkpt lat="45.6400067" lon="9.1851983"><ele>215.0</ele><time>2026-04-25T05:40:39.229Z</time></trkpt><trkpt lat="45.6400233" lon="9.1854117"><ele>215.0</ele><time>2026-04-25T05:40:40.229Z</time></trkpt><trkpt lat="45.6400417" lon="9.1856267"><ele>215.0</ele><time>2026-04-25T05:40:41.228Z</time></trkpt><trkpt lat="45.6400583" lon="9.18584"><ele>215.0</ele><time>2026-04-25T05:40:42.229Z</time></trkpt><trkpt lat="45.640075" lon="9.18605"><ele>215.0</ele><time>2026-04-25T05:40:43.228Z</time></trkpt><trkpt lat="45.64009" lon="9.186255"><ele>215.0</ele><time>2026-04-25T05:40:44.228Z</time></trkpt><trkpt lat="45.6401033" lon="9.1864533"><ele>215.0</ele><time>2026-04-25T05:40:45.228Z</time></trkpt><trkpt lat="45.6401183" lon="9.1866383"><ele>215.0</ele><time>2026-04-25T05:40:46.227Z</time></trkpt><trkpt lat="45.640135" lon="9.18681"><ele>215.0</ele><time>2026-04-25T05:40:47.228Z</time></trkpt><trkpt lat="45.6401517" lon="9.1869633"><ele>215.00000000000003</ele><time>2026-04-25T05:40:48.227Z</time></trkpt><trkpt lat="45.6401667" lon="9.1870933"><ele>215.0</ele><time>2026-04-25T05:40:49.229Z</time></trkpt><trkpt lat="45.64018" lon="9.1872017"><ele>215.0</ele><time>2026-04-25T05:40:50.227Z</time></trkpt><trkpt lat="45.6401867" lon="9.1872933"><ele>215.0</ele><time>2026-04-25T05:40:51.228Z</time></trkpt><trkpt lat="45.6402017" lon="9.1874617"><ele>215.00000000000003</ele><time>2026-04-25T05:40:53.228Z</time></trkpt><trkpt lat="45.6402067" lon="9.1875567"><ele>215.0</ele><time>2026-04-25T05:40:54.228Z</time></trkpt><trkpt lat="45.6402117" lon="9.1876667"><ele>215.2</ele><time>2026-04-25T05:40:55.229Z</time></trkpt><trkpt lat="45.640215" lon="9.187795"><ele>215.4</ele><time>2026-04-25T05:40:56.229Z</time></trkpt><trkpt lat="45.6402167" lon="9.1879267"><ele>215.60000000000002</ele><time>2026-04-25T05:40:57.228Z</time></trkpt><trkpt lat="45.6402183" lon="9.18807"><ele>215.8</ele><time>2026-04-25T05:40:58.229Z</time></trkpt><trkpt lat="45.640225" lon="9.18822"><ele>216.0</ele><time>2026-04-25T05:40:59.229Z</time></trkpt><trkpt lat="45.640235" lon="9.1883767"><ele>215.5</ele><time>2026-04-25T05:41:00.229Z</time></trkpt><trkpt lat="45.6402483" lon="9.1885383"><ele>215.0</ele><time>2026-04-25T05:41:01.227Z</time></trkpt><trkpt lat="45.6402617" lon="9.1887"><ele>214.5</ele><time>2026-04-25T05:41:02.226Z</time></trkpt><trkpt lat="45.6402733" lon="9.1888667"><ele>214.0</ele><time>2026-04-25T05:41:03.228Z</time></trkpt><trkpt lat="45.640285" lon="9.1890383"><ele>214.0</ele><time>2026-04-25T05:41:04.228Z</time></trkpt><trkpt lat="45.6402983" lon="9.1892117"><ele>214.0</ele><time>2026-04-25T05:41:05.228Z</time></trkpt><trkpt lat="45.64031" lon="9.189385"><ele>214.0</ele><time>2026-04-25T05:41:06.23Z</time></trkpt><trkpt lat="45.6403217" lon="9.1895633"><ele>214.0</ele><time>2026-04-25T05:41:07.23Z</time></trkpt><trkpt lat="45.6403367" lon="9.1897483"><ele>213.75</ele><time>2026-04-25T05:41:08.23Z</time></trkpt><trkpt lat="45.6403517" lon="9.1899367"><ele>213.5</ele><time>2026-04-25T05:41:09.227Z</time></trkpt><trkpt lat="45.6403667" lon="9.19013"><ele>213.25</ele><time>2026-04-25T05:41:10.227Z</time></trkpt><trkpt lat="45.64038" lon="9.190325"><ele>213.0</ele><time>2026-04-25T05:41:11.227Z</time></trkpt><trkpt lat="45.6403933" lon="9.1905233"><ele>212.5</ele><time>2026-04-25T05:41:12.229Z</time></trkpt><trkpt lat="45.64041" lon="9.1907217"><ele>212.0</ele><time>2026-04-25T05:41:13.227Z</time></trkpt><trkpt lat="45.640425" lon="9.1909133"><ele>211.5</ele><time>2026-04-25T05:41:14.227Z</time></trkpt><trkpt lat="45.6404367" lon="9.1911033"><ele>211.0</ele><time>2026-04-25T05:41:15.229Z</time></trkpt><trkpt lat="45.6404483" lon="9.191295"><ele>211.0</ele><time>2026-04-25T05:41:16.228Z</time></trkpt><trkpt lat="45.64046" lon="9.1914933"><ele>211.0</ele><time>2026-04-25T05:41:17.229Z</time></trkpt><trkpt lat="45.640475" lon="9.1916933"><ele>211.0</ele><time>2026-04-25T05:41:18.232Z</time></trkpt><trkpt lat="45.64049" lon="9.191895"><ele>211.0</ele><time>2026-04-25T05:41:19.23Z</time></trkpt><trkpt lat="45.6405067" lon="9.1921"><ele>211.25</ele><time>2026-04-25T05:41:20.229Z</time></trkpt><trkpt lat="45.6405267" lon="9.1923033"><ele>211.5</ele><time>2026-04-25T05:41:21.229Z</time></trkpt><trkpt lat="45.640545" lon="9.1925067"><ele>211.75</ele><time>2026-04-25T05:41:22.228Z</time></trkpt><trkpt lat="45.6405683" lon="9.192705"><ele>212.0</ele><time>2026-04-25T05:41:23.229Z</time></trkpt><trkpt lat="45.64059" lon="9.1928917"><ele>212.39999999999998</ele><time>2026-04-25T05:41:24.23Z</time></trkpt><trkpt lat="45.6406117" lon="9.193065"><ele>212.79999999999998</ele><time>2026-04-25T05:41:25.227Z</time></trkpt><trkpt lat="45.6406317" lon="9.19322"><ele>213.2</ele><time>2026-04-25T05:41:26.228Z</time></trkpt><trkpt lat="45.64065" lon="9.1933583"><ele>213.6</ele><time>2026-04-25T05:41:27.228Z</time></trkpt><trkpt lat="45.64066" lon="9.193475"><ele>214.0</ele><time>2026-04-25T05:41:28.228Z</time></trkpt><trkpt lat="45.6406583" lon="9.1935783"><ele>213.99999999999997</ele><time>2026-04-25T05:41:29.228Z</time></trkpt><trkpt lat="45.6406533" lon="9.1936833"><ele>214.0</ele><time>2026-04-25T05:41:30.227Z</time></trkpt><trkpt lat="45.640655" lon="9.1937933"><ele>214.0</ele><time>2026-04-25T05:41:31.228Z</time></trkpt><trkpt lat="45.64067" lon="9.1939083"><ele>214.0</ele><time>2026-04-25T05:41:32.227Z</time></trkpt><trkpt lat="45.6407" lon="9.1940217"><ele>213.99999999999997</ele><time>2026-04-25T05:41:33.229Z</time></trkpt><trkpt lat="45.640735" lon="9.19414"><ele>214.0</ele><time>2026-04-25T05:41:34.227Z</time></trkpt><trkpt lat="45.64077" lon="9.1942617"><ele>214.0</ele><time>2026-04-25T05:41:35.229Z</time></trkpt><trkpt lat="45.6407967" lon="9.1943983"><ele>213.99999999999997</ele><time>2026-04-25T05:41:36.228Z</time></trkpt><trkpt lat="45.64082" lon="9.1945417"><ele>213.99999999999997</ele><time>2026-04-25T05:41:37.23Z</time></trkpt><trkpt lat="45.64084" lon="9.194695"><ele>214.0</ele><time>2026-04-25T05:41:38.23Z</time></trkpt><trkpt lat="45.64086" lon="9.1948567"><ele>214.0</ele><time>2026-04-25T05:41:39.229Z</time></trkpt><trkpt lat="45.6408783" lon="9.1950117"><ele>214.0</ele><time>2026-04-25T05:41:40.228Z</time></trkpt><trkpt lat="45.6408983" lon="9.19517"><ele>214.0</ele><time>2026-04-25T05:41:41.228Z</time></trkpt><trkpt lat="45.6409183" lon="9.1953333"><ele>214.0</ele><time>2026-04-25T05:41:42.228Z</time></trkpt><trkpt lat="45.6409417" lon="9.195505"><ele>214.0</ele><time>2026-04-25T05:41:43.228Z</time></trkpt><trkpt lat="45.640975" lon="9.1956917"><ele>214.33333333333331</ele><time>2026-04-25T05:41:44.228Z</time></trkpt><trkpt lat="45.6410117" lon="9.1959033"><ele>214.66666666666669</ele><time>2026-04-25T05:41:45.229Z</time></trkpt><trkpt lat="45.6410467" lon="9.1961383"><ele>215.0</ele><time>2026-04-25T05:41:46.227Z</time></trkpt><trkpt lat="45.6410783" lon="9.1963883"><ele>215.0</ele><time>2026-04-25T05:41:47.231Z</time></trkpt><trkpt lat="45.6411083" lon="9.1966417"><ele>215.0</ele><time>2026-04-25T05:41:48.228Z</time></trkpt><trkpt lat="45.64114" lon="9.1968967"><ele>215.0</ele><time>2026-04-25T05:41:49.227Z</time></trkpt><trkpt lat="45.6411717" lon="9.197145"><ele>214.33333333333334</ele><time>2026-04-25T05:41:50.228Z</time></trkpt><trkpt lat="45.6412017" lon="9.197375"><ele>213.66666666666669</ele><time>2026-04-25T05:41:51.228Z</time></trkpt><trkpt lat="45.6412283" lon="9.19759"><ele>213.0</ele><time>2026-04-25T05:41:52.227Z</time></trkpt><trkpt lat="45.6412567" lon="9.19779"><ele>213.0</ele><time>2026-04-25T05:41:53.23Z</time></trkpt><trkpt lat="45.64128" lon="9.1979783"><ele>213.0</ele><time>2026-04-25T05:41:54.228Z</time></trkpt><trkpt lat="45.6413033" lon="9.19816"><ele>213.0</ele><time>2026-04-25T05:41:55.227Z</time></trkpt><trkpt lat="45.6413283" lon="9.1983417"><ele>213.0</ele><time>2026-04-25T05:41:56.228Z</time></trkpt><trkpt lat="45.641355" lon="9.1985283"><ele>213.25</ele><time>2026-04-25T05:41:57.227Z</time></trkpt><trkpt lat="45.641385" lon="9.198725"><ele>213.5</ele><time>2026-04-25T05:41:58.227Z</time></trkpt><trkpt lat="45.6414183" lon="9.1989233"><ele>213.75</ele><time>2026-04-25T05:41:59.227Z</time></trkpt><trkpt lat="45.6414533" lon="9.1991233"><ele>214.0</ele><time>2026-04-25T05:42:00.228Z</time></trkpt><trkpt lat="45.6414917" lon="9.1993233"><ele>214.25</ele><time>2026-04-25T05:42:01.227Z</time></trkpt><trkpt lat="45.6415283" lon="9.1995267"><ele>214.5</ele><time>2026-04-25T05:42:02.227Z</time></trkpt><trkpt lat="45.641565" lon="9.1997267"><ele>214.75</ele><time>2026-04-25T05:42:03.228Z</time></trkpt><trkpt lat="45.6416" lon="9.1999317"><ele>215.0</ele><time>2026-04-25T05:42:04.228Z</time></trkpt><trkpt lat="45.641635" lon="9.20014"><ele>215.0</ele><time>2026-04-25T05:42:05.229Z</time></trkpt><trkpt lat="45.6416717" lon="9.20035"><ele>215.0</ele><time>2026-04-25T05:42:06.228Z</time></trkpt><trkpt lat="45.6417067" lon="9.2005583"><ele>215.0</ele><time>2026-04-25T05:42:07.228Z</time></trkpt><trkpt lat="45.641735" lon="9.200755"><ele>215.0</ele><time>2026-04-25T05:42:08.23Z</time></trkpt><trkpt lat="45.6417633" lon="9.2009333"><ele>215.2</ele><time>2026-04-25T05:42:09.229Z</time></trkpt><trkpt lat="45.64179" lon="9.2011"><ele>215.4</ele><time>2026-04-25T05:42:10.227Z</time></trkpt><trkpt lat="45.6418167" lon="9.2012533"><ele>215.60000000000002</ele><time>2026-04-25T05:42:11.228Z</time></trkpt><trkpt lat="45.64184" lon="9.201395"><ele>215.8</ele><time>2026-04-25T05:42:12.228Z</time></trkpt><trkpt lat="45.64186" lon="9.2015217"><ele>216.0</ele><time>2026-04-25T05:42:13.227Z</time></trkpt><trkpt lat="45.6418767" lon="9.2016283"><ele>216.0</ele><time>2026-04-25T05:42:14.23Z</time></trkpt><trkpt lat="45.6419033" lon="9.2017783"><ele>216.00000000000003</ele><time>2026-04-25T05:42:16.228Z</time></trkpt><trkpt lat="45.6419383" lon="9.2019133"><ele>216.00000000000003</ele><time>2026-04-25T05:42:50.232Z</time></trkpt><trkpt lat="45.641965" lon="9.2020167"><ele>216.0</ele><time>2026-04-25T05:42:51.231Z</time></trkpt><trkpt lat="45.6419983" lon="9.2021683"><ele>216.0</ele><time>2026-04-25T05:42:52.229Z</time></trkpt><trkpt lat="45.6420267" lon="9.202345"><ele>216.5</ele><time>2026-04-25T05:42:53.229Z</time></trkpt><trkpt lat="45.64206" lon="9.20253"><ele>217.0</ele><time>2026-04-25T05:42:54.229Z</time></trkpt><trkpt lat="45.642095" lon="9.2027417"><ele>217.5</ele><time>2026-04-25T05:42:55.23Z</time></trkpt><trkpt lat="45.6421317" lon="9.20296"><ele>218.0</ele><time>2026-04-25T05:42:56.23Z</time></trkpt><trkpt lat="45.64216" lon="9.2031867"><ele>218.33333333333334</ele><time>2026-04-25T05:42:57.228Z</time></trkpt><trkpt lat="45.6421883" lon="9.2034267"><ele>218.66666666666669</ele><time>2026-04-25T05:42:58.228Z</time></trkpt><trkpt lat="45.6422083" lon="9.2036783"><ele>219.0</ele><time>2026-04-25T05:42:59.229Z</time></trkpt><trkpt lat="45.6422217" lon="9.203915"><ele>219.0</ele><time>2026-04-25T05:43:00.227Z</time></trkpt><trkpt lat="45.6422317" lon="9.204135"><ele>219.0</ele><time>2026-04-25T05:43:01.228Z</time></trkpt><trkpt lat="45.6422467" lon="9.2043333"><ele>219.0</ele><time>2026-04-25T05:43:02.229Z</time></trkpt><trkpt lat="45.642255" lon="9.2045167"><ele>219.0</ele><time>2026-04-25T05:43:03.229Z</time></trkpt><trkpt lat="45.6422633" lon="9.2046867"><ele>219.2</ele><time>2026-04-25T05:43:04.228Z</time></trkpt><trkpt lat="45.6422733" lon="9.2048383"><ele>219.39999999999998</ele><time>2026-04-25T05:43:05.228Z</time></trkpt><trkpt lat="45.6422833" lon="9.20497"><ele>219.6</ele><time>2026-04-25T05:43:06.228Z</time></trkpt><trkpt lat="45.6422933" lon="9.2050833"><ele>219.8</ele><time>2026-04-25T05:43:07.228Z</time></trkpt><trkpt lat="45.642355" lon="9.2052233"><ele>220.0</ele><time>2026-04-25T05:43:09.228Z</time></trkpt><trkpt lat="45.64249" lon="9.2052483"><ele>220.0</ele><time>2026-04-25T05:43:11.229Z</time></trkpt><trkpt lat="45.6425833" lon="9.2052383"><ele>220.0</ele><time>2026-04-25T05:43:12.228Z</time></trkpt><trkpt lat="45.6426983" lon="9.20523"><ele>220.0</ele><time>2026-04-25T05:43:13.227Z</time></trkpt><trkpt lat="45.6428217" lon="9.20522"><ele>220.0</ele><time>2026-04-25T05:43:14.229Z</time></trkpt><trkpt lat="45.6429467" lon="9.2052"><ele>220.66666666666666</ele><time>2026-04-25T05:43:15.229Z</time></trkpt><trkpt lat="45.6430883" lon="9.205165"><ele>221.33333333333331</ele><time>2026-04-25T05:43:16.229Z</time></trkpt><trkpt lat="45.643245" lon="9.2051317"><ele>222.0</ele><time>2026-04-25T05:43:17.227Z</time></trkpt><trkpt lat="45.6434167" lon="9.205105"><ele>222.0</ele><time>2026-04-25T05:43:18.228Z</time></trkpt><trkpt lat="45.643595" lon="9.2050783"><ele>222.0</ele><time>2026-04-25T05:43:19.227Z</time></trkpt><trkpt lat="45.6437783" lon="9.20505"><ele>222.0</ele><time>2026-04-25T05:43:20.227Z</time></trkpt><trkpt lat="45.64397" lon="9.2050217"><ele>221.0</ele><time>2026-04-25T05:43:21.231Z</time></trkpt><trkpt lat="45.6441683" lon="9.2049933"><ele>220.0</ele><time>2026-04-25T05:43:22.228Z</time></trkpt><trkpt lat="45.644375" lon="9.2049633"><ele>219.0</ele><time>2026-04-25T05:43:23.228Z</time></trkpt><trkpt lat="45.6445917" lon="9.2049317"><ele>219.0</ele><time>2026-04-25T05:43:24.231Z</time></trkpt><trkpt lat="45.6448167" lon="9.2048717"><ele>219.0</ele><time>2026-04-25T05:43:25.228Z</time></trkpt><trkpt lat="45.6450417" lon="9.2048167"><ele>219.0</ele><time>2026-04-25T05:43:26.228Z</time></trkpt><trkpt lat="45.6452267" lon="9.204835"><ele>219.0</ele><time>2026-04-25T05:43:27.229Z</time></trkpt><trkpt lat="45.6454133" lon="9.204825"><ele>219.0</ele><time>2026-04-25T05:43:28.229Z</time></trkpt><trkpt lat="45.6456" lon="9.20481"><ele>220.25</ele><time>2026-04-25T05:43:29.229Z</time></trkpt><trkpt lat="45.645755" lon="9.2047983"><ele>221.5</ele><time>2026-04-25T05:43:30.231Z</time></trkpt><trkpt lat="45.6459017" lon="9.204765"><ele>222.75</ele><time>2026-04-25T05:43:31.228Z</time></trkpt><trkpt lat="45.6460333" lon="9.204735"><ele>224.0</ele><time>2026-04-25T05:43:32.231Z</time></trkpt><trkpt lat="45.6461633" lon="9.2047233"><ele>224.2</ele><time>2026-04-25T05:43:33.228Z</time></trkpt><trkpt lat="45.6462883" lon="9.2047067"><ele>224.39999999999998</ele><time>2026-04-25T05:43:34.229Z</time></trkpt><trkpt lat="45.6463917" lon="9.2046817"><ele>224.6</ele><time>2026-04-25T05:43:35.229Z</time></trkpt><trkpt lat="45.64649" lon="9.20467"><ele>224.8</ele><time>2026-04-25T05:43:36.229Z</time></trkpt><trkpt lat="45.64659" lon="9.20466"><ele>225.0</ele><time>2026-04-25T05:43:37.229Z</time></trkpt><trkpt lat="45.6466817" lon="9.20466"><ele>225.0</ele><time>2026-04-25T05:43:38.228Z</time></trkpt><trkpt lat="45.64677" lon="9.204665"><ele>225.0</ele><time>2026-04-25T05:43:39.229Z</time></trkpt><trkpt lat="45.646855" lon="9.204665"><ele>225.0</ele><time>2026-04-25T05:43:40.229Z</time></trkpt><trkpt lat="45.6469333" lon="9.2046617"><ele>225.0</ele><time>2026-04-25T05:43:41.228Z</time></trkpt><trkpt lat="45.647" lon="9.2046617"><ele>225.0</ele><time>2026-04-25T05:43:42.228Z</time></trkpt><trkpt lat="45.6470967" lon="9.20466"><ele>225.0</ele><time>2026-04-25T05:43:44.228Z</time></trkpt><trkpt lat="45.647165" lon="9.2046517"><ele>225.4</ele><time>2026-04-25T05:43:46.228Z</time></trkpt><trkpt lat="45.64725" lon="9.2046467"><ele>225.8</ele><time>2026-04-25T05:43:48.23Z</time></trkpt><trkpt lat="45.647345" lon="9.2046833"><ele>226.2</ele><time>2026-04-25T05:43:50.228Z</time></trkpt><trkpt lat="45.6473783" lon="9.204835"><ele>226.6</ele><time>2026-04-25T05:43:52.228Z</time></trkpt><trkpt lat="45.64734" lon="9.2049867"><ele>227.0</ele><time>2026-04-25T05:43:54.228Z</time></trkpt><trkpt lat="45.64724" lon="9.2051067"><ele>227.25</ele><time>2026-04-25T05:43:55.227Z</time></trkpt><trkpt lat="45.6471533" lon="9.205225"><ele>227.5</ele><time>2026-04-25T05:43:56.229Z</time></trkpt><trkpt lat="45.64707" lon="9.2053517"><ele>227.75</ele><time>2026-04-25T05:43:57.23Z</time></trkpt><trkpt lat="45.64701" lon="9.205485"><ele>228.0</ele><time>2026-04-25T05:43:58.229Z</time></trkpt><trkpt lat="45.646965" lon="9.2056283"><ele>227.25</ele><time>2026-04-25T05:43:59.227Z</time></trkpt><trkpt lat="45.6469367" lon="9.2058017"><ele>226.5</ele><time>2026-04-25T05:44:00.228Z</time></trkpt><trkpt lat="45.6469283" lon="9.20599"><ele>225.75</ele><time>2026-04-25T05:44:01.229Z</time></trkpt><trkpt lat="45.6469233" lon="9.20618"><ele>225.0</ele><time>2026-04-25T05:44:02.229Z</time></trkpt><trkpt lat="45.6468833" lon="9.2063667"><ele>224.25</ele><time>2026-04-25T05:44:03.228Z</time></trkpt><trkpt lat="45.64688" lon="9.2065533"><ele>223.5</ele><time>2026-04-25T05:44:04.228Z</time></trkpt><trkpt lat="45.6468833" lon="9.2067567"><ele>222.75</ele><time>2026-04-25T05:44:05.23Z</time></trkpt><trkpt lat="45.6468933" lon="9.20696"><ele>222.0</ele><time>2026-04-25T05:44:06.228Z</time></trkpt><trkpt lat="45.6468983" lon="9.2071483"><ele>222.0</ele><time>2026-04-25T05:44:07.228Z</time></trkpt><trkpt lat="45.6469" lon="9.20734"><ele>222.0</ele><time>2026-04-25T05:44:08.229Z</time></trkpt><trkpt lat="45.646905" lon="9.2075267"><ele>222.0</ele><time>2026-04-25T05:44:09.228Z</time></trkpt><trkpt lat="45.6469067" lon="9.2076917"><ele>222.0</ele><time>2026-04-25T05:44:10.229Z</time></trkpt><trkpt lat="45.6469067" lon="9.2078433"><ele>222.0</ele><time>2026-04-25T05:44:11.231Z</time></trkpt><trkpt lat="45.6469083" lon="9.2079883"><ele>222.0</ele><time>2026-04-25T05:44:12.229Z</time></trkpt><trkpt lat="45.6469117" lon="9.2081217"><ele>222.0</ele><time>2026-04-25T05:44:13.231Z</time></trkpt><trkpt lat="45.6469133" lon="9.2082483"><ele>222.0</ele><time>2026-04-25T05:44:14.23Z</time></trkpt><trkpt lat="45.6469167" lon="9.2083833"><ele>222.0</ele><time>2026-04-25T05:44:15.229Z</time></trkpt><trkpt lat="45.64692" lon="9.2085267"><ele>222.25</ele><time>2026-04-25T05:44:16.229Z</time></trkpt><trkpt lat="45.6469183" lon="9.208675"><ele>222.5</ele><time>2026-04-25T05:44:17.227Z</time></trkpt><trkpt lat="45.6469133" lon="9.2088317"><ele>222.75</ele><time>2026-04-25T05:44:18.227Z</time></trkpt><trkpt lat="45.64691" lon="9.209"><ele>223.0</ele><time>2026-04-25T05:44:19.228Z</time></trkpt><trkpt lat="45.6469033" lon="9.209175"><ele>223.0</ele><time>2026-04-25T05:44:20.228Z</time></trkpt><trkpt lat="45.6468967" lon="9.2093517"><ele>223.0</ele><time>2026-04-25T05:44:21.23Z</time></trkpt><trkpt lat="45.6469" lon="9.20952"><ele>223.0</ele><time>2026-04-25T05:44:22.228Z</time></trkpt><trkpt lat="45.6469" lon="9.2096967"><ele>223.0</ele><time>2026-04-25T05:44:23.228Z</time></trkpt><trkpt lat="45.6469" lon="9.20987"><ele>223.5</ele><time>2026-04-25T05:44:24.228Z</time></trkpt><trkpt lat="45.6468967" lon="9.210045"><ele>224.0</ele><time>2026-04-25T05:44:25.229Z</time></trkpt><trkpt lat="45.6468717" lon="9.2102183"><ele>224.5</ele><time>2026-04-25T05:44:26.227Z</time></trkpt><trkpt lat="45.6468417" lon="9.2103817"><ele>225.0</ele><time>2026-04-25T05:44:27.228Z</time></trkpt><trkpt lat="45.6468367" lon="9.2105417"><ele>225.2</ele><time>2026-04-25T05:44:28.229Z</time></trkpt><trkpt lat="45.6468683" lon="9.2106883"><ele>225.4</ele><time>2026-04-25T05:44:29.227Z</time></trkpt><trkpt lat="45.6468717" lon="9.2108233"><ele>225.60000000000002</ele><time>2026-04-25T05:44:30.228Z</time></trkpt><trkpt lat="45.646865" lon="9.2109533"><ele>225.8</ele><time>2026-04-25T05:44:31.228Z</time></trkpt><trkpt lat="45.6468633" lon="9.2110833"><ele>226.0</ele><time>2026-04-25T05:44:32.228Z</time></trkpt><trkpt lat="45.6468717" lon="9.2112267"><ele>226.0</ele><time>2026-04-25T05:44:33.23Z</time></trkpt><trkpt lat="45.6468817" lon="9.2113667"><ele>226.00000000000003</ele><time>2026-04-25T05:44:34.227Z</time></trkpt><trkpt lat="45.646885" lon="9.2115133"><ele>226.00000000000003</ele><time>2026-04-25T05:44:35.227Z</time></trkpt><trkpt lat="45.6468817" lon="9.2116483"><ele>226.0</ele><time>2026-04-25T05:44:36.233Z</time></trkpt><trkpt lat="45.6468817" lon="9.21177"><ele>226.0</ele><time>2026-04-25T05:44:37.228Z</time></trkpt><trkpt lat="45.6468817" lon="9.2118833"><ele>225.83333333333331</ele><time>2026-04-25T05:44:38.229Z</time></trkpt><trkpt lat="45.6468783" lon="9.211995"><ele>225.66666666666666</ele><time>2026-04-25T05:44:39.229Z</time></trkpt><trkpt lat="45.6468767" lon="9.2121083"><ele>225.5</ele><time>2026-04-25T05:44:40.23Z</time></trkpt><trkpt lat="45.6468767" lon="9.212225"><ele>225.33333333333331</ele><time>2026-04-25T05:44:41.228Z</time></trkpt><trkpt lat="45.6468783" lon="9.2123417"><ele>225.16666666666666</ele><time>2026-04-25T05:44:42.23Z</time></trkpt><trkpt lat="45.64688" lon="9.2124633"><ele>225.0</ele><time>2026-04-25T05:44:43.23Z</time></trkpt><trkpt lat="45.6468833" lon="9.212585"><ele>225.0</ele><time>2026-04-25T05:44:44.23Z</time></trkpt><trkpt lat="45.6468783" lon="9.2127117"><ele>225.0</ele><time>2026-04-25T05:44:45.231Z</time></trkpt><trkpt lat="45.64688" lon="9.21285"><ele>225.0</ele><time>2026-04-25T05:44:46.228Z</time></trkpt><trkpt lat="45.6468833" lon="9.21299"><ele>225.0</ele><time>2026-04-25T05:44:47.229Z</time></trkpt><trkpt lat="45.6468867" lon="9.2131267"><ele>225.0</ele><time>2026-04-25T05:44:48.228Z</time></trkpt><trkpt lat="45.6468867" lon="9.2132517"><ele>225.0</ele><time>2026-04-25T05:44:49.228Z</time></trkpt><trkpt lat="45.6468867" lon="9.2133717"><ele>225.0</ele><time>2026-04-25T05:44:50.228Z</time></trkpt><trkpt lat="45.6468867" lon="9.213485"><ele>225.0</ele><time>2026-04-25T05:44:51.229Z</time></trkpt><trkpt lat="45.6468833" lon="9.21359"><ele>225.0</ele><time>2026-04-25T05:44:52.227Z</time></trkpt><trkpt lat="45.6468833" lon="9.2136817"><ele>225.0</ele><time>2026-04-25T05:44:53.228Z</time></trkpt><trkpt lat="45.6468817" lon="9.2138383"><ele>225.0</ele><time>2026-04-25T05:44:55.228Z</time></trkpt><trkpt lat="45.6468867" lon="9.213945"><ele>224.6</ele><time>2026-04-25T05:44:58.227Z</time></trkpt><trkpt lat="45.6469067" lon="9.214065"><ele>224.2</ele><time>2026-04-25T05:45:13.228Z</time></trkpt><trkpt lat="45.6469067" lon="9.214245"><ele>223.8</ele><time>2026-04-25T05:45:15.229Z</time></trkpt><trkpt lat="45.64691" lon="9.21434"><ele>223.4</ele><time>2026-04-25T05:45:16.228Z</time></trkpt><trkpt lat="45.6469433" lon="9.214495"><ele>223.0</ele><time>2026-04-25T05:45:18.227Z</time></trkpt><trkpt lat="45.6470283" lon="9.2145483"><ele>223.0</ele><time>2026-04-25T05:45:20.229Z</time></trkpt><trkpt lat="45.6470917" lon="9.214545"><ele>223.0</ele><time>2026-04-25T05:45:21.228Z</time></trkpt><trkpt lat="45.6471667" lon="9.2145417"><ele>223.0</ele><time>2026-04-25T05:45:22.227Z</time></trkpt><trkpt lat="45.647255" lon="9.2145333"><ele>223.0</ele><time>2026-04-25T05:45:23.228Z</time></trkpt><trkpt lat="45.64736" lon="9.21451"><ele>223.0</ele><time>2026-04-25T05:45:24.228Z</time></trkpt><trkpt lat="45.6474767" lon="9.2144883"><ele>223.0</ele><time>2026-04-25T05:45:25.229Z</time></trkpt><trkpt lat="45.6475933" lon="9.21447"><ele>223.0</ele><time>2026-04-25T05:45:26.228Z</time></trkpt><trkpt lat="45.6477183" lon="9.2144417"><ele>223.0</ele><time>2026-04-25T05:45:27.231Z</time></trkpt><trkpt lat="45.6478483" lon="9.214415"><ele>223.0</ele><time>2026-04-25T05:45:28.227Z</time></trkpt><trkpt lat="45.6479783" lon="9.21439"><ele>223.5</ele><time>2026-04-25T05:45:29.227Z</time></trkpt><trkpt lat="45.6481167" lon="9.2143683"><ele>224.0</ele><time>2026-04-25T05:45:30.227Z</time></trkpt><trkpt lat="45.6482517" lon="9.214355"><ele>224.5</ele><time>2026-04-25T05:45:31.228Z</time></trkpt><trkpt lat="45.6483883" lon="9.2143333"><ele>225.0</ele><time>2026-04-25T05:45:32.23Z</time></trkpt><trkpt lat="45.648525" lon="9.2142983"><ele>225.0</ele><time>2026-04-25T05:45:33.23Z</time></trkpt><trkpt lat="45.6486583" lon="9.214275"><ele>225.0</ele><time>2026-04-25T05:45:34.228Z</time></trkpt><trkpt lat="45.6488017" lon="9.21424"><ele>225.0</ele><time>2026-04-25T05:45:35.229Z</time></trkpt><trkpt lat="45.6489333" lon="9.21422"><ele>225.0</ele><time>2026-04-25T05:45:36.229Z</time></trkpt><trkpt lat="45.6490617" lon="9.2141967"><ele>225.0</ele><time>2026-04-25T05:45:37.23Z</time></trkpt><trkpt lat="45.6491783" lon="9.2141683"><ele>225.0</ele><time>2026-04-25T05:45:38.234Z</time></trkpt><trkpt lat="45.649285" lon="9.2141583"><ele>225.0</ele><time>2026-04-25T05:45:39.229Z</time></trkpt><trkpt lat="45.6493833" lon="9.2141417"><ele>225.0</ele><time>2026-04-25T05:45:40.229Z</time></trkpt><trkpt lat="45.64947" lon="9.2141267"><ele>225.0</ele><time>2026-04-25T05:45:41.229Z</time></trkpt><trkpt lat="45.6495333" lon="9.2141233"><ele>225.0</ele><time>2026-04-25T05:45:42.229Z</time></trkpt><trkpt lat="45.6496167" lon="9.2141633"><ele>225.0</ele><time>2026-04-25T05:45:44.228Z</time></trkpt><trkpt lat="45.649675" lon="9.21426"><ele>225.0</ele><time>2026-04-25T05:45:46.228Z</time></trkpt><trkpt lat="45.6497" lon="9.21436"><ele>225.0</ele><time>2026-04-25T05:45:47.23Z</time></trkpt><trkpt lat="45.649725" lon="9.2144567"><ele>225.0</ele><time>2026-04-25T05:45:48.228Z</time></trkpt><trkpt lat="45.6497417" lon="9.2145583"><ele>225.0</ele><time>2026-04-25T05:45:49.228Z</time></trkpt><trkpt lat="45.6497567" lon="9.2146867"><ele>225.0</ele><time>2026-04-25T05:45:50.228Z</time></trkpt><trkpt lat="45.649775" lon="9.214835"><ele>225.0</ele><time>2026-04-25T05:45:51.228Z</time></trkpt><trkpt lat="45.6497917" lon="9.214985"><ele>225.0</ele><time>2026-04-25T05:45:52.228Z</time></trkpt><trkpt lat="45.6498083" lon="9.21514"><ele>225.0</ele><time>2026-04-25T05:45:53.227Z</time></trkpt><trkpt lat="45.6498267" lon="9.2152867"><ele>225.0</ele><time>2026-04-25T05:45:54.229Z</time></trkpt><trkpt lat="45.6498467" lon="9.215435"><ele>225.0</ele><time>2026-04-25T05:45:55.228Z</time></trkpt><trkpt lat="45.6498667" lon="9.2155917"><ele>225.0</ele><time>2026-04-25T05:45:56.228Z</time></trkpt><trkpt lat="45.64989" lon="9.215755"><ele>225.0</ele><time>2026-04-25T05:45:57.227Z</time></trkpt><trkpt lat="45.649915" lon="9.2159267"><ele>225.0</ele><time>2026-04-25T05:45:58.227Z</time></trkpt><trkpt lat="45.6499383" lon="9.21611"><ele>225.0</ele><time>2026-04-25T05:45:59.227Z</time></trkpt><trkpt lat="45.6499617" lon="9.2163"><ele>225.0</ele><time>2026-04-25T05:46:00.227Z</time></trkpt><trkpt lat="45.649975" lon="9.21649"><ele>225.0</ele><time>2026-04-25T05:46:01.227Z</time></trkpt><trkpt lat="45.6499883" lon="9.216675"><ele>225.0</ele><time>2026-04-25T05:46:02.228Z</time></trkpt><trkpt lat="45.6499967" lon="9.21686"><ele>225.25</ele><time>2026-04-25T05:46:03.229Z</time></trkpt><trkpt lat="45.6499933" lon="9.21704"><ele>225.5</ele><time>2026-04-25T05:46:04.229Z</time></trkpt><trkpt lat="45.6499933" lon="9.2172217"><ele>225.75</ele><time>2026-04-25T05:46:05.228Z</time></trkpt><trkpt lat="45.6499967" lon="9.2174067"><ele>226.0</ele><time>2026-04-25T05:46:06.227Z</time></trkpt><trkpt lat="45.6499933" lon="9.217595"><ele>225.5</ele><time>2026-04-25T05:46:07.228Z</time></trkpt><trkpt lat="45.6499867" lon="9.217775"><ele>225.0</ele><time>2026-04-25T05:46:08.228Z</time></trkpt><trkpt lat="45.6499817" lon="9.2179533"><ele>224.5</ele><time>2026-04-25T05:46:09.227Z</time></trkpt><trkpt lat="45.6499817" lon="9.2181283"><ele>224.0</ele><time>2026-04-25T05:46:10.228Z</time></trkpt><trkpt lat="45.649975" lon="9.2183"><ele>223.75</ele><time>2026-04-25T05:46:11.228Z</time></trkpt><trkpt lat="45.6499733" lon="9.2184617"><ele>223.5</ele><time>2026-04-25T05:46:12.228Z</time></trkpt><trkpt lat="45.6499717" lon="9.2186183"><ele>223.25</ele><time>2026-04-25T05:46:13.229Z</time></trkpt><trkpt lat="45.64997" lon="9.2187883"><ele>223.0</ele><time>2026-04-25T05:46:14.229Z</time></trkpt><trkpt lat="45.64996" lon="9.2189533"><ele>223.25</ele><time>2026-04-25T05:46:15.227Z</time></trkpt><trkpt lat="45.6499433" lon="9.2191117"><ele>223.5</ele><time>2026-04-25T05:46:16.227Z</time></trkpt><trkpt lat="45.6499217" lon="9.2192783"><ele>223.75</ele><time>2026-04-25T05:46:17.227Z</time></trkpt><trkpt lat="45.6499033" lon="9.219445"><ele>224.0</ele><time>2026-04-25T05:46:18.228Z</time></trkpt><trkpt lat="45.6499" lon="9.2196083"><ele>224.0</ele><time>2026-04-25T05:46:19.228Z</time></trkpt><trkpt lat="45.6498833" lon="9.219765"><ele>223.99999999999997</ele><time>2026-04-25T05:46:20.228Z</time></trkpt><trkpt lat="45.6498683" lon="9.2199133"><ele>223.99999999999997</ele><time>2026-04-25T05:46:21.229Z</time></trkpt><trkpt lat="45.6498533" lon="9.220055"><ele>224.0</ele><time>2026-04-25T05:46:22.229Z</time></trkpt><trkpt lat="45.6498433" lon="9.2201867"><ele>224.0</ele><time>2026-04-25T05:46:23.229Z</time></trkpt><trkpt lat="45.6498317" lon="9.220305"><ele>223.83333333333334</ele><time>2026-04-25T05:46:24.228Z</time></trkpt><trkpt lat="45.6498217" lon="9.2204"><ele>223.66666666666669</ele><time>2026-04-25T05:46:25.228Z</time></trkpt><trkpt lat="45.6498017" lon="9.22052"><ele>223.5</ele><time>2026-04-25T05:46:27.228Z</time></trkpt><trkpt lat="45.6497767" lon="9.2206167"><ele>223.33333333333331</ele><time>2026-04-25T05:47:07.228Z</time></trkpt><trkpt lat="45.649755" lon="9.2207883"><ele>223.16666666666666</ele><time>2026-04-25T05:47:09.228Z</time></trkpt><trkpt lat="45.6497467" lon="9.2209067"><ele>223.0</ele><time>2026-04-25T05:47:10.229Z</time></trkpt><trkpt lat="45.6497367" lon="9.22106"><ele>223.0</ele><time>2026-04-25T05:47:11.231Z</time></trkpt><trkpt lat="45.649725" lon="9.2212317"><ele>223.0</ele><time>2026-04-25T05:47:12.231Z</time></trkpt><trkpt lat="45.6497133" lon="9.22141"><ele>223.0</ele><time>2026-04-25T05:47:13.227Z</time></trkpt><trkpt lat="45.6497067" lon="9.221605"><ele>223.0</ele><time>2026-04-25T05:47:14.228Z</time></trkpt><trkpt lat="45.6497" lon="9.2217967"><ele>222.75</ele><time>2026-04-25T05:47:15.231Z</time></trkpt><trkpt lat="45.6497033" lon="9.2219867"><ele>222.5</ele><time>2026-04-25T05:47:16.229Z</time></trkpt><trkpt lat="45.6497017" lon="9.22217"><ele>222.25</ele><time>2026-04-25T05:47:17.227Z</time></trkpt><trkpt lat="45.6496933" lon="9.2223333"><ele>222.0</ele><time>2026-04-25T05:47:18.229Z</time></trkpt><trkpt lat="45.6496883" lon="9.2224833"><ele>222.0</ele><time>2026-04-25T05:47:19.229Z</time></trkpt><trkpt lat="45.649685" lon="9.2226133"><ele>222.0</ele><time>2026-04-25T05:47:20.23Z</time></trkpt><trkpt lat="45.649675" lon="9.2227133"><ele>222.0</ele><time>2026-04-25T05:47:21.229Z</time></trkpt><trkpt lat="45.6496183" lon="9.22284"><ele>222.0</ele><time>2026-04-25T05:47:23.229Z</time></trkpt><trkpt lat="45.64956" lon="9.2228983"><ele>222.0</ele><time>2026-04-25T05:47:24.229Z</time></trkpt><trkpt lat="45.6494933" lon="9.2229667"><ele>222.0</ele><time>2026-04-25T05:47:25.23Z</time></trkpt><trkpt lat="45.6494233" lon="9.2230483"><ele>221.6</ele><time>2026-04-25T05:47:26.23Z</time></trkpt><trkpt lat="45.6493483" lon="9.22315"><ele>221.2</ele><time>2026-04-25T05:47:27.23Z</time></trkpt><trkpt lat="45.649285" lon="9.2232767"><ele>220.8</ele><time>2026-04-25T05:47:28.227Z</time></trkpt><trkpt lat="45.649235" lon="9.2234233"><ele>220.4</ele><time>2026-04-25T05:47:29.229Z</time></trkpt><trkpt lat="45.649205" lon="9.22359"><ele>220.0</ele><time>2026-04-25T05:47:30.229Z</time></trkpt><trkpt lat="45.6491883" lon="9.2237733"><ele>220.0</ele><time>2026-04-25T05:47:31.23Z</time></trkpt><trkpt lat="45.64918" lon="9.2239583"><ele>220.0</ele><time>2026-04-25T05:47:32.227Z</time></trkpt><trkpt lat="45.649175" lon="9.2241367"><ele>220.0</ele><time>2026-04-25T05:47:33.23Z</time></trkpt><trkpt lat="45.6491667" lon="9.2243133"><ele>220.0</ele><time>2026-04-25T05:47:34.228Z</time></trkpt><trkpt lat="45.6491583" lon="9.224485"><ele>220.25</ele><time>2026-04-25T05:47:35.229Z</time></trkpt><trkpt lat="45.6491483" lon="9.2246583"><ele>220.5</ele><time>2026-04-25T05:47:36.228Z</time></trkpt><trkpt lat="45.64914" lon="9.2248383"><ele>220.75</ele><time>2026-04-25T05:47:37.227Z</time></trkpt><trkpt lat="45.649135" lon="9.22503"><ele>221.0</ele><time>2026-04-25T05:47:38.228Z</time></trkpt><trkpt lat="45.6491267" lon="9.225215"><ele>221.0</ele><time>2026-04-25T05:47:39.228Z</time></trkpt><trkpt lat="45.6491167" lon="9.2254033"><ele>221.0</ele><time>2026-04-25T05:47:40.227Z</time></trkpt><trkpt lat="45.6491067" lon="9.2255933"><ele>221.0</ele><time>2026-04-25T05:47:41.228Z</time></trkpt><trkpt lat="45.6491" lon="9.225785"><ele>221.0</ele><time>2026-04-25T05:47:42.228Z</time></trkpt><trkpt lat="45.6490917" lon="9.2259783"><ele>221.0</ele><time>2026-04-25T05:47:43.228Z</time></trkpt><trkpt lat="45.6490833" lon="9.226175"><ele>221.0</ele><time>2026-04-25T05:47:44.227Z</time></trkpt><trkpt lat="45.649075" lon="9.22637"><ele>221.0</ele><time>2026-04-25T05:47:45.228Z</time></trkpt><trkpt lat="45.6490667" lon="9.22656"><ele>221.0</ele><time>2026-04-25T05:47:46.228Z</time></trkpt><trkpt lat="45.6490583" lon="9.2267417"><ele>221.0</ele><time>2026-04-25T05:47:47.228Z</time></trkpt><trkpt lat="45.6490517" lon="9.2269167"><ele>221.0</ele><time>2026-04-25T05:47:48.229Z</time></trkpt><trkpt lat="45.649045" lon="9.227085"><ele>221.0</ele><time>2026-04-25T05:47:49.228Z</time></trkpt><trkpt lat="45.6490383" lon="9.2272483"><ele>221.0</ele><time>2026-04-25T05:47:50.228Z</time></trkpt><trkpt lat="45.6490367" lon="9.2274017"><ele>221.0</ele><time>2026-04-25T05:47:51.231Z</time></trkpt><trkpt lat="45.6490417" lon="9.22755"><ele>221.00000000000003</ele><time>2026-04-25T05:47:52.229Z</time></trkpt><trkpt lat="45.6490583" lon="9.2276917"><ele>221.00000000000003</ele><time>2026-04-25T05:47:53.229Z</time></trkpt><trkpt lat="45.6490933" lon="9.2278167"><ele>221.0</ele><time>2026-04-25T05:47:54.23Z</time></trkpt><trkpt lat="45.649145" lon="9.2279267"><ele>221.0</ele><time>2026-04-25T05:47:55.229Z</time></trkpt><trkpt lat="45.6492133" lon="9.22802"><ele>221.0</ele><time>2026-04-25T05:47:56.229Z</time></trkpt><trkpt lat="45.6493033" lon="9.22809"><ele>221.00000000000003</ele><time>2026-04-25T05:47:57.228Z</time></trkpt><trkpt lat="45.6494067" lon="9.2281433"><ele>221.00000000000003</ele><time>2026-04-25T05:47:58.227Z</time></trkpt><trkpt lat="45.64951" lon="9.2281633"><ele>221.0</ele><time>2026-04-25T05:47:59.229Z</time></trkpt><trkpt lat="45.6496033" lon="9.2281617"><ele>221.0</ele><time>2026-04-25T05:48:00.228Z</time></trkpt><trkpt lat="45.64969" lon="9.22815"><ele>221.4</ele><time>2026-04-25T05:48:01.227Z</time></trkpt><trkpt lat="45.649765" lon="9.22814"><ele>221.8</ele><time>2026-04-25T05:48:02.228Z</time></trkpt><trkpt lat="45.649835" lon="9.2281317"><ele>222.20000000000002</ele><time>2026-04-25T05:48:03.229Z</time></trkpt><trkpt lat="45.64995" lon="9.2281467"><ele>222.60000000000002</ele><time>2026-04-25T05:48:05.229Z</time></trkpt><trkpt lat="45.6500067" lon="9.22833"><ele>223.0</ele><time>2026-04-25T05:48:07.23Z</time></trkpt><trkpt lat="45.6500233" lon="9.2284567"><ele>223.0</ele><time>2026-04-25T05:48:08.228Z</time></trkpt><trkpt lat="45.65004" lon="9.2286167"><ele>223.0</ele><time>2026-04-25T05:48:09.229Z</time></trkpt><trkpt lat="45.6500567" lon="9.2287833"><ele>223.0</ele><time>2026-04-25T05:48:10.227Z</time></trkpt><trkpt lat="45.6500733" lon="9.22895"><ele>223.0</ele><time>2026-04-25T05:48:11.228Z</time></trkpt><trkpt lat="45.6500917" lon="9.2291217"><ele>223.0</ele><time>2026-04-25T05:48:12.227Z</time></trkpt><trkpt lat="45.65011" lon="9.2293067"><ele>223.0</ele><time>2026-04-25T05:48:13.228Z</time></trkpt><trkpt lat="45.65013" lon="9.2295017"><ele>223.0</ele><time>2026-04-25T05:48:14.228Z</time></trkpt><trkpt lat="45.6501467" lon="9.2296983"><ele>223.0</ele><time>2026-04-25T05:48:15.228Z</time></trkpt><trkpt lat="45.6501667" lon="9.2298917"><ele>223.0</ele><time>2026-04-25T05:48:16.228Z</time></trkpt><trkpt lat="45.65019" lon="9.230085"><ele>223.0</ele><time>2026-04-25T05:48:17.23Z</time></trkpt><trkpt lat="45.650205" lon="9.2302767"><ele>223.0</ele><time>2026-04-25T05:48:18.23Z</time></trkpt><trkpt lat="45.65022" lon="9.23047"><ele>223.0</ele><time>2026-04-25T05:48:19.228Z</time></trkpt><trkpt lat="45.6502233" lon="9.2306533"><ele>222.75</ele><time>2026-04-25T05:48:20.229Z</time></trkpt><trkpt lat="45.6502267" lon="9.2308383"><ele>222.5</ele><time>2026-04-25T05:48:21.231Z</time></trkpt><trkpt lat="45.6502333" lon="9.2310233"><ele>222.25</ele><time>2026-04-25T05:48:22.229Z</time></trkpt><trkpt lat="45.6502317" lon="9.2312133"><ele>222.0</ele><time>2026-04-25T05:48:23.229Z</time></trkpt><trkpt lat="45.6502333" lon="9.2314133"><ele>222.0</ele><time>2026-04-25T05:48:24.229Z</time></trkpt><trkpt lat="45.65023" lon="9.2316067"><ele>222.0</ele><time>2026-04-25T05:48:25.228Z</time></trkpt><trkpt lat="45.65023" lon="9.2317883"><ele>222.0</ele><time>2026-04-25T05:48:26.229Z</time></trkpt><trkpt lat="45.65023" lon="9.2319533"><ele>222.0</ele><time>2026-04-25T05:48:27.229Z</time></trkpt><trkpt lat="45.650225" lon="9.2321067"><ele>222.0</ele><time>2026-04-25T05:48:28.229Z</time></trkpt><trkpt lat="45.650215" lon="9.23226"><ele>222.0</ele><time>2026-04-25T05:48:29.228Z</time></trkpt><trkpt lat="45.6501833" lon="9.2324083"><ele>222.0</ele><time>2026-04-25T05:48:30.229Z</time></trkpt><trkpt lat="45.6501467" lon="9.2325483"><ele>222.0</ele><time>2026-04-25T05:48:31.228Z</time></trkpt><trkpt lat="45.6501117" lon="9.2326767"><ele>222.0</ele><time>2026-04-25T05:48:32.228Z</time></trkpt><trkpt lat="45.6500917" lon="9.2327983"><ele>222.0</ele><time>2026-04-25T05:48:33.229Z</time></trkpt><trkpt lat="45.6500933" lon="9.232925"><ele>222.0</ele><time>2026-04-25T05:48:34.227Z</time></trkpt><trkpt lat="45.6501133" lon="9.233065"><ele>222.0</ele><time>2026-04-25T05:48:35.23Z</time></trkpt><trkpt lat="45.6501467" lon="9.2332117"><ele>222.0</ele><time>2026-04-25T05:48:36.229Z</time></trkpt><trkpt lat="45.6501817" lon="9.233375"><ele>222.0</ele><time>2026-04-25T05:48:37.23Z</time></trkpt><trkpt lat="45.6502083" lon="9.2335433"><ele>222.25</ele><time>2026-04-25T05:48:38.228Z</time></trkpt><trkpt lat="45.6502333" lon="9.2337233"><ele>222.5</ele><time>2026-04-25T05:48:39.228Z</time></trkpt><trkpt lat="45.6502483" lon="9.233915"><ele>222.75</ele><time>2026-04-25T05:48:40.228Z</time></trkpt><trkpt lat="45.6502567" lon="9.2341133"><ele>223.0</ele><time>2026-04-25T05:48:41.228Z</time></trkpt><trkpt lat="45.6502583" lon="9.2343267"><ele>223.0</ele><time>2026-04-25T05:48:42.227Z</time></trkpt><trkpt lat="45.6502667" lon="9.2345417"><ele>223.0</ele><time>2026-04-25T05:48:43.228Z</time></trkpt><trkpt lat="45.6502717" lon="9.2347717"><ele>223.0</ele><time>2026-04-25T05:48:44.229Z</time></trkpt><trkpt lat="45.6502733" lon="9.234995"><ele>223.0</ele><time>2026-04-25T05:48:45.228Z</time></trkpt><trkpt lat="45.6502783" lon="9.2352267"><ele>223.0</ele><time>2026-04-25T05:48:46.227Z</time></trkpt><trkpt lat="45.6502833" lon="9.2354667"><ele>223.0</ele><time>2026-04-25T05:48:47.229Z</time></trkpt><trkpt lat="45.6502867" lon="9.235715"><ele>223.0</ele><time>2026-04-25T05:48:48.23Z</time></trkpt><trkpt lat="45.6502883" lon="9.23597"><ele>223.0</ele><time>2026-04-25T05:48:49.229Z</time></trkpt><trkpt lat="45.6502917" lon="9.2362317"><ele>223.0</ele><time>2026-04-25T05:48:50.229Z</time></trkpt><trkpt lat="45.650295" lon="9.23649"><ele>223.0</ele><time>2026-04-25T05:48:51.23Z</time></trkpt><trkpt lat="45.6502983" lon="9.2367317"><ele>223.0</ele><time>2026-04-25T05:48:52.231Z</time></trkpt><trkpt lat="45.6503033" lon="9.2369667"><ele>223.0</ele><time>2026-04-25T05:48:53.229Z</time></trkpt><trkpt lat="45.6503083" lon="9.2372017"><ele>222.66666666666666</ele><time>2026-04-25T05:48:54.229Z</time></trkpt><trkpt lat="45.6503167" lon="9.2374367"><ele>222.33333333333331</ele><time>2026-04-25T05:48:55.228Z</time></trkpt><trkpt lat="45.6503317" lon="9.2376717"><ele>222.0</ele><time>2026-04-25T05:48:56.228Z</time></trkpt><trkpt lat="45.6503567" lon="9.2378983"><ele>222.0</ele><time>2026-04-25T05:48:57.229Z</time></trkpt><trkpt lat="45.650385" lon="9.2381083"><ele>222.0</ele><time>2026-04-25T05:48:58.227Z</time></trkpt><trkpt lat="45.6504117" lon="9.238305"><ele>222.0</ele><time>2026-04-25T05:48:59.228Z</time></trkpt><trkpt lat="45.6504383" lon="9.238485"><ele>222.0</ele><time>2026-04-25T05:49:00.229Z</time></trkpt><trkpt lat="45.6504633" lon="9.238645"><ele>222.2</ele><time>2026-04-25T05:49:01.228Z</time></trkpt><trkpt lat="45.6504833" lon="9.2387917"><ele>222.39999999999998</ele><time>2026-04-25T05:49:02.229Z</time></trkpt><trkpt lat="45.6504967" lon="9.23893"><ele>222.60000000000002</ele><time>2026-04-25T05:49:03.229Z</time></trkpt><trkpt lat="45.6504983" lon="9.2390617"><ele>222.8</ele><time>2026-04-25T05:49:04.231Z</time></trkpt><trkpt lat="45.650485" lon="9.239185"><ele>223.0</ele><time>2026-04-25T05:49:05.235Z</time></trkpt><trkpt lat="45.6504633" lon="9.2392983"><ele>223.49999999999997</ele><time>2026-04-25T05:49:06.235Z</time></trkpt><trkpt lat="45.6504483" lon="9.239415"><ele>224.0</ele><time>2026-04-25T05:49:07.228Z</time></trkpt><trkpt lat="45.6504533" lon="9.2395317"><ele>224.5</ele><time>2026-04-25T05:49:08.227Z</time></trkpt><trkpt lat="45.6505083" lon="9.23962"><ele>225.0</ele><time>2026-04-25T05:49:09.23Z</time></trkpt><trkpt lat="45.6505833" lon="9.2396917"><ele>225.49999999999997</ele><time>2026-04-25T05:49:10.228Z</time></trkpt><trkpt lat="45.6506733" lon="9.2397517"><ele>226.0</ele><time>2026-04-25T05:49:11.23Z</time></trkpt><trkpt lat="45.65078" lon="9.2398383"><ele>226.0</ele><time>2026-04-25T05:49:12.227Z</time></trkpt><trkpt lat="45.6508917" lon="9.2399483"><ele>226.0</ele><time>2026-04-25T05:49:13.229Z</time></trkpt><trkpt lat="45.651" lon="9.2400833"><ele>226.0</ele><time>2026-04-25T05:49:14.227Z</time></trkpt><trkpt lat="45.6511" lon="9.2402467"><ele>226.0</ele><time>2026-04-25T05:49:15.228Z</time></trkpt><trkpt lat="45.651195" lon="9.2404333"><ele>225.66666666666666</ele><time>2026-04-25T05:49:16.229Z</time></trkpt><trkpt lat="45.65128" lon="9.2406383"><ele>225.33333333333331</ele><time>2026-04-25T05:49:17.228Z</time></trkpt><trkpt lat="45.6513683" lon="9.2408433"><ele>225.0</ele><time>2026-04-25T05:49:18.229Z</time></trkpt><trkpt lat="45.6514567" lon="9.2410417"><ele>225.0</ele><time>2026-04-25T05:49:19.229Z</time></trkpt><trkpt lat="45.651545" lon="9.2412267"><ele>225.0</ele><time>2026-04-25T05:49:20.229Z</time></trkpt><trkpt lat="45.6516333" lon="9.241405"><ele>225.0</ele><time>2026-04-25T05:49:21.229Z</time></trkpt><trkpt lat="45.6517233" lon="9.2415783"><ele>225.33333333333331</ele><time>2026-04-25T05:49:22.229Z</time></trkpt><trkpt lat="45.651815" lon="9.2417517"><ele>225.66666666666666</ele><time>2026-04-25T05:49:23.23Z</time></trkpt><trkpt lat="45.6519067" lon="9.241925"><ele>226.0</ele><time>2026-04-25T05:49:24.229Z</time></trkpt><trkpt lat="45.6520017" lon="9.2421"><ele>226.33333333333331</ele><time>2026-04-25T05:49:25.23Z</time></trkpt><trkpt lat="45.6520983" lon="9.2422783"><ele>226.66666666666669</ele><time>2026-04-25T05:49:26.228Z</time></trkpt><trkpt lat="45.6521967" lon="9.2424567"><ele>227.0</ele><time>2026-04-25T05:49:27.228Z</time></trkpt><trkpt lat="45.6523033" lon="9.2426383"><ele>227.0</ele><time>2026-04-25T05:49:28.228Z</time></trkpt><trkpt lat="45.6524067" lon="9.242815"><ele>227.0</ele><time>2026-04-25T05:49:29.228Z</time></trkpt><trkpt lat="45.6525083" lon="9.242985"><ele>227.0</ele><time>2026-04-25T05:49:30.228Z</time></trkpt><trkpt lat="45.6526117" lon="9.2431567"><ele>227.0</ele><time>2026-04-25T05:49:31.227Z</time></trkpt><trkpt lat="45.6527167" lon="9.2433283"><ele>227.0</ele><time>2026-04-25T05:49:32.227Z</time></trkpt><trkpt lat="45.6528217" lon="9.2435017"><ele>227.0</ele><time>2026-04-25T05:49:33.227Z</time></trkpt><trkpt lat="45.6529267" lon="9.2436783"><ele>227.66666666666669</ele><time>2026-04-25T05:49:34.229Z</time></trkpt><trkpt lat="45.6530317" lon="9.2438533"><ele>228.33333333333331</ele><time>2026-04-25T05:49:35.23Z</time></trkpt><trkpt lat="45.6531367" lon="9.244025"><ele>229.0</ele><time>2026-04-25T05:49:36.227Z</time></trkpt><trkpt lat="45.6532417" lon="9.244205"><ele>229.0</ele><time>2026-04-25T05:49:37.228Z</time></trkpt><trkpt lat="45.6533467" lon="9.2443867"><ele>229.0</ele><time>2026-04-25T05:49:38.228Z</time></trkpt><trkpt lat="45.6534467" lon="9.2445733"><ele>229.0</ele><time>2026-04-25T05:49:39.228Z</time></trkpt><trkpt lat="45.653545" lon="9.24476"><ele>229.33333333333331</ele><time>2026-04-25T05:49:40.229Z</time></trkpt><trkpt lat="45.6536433" lon="9.24495"><ele>229.66666666666669</ele><time>2026-04-25T05:49:41.227Z</time></trkpt><trkpt lat="45.653745" lon="9.2451367"><ele>230.0</ele><time>2026-04-25T05:49:42.229Z</time></trkpt><trkpt lat="45.6538517" lon="9.24533"><ele>230.0</ele><time>2026-04-25T05:49:43.229Z</time></trkpt><trkpt lat="45.6539583" lon="9.245525"><ele>230.0</ele><time>2026-04-25T05:49:44.229Z</time></trkpt><trkpt lat="45.6540667" lon="9.2457217"><ele>230.0</ele><time>2026-04-25T05:49:45.228Z</time></trkpt><trkpt lat="45.6541733" lon="9.2459217"><ele>230.33333333333334</ele><time>2026-04-25T05:49:46.228Z</time></trkpt><trkpt lat="45.6542817" lon="9.2461233"><ele>230.66666666666669</ele><time>2026-04-25T05:49:47.228Z</time></trkpt><trkpt lat="45.65439" lon="9.2463167"><ele>231.0</ele><time>2026-04-25T05:49:48.228Z</time></trkpt><trkpt lat="45.6544933" lon="9.246495"><ele>231.5</ele><time>2026-04-25T05:49:49.229Z</time></trkpt><trkpt lat="45.6545917" lon="9.2466633"><ele>232.0</ele><time>2026-04-25T05:49:50.228Z</time></trkpt><trkpt lat="45.6546783" lon="9.2468217"><ele>232.5</ele><time>2026-04-25T05:49:51.229Z</time></trkpt><trkpt lat="45.6547567" lon="9.246975"><ele>233.0</ele><time>2026-04-25T05:49:52.229Z</time></trkpt><trkpt lat="45.6548217" lon="9.247115"><ele>233.00000000000003</ele><time>2026-04-25T05:49:53.231Z</time></trkpt><trkpt lat="45.654875" lon="9.24724"><ele>233.0</ele><time>2026-04-25T05:49:54.228Z</time></trkpt><trkpt lat="45.6549133" lon="9.247355"><ele>233.0</ele><time>2026-04-25T05:49:55.228Z</time></trkpt><trkpt lat="45.6549383" lon="9.2474683"><ele>233.0</ele><time>2026-04-25T05:49:56.228Z</time></trkpt><trkpt lat="45.65495" lon="9.247575"><ele>233.00000000000003</ele><time>2026-04-25T05:49:57.229Z</time></trkpt><trkpt lat="45.6549517" lon="9.2476783"><ele>233.0</ele><time>2026-04-25T05:49:58.228Z</time></trkpt><trkpt lat="45.6549667" lon="9.2477733"><ele>233.00000000000003</ele><time>2026-04-25T05:49:59.228Z</time></trkpt><trkpt lat="45.6550083" lon="9.247845"><ele>233.0</ele><time>2026-04-25T05:50:00.23Z</time></trkpt><trkpt lat="45.6550683" lon="9.2478917"><ele>233.0</ele><time>2026-04-25T05:50:01.23Z</time></trkpt><trkpt lat="45.6551533" lon="9.2479183"><ele>233.0</ele><time>2026-04-25T05:50:02.227Z</time></trkpt><trkpt lat="45.6552533" lon="9.2479667"><ele>233.00000000000003</ele><time>2026-04-25T05:50:03.229Z</time></trkpt><trkpt lat="45.65534" lon="9.2480633"><ele>233.0</ele><time>2026-04-25T05:50:04.228Z</time></trkpt><trkpt lat="45.655425" lon="9.2481917"><ele>232.66666666666669</ele><time>2026-04-25T05:50:05.229Z</time></trkpt><trkpt lat="45.6555117" lon="9.2483517"><ele>232.33333333333331</ele><time>2026-04-25T05:50:06.228Z</time></trkpt><trkpt lat="45.6556017" lon="9.2485333"><ele>232.0</ele><time>2026-04-25T05:50:07.227Z</time></trkpt><trkpt lat="45.6557017" lon="9.2487333"><ele>232.0</ele><time>2026-04-25T05:50:08.229Z</time></trkpt><trkpt lat="45.65581" lon="9.2489467"><ele>232.0</ele><time>2026-04-25T05:50:09.228Z</time></trkpt><trkpt lat="45.6559167" lon="9.2491683"><ele>232.0</ele><time>2026-04-25T05:50:10.227Z</time></trkpt><trkpt lat="45.65602" lon="9.2493967"><ele>232.33333333333331</ele><time>2026-04-25T05:50:11.228Z</time></trkpt><trkpt lat="45.65612" lon="9.2496267"><ele>232.66666666666669</ele><time>2026-04-25T05:50:12.228Z</time></trkpt><trkpt lat="45.6562167" lon="9.249865"><ele>233.0</ele><time>2026-04-25T05:50:13.227Z</time></trkpt><trkpt lat="45.6563083" lon="9.2501033"><ele>233.33333333333334</ele><time>2026-04-25T05:50:14.227Z</time></trkpt><trkpt lat="45.6563967" lon="9.2503383"><ele>233.66666666666669</ele><time>2026-04-25T05:50:15.229Z</time></trkpt><trkpt lat="45.6564717" lon="9.250555"><ele>234.0</ele><time>2026-04-25T05:50:16.231Z</time></trkpt><trkpt lat="45.65654" lon="9.2507533"><ele>234.75</ele><time>2026-04-25T05:50:17.228Z</time></trkpt><trkpt lat="45.656605" lon="9.2509383"><ele>235.5</ele><time>2026-04-25T05:50:18.228Z</time></trkpt><trkpt lat="45.6566683" lon="9.2511067"><ele>236.25</ele><time>2026-04-25T05:50:19.228Z</time></trkpt><trkpt lat="45.6567317" lon="9.251275"><ele>237.0</ele><time>2026-04-25T05:50:20.233Z</time></trkpt><trkpt lat="45.6567933" lon="9.2514467"><ele>236.75</ele><time>2026-04-25T05:50:21.23Z</time></trkpt><trkpt lat="45.6568567" lon="9.25162"><ele>236.5</ele><time>2026-04-25T05:50:22.23Z</time></trkpt><trkpt lat="45.6569267" lon="9.2517933"><ele>236.25</ele><time>2026-04-25T05:50:23.228Z</time></trkpt><trkpt lat="45.6569983" lon="9.2519617"><ele>236.0</ele><time>2026-04-25T05:50:24.229Z</time></trkpt><trkpt lat="45.6570717" lon="9.252115"><ele>235.60000000000002</ele><time>2026-04-25T05:50:25.228Z</time></trkpt><trkpt lat="45.65714" lon="9.2522583"><ele>235.20000000000002</ele><time>2026-04-25T05:50:26.227Z</time></trkpt><trkpt lat="45.6572033" lon="9.2523817"><ele>234.79999999999998</ele><time>2026-04-25T05:50:27.228Z</time></trkpt><trkpt lat="45.6572633" lon="9.2524967"><ele>234.39999999999998</ele><time>2026-04-25T05:50:28.228Z</time></trkpt><trkpt lat="45.6573217" lon="9.2525983"><ele>234.0</ele><time>2026-04-25T05:50:29.228Z</time></trkpt><trkpt lat="45.6573783" lon="9.2527017"><ele>233.85714285714286</ele><time>2026-04-25T05:50:30.229Z</time></trkpt><trkpt lat="45.6574267" lon="9.2527867"><ele>233.71428571428572</ele><time>2026-04-25T05:50:31.229Z</time></trkpt><trkpt lat="45.6574767" lon="9.2528733"><ele>233.57142857142858</ele><time>2026-04-25T05:50:32.229Z</time></trkpt><trkpt lat="45.6575167" lon="9.2529617"><ele>233.42857142857144</ele><time>2026-04-25T05:50:33.227Z</time></trkpt><trkpt lat="45.657525" lon="9.25306"><ele>233.28571428571428</ele><time>2026-04-25T05:50:34.228Z</time></trkpt><trkpt lat="45.6575383" lon="9.253155"><ele>233.14285714285717</ele><time>2026-04-25T05:50:35.228Z</time></trkpt><trkpt lat="45.6575683" lon="9.2532417"><ele>233.0</ele><time>2026-04-25T05:50:36.227Z</time></trkpt><trkpt lat="45.6576133" lon="9.253315"><ele>233.0</ele><time>2026-04-25T05:50:37.231Z</time></trkpt><trkpt lat="45.6576817" lon="9.25338"><ele>233.0</ele><time>2026-04-25T05:50:38.227Z</time></trkpt><trkpt lat="45.6577567" lon="9.253445"><ele>233.0</ele><time>2026-04-25T05:50:39.229Z</time></trkpt><trkpt lat="45.6578267" lon="9.253525"><ele>233.0</ele><time>2026-04-25T05:50:40.233Z</time></trkpt><trkpt lat="45.6578917" lon="9.2536233"><ele>233.0</ele><time>2026-04-25T05:50:41.228Z</time></trkpt><trkpt lat="45.6579383" lon="9.2537483"><ele>233.16666666666669</ele><time>2026-04-25T05:50:42.229Z</time></trkpt><trkpt lat="45.6579867" lon="9.253855"><ele>233.33333333333334</ele><time>2026-04-25T05:50:43.227Z</time></trkpt><trkpt lat="45.6580317" lon="9.2539517"><ele>233.5</ele><time>2026-04-25T05:50:44.227Z</time></trkpt><trkpt lat="45.6580717" lon="9.2540383"><ele>233.66666666666669</ele><time>2026-04-25T05:50:45.227Z</time></trkpt><trkpt lat="45.6581017" lon="9.254125"><ele>233.83333333333334</ele><time>2026-04-25T05:50:46.229Z</time></trkpt><trkpt lat="45.6581217" lon="9.2542133"><ele>234.0</ele><time>2026-04-25T05:50:47.228Z</time></trkpt><trkpt lat="45.658125" lon="9.254355"><ele>234.0</ele><time>2026-04-25T05:50:49.227Z</time></trkpt><trkpt lat="45.658035" lon="9.2544483"><ele>233.99999999999997</ele><time>2026-04-25T05:50:50.228Z</time></trkpt><trkpt lat="45.6579583" lon="9.2545467"><ele>233.99999999999997</ele><time>2026-04-25T05:50:51.23Z</time></trkpt><trkpt lat="45.65788" lon="9.254645"><ele>234.0</ele><time>2026-04-25T05:50:52.23Z</time></trkpt><trkpt lat="45.657795" lon="9.2547533"><ele>234.0</ele><time>2026-04-25T05:50:53.229Z</time></trkpt><trkpt lat="45.6577233" lon="9.2548533"><ele>233.6</ele><time>2026-04-25T05:50:54.227Z</time></trkpt><trkpt lat="45.6576583" lon="9.2549517"><ele>233.2</ele><time>2026-04-25T05:50:55.228Z</time></trkpt><trkpt lat="45.6575817" lon="9.2550467"><ele>232.79999999999998</ele><time>2026-04-25T05:50:56.229Z</time></trkpt><trkpt lat="45.6574917" lon="9.2551433"><ele>232.39999999999998</ele><time>2026-04-25T05:50:57.227Z</time></trkpt><trkpt lat="45.6574283" lon="9.2552267"><ele>232.0</ele><time>2026-04-25T05:50:58.23Z</time></trkpt><trkpt lat="45.657365" lon="9.2553167"><ele>231.99999999999997</ele><time>2026-04-25T05:50:59.229Z</time></trkpt><trkpt lat="45.6573017" lon="9.2554067"><ele>232.0</ele><time>2026-04-25T05:51:00.227Z</time></trkpt><trkpt lat="45.6572383" lon="9.255495"><ele>232.0</ele><time>2026-04-25T05:51:01.227Z</time></trkpt><trkpt lat="45.6571817" lon="9.2555817"><ele>232.0</ele><time>2026-04-25T05:51:02.227Z</time></trkpt><trkpt lat="45.657135" lon="9.25566"><ele>231.99999999999997</ele><time>2026-04-25T05:51:03.228Z</time></trkpt><trkpt lat="45.6571017" lon="9.2557367"><ele>232.0</ele><time>2026-04-25T05:51:04.227Z</time></trkpt><trkpt lat="45.6570717" lon="9.25583"><ele>231.99999999999997</ele><time>2026-04-25T05:51:05.227Z</time></trkpt><trkpt lat="45.6570683" lon="9.2559217"><ele>232.0</ele><time>2026-04-25T05:51:06.227Z</time></trkpt><trkpt lat="45.6571333" lon="9.2560083"><ele>232.0</ele><time>2026-04-25T05:51:07.228Z</time></trkpt><trkpt lat="45.6571933" lon="9.2560917"><ele>232.0</ele><time>2026-04-25T05:51:08.228Z</time></trkpt><trkpt lat="45.6572567" lon="9.2561883"><ele>231.99999999999997</ele><time>2026-04-25T05:51:09.229Z</time></trkpt><trkpt lat="45.6573367" lon="9.2562983"><ele>232.0</ele><time>2026-04-25T05:51:10.228Z</time></trkpt><trkpt lat="45.6574183" lon="9.2564167"><ele>232.2</ele><time>2026-04-25T05:51:11.228Z</time></trkpt><trkpt lat="45.6574983" lon="9.256535"><ele>232.39999999999998</ele><time>2026-04-25T05:51:12.23Z</time></trkpt><trkpt lat="45.657575" lon="9.256645"><ele>232.60000000000002</ele><time>2026-04-25T05:51:13.229Z</time></trkpt><trkpt lat="45.657655" lon="9.2567583"><ele>232.8</ele><time>2026-04-25T05:51:14.227Z</time></trkpt><trkpt lat="45.6577233" lon="9.2568583"><ele>233.0</ele><time>2026-04-25T05:51:15.229Z</time></trkpt><trkpt lat="45.657785" lon="9.25695"><ele>233.0</ele><time>2026-04-25T05:51:16.228Z</time></trkpt><trkpt lat="45.6578467" lon="9.2570367"><ele>233.0</ele><time>2026-04-25T05:51:17.228Z</time></trkpt><trkpt lat="45.6579067" lon="9.2571267"><ele>233.0</ele><time>2026-04-25T05:51:18.229Z</time></trkpt><trkpt lat="45.6579767" lon="9.25722"><ele>233.0</ele><time>2026-04-25T05:51:19.229Z</time></trkpt><trkpt lat="45.6580517" lon="9.25732"><ele>233.0</ele><time>2026-04-25T05:51:20.228Z</time></trkpt><trkpt lat="45.6581267" lon="9.2574333"><ele>233.25</ele><time>2026-04-25T05:51:21.228Z</time></trkpt><trkpt lat="45.6582033" lon="9.2575567"><ele>233.5</ele><time>2026-04-25T05:51:22.229Z</time></trkpt><trkpt lat="45.6582867" lon="9.2576883"><ele>233.75</ele><time>2026-04-25T05:51:23.228Z</time></trkpt><trkpt lat="45.6583817" lon="9.257825"><ele>234.0</ele><time>2026-04-25T05:51:24.23Z</time></trkpt><trkpt lat="45.6584767" lon="9.257965"><ele>234.0</ele><time>2026-04-25T05:51:25.227Z</time></trkpt><trkpt lat="45.6585733" lon="9.258105"><ele>234.0</ele><time>2026-04-25T05:51:26.23Z</time></trkpt><trkpt lat="45.6586717" lon="9.2582467"><ele>234.0</ele><time>2026-04-25T05:51:27.229Z</time></trkpt><trkpt lat="45.6587683" lon="9.2583833"><ele>234.0</ele><time>2026-04-25T05:51:28.229Z</time></trkpt><trkpt lat="45.658855" lon="9.25851"><ele>233.79999999999998</ele><time>2026-04-25T05:51:29.229Z</time></trkpt><trkpt lat="45.6589367" lon="9.2586367"><ele>233.59999999999997</ele><time>2026-04-25T05:51:30.229Z</time></trkpt><trkpt lat="45.6590133" lon="9.2587567"><ele>233.4</ele><time>2026-04-25T05:51:31.229Z</time></trkpt><trkpt lat="45.65908" lon="9.25886"><ele>233.2</ele><time>2026-04-25T05:51:32.231Z</time></trkpt><trkpt lat="45.6591367" lon="9.25895"><ele>233.0</ele><time>2026-04-25T05:51:33.228Z</time></trkpt><trkpt lat="45.6591833" lon="9.2590417"><ele>232.16666666666669</ele><time>2026-04-25T05:51:34.229Z</time></trkpt><trkpt lat="45.6592167" lon="9.2591417"><ele>231.33333333333334</ele><time>2026-04-25T05:51:35.227Z</time></trkpt><trkpt lat="45.65922" lon="9.25924"><ele>230.5</ele><time>2026-04-25T05:51:36.229Z</time></trkpt><trkpt lat="45.6591917" lon="9.2593383"><ele>229.66666666666669</ele><time>2026-04-25T05:51:37.227Z</time></trkpt><trkpt lat="45.6591367" lon="9.2594167"><ele>228.83333333333334</ele><time>2026-04-25T05:51:38.227Z</time></trkpt><trkpt lat="45.659075" lon="9.2594833"><ele>228.0</ele><time>2026-04-25T05:51:39.229Z</time></trkpt><trkpt lat="45.6590067" lon="9.25955"><ele>228.0</ele><time>2026-04-25T05:51:40.228Z</time></trkpt><trkpt lat="45.658945" lon="9.25962"><ele>228.0</ele><time>2026-04-25T05:51:41.228Z</time></trkpt><trkpt lat="45.658905" lon="9.2596917"><ele>228.0</ele><time>2026-04-25T05:51:42.227Z</time></trkpt><trkpt lat="45.6589267" lon="9.25981"><ele>228.0</ele><time>2026-04-25T05:51:44.229Z</time></trkpt><trkpt lat="45.65904" lon="9.2598367"><ele>228.0</ele><time>2026-04-25T05:51:46.227Z</time></trkpt><trkpt lat="45.6591083" lon="9.2597483"><ele>228.0</ele><time>2026-04-25T05:51:47.229Z</time></trkpt><trkpt lat="45.6591717" lon="9.259635"><ele>228.0</ele><time>2026-04-25T05:51:48.227Z</time></trkpt><trkpt lat="45.65924" lon="9.2595117"><ele>228.0</ele><time>2026-04-25T05:51:49.23Z</time></trkpt><trkpt lat="45.6593083" lon="9.2593967"><ele>228.0</ele><time>2026-04-25T05:51:50.23Z</time></trkpt><trkpt lat="45.6593717" lon="9.2592917"><ele>228.0</ele><time>2026-04-25T05:51:51.229Z</time></trkpt><trkpt lat="45.6594317" lon="9.2591917"><ele>228.0</ele><time>2026-04-25T05:51:52.229Z</time></trkpt><trkpt lat="45.6594883" lon="9.2591017"><ele>226.16666666666666</ele><time>2026-04-25T05:51:53.229Z</time></trkpt><trkpt lat="45.65954" lon="9.25903"><ele>224.33333333333331</ele><time>2026-04-25T05:51:54.229Z</time></trkpt><trkpt lat="45.6596333" lon="9.258995"><ele>222.5</ele><time>2026-04-25T05:51:56.23Z</time></trkpt><trkpt lat="45.6596867" lon="9.2591"><ele>220.66666666666666</ele><time>2026-04-25T05:51:58.23Z</time></trkpt><trkpt lat="45.6596683" lon="9.2591883"><ele>218.83333333333331</ele><time>2026-04-25T05:51:59.229Z</time></trkpt><trkpt lat="45.6596117" lon="9.259285"><ele>217.0</ele><time>2026-04-25T05:52:00.227Z</time></trkpt><trkpt lat="45.65955" lon="9.2593767"><ele>217.0</ele><time>2026-04-25T05:52:01.228Z</time></trkpt><trkpt lat="45.6594767" lon="9.2594833"><ele>217.0</ele><time>2026-04-25T05:52:02.228Z</time></trkpt><trkpt lat="45.6593867" lon="9.2596083"><ele>217.0</ele><time>2026-04-25T05:52:03.228Z</time></trkpt><trkpt lat="45.6592983" lon="9.259735"><ele>217.0</ele><time>2026-04-25T05:52:04.227Z</time></trkpt><trkpt lat="45.659215" lon="9.259855"><ele>216.8</ele><time>2026-04-25T05:52:05.227Z</time></trkpt><trkpt lat="45.6591367" lon="9.2599667"><ele>216.6</ele><time>2026-04-25T05:52:06.227Z</time></trkpt><trkpt lat="45.6590617" lon="9.2600733"><ele>216.40000000000003</ele><time>2026-04-25T05:52:07.229Z</time></trkpt><trkpt lat="45.658995" lon="9.2601683"><ele>216.20000000000002</ele><time>2026-04-25T05:52:08.227Z</time></trkpt><trkpt lat="45.6589367" lon="9.2602533"><ele>216.0</ele><time>2026-04-25T05:52:09.229Z</time></trkpt><trkpt lat="45.6588917" lon="9.2603217"><ele>216.0</ele><time>2026-04-25T05:52:10.228Z</time></trkpt><trkpt lat="45.6588317" lon="9.2604117"><ele>216.00000000000003</ele><time>2026-04-25T05:52:12.231Z</time></trkpt><trkpt lat="45.658755" lon="9.2604867"><ele>216.00000000000003</ele><time>2026-04-25T05:52:45.228Z</time></trkpt><trkpt lat="45.6586967" lon="9.26057"><ele>216.0</ele><time>2026-04-25T05:52:47.228Z</time></trkpt><trkpt lat="45.6586383" lon="9.2607067"><ele>216.0</ele><time>2026-04-25T05:52:49.228Z</time></trkpt><trkpt lat="45.6586417" lon="9.2608517"><ele>216.0</ele><time>2026-04-25T05:52:51.228Z</time></trkpt><trkpt lat="45.6587233" lon="9.2609217"><ele>216.00000000000003</ele><time>2026-04-25T05:52:53.229Z</time></trkpt><trkpt lat="45.65884" lon="9.260875"><ele>216.00000000000003</ele><time>2026-04-25T05:52:55.229Z</time></trkpt><trkpt lat="45.6588933" lon="9.2607883"><ele>216.0</ele><time>2026-04-25T05:52:56.229Z</time></trkpt><trkpt lat="45.6589467" lon="9.2606983"><ele>216.0</ele><time>2026-04-25T05:52:57.23Z</time></trkpt><trkpt lat="45.6590133" lon="9.2605883"><ele>216.0</ele><time>2026-04-25T05:52:58.228Z</time></trkpt><trkpt lat="45.6591" lon="9.2604617"><ele>216.0</ele><time>2026-04-25T05:52:59.227Z</time></trkpt><trkpt lat="45.6592067" lon="9.2603233"><ele>216.0</ele><time>2026-04-25T05:53:00.227Z</time></trkpt><trkpt lat="45.65933" lon="9.2601817"><ele>216.0</ele><time>2026-04-25T05:53:01.23Z</time></trkpt><trkpt lat="45.659455" lon="9.2600633"><ele>216.25</ele><time>2026-04-25T05:53:02.228Z</time></trkpt><trkpt lat="45.65957" lon="9.2599667"><ele>216.5</ele><time>2026-04-25T05:53:03.227Z</time></trkpt><trkpt lat="45.659695" lon="9.259885"><ele>216.75</ele><time>2026-04-25T05:53:04.228Z</time></trkpt><trkpt lat="45.659825" lon="9.2598017"><ele>217.0</ele><time>2026-04-25T05:53:05.227Z</time></trkpt><trkpt lat="45.6599483" lon="9.2597283"><ele>217.0</ele><time>2026-04-25T05:53:06.229Z</time></trkpt><trkpt lat="45.6600567" lon="9.2596533"><ele>217.0</ele><time>2026-04-25T05:53:07.228Z</time></trkpt><trkpt lat="45.6601617" lon="9.2595867"><ele>217.0</ele><time>2026-04-25T05:53:08.228Z</time></trkpt><trkpt lat="45.6602733" lon="9.2595183"><ele>217.0</ele><time>2026-04-25T05:53:09.229Z</time></trkpt><trkpt lat="45.6603683" lon="9.2594633"><ele>215.39999999999998</ele><time>2026-04-25T05:53:10.227Z</time></trkpt><trkpt lat="45.660465" lon="9.2594283"><ele>213.79999999999998</ele><time>2026-04-25T05:53:11.227Z</time></trkpt><trkpt lat="45.66057" lon="9.25941"><ele>212.2</ele><time>2026-04-25T05:53:12.228Z</time></trkpt><trkpt lat="45.6606617" lon="9.25943"><ele>210.6</ele><time>2026-04-25T05:53:13.228Z</time></trkpt><trkpt lat="45.6607433" lon="9.259485"><ele>209.0</ele><time>2026-04-25T05:53:14.228Z</time></trkpt><trkpt lat="45.6608067" lon="9.2595567"><ele>209.00000000000003</ele><time>2026-04-25T05:53:15.228Z</time></trkpt><trkpt lat="45.6608517" lon="9.25964"><ele>209.0</ele><time>2026-04-25T05:53:16.228Z</time></trkpt><trkpt lat="45.6608917" lon="9.25974"><ele>209.0</ele><time>2026-04-25T05:53:17.229Z</time></trkpt><trkpt lat="45.6609217" lon="9.2598517"><ele>209.0</ele><time>2026-04-25T05:53:18.228Z</time></trkpt><trkpt lat="45.6609433" lon="9.25997"><ele>209.00000000000003</ele><time>2026-04-25T05:53:19.227Z</time></trkpt><trkpt lat="45.66096" lon="9.2600867"><ele>209.0</ele><time>2026-04-25T05:53:20.229Z</time></trkpt><trkpt lat="45.660965" lon="9.260205"><ele>208.6</ele><time>2026-04-25T05:53:21.229Z</time></trkpt><trkpt lat="45.660955" lon="9.2603317"><ele>208.2</ele><time>2026-04-25T05:53:22.227Z</time></trkpt><trkpt lat="45.660925" lon="9.260465"><ele>207.79999999999998</ele><time>2026-04-25T05:53:23.229Z</time></trkpt><trkpt lat="45.6608667" lon="9.26059"><ele>207.39999999999998</ele><time>2026-04-25T05:53:24.229Z</time></trkpt><trkpt lat="45.6607833" lon="9.2607117"><ele>207.0</ele><time>2026-04-25T05:53:25.23Z</time></trkpt><trkpt lat="45.6606867" lon="9.2608267"><ele>207.0</ele><time>2026-04-25T05:53:26.23Z</time></trkpt><trkpt lat="45.6605767" lon="9.26094"><ele>207.0</ele><time>2026-04-25T05:53:27.229Z</time></trkpt><trkpt lat="45.6604633" lon="9.2610583"><ele>207.0</ele><time>2026-04-25T05:53:28.228Z</time></trkpt><trkpt lat="45.660345" lon="9.2611867"><ele>207.0</ele><time>2026-04-25T05:53:29.227Z</time></trkpt><trkpt lat="45.6602333" lon="9.26131"><ele>207.25</ele><time>2026-04-25T05:53:30.23Z</time></trkpt><trkpt lat="45.6601283" lon="9.2614217"><ele>207.5</ele><time>2026-04-25T05:53:31.227Z</time></trkpt><trkpt lat="45.6600333" lon="9.2615233"><ele>207.75</ele><time>2026-04-25T05:53:32.228Z</time></trkpt><trkpt lat="45.6599433" lon="9.2616217"><ele>208.0</ele><time>2026-04-25T05:53:33.227Z</time></trkpt><trkpt lat="45.6598533" lon="9.2617167"><ele>207.99999999999997</ele><time>2026-04-25T05:53:34.228Z</time></trkpt><trkpt lat="45.6597783" lon="9.2618133"><ele>208.0</ele><time>2026-04-25T05:53:35.229Z</time></trkpt><trkpt lat="45.65971" lon="9.261905"><ele>208.0</ele><time>2026-04-25T05:53:36.229Z</time></trkpt><trkpt lat="45.6596483" lon="9.261995"><ele>208.0</ele><time>2026-04-25T05:53:37.229Z</time></trkpt><trkpt lat="45.6596017" lon="9.262085"><ele>207.99999999999997</ele><time>2026-04-25T05:53:38.23Z</time></trkpt><trkpt lat="45.6595717" lon="9.2621733"><ele>208.0</ele><time>2026-04-25T05:53:39.229Z</time></trkpt><trkpt lat="45.659575" lon="9.26233"><ele>207.99999999999997</ele><time>2026-04-25T05:53:41.229Z</time></trkpt><trkpt lat="45.6596767" lon="9.2623417"><ele>208.0</ele><time>2026-04-25T05:53:43.227Z</time></trkpt><trkpt lat="45.6597383" lon="9.262285"><ele>208.0</ele><time>2026-04-25T05:53:44.231Z</time></trkpt><trkpt lat="45.6598017" lon="9.2622217"><ele>208.0</ele><time>2026-04-25T05:53:45.23Z</time></trkpt><trkpt lat="45.659865" lon="9.26215"><ele>207.99999999999997</ele><time>2026-04-25T05:53:46.229Z</time></trkpt><trkpt lat="45.65993" lon="9.2620767"><ele>208.0</ele><time>2026-04-25T05:53:47.227Z</time></trkpt><trkpt lat="45.6600017" lon="9.2620017"><ele>208.0</ele><time>2026-04-25T05:53:48.227Z</time></trkpt><trkpt lat="45.6600783" lon="9.261925"><ele>208.0</ele><time>2026-04-25T05:53:49.227Z</time></trkpt><trkpt lat="45.6601583" lon="9.2618567"><ele>208.0</ele><time>2026-04-25T05:53:50.228Z</time></trkpt><trkpt lat="45.660245" lon="9.261815"><ele>208.0</ele><time>2026-04-25T05:53:51.23Z</time></trkpt><trkpt lat="45.660335" lon="9.26181"><ele>208.0</ele><time>2026-04-25T05:53:52.229Z</time></trkpt><trkpt lat="45.6604183" lon="9.26185"><ele>210.75</ele><time>2026-04-25T05:53:53.229Z</time></trkpt><trkpt lat="45.6604983" lon="9.2619517"><ele>213.5</ele><time>2026-04-25T05:53:54.23Z</time></trkpt><trkpt lat="45.6605717" lon="9.2620967"><ele>216.25</ele><time>2026-04-25T05:53:55.229Z</time></trkpt><trkpt lat="45.6606417" lon="9.262255"><ele>219.0</ele><time>2026-04-25T05:53:56.232Z</time></trkpt><trkpt lat="45.6607083" lon="9.26242"><ele>220.0</ele><time>2026-04-25T05:53:57.229Z</time></trkpt><trkpt lat="45.66077" lon="9.26258"><ele>221.0</ele><time>2026-04-25T05:53:58.228Z</time></trkpt><trkpt lat="45.6608333" lon="9.2627483"><ele>222.0</ele><time>2026-04-25T05:53:59.227Z</time></trkpt><trkpt lat="45.6608933" lon="9.2629183"><ele>223.0</ele><time>2026-04-25T05:54:00.228Z</time></trkpt><trkpt lat="45.6609583" lon="9.2630733"><ele>223.2</ele><time>2026-04-25T05:54:01.228Z</time></trkpt><trkpt lat="45.6610167" lon="9.26323"><ele>223.4</ele><time>2026-04-25T05:54:02.229Z</time></trkpt><trkpt lat="45.661075" lon="9.2633783"><ele>223.59999999999997</ele><time>2026-04-25T05:54:03.229Z</time></trkpt><trkpt lat="45.661125" lon="9.2635067"><ele>223.79999999999998</ele><time>2026-04-25T05:54:04.229Z</time></trkpt><trkpt lat="45.6611633" lon="9.2636317"><ele>224.0</ele><time>2026-04-25T05:54:05.228Z</time></trkpt><trkpt lat="45.6611917" lon="9.2637633"><ele>224.0</ele><time>2026-04-25T05:54:06.227Z</time></trkpt><trkpt lat="45.6612017" lon="9.2639033"><ele>223.99999999999997</ele><time>2026-04-25T05:54:07.228Z</time></trkpt><trkpt lat="45.6611967" lon="9.2640467"><ele>223.99999999999997</ele><time>2026-04-25T05:54:08.227Z</time></trkpt><trkpt lat="45.6611667" lon="9.2641717"><ele>224.0</ele><time>2026-04-25T05:54:09.229Z</time></trkpt><trkpt lat="45.6611133" lon="9.26428"><ele>224.0</ele><time>2026-04-25T05:54:10.228Z</time></trkpt><trkpt lat="45.6610383" lon="9.2643867"><ele>223.75</ele><time>2026-04-25T05:54:11.228Z</time></trkpt><trkpt lat="45.6609467" lon="9.2644883"><ele>223.5</ele><time>2026-04-25T05:54:12.228Z</time></trkpt><trkpt lat="45.6608433" lon="9.26457"><ele>223.25</ele><time>2026-04-25T05:54:13.228Z</time></trkpt><trkpt lat="45.6607267" lon="9.2646433"><ele>223.0</ele><time>2026-04-25T05:54:14.228Z</time></trkpt><trkpt lat="45.6606017" lon="9.2647167"><ele>223.0</ele><time>2026-04-25T05:54:15.228Z</time></trkpt><trkpt lat="45.660475" lon="9.2647983"><ele>223.0</ele><time>2026-04-25T05:54:16.229Z</time></trkpt><trkpt lat="45.660345" lon="9.26489"><ele>223.0</ele><time>2026-04-25T05:54:17.228Z</time></trkpt><trkpt lat="45.66022" lon="9.265"><ele>223.0</ele><time>2026-04-25T05:54:18.228Z</time></trkpt><trkpt lat="45.6600967" lon="9.2651217"><ele>223.0</ele><time>2026-04-25T05:54:19.245Z</time></trkpt><trkpt lat="45.6599783" lon="9.265255"><ele>223.0</ele><time>2026-04-25T05:54:20.227Z</time></trkpt><trkpt lat="45.6598667" lon="9.26539"><ele>223.0</ele><time>2026-04-25T05:54:21.229Z</time></trkpt><trkpt lat="45.6597517" lon="9.26552"><ele>223.0</ele><time>2026-04-25T05:54:22.227Z</time></trkpt><trkpt lat="45.6596383" lon="9.2656567"><ele>222.5</ele><time>2026-04-25T05:54:23.228Z</time></trkpt><trkpt lat="45.659525" lon="9.2657983"><ele>222.0</ele><time>2026-04-25T05:54:24.229Z</time></trkpt><trkpt lat="45.659415" lon="9.2659383"><ele>221.5</ele><time>2026-04-25T05:54:25.227Z</time></trkpt><trkpt lat="45.6593083" lon="9.2660767"><ele>221.0</ele><time>2026-04-25T05:54:26.227Z</time></trkpt><trkpt lat="45.65921" lon="9.2662083"><ele>221.0</ele><time>2026-04-25T05:54:27.227Z</time></trkpt><trkpt lat="45.6591183" lon="9.266335"><ele>221.0</ele><time>2026-04-25T05:54:28.227Z</time></trkpt><trkpt lat="45.6590317" lon="9.2664583"><ele>221.0</ele><time>2026-04-25T05:54:29.227Z</time></trkpt><trkpt lat="45.6589417" lon="9.2665833"><ele>221.0</ele><time>2026-04-25T05:54:30.227Z</time></trkpt><trkpt lat="45.6588483" lon="9.2667083"><ele>221.0</ele><time>2026-04-25T05:54:31.227Z</time></trkpt><trkpt lat="45.6587533" lon="9.26684"><ele>221.0</ele><time>2026-04-25T05:54:32.227Z</time></trkpt><trkpt lat="45.65866" lon="9.2669733"><ele>221.0</ele><time>2026-04-25T05:54:33.229Z</time></trkpt><trkpt lat="45.6585683" lon="9.2671067"><ele>221.0</ele><time>2026-04-25T05:54:34.228Z</time></trkpt><trkpt lat="45.6584733" lon="9.2672483"><ele>221.25</ele><time>2026-04-25T05:54:35.228Z</time></trkpt><trkpt lat="45.6583833" lon="9.26739"><ele>221.5</ele><time>2026-04-25T05:54:36.228Z</time></trkpt><trkpt lat="45.6582933" lon="9.267535"><ele>221.75</ele><time>2026-04-25T05:54:37.227Z</time></trkpt><trkpt lat="45.658205" lon="9.2676817"><ele>222.0</ele><time>2026-04-25T05:54:38.229Z</time></trkpt><trkpt lat="45.65812" lon="9.267825"><ele>222.0</ele><time>2026-04-25T05:54:39.231Z</time></trkpt><trkpt lat="45.6580367" lon="9.2679683"><ele>222.0</ele><time>2026-04-25T05:54:40.228Z</time></trkpt><trkpt lat="45.6579433" lon="9.2681083"><ele>222.0</ele><time>2026-04-25T05:54:41.227Z</time></trkpt><trkpt lat="45.6578467" lon="9.2682467"><ele>222.0</ele><time>2026-04-25T05:54:42.23Z</time></trkpt><trkpt lat="45.65775" lon="9.268385"><ele>220.75</ele><time>2026-04-25T05:54:43.227Z</time></trkpt><trkpt lat="45.6576517" lon="9.26852"><ele>219.5</ele><time>2026-04-25T05:54:44.228Z</time></trkpt><trkpt lat="45.657545" lon="9.2686483"><ele>218.25</ele><time>2026-04-25T05:54:45.239Z</time></trkpt><trkpt lat="45.6574333" lon="9.2687733"><ele>217.0</ele><time>2026-04-25T05:54:46.228Z</time></trkpt><trkpt lat="45.6573133" lon="9.2688933"><ele>217.66666666666666</ele><time>2026-04-25T05:54:47.227Z</time></trkpt><trkpt lat="45.6571867" lon="9.2690067"><ele>218.33333333333331</ele><time>2026-04-25T05:54:48.227Z</time></trkpt><trkpt lat="45.6570517" lon="9.2691083"><ele>219.0</ele><time>2026-04-25T05:54:49.227Z</time></trkpt><trkpt lat="45.6569117" lon="9.269205"><ele>219.0</ele><time>2026-04-25T05:54:50.227Z</time></trkpt><trkpt lat="45.6567683" lon="9.26929"><ele>219.0</ele><time>2026-04-25T05:54:51.227Z</time></trkpt><trkpt lat="45.6566267" lon="9.269365"><ele>219.0</ele><time>2026-04-25T05:54:52.227Z</time></trkpt><trkpt lat="45.656485" lon="9.2694433"><ele>219.0</ele><time>2026-04-25T05:54:53.228Z</time></trkpt><trkpt lat="45.6563467" lon="9.26952"><ele>219.0</ele><time>2026-04-25T05:54:54.227Z</time></trkpt><trkpt lat="45.6562117" lon="9.26959"><ele>219.0</ele><time>2026-04-25T05:54:55.228Z</time></trkpt><trkpt lat="45.656075" lon="9.2696667"><ele>219.0</ele><time>2026-04-25T05:54:56.228Z</time></trkpt><trkpt lat="45.65594" lon="9.2697433"><ele>219.25</ele><time>2026-04-25T05:54:57.228Z</time></trkpt><trkpt lat="45.6558083" lon="9.2698217"><ele>219.5</ele><time>2026-04-25T05:54:58.227Z</time></trkpt><trkpt lat="45.6556767" lon="9.269895"><ele>219.75</ele><time>2026-04-25T05:54:59.228Z</time></trkpt><trkpt lat="45.6555433" lon="9.2699683"><ele>220.0</ele><time>2026-04-25T05:55:00.23Z</time></trkpt><trkpt lat="45.6554133" lon="9.270045"><ele>219.0</ele><time>2026-04-25T05:55:01.23Z</time></trkpt><trkpt lat="45.655285" lon="9.270125"><ele>218.0</ele><time>2026-04-25T05:55:02.229Z</time></trkpt><trkpt lat="45.6551583" lon="9.2702133"><ele>217.0</ele><time>2026-04-25T05:55:03.227Z</time></trkpt><trkpt lat="45.655035" lon="9.2703117"><ele>216.0</ele><time>2026-04-25T05:55:04.228Z</time></trkpt><trkpt lat="45.6549133" lon="9.270425"><ele>216.0</ele><time>2026-04-25T05:55:05.229Z</time></trkpt><trkpt lat="45.6547917" lon="9.2705483"><ele>216.0</ele><time>2026-04-25T05:55:06.229Z</time></trkpt><trkpt lat="45.6546767" lon="9.2706833"><ele>216.0</ele><time>2026-04-25T05:55:07.228Z</time></trkpt><trkpt lat="45.654565" lon="9.270825"><ele>216.0</ele><time>2026-04-25T05:55:08.229Z</time></trkpt><trkpt lat="45.6544633" lon="9.2709783"><ele>216.0</ele><time>2026-04-25T05:55:09.228Z</time></trkpt><trkpt lat="45.6543633" lon="9.2711317"><ele>216.0</ele><time>2026-04-25T05:55:10.229Z</time></trkpt><trkpt lat="45.6542717" lon="9.2712883"><ele>216.0</ele><time>2026-04-25T05:55:11.227Z</time></trkpt><trkpt lat="45.6541833" lon="9.2714633"><ele>216.0</ele><time>2026-04-25T05:55:12.228Z</time></trkpt><trkpt lat="45.6540967" lon="9.2716633"><ele>216.0</ele><time>2026-04-25T05:55:13.228Z</time></trkpt><trkpt lat="45.6540117" lon="9.2718883"><ele>216.0</ele><time>2026-04-25T05:55:14.227Z</time></trkpt><trkpt lat="45.6539167" lon="9.272135"><ele>216.0</ele><time>2026-04-25T05:55:15.228Z</time></trkpt><trkpt lat="45.6538133" lon="9.2723983"><ele>216.66666666666669</ele><time>2026-04-25T05:55:16.229Z</time></trkpt><trkpt lat="45.653695" lon="9.2726683"><ele>217.33333333333334</ele><time>2026-04-25T05:55:17.228Z</time></trkpt><trkpt lat="45.6535667" lon="9.272935"><ele>218.0</ele><time>2026-04-25T05:55:18.228Z</time></trkpt><trkpt lat="45.6534433" lon="9.27318"><ele>214.33333333333334</ele><time>2026-04-25T05:55:19.227Z</time></trkpt><trkpt lat="45.6533283" lon="9.2734067"><ele>210.66666666666669</ele><time>2026-04-25T05:55:20.23Z</time></trkpt><trkpt lat="45.6532267" lon="9.2736133"><ele>207.0</ele><time>2026-04-25T05:55:21.23Z</time></trkpt><trkpt lat="45.653135" lon="9.2737983"><ele>208.25</ele><time>2026-04-25T05:55:22.228Z</time></trkpt><trkpt lat="45.6530517" lon="9.2739717"><ele>209.5</ele><time>2026-04-25T05:55:23.229Z</time></trkpt><trkpt lat="45.6529733" lon="9.2741333"><ele>210.75</ele><time>2026-04-25T05:55:24.228Z</time></trkpt><trkpt lat="45.6528967" lon="9.2742867"><ele>212.0</ele><time>2026-04-25T05:55:25.23Z</time></trkpt><trkpt lat="45.6528167" lon="9.2744367"><ele>212.5</ele><time>2026-04-25T05:55:26.229Z</time></trkpt><trkpt lat="45.652735" lon="9.2745783"><ele>213.0</ele><time>2026-04-25T05:55:27.23Z</time></trkpt><trkpt lat="45.6526567" lon="9.2747117"><ele>213.5</ele><time>2026-04-25T05:55:28.228Z</time></trkpt><trkpt lat="45.6525767" lon="9.274845"><ele>214.0</ele><time>2026-04-25T05:55:29.23Z</time></trkpt><trkpt lat="45.6524933" lon="9.27498"><ele>214.0</ele><time>2026-04-25T05:55:30.227Z</time></trkpt><trkpt lat="45.65241" lon="9.27512"><ele>214.0</ele><time>2026-04-25T05:55:31.227Z</time></trkpt><trkpt lat="45.652325" lon="9.2752567"><ele>214.0</ele><time>2026-04-25T05:55:32.227Z</time></trkpt><trkpt lat="45.652245" lon="9.275385"><ele>214.0</ele><time>2026-04-25T05:55:33.229Z</time></trkpt><trkpt lat="45.6521683" lon="9.27551"><ele>214.39999999999998</ele><time>2026-04-25T05:55:34.231Z</time></trkpt><trkpt lat="45.6520983" lon="9.27563"><ele>214.79999999999998</ele><time>2026-04-25T05:55:35.228Z</time></trkpt><trkpt lat="45.652035" lon="9.2757533"><ele>215.20000000000002</ele><time>2026-04-25T05:55:36.228Z</time></trkpt><trkpt lat="45.651985" lon="9.2758883"><ele>215.60000000000002</ele><time>2026-04-25T05:55:37.229Z</time></trkpt><trkpt lat="45.651955" lon="9.2760367"><ele>216.0</ele><time>2026-04-25T05:55:38.23Z</time></trkpt><trkpt lat="45.65194" lon="9.2761967"><ele>215.20000000000002</ele><time>2026-04-25T05:55:39.229Z</time></trkpt><trkpt lat="45.6519333" lon="9.27636"><ele>214.40000000000003</ele><time>2026-04-25T05:55:40.228Z</time></trkpt><trkpt lat="45.65193" lon="9.2765167"><ele>213.6</ele><time>2026-04-25T05:55:41.228Z</time></trkpt><trkpt lat="45.651925" lon="9.2766633"><ele>212.8</ele><time>2026-04-25T05:55:42.229Z</time></trkpt><trkpt lat="45.6519117" lon="9.2768"><ele>212.0</ele><time>2026-04-25T05:55:43.227Z</time></trkpt><trkpt lat="45.6518833" lon="9.276925"><ele>212.0</ele><time>2026-04-25T05:55:44.228Z</time></trkpt><trkpt lat="45.6518367" lon="9.2770467"><ele>212.0</ele><time>2026-04-25T05:55:45.228Z</time></trkpt><trkpt lat="45.6517733" lon="9.2771517"><ele>212.0</ele><time>2026-04-25T05:55:46.227Z</time></trkpt><trkpt lat="45.651695" lon="9.2772433"><ele>212.0</ele><time>2026-04-25T05:55:47.228Z</time></trkpt><trkpt lat="45.6516083" lon="9.2773267"><ele>212.0</ele><time>2026-04-25T05:55:48.227Z</time></trkpt><trkpt lat="45.65152" lon="9.2774133"><ele>211.75</ele><time>2026-04-25T05:55:49.228Z</time></trkpt><trkpt lat="45.6514283" lon="9.2775033"><ele>211.5</ele><time>2026-04-25T05:55:50.228Z</time></trkpt><trkpt lat="45.6513283" lon="9.2775967"><ele>211.25</ele><time>2026-04-25T05:55:51.227Z</time></trkpt><trkpt lat="45.6512217" lon="9.27769"><ele>211.0</ele><time>2026-04-25T05:55:52.229Z</time></trkpt><trkpt lat="45.651115" lon="9.27779"><ele>211.0</ele><time>2026-04-25T05:55:53.228Z</time></trkpt><trkpt lat="45.6510067" lon="9.2778917"><ele>211.0</ele><time>2026-04-25T05:55:54.228Z</time></trkpt><trkpt lat="45.6509033" lon="9.277985"><ele>211.0</ele><time>2026-04-25T05:55:55.228Z</time></trkpt><trkpt lat="45.650805" lon="9.2780783"><ele>211.0</ele><time>2026-04-25T05:55:56.227Z</time></trkpt><trkpt lat="45.65071" lon="9.2781833"><ele>211.0</ele><time>2026-04-25T05:55:57.227Z</time></trkpt><trkpt lat="45.6506217" lon="9.27831"><ele>211.0</ele><time>2026-04-25T05:55:58.228Z</time></trkpt><trkpt lat="45.650535" lon="9.278455"><ele>211.0</ele><time>2026-04-25T05:55:59.227Z</time></trkpt><trkpt lat="45.65045" lon="9.2786033"><ele>211.0</ele><time>2026-04-25T05:56:00.228Z</time></trkpt><trkpt lat="45.650365" lon="9.27875"><ele>209.75</ele><time>2026-04-25T05:56:01.229Z</time></trkpt><trkpt lat="45.6502833" lon="9.2788983"><ele>208.5</ele><time>2026-04-25T05:56:02.227Z</time></trkpt><trkpt lat="45.6502017" lon="9.2790483"><ele>207.25</ele><time>2026-04-25T05:56:03.227Z</time></trkpt><trkpt lat="45.6501217" lon="9.27919"><ele>206.0</ele><time>2026-04-25T05:56:04.228Z</time></trkpt><trkpt lat="45.65004" lon="9.2793317"><ele>206.0</ele><time>2026-04-25T05:56:05.228Z</time></trkpt><trkpt lat="45.64995" lon="9.2794667"><ele>206.0</ele><time>2026-04-25T05:56:06.227Z</time></trkpt><trkpt lat="45.64985" lon="9.279595"><ele>206.0</ele><time>2026-04-25T05:56:07.227Z</time></trkpt><trkpt lat="45.6497417" lon="9.2797233"><ele>206.0</ele><time>2026-04-25T05:56:08.228Z</time></trkpt><trkpt lat="45.649635" lon="9.2798467"><ele>205.25</ele><time>2026-04-25T05:56:09.227Z</time></trkpt><trkpt lat="45.6495283" lon="9.2799667"><ele>204.5</ele><time>2026-04-25T05:56:10.229Z</time></trkpt><trkpt lat="45.649425" lon="9.2800783"><ele>203.75</ele><time>2026-04-25T05:56:11.228Z</time></trkpt><trkpt lat="45.64933" lon="9.28018"><ele>203.0</ele><time>2026-04-25T05:56:12.228Z</time></trkpt><trkpt lat="45.64924" lon="9.2802817"><ele>202.0</ele><time>2026-04-25T05:56:13.227Z</time></trkpt><trkpt lat="45.6491483" lon="9.2803983"><ele>201.0</ele><time>2026-04-25T05:56:14.227Z</time></trkpt><trkpt lat="45.649075" lon="9.2805267"><ele>200.0</ele><time>2026-04-25T05:56:15.23Z</time></trkpt><trkpt lat="45.6490167" lon="9.2806683"><ele>199.0</ele><time>2026-04-25T05:56:16.228Z</time></trkpt><trkpt lat="45.6489683" lon="9.2808217"><ele>198.79999999999998</ele><time>2026-04-25T05:56:17.229Z</time></trkpt><trkpt lat="45.6489267" lon="9.2809767"><ele>198.6</ele><time>2026-04-25T05:56:18.229Z</time></trkpt><trkpt lat="45.6488883" lon="9.2811333"><ele>198.4</ele><time>2026-04-25T05:56:19.229Z</time></trkpt><trkpt lat="45.6488483" lon="9.281285"><ele>198.2</ele><time>2026-04-25T05:56:20.232Z</time></trkpt><trkpt lat="45.648815" lon="9.2814217"><ele>198.0</ele><time>2026-04-25T05:56:21.229Z</time></trkpt><trkpt lat="45.6487917" lon="9.281535"><ele>198.5</ele><time>2026-04-25T05:56:22.229Z</time></trkpt><trkpt lat="45.648775" lon="9.28163"><ele>199.0</ele><time>2026-04-25T05:56:23.227Z</time></trkpt><trkpt lat="45.6487383" lon="9.28178"><ele>199.5</ele><time>2026-04-25T05:56:25.23Z</time></trkpt><trkpt lat="45.64866" lon="9.2818633"><ele>200.0</ele><time>2026-04-25T05:56:27.227Z</time></trkpt><trkpt lat="45.64859" lon="9.281875"><ele>200.5</ele><time>2026-04-25T05:56:28.227Z</time></trkpt><trkpt lat="45.6485317" lon="9.2819167"><ele>201.0</ele><time>2026-04-25T05:56:29.227Z</time></trkpt><trkpt lat="45.6484683" lon="9.2819633"><ele>198.75</ele><time>2026-04-25T05:56:30.227Z</time></trkpt><trkpt lat="45.6484267" lon="9.282075"><ele>196.5</ele><time>2026-04-25T05:56:31.227Z</time></trkpt><trkpt lat="45.648395" lon="9.2822233"><ele>194.25</ele><time>2026-04-25T05:56:32.227Z</time></trkpt><trkpt lat="45.6483517" lon="9.2824167"><ele>192.0</ele><time>2026-04-25T05:56:33.228Z</time></trkpt><trkpt lat="45.6482983" lon="9.2826317"><ele>192.0</ele><time>2026-04-25T05:56:34.229Z</time></trkpt><trkpt lat="45.6482417" lon="9.2828417"><ele>192.0</ele><time>2026-04-25T05:56:35.227Z</time></trkpt><trkpt lat="45.6481883" lon="9.28304"><ele>192.0</ele><time>2026-04-25T05:56:36.228Z</time></trkpt><trkpt lat="45.648135" lon="9.2832233"><ele>192.0</ele><time>2026-04-25T05:56:37.227Z</time></trkpt><trkpt lat="45.6480833" lon="9.2834"><ele>193.5</ele><time>2026-04-25T05:56:38.228Z</time></trkpt><trkpt lat="45.648035" lon="9.28358"><ele>195.0</ele><time>2026-04-25T05:56:39.228Z</time></trkpt><trkpt lat="45.6479867" lon="9.28376"><ele>196.5</ele><time>2026-04-25T05:56:40.229Z</time></trkpt><trkpt lat="45.6479367" lon="9.2839333"><ele>198.0</ele><time>2026-04-25T05:56:41.229Z</time></trkpt><trkpt lat="45.6478833" lon="9.2840967"><ele>198.4</ele><time>2026-04-25T05:56:42.227Z</time></trkpt><trkpt lat="45.6478217" lon="9.284245"><ele>198.8</ele><time>2026-04-25T05:56:43.227Z</time></trkpt><trkpt lat="45.6477717" lon="9.2843767"><ele>199.2</ele><time>2026-04-25T05:56:44.227Z</time></trkpt><trkpt lat="45.6477483" lon="9.2844983"><ele>199.6</ele><time>2026-04-25T05:56:45.229Z</time></trkpt><trkpt lat="45.647745" lon="9.2846117"><ele>200.0</ele><time>2026-04-25T05:56:46.227Z</time></trkpt><trkpt lat="45.647775" lon="9.2847083"><ele>200.83333333333334</ele><time>2026-04-25T05:56:47.228Z</time></trkpt><trkpt lat="45.6478233" lon="9.2848067"><ele>201.66666666666669</ele><time>2026-04-25T05:56:48.227Z</time></trkpt><trkpt lat="45.64787" lon="9.2849133"><ele>202.5</ele><time>2026-04-25T05:56:49.229Z</time></trkpt><trkpt lat="45.6479033" lon="9.2850283"><ele>203.33333333333331</ele><time>2026-04-25T05:56:50.229Z</time></trkpt><trkpt lat="45.6479183" lon="9.28515"><ele>204.16666666666666</ele><time>2026-04-25T05:56:51.229Z</time></trkpt><trkpt lat="45.6479233" lon="9.2852733"><ele>205.0</ele><time>2026-04-25T05:56:52.23Z</time></trkpt><trkpt lat="45.6479167" lon="9.2854083"><ele>205.0</ele><time>2026-04-25T05:56:53.229Z</time></trkpt><trkpt lat="45.6479033" lon="9.285565"><ele>205.0</ele><time>2026-04-25T05:56:54.229Z</time></trkpt><trkpt lat="45.6478933" lon="9.2857333"><ele>205.0</ele><time>2026-04-25T05:56:55.229Z</time></trkpt><trkpt lat="45.647875" lon="9.285925"><ele>205.0</ele><time>2026-04-25T05:56:56.229Z</time></trkpt><trkpt lat="45.6478467" lon="9.2861267"><ele>204.66666666666666</ele><time>2026-04-25T05:56:57.229Z</time></trkpt><trkpt lat="45.64781" lon="9.28634"><ele>204.33333333333331</ele><time>2026-04-25T05:56:58.227Z</time></trkpt><trkpt lat="45.64777" lon="9.28656"><ele>204.0</ele><time>2026-04-25T05:56:59.227Z</time></trkpt><trkpt lat="45.6477333" lon="9.2867717"><ele>200.33333333333331</ele><time>2026-04-25T05:57:00.228Z</time></trkpt><trkpt lat="45.6477" lon="9.286995"><ele>196.66666666666666</ele><time>2026-04-25T05:57:01.227Z</time></trkpt><trkpt lat="45.6476633" lon="9.2872283"><ele>193.0</ele><time>2026-04-25T05:57:02.229Z</time></trkpt><trkpt lat="45.6476283" lon="9.2874617"><ele>193.0</ele><time>2026-04-25T05:57:03.23Z</time></trkpt><trkpt lat="45.6475967" lon="9.287685"><ele>193.0</ele><time>2026-04-25T05:57:04.228Z</time></trkpt><trkpt lat="45.6475633" lon="9.2878817"><ele>193.0</ele><time>2026-04-25T05:57:05.23Z</time></trkpt><trkpt lat="45.6475267" lon="9.2880617"><ele>193.0</ele><time>2026-04-25T05:57:06.228Z</time></trkpt><trkpt lat="45.6474917" lon="9.28824"><ele>193.0</ele><time>2026-04-25T05:57:07.228Z</time></trkpt><trkpt lat="45.647445" lon="9.2883967"><ele>193.0</ele><time>2026-04-25T05:57:08.23Z</time></trkpt><trkpt lat="45.6473783" lon="9.2885383"><ele>193.0</ele><time>2026-04-25T05:57:09.228Z</time></trkpt><trkpt lat="45.6472883" lon="9.2886567"><ele>193.0</ele><time>2026-04-25T05:57:10.227Z</time></trkpt><trkpt lat="45.6471767" lon="9.2887567"><ele>193.0</ele><time>2026-04-25T05:57:11.228Z</time></trkpt><trkpt lat="45.6470533" lon="9.2888283"><ele>193.0</ele><time>2026-04-25T05:57:12.228Z</time></trkpt><trkpt lat="45.6469217" lon="9.288885"><ele>193.0</ele><time>2026-04-25T05:57:13.227Z</time></trkpt><trkpt lat="45.6467933" lon="9.2889333"><ele>193.0</ele><time>2026-04-25T05:57:14.228Z</time></trkpt><trkpt lat="45.6466583" lon="9.288985"><ele>193.5</ele><time>2026-04-25T05:57:15.227Z</time></trkpt><trkpt lat="45.6465233" lon="9.2890367"><ele>194.0</ele><time>2026-04-25T05:57:16.228Z</time></trkpt><trkpt lat="45.6463883" lon="9.28909"><ele>194.5</ele><time>2026-04-25T05:57:17.227Z</time></trkpt><trkpt lat="45.6462533" lon="9.2891417"><ele>195.0</ele><time>2026-04-25T05:57:18.228Z</time></trkpt><trkpt lat="45.6461233" lon="9.289195"><ele>195.0</ele><time>2026-04-25T05:57:19.228Z</time></trkpt><trkpt lat="45.6459917" lon="9.28925"><ele>195.0</ele><time>2026-04-25T05:57:20.227Z</time></trkpt><trkpt lat="45.6458583" lon="9.2893033"><ele>195.0</ele><time>2026-04-25T05:57:21.23Z</time></trkpt><trkpt lat="45.6457233" lon="9.289355"><ele>195.0</ele><time>2026-04-25T05:57:22.227Z</time></trkpt><trkpt lat="45.645585" lon="9.2894"><ele>195.0</ele><time>2026-04-25T05:57:23.229Z</time></trkpt><trkpt lat="45.6454433" lon="9.2894283"><ele>195.0</ele><time>2026-04-25T05:57:24.229Z</time></trkpt><trkpt lat="45.6452983" lon="9.2894433"><ele>195.0</ele><time>2026-04-25T05:57:25.227Z</time></trkpt><trkpt lat="45.64516" lon="9.289455"><ele>195.0</ele><time>2026-04-25T05:57:26.228Z</time></trkpt><trkpt lat="45.6450167" lon="9.28945"><ele>193.66666666666666</ele><time>2026-04-25T05:57:27.227Z</time></trkpt><trkpt lat="45.6448683" lon="9.2894283"><ele>192.33333333333331</ele><time>2026-04-25T05:57:28.229Z</time></trkpt><trkpt lat="45.64471" lon="9.2893983"><ele>191.0</ele><time>2026-04-25T05:57:29.227Z</time></trkpt><trkpt lat="45.6445483" lon="9.289365"><ele>190.0</ele><time>2026-04-25T05:57:30.228Z</time></trkpt><trkpt lat="45.64438" lon="9.289345"><ele>189.0</ele><time>2026-04-25T05:57:31.227Z</time></trkpt><trkpt lat="45.64421" lon="9.28934"><ele>188.0</ele><time>2026-04-25T05:57:32.228Z</time></trkpt><trkpt lat="45.6440333" lon="9.2893583"><ele>188.0</ele><time>2026-04-25T05:57:33.232Z</time></trkpt><trkpt lat="45.643855" lon="9.2894033"><ele>188.0</ele><time>2026-04-25T05:57:34.227Z</time></trkpt><trkpt lat="45.6436817" lon="9.2894733"><ele>188.0</ele><time>2026-04-25T05:57:35.23Z</time></trkpt><trkpt lat="45.64351" lon="9.2895667"><ele>187.66666666666666</ele><time>2026-04-25T05:57:36.23Z</time></trkpt><trkpt lat="45.64333" lon="9.28967"><ele>187.33333333333334</ele><time>2026-04-25T05:57:37.227Z</time></trkpt><trkpt lat="45.64314" lon="9.2897833"><ele>187.0</ele><time>2026-04-25T05:57:38.229Z</time></trkpt><trkpt lat="45.6429483" lon="9.2899017"><ele>186.33333333333334</ele><time>2026-04-25T05:57:39.229Z</time></trkpt><trkpt lat="45.6427617" lon="9.2900117"><ele>185.66666666666666</ele><time>2026-04-25T05:57:40.227Z</time></trkpt><trkpt lat="45.6425833" lon="9.2901183"><ele>185.0</ele><time>2026-04-25T05:57:41.228Z</time></trkpt><trkpt lat="45.642415" lon="9.2902167"><ele>185.0</ele><time>2026-04-25T05:57:42.228Z</time></trkpt><trkpt lat="45.6422533" lon="9.2903183"><ele>185.0</ele><time>2026-04-25T05:57:43.229Z</time></trkpt><trkpt lat="45.6420983" lon="9.2904133"><ele>185.0</ele><time>2026-04-25T05:57:44.228Z</time></trkpt><trkpt lat="45.64195" lon="9.2904983"><ele>185.25</ele><time>2026-04-25T05:57:45.229Z</time></trkpt><trkpt lat="45.6418117" lon="9.29058"><ele>185.5</ele><time>2026-04-25T05:57:46.229Z</time></trkpt><trkpt lat="45.6416917" lon="9.2906617"><ele>185.75</ele><time>2026-04-25T05:57:47.229Z</time></trkpt><trkpt lat="45.641585" lon="9.2907383"><ele>186.0</ele><time>2026-04-25T05:57:48.227Z</time></trkpt><trkpt lat="45.6414917" lon="9.2908083"><ele>186.20000000000002</ele><time>2026-04-25T05:57:49.229Z</time></trkpt><trkpt lat="45.641415" lon="9.290865"><ele>186.4</ele><time>2026-04-25T05:57:50.228Z</time></trkpt><trkpt lat="45.6413217" lon="9.2909267"><ele>186.6</ele><time>2026-04-25T05:57:52.228Z</time></trkpt><trkpt lat="45.6412383" lon="9.2909867"><ele>186.8</ele><time>2026-04-25T05:58:14.228Z</time></trkpt><trkpt lat="45.641125" lon="9.2911183"><ele>187.0</ele><time>2026-04-25T05:58:16.229Z</time></trkpt><trkpt lat="45.6410467" lon="9.2912083"><ele>186.5</ele><time>2026-04-25T05:58:17.228Z</time></trkpt><trkpt lat="45.64096" lon="9.2913117"><ele>186.0</ele><time>2026-04-25T05:58:18.228Z</time></trkpt><trkpt lat="45.6408567" lon="9.29143"><ele>185.5</ele><time>2026-04-25T05:58:19.233Z</time></trkpt><trkpt lat="45.6407433" lon="9.2915567"><ele>185.0</ele><time>2026-04-25T05:58:20.229Z</time></trkpt><trkpt lat="45.6406267" lon="9.2916883"><ele>185.0</ele><time>2026-04-25T05:58:21.228Z</time></trkpt><trkpt lat="45.640505" lon="9.291825"><ele>185.0</ele><time>2026-04-25T05:58:22.23Z</time></trkpt><trkpt lat="45.6403733" lon="9.2919683"><ele>185.0</ele><time>2026-04-25T05:58:23.229Z</time></trkpt><trkpt lat="45.640235" lon="9.292115"><ele>185.66666666666666</ele><time>2026-04-25T05:58:24.232Z</time></trkpt><trkpt lat="45.640095" lon="9.29226"><ele>186.33333333333334</ele><time>2026-04-25T05:58:25.228Z</time></trkpt><trkpt lat="45.6399567" lon="9.292405"><ele>187.0</ele><time>2026-04-25T05:58:26.227Z</time></trkpt><trkpt lat="45.6398117" lon="9.2925517"><ele>187.0</ele><time>2026-04-25T05:58:27.228Z</time></trkpt><trkpt lat="45.639665" lon="9.2927"><ele>187.0</ele><time>2026-04-25T05:58:28.227Z</time></trkpt><trkpt lat="45.6395133" lon="9.2928467"><ele>187.0</ele><time>2026-04-25T05:58:29.227Z</time></trkpt><trkpt lat="45.6393617" lon="9.2929967"><ele>185.66666666666669</ele><time>2026-04-25T05:58:30.227Z</time></trkpt><trkpt lat="45.63921" lon="9.29315"><ele>184.33333333333334</ele><time>2026-04-25T05:58:31.227Z</time></trkpt><trkpt lat="45.6390617" lon="9.2933017"><ele>183.0</ele><time>2026-04-25T05:58:32.23Z</time></trkpt><trkpt lat="45.6389117" lon="9.2934517"><ele>183.0</ele><time>2026-04-25T05:58:33.227Z</time></trkpt><trkpt lat="45.6387683" lon="9.2936033"><ele>183.0</ele><time>2026-04-25T05:58:34.228Z</time></trkpt><trkpt lat="45.63863" lon="9.2937633"><ele>183.0</ele><time>2026-04-25T05:58:35.228Z</time></trkpt><trkpt lat="45.6385017" lon="9.2939367"><ele>183.33333333333334</ele><time>2026-04-25T05:58:36.227Z</time></trkpt><trkpt lat="45.6383817" lon="9.2941117"><ele>183.66666666666669</ele><time>2026-04-25T05:58:37.229Z</time></trkpt><trkpt lat="45.6382717" lon="9.2942933"><ele>184.0</ele><time>2026-04-25T05:58:38.228Z</time></trkpt><trkpt lat="45.638175" lon="9.2944783"><ele>184.0</ele><time>2026-04-25T05:58:39.228Z</time></trkpt><trkpt lat="45.63809" lon="9.2946683"><ele>184.0</ele><time>2026-04-25T05:58:40.227Z</time></trkpt><trkpt lat="45.6380167" lon="9.2948633"><ele>184.0</ele><time>2026-04-25T05:58:41.229Z</time></trkpt><trkpt lat="45.6379533" lon="9.29506"><ele>185.66666666666669</ele><time>2026-04-25T05:58:42.229Z</time></trkpt><trkpt lat="45.6378967" lon="9.2952633"><ele>187.33333333333334</ele><time>2026-04-25T05:58:43.228Z</time></trkpt><trkpt lat="45.6378483" lon="9.2954717"><ele>189.0</ele><time>2026-04-25T05:58:44.227Z</time></trkpt><trkpt lat="45.637805" lon="9.2956867"><ele>187.0</ele><time>2026-04-25T05:58:45.227Z</time></trkpt><trkpt lat="45.6377683" lon="9.2959033"><ele>185.0</ele><time>2026-04-25T05:58:46.228Z</time></trkpt><trkpt lat="45.637745" lon="9.2961167"><ele>183.0</ele><time>2026-04-25T05:58:47.227Z</time></trkpt><trkpt lat="45.63773" lon="9.2963217"><ele>183.5</ele><time>2026-04-25T05:58:48.229Z</time></trkpt><trkpt lat="45.6377233" lon="9.2965183"><ele>184.0</ele><time>2026-04-25T05:58:49.229Z</time></trkpt><trkpt lat="45.6377233" lon="9.29671"><ele>184.5</ele><time>2026-04-25T05:58:50.23Z</time></trkpt><trkpt lat="45.63773" lon="9.2968983"><ele>185.0</ele><time>2026-04-25T05:58:51.23Z</time></trkpt><trkpt lat="45.63774" lon="9.2970867"><ele>186.5</ele><time>2026-04-25T05:58:52.229Z</time></trkpt><trkpt lat="45.6377567" lon="9.2972767"><ele>188.0</ele><time>2026-04-25T05:58:53.23Z</time></trkpt><trkpt lat="45.637775" lon="9.2974683"><ele>189.5</ele><time>2026-04-25T05:58:54.23Z</time></trkpt><trkpt lat="45.637795" lon="9.297665"><ele>191.0</ele><time>2026-04-25T05:58:55.229Z</time></trkpt><trkpt lat="45.6378083" lon="9.297855"><ele>191.60000000000002</ele><time>2026-04-25T05:58:56.228Z</time></trkpt><trkpt lat="45.637825" lon="9.2980283"><ele>192.2</ele><time>2026-04-25T05:58:57.228Z</time></trkpt><trkpt lat="45.63784" lon="9.2981867"><ele>192.8</ele><time>2026-04-25T05:58:58.228Z</time></trkpt><trkpt lat="45.6378517" lon="9.298335"><ele>193.39999999999998</ele><time>2026-04-25T05:58:59.228Z</time></trkpt><trkpt lat="45.637865" lon="9.2984783"><ele>194.0</ele><time>2026-04-25T05:59:00.228Z</time></trkpt><trkpt lat="45.6378783" lon="9.2986183"><ele>194.6</ele><time>2026-04-25T05:59:01.23Z</time></trkpt><trkpt lat="45.63789" lon="9.298765"><ele>195.2</ele><time>2026-04-25T05:59:02.23Z</time></trkpt><trkpt lat="45.6379017" lon="9.2989217"><ele>195.79999999999998</ele><time>2026-04-25T05:59:03.229Z</time></trkpt><trkpt lat="45.6379133" lon="9.2990733"><ele>196.39999999999998</ele><time>2026-04-25T05:59:04.229Z</time></trkpt><trkpt lat="45.6379217" lon="9.2992183"><ele>197.0</ele><time>2026-04-25T05:59:05.23Z</time></trkpt><trkpt lat="45.63793" lon="9.29936"><ele>197.0</ele><time>2026-04-25T05:59:06.228Z</time></trkpt><trkpt lat="45.6379333" lon="9.2995017"><ele>197.0</ele><time>2026-04-25T05:59:07.229Z</time></trkpt><trkpt lat="45.637925" lon="9.2996367"><ele>197.0</ele><time>2026-04-25T05:59:08.229Z</time></trkpt><trkpt lat="45.6379017" lon="9.29976"><ele>197.0</ele><time>2026-04-25T05:59:09.228Z</time></trkpt><trkpt lat="45.6378667" lon="9.2998717"><ele>197.0</ele><time>2026-04-25T05:59:10.228Z</time></trkpt><trkpt lat="45.6378283" lon="9.2999867"><ele>196.50000000000003</ele><time>2026-04-25T05:59:11.228Z</time></trkpt><trkpt lat="45.6378033" lon="9.3001067"><ele>196.0</ele><time>2026-04-25T05:59:12.229Z</time></trkpt><trkpt lat="45.637795" lon="9.3002283"><ele>195.5</ele><time>2026-04-25T05:59:13.229Z</time></trkpt><trkpt lat="45.6378017" lon="9.300345"><ele>195.0</ele><time>2026-04-25T05:59:14.229Z</time></trkpt><trkpt lat="45.6378583" lon="9.3004233"><ele>194.50000000000003</ele><time>2026-04-25T05:59:15.228Z</time></trkpt><trkpt lat="45.637925" lon="9.3004717"><ele>194.0</ele><time>2026-04-25T05:59:16.228Z</time></trkpt><trkpt lat="45.6380233" lon="9.3004683"><ele>194.0</ele><time>2026-04-25T05:59:17.229Z</time></trkpt><trkpt lat="45.638125" lon="9.3004317"><ele>194.0</ele><time>2026-04-25T05:59:18.228Z</time></trkpt><trkpt lat="45.63822" lon="9.300365"><ele>194.0</ele><time>2026-04-25T05:59:19.23Z</time></trkpt><trkpt lat="45.6383167" lon="9.3002917"><ele>194.0</ele><time>2026-04-25T05:59:20.23Z</time></trkpt><trkpt lat="45.6384167" lon="9.3002233"><ele>194.0</ele><time>2026-04-25T05:59:21.231Z</time></trkpt><trkpt lat="45.6385183" lon="9.3001467"><ele>194.0</ele><time>2026-04-25T05:59:22.232Z</time></trkpt><trkpt lat="45.638615" lon="9.3000467"><ele>194.0</ele><time>2026-04-25T05:59:23.229Z</time></trkpt><trkpt lat="45.6387083" lon="9.2999283"><ele>194.0</ele><time>2026-04-25T05:59:24.23Z</time></trkpt><trkpt lat="45.6388" lon="9.2998"><ele>194.0</ele><time>2026-04-25T05:59:25.231Z</time></trkpt><trkpt lat="45.6388933" lon="9.2996533"><ele>194.66666666666669</ele><time>2026-04-25T05:59:26.228Z</time></trkpt><trkpt lat="45.63899" lon="9.2995"><ele>195.33333333333331</ele><time>2026-04-25T05:59:27.228Z</time></trkpt><trkpt lat="45.6390967" lon="9.29934"><ele>196.0</ele><time>2026-04-25T05:59:28.229Z</time></trkpt><trkpt lat="45.6392067" lon="9.2991767"><ele>196.0</ele><time>2026-04-25T05:59:29.228Z</time></trkpt><trkpt lat="45.639315" lon="9.299015"><ele>196.0</ele><time>2026-04-25T05:59:30.23Z</time></trkpt><trkpt lat="45.6394217" lon="9.2988533"><ele>196.0</ele><time>2026-04-25T05:59:31.229Z</time></trkpt><trkpt lat="45.6395283" lon="9.2986883"><ele>196.0</ele><time>2026-04-25T05:59:32.231Z</time></trkpt><trkpt lat="45.639635" lon="9.2985267"><ele>196.0</ele><time>2026-04-25T05:59:33.229Z</time></trkpt><trkpt lat="45.6397433" lon="9.2983617"><ele>196.0</ele><time>2026-04-25T05:59:34.231Z</time></trkpt><trkpt lat="45.6398533" lon="9.2982"><ele>196.0</ele><time>2026-04-25T05:59:35.229Z</time></trkpt><trkpt lat="45.63996" lon="9.2980367"><ele>196.0</ele><time>2026-04-25T05:59:36.229Z</time></trkpt><trkpt lat="45.6400733" lon="9.29787"><ele>196.0</ele><time>2026-04-25T05:59:37.23Z</time></trkpt><trkpt lat="45.6401867" lon="9.2977033"><ele>196.33333333333331</ele><time>2026-04-25T05:59:38.23Z</time></trkpt><trkpt lat="45.6403017" lon="9.2975317"><ele>196.66666666666669</ele><time>2026-04-25T05:59:39.229Z</time></trkpt><trkpt lat="45.6404183" lon="9.2973567"><ele>197.0</ele><time>2026-04-25T05:59:40.229Z</time></trkpt><trkpt lat="45.6405433" lon="9.29718"><ele>197.66666666666669</ele><time>2026-04-25T05:59:41.229Z</time></trkpt><trkpt lat="45.6406683" lon="9.297"><ele>198.33333333333331</ele><time>2026-04-25T05:59:42.229Z</time></trkpt><trkpt lat="45.6407933" lon="9.2968183"><ele>199.0</ele><time>2026-04-25T05:59:43.229Z</time></trkpt><trkpt lat="45.6409167" lon="9.296635"><ele>199.0</ele><time>2026-04-25T05:59:44.229Z</time></trkpt><trkpt lat="45.6410367" lon="9.2964483"><ele>199.0</ele><time>2026-04-25T05:59:45.23Z</time></trkpt><trkpt lat="45.6411583" lon="9.2962633"><ele>199.0</ele><time>2026-04-25T05:59:46.228Z</time></trkpt><trkpt lat="45.64128" lon="9.296075"><ele>199.0</ele><time>2026-04-25T05:59:47.228Z</time></trkpt><trkpt lat="45.6414017" lon="9.295895"><ele>199.0</ele><time>2026-04-25T05:59:48.23Z</time></trkpt><trkpt lat="45.641515" lon="9.2957283"><ele>199.0</ele><time>2026-04-25T05:59:49.23Z</time></trkpt><trkpt lat="45.64162" lon="9.295575"><ele>198.79999999999998</ele><time>2026-04-25T05:59:50.23Z</time></trkpt><trkpt lat="45.64171" lon="9.29544"><ele>198.6</ele><time>2026-04-25T05:59:51.229Z</time></trkpt><trkpt lat="45.641785" lon="9.2953233"><ele>198.4</ele><time>2026-04-25T05:59:52.231Z</time></trkpt><trkpt lat="45.6418483" lon="9.2952217"><ele>198.2</ele><time>2026-04-25T05:59:53.23Z</time></trkpt><trkpt lat="45.6419017" lon="9.2951233"><ele>198.0</ele><time>2026-04-25T05:59:54.229Z</time></trkpt><trkpt lat="45.6419483" lon="9.2950417"><ele>198.16666666666666</ele><time>2026-04-25T05:59:55.229Z</time></trkpt><trkpt lat="45.6420117" lon="9.294915"><ele>198.33333333333331</ele><time>2026-04-25T05:59:57.23Z</time></trkpt><trkpt lat="45.6420567" lon="9.2948217"><ele>198.5</ele><time>2026-04-25T06:00:00.23Z</time></trkpt><trkpt lat="45.6421083" lon="9.294735"><ele>198.66666666666666</ele><time>2026-04-25T06:00:22.228Z</time></trkpt><trkpt lat="45.6421583" lon="9.2946767"><ele>198.83333333333331</ele><time>2026-04-25T06:00:23.229Z</time></trkpt><trkpt lat="45.6422083" lon="9.29462"><ele>199.0</ele><time>2026-04-25T06:00:24.229Z</time></trkpt><trkpt lat="45.6422817" lon="9.294575"><ele>199.0</ele><time>2026-04-25T06:00:25.229Z</time></trkpt><trkpt lat="45.64235" lon="9.29452"><ele>199.0</ele><time>2026-04-25T06:00:26.228Z</time></trkpt><trkpt lat="45.64241" lon="9.2944433"><ele>199.0</ele><time>2026-04-25T06:00:27.228Z</time></trkpt><trkpt lat="45.6424533" lon="9.29433"><ele>199.0</ele><time>2026-04-25T06:00:28.228Z</time></trkpt><trkpt lat="45.6424883" lon="9.2941767"><ele>199.0</ele><time>2026-04-25T06:00:29.23Z</time></trkpt><trkpt lat="45.642525" lon="9.2940033"><ele>199.25</ele><time>2026-04-25T06:00:30.229Z</time></trkpt><trkpt lat="45.6425633" lon="9.2938117"><ele>199.5</ele><time>2026-04-25T06:00:31.229Z</time></trkpt><trkpt lat="45.6426017" lon="9.293605"><ele>199.75</ele><time>2026-04-25T06:00:32.229Z</time></trkpt><trkpt lat="45.6426467" lon="9.2934"><ele>200.0</ele><time>2026-04-25T06:00:33.229Z</time></trkpt><trkpt lat="45.6426917" lon="9.2932133"><ele>199.5</ele><time>2026-04-25T06:00:34.23Z</time></trkpt><trkpt lat="45.6427267" lon="9.2930417"><ele>199.0</ele><time>2026-04-25T06:00:35.229Z</time></trkpt><trkpt lat="45.6427667" lon="9.29287"><ele>198.5</ele><time>2026-04-25T06:00:36.228Z</time></trkpt><trkpt lat="45.642805" lon="9.2927267"><ele>198.0</ele><time>2026-04-25T06:00:37.228Z</time></trkpt><trkpt lat="45.6428383" lon="9.2925967"><ele>198.5</ele><time>2026-04-25T06:00:38.227Z</time></trkpt><trkpt lat="45.6428583" lon="9.29247"><ele>199.0</ele><time>2026-04-25T06:00:39.23Z</time></trkpt><trkpt lat="45.6428783" lon="9.29235"><ele>199.5</ele><time>2026-04-25T06:00:40.227Z</time></trkpt><trkpt lat="45.6429067" lon="9.2922517"><ele>200.0</ele><time>2026-04-25T06:00:41.227Z</time></trkpt><trkpt lat="45.6429617" lon="9.2921383"><ele>200.5</ele><time>2026-04-25T06:00:43.228Z</time></trkpt><trkpt lat="45.643035" lon="9.292115"><ele>201.0</ele><time>2026-04-25T06:00:45.229Z</time></trkpt><trkpt lat="45.6431333" lon="9.292205"><ele>201.5</ele><time>2026-04-25T06:00:47.228Z</time></trkpt><trkpt lat="45.6431867" lon="9.2922733"><ele>202.0</ele><time>2026-04-25T06:00:48.228Z</time></trkpt><trkpt lat="45.643255" lon="9.29238"><ele>202.5</ele><time>2026-04-25T06:00:49.228Z</time></trkpt><trkpt lat="45.64335" lon="9.2925117"><ele>203.0</ele><time>2026-04-25T06:00:50.229Z</time></trkpt><trkpt lat="45.6434567" lon="9.2926533"><ele>203.0</ele><time>2026-04-25T06:00:51.228Z</time></trkpt><trkpt lat="45.643565" lon="9.2927883"><ele>203.0</ele><time>2026-04-25T06:00:52.228Z</time></trkpt><trkpt lat="45.6436733" lon="9.2929317"><ele>203.0</ele><time>2026-04-25T06:00:53.227Z</time></trkpt><trkpt lat="45.643775" lon="9.2930617"><ele>203.0</ele><time>2026-04-25T06:00:54.229Z</time></trkpt><trkpt lat="45.6438667" lon="9.29318"><ele>207.0</ele><time>2026-04-25T06:00:55.228Z</time></trkpt><trkpt lat="45.6439467" lon="9.2932933"><ele>211.0</ele><time>2026-04-25T06:00:56.229Z</time></trkpt><trkpt lat="45.6440183" lon="9.29342"><ele>215.0</ele><time>2026-04-25T06:00:57.227Z</time></trkpt><trkpt lat="45.6440717" lon="9.2935667"><ele>219.0</ele><time>2026-04-25T06:00:58.228Z</time></trkpt><trkpt lat="45.644105" lon="9.2937333"><ele>219.0</ele><time>2026-04-25T06:00:59.227Z</time></trkpt><trkpt lat="45.6441217" lon="9.2939117"><ele>219.0</ele><time>2026-04-25T06:01:00.228Z</time></trkpt><trkpt lat="45.6441283" lon="9.2940967"><ele>219.0</ele><time>2026-04-25T06:01:01.227Z</time></trkpt><trkpt lat="45.6441333" lon="9.2942967"><ele>219.0</ele><time>2026-04-25T06:01:02.227Z</time></trkpt><trkpt lat="45.644135" lon="9.2945117"><ele>219.33333333333331</ele><time>2026-04-25T06:01:03.227Z</time></trkpt><trkpt lat="45.6441367" lon="9.2947367"><ele>219.66666666666666</ele><time>2026-04-25T06:01:04.229Z</time></trkpt><trkpt lat="45.644135" lon="9.2949667"><ele>220.0</ele><time>2026-04-25T06:01:05.227Z</time></trkpt><trkpt lat="45.6441333" lon="9.2951967"><ele>220.0</ele><time>2026-04-25T06:01:06.227Z</time></trkpt><trkpt lat="45.64413" lon="9.2954233"><ele>220.0</ele><time>2026-04-25T06:01:07.227Z</time></trkpt><trkpt lat="45.6441333" lon="9.2956533"><ele>220.0</ele><time>2026-04-25T06:01:08.229Z</time></trkpt><trkpt lat="45.6441383" lon="9.2958767"><ele>221.0</ele><time>2026-04-25T06:01:09.229Z</time></trkpt><trkpt lat="45.6441517" lon="9.2960883"><ele>222.0</ele><time>2026-04-25T06:01:10.227Z</time></trkpt><trkpt lat="45.6441683" lon="9.296285"><ele>223.0</ele><time>2026-04-25T06:01:11.228Z</time></trkpt><trkpt lat="45.6441883" lon="9.2964833"><ele>224.0</ele><time>2026-04-25T06:01:12.228Z</time></trkpt><trkpt lat="45.64421" lon="9.2966817"><ele>224.5</ele><time>2026-04-25T06:01:13.227Z</time></trkpt><trkpt lat="45.6442317" lon="9.296885"><ele>225.0</ele><time>2026-04-25T06:01:14.228Z</time></trkpt><trkpt lat="45.644255" lon="9.29709"><ele>225.5</ele><time>2026-04-25T06:01:15.227Z</time></trkpt><trkpt lat="45.64428" lon="9.29729"><ele>226.0</ele><time>2026-04-25T06:01:16.227Z</time></trkpt><trkpt lat="45.6443083" lon="9.29748"><ele>226.20000000000002</ele><time>2026-04-25T06:01:17.228Z</time></trkpt><trkpt lat="45.6443467" lon="9.2976433"><ele>226.40000000000003</ele><time>2026-04-25T06:01:18.23Z</time></trkpt><trkpt lat="45.644395" lon="9.2977783"><ele>226.6</ele><time>2026-04-25T06:01:19.229Z</time></trkpt><trkpt lat="45.6444617" lon="9.2978933"><ele>226.8</ele><time>2026-04-25T06:01:20.228Z</time></trkpt><trkpt lat="45.6445467" lon="9.2979933"><ele>227.0</ele><time>2026-04-25T06:01:21.229Z</time></trkpt><trkpt lat="45.6446467" lon="9.298075"><ele>228.75</ele><time>2026-04-25T06:01:22.228Z</time></trkpt><trkpt lat="45.64476" lon="9.2981517"><ele>230.5</ele><time>2026-04-25T06:01:23.228Z</time></trkpt><trkpt lat="45.6448833" lon="9.29823"><ele>232.25</ele><time>2026-04-25T06:01:24.229Z</time></trkpt><trkpt lat="45.6450133" lon="9.298315"><ele>234.0</ele><time>2026-04-25T06:01:25.227Z</time></trkpt><trkpt lat="45.6451483" lon="9.298405"><ele>234.0</ele><time>2026-04-25T06:01:26.227Z</time></trkpt><trkpt lat="45.6452783" lon="9.2984933"><ele>234.0</ele><time>2026-04-25T06:01:27.227Z</time></trkpt><trkpt lat="45.6454083" lon="9.298565"><ele>234.0</ele><time>2026-04-25T06:01:28.227Z</time></trkpt><trkpt lat="45.6455367" lon="9.2985983"><ele>234.0</ele><time>2026-04-25T06:01:29.228Z</time></trkpt><trkpt lat="45.6456733" lon="9.2985983"><ele>237.66666666666669</ele><time>2026-04-25T06:01:30.228Z</time></trkpt><trkpt lat="45.6458183" lon="9.2985767"><ele>241.33333333333334</ele><time>2026-04-25T06:01:31.231Z</time></trkpt><trkpt lat="45.6459683" lon="9.298545"><ele>245.0</ele><time>2026-04-25T06:01:32.229Z</time></trkpt><trkpt lat="45.64612" lon="9.2985017"><ele>245.0</ele><time>2026-04-25T06:01:33.229Z</time></trkpt><trkpt lat="45.646275" lon="9.29846"><ele>245.0</ele><time>2026-04-25T06:01:34.227Z</time></trkpt><trkpt lat="45.6464283" lon="9.298425"><ele>245.0</ele><time>2026-04-25T06:01:35.228Z</time></trkpt><trkpt lat="45.6465733" lon="9.2983933"><ele>245.0</ele><time>2026-04-25T06:01:36.227Z</time></trkpt><trkpt lat="45.646705" lon="9.2983633"><ele>245.0</ele><time>2026-04-25T06:01:37.228Z</time></trkpt><trkpt lat="45.6468333" lon="9.29833"><ele>245.0</ele><time>2026-04-25T06:01:38.229Z</time></trkpt><trkpt lat="45.646955" lon="9.2982983"><ele>245.0</ele><time>2026-04-25T06:01:39.228Z</time></trkpt><trkpt lat="45.6470783" lon="9.2982817"><ele>243.5</ele><time>2026-04-25T06:01:40.228Z</time></trkpt><trkpt lat="45.647215" lon="9.2982617"><ele>242.0</ele><time>2026-04-25T06:01:41.227Z</time></trkpt><trkpt lat="45.6473617" lon="9.2982317"><ele>240.5</ele><time>2026-04-25T06:01:42.228Z</time></trkpt><trkpt lat="45.647505" lon="9.2982067"><ele>239.0</ele><time>2026-04-25T06:01:43.227Z</time></trkpt><trkpt lat="45.6476383" lon="9.2981917"><ele>239.0</ele><time>2026-04-25T06:01:44.227Z</time></trkpt><trkpt lat="45.647755" lon="9.2982"><ele>238.99999999999997</ele><time>2026-04-25T06:01:45.227Z</time></trkpt><trkpt lat="45.6478483" lon="9.298225"><ele>238.99999999999997</ele><time>2026-04-25T06:01:46.227Z</time></trkpt><trkpt lat="45.6479317" lon="9.2982867"><ele>239.0</ele><time>2026-04-25T06:01:47.228Z</time></trkpt><trkpt lat="45.6479967" lon="9.2983783"><ele>239.0</ele><time>2026-04-25T06:01:48.227Z</time></trkpt><trkpt lat="45.6480433" lon="9.2984867"><ele>239.0</ele><time>2026-04-25T06:01:49.23Z</time></trkpt><trkpt lat="45.6480783" lon="9.2986267"><ele>239.0</ele><time>2026-04-25T06:01:50.227Z</time></trkpt><trkpt lat="45.6481183" lon="9.2987817"><ele>239.0</ele><time>2026-04-25T06:01:51.228Z</time></trkpt><trkpt lat="45.64816" lon="9.29896"><ele>239.0</ele><time>2026-04-25T06:01:52.228Z</time></trkpt><trkpt lat="45.6482033" lon="9.2991383"><ele>239.0</ele><time>2026-04-25T06:01:53.227Z</time></trkpt><trkpt lat="45.648245" lon="9.2993083"><ele>239.0</ele><time>2026-04-25T06:01:54.228Z</time></trkpt><trkpt lat="45.6482817" lon="9.2994767"><ele>239.0</ele><time>2026-04-25T06:01:55.229Z</time></trkpt><trkpt lat="45.6483033" lon="9.2996483"><ele>239.0</ele><time>2026-04-25T06:01:56.228Z</time></trkpt><trkpt lat="45.6483167" lon="9.2998"><ele>239.25</ele><time>2026-04-25T06:01:57.23Z</time></trkpt><trkpt lat="45.6483283" lon="9.2999517"><ele>239.5</ele><time>2026-04-25T06:01:58.227Z</time></trkpt><trkpt lat="45.648335" lon="9.3001167"><ele>239.75</ele><time>2026-04-25T06:01:59.227Z</time></trkpt><trkpt lat="45.6483333" lon="9.3003"><ele>240.0</ele><time>2026-04-25T06:02:00.228Z</time></trkpt><trkpt lat="45.64834" lon="9.3004833"><ele>239.75</ele><time>2026-04-25T06:02:01.227Z</time></trkpt><trkpt lat="45.6483533" lon="9.3006783"><ele>239.5</ele><time>2026-04-25T06:02:02.228Z</time></trkpt><trkpt lat="45.6483667" lon="9.3008833"><ele>239.25</ele><time>2026-04-25T06:02:03.228Z</time></trkpt><trkpt lat="45.6483767" lon="9.3010933"><ele>239.0</ele><time>2026-04-25T06:02:04.228Z</time></trkpt><trkpt lat="45.6483883" lon="9.3013067"><ele>239.5</ele><time>2026-04-25T06:02:05.229Z</time></trkpt><trkpt lat="45.6483967" lon="9.30152"><ele>240.0</ele><time>2026-04-25T06:02:06.229Z</time></trkpt><trkpt lat="45.6484067" lon="9.3017267"><ele>240.5</ele><time>2026-04-25T06:02:07.229Z</time></trkpt><trkpt lat="45.6484167" lon="9.3019217"><ele>241.0</ele><time>2026-04-25T06:02:08.227Z</time></trkpt><trkpt lat="45.6484267" lon="9.302115"><ele>242.0</ele><time>2026-04-25T06:02:09.228Z</time></trkpt><trkpt lat="45.6484417" lon="9.3023133"><ele>243.0</ele><time>2026-04-25T06:02:10.228Z</time></trkpt><trkpt lat="45.6484517" lon="9.30252"><ele>244.0</ele><time>2026-04-25T06:02:11.227Z</time></trkpt><trkpt lat="45.6484633" lon="9.3027233"><ele>245.0</ele><time>2026-04-25T06:02:12.227Z</time></trkpt><trkpt lat="45.6484767" lon="9.3029283"><ele>245.5</ele><time>2026-04-25T06:02:13.227Z</time></trkpt><trkpt lat="45.648485" lon="9.303125"><ele>246.0</ele><time>2026-04-25T06:02:14.227Z</time></trkpt><trkpt lat="45.6484917" lon="9.30332"><ele>246.5</ele><time>2026-04-25T06:02:15.228Z</time></trkpt><trkpt lat="45.6484967" lon="9.3034933"><ele>247.0</ele><time>2026-04-25T06:02:16.228Z</time></trkpt><trkpt lat="45.648515" lon="9.3036517"><ele>247.0</ele><time>2026-04-25T06:02:17.227Z</time></trkpt><trkpt lat="45.6485517" lon="9.3038067"><ele>247.0</ele><time>2026-04-25T06:02:18.228Z</time></trkpt><trkpt lat="45.6486083" lon="9.3039583"><ele>247.0</ele><time>2026-04-25T06:02:19.228Z</time></trkpt><trkpt lat="45.6486833" lon="9.3041033"><ele>247.0</ele><time>2026-04-25T06:02:20.227Z</time></trkpt><trkpt lat="45.6487617" lon="9.3042317"><ele>247.25</ele><time>2026-04-25T06:02:21.228Z</time></trkpt><trkpt lat="45.648835" lon="9.3043517"><ele>247.5</ele><time>2026-04-25T06:02:22.228Z</time></trkpt><trkpt lat="45.6489" lon="9.3044783"><ele>247.75</ele><time>2026-04-25T06:02:23.227Z</time></trkpt><trkpt lat="45.64895" lon="9.3046233"><ele>248.0</ele><time>2026-04-25T06:02:24.227Z</time></trkpt><trkpt lat="45.6489767" lon="9.304785"><ele>248.0</ele><time>2026-04-25T06:02:25.228Z</time></trkpt><trkpt lat="45.648995" lon="9.30495"><ele>248.0</ele><time>2026-04-25T06:02:26.229Z</time></trkpt><trkpt lat="45.6489983" lon="9.3051067"><ele>248.0</ele><time>2026-04-25T06:02:27.228Z</time></trkpt><trkpt lat="45.6489933" lon="9.3052433"><ele>248.0</ele><time>2026-04-25T06:02:28.227Z</time></trkpt><trkpt lat="45.6489917" lon="9.305375"><ele>248.0</ele><time>2026-04-25T06:02:29.229Z</time></trkpt><trkpt lat="45.649" lon="9.305495"><ele>248.50000000000003</ele><time>2026-04-25T06:02:30.228Z</time></trkpt><trkpt lat="45.6490067" lon="9.3056117"><ele>249.0</ele><time>2026-04-25T06:02:31.227Z</time></trkpt><trkpt lat="45.6490333" lon="9.3057183"><ele>249.5</ele><time>2026-04-25T06:02:32.228Z</time></trkpt><trkpt lat="45.6490967" lon="9.3058083"><ele>250.0</ele><time>2026-04-25T06:02:33.228Z</time></trkpt><trkpt lat="45.64917" lon="9.30587"><ele>250.50000000000003</ele><time>2026-04-25T06:02:34.228Z</time></trkpt><trkpt lat="45.649245" lon="9.3059333"><ele>251.0</ele><time>2026-04-25T06:02:35.231Z</time></trkpt><trkpt lat="45.6493317" lon="9.3060033"><ele>251.0</ele><time>2026-04-25T06:02:36.228Z</time></trkpt><trkpt lat="45.6494267" lon="9.3060767"><ele>251.00000000000003</ele><time>2026-04-25T06:02:37.23Z</time></trkpt><trkpt lat="45.64953" lon="9.30615"><ele>251.00000000000003</ele><time>2026-04-25T06:02:38.228Z</time></trkpt><trkpt lat="45.6496283" lon="9.3062267"><ele>251.0</ele><time>2026-04-25T06:02:39.23Z</time></trkpt><trkpt lat="45.64972" lon="9.30632"><ele>251.0</ele><time>2026-04-25T06:02:40.228Z</time></trkpt><trkpt lat="45.649805" lon="9.3064"><ele>250.50000000000003</ele><time>2026-04-25T06:02:41.23Z</time></trkpt><trkpt lat="45.64988" lon="9.3064783"><ele>250.0</ele><time>2026-04-25T06:02:42.23Z</time></trkpt><trkpt lat="45.6499483" lon="9.3065417"><ele>249.5</ele><time>2026-04-25T06:02:43.229Z</time></trkpt><trkpt lat="45.6500183" lon="9.3066117"><ele>249.0</ele><time>2026-04-25T06:02:44.228Z</time></trkpt><trkpt lat="45.6500717" lon="9.3067067"><ele>248.50000000000003</ele><time>2026-04-25T06:02:45.229Z</time></trkpt><trkpt lat="45.6501183" lon="9.3068"><ele>248.0</ele><time>2026-04-25T06:02:46.228Z</time></trkpt><trkpt lat="45.6501417" lon="9.3069217"><ele>248.0</ele><time>2026-04-25T06:02:47.228Z</time></trkpt><trkpt lat="45.6501467" lon="9.30708"><ele>248.0</ele><time>2026-04-25T06:02:48.228Z</time></trkpt><trkpt lat="45.6501383" lon="9.307255"><ele>248.0</ele><time>2026-04-25T06:02:49.227Z</time></trkpt><trkpt lat="45.6501283" lon="9.307425"><ele>248.0</ele><time>2026-04-25T06:02:50.228Z</time></trkpt><trkpt lat="45.65012" lon="9.3075783"><ele>248.16666666666669</ele><time>2026-04-25T06:02:51.228Z</time></trkpt><trkpt lat="45.6501117" lon="9.30772"><ele>248.33333333333334</ele><time>2026-04-25T06:02:52.228Z</time></trkpt><trkpt lat="45.6500967" lon="9.307845"><ele>248.5</ele><time>2026-04-25T06:02:53.228Z</time></trkpt><trkpt lat="45.650085" lon="9.30795"><ele>248.66666666666669</ele><time>2026-04-25T06:02:54.23Z</time></trkpt><trkpt lat="45.65007" lon="9.3080967"><ele>248.83333333333334</ele><time>2026-04-25T06:02:56.228Z</time></trkpt><trkpt lat="45.6500467" lon="9.308205"><ele>249.0</ele><time>2026-04-25T06:02:59.23Z</time></trkpt><trkpt lat="45.649985" lon="9.3083167"><ele>249.16666666666666</ele><time>2026-04-25T06:03:31.228Z</time></trkpt><trkpt lat="45.6499367" lon="9.3084283"><ele>249.33333333333331</ele><time>2026-04-25T06:03:34.234Z</time></trkpt><trkpt lat="45.6498533" lon="9.3085033"><ele>249.5</ele><time>2026-04-25T06:03:36.233Z</time></trkpt><trkpt lat="45.6497917" lon="9.3085333"><ele>249.66666666666666</ele><time>2026-04-25T06:03:37.23Z</time></trkpt><trkpt lat="45.6497233" lon="9.3085633"><ele>249.83333333333331</ele><time>2026-04-25T06:03:38.233Z</time></trkpt><trkpt lat="45.6496217" lon="9.30861"><ele>250.0</ele><time>2026-04-25T06:03:40.227Z</time></trkpt><trkpt lat="45.64957" lon="9.3087017"><ele>249.99999999999997</ele><time>2026-04-25T06:03:42.228Z</time></trkpt><trkpt lat="45.6495783" lon="9.3088417"><ele>250.0</ele><time>2026-04-25T06:03:44.229Z</time></trkpt><trkpt lat="45.649595" lon="9.3089317"><ele>250.0</ele><time>2026-04-25T06:03:45.227Z</time></trkpt><trkpt lat="45.6496183" lon="9.3090367"><ele>250.0</ele><time>2026-04-25T06:03:46.228Z</time></trkpt><trkpt lat="45.6496433" lon="9.30917"><ele>249.99999999999997</ele><time>2026-04-25T06:03:47.228Z</time></trkpt><trkpt lat="45.6496817" lon="9.3092917"><ele>250.0</ele><time>2026-04-25T06:03:48.227Z</time></trkpt><trkpt lat="45.649725" lon="9.309415"><ele>250.25</ele><time>2026-04-25T06:03:49.229Z</time></trkpt><trkpt lat="45.649775" lon="9.3095533"><ele>250.5</ele><time>2026-04-25T06:03:50.229Z</time></trkpt><trkpt lat="45.649825" lon="9.30971"><ele>250.75</ele><time>2026-04-25T06:03:51.227Z</time></trkpt><trkpt lat="45.6498783" lon="9.309875"><ele>251.0</ele><time>2026-04-25T06:03:52.229Z</time></trkpt><trkpt lat="45.649935" lon="9.3100417"><ele>251.0</ele><time>2026-04-25T06:03:53.229Z</time></trkpt><trkpt lat="45.6499967" lon="9.3102167"><ele>251.0</ele><time>2026-04-25T06:03:54.23Z</time></trkpt><trkpt lat="45.6500567" lon="9.3103933"><ele>251.0</ele><time>2026-04-25T06:03:55.229Z</time></trkpt><trkpt lat="45.65012" lon="9.3105733"><ele>251.0</ele><time>2026-04-25T06:03:56.23Z</time></trkpt><trkpt lat="45.6501683" lon="9.3107533"><ele>251.5</ele><time>2026-04-25T06:03:57.23Z</time></trkpt><trkpt lat="45.6502083" lon="9.3109383"><ele>252.0</ele><time>2026-04-25T06:03:58.229Z</time></trkpt><trkpt lat="45.6502433" lon="9.3111183"><ele>252.5</ele><time>2026-04-25T06:03:59.229Z</time></trkpt><trkpt lat="45.6502717" lon="9.3112917"><ele>253.0</ele><time>2026-04-25T06:04:00.23Z</time></trkpt><trkpt lat="45.6503" lon="9.3114467"><ele>253.0</ele><time>2026-04-25T06:04:01.228Z</time></trkpt><trkpt lat="45.6503333" lon="9.3116033"><ele>253.0</ele><time>2026-04-25T06:04:02.228Z</time></trkpt><trkpt lat="45.650365" lon="9.3117717"><ele>253.0</ele><time>2026-04-25T06:04:03.228Z</time></trkpt><trkpt lat="45.6504017" lon="9.311955"><ele>253.0</ele><time>2026-04-25T06:04:04.23Z</time></trkpt><trkpt lat="45.6504417" lon="9.3121433"><ele>251.66666666666666</ele><time>2026-04-25T06:04:05.227Z</time></trkpt><trkpt lat="45.6504833" lon="9.3123467"><ele>250.33333333333331</ele><time>2026-04-25T06:04:06.229Z</time></trkpt><trkpt lat="45.650525" lon="9.31256"><ele>249.0</ele><time>2026-04-25T06:04:07.228Z</time></trkpt><trkpt lat="45.650565" lon="9.312765"><ele>249.0</ele><time>2026-04-25T06:04:08.229Z</time></trkpt><trkpt lat="45.6506017" lon="9.3129633"><ele>249.0</ele><time>2026-04-25T06:04:09.231Z</time></trkpt><trkpt lat="45.6506333" lon="9.31317"><ele>249.0</ele><time>2026-04-25T06:04:10.229Z</time></trkpt><trkpt lat="45.6506617" lon="9.3133817"><ele>249.0</ele><time>2026-04-25T06:04:11.228Z</time></trkpt><trkpt lat="45.6506733" lon="9.3136117"><ele>248.0</ele><time>2026-04-25T06:04:12.229Z</time></trkpt><trkpt lat="45.6506783" lon="9.3138567"><ele>247.0</ele><time>2026-04-25T06:04:13.228Z</time></trkpt><trkpt lat="45.650675" lon="9.3141117"><ele>246.0</ele><time>2026-04-25T06:04:14.227Z</time></trkpt><trkpt lat="45.6506617" lon="9.3143633"><ele>245.33333333333331</ele><time>2026-04-25T06:04:15.228Z</time></trkpt><trkpt lat="45.6506467" lon="9.3146217"><ele>244.66666666666666</ele><time>2026-04-25T06:04:16.227Z</time></trkpt><trkpt lat="45.65063" lon="9.3148867"><ele>244.0</ele><time>2026-04-25T06:04:17.228Z</time></trkpt><trkpt lat="45.6506133" lon="9.3151617"><ele>243.0</ele><time>2026-04-25T06:04:18.227Z</time></trkpt><trkpt lat="45.6505967" lon="9.3154417"><ele>242.0</ele><time>2026-04-25T06:04:19.228Z</time></trkpt><trkpt lat="45.6505833" lon="9.31572"><ele>241.0</ele><time>2026-04-25T06:04:20.227Z</time></trkpt><trkpt lat="45.650565" lon="9.3160017"><ele>240.0</ele><time>2026-04-25T06:04:21.229Z</time></trkpt><trkpt lat="45.6505467" lon="9.3162783"><ele>239.0</ele><time>2026-04-25T06:04:22.228Z</time></trkpt><trkpt lat="45.6505283" lon="9.31655"><ele>238.0</ele><time>2026-04-25T06:04:23.228Z</time></trkpt><trkpt lat="45.6505083" lon="9.3168217"><ele>237.33333333333331</ele><time>2026-04-25T06:04:24.229Z</time></trkpt><trkpt lat="45.6504883" lon="9.3170883"><ele>236.66666666666669</ele><time>2026-04-25T06:04:25.228Z</time></trkpt><trkpt lat="45.65047" lon="9.3173517"><ele>236.0</ele><time>2026-04-25T06:04:26.23Z</time></trkpt><trkpt lat="45.6504533" lon="9.3176183"><ele>236.0</ele><time>2026-04-25T06:04:27.23Z</time></trkpt><trkpt lat="45.650435" lon="9.3178867"><ele>236.0</ele><time>2026-04-25T06:04:28.228Z</time></trkpt><trkpt lat="45.6504167" lon="9.3181583"><ele>236.0</ele><time>2026-04-25T06:04:29.229Z</time></trkpt><trkpt lat="45.6504017" lon="9.3184333"><ele>235.66666666666669</ele><time>2026-04-25T06:04:30.228Z</time></trkpt><trkpt lat="45.65039" lon="9.3186983"><ele>235.33333333333331</ele><time>2026-04-25T06:04:31.228Z</time></trkpt><trkpt lat="45.650375" lon="9.3189567"><ele>235.0</ele><time>2026-04-25T06:04:32.227Z</time></trkpt><trkpt lat="45.6503617" lon="9.31921"><ele>234.0</ele><time>2026-04-25T06:04:33.229Z</time></trkpt><trkpt lat="45.65035" lon="9.3194583"><ele>233.0</ele><time>2026-04-25T06:04:34.228Z</time></trkpt><trkpt lat="45.6503383" lon="9.3197033"><ele>232.0</ele><time>2026-04-25T06:04:35.23Z</time></trkpt><trkpt lat="45.6503233" lon="9.3199483"><ele>231.66666666666666</ele><time>2026-04-25T06:04:36.227Z</time></trkpt><trkpt lat="45.6503067" lon="9.320195"><ele>231.33333333333331</ele><time>2026-04-25T06:04:37.227Z</time></trkpt><trkpt lat="45.6502917" lon="9.3204433"><ele>231.0</ele><time>2026-04-25T06:04:38.229Z</time></trkpt><trkpt lat="45.6502767" lon="9.32069"><ele>231.0</ele><time>2026-04-25T06:04:39.228Z</time></trkpt><trkpt lat="45.65026" lon="9.3209383"><ele>231.0</ele><time>2026-04-25T06:04:40.228Z</time></trkpt><trkpt lat="45.650245" lon="9.3211883"><ele>231.0</ele><time>2026-04-25T06:04:41.227Z</time></trkpt><trkpt lat="45.6502333" lon="9.3214383"><ele>231.33333333333331</ele><time>2026-04-25T06:04:42.227Z</time></trkpt><trkpt lat="45.65022" lon="9.32169"><ele>231.66666666666666</ele><time>2026-04-25T06:04:43.228Z</time></trkpt><trkpt lat="45.650205" lon="9.3219433"><ele>232.0</ele><time>2026-04-25T06:04:44.228Z</time></trkpt><trkpt lat="45.65019" lon="9.3221917"><ele>231.66666666666666</ele><time>2026-04-25T06:04:45.227Z</time></trkpt><trkpt lat="45.6501767" lon="9.3224317"><ele>231.33333333333331</ele><time>2026-04-25T06:04:46.227Z</time></trkpt><trkpt lat="45.6501633" lon="9.322655"><ele>231.0</ele><time>2026-04-25T06:04:47.227Z</time></trkpt><trkpt lat="45.6501517" lon="9.322865"><ele>230.0</ele><time>2026-04-25T06:04:48.228Z</time></trkpt><trkpt lat="45.6501417" lon="9.32307"><ele>229.0</ele><time>2026-04-25T06:04:49.227Z</time></trkpt><trkpt lat="45.6501333" lon="9.3232567"><ele>228.0</ele><time>2026-04-25T06:04:50.23Z</time></trkpt><trkpt lat="45.6501233" lon="9.32342"><ele>227.0</ele><time>2026-04-25T06:04:51.228Z</time></trkpt><trkpt lat="45.65012" lon="9.323565"><ele>227.00000000000003</ele><time>2026-04-25T06:04:52.228Z</time></trkpt><trkpt lat="45.650125" lon="9.3236883"><ele>227.0</ele><time>2026-04-25T06:04:53.227Z</time></trkpt><trkpt lat="45.6501467" lon="9.32379"><ele>227.0</ele><time>2026-04-25T06:04:54.227Z</time></trkpt><trkpt lat="45.65019" lon="9.3238683"><ele>227.0</ele><time>2026-04-25T06:04:55.228Z</time></trkpt><trkpt lat="45.6502583" lon="9.3239167"><ele>227.00000000000003</ele><time>2026-04-25T06:04:56.228Z</time></trkpt><trkpt lat="45.6503467" lon="9.3239417"><ele>227.0</ele><time>2026-04-25T06:04:57.228Z</time></trkpt><trkpt lat="45.6504533" lon="9.3239533"><ele>227.5</ele><time>2026-04-25T06:04:58.228Z</time></trkpt><trkpt lat="45.65057" lon="9.323965"><ele>228.0</ele><time>2026-04-25T06:04:59.227Z</time></trkpt><trkpt lat="45.6506933" lon="9.3239733"><ele>228.5</ele><time>2026-04-25T06:05:00.228Z</time></trkpt><trkpt lat="45.6508367" lon="9.3239833"><ele>229.0</ele><time>2026-04-25T06:05:01.23Z</time></trkpt><trkpt lat="45.650985" lon="9.3239967"><ele>229.5</ele><time>2026-04-25T06:05:02.229Z</time></trkpt><trkpt lat="45.6511333" lon="9.324005"><ele>230.0</ele><time>2026-04-25T06:05:03.229Z</time></trkpt><trkpt lat="45.6512783" lon="9.3240117"><ele>230.5</ele><time>2026-04-25T06:05:04.229Z</time></trkpt><trkpt lat="45.65143" lon="9.324015"><ele>231.0</ele><time>2026-04-25T06:05:05.228Z</time></trkpt><trkpt lat="45.65158" lon="9.3240183"><ele>231.0</ele><time>2026-04-25T06:05:06.228Z</time></trkpt><trkpt lat="45.6517183" lon="9.3240217"><ele>231.0</ele><time>2026-04-25T06:05:07.227Z</time></trkpt><trkpt lat="45.6518517" lon="9.32403"><ele>231.0</ele><time>2026-04-25T06:05:08.227Z</time></trkpt><trkpt lat="45.651985" lon="9.32404"><ele>231.0</ele><time>2026-04-25T06:05:09.23Z</time></trkpt><trkpt lat="45.6521183" lon="9.3240517"><ele>232.25</ele><time>2026-04-25T06:05:10.227Z</time></trkpt><trkpt lat="45.6522433" lon="9.3240583"><ele>233.5</ele><time>2026-04-25T06:05:11.227Z</time></trkpt><trkpt lat="45.6523617" lon="9.3240583"><ele>234.75</ele><time>2026-04-25T06:05:12.228Z</time></trkpt><trkpt lat="45.6524717" lon="9.32408"><ele>236.0</ele><time>2026-04-25T06:05:13.226Z</time></trkpt><trkpt lat="45.6525733" lon="9.3241167"><ele>236.0</ele><time>2026-04-25T06:05:14.227Z</time></trkpt><trkpt lat="45.6526717" lon="9.3241767"><ele>236.0</ele><time>2026-04-25T06:05:15.227Z</time></trkpt><trkpt lat="45.6527633" lon="9.3242617"><ele>236.0</ele><time>2026-04-25T06:05:16.227Z</time></trkpt><trkpt lat="45.65285" lon="9.3243767"><ele>236.0</ele><time>2026-04-25T06:05:17.227Z</time></trkpt><trkpt lat="45.65292" lon="9.3245217"><ele>237.0</ele><time>2026-04-25T06:05:18.23Z</time></trkpt><trkpt lat="45.65297" lon="9.3246833"><ele>238.0</ele><time>2026-04-25T06:05:19.227Z</time></trkpt><trkpt lat="45.6530117" lon="9.324865"><ele>239.0</ele><time>2026-04-25T06:05:20.227Z</time></trkpt><trkpt lat="45.6530467" lon="9.3250567"><ele>240.0</ele><time>2026-04-25T06:05:21.229Z</time></trkpt><trkpt lat="45.6530867" lon="9.32526"><ele>240.0</ele><time>2026-04-25T06:05:22.228Z</time></trkpt><trkpt lat="45.6531233" lon="9.3254483"><ele>240.0</ele><time>2026-04-25T06:05:23.227Z</time></trkpt><trkpt lat="45.6531633" lon="9.3256233"><ele>240.0</ele><time>2026-04-25T06:05:24.228Z</time></trkpt><trkpt lat="45.653215" lon="9.325775"><ele>240.0</ele><time>2026-04-25T06:05:25.227Z</time></trkpt><trkpt lat="45.6532867" lon="9.3259167"><ele>239.5</ele><time>2026-04-25T06:05:26.228Z</time></trkpt><trkpt lat="45.65337" lon="9.3260483"><ele>239.0</ele><time>2026-04-25T06:05:27.227Z</time></trkpt><trkpt lat="45.653465" lon="9.32617"><ele>238.5</ele><time>2026-04-25T06:05:28.229Z</time></trkpt><trkpt lat="45.6535483" lon="9.3262833"><ele>238.0</ele><time>2026-04-25T06:05:29.23Z</time></trkpt><trkpt lat="45.65363" lon="9.3263883"><ele>237.2</ele><time>2026-04-25T06:05:30.227Z</time></trkpt><trkpt lat="45.6537067" lon="9.3264817"><ele>236.4</ele><time>2026-04-25T06:05:31.228Z</time></trkpt><trkpt lat="45.6537867" lon="9.3265633"><ele>235.59999999999997</ele><time>2026-04-25T06:05:32.228Z</time></trkpt><trkpt lat="45.6538817" lon="9.3266183"><ele>234.79999999999998</ele><time>2026-04-25T06:05:33.227Z</time></trkpt><trkpt lat="45.653985" lon="9.3266483"><ele>234.0</ele><time>2026-04-25T06:05:34.228Z</time></trkpt><trkpt lat="45.6540917" lon="9.3266667"><ele>234.0</ele><time>2026-04-25T06:05:35.227Z</time></trkpt><trkpt lat="45.6541983" lon="9.326695"><ele>234.0</ele><time>2026-04-25T06:05:36.228Z</time></trkpt><trkpt lat="45.654305" lon="9.3267417"><ele>234.0</ele><time>2026-04-25T06:05:37.227Z</time></trkpt><trkpt lat="45.6544067" lon="9.3268167"><ele>234.0</ele><time>2026-04-25T06:05:38.227Z</time></trkpt><trkpt lat="45.6545" lon="9.3269183"><ele>234.25</ele><time>2026-04-25T06:05:39.227Z</time></trkpt><trkpt lat="45.6545817" lon="9.3270533"><ele>234.5</ele><time>2026-04-25T06:05:40.227Z</time></trkpt><trkpt lat="45.65464" lon="9.3272133"><ele>234.75</ele><time>2026-04-25T06:05:41.227Z</time></trkpt><trkpt lat="45.6546933" lon="9.32739"><ele>235.0</ele><time>2026-04-25T06:05:42.227Z</time></trkpt><trkpt lat="45.65474" lon="9.32758"><ele>236.0</ele><time>2026-04-25T06:05:43.228Z</time></trkpt><trkpt lat="45.6547817" lon="9.32778"><ele>237.0</ele><time>2026-04-25T06:05:44.228Z</time></trkpt><trkpt lat="45.65482" lon="9.3279867"><ele>238.0</ele><time>2026-04-25T06:05:45.229Z</time></trkpt><trkpt lat="45.65486" lon="9.3281983"><ele>239.0</ele><time>2026-04-25T06:05:46.228Z</time></trkpt><trkpt lat="45.654895" lon="9.3284067"><ele>239.25</ele><time>2026-04-25T06:05:47.227Z</time></trkpt><trkpt lat="45.6549283" lon="9.3286017"><ele>239.5</ele><time>2026-04-25T06:05:48.227Z</time></trkpt><trkpt lat="45.65496" lon="9.3287883"><ele>239.75</ele><time>2026-04-25T06:05:49.232Z</time></trkpt><trkpt lat="45.6549917" lon="9.3289767"><ele>240.0</ele><time>2026-04-25T06:05:50.229Z</time></trkpt><trkpt lat="45.6550233" lon="9.3291567"><ele>240.25</ele><time>2026-04-25T06:05:51.229Z</time></trkpt><trkpt lat="45.6550517" lon="9.3293283"><ele>240.5</ele><time>2026-04-25T06:05:52.227Z</time></trkpt><trkpt lat="45.6550733" lon="9.3294817"><ele>240.75</ele><time>2026-04-25T06:05:53.227Z</time></trkpt><trkpt lat="45.6550883" lon="9.329635"><ele>241.0</ele><time>2026-04-25T06:05:54.227Z</time></trkpt><trkpt lat="45.6550983" lon="9.3298067"><ele>240.75</ele><time>2026-04-25T06:05:55.228Z</time></trkpt><trkpt lat="45.655095" lon="9.3299883"><ele>240.5</ele><time>2026-04-25T06:05:56.228Z</time></trkpt><trkpt lat="45.6550783" lon="9.3301783"><ele>240.25</ele><time>2026-04-25T06:05:57.227Z</time></trkpt><trkpt lat="45.655055" lon="9.3303783"><ele>240.0</ele><time>2026-04-25T06:05:58.227Z</time></trkpt><trkpt lat="45.6550333" lon="9.3305883"><ele>240.0</ele><time>2026-04-25T06:05:59.228Z</time></trkpt><trkpt lat="45.65501" lon="9.3308083"><ele>240.0</ele><time>2026-04-25T06:06:00.227Z</time></trkpt><trkpt lat="45.6549867" lon="9.3310333"><ele>240.0</ele><time>2026-04-25T06:06:01.228Z</time></trkpt><trkpt lat="45.654965" lon="9.3312517"><ele>239.75</ele><time>2026-04-25T06:06:02.228Z</time></trkpt><trkpt lat="45.6549467" lon="9.331455"><ele>239.5</ele><time>2026-04-25T06:06:03.229Z</time></trkpt><trkpt lat="45.654935" lon="9.3316433"><ele>239.25</ele><time>2026-04-25T06:06:04.23Z</time></trkpt><trkpt lat="45.6549283" lon="9.33182"><ele>239.0</ele><time>2026-04-25T06:06:05.228Z</time></trkpt><trkpt lat="45.6549383" lon="9.33199"><ele>239.0</ele><time>2026-04-25T06:06:06.228Z</time></trkpt><trkpt lat="45.6549633" lon="9.3321633"><ele>239.0</ele><time>2026-04-25T06:06:07.228Z</time></trkpt><trkpt lat="45.6549967" lon="9.3323467"><ele>239.0</ele><time>2026-04-25T06:06:08.227Z</time></trkpt><trkpt lat="45.6550367" lon="9.3325317"><ele>239.0</ele><time>2026-04-25T06:06:09.228Z</time></trkpt><trkpt lat="45.6550833" lon="9.3327267"><ele>238.5</ele><time>2026-04-25T06:06:10.228Z</time></trkpt><trkpt lat="45.6551317" lon="9.3329217"><ele>238.0</ele><time>2026-04-25T06:06:11.227Z</time></trkpt><trkpt lat="45.6551733" lon="9.3331067"><ele>237.5</ele><time>2026-04-25T06:06:12.227Z</time></trkpt><trkpt lat="45.6552133" lon="9.33328"><ele>237.0</ele><time>2026-04-25T06:06:13.23Z</time></trkpt><trkpt lat="45.65525" lon="9.3334433"><ele>236.6</ele><time>2026-04-25T06:06:14.228Z</time></trkpt><trkpt lat="45.655275" lon="9.3335883"><ele>236.2</ele><time>2026-04-25T06:06:15.229Z</time></trkpt><trkpt lat="45.6552783" lon="9.333725"><ele>235.8</ele><time>2026-04-25T06:06:16.227Z</time></trkpt><trkpt lat="45.655255" lon="9.333865"><ele>235.4</ele><time>2026-04-25T06:06:17.227Z</time></trkpt><trkpt lat="45.6552017" lon="9.3340233"><ele>235.0</ele><time>2026-04-25T06:06:18.226Z</time></trkpt><trkpt lat="45.6551283" lon="9.3342033"><ele>234.66666666666666</ele><time>2026-04-25T06:06:19.228Z</time></trkpt><trkpt lat="45.6550383" lon="9.334405"><ele>234.33333333333331</ele><time>2026-04-25T06:06:20.228Z</time></trkpt><trkpt lat="45.6549383" lon="9.3346217"><ele>234.0</ele><time>2026-04-25T06:06:21.228Z</time></trkpt><trkpt lat="45.6548383" lon="9.3348517"><ele>233.66666666666669</ele><time>2026-04-25T06:06:22.23Z</time></trkpt><trkpt lat="45.654735" lon="9.335085"><ele>233.33333333333334</ele><time>2026-04-25T06:06:23.227Z</time></trkpt><trkpt lat="45.6546317" lon="9.3353233"><ele>233.0</ele><time>2026-04-25T06:06:24.227Z</time></trkpt><trkpt lat="45.65453" lon="9.3355667"><ele>232.33333333333334</ele><time>2026-04-25T06:06:25.229Z</time></trkpt><trkpt lat="45.654425" lon="9.335805"><ele>231.66666666666669</ele><time>2026-04-25T06:06:26.227Z</time></trkpt><trkpt lat="45.6543233" lon="9.336045"><ele>231.0</ele><time>2026-04-25T06:06:27.227Z</time></trkpt><trkpt lat="45.6542233" lon="9.3362783"><ele>231.33333333333331</ele><time>2026-04-25T06:06:28.229Z</time></trkpt><trkpt lat="45.654125" lon="9.3365067"><ele>231.66666666666666</ele><time>2026-04-25T06:06:29.227Z</time></trkpt><trkpt lat="45.6540283" lon="9.336735"><ele>232.0</ele><time>2026-04-25T06:06:30.228Z</time></trkpt><trkpt lat="45.6539333" lon="9.33696"><ele>232.0</ele><time>2026-04-25T06:06:31.228Z</time></trkpt><trkpt lat="45.65384" lon="9.33718"><ele>232.0</ele><time>2026-04-25T06:06:32.228Z</time></trkpt><trkpt lat="45.6537533" lon="9.3373883"><ele>232.0</ele><time>2026-04-25T06:06:33.229Z</time></trkpt><trkpt lat="45.6536717" lon="9.3375833"><ele>231.75</ele><time>2026-04-25T06:06:34.229Z</time></trkpt><trkpt lat="45.653595" lon="9.3377683"><ele>231.5</ele><time>2026-04-25T06:06:35.228Z</time></trkpt><trkpt lat="45.653525" lon="9.33794"><ele>231.25</ele><time>2026-04-25T06:06:36.228Z</time></trkpt><trkpt lat="45.65346" lon="9.3380983"><ele>231.0</ele><time>2026-04-25T06:06:37.228Z</time></trkpt><trkpt lat="45.6533983" lon="9.338245"><ele>231.0</ele><time>2026-04-25T06:06:38.229Z</time></trkpt><trkpt lat="45.6533383" lon="9.3383867"><ele>231.00000000000003</ele><time>2026-04-25T06:06:39.23Z</time></trkpt><trkpt lat="45.6532817" lon="9.33852"><ele>231.00000000000003</ele><time>2026-04-25T06:06:40.229Z</time></trkpt><trkpt lat="45.6532267" lon="9.33865"><ele>231.0</ele><time>2026-04-25T06:06:41.231Z</time></trkpt><trkpt lat="45.6531733" lon="9.3387717"><ele>231.0</ele><time>2026-04-25T06:06:42.227Z</time></trkpt><trkpt lat="45.6531217" lon="9.3388833"><ele>231.0</ele><time>2026-04-25T06:06:43.229Z</time></trkpt><trkpt lat="45.65306" lon="9.3389767"><ele>231.00000000000003</ele><time>2026-04-25T06:06:44.228Z</time></trkpt><trkpt lat="45.6529833" lon="9.33906"><ele>231.00000000000003</ele><time>2026-04-25T06:06:45.228Z</time></trkpt><trkpt lat="45.6528883" lon="9.339125"><ele>231.0</ele><time>2026-04-25T06:06:46.228Z</time></trkpt><trkpt lat="45.6527867" lon="9.339175"><ele>231.0</ele><time>2026-04-25T06:06:47.227Z</time></trkpt><trkpt lat="45.6526733" lon="9.3392083"><ele>231.0</ele><time>2026-04-25T06:06:48.226Z</time></trkpt><trkpt lat="45.652555" lon="9.3392267"><ele>231.00000000000003</ele><time>2026-04-25T06:06:49.227Z</time></trkpt><trkpt lat="45.6524433" lon="9.3392367"><ele>231.00000000000003</ele><time>2026-04-25T06:06:50.227Z</time></trkpt><trkpt lat="45.6523417" lon="9.33924"><ele>231.0</ele><time>2026-04-25T06:06:51.228Z</time></trkpt><trkpt lat="45.6522483" lon="9.339235"><ele>231.0</ele><time>2026-04-25T06:06:52.227Z</time></trkpt><trkpt lat="45.6521583" lon="9.3392183"><ele>231.0</ele><time>2026-04-25T06:06:53.228Z</time></trkpt><trkpt lat="45.6520767" lon="9.3391917"><ele>231.0</ele><time>2026-04-25T06:06:54.228Z</time></trkpt><trkpt lat="45.6520067" lon="9.3391667"><ele>231.0</ele><time>2026-04-25T06:06:55.227Z</time></trkpt><trkpt lat="45.651945" lon="9.3391483"><ele>231.0</ele><time>2026-04-25T06:06:56.226Z</time></trkpt><trkpt lat="45.6518867" lon="9.3392167"><ele>231.0</ele><time>2026-04-25T06:06:58.228Z</time></trkpt><trkpt lat="45.6518967" lon="9.33936"><ele>231.0</ele><time>2026-04-25T06:07:00.228Z</time></trkpt><trkpt lat="45.6519167" lon="9.3394583"><ele>231.0</ele><time>2026-04-25T06:07:01.227Z</time></trkpt><trkpt lat="45.6519367" lon="9.33958"><ele>231.00000000000003</ele><time>2026-04-25T06:07:02.228Z</time></trkpt><trkpt lat="45.6519483" lon="9.33972"><ele>231.00000000000003</ele><time>2026-04-25T06:07:03.231Z</time></trkpt><trkpt lat="45.6519583" lon="9.33988"><ele>231.0</ele><time>2026-04-25T06:07:04.227Z</time></trkpt><trkpt lat="45.6519683" lon="9.340055"><ele>231.0</ele><time>2026-04-25T06:07:05.228Z</time></trkpt><trkpt lat="45.65198" lon="9.3402283"><ele>231.0</ele><time>2026-04-25T06:07:06.23Z</time></trkpt><trkpt lat="45.6519867" lon="9.34039"><ele>231.0</ele><time>2026-04-25T06:07:07.227Z</time></trkpt><trkpt lat="45.6519933" lon="9.34055"><ele>231.0</ele><time>2026-04-25T06:07:08.227Z</time></trkpt><trkpt lat="45.6520067" lon="9.3407183"><ele>231.0</ele><time>2026-04-25T06:07:09.23Z</time></trkpt><trkpt lat="45.6520217" lon="9.340895"><ele>231.0</ele><time>2026-04-25T06:07:10.227Z</time></trkpt><trkpt lat="45.6520367" lon="9.3410767"><ele>231.0</ele><time>2026-04-25T06:07:11.227Z</time></trkpt><trkpt lat="45.65205" lon="9.3412667"><ele>231.0</ele><time>2026-04-25T06:07:12.228Z</time></trkpt><trkpt lat="45.65206" lon="9.3414667"><ele>231.0</ele><time>2026-04-25T06:07:13.262Z</time></trkpt><trkpt lat="45.6520667" lon="9.341655"><ele>231.0</ele><time>2026-04-25T06:07:14.231Z</time></trkpt><trkpt lat="45.65207" lon="9.3418417"><ele>231.00000000000003</ele><time>2026-04-25T06:07:15.227Z</time></trkpt><trkpt lat="45.6520783" lon="9.342005"><ele>231.00000000000003</ele><time>2026-04-25T06:07:16.229Z</time></trkpt><trkpt lat="45.6520917" lon="9.3421533"><ele>231.0</ele><time>2026-04-25T06:07:17.228Z</time></trkpt><trkpt lat="45.6521" lon="9.3422767"><ele>231.0</ele><time>2026-04-25T06:07:18.227Z</time></trkpt><trkpt lat="45.652105" lon="9.3423817"><ele>231.0</ele><time>2026-04-25T06:07:19.228Z</time></trkpt><trkpt lat="45.6521033" lon="9.3424733"><ele>231.00000000000003</ele><time>2026-04-25T06:07:20.227Z</time></trkpt><trkpt lat="45.6520633" lon="9.342595"><ele>231.00000000000003</ele><time>2026-04-25T06:07:22.227Z</time></trkpt><trkpt lat="45.6519683" lon="9.3426167"><ele>231.0</ele><time>2026-04-25T06:07:23.227Z</time></trkpt><trkpt lat="45.6518817" lon="9.3426333"><ele>231.0</ele><time>2026-04-25T06:07:24.227Z</time></trkpt><trkpt lat="45.65177" lon="9.3426567"><ele>231.0</ele><time>2026-04-25T06:07:25.229Z</time></trkpt><trkpt lat="45.651655" lon="9.3426867"><ele>231.0</ele><time>2026-04-25T06:07:26.228Z</time></trkpt><trkpt lat="45.6515383" lon="9.3427167"><ele>231.0</ele><time>2026-04-25T06:07:27.227Z</time></trkpt><trkpt lat="45.6514183" lon="9.3427467"><ele>231.0</ele><time>2026-04-25T06:07:28.228Z</time></trkpt><trkpt lat="45.6512983" lon="9.342775"><ele>231.0</ele><time>2026-04-25T06:07:29.228Z</time></trkpt><trkpt lat="45.6511867" lon="9.3427917"><ele>231.00000000000003</ele><time>2026-04-25T06:07:30.228Z</time></trkpt><trkpt lat="45.651075" lon="9.3428033"><ele>231.00000000000003</ele><time>2026-04-25T06:07:31.229Z</time></trkpt><trkpt lat="45.6509667" lon="9.342805"><ele>231.0</ele><time>2026-04-25T06:07:32.228Z</time></trkpt><trkpt lat="45.650865" lon="9.3428017"><ele>231.0</ele><time>2026-04-25T06:07:33.229Z</time></trkpt><trkpt lat="45.6507617" lon="9.3427983"><ele>230.60000000000002</ele><time>2026-04-25T06:07:34.229Z</time></trkpt><trkpt lat="45.65066" lon="9.342795"><ele>230.20000000000002</ele><time>2026-04-25T06:07:35.227Z</time></trkpt><trkpt lat="45.6505633" lon="9.34279"><ele>229.79999999999998</ele><time>2026-04-25T06:07:36.228Z</time></trkpt><trkpt lat="45.6504733" lon="9.342785"><ele>229.39999999999998</ele><time>2026-04-25T06:07:37.227Z</time></trkpt><trkpt lat="45.6503883" lon="9.34279"><ele>229.0</ele><time>2026-04-25T06:07:38.228Z</time></trkpt><trkpt lat="45.6503117" lon="9.34281"><ele>228.66666666666666</ele><time>2026-04-25T06:07:39.229Z</time></trkpt><trkpt lat="45.650245" lon="9.342835"><ele>228.33333333333331</ele><time>2026-04-25T06:07:40.228Z</time></trkpt><trkpt lat="45.6501933" lon="9.3428983"><ele>228.0</ele><time>2026-04-25T06:07:41.228Z</time></trkpt><trkpt lat="45.650165" lon="9.3429933"><ele>227.66666666666669</ele><time>2026-04-25T06:07:42.228Z</time></trkpt><trkpt lat="45.6501583" lon="9.3431"><ele>227.33333333333334</ele><time>2026-04-25T06:07:43.228Z</time></trkpt><trkpt lat="45.6501733" lon="9.3432233"><ele>227.0</ele><time>2026-04-25T06:07:44.227Z</time></trkpt><trkpt lat="45.650185" lon="9.3433483"><ele>227.0</ele><time>2026-04-25T06:07:45.227Z</time></trkpt><trkpt lat="45.6502" lon="9.34348"><ele>227.0</ele><time>2026-04-25T06:07:46.227Z</time></trkpt><trkpt lat="45.6502267" lon="9.34365"><ele>227.0</ele><time>2026-04-25T06:07:47.229Z</time></trkpt><trkpt lat="45.6502567" lon="9.34386"><ele>227.0</ele><time>2026-04-25T06:07:48.228Z</time></trkpt><trkpt lat="45.650295" lon="9.344095"><ele>227.66666666666669</ele><time>2026-04-25T06:07:49.229Z</time></trkpt><trkpt lat="45.6503367" lon="9.3443483"><ele>228.33333333333331</ele><time>2026-04-25T06:07:50.227Z</time></trkpt><trkpt lat="45.6503717" lon="9.3446017"><ele>229.0</ele><time>2026-04-25T06:07:51.228Z</time></trkpt><trkpt lat="45.6503983" lon="9.3448417"><ele>229.0</ele><time>2026-04-25T06:07:52.23Z</time></trkpt><trkpt lat="45.6504267" lon="9.345065"><ele>229.0</ele><time>2026-04-25T06:07:53.227Z</time></trkpt><trkpt lat="45.650455" lon="9.3452783"><ele>229.0</ele><time>2026-04-25T06:07:54.228Z</time></trkpt><trkpt lat="45.65048" lon="9.34547"><ele>229.0</ele><time>2026-04-25T06:07:55.228Z</time></trkpt><trkpt lat="45.6504983" lon="9.3456433"><ele>227.75</ele><time>2026-04-25T06:07:56.228Z</time></trkpt><trkpt lat="45.6505" lon="9.34582"><ele>226.5</ele><time>2026-04-25T06:07:57.227Z</time></trkpt><trkpt lat="45.650475" lon="9.3460033"><ele>225.25</ele><time>2026-04-25T06:07:58.227Z</time></trkpt><trkpt lat="45.6504317" lon="9.3461883"><ele>224.0</ele><time>2026-04-25T06:07:59.228Z</time></trkpt><trkpt lat="45.6503833" lon="9.3463717"><ele>221.75</ele><time>2026-04-25T06:08:00.227Z</time></trkpt><trkpt lat="45.650325" lon="9.3465617"><ele>219.5</ele><time>2026-04-25T06:08:01.23Z</time></trkpt><trkpt lat="45.650265" lon="9.3467583"><ele>217.25</ele><time>2026-04-25T06:08:02.229Z</time></trkpt><trkpt lat="45.6502117" lon="9.34695"><ele>215.0</ele><time>2026-04-25T06:08:03.227Z</time></trkpt><trkpt lat="45.6501617" lon="9.3471283"><ele>215.5</ele><time>2026-04-25T06:08:04.227Z</time></trkpt><trkpt lat="45.65011" lon="9.3473033"><ele>216.0</ele><time>2026-04-25T06:08:05.228Z</time></trkpt><trkpt lat="45.6500683" lon="9.347475"><ele>216.5</ele><time>2026-04-25T06:08:06.229Z</time></trkpt><trkpt lat="45.6500417" lon="9.3476383"><ele>217.0</ele><time>2026-04-25T06:08:07.229Z</time></trkpt><trkpt lat="45.65003" lon="9.3477967"><ele>216.99999999999997</ele><time>2026-04-25T06:08:08.229Z</time></trkpt><trkpt lat="45.6500333" lon="9.3479417"><ele>217.0</ele><time>2026-04-25T06:08:09.229Z</time></trkpt><trkpt lat="45.65003" lon="9.3480783"><ele>217.0</ele><time>2026-04-25T06:08:10.23Z</time></trkpt><trkpt lat="45.6500217" lon="9.3481967"><ele>217.0</ele><time>2026-04-25T06:08:11.233Z</time></trkpt><trkpt lat="45.649995" lon="9.348305"><ele>216.99999999999997</ele><time>2026-04-25T06:08:12.236Z</time></trkpt><trkpt lat="45.6499633" lon="9.3484067"><ele>217.0</ele><time>2026-04-25T06:08:13.229Z</time></trkpt><trkpt lat="45.6498767" lon="9.3484733"><ele>217.6</ele><time>2026-04-25T06:08:14.231Z</time></trkpt><trkpt lat="45.6497717" lon="9.3485267"><ele>218.2</ele><time>2026-04-25T06:08:15.231Z</time></trkpt><trkpt lat="45.6496683" lon="9.3485733"><ele>218.8</ele><time>2026-04-25T06:08:16.228Z</time></trkpt><trkpt lat="45.6495617" lon="9.34861"><ele>219.4</ele><time>2026-04-25T06:08:17.229Z</time></trkpt><trkpt lat="45.64945" lon="9.3486517"><ele>220.0</ele><time>2026-04-25T06:08:18.228Z</time></trkpt><trkpt lat="45.6493567" lon="9.3486967"><ele>218.99999999999997</ele><time>2026-04-25T06:08:19.228Z</time></trkpt><trkpt lat="45.6492667" lon="9.3487317"><ele>218.0</ele><time>2026-04-25T06:08:20.23Z</time></trkpt><trkpt lat="45.6491817" lon="9.34877"><ele>217.0</ele><time>2026-04-25T06:08:21.229Z</time></trkpt><trkpt lat="45.6491017" lon="9.348805"><ele>216.0</ele><time>2026-04-25T06:08:22.228Z</time></trkpt><trkpt lat="45.6490333" lon="9.3488317"><ele>214.99999999999997</ele><time>2026-04-25T06:08:23.229Z</time></trkpt><trkpt lat="45.64893" lon="9.34886"><ele>214.0</ele><time>2026-04-25T06:08:25.229Z</time></trkpt><trkpt lat="45.6488433" lon="9.3489583"><ele>214.0</ele><time>2026-04-25T06:08:33.23Z</time></trkpt><trkpt lat="45.6488633" lon="9.3491583"><ele>214.0</ele><time>2026-04-25T06:08:35.229Z</time></trkpt><trkpt lat="45.6488967" lon="9.34929"><ele>214.0</ele><time>2026-04-25T06:08:36.23Z</time></trkpt><trkpt lat="45.6489367" lon="9.349445"><ele>214.0</ele><time>2026-04-25T06:08:37.229Z</time></trkpt><trkpt lat="45.64898" lon="9.34962"><ele>214.5</ele><time>2026-04-25T06:08:38.228Z</time></trkpt><trkpt lat="45.6490283" lon="9.3498083"><ele>215.0</ele><time>2026-04-25T06:08:39.229Z</time></trkpt><trkpt lat="45.64908" lon="9.3500017"><ele>215.5</ele><time>2026-04-25T06:08:40.228Z</time></trkpt><trkpt lat="45.6491333" lon="9.350195"><ele>216.0</ele><time>2026-04-25T06:08:41.229Z</time></trkpt><trkpt lat="45.6491867" lon="9.3503817"><ele>216.0</ele><time>2026-04-25T06:08:42.228Z</time></trkpt><trkpt lat="45.6492367" lon="9.350555"><ele>216.0</ele><time>2026-04-25T06:08:43.229Z</time></trkpt><trkpt lat="45.6492817" lon="9.35073"><ele>216.0</ele><time>2026-04-25T06:08:44.228Z</time></trkpt><trkpt lat="45.6493317" lon="9.35091"><ele>216.0</ele><time>2026-04-25T06:08:45.228Z</time></trkpt><trkpt lat="45.6493833" lon="9.3510967"><ele>216.0</ele><time>2026-04-25T06:08:46.227Z</time></trkpt><trkpt lat="45.649435" lon="9.3512867"><ele>216.0</ele><time>2026-04-25T06:08:47.229Z</time></trkpt><trkpt lat="45.64949" lon="9.3514817"><ele>216.0</ele><time>2026-04-25T06:08:48.229Z</time></trkpt><trkpt lat="45.6495483" lon="9.35168"><ele>216.0</ele><time>2026-04-25T06:08:49.228Z</time></trkpt><trkpt lat="45.6496083" lon="9.35188"><ele>215.75</ele><time>2026-04-25T06:08:50.227Z</time></trkpt><trkpt lat="45.64967" lon="9.3520767"><ele>215.5</ele><time>2026-04-25T06:08:51.229Z</time></trkpt><trkpt lat="45.649725" lon="9.3522683"><ele>215.25</ele><time>2026-04-25T06:08:52.228Z</time></trkpt><trkpt lat="45.6497733" lon="9.3524467"><ele>215.0</ele><time>2026-04-25T06:08:53.23Z</time></trkpt><trkpt lat="45.649815" lon="9.3526133"><ele>215.4</ele><time>2026-04-25T06:08:54.228Z</time></trkpt><trkpt lat="45.6498533" lon="9.3527667"><ele>215.8</ele><time>2026-04-25T06:08:55.228Z</time></trkpt><trkpt lat="45.6498883" lon="9.35291"><ele>216.2</ele><time>2026-04-25T06:08:56.23Z</time></trkpt><trkpt lat="45.6499233" lon="9.35305"><ele>216.6</ele><time>2026-04-25T06:08:57.228Z</time></trkpt><trkpt lat="45.6499633" lon="9.353195"><ele>217.0</ele><time>2026-04-25T06:08:58.229Z</time></trkpt><trkpt lat="45.650005" lon="9.3533483"><ele>217.25</ele><time>2026-04-25T06:08:59.229Z</time></trkpt><trkpt lat="45.6500517" lon="9.35351"><ele>217.5</ele><time>2026-04-25T06:09:00.228Z</time></trkpt><trkpt lat="45.6501033" lon="9.3536817"><ele>217.75</ele><time>2026-04-25T06:09:01.228Z</time></trkpt><trkpt lat="45.65016" lon="9.353865"><ele>218.0</ele><time>2026-04-25T06:09:02.229Z</time></trkpt><trkpt lat="45.6502217" lon="9.354055"><ele>218.0</ele><time>2026-04-25T06:09:03.23Z</time></trkpt><trkpt lat="45.6502867" lon="9.3542483"><ele>218.0</ele><time>2026-04-25T06:09:04.227Z</time></trkpt><trkpt lat="45.6503617" lon="9.3544483"><ele>218.0</ele><time>2026-04-25T06:09:05.227Z</time></trkpt><trkpt lat="45.6504383" lon="9.3546567"><ele>220.0</ele><time>2026-04-25T06:09:06.229Z</time></trkpt><trkpt lat="45.6505183" lon="9.354875"><ele>222.0</ele><time>2026-04-25T06:09:07.228Z</time></trkpt><trkpt lat="45.6506017" lon="9.3550983"><ele>224.0</ele><time>2026-04-25T06:09:08.228Z</time></trkpt><trkpt lat="45.6506833" lon="9.3553167"><ele>224.0</ele><time>2026-04-25T06:09:09.229Z</time></trkpt><trkpt lat="45.6507617" lon="9.355525"><ele>224.0</ele><time>2026-04-25T06:09:10.23Z</time></trkpt><trkpt lat="45.650835" lon="9.3557183"><ele>224.0</ele><time>2026-04-25T06:09:11.231Z</time></trkpt><trkpt lat="45.650905" lon="9.355905"><ele>223.75</ele><time>2026-04-25T06:09:12.23Z</time></trkpt><trkpt lat="45.6509733" lon="9.3560867"><ele>223.5</ele><time>2026-04-25T06:09:13.227Z</time></trkpt><trkpt lat="45.651045" lon="9.3562717"><ele>223.25</ele><time>2026-04-25T06:09:14.229Z</time></trkpt><trkpt lat="45.651115" lon="9.3564583"><ele>223.0</ele><time>2026-04-25T06:09:15.228Z</time></trkpt><trkpt lat="45.6511917" lon="9.356645"><ele>224.0</ele><time>2026-04-25T06:09:16.227Z</time></trkpt><trkpt lat="45.651265" lon="9.3568383"><ele>225.0</ele><time>2026-04-25T06:09:17.228Z</time></trkpt><trkpt lat="45.6513417" lon="9.3570367"><ele>226.0</ele><time>2026-04-25T06:09:18.228Z</time></trkpt><trkpt lat="45.65142" lon="9.3572367"><ele>226.0</ele><time>2026-04-25T06:09:19.229Z</time></trkpt><trkpt lat="45.6515017" lon="9.357435"><ele>226.0</ele><time>2026-04-25T06:09:20.228Z</time></trkpt><trkpt lat="45.6515883" lon="9.3576333"><ele>226.0</ele><time>2026-04-25T06:09:21.231Z</time></trkpt><trkpt lat="45.6516717" lon="9.3578217"><ele>226.0</ele><time>2026-04-25T06:09:22.228Z</time></trkpt><trkpt lat="45.65175" lon="9.3579967"><ele>226.0</ele><time>2026-04-25T06:09:23.229Z</time></trkpt><trkpt lat="45.6518233" lon="9.3581667"><ele>226.0</ele><time>2026-04-25T06:09:24.229Z</time></trkpt><trkpt lat="45.6518917" lon="9.358325"><ele>226.0</ele><time>2026-04-25T06:09:25.228Z</time></trkpt><trkpt lat="45.65195" lon="9.358465"><ele>225.99999999999997</ele><time>2026-04-25T06:09:26.228Z</time></trkpt><trkpt lat="45.6519917" lon="9.3585833"><ele>226.0</ele><time>2026-04-25T06:09:27.231Z</time></trkpt><trkpt lat="45.6520233" lon="9.3586767"><ele>226.0</ele><time>2026-04-25T06:09:28.23Z</time></trkpt><trkpt lat="45.6520583" lon="9.35881"><ele>226.0</ele><time>2026-04-25T06:09:30.23Z</time></trkpt><trkpt lat="45.652075" lon="9.35891"><ele>225.99999999999997</ele><time>2026-04-25T06:09:33.229Z</time></trkpt><trkpt lat="45.6520817" lon="9.359015"><ele>226.0</ele><time>2026-04-25T06:09:52.229Z</time></trkpt><trkpt lat="45.6521717" lon="9.3591467"><ele>225.99999999999997</ele><time>2026-04-25T06:09:54.228Z</time></trkpt><trkpt lat="45.65224" lon="9.3591883"><ele>226.0</ele><time>2026-04-25T06:09:55.228Z</time></trkpt><trkpt lat="45.6522983" lon="9.3592467"><ele>226.0</ele><time>2026-04-25T06:09:56.228Z</time></trkpt><trkpt lat="45.6523467" lon="9.3593367"><ele>226.0</ele><time>2026-04-25T06:09:57.229Z</time></trkpt><trkpt lat="45.6523883" lon="9.3594583"><ele>225.99999999999997</ele><time>2026-04-25T06:09:58.228Z</time></trkpt><trkpt lat="45.6524183" lon="9.359605"><ele>226.0</ele><time>2026-04-25T06:09:59.23Z</time></trkpt><trkpt lat="45.6524467" lon="9.359775"><ele>226.5</ele><time>2026-04-25T06:10:00.229Z</time></trkpt><trkpt lat="45.6524667" lon="9.3599433"><ele>227.0</ele><time>2026-04-25T06:10:01.228Z</time></trkpt><trkpt lat="45.6524733" lon="9.360125"><ele>227.5</ele><time>2026-04-25T06:10:02.228Z</time></trkpt><trkpt lat="45.6524733" lon="9.3603033"><ele>228.0</ele><time>2026-04-25T06:10:03.229Z</time></trkpt><trkpt lat="45.652465" lon="9.3604683"><ele>227.5</ele><time>2026-04-25T06:10:04.232Z</time></trkpt><trkpt lat="45.65244" lon="9.3605967"><ele>227.0</ele><time>2026-04-25T06:10:05.229Z</time></trkpt><trkpt lat="45.6524083" lon="9.360705"><ele>226.5</ele><time>2026-04-25T06:10:06.229Z</time></trkpt><trkpt lat="45.652385" lon="9.3608033"><ele>226.0</ele><time>2026-04-25T06:10:07.228Z</time></trkpt><trkpt lat="45.65238" lon="9.3608983"><ele>225.5</ele><time>2026-04-25T06:10:08.228Z</time></trkpt><trkpt lat="45.6523967" lon="9.3609917"><ele>225.0</ele><time>2026-04-25T06:10:09.232Z</time></trkpt><trkpt lat="45.6524367" lon="9.3610833"><ele>225.0</ele><time>2026-04-25T06:10:10.228Z</time></trkpt><trkpt lat="45.6524833" lon="9.3611817"><ele>225.0</ele><time>2026-04-25T06:10:11.229Z</time></trkpt><trkpt lat="45.65253" lon="9.3613083"><ele>225.0</ele><time>2026-04-25T06:10:12.228Z</time></trkpt><trkpt lat="45.6525867" lon="9.3614683"><ele>225.0</ele><time>2026-04-25T06:10:13.229Z</time></trkpt><trkpt lat="45.6526467" lon="9.3616283"><ele>225.0</ele><time>2026-04-25T06:10:14.228Z</time></trkpt><trkpt lat="45.65271" lon="9.3618"><ele>225.2</ele><time>2026-04-25T06:10:15.228Z</time></trkpt><trkpt lat="45.6527617" lon="9.3619483"><ele>225.4</ele><time>2026-04-25T06:10:16.229Z</time></trkpt><trkpt lat="45.6528117" lon="9.3620683"><ele>225.60000000000002</ele><time>2026-04-25T06:10:17.229Z</time></trkpt><trkpt lat="45.652875" lon="9.3621633"><ele>225.8</ele><time>2026-04-25T06:10:18.228Z</time></trkpt><trkpt lat="45.6529567" lon="9.362235"><ele>226.0</ele><time>2026-04-25T06:10:19.228Z</time></trkpt><trkpt lat="45.6530467" lon="9.3622983"><ele>225.20000000000002</ele><time>2026-04-25T06:10:20.23Z</time></trkpt><trkpt lat="45.6531367" lon="9.3623533"><ele>224.40000000000003</ele><time>2026-04-25T06:10:21.231Z</time></trkpt><trkpt lat="45.6532183" lon="9.3624083"><ele>223.6</ele><time>2026-04-25T06:10:22.23Z</time></trkpt><trkpt lat="45.6532867" lon="9.362475"><ele>222.8</ele><time>2026-04-25T06:10:23.229Z</time></trkpt><trkpt lat="45.653365" lon="9.362565"><ele>222.0</ele><time>2026-04-25T06:10:24.229Z</time></trkpt><trkpt lat="45.6534433" lon="9.36268"><ele>222.0</ele><time>2026-04-25T06:10:25.231Z</time></trkpt><trkpt lat="45.6535233" lon="9.3628067"><ele>222.0</ele><time>2026-04-25T06:10:26.23Z</time></trkpt><trkpt lat="45.6536067" lon="9.3629417"><ele>222.0</ele><time>2026-04-25T06:10:27.23Z</time></trkpt><trkpt lat="45.6537017" lon="9.3630817"><ele>222.0</ele><time>2026-04-25T06:10:28.231Z</time></trkpt><trkpt lat="45.6538017" lon="9.3632267"><ele>222.25</ele><time>2026-04-25T06:10:29.23Z</time></trkpt><trkpt lat="45.6538983" lon="9.363365"><ele>222.5</ele><time>2026-04-25T06:10:30.23Z</time></trkpt><trkpt lat="45.6539883" lon="9.36349"><ele>222.75</ele><time>2026-04-25T06:10:31.229Z</time></trkpt><trkpt lat="45.6540683" lon="9.3636067"><ele>223.0</ele><time>2026-04-25T06:10:32.227Z</time></trkpt><trkpt lat="45.654135" lon="9.36371"><ele>223.0</ele><time>2026-04-25T06:10:33.229Z</time></trkpt><trkpt lat="45.6541883" lon="9.3638217"><ele>223.0</ele><time>2026-04-25T06:10:34.228Z</time></trkpt><trkpt lat="45.6542217" lon="9.3639433"><ele>223.0</ele><time>2026-04-25T06:10:35.228Z</time></trkpt><trkpt lat="45.654245" lon="9.364075"><ele>223.0</ele><time>2026-04-25T06:10:36.228Z</time></trkpt><trkpt lat="45.6542633" lon="9.3642083"><ele>223.0</ele><time>2026-04-25T06:10:37.228Z</time></trkpt><trkpt lat="45.6542783" lon="9.3643183"><ele>222.16666666666666</ele><time>2026-04-25T06:10:38.229Z</time></trkpt><trkpt lat="45.6542817" lon="9.3644133"><ele>221.33333333333331</ele><time>2026-04-25T06:10:39.23Z</time></trkpt><trkpt lat="45.654215" lon="9.364535"><ele>220.5</ele><time>2026-04-25T06:10:41.23Z</time></trkpt><trkpt lat="45.6541533" lon="9.3645883"><ele>219.66666666666669</ele><time>2026-04-25T06:10:42.229Z</time></trkpt><trkpt lat="45.654105" lon="9.3646667"><ele>218.83333333333334</ele><time>2026-04-25T06:10:43.231Z</time></trkpt><trkpt lat="45.65407" lon="9.3647783"><ele>218.0</ele><time>2026-04-25T06:10:44.229Z</time></trkpt><trkpt lat="45.654045" lon="9.3649167"><ele>217.5</ele><time>2026-04-25T06:10:45.228Z</time></trkpt><trkpt lat="45.6540133" lon="9.36508"><ele>217.0</ele><time>2026-04-25T06:10:46.228Z</time></trkpt><trkpt lat="45.65398" lon="9.36526"><ele>216.5</ele><time>2026-04-25T06:10:47.228Z</time></trkpt><trkpt lat="45.6539417" lon="9.36544"><ele>216.0</ele><time>2026-04-25T06:10:48.233Z</time></trkpt><trkpt lat="45.6539067" lon="9.365615"><ele>215.8</ele><time>2026-04-25T06:10:49.229Z</time></trkpt><trkpt lat="45.6538733" lon="9.3657867"><ele>215.60000000000002</ele><time>2026-04-25T06:10:50.23Z</time></trkpt><trkpt lat="45.6538433" lon="9.3659483"><ele>215.4</ele><time>2026-04-25T06:10:51.229Z</time></trkpt><trkpt lat="45.653815" lon="9.3660917"><ele>215.2</ele><time>2026-04-25T06:10:52.232Z</time></trkpt><trkpt lat="45.65378" lon="9.366225"><ele>215.0</ele><time>2026-04-25T06:10:53.231Z</time></trkpt><trkpt lat="45.653735" lon="9.366345"><ele>215.66666666666669</ele><time>2026-04-25T06:10:54.231Z</time></trkpt><trkpt lat="45.6536817" lon="9.36645"><ele>216.33333333333334</ele><time>2026-04-25T06:10:55.228Z</time></trkpt><trkpt lat="45.65363" lon="9.3665483"><ele>217.0</ele><time>2026-04-25T06:10:56.229Z</time></trkpt><trkpt lat="45.65359" lon="9.3666517"><ele>217.66666666666669</ele><time>2026-04-25T06:10:57.229Z</time></trkpt><trkpt lat="45.6535733" lon="9.366765"><ele>218.33333333333334</ele><time>2026-04-25T06:10:58.228Z</time></trkpt><trkpt lat="45.65359" lon="9.36689"><ele>219.0</ele><time>2026-04-25T06:10:59.232Z</time></trkpt><trkpt lat="45.653625" lon="9.3670317"><ele>219.25</ele><time>2026-04-25T06:11:00.23Z</time></trkpt><trkpt lat="45.6536733" lon="9.367185"><ele>219.5</ele><time>2026-04-25T06:11:01.228Z</time></trkpt><trkpt lat="45.6537183" lon="9.3673483"><ele>219.75</ele><time>2026-04-25T06:11:02.229Z</time></trkpt><trkpt lat="45.6537567" lon="9.3675183"><ele>220.0</ele><time>2026-04-25T06:11:03.229Z</time></trkpt><trkpt lat="45.6537967" lon="9.3676967"><ele>220.25</ele><time>2026-04-25T06:11:04.23Z</time></trkpt><trkpt lat="45.6538367" lon="9.3678733"><ele>220.5</ele><time>2026-04-25T06:11:05.229Z</time></trkpt><trkpt lat="45.6538767" lon="9.3680383"><ele>220.75</ele><time>2026-04-25T06:11:06.227Z</time></trkpt><trkpt lat="45.6539133" lon="9.36819"><ele>221.0</ele><time>2026-04-25T06:11:07.229Z</time></trkpt><trkpt lat="45.6539467" lon="9.3683317"><ele>221.16666666666669</ele><time>2026-04-25T06:11:08.228Z</time></trkpt><trkpt lat="45.6539783" lon="9.36847"><ele>221.33333333333334</ele><time>2026-04-25T06:11:09.229Z</time></trkpt><trkpt lat="45.654" lon="9.3686"><ele>221.5</ele><time>2026-04-25T06:11:10.228Z</time></trkpt><trkpt lat="45.6540067" lon="9.3687133"><ele>221.66666666666669</ele><time>2026-04-25T06:11:11.228Z</time></trkpt><trkpt lat="45.6539983" lon="9.3688067"><ele>221.83333333333334</ele><time>2026-04-25T06:11:12.229Z</time></trkpt><trkpt lat="45.6539567" lon="9.368885"><ele>222.0</ele><time>2026-04-25T06:11:13.227Z</time></trkpt><trkpt lat="45.65388" lon="9.3689383"><ele>222.33333333333334</ele><time>2026-04-25T06:11:14.229Z</time></trkpt><trkpt lat="45.6538" lon="9.3689867"><ele>222.66666666666669</ele><time>2026-04-25T06:11:15.228Z</time></trkpt><trkpt lat="45.6537117" lon="9.369015"><ele>223.0</ele><time>2026-04-25T06:11:16.232Z</time></trkpt><trkpt lat="45.65363" lon="9.3690383"><ele>223.33333333333334</ele><time>2026-04-25T06:11:17.228Z</time></trkpt><trkpt lat="45.6535517" lon="9.3690733"><ele>223.66666666666669</ele><time>2026-04-25T06:11:18.232Z</time></trkpt><trkpt lat="45.6534883" lon="9.3691283"><ele>224.0</ele><time>2026-04-25T06:11:19.229Z</time></trkpt><trkpt lat="45.6534467" lon="9.369205"><ele>223.14285714285714</ele><time>2026-04-25T06:11:20.231Z</time></trkpt><trkpt lat="45.65342" lon="9.3692883"><ele>222.28571428571428</ele><time>2026-04-25T06:11:21.233Z</time></trkpt><trkpt lat="45.6534" lon="9.369385"><ele>221.42857142857144</ele><time>2026-04-25T06:11:22.234Z</time></trkpt><trkpt lat="45.6533783" lon="9.3694883"><ele>220.57142857142856</ele><time>2026-04-25T06:11:23.229Z</time></trkpt><trkpt lat="45.6533483" lon="9.3695883"><ele>219.71428571428572</ele><time>2026-04-25T06:11:24.23Z</time></trkpt><trkpt lat="45.6533117" lon="9.3696917"><ele>218.85714285714286</ele><time>2026-04-25T06:11:25.23Z</time></trkpt><trkpt lat="45.6532767" lon="9.3697933"><ele>218.0</ele><time>2026-04-25T06:11:26.227Z</time></trkpt><trkpt lat="45.6532483" lon="9.3698883"><ele>217.8</ele><time>2026-04-25T06:11:27.228Z</time></trkpt><trkpt lat="45.6532267" lon="9.3699883"><ele>217.60000000000002</ele><time>2026-04-25T06:11:28.229Z</time></trkpt><trkpt lat="45.653305" lon="9.37011"><ele>217.39999999999998</ele><time>2026-04-25T06:11:30.228Z</time></trkpt><trkpt lat="45.6534233" lon="9.370115"><ele>217.2</ele><time>2026-04-25T06:11:32.229Z</time></trkpt><trkpt lat="45.65351" lon="9.3700967"><ele>217.0</ele><time>2026-04-25T06:11:33.228Z</time></trkpt><trkpt lat="45.653605" lon="9.3701017"><ele>217.75</ele><time>2026-04-25T06:11:34.229Z</time></trkpt><trkpt lat="45.65371" lon="9.3701383"><ele>218.5</ele><time>2026-04-25T06:11:35.234Z</time></trkpt><trkpt lat="45.6538267" lon="9.3701967"><ele>219.25</ele><time>2026-04-25T06:11:36.228Z</time></trkpt><trkpt lat="45.6539533" lon="9.370265"><ele>220.0</ele><time>2026-04-25T06:11:37.231Z</time></trkpt><trkpt lat="45.6540783" lon="9.3703333"><ele>220.0</ele><time>2026-04-25T06:11:38.229Z</time></trkpt><trkpt lat="45.654205" lon="9.3704067"><ele>220.0</ele><time>2026-04-25T06:11:39.229Z</time></trkpt><trkpt lat="45.6543133" lon="9.3704633"><ele>220.0</ele><time>2026-04-25T06:11:40.23Z</time></trkpt><trkpt lat="45.6544083" lon="9.37052"><ele>220.0</ele><time>2026-04-25T06:11:41.228Z</time></trkpt><trkpt lat="45.6544917" lon="9.3705817"><ele>220.0</ele><time>2026-04-25T06:11:42.228Z</time></trkpt><trkpt lat="45.6545683" lon="9.370655"><ele>221.75</ele><time>2026-04-25T06:11:43.227Z</time></trkpt><trkpt lat="45.6546383" lon="9.3707617"><ele>223.5</ele><time>2026-04-25T06:11:44.229Z</time></trkpt><trkpt lat="45.6546917" lon="9.37089"><ele>225.25</ele><time>2026-04-25T06:11:45.23Z</time></trkpt><trkpt lat="45.6547517" lon="9.3710417"><ele>227.0</ele><time>2026-04-25T06:11:46.229Z</time></trkpt><trkpt lat="45.65482" lon="9.3712083"><ele>225.66666666666669</ele><time>2026-04-25T06:11:47.228Z</time></trkpt><trkpt lat="45.6548933" lon="9.371405"><ele>224.33333333333331</ele><time>2026-04-25T06:11:48.231Z</time></trkpt><trkpt lat="45.654975" lon="9.3716217"><ele>223.0</ele><time>2026-04-25T06:11:49.228Z</time></trkpt><trkpt lat="45.65506" lon="9.371835"><ele>223.0</ele><time>2026-04-25T06:11:50.23Z</time></trkpt><trkpt lat="45.655155" lon="9.3720483"><ele>223.0</ele><time>2026-04-25T06:11:51.228Z</time></trkpt><trkpt lat="45.6552467" lon="9.37228"><ele>223.0</ele><time>2026-04-25T06:11:52.228Z</time></trkpt><trkpt lat="45.6553383" lon="9.372515"><ele>224.33333333333331</ele><time>2026-04-25T06:11:53.229Z</time></trkpt><trkpt lat="45.6554283" lon="9.3727483"><ele>225.66666666666669</ele><time>2026-04-25T06:11:54.23Z</time></trkpt><trkpt lat="45.65552" lon="9.3729767"><ele>227.0</ele><time>2026-04-25T06:11:55.228Z</time></trkpt><trkpt lat="45.6556033" lon="9.373195"><ele>227.0</ele><time>2026-04-25T06:11:56.229Z</time></trkpt><trkpt lat="45.6556867" lon="9.373415"><ele>227.0</ele><time>2026-04-25T06:11:57.229Z</time></trkpt><trkpt lat="45.65577" lon="9.373635"><ele>227.0</ele><time>2026-04-25T06:11:58.228Z</time></trkpt><trkpt lat="45.655855" lon="9.373855"><ele>226.0</ele><time>2026-04-25T06:11:59.227Z</time></trkpt><trkpt lat="45.6559383" lon="9.374075"><ele>225.0</ele><time>2026-04-25T06:12:00.228Z</time></trkpt><trkpt lat="45.6560217" lon="9.374295"><ele>224.0</ele><time>2026-04-25T06:12:01.228Z</time></trkpt><trkpt lat="45.6561083" lon="9.3745167"><ele>226.33333333333334</ele><time>2026-04-25T06:12:02.228Z</time></trkpt><trkpt lat="45.656195" lon="9.37474"><ele>228.66666666666669</ele><time>2026-04-25T06:12:03.23Z</time></trkpt><trkpt lat="45.6562833" lon="9.37496"><ele>231.0</ele><time>2026-04-25T06:12:04.229Z</time></trkpt><trkpt lat="45.6563717" lon="9.3751733"><ele>231.0</ele><time>2026-04-25T06:12:05.231Z</time></trkpt><trkpt lat="45.656455" lon="9.3753717"><ele>231.0</ele><time>2026-04-25T06:12:06.229Z</time></trkpt><trkpt lat="45.6565383" lon="9.375555"><ele>231.0</ele><time>2026-04-25T06:12:07.23Z</time></trkpt><trkpt lat="45.65662" lon="9.3757217"><ele>229.75</ele><time>2026-04-25T06:12:08.23Z</time></trkpt><trkpt lat="45.6566983" lon="9.3758783"><ele>228.5</ele><time>2026-04-25T06:12:09.229Z</time></trkpt><trkpt lat="45.656775" lon="9.3760133"><ele>227.25</ele><time>2026-04-25T06:12:10.231Z</time></trkpt><trkpt lat="45.6568467" lon="9.3761417"><ele>226.0</ele><time>2026-04-25T06:12:11.23Z</time></trkpt><trkpt lat="45.6569083" lon="9.376285"><ele>226.0</ele><time>2026-04-25T06:12:12.23Z</time></trkpt><trkpt lat="45.656975" lon="9.3764317"><ele>226.0</ele><time>2026-04-25T06:12:13.231Z</time></trkpt><trkpt lat="45.657045" lon="9.376575"><ele>226.0</ele><time>2026-04-25T06:12:14.23Z</time></trkpt><trkpt lat="45.6571183" lon="9.3767067"><ele>226.0</ele><time>2026-04-25T06:12:15.231Z</time></trkpt><trkpt lat="45.657185" lon="9.376825"><ele>225.99999999999997</ele><time>2026-04-25T06:12:16.23Z</time></trkpt><trkpt lat="45.6572567" lon="9.3769267"><ele>226.0</ele><time>2026-04-25T06:12:17.229Z</time></trkpt><trkpt lat="45.657315" lon="9.3770133"><ele>226.0</ele><time>2026-04-25T06:12:18.229Z</time></trkpt><trkpt lat="45.657375" lon="9.377095"><ele>226.0</ele><time>2026-04-25T06:12:19.229Z</time></trkpt><trkpt lat="45.6574367" lon="9.37717"><ele>225.99999999999997</ele><time>2026-04-25T06:12:20.229Z</time></trkpt><trkpt lat="45.6575017" lon="9.37724"><ele>226.0</ele><time>2026-04-25T06:12:21.231Z</time></trkpt><trkpt lat="45.6575733" lon="9.377305"><ele>225.99999999999997</ele><time>2026-04-25T06:12:22.229Z</time></trkpt><trkpt lat="45.6576433" lon="9.3773583"><ele>226.0</ele><time>2026-04-25T06:12:23.229Z</time></trkpt><trkpt lat="45.6577033" lon="9.3774"><ele>226.0</ele><time>2026-04-25T06:12:24.231Z</time></trkpt><trkpt lat="45.65776" lon="9.377335"><ele>226.0</ele><time>2026-04-25T06:12:44.23Z</time></trkpt><trkpt lat="45.6577183" lon="9.377185"><ele>225.99999999999997</ele><time>2026-04-25T06:12:46.228Z</time></trkpt><trkpt lat="45.65767" lon="9.3770867"><ele>226.0</ele><time>2026-04-25T06:12:47.228Z</time></trkpt><trkpt lat="45.6576167" lon="9.3769867"><ele>226.0</ele><time>2026-04-25T06:12:48.231Z</time></trkpt><trkpt lat="45.6575717" lon="9.3768867"><ele>226.00000000000003</ele><time>2026-04-25T06:12:49.229Z</time></trkpt><trkpt lat="45.65753" lon="9.3767783"><ele>226.00000000000003</ele><time>2026-04-25T06:12:50.229Z</time></trkpt><trkpt lat="45.6575067" lon="9.3766633"><ele>226.0</ele><time>2026-04-25T06:12:51.231Z</time></trkpt><trkpt lat="45.6574933" lon="9.3765517"><ele>226.0</ele><time>2026-04-25T06:12:52.23Z</time></trkpt><trkpt lat="45.65759" lon="9.3764083"><ele>226.0</ele><time>2026-04-25T06:12:54.23Z</time></trkpt><trkpt lat="45.6577783" lon="9.3763917"><ele>226.0</ele><time>2026-04-25T06:12:55.229Z</time></trkpt><trkpt lat="45.65796" lon="9.3763567"><ele>226.0</ele><time>2026-04-25T06:12:56.229Z</time></trkpt><trkpt lat="45.658125" lon="9.376315"><ele>230.33333333333331</ele><time>2026-04-25T06:12:57.228Z</time></trkpt><trkpt lat="45.6582917" lon="9.3762667"><ele>234.66666666666669</ele><time>2026-04-25T06:12:58.227Z</time></trkpt><trkpt lat="45.6584633" lon="9.3762117"><ele>239.0</ele><time>2026-04-25T06:12:59.228Z</time></trkpt><trkpt lat="45.6586333" lon="9.3761633"><ele>240.0</ele><time>2026-04-25T06:13:00.227Z</time></trkpt><trkpt lat="45.6587933" lon="9.376115"><ele>241.0</ele><time>2026-04-25T06:13:01.228Z</time></trkpt><trkpt lat="45.6589467" lon="9.3760683"><ele>242.0</ele><time>2026-04-25T06:13:02.227Z</time></trkpt><trkpt lat="45.6590867" lon="9.3760283"><ele>242.0</ele><time>2026-04-25T06:13:03.231Z</time></trkpt><trkpt lat="45.6592167" lon="9.375995"><ele>242.0</ele><time>2026-04-25T06:13:04.231Z</time></trkpt><trkpt lat="45.6593467" lon="9.375965"><ele>242.0</ele><time>2026-04-25T06:13:05.228Z</time></trkpt><trkpt lat="45.6594717" lon="9.375935"><ele>242.0</ele><time>2026-04-25T06:13:06.231Z</time></trkpt><trkpt lat="45.6595967" lon="9.3759033"><ele>243.0</ele><time>2026-04-25T06:13:07.228Z</time></trkpt><trkpt lat="45.6597183" lon="9.3758667"><ele>244.0</ele><time>2026-04-25T06:13:08.228Z</time></trkpt><trkpt lat="45.65984" lon="9.3758317"><ele>245.0</ele><time>2026-04-25T06:13:09.23Z</time></trkpt><trkpt lat="45.6599567" lon="9.3757983"><ele>246.0</ele><time>2026-04-25T06:13:10.229Z</time></trkpt><trkpt lat="45.6600717" lon="9.3757683"><ele>246.0</ele><time>2026-04-25T06:13:11.229Z</time></trkpt><trkpt lat="45.6601817" lon="9.3757367"><ele>246.00000000000003</ele><time>2026-04-25T06:13:12.232Z</time></trkpt><trkpt lat="45.6602867" lon="9.3757083"><ele>246.00000000000003</ele><time>2026-04-25T06:13:13.228Z</time></trkpt><trkpt lat="45.6603883" lon="9.3756883"><ele>246.0</ele><time>2026-04-25T06:13:14.228Z</time></trkpt><trkpt lat="45.660475" lon="9.37568"><ele>246.0</ele><time>2026-04-25T06:13:15.228Z</time></trkpt><trkpt lat="45.6605583" lon="9.37569"><ele>246.20000000000002</ele><time>2026-04-25T06:13:16.228Z</time></trkpt><trkpt lat="45.6606433" lon="9.3757133"><ele>246.40000000000003</ele><time>2026-04-25T06:13:17.229Z</time></trkpt><trkpt lat="45.66074" lon="9.3757517"><ele>246.6</ele><time>2026-04-25T06:13:18.23Z</time></trkpt><trkpt lat="45.6608283" lon="9.3758283"><ele>246.8</ele><time>2026-04-25T06:13:19.23Z</time></trkpt><trkpt lat="45.6609117" lon="9.37593"><ele>247.0</ele><time>2026-04-25T06:13:20.229Z</time></trkpt><trkpt lat="45.6609917" lon="9.3760467"><ele>247.0</ele><time>2026-04-25T06:13:21.233Z</time></trkpt><trkpt lat="45.661065" lon="9.37617"><ele>247.0</ele><time>2026-04-25T06:13:22.231Z</time></trkpt><trkpt lat="45.6611583" lon="9.3763167"><ele>247.0</ele><time>2026-04-25T06:13:23.231Z</time></trkpt><trkpt lat="45.6612583" lon="9.3764833"><ele>247.0</ele><time>2026-04-25T06:13:24.231Z</time></trkpt><trkpt lat="45.6613567" lon="9.3766517"><ele>247.75</ele><time>2026-04-25T06:13:25.229Z</time></trkpt><trkpt lat="45.661455" lon="9.376815"><ele>248.5</ele><time>2026-04-25T06:13:26.228Z</time></trkpt><trkpt lat="45.661545" lon="9.3769583"><ele>249.25</ele><time>2026-04-25T06:13:27.229Z</time></trkpt><trkpt lat="45.6616233" lon="9.377085"><ele>250.0</ele><time>2026-04-25T06:13:28.227Z</time></trkpt><trkpt lat="45.66169" lon="9.3771967"><ele>250.16666666666666</ele><time>2026-04-25T06:13:29.23Z</time></trkpt><trkpt lat="45.6617417" lon="9.3772933"><ele>250.33333333333331</ele><time>2026-04-25T06:13:30.229Z</time></trkpt><trkpt lat="45.661785" lon="9.3773867"><ele>250.5</ele><time>2026-04-25T06:13:31.228Z</time></trkpt><trkpt lat="45.661825" lon="9.3774717"><ele>250.66666666666669</ele><time>2026-04-25T06:13:32.228Z</time></trkpt><trkpt lat="45.6618817" lon="9.3775383"><ele>250.83333333333334</ele><time>2026-04-25T06:13:33.23Z</time></trkpt><trkpt lat="45.6619583" lon="9.377585"><ele>251.0</ele><time>2026-04-25T06:13:34.228Z</time></trkpt><trkpt lat="45.662055" lon="9.3776167"><ele>251.25</ele><time>2026-04-25T06:13:35.228Z</time></trkpt><trkpt lat="45.662165" lon="9.3776383"><ele>251.5</ele><time>2026-04-25T06:13:36.229Z</time></trkpt><trkpt lat="45.662285" lon="9.377645"><ele>251.75</ele><time>2026-04-25T06:13:37.228Z</time></trkpt><trkpt lat="45.6624133" lon="9.377645"><ele>252.0</ele><time>2026-04-25T06:13:38.228Z</time></trkpt><trkpt lat="45.6625533" lon="9.3776467"><ele>252.0</ele><time>2026-04-25T06:13:39.228Z</time></trkpt><trkpt lat="45.6627017" lon="9.37765"><ele>252.0</ele><time>2026-04-25T06:13:40.229Z</time></trkpt><trkpt lat="45.66286" lon="9.3776533"><ele>252.0</ele><time>2026-04-25T06:13:41.228Z</time></trkpt><trkpt lat="45.6630183" lon="9.37765"><ele>251.66666666666669</ele><time>2026-04-25T06:13:42.228Z</time></trkpt><trkpt lat="45.6631783" lon="9.3776533"><ele>251.33333333333334</ele><time>2026-04-25T06:13:43.227Z</time></trkpt><trkpt lat="45.66333" lon="9.3776583"><ele>251.0</ele><time>2026-04-25T06:13:44.228Z</time></trkpt><trkpt lat="45.663475" lon="9.377665"><ele>251.0</ele><time>2026-04-25T06:13:45.228Z</time></trkpt><trkpt lat="45.6636117" lon="9.3776683"><ele>251.0</ele><time>2026-04-25T06:13:46.228Z</time></trkpt><trkpt lat="45.6637383" lon="9.37767"><ele>251.0</ele><time>2026-04-25T06:13:47.228Z</time></trkpt><trkpt lat="45.6638517" lon="9.3776717"><ele>251.0</ele><time>2026-04-25T06:13:48.227Z</time></trkpt><trkpt lat="45.66396" lon="9.3776733"><ele>251.60000000000002</ele><time>2026-04-25T06:13:49.227Z</time></trkpt><trkpt lat="45.66405" lon="9.37768"><ele>252.20000000000002</ele><time>2026-04-25T06:13:50.228Z</time></trkpt><trkpt lat="45.6641567" lon="9.3776833"><ele>252.79999999999998</ele><time>2026-04-25T06:13:51.23Z</time></trkpt><trkpt lat="45.6642767" lon="9.377685"><ele>253.39999999999998</ele><time>2026-04-25T06:13:52.227Z</time></trkpt><trkpt lat="45.6644067" lon="9.3776833"><ele>254.0</ele><time>2026-04-25T06:13:53.227Z</time></trkpt><trkpt lat="45.6645417" lon="9.3776833"><ele>254.5</ele><time>2026-04-25T06:13:54.228Z</time></trkpt><trkpt lat="45.6646767" lon="9.3776833"><ele>255.0</ele><time>2026-04-25T06:13:55.228Z</time></trkpt><trkpt lat="45.6648033" lon="9.377685"><ele>255.5</ele><time>2026-04-25T06:13:56.227Z</time></trkpt><trkpt lat="45.6649167" lon="9.377685"><ele>256.0</ele><time>2026-04-25T06:13:57.229Z</time></trkpt><trkpt lat="45.66502" lon="9.3776833"><ele>256.0</ele><time>2026-04-25T06:13:58.227Z</time></trkpt><trkpt lat="45.66512" lon="9.3776833"><ele>256.0</ele><time>2026-04-25T06:13:59.228Z</time></trkpt><trkpt lat="45.6652233" lon="9.3776883"><ele>256.0</ele><time>2026-04-25T06:14:00.229Z</time></trkpt><trkpt lat="45.6653333" lon="9.37769"><ele>256.0</ele><time>2026-04-25T06:14:01.229Z</time></trkpt><trkpt lat="45.665455" lon="9.3776933"><ele>256.0</ele><time>2026-04-25T06:14:02.227Z</time></trkpt><trkpt lat="45.6655783" lon="9.3776967"><ele>256.5</ele><time>2026-04-25T06:14:03.233Z</time></trkpt><trkpt lat="45.6657067" lon="9.3776983"><ele>257.0</ele><time>2026-04-25T06:14:04.228Z</time></trkpt><trkpt lat="45.66584" lon="9.3777017"><ele>257.5</ele><time>2026-04-25T06:14:05.23Z</time></trkpt><trkpt lat="45.6659733" lon="9.3777067"><ele>258.0</ele><time>2026-04-25T06:14:06.228Z</time></trkpt><trkpt lat="45.666105" lon="9.3777083"><ele>258.25</ele><time>2026-04-25T06:14:07.228Z</time></trkpt><trkpt lat="45.66623" lon="9.3777117"><ele>258.5</ele><time>2026-04-25T06:14:08.229Z</time></trkpt><trkpt lat="45.6663567" lon="9.3777133"><ele>258.75</ele><time>2026-04-25T06:14:09.229Z</time></trkpt><trkpt lat="45.6664583" lon="9.3777267"><ele>259.0</ele><time>2026-04-25T06:14:10.228Z</time></trkpt><trkpt lat="45.666555" lon="9.37775"><ele>259.0</ele><time>2026-04-25T06:14:11.227Z</time></trkpt><trkpt lat="45.6666383" lon="9.3778017"><ele>259.0</ele><time>2026-04-25T06:14:12.229Z</time></trkpt><trkpt lat="45.6667183" lon="9.3778717"><ele>259.0</ele><time>2026-04-25T06:14:13.227Z</time></trkpt><trkpt lat="45.6667967" lon="9.3779533"><ele>259.0</ele><time>2026-04-25T06:14:14.229Z</time></trkpt><trkpt lat="45.66688" lon="9.3780417"><ele>259.0</ele><time>2026-04-25T06:14:15.228Z</time></trkpt><trkpt lat="45.6669683" lon="9.3781167"><ele>258.5</ele><time>2026-04-25T06:14:16.227Z</time></trkpt><trkpt lat="45.6670667" lon="9.3781733"><ele>258.0</ele><time>2026-04-25T06:14:17.229Z</time></trkpt><trkpt lat="45.66717" lon="9.3782283"><ele>257.5</ele><time>2026-04-25T06:14:18.227Z</time></trkpt><trkpt lat="45.6672817" lon="9.3782717"><ele>257.0</ele><time>2026-04-25T06:14:19.227Z</time></trkpt><trkpt lat="45.6673983" lon="9.3783117"><ele>257.0</ele><time>2026-04-25T06:14:20.227Z</time></trkpt><trkpt lat="45.6675133" lon="9.3783517"><ele>257.0</ele><time>2026-04-25T06:14:21.231Z</time></trkpt><trkpt lat="45.66763" lon="9.3784"><ele>257.0</ele><time>2026-04-25T06:14:22.228Z</time></trkpt><trkpt lat="45.66775" lon="9.3784617"><ele>257.0</ele><time>2026-04-25T06:14:23.229Z</time></trkpt><trkpt lat="45.6678683" lon="9.3785267"><ele>258.0</ele><time>2026-04-25T06:14:24.228Z</time></trkpt><trkpt lat="45.667985" lon="9.378595"><ele>259.0</ele><time>2026-04-25T06:14:25.229Z</time></trkpt><trkpt lat="45.66809" lon="9.3786583"><ele>260.0</ele><time>2026-04-25T06:14:26.229Z</time></trkpt><trkpt lat="45.6681917" lon="9.3787167"><ele>261.0</ele><time>2026-04-25T06:14:27.23Z</time></trkpt><trkpt lat="45.668305" lon="9.3787817"><ele>260.75</ele><time>2026-04-25T06:14:28.23Z</time></trkpt><trkpt lat="45.668425" lon="9.3788533"><ele>260.5</ele><time>2026-04-25T06:14:29.228Z</time></trkpt><trkpt lat="45.6685583" lon="9.37893"><ele>260.25</ele><time>2026-04-25T06:14:30.229Z</time></trkpt><trkpt lat="45.6686967" lon="9.379015"><ele>260.0</ele><time>2026-04-25T06:14:31.229Z</time></trkpt><trkpt lat="45.66884" lon="9.3790967"><ele>260.0</ele><time>2026-04-25T06:14:32.228Z</time></trkpt><trkpt lat="45.66899" lon="9.379175"><ele>260.0</ele><time>2026-04-25T06:14:33.229Z</time></trkpt><trkpt lat="45.6691267" lon="9.3792483"><ele>260.0</ele><time>2026-04-25T06:14:34.23Z</time></trkpt><trkpt lat="45.6692533" lon="9.3793217"><ele>260.0</ele><time>2026-04-25T06:14:35.229Z</time></trkpt><trkpt lat="45.669375" lon="9.3793917"><ele>260.25</ele><time>2026-04-25T06:14:36.23Z</time></trkpt><trkpt lat="45.669485" lon="9.379455"><ele>260.5</ele><time>2026-04-25T06:14:37.229Z</time></trkpt><trkpt lat="45.6695917" lon="9.3795183"><ele>260.75</ele><time>2026-04-25T06:14:38.229Z</time></trkpt><trkpt lat="45.6696983" lon="9.37958"><ele>261.0</ele><time>2026-04-25T06:14:39.23Z</time></trkpt><trkpt lat="45.6698083" lon="9.37964"><ele>260.75</ele><time>2026-04-25T06:14:40.228Z</time></trkpt><trkpt lat="45.6699233" lon="9.3797033"><ele>260.5</ele><time>2026-04-25T06:14:41.229Z</time></trkpt><trkpt lat="45.6700367" lon="9.3797717"><ele>260.25</ele><time>2026-04-25T06:14:42.231Z</time></trkpt><trkpt lat="45.6701417" lon="9.37983"><ele>260.0</ele><time>2026-04-25T06:14:43.229Z</time></trkpt><trkpt lat="45.67024" lon="9.379885"><ele>259.4</ele><time>2026-04-25T06:14:44.229Z</time></trkpt><trkpt lat="45.670335" lon="9.37994"><ele>258.8</ele><time>2026-04-25T06:14:45.23Z</time></trkpt><trkpt lat="45.6704333" lon="9.3799967"><ele>258.2</ele><time>2026-04-25T06:14:46.228Z</time></trkpt><trkpt lat="45.67054" lon="9.380055"><ele>257.6</ele><time>2026-04-25T06:14:47.23Z</time></trkpt><trkpt lat="45.6706533" lon="9.3801167"><ele>257.0</ele><time>2026-04-25T06:14:48.227Z</time></trkpt><trkpt lat="45.6707683" lon="9.3801833"><ele>257.0</ele><time>2026-04-25T06:14:49.228Z</time></trkpt><trkpt lat="45.670875" lon="9.3802483"><ele>257.0</ele><time>2026-04-25T06:14:50.228Z</time></trkpt><trkpt lat="45.670965" lon="9.3803017"><ele>257.0</ele><time>2026-04-25T06:14:51.229Z</time></trkpt><trkpt lat="45.6710433" lon="9.3803467"><ele>257.0</ele><time>2026-04-25T06:14:52.228Z</time></trkpt><trkpt lat="45.67111" lon="9.3804267"><ele>257.0</ele><time>2026-04-25T06:14:54.228Z</time></trkpt><trkpt lat="45.67116" lon="9.3804933"><ele>257.0</ele><time>2026-04-25T06:14:56.229Z</time></trkpt><trkpt lat="45.6712417" lon="9.38057"><ele>257.0</ele><time>2026-04-25T06:14:59.228Z</time></trkpt><trkpt lat="45.6713517" lon="9.380595"><ele>257.0</ele><time>2026-04-25T06:15:01.239Z</time></trkpt><trkpt lat="45.6714367" lon="9.3806067"><ele>257.0</ele><time>2026-04-25T06:15:02.227Z</time></trkpt><trkpt lat="45.67154" lon="9.380635"><ele>257.0</ele><time>2026-04-25T06:15:03.23Z</time></trkpt><trkpt lat="45.6716483" lon="9.3806867"><ele>257.0</ele><time>2026-04-25T06:15:04.229Z</time></trkpt><trkpt lat="45.6717683" lon="9.38075"><ele>257.0</ele><time>2026-04-25T06:15:05.228Z</time></trkpt><trkpt lat="45.671885" lon="9.380815"><ele>257.0</ele><time>2026-04-25T06:15:06.228Z</time></trkpt><trkpt lat="45.671995" lon="9.3808733"><ele>257.0</ele><time>2026-04-25T06:15:07.228Z</time></trkpt><trkpt lat="45.672095" lon="9.380935"><ele>256.5</ele><time>2026-04-25T06:15:08.227Z</time></trkpt><trkpt lat="45.6721967" lon="9.3809933"><ele>256.0</ele><time>2026-04-25T06:15:09.227Z</time></trkpt><trkpt lat="45.6723083" lon="9.381035"><ele>255.5</ele><time>2026-04-25T06:15:10.227Z</time></trkpt><trkpt lat="45.6724317" lon="9.38105"><ele>255.0</ele><time>2026-04-25T06:15:11.228Z</time></trkpt><trkpt lat="45.6725683" lon="9.38105"><ele>255.0</ele><time>2026-04-25T06:15:12.231Z</time></trkpt><trkpt lat="45.6727133" lon="9.3810367"><ele>255.0</ele><time>2026-04-25T06:15:13.228Z</time></trkpt><trkpt lat="45.672845" lon="9.3810267"><ele>255.0</ele><time>2026-04-25T06:15:14.229Z</time></trkpt><trkpt lat="45.6729767" lon="9.3810017"><ele>255.0</ele><time>2026-04-25T06:15:15.229Z</time></trkpt><trkpt lat="45.6730933" lon="9.3809917"><ele>254.2</ele><time>2026-04-25T06:15:16.228Z</time></trkpt><trkpt lat="45.6732033" lon="9.38099"><ele>253.4</ele><time>2026-04-25T06:15:17.228Z</time></trkpt><trkpt lat="45.6732967" lon="9.380995"><ele>252.60000000000002</ele><time>2026-04-25T06:15:18.228Z</time></trkpt><trkpt lat="45.673385" lon="9.38102"><ele>251.8</ele><time>2026-04-25T06:15:19.227Z</time></trkpt><trkpt lat="45.6734617" lon="9.3810717"><ele>251.0</ele><time>2026-04-25T06:15:20.229Z</time></trkpt><trkpt lat="45.6735067" lon="9.381165"><ele>251.0</ele><time>2026-04-25T06:15:21.228Z</time></trkpt><trkpt lat="45.6735317" lon="9.38128"><ele>251.00000000000003</ele><time>2026-04-25T06:15:22.228Z</time></trkpt><trkpt lat="45.6735317" lon="9.3814"><ele>251.00000000000003</ele><time>2026-04-25T06:15:23.229Z</time></trkpt><trkpt lat="45.67347" lon="9.3815367"><ele>251.0</ele><time>2026-04-25T06:15:24.229Z</time></trkpt><trkpt lat="45.6733817" lon="9.3817"><ele>251.0</ele><time>2026-04-25T06:15:25.229Z</time></trkpt><trkpt lat="45.6732917" lon="9.3818733"><ele>247.0</ele><time>2026-04-25T06:15:26.229Z</time></trkpt><trkpt lat="45.6731983" lon="9.3820567"><ele>243.0</ele><time>2026-04-25T06:15:27.229Z</time></trkpt><trkpt lat="45.6730983" lon="9.3822533"><ele>239.0</ele><time>2026-04-25T06:15:28.229Z</time></trkpt><trkpt lat="45.673" lon="9.38245"><ele>238.0</ele><time>2026-04-25T06:15:29.229Z</time></trkpt><trkpt lat="45.6729067" lon="9.3826417"><ele>237.0</ele><time>2026-04-25T06:15:30.228Z</time></trkpt><trkpt lat="45.6728167" lon="9.3828317"><ele>236.0</ele><time>2026-04-25T06:15:31.227Z</time></trkpt><trkpt lat="45.672725" lon="9.3830183"><ele>236.0</ele><time>2026-04-25T06:15:32.228Z</time></trkpt><trkpt lat="45.6726317" lon="9.3832017"><ele>236.0</ele><time>2026-04-25T06:15:33.229Z</time></trkpt><trkpt lat="45.6725367" lon="9.3833817"><ele>236.0</ele><time>2026-04-25T06:15:34.227Z</time></trkpt><trkpt lat="45.6724433" lon="9.3835633"><ele>236.0</ele><time>2026-04-25T06:15:35.23Z</time></trkpt><trkpt lat="45.6723483" lon="9.383745"><ele>236.0</ele><time>2026-04-25T06:15:36.228Z</time></trkpt><trkpt lat="45.6722533" lon="9.3839333"><ele>236.0</ele><time>2026-04-25T06:15:37.228Z</time></trkpt><trkpt lat="45.67215" lon="9.3841267"><ele>235.66666666666669</ele><time>2026-04-25T06:15:38.227Z</time></trkpt><trkpt lat="45.6720467" lon="9.38433"><ele>235.33333333333331</ele><time>2026-04-25T06:15:39.228Z</time></trkpt><trkpt lat="45.6719467" lon="9.3845317"><ele>235.0</ele><time>2026-04-25T06:15:40.227Z</time></trkpt><trkpt lat="45.67185" lon="9.3847267"><ele>235.66666666666666</ele><time>2026-04-25T06:15:41.228Z</time></trkpt><trkpt lat="45.6717533" lon="9.3849183"><ele>236.33333333333331</ele><time>2026-04-25T06:15:42.228Z</time></trkpt><trkpt lat="45.6716583" lon="9.385105"><ele>237.0</ele><time>2026-04-25T06:15:43.229Z</time></trkpt><trkpt lat="45.67157" lon="9.3852833"><ele>237.0</ele><time>2026-04-25T06:15:44.227Z</time></trkpt><trkpt lat="45.671485" lon="9.38545"><ele>237.0</ele><time>2026-04-25T06:15:45.227Z</time></trkpt><trkpt lat="45.671405" lon="9.3856133"><ele>237.0</ele><time>2026-04-25T06:15:46.228Z</time></trkpt><trkpt lat="45.6713383" lon="9.3857833"><ele>237.0</ele><time>2026-04-25T06:15:47.228Z</time></trkpt><trkpt lat="45.6712783" lon="9.3859667"><ele>237.25</ele><time>2026-04-25T06:15:48.227Z</time></trkpt><trkpt lat="45.67123" lon="9.3861617"><ele>237.5</ele><time>2026-04-25T06:15:49.228Z</time></trkpt><trkpt lat="45.6711983" lon="9.3863567"><ele>237.75</ele><time>2026-04-25T06:15:50.228Z</time></trkpt><trkpt lat="45.6711733" lon="9.386555"><ele>238.0</ele><time>2026-04-25T06:15:51.23Z</time></trkpt><trkpt lat="45.6711533" lon="9.386745"><ele>238.0</ele><time>2026-04-25T06:15:52.229Z</time></trkpt><trkpt lat="45.6711367" lon="9.3869267"><ele>238.0</ele><time>2026-04-25T06:15:53.229Z</time></trkpt><trkpt lat="45.6711233" lon="9.3871"><ele>238.0</ele><time>2026-04-25T06:15:54.229Z</time></trkpt><trkpt lat="45.67111" lon="9.3872767"><ele>238.0</ele><time>2026-04-25T06:15:55.231Z</time></trkpt><trkpt lat="45.671095" lon="9.3874567"><ele>237.75</ele><time>2026-04-25T06:15:56.229Z</time></trkpt><trkpt lat="45.671075" lon="9.3876317"><ele>237.5</ele><time>2026-04-25T06:15:57.23Z</time></trkpt><trkpt lat="45.6710583" lon="9.3878117"><ele>237.25</ele><time>2026-04-25T06:15:58.229Z</time></trkpt><trkpt lat="45.6710483" lon="9.38799"><ele>237.0</ele><time>2026-04-25T06:15:59.23Z</time></trkpt><trkpt lat="45.671035" lon="9.388155"><ele>237.5</ele><time>2026-04-25T06:16:00.229Z</time></trkpt><trkpt lat="45.6710233" lon="9.3883117"><ele>238.0</ele><time>2026-04-25T06:16:01.229Z</time></trkpt><trkpt lat="45.6710117" lon="9.3884667"><ele>238.5</ele><time>2026-04-25T06:16:02.229Z</time></trkpt><trkpt lat="45.6709967" lon="9.3886317"><ele>239.0</ele><time>2026-04-25T06:16:03.227Z</time></trkpt><trkpt lat="45.6709833" lon="9.3887983"><ele>239.2</ele><time>2026-04-25T06:16:04.228Z</time></trkpt><trkpt lat="45.6709733" lon="9.3889567"><ele>239.39999999999998</ele><time>2026-04-25T06:16:05.228Z</time></trkpt><trkpt lat="45.6709617" lon="9.3891033"><ele>239.6</ele><time>2026-04-25T06:16:06.228Z</time></trkpt><trkpt lat="45.67095" lon="9.3892383"><ele>239.8</ele><time>2026-04-25T06:16:07.229Z</time></trkpt><trkpt lat="45.6709383" lon="9.3893633"><ele>240.0</ele><time>2026-04-25T06:16:08.227Z</time></trkpt><trkpt lat="45.6709267" lon="9.3894717"><ele>240.0</ele><time>2026-04-25T06:16:09.229Z</time></trkpt><trkpt lat="45.670915" lon="9.3895617"><ele>240.0</ele><time>2026-04-25T06:16:10.228Z</time></trkpt><trkpt lat="45.6708717" lon="9.3896767"><ele>240.0</ele><time>2026-04-25T06:16:12.227Z</time></trkpt><trkpt lat="45.6708183" lon="9.3897667"><ele>240.0</ele><time>2026-04-25T06:16:14.227Z</time></trkpt><trkpt lat="45.67076" lon="9.389865"><ele>240.0</ele><time>2026-04-25T06:16:16.228Z</time></trkpt><trkpt lat="45.6707267" lon="9.3899667"><ele>240.0</ele><time>2026-04-25T06:16:18.228Z</time></trkpt><trkpt lat="45.6707483" lon="9.3900783"><ele>240.0</ele><time>2026-04-25T06:16:21.23Z</time></trkpt><trkpt lat="45.670825" lon="9.390175"><ele>240.0</ele><time>2026-04-25T06:16:24.229Z</time></trkpt><trkpt lat="45.6709367" lon="9.3902917"><ele>240.0</ele><time>2026-04-25T06:16:26.229Z</time></trkpt><trkpt lat="45.6710133" lon="9.3903583"><ele>240.0</ele><time>2026-04-25T06:16:27.23Z</time></trkpt><trkpt lat="45.6711033" lon="9.3904267"><ele>240.0</ele><time>2026-04-25T06:16:28.23Z</time></trkpt><trkpt lat="45.671205" lon="9.3905017"><ele>240.25</ele><time>2026-04-25T06:16:29.229Z</time></trkpt><trkpt lat="45.6713167" lon="9.3905917"><ele>240.5</ele><time>2026-04-25T06:16:30.228Z</time></trkpt><trkpt lat="45.6714333" lon="9.39069"><ele>240.75</ele><time>2026-04-25T06:16:31.228Z</time></trkpt><trkpt lat="45.671545" lon="9.3908033"><ele>241.0</ele><time>2026-04-25T06:16:32.23Z</time></trkpt><trkpt lat="45.6716567" lon="9.3909233"><ele>241.0</ele><time>2026-04-25T06:16:33.228Z</time></trkpt><trkpt lat="45.671775" lon="9.3910533"><ele>241.0</ele><time>2026-04-25T06:16:34.228Z</time></trkpt><trkpt lat="45.6718983" lon="9.39119"><ele>241.0</ele><time>2026-04-25T06:16:35.23Z</time></trkpt><trkpt lat="45.6720183" lon="9.3913267"><ele>241.0</ele><time>2026-04-25T06:16:36.228Z</time></trkpt><trkpt lat="45.672135" lon="9.391465"><ele>241.0</ele><time>2026-04-25T06:16:37.228Z</time></trkpt><trkpt lat="45.6722533" lon="9.39161"><ele>241.0</ele><time>2026-04-25T06:16:38.228Z</time></trkpt><trkpt lat="45.6723717" lon="9.3917567"><ele>241.0</ele><time>2026-04-25T06:16:39.228Z</time></trkpt><trkpt lat="45.6724867" lon="9.391905"><ele>241.0</ele><time>2026-04-25T06:16:40.227Z</time></trkpt><trkpt lat="45.6726017" lon="9.3920517"><ele>241.0</ele><time>2026-04-25T06:16:41.228Z</time></trkpt><trkpt lat="45.6727133" lon="9.3922"><ele>242.0</ele><time>2026-04-25T06:16:42.227Z</time></trkpt><trkpt lat="45.672825" lon="9.3923483"><ele>243.0</ele><time>2026-04-25T06:16:43.227Z</time></trkpt><trkpt lat="45.6729333" lon="9.3925"><ele>244.0</ele><time>2026-04-25T06:16:44.227Z</time></trkpt><trkpt lat="45.67304" lon="9.3926533"><ele>244.0</ele><time>2026-04-25T06:16:45.228Z</time></trkpt><trkpt lat="45.6731467" lon="9.3928083"><ele>244.0</ele><time>2026-04-25T06:16:46.228Z</time></trkpt><trkpt lat="45.67325" lon="9.39297"><ele>244.0</ele><time>2026-04-25T06:16:47.228Z</time></trkpt><trkpt lat="45.673355" lon="9.393135"><ele>244.33333333333331</ele><time>2026-04-25T06:16:48.228Z</time></trkpt><trkpt lat="45.6734617" lon="9.3933017"><ele>244.66666666666669</ele><time>2026-04-25T06:16:49.228Z</time></trkpt><trkpt lat="45.6735683" lon="9.3934667"><ele>245.0</ele><time>2026-04-25T06:16:50.23Z</time></trkpt><trkpt lat="45.6736817" lon="9.393635"><ele>245.0</ele><time>2026-04-25T06:16:51.23Z</time></trkpt><trkpt lat="45.6737967" lon="9.3938083"><ele>245.0</ele><time>2026-04-25T06:16:52.229Z</time></trkpt><trkpt lat="45.6739167" lon="9.39398"><ele>245.0</ele><time>2026-04-25T06:16:53.231Z</time></trkpt><trkpt lat="45.6740383" lon="9.394145"><ele>245.0</ele><time>2026-04-25T06:16:54.229Z</time></trkpt><trkpt lat="45.674165" lon="9.3943033"><ele>245.0</ele><time>2026-04-25T06:16:55.23Z</time></trkpt><trkpt lat="45.6743017" lon="9.39446"><ele>245.0</ele><time>2026-04-25T06:16:56.23Z</time></trkpt><trkpt lat="45.67444" lon="9.3946083"><ele>244.66666666666669</ele><time>2026-04-25T06:16:57.23Z</time></trkpt><trkpt lat="45.6745833" lon="9.3947483"><ele>244.33333333333331</ele><time>2026-04-25T06:16:58.229Z</time></trkpt><trkpt lat="45.67473" lon="9.3948817"><ele>244.0</ele><time>2026-04-25T06:16:59.229Z</time></trkpt><trkpt lat="45.67488" lon="9.395005"><ele>244.0</ele><time>2026-04-25T06:17:00.228Z</time></trkpt><trkpt lat="45.6750317" lon="9.3951183"><ele>244.0</ele><time>2026-04-25T06:17:01.229Z</time></trkpt><trkpt lat="45.675175" lon="9.3952267"><ele>244.0</ele><time>2026-04-25T06:17:02.229Z</time></trkpt><trkpt lat="45.6753117" lon="9.395325"><ele>244.75</ele><time>2026-04-25T06:17:03.228Z</time></trkpt><trkpt lat="45.6754433" lon="9.39541"><ele>245.5</ele><time>2026-04-25T06:17:04.228Z</time></trkpt><trkpt lat="45.6755683" lon="9.3954833"><ele>246.25</ele><time>2026-04-25T06:17:05.229Z</time></trkpt><trkpt lat="45.6756967" lon="9.3955517"><ele>247.0</ele><time>2026-04-25T06:17:06.228Z</time></trkpt><trkpt lat="45.6758283" lon="9.39562"><ele>247.0</ele><time>2026-04-25T06:17:07.233Z</time></trkpt><trkpt lat="45.6759667" lon="9.3956883"><ele>247.0</ele><time>2026-04-25T06:17:08.228Z</time></trkpt><trkpt lat="45.6761133" lon="9.3957533"><ele>247.0</ele><time>2026-04-25T06:17:09.229Z</time></trkpt><trkpt lat="45.67626" lon="9.3958133"><ele>247.66666666666666</ele><time>2026-04-25T06:17:10.23Z</time></trkpt><trkpt lat="45.6764067" lon="9.3958683"><ele>248.33333333333331</ele><time>2026-04-25T06:17:11.228Z</time></trkpt><trkpt lat="45.676555" lon="9.395925"><ele>249.0</ele><time>2026-04-25T06:17:12.227Z</time></trkpt><trkpt lat="45.6767017" lon="9.39598"><ele>249.0</ele><time>2026-04-25T06:17:13.23Z</time></trkpt><trkpt lat="45.6768483" lon="9.396035"><ele>249.0</ele><time>2026-04-25T06:17:14.228Z</time></trkpt><trkpt lat="45.67699" lon="9.3960867"><ele>249.0</ele><time>2026-04-25T06:17:15.227Z</time></trkpt><trkpt lat="45.6771317" lon="9.39614"><ele>249.0</ele><time>2026-04-25T06:17:16.227Z</time></trkpt><trkpt lat="45.67727" lon="9.3961917"><ele>249.0</ele><time>2026-04-25T06:17:17.229Z</time></trkpt><trkpt lat="45.6774117" lon="9.3962433"><ele>249.0</ele><time>2026-04-25T06:17:18.229Z</time></trkpt><trkpt lat="45.6775533" lon="9.3962933"><ele>249.0</ele><time>2026-04-25T06:17:19.229Z</time></trkpt><trkpt lat="45.6776967" lon="9.3963467"><ele>249.0</ele><time>2026-04-25T06:17:20.229Z</time></trkpt><trkpt lat="45.677835" lon="9.3963983"><ele>249.0</ele><time>2026-04-25T06:17:21.228Z</time></trkpt><trkpt lat="45.677975" lon="9.3964483"><ele>249.0</ele><time>2026-04-25T06:17:22.229Z</time></trkpt><trkpt lat="45.67811" lon="9.3964983"><ele>249.0</ele><time>2026-04-25T06:17:23.228Z</time></trkpt><trkpt lat="45.6782367" lon="9.3965433"><ele>249.0</ele><time>2026-04-25T06:17:24.228Z</time></trkpt><trkpt lat="45.67836" lon="9.3965883"><ele>249.0</ele><time>2026-04-25T06:17:25.229Z</time></trkpt><trkpt lat="45.6784833" lon="9.3966333"><ele>249.0</ele><time>2026-04-25T06:17:26.227Z</time></trkpt><trkpt lat="45.6786083" lon="9.39668"><ele>249.0</ele><time>2026-04-25T06:17:27.228Z</time></trkpt><trkpt lat="45.6787317" lon="9.3967283"><ele>249.0</ele><time>2026-04-25T06:17:28.228Z</time></trkpt><trkpt lat="45.6788433" lon="9.3967683"><ele>249.16666666666666</ele><time>2026-04-25T06:17:29.23Z</time></trkpt><trkpt lat="45.6789383" lon="9.3968017"><ele>249.33333333333331</ele><time>2026-04-25T06:17:30.229Z</time></trkpt><trkpt lat="45.6790217" lon="9.3968333"><ele>249.5</ele><time>2026-04-25T06:17:31.229Z</time></trkpt><trkpt lat="45.679095" lon="9.3968767"><ele>249.66666666666666</ele><time>2026-04-25T06:17:32.229Z</time></trkpt><trkpt lat="45.679165" lon="9.396925"><ele>249.83333333333331</ele><time>2026-04-25T06:17:33.229Z</time></trkpt><trkpt lat="45.6792317" lon="9.3969683"><ele>250.0</ele><time>2026-04-25T06:17:34.227Z</time></trkpt><trkpt lat="45.679285" lon="9.39702"><ele>250.2</ele><time>2026-04-25T06:17:35.229Z</time></trkpt><trkpt lat="45.6793083" lon="9.39718"><ele>250.4</ele><time>2026-04-25T06:17:37.228Z</time></trkpt><trkpt lat="45.67929" lon="9.397275"><ele>250.60000000000002</ele><time>2026-04-25T06:17:38.227Z</time></trkpt><trkpt lat="45.6792483" lon="9.3973833"><ele>250.8</ele><time>2026-04-25T06:17:39.228Z</time></trkpt><trkpt lat="45.679205" lon="9.397505"><ele>251.0</ele><time>2026-04-25T06:17:40.228Z</time></trkpt><trkpt lat="45.679155" lon="9.3976517"><ele>251.0</ele><time>2026-04-25T06:17:41.227Z</time></trkpt><trkpt lat="45.6790917" lon="9.397825"><ele>251.0</ele><time>2026-04-25T06:17:42.227Z</time></trkpt><trkpt lat="45.67903" lon="9.3980067"><ele>251.0</ele><time>2026-04-25T06:17:43.229Z</time></trkpt><trkpt lat="45.678965" lon="9.3981967"><ele>251.0</ele><time>2026-04-25T06:17:44.227Z</time></trkpt><trkpt lat="45.6789" lon="9.3983917"><ele>251.25</ele><time>2026-04-25T06:17:45.228Z</time></trkpt><trkpt lat="45.6788383" lon="9.398575"><ele>251.5</ele><time>2026-04-25T06:17:46.228Z</time></trkpt><trkpt lat="45.6787783" lon="9.3987483"><ele>251.75</ele><time>2026-04-25T06:17:47.229Z</time></trkpt><trkpt lat="45.678715" lon="9.3989167"><ele>252.0</ele><time>2026-04-25T06:17:48.23Z</time></trkpt><trkpt lat="45.6786533" lon="9.3990883"><ele>252.75</ele><time>2026-04-25T06:17:49.23Z</time></trkpt><trkpt lat="45.6785883" lon="9.3992617"><ele>253.5</ele><time>2026-04-25T06:17:50.232Z</time></trkpt><trkpt lat="45.6785217" lon="9.3994367"><ele>254.25</ele><time>2026-04-25T06:17:51.229Z</time></trkpt><trkpt lat="45.678455" lon="9.3996167"><ele>255.0</ele><time>2026-04-25T06:17:52.23Z</time></trkpt><trkpt lat="45.6783917" lon="9.3997917"><ele>255.0</ele><time>2026-04-25T06:17:53.229Z</time></trkpt><trkpt lat="45.67833" lon="9.3999533"><ele>255.0</ele><time>2026-04-25T06:17:54.229Z</time></trkpt><trkpt lat="45.6782717" lon="9.4000967"><ele>255.0</ele><time>2026-04-25T06:17:55.227Z</time></trkpt><trkpt lat="45.6782083" lon="9.40022"><ele>255.0</ele><time>2026-04-25T06:17:56.227Z</time></trkpt><trkpt lat="45.6781467" lon="9.40032"><ele>255.0</ele><time>2026-04-25T06:17:57.228Z</time></trkpt><trkpt lat="45.678085" lon="9.4003967"><ele>255.0</ele><time>2026-04-25T06:17:58.227Z</time></trkpt><trkpt lat="45.67802" lon="9.40046"><ele>255.0</ele><time>2026-04-25T06:17:59.228Z</time></trkpt><trkpt lat="45.6779467" lon="9.4005033"><ele>255.0</ele><time>2026-04-25T06:18:00.228Z</time></trkpt><trkpt lat="45.6778683" lon="9.4005233"><ele>255.0</ele><time>2026-04-25T06:18:01.229Z</time></trkpt><trkpt lat="45.6777833" lon="9.4005467"><ele>255.0</ele><time>2026-04-25T06:18:02.228Z</time></trkpt><trkpt lat="45.67771" lon="9.4006033"><ele>255.0</ele><time>2026-04-25T06:18:03.228Z</time></trkpt><trkpt lat="45.6776533" lon="9.4006867"><ele>254.8</ele><time>2026-04-25T06:18:04.228Z</time></trkpt><trkpt lat="45.6776433" lon="9.4007867"><ele>254.6</ele><time>2026-04-25T06:18:05.228Z</time></trkpt><trkpt lat="45.6776533" lon="9.400895"><ele>254.39999999999998</ele><time>2026-04-25T06:18:06.228Z</time></trkpt><trkpt lat="45.6776933" lon="9.4010167"><ele>254.2</ele><time>2026-04-25T06:18:07.229Z</time></trkpt><trkpt lat="45.677745" lon="9.401165"><ele>254.0</ele><time>2026-04-25T06:18:08.228Z</time></trkpt><trkpt lat="45.6777833" lon="9.401335"><ele>254.5</ele><time>2026-04-25T06:18:09.23Z</time></trkpt><trkpt lat="45.6778033" lon="9.4015167"><ele>255.0</ele><time>2026-04-25T06:18:10.23Z</time></trkpt><trkpt lat="45.67782" lon="9.40171"><ele>255.5</ele><time>2026-04-25T06:18:11.23Z</time></trkpt><trkpt lat="45.67784" lon="9.401915"><ele>256.0</ele><time>2026-04-25T06:18:12.227Z</time></trkpt><trkpt lat="45.67786" lon="9.40213"><ele>256.75</ele><time>2026-04-25T06:18:13.228Z</time></trkpt><trkpt lat="45.6778817" lon="9.4023333"><ele>257.5</ele><time>2026-04-25T06:18:14.228Z</time></trkpt><trkpt lat="45.6779" lon="9.4025367"><ele>258.25</ele><time>2026-04-25T06:18:15.228Z</time></trkpt><trkpt lat="45.6779183" lon="9.402735"><ele>259.0</ele><time>2026-04-25T06:18:16.228Z</time></trkpt><trkpt lat="45.6779367" lon="9.4029317"><ele>258.25</ele><time>2026-04-25T06:18:17.229Z</time></trkpt><trkpt lat="45.6779567" lon="9.40313"><ele>257.5</ele><time>2026-04-25T06:18:18.228Z</time></trkpt><trkpt lat="45.677975" lon="9.4033333"><ele>256.75</ele><time>2026-04-25T06:18:19.23Z</time></trkpt><trkpt lat="45.6779917" lon="9.4035383"><ele>256.0</ele><time>2026-04-25T06:18:20.228Z</time></trkpt><trkpt lat="45.678005" lon="9.403745"><ele>255.75</ele><time>2026-04-25T06:18:21.229Z</time></trkpt><trkpt lat="45.6780083" lon="9.40395"><ele>255.5</ele><time>2026-04-25T06:18:22.228Z</time></trkpt><trkpt lat="45.6780033" lon="9.40415"><ele>255.25</ele><time>2026-04-25T06:18:23.227Z</time></trkpt><trkpt lat="45.6779867" lon="9.4043483"><ele>255.0</ele><time>2026-04-25T06:18:24.229Z</time></trkpt><trkpt lat="45.6779583" lon="9.4045467"><ele>254.75</ele><time>2026-04-25T06:18:25.229Z</time></trkpt><trkpt lat="45.67792" lon="9.4047467"><ele>254.5</ele><time>2026-04-25T06:18:26.231Z</time></trkpt><trkpt lat="45.6778783" lon="9.4049383"><ele>254.25</ele><time>2026-04-25T06:18:27.23Z</time></trkpt><trkpt lat="45.6778317" lon="9.4051367"><ele>254.0</ele><time>2026-04-25T06:18:28.228Z</time></trkpt><trkpt lat="45.6777833" lon="9.4053433"><ele>254.33333333333334</ele><time>2026-04-25T06:18:29.228Z</time></trkpt><trkpt lat="45.6777367" lon="9.4055533"><ele>254.66666666666669</ele><time>2026-04-25T06:18:30.228Z</time></trkpt><trkpt lat="45.677685" lon="9.4057683"><ele>255.0</ele><time>2026-04-25T06:18:31.229Z</time></trkpt><trkpt lat="45.67764" lon="9.405985"><ele>255.0</ele><time>2026-04-25T06:18:32.229Z</time></trkpt><trkpt lat="45.6775983" lon="9.4061983"><ele>255.0</ele><time>2026-04-25T06:18:33.228Z</time></trkpt><trkpt lat="45.677565" lon="9.40641"><ele>255.0</ele><time>2026-04-25T06:18:34.228Z</time></trkpt><trkpt lat="45.67753" lon="9.4066217"><ele>255.0</ele><time>2026-04-25T06:18:35.228Z</time></trkpt><trkpt lat="45.6774933" lon="9.4068333"><ele>255.0</ele><time>2026-04-25T06:18:36.23Z</time></trkpt><trkpt lat="45.6774617" lon="9.407045"><ele>255.0</ele><time>2026-04-25T06:18:37.228Z</time></trkpt><trkpt lat="45.6774333" lon="9.407255"><ele>255.0</ele><time>2026-04-25T06:18:38.229Z</time></trkpt><trkpt lat="45.6774017" lon="9.4074667"><ele>255.0</ele><time>2026-04-25T06:18:39.228Z</time></trkpt><trkpt lat="45.6773717" lon="9.40768"><ele>255.0</ele><time>2026-04-25T06:18:40.228Z</time></trkpt><trkpt lat="45.6773433" lon="9.407895"><ele>255.5</ele><time>2026-04-25T06:18:41.229Z</time></trkpt><trkpt lat="45.6773183" lon="9.4081033"><ele>256.0</ele><time>2026-04-25T06:18:42.228Z</time></trkpt><trkpt lat="45.6772917" lon="9.4082967"><ele>256.5</ele><time>2026-04-25T06:18:43.229Z</time></trkpt><trkpt lat="45.6772667" lon="9.40848"><ele>257.0</ele><time>2026-04-25T06:18:44.228Z</time></trkpt><trkpt lat="45.6772417" lon="9.4086517"><ele>257.0</ele><time>2026-04-25T06:18:45.228Z</time></trkpt><trkpt lat="45.67722" lon="9.4088117"><ele>257.0</ele><time>2026-04-25T06:18:46.229Z</time></trkpt><trkpt lat="45.6772" lon="9.408965"><ele>257.0</ele><time>2026-04-25T06:18:47.228Z</time></trkpt><trkpt lat="45.6771783" lon="9.4091217"><ele>257.0</ele><time>2026-04-25T06:18:48.228Z</time></trkpt><trkpt lat="45.6771567" lon="9.4092883"><ele>257.0</ele><time>2026-04-25T06:18:49.228Z</time></trkpt><trkpt lat="45.6771333" lon="9.40946"><ele>257.0</ele><time>2026-04-25T06:18:50.228Z</time></trkpt><trkpt lat="45.6771117" lon="9.409625"><ele>257.0</ele><time>2026-04-25T06:18:51.23Z</time></trkpt><trkpt lat="45.67709" lon="9.409785"><ele>257.0</ele><time>2026-04-25T06:18:52.228Z</time></trkpt><trkpt lat="45.6770717" lon="9.4099383"><ele>256.75</ele><time>2026-04-25T06:18:53.229Z</time></trkpt><trkpt lat="45.6770517" lon="9.410095"><ele>256.5</ele><time>2026-04-25T06:18:54.228Z</time></trkpt><trkpt lat="45.67703" lon="9.4102517"><ele>256.25</ele><time>2026-04-25T06:18:55.228Z</time></trkpt><trkpt lat="45.677005" lon="9.41041"><ele>256.0</ele><time>2026-04-25T06:18:56.228Z</time></trkpt><trkpt lat="45.676975" lon="9.4105667"><ele>256.0</ele><time>2026-04-25T06:18:57.229Z</time></trkpt><trkpt lat="45.6769467" lon="9.4107217"><ele>256.0</ele><time>2026-04-25T06:18:58.229Z</time></trkpt><trkpt lat="45.6769183" lon="9.4108733"><ele>256.0</ele><time>2026-04-25T06:18:59.229Z</time></trkpt><trkpt lat="45.676885" lon="9.4110183"><ele>256.0</ele><time>2026-04-25T06:19:00.228Z</time></trkpt><trkpt lat="45.6768517" lon="9.4111583"><ele>256.0</ele><time>2026-04-25T06:19:01.229Z</time></trkpt><trkpt lat="45.6768217" lon="9.411295"><ele>255.60000000000002</ele><time>2026-04-25T06:19:02.23Z</time></trkpt><trkpt lat="45.6767817" lon="9.41142"><ele>255.20000000000002</ele><time>2026-04-25T06:19:03.227Z</time></trkpt><trkpt lat="45.6767467" lon="9.4115417"><ele>254.79999999999998</ele><time>2026-04-25T06:19:04.228Z</time></trkpt><trkpt lat="45.6767083" lon="9.4116533"><ele>254.39999999999998</ele><time>2026-04-25T06:19:05.227Z</time></trkpt><trkpt lat="45.6766683" lon="9.411765"><ele>254.0</ele><time>2026-04-25T06:19:06.227Z</time></trkpt><trkpt lat="45.676625" lon="9.4118833"><ele>254.0</ele><time>2026-04-25T06:19:07.228Z</time></trkpt><trkpt lat="45.6765767" lon="9.41201"><ele>254.0</ele><time>2026-04-25T06:19:08.229Z</time></trkpt><trkpt lat="45.6765233" lon="9.4121483"><ele>254.0</ele><time>2026-04-25T06:19:09.229Z</time></trkpt><trkpt lat="45.676465" lon="9.412295"><ele>254.0</ele><time>2026-04-25T06:19:10.227Z</time></trkpt><trkpt lat="45.6764033" lon="9.4124467"><ele>253.5</ele><time>2026-04-25T06:19:11.227Z</time></trkpt><trkpt lat="45.6763383" lon="9.4126083"><ele>253.0</ele><time>2026-04-25T06:19:12.227Z</time></trkpt><trkpt lat="45.6762683" lon="9.41278"><ele>252.5</ele><time>2026-04-25T06:19:13.228Z</time></trkpt><trkpt lat="45.6762" lon="9.41296"><ele>252.0</ele><time>2026-04-25T06:19:14.228Z</time></trkpt><trkpt lat="45.676135" lon="9.4131467"><ele>251.33333333333331</ele><time>2026-04-25T06:19:15.228Z</time></trkpt><trkpt lat="45.67607" lon="9.4133417"><ele>250.66666666666666</ele><time>2026-04-25T06:19:16.228Z</time></trkpt><trkpt lat="45.6760067" lon="9.4135417"><ele>250.0</ele><time>2026-04-25T06:19:17.227Z</time></trkpt><trkpt lat="45.6759467" lon="9.4137483"><ele>249.66666666666666</ele><time>2026-04-25T06:19:18.23Z</time></trkpt><trkpt lat="45.6758917" lon="9.4139617"><ele>249.33333333333331</ele><time>2026-04-25T06:19:19.228Z</time></trkpt><trkpt lat="45.6758367" lon="9.4141833"><ele>249.0</ele><time>2026-04-25T06:19:20.227Z</time></trkpt><trkpt lat="45.675785" lon="9.4144133"><ele>248.66666666666669</ele><time>2026-04-25T06:19:21.229Z</time></trkpt><trkpt lat="45.6757367" lon="9.4146617"><ele>248.33333333333334</ele><time>2026-04-25T06:19:22.228Z</time></trkpt><trkpt lat="45.67569" lon="9.4149333"><ele>248.0</ele><time>2026-04-25T06:19:23.228Z</time></trkpt><trkpt lat="45.6756417" lon="9.4152167"><ele>248.0</ele><time>2026-04-25T06:19:24.227Z</time></trkpt><trkpt lat="45.6755983" lon="9.4155"><ele>248.0</ele><time>2026-04-25T06:19:25.227Z</time></trkpt><trkpt lat="45.6755567" lon="9.41577"><ele>248.0</ele><time>2026-04-25T06:19:26.23Z</time></trkpt><trkpt lat="45.6755217" lon="9.4160283"><ele>248.0</ele><time>2026-04-25T06:19:27.228Z</time></trkpt><trkpt lat="45.6754883" lon="9.41628"><ele>248.0</ele><time>2026-04-25T06:19:28.228Z</time></trkpt><trkpt lat="45.67546" lon="9.41652"><ele>248.0</ele><time>2026-04-25T06:19:29.228Z</time></trkpt><trkpt lat="45.6754333" lon="9.41675"><ele>248.0</ele><time>2026-04-25T06:19:30.227Z</time></trkpt><trkpt lat="45.67541" lon="9.41697"><ele>248.0</ele><time>2026-04-25T06:19:31.227Z</time></trkpt><trkpt lat="45.6753867" lon="9.417185"><ele>248.0</ele><time>2026-04-25T06:19:32.227Z</time></trkpt><trkpt lat="45.6753667" lon="9.417405"><ele>248.0</ele><time>2026-04-25T06:19:33.228Z</time></trkpt><trkpt lat="45.675345" lon="9.4176433"><ele>248.0</ele><time>2026-04-25T06:19:34.228Z</time></trkpt><trkpt lat="45.675325" lon="9.4179"><ele>248.0</ele><time>2026-04-25T06:19:35.228Z</time></trkpt><trkpt lat="45.6753017" lon="9.4181667"><ele>248.33333333333334</ele><time>2026-04-25T06:19:36.23Z</time></trkpt><trkpt lat="45.6752733" lon="9.4184383"><ele>248.66666666666669</ele><time>2026-04-25T06:19:37.227Z</time></trkpt><trkpt lat="45.6752417" lon="9.4187"><ele>249.0</ele><time>2026-04-25T06:19:38.228Z</time></trkpt><trkpt lat="45.6752117" lon="9.41895"><ele>249.0</ele><time>2026-04-25T06:19:39.227Z</time></trkpt><trkpt lat="45.6751867" lon="9.419185"><ele>249.0</ele><time>2026-04-25T06:19:40.228Z</time></trkpt><trkpt lat="45.6751633" lon="9.41941"><ele>249.0</ele><time>2026-04-25T06:19:41.228Z</time></trkpt><trkpt lat="45.6751417" lon="9.4196217"><ele>249.0</ele><time>2026-04-25T06:19:42.228Z</time></trkpt><trkpt lat="45.67512" lon="9.4198233"><ele>249.0</ele><time>2026-04-25T06:19:43.227Z</time></trkpt><trkpt lat="45.6751" lon="9.4200117"><ele>249.0</ele><time>2026-04-25T06:19:44.227Z</time></trkpt><trkpt lat="45.6750783" lon="9.42019"><ele>249.0</ele><time>2026-04-25T06:19:45.228Z</time></trkpt><trkpt lat="45.67506" lon="9.4203567"><ele>249.0</ele><time>2026-04-25T06:19:46.228Z</time></trkpt><trkpt lat="45.6750467" lon="9.420515"><ele>248.99999999999997</ele><time>2026-04-25T06:19:47.228Z</time></trkpt><trkpt lat="45.6750333" lon="9.4206667"><ele>248.99999999999997</ele><time>2026-04-25T06:19:48.228Z</time></trkpt><trkpt lat="45.675015" lon="9.4208183"><ele>249.0</ele><time>2026-04-25T06:19:49.227Z</time></trkpt><trkpt lat="45.6749933" lon="9.42095"><ele>249.0</ele><time>2026-04-25T06:19:50.227Z</time></trkpt><trkpt lat="45.6749617" lon="9.4210617"><ele>249.0</ele><time>2026-04-25T06:19:51.228Z</time></trkpt><trkpt lat="45.67493" lon="9.42116"><ele>249.0</ele><time>2026-04-25T06:19:52.227Z</time></trkpt><trkpt lat="45.6748983" lon="9.421255"><ele>249.0</ele><time>2026-04-25T06:19:53.229Z</time></trkpt><trkpt lat="45.6748667" lon="9.4213683"><ele>249.0</ele><time>2026-04-25T06:19:54.228Z</time></trkpt><trkpt lat="45.6748383" lon="9.4215"><ele>249.0</ele><time>2026-04-25T06:19:55.228Z</time></trkpt><trkpt lat="45.674815" lon="9.421645"><ele>249.0</ele><time>2026-04-25T06:19:56.229Z</time></trkpt><trkpt lat="45.6748017" lon="9.4217983"><ele>249.39999999999998</ele><time>2026-04-25T06:19:57.227Z</time></trkpt><trkpt lat="45.6747933" lon="9.421955"><ele>249.79999999999998</ele><time>2026-04-25T06:19:58.228Z</time></trkpt><trkpt lat="45.67479" lon="9.422115"><ele>250.20000000000002</ele><time>2026-04-25T06:19:59.227Z</time></trkpt><trkpt lat="45.6747983" lon="9.422275"><ele>250.60000000000002</ele><time>2026-04-25T06:20:00.227Z</time></trkpt><trkpt lat="45.6748117" lon="9.422435"><ele>251.0</ele><time>2026-04-25T06:20:01.228Z</time></trkpt><trkpt lat="45.67484" lon="9.4225967"><ele>251.0</ele><time>2026-04-25T06:20:02.227Z</time></trkpt><trkpt lat="45.6748783" lon="9.4227667"><ele>251.0</ele><time>2026-04-25T06:20:03.229Z</time></trkpt><trkpt lat="45.6749233" lon="9.42293"><ele>251.0</ele><time>2026-04-25T06:20:04.228Z</time></trkpt><trkpt lat="45.6749667" lon="9.4230917"><ele>251.0</ele><time>2026-04-25T06:20:05.228Z</time></trkpt><trkpt lat="45.67501" lon="9.4232567"><ele>251.75</ele><time>2026-04-25T06:20:06.228Z</time></trkpt><trkpt lat="45.675055" lon="9.4234233"><ele>252.5</ele><time>2026-04-25T06:20:07.228Z</time></trkpt><trkpt lat="45.6750983" lon="9.423595"><ele>253.25</ele><time>2026-04-25T06:20:08.23Z</time></trkpt><trkpt lat="45.675145" lon="9.423765"><ele>254.0</ele><time>2026-04-25T06:20:09.229Z</time></trkpt><trkpt lat="45.6751883" lon="9.423935"><ele>254.0</ele><time>2026-04-25T06:20:10.227Z</time></trkpt><trkpt lat="45.6752333" lon="9.4241"><ele>254.0</ele><time>2026-04-25T06:20:11.228Z</time></trkpt><trkpt lat="45.67528" lon="9.4242633"><ele>254.0</ele><time>2026-04-25T06:20:12.228Z</time></trkpt><trkpt lat="45.67532" lon="9.4244217"><ele>254.0</ele><time>2026-04-25T06:20:13.228Z</time></trkpt><trkpt lat="45.6753517" lon="9.4245717"><ele>254.0</ele><time>2026-04-25T06:20:14.229Z</time></trkpt><trkpt lat="45.6753783" lon="9.424715"><ele>253.99999999999997</ele><time>2026-04-25T06:20:15.23Z</time></trkpt><trkpt lat="45.675395" lon="9.42485"><ele>253.99999999999997</ele><time>2026-04-25T06:20:16.229Z</time></trkpt><trkpt lat="45.67541" lon="9.42498"><ele>254.0</ele><time>2026-04-25T06:20:17.228Z</time></trkpt><trkpt lat="45.6754217" lon="9.425105"><ele>254.0</ele><time>2026-04-25T06:20:18.227Z</time></trkpt><trkpt lat="45.67543" lon="9.4252167"><ele>254.0</ele><time>2026-04-25T06:20:19.228Z</time></trkpt><trkpt lat="45.67543" lon="9.425315"><ele>253.99999999999997</ele><time>2026-04-25T06:20:20.227Z</time></trkpt><trkpt lat="45.6754033" lon="9.42548"><ele>253.99999999999997</ele><time>2026-04-25T06:20:22.229Z</time></trkpt><trkpt lat="45.6753717" lon="9.425625"><ele>254.0</ele><time>2026-04-25T06:20:24.227Z</time></trkpt><trkpt lat="45.675355" lon="9.4257633"><ele>254.0</ele><time>2026-04-25T06:20:26.229Z</time></trkpt><trkpt lat="45.6753217" lon="9.4258817"><ele>254.33333333333334</ele><time>2026-04-25T06:20:28.227Z</time></trkpt><trkpt lat="45.675275" lon="9.4259783"><ele>254.66666666666669</ele><time>2026-04-25T06:20:30.228Z</time></trkpt><trkpt lat="45.6752033" lon="9.4261033"><ele>255.0</ele><time>2026-04-25T06:20:32.228Z</time></trkpt><trkpt lat="45.67517" lon="9.426195"><ele>255.33333333333331</ele><time>2026-04-25T06:20:33.227Z</time></trkpt><trkpt lat="45.6751383" lon="9.426305"><ele>255.66666666666666</ele><time>2026-04-25T06:20:34.229Z</time></trkpt><trkpt lat="45.6751017" lon="9.4264233"><ele>256.0</ele><time>2026-04-25T06:20:35.23Z</time></trkpt><trkpt lat="45.67506" lon="9.4265533"><ele>256.0</ele><time>2026-04-25T06:20:36.229Z</time></trkpt><trkpt lat="45.6750117" lon="9.4266917"><ele>256.0</ele><time>2026-04-25T06:20:37.229Z</time></trkpt><trkpt lat="45.674955" lon="9.4268333"><ele>256.0</ele><time>2026-04-25T06:20:38.229Z</time></trkpt><trkpt lat="45.6748867" lon="9.4269733"><ele>256.0</ele><time>2026-04-25T06:20:39.228Z</time></trkpt><trkpt lat="45.6748183" lon="9.427115"><ele>255.75</ele><time>2026-04-25T06:20:40.229Z</time></trkpt><trkpt lat="45.67475" lon="9.42727"><ele>255.5</ele><time>2026-04-25T06:20:41.227Z</time></trkpt><trkpt lat="45.6746783" lon="9.42743"><ele>255.25</ele><time>2026-04-25T06:20:42.228Z</time></trkpt><trkpt lat="45.6746067" lon="9.4275883"><ele>255.0</ele><time>2026-04-25T06:20:43.227Z</time></trkpt><trkpt lat="45.6745367" lon="9.4277483"><ele>255.0</ele><time>2026-04-25T06:20:44.227Z</time></trkpt><trkpt lat="45.6744667" lon="9.4279083"><ele>255.0</ele><time>2026-04-25T06:20:45.227Z</time></trkpt><trkpt lat="45.674395" lon="9.4280667"><ele>255.0</ele><time>2026-04-25T06:20:46.227Z</time></trkpt><trkpt lat="45.674325" lon="9.42822"><ele>255.0</ele><time>2026-04-25T06:20:47.227Z</time></trkpt><trkpt lat="45.6742583" lon="9.4283667"><ele>255.0</ele><time>2026-04-25T06:20:48.228Z</time></trkpt><trkpt lat="45.6741917" lon="9.428505"><ele>255.0</ele><time>2026-04-25T06:20:49.228Z</time></trkpt><trkpt lat="45.6741283" lon="9.4286433"><ele>255.0</ele><time>2026-04-25T06:20:50.228Z</time></trkpt><trkpt lat="45.674065" lon="9.4287817"><ele>255.0</ele><time>2026-04-25T06:20:51.228Z</time></trkpt><trkpt lat="45.6739983" lon="9.4289283"><ele>254.75</ele><time>2026-04-25T06:20:52.228Z</time></trkpt><trkpt lat="45.67393" lon="9.4290833"><ele>254.5</ele><time>2026-04-25T06:20:53.228Z</time></trkpt><trkpt lat="45.673855" lon="9.4292383"><ele>254.25</ele><time>2026-04-25T06:20:54.229Z</time></trkpt><trkpt lat="45.67378" lon="9.4293983"><ele>254.0</ele><time>2026-04-25T06:20:55.227Z</time></trkpt><trkpt lat="45.6737017" lon="9.4295717"><ele>252.66666666666669</ele><time>2026-04-25T06:20:56.227Z</time></trkpt><trkpt lat="45.6736133" lon="9.429765"><ele>251.33333333333331</ele><time>2026-04-25T06:20:57.227Z</time></trkpt><trkpt lat="45.6735067" lon="9.4299817"><ele>250.0</ele><time>2026-04-25T06:20:58.227Z</time></trkpt><trkpt lat="45.6733867" lon="9.4302217"><ele>249.0</ele><time>2026-04-25T06:20:59.227Z</time></trkpt><trkpt lat="45.6732567" lon="9.4304867"><ele>248.0</ele><time>2026-04-25T06:21:00.229Z</time></trkpt><trkpt lat="45.673115" lon="9.43077"><ele>248.0</ele><time>2026-04-25T06:21:01.228Z</time></trkpt><trkpt lat="45.67297" lon="9.4310517"><ele>248.0</ele><time>2026-04-25T06:21:02.229Z</time></trkpt><trkpt lat="45.67283" lon="9.4313083"><ele>248.0</ele><time>2026-04-25T06:21:03.228Z</time></trkpt><trkpt lat="45.6727067" lon="9.4315417"><ele>248.0</ele><time>2026-04-25T06:21:04.227Z</time></trkpt><trkpt lat="45.672605" lon="9.4317783"><ele>248.0</ele><time>2026-04-25T06:21:05.228Z</time></trkpt><trkpt lat="45.6725167" lon="9.4320233"><ele>248.0</ele><time>2026-04-25T06:21:06.227Z</time></trkpt><trkpt lat="45.6724333" lon="9.4322767"><ele>248.0</ele><time>2026-04-25T06:21:07.228Z</time></trkpt><trkpt lat="45.672355" lon="9.43252"><ele>248.0</ele><time>2026-04-25T06:21:08.227Z</time></trkpt><trkpt lat="45.6722733" lon="9.4327483"><ele>248.0</ele><time>2026-04-25T06:21:09.231Z</time></trkpt><trkpt lat="45.6721767" lon="9.4329717"><ele>248.0</ele><time>2026-04-25T06:21:10.228Z</time></trkpt><trkpt lat="45.67207" lon="9.43319"><ele>248.0</ele><time>2026-04-25T06:21:11.227Z</time></trkpt><trkpt lat="45.67196" lon="9.433395"><ele>248.0</ele><time>2026-04-25T06:21:12.228Z</time></trkpt><trkpt lat="45.6718533" lon="9.4335833"><ele>248.0</ele><time>2026-04-25T06:21:13.228Z</time></trkpt><trkpt lat="45.6717517" lon="9.4337583"><ele>248.0</ele><time>2026-04-25T06:21:14.228Z</time></trkpt><trkpt lat="45.6716533" lon="9.4339267"><ele>248.66666666666669</ele><time>2026-04-25T06:21:15.228Z</time></trkpt><trkpt lat="45.6715533" lon="9.4340983"><ele>249.33333333333331</ele><time>2026-04-25T06:21:16.228Z</time></trkpt><trkpt lat="45.6714583" lon="9.434275"><ele>250.0</ele><time>2026-04-25T06:21:17.227Z</time></trkpt><trkpt lat="45.6713617" lon="9.434455"><ele>250.0</ele><time>2026-04-25T06:21:18.232Z</time></trkpt><trkpt lat="45.6712633" lon="9.4346283"><ele>250.0</ele><time>2026-04-25T06:21:19.227Z</time></trkpt><trkpt lat="45.6711683" lon="9.4347967"><ele>250.0</ele><time>2026-04-25T06:21:20.227Z</time></trkpt><trkpt lat="45.6710783" lon="9.434955"><ele>249.75</ele><time>2026-04-25T06:21:21.228Z</time></trkpt><trkpt lat="45.6709917" lon="9.4351067"><ele>249.5</ele><time>2026-04-25T06:21:22.228Z</time></trkpt><trkpt lat="45.6709117" lon="9.4352467"><ele>249.25</ele><time>2026-04-25T06:21:23.228Z</time></trkpt><trkpt lat="45.6708417" lon="9.4353767"><ele>249.0</ele><time>2026-04-25T06:21:24.227Z</time></trkpt><trkpt lat="45.6707783" lon="9.4355017"><ele>249.0</ele><time>2026-04-25T06:21:25.227Z</time></trkpt><trkpt lat="45.67072" lon="9.4356217"><ele>248.99999999999997</ele><time>2026-04-25T06:21:26.229Z</time></trkpt><trkpt lat="45.670665" lon="9.4357467"><ele>248.99999999999997</ele><time>2026-04-25T06:21:27.228Z</time></trkpt><trkpt lat="45.6706133" lon="9.4358683"><ele>249.0</ele><time>2026-04-25T06:21:28.228Z</time></trkpt><trkpt lat="45.67056" lon="9.43599"><ele>249.0</ele><time>2026-04-25T06:21:29.228Z</time></trkpt><trkpt lat="45.670505" lon="9.4361083"><ele>249.0</ele><time>2026-04-25T06:21:30.228Z</time></trkpt><trkpt lat="45.6704433" lon="9.43623"><ele>249.0</ele><time>2026-04-25T06:21:31.23Z</time></trkpt><trkpt lat="45.6703767" lon="9.4363567"><ele>249.0</ele><time>2026-04-25T06:21:32.229Z</time></trkpt><trkpt lat="45.6703083" lon="9.43649"><ele>249.0</ele><time>2026-04-25T06:21:33.228Z</time></trkpt><trkpt lat="45.6702383" lon="9.4366283"><ele>248.75</ele><time>2026-04-25T06:21:34.228Z</time></trkpt><trkpt lat="45.6701683" lon="9.4367683"><ele>248.5</ele><time>2026-04-25T06:21:35.228Z</time></trkpt><trkpt lat="45.6700967" lon="9.43691"><ele>248.25</ele><time>2026-04-25T06:21:36.227Z</time></trkpt><trkpt lat="45.6700233" lon="9.4370533"><ele>248.0</ele><time>2026-04-25T06:21:37.229Z</time></trkpt><trkpt lat="45.6699533" lon="9.437195"><ele>248.0</ele><time>2026-04-25T06:21:38.228Z</time></trkpt><trkpt lat="45.6698833" lon="9.4373317"><ele>248.0</ele><time>2026-04-25T06:21:39.228Z</time></trkpt><trkpt lat="45.669815" lon="9.4374567"><ele>248.0</ele><time>2026-04-25T06:21:40.229Z</time></trkpt><trkpt lat="45.66976" lon="9.4375667"><ele>248.0</ele><time>2026-04-25T06:21:41.229Z</time></trkpt><trkpt lat="45.66971" lon="9.4376617"><ele>248.0</ele><time>2026-04-25T06:21:42.227Z</time></trkpt><trkpt lat="45.6696633" lon="9.437745"><ele>248.0</ele><time>2026-04-25T06:21:43.229Z</time></trkpt><trkpt lat="45.669625" lon="9.4378183"><ele>248.0</ele><time>2026-04-25T06:21:44.228Z</time></trkpt><trkpt lat="45.6695783" lon="9.437955"><ele>248.0</ele><time>2026-04-25T06:21:46.229Z</time></trkpt><trkpt lat="45.6696017" lon="9.43809"><ele>248.0</ele><time>2026-04-25T06:21:48.229Z</time></trkpt><trkpt lat="45.6697183" lon="9.43824"><ele>248.0</ele><time>2026-04-25T06:21:50.234Z</time></trkpt><trkpt lat="45.6697917" lon="9.4383383"><ele>248.5</ele><time>2026-04-25T06:21:51.23Z</time></trkpt><trkpt lat="45.6698833" lon="9.4384317"><ele>249.0</ele><time>2026-04-25T06:21:52.23Z</time></trkpt><trkpt lat="45.6699867" lon="9.4385333"><ele>249.5</ele><time>2026-04-25T06:21:53.229Z</time></trkpt><trkpt lat="45.6701083" lon="9.4386533"><ele>250.0</ele><time>2026-04-25T06:21:54.229Z</time></trkpt><trkpt lat="45.6702467" lon="9.4387867"><ele>251.0</ele><time>2026-04-25T06:21:55.23Z</time></trkpt><trkpt lat="45.6704" lon="9.4389317"><ele>252.0</ele><time>2026-04-25T06:21:56.227Z</time></trkpt><trkpt lat="45.6705567" lon="9.439075"><ele>253.0</ele><time>2026-04-25T06:21:57.227Z</time></trkpt><trkpt lat="45.6707083" lon="9.4392183"><ele>253.0</ele><time>2026-04-25T06:21:58.228Z</time></trkpt><trkpt lat="45.6708617" lon="9.4393633"><ele>253.0</ele><time>2026-04-25T06:21:59.228Z</time></trkpt><trkpt lat="45.6710417" lon="9.4395217"><ele>253.0</ele><time>2026-04-25T06:22:00.228Z</time></trkpt><trkpt lat="45.6712083" lon="9.43968"><ele>253.66666666666666</ele><time>2026-04-25T06:22:01.227Z</time></trkpt><trkpt lat="45.6713717" lon="9.4398383"><ele>254.33333333333331</ele><time>2026-04-25T06:22:02.229Z</time></trkpt><trkpt lat="45.6715283" lon="9.4399883"><ele>255.0</ele><time>2026-04-25T06:22:03.228Z</time></trkpt><trkpt lat="45.6716717" lon="9.4401267"><ele>255.0</ele><time>2026-04-25T06:22:04.227Z</time></trkpt><trkpt lat="45.6718083" lon="9.4402567"><ele>255.0</ele><time>2026-04-25T06:22:05.229Z</time></trkpt><trkpt lat="45.6719417" lon="9.4403717"><ele>255.0</ele><time>2026-04-25T06:22:06.231Z</time></trkpt><trkpt lat="45.67208" lon="9.4404817"><ele>255.5</ele><time>2026-04-25T06:22:07.229Z</time></trkpt><trkpt lat="45.6722167" lon="9.44059"><ele>256.0</ele><time>2026-04-25T06:22:08.227Z</time></trkpt><trkpt lat="45.6723283" lon="9.4406983"><ele>256.5</ele><time>2026-04-25T06:22:09.229Z</time></trkpt><trkpt lat="45.67243" lon="9.4407933"><ele>257.0</ele><time>2026-04-25T06:22:10.228Z</time></trkpt><trkpt lat="45.672535" lon="9.440895"><ele>257.0</ele><time>2026-04-25T06:22:11.228Z</time></trkpt><trkpt lat="45.6726367" lon="9.441005"><ele>257.0</ele><time>2026-04-25T06:22:12.228Z</time></trkpt><trkpt lat="45.6727383" lon="9.4411283"><ele>257.0</ele><time>2026-04-25T06:22:13.228Z</time></trkpt><trkpt lat="45.6728367" lon="9.4412683"><ele>257.0</ele><time>2026-04-25T06:22:14.229Z</time></trkpt><trkpt lat="45.6729383" lon="9.4414183"><ele>257.75</ele><time>2026-04-25T06:22:15.229Z</time></trkpt><trkpt lat="45.6730217" lon="9.44156"><ele>258.5</ele><time>2026-04-25T06:22:16.229Z</time></trkpt><trkpt lat="45.6731217" lon="9.4417133"><ele>259.25</ele><time>2026-04-25T06:22:17.227Z</time></trkpt><trkpt lat="45.67322" lon="9.4418633"><ele>260.0</ele><time>2026-04-25T06:22:18.229Z</time></trkpt><trkpt lat="45.67332" lon="9.442015"><ele>260.25</ele><time>2026-04-25T06:22:19.228Z</time></trkpt><trkpt lat="45.6734133" lon="9.4421567"><ele>260.5</ele><time>2026-04-25T06:22:20.23Z</time></trkpt><trkpt lat="45.6734967" lon="9.442285"><ele>260.75</ele><time>2026-04-25T06:22:21.229Z</time></trkpt><trkpt lat="45.6735733" lon="9.442395"><ele>261.0</ele><time>2026-04-25T06:22:22.23Z</time></trkpt><trkpt lat="45.6736467" lon="9.442495"><ele>261.0</ele><time>2026-04-25T06:22:23.229Z</time></trkpt><trkpt lat="45.6737167" lon="9.4425933"><ele>261.0</ele><time>2026-04-25T06:22:24.229Z</time></trkpt><trkpt lat="45.673785" lon="9.4426883"><ele>261.0</ele><time>2026-04-25T06:22:25.229Z</time></trkpt><trkpt lat="45.6738517" lon="9.4428"><ele>261.0</ele><time>2026-04-25T06:22:26.229Z</time></trkpt><trkpt lat="45.67391" lon="9.4429233"><ele>261.0</ele><time>2026-04-25T06:22:27.229Z</time></trkpt><trkpt lat="45.67398" lon="9.4430567"><ele>261.0</ele><time>2026-04-25T06:22:28.23Z</time></trkpt><trkpt lat="45.6740617" lon="9.4432033"><ele>261.0</ele><time>2026-04-25T06:22:29.228Z</time></trkpt><trkpt lat="45.67415" lon="9.443355"><ele>261.0</ele><time>2026-04-25T06:22:30.23Z</time></trkpt><trkpt lat="45.6742417" lon="9.4435183"><ele>261.0</ele><time>2026-04-25T06:22:31.229Z</time></trkpt><trkpt lat="45.6743317" lon="9.4436917"><ele>261.3333333333333</ele><time>2026-04-25T06:22:32.227Z</time></trkpt><trkpt lat="45.6744183" lon="9.443875"><ele>261.66666666666663</ele><time>2026-04-25T06:22:33.227Z</time></trkpt><trkpt lat="45.6745033" lon="9.4440583"><ele>262.0</ele><time>2026-04-25T06:22:34.228Z</time></trkpt><trkpt lat="45.6745917" lon="9.4442383"><ele>262.0</ele><time>2026-04-25T06:22:35.228Z</time></trkpt><trkpt lat="45.6746833" lon="9.4444217"><ele>262.0</ele><time>2026-04-25T06:22:36.23Z</time></trkpt><trkpt lat="45.6747767" lon="9.4446033"><ele>262.0</ele><time>2026-04-25T06:22:37.227Z</time></trkpt><trkpt lat="45.674865" lon="9.4447783"><ele>262.0</ele><time>2026-04-25T06:22:38.228Z</time></trkpt><trkpt lat="45.6749533" lon="9.4449483"><ele>262.0</ele><time>2026-04-25T06:22:39.228Z</time></trkpt><trkpt lat="45.6750383" lon="9.4451167"><ele>262.0</ele><time>2026-04-25T06:22:40.227Z</time></trkpt><trkpt lat="45.675125" lon="9.4452833"><ele>262.0</ele><time>2026-04-25T06:22:41.227Z</time></trkpt><trkpt lat="45.6752067" lon="9.445445"><ele>262.0</ele><time>2026-04-25T06:22:42.227Z</time></trkpt><trkpt lat="45.6752867" lon="9.445605"><ele>262.0</ele><time>2026-04-25T06:22:43.227Z</time></trkpt><trkpt lat="45.6753633" lon="9.445755"><ele>262.0</ele><time>2026-04-25T06:22:44.227Z</time></trkpt><trkpt lat="45.6754333" lon="9.445895"><ele>262.0</ele><time>2026-04-25T06:22:45.227Z</time></trkpt><trkpt lat="45.675495" lon="9.4460217"><ele>262.0</ele><time>2026-04-25T06:22:46.227Z</time></trkpt><trkpt lat="45.67555" lon="9.446135"><ele>262.0</ele><time>2026-04-25T06:22:47.227Z</time></trkpt><trkpt lat="45.6755983" lon="9.4462317"><ele>262.0</ele><time>2026-04-25T06:22:48.23Z</time></trkpt><trkpt lat="45.6756383" lon="9.446315"><ele>262.0</ele><time>2026-04-25T06:22:49.229Z</time></trkpt><trkpt lat="45.675675" lon="9.44639"><ele>262.0</ele><time>2026-04-25T06:22:50.229Z</time></trkpt><trkpt lat="45.6757417" lon="9.4465233"><ele>262.0</ele><time>2026-04-25T06:22:52.227Z</time></trkpt><trkpt lat="45.6758017" lon="9.4466367"><ele>262.2</ele><time>2026-04-25T06:22:54.229Z</time></trkpt><trkpt lat="45.6758633" lon="9.4467583"><ele>262.4</ele><time>2026-04-25T06:22:56.228Z</time></trkpt><trkpt lat="45.6759383" lon="9.4469033"><ele>262.6</ele><time>2026-04-25T06:22:58.227Z</time></trkpt><trkpt lat="45.67598" lon="9.4469867"><ele>262.8</ele><time>2026-04-25T06:22:59.227Z</time></trkpt><trkpt lat="45.6760283" lon="9.44708"><ele>263.0</ele><time>2026-04-25T06:23:00.227Z</time></trkpt><trkpt lat="45.6760817" lon="9.447185"><ele>263.25</ele><time>2026-04-25T06:23:01.227Z</time></trkpt><trkpt lat="45.67614" lon="9.4473033"><ele>263.5</ele><time>2026-04-25T06:23:02.228Z</time></trkpt><trkpt lat="45.6762083" lon="9.44744"><ele>263.75</ele><time>2026-04-25T06:23:03.228Z</time></trkpt><trkpt lat="45.6762783" lon="9.447585"><ele>264.0</ele><time>2026-04-25T06:23:04.227Z</time></trkpt><trkpt lat="45.67635" lon="9.4477367"><ele>264.0</ele><time>2026-04-25T06:23:05.228Z</time></trkpt><trkpt lat="45.6764283" lon="9.4478967"><ele>264.0</ele><time>2026-04-25T06:23:06.23Z</time></trkpt><trkpt lat="45.6765117" lon="9.44806"><ele>264.0</ele><time>2026-04-25T06:23:07.227Z</time></trkpt><trkpt lat="45.6765983" lon="9.4482317"><ele>264.0</ele><time>2026-04-25T06:23:08.227Z</time></trkpt><trkpt lat="45.6766917" lon="9.44841"><ele>264.3333333333333</ele><time>2026-04-25T06:23:09.228Z</time></trkpt><trkpt lat="45.676785" lon="9.448595"><ele>264.66666666666663</ele><time>2026-04-25T06:23:10.227Z</time></trkpt><trkpt lat="45.6768733" lon="9.448775"><ele>265.0</ele><time>2026-04-25T06:23:11.228Z</time></trkpt><trkpt lat="45.676955" lon="9.4489417"><ele>264.0</ele><time>2026-04-25T06:23:12.227Z</time></trkpt><trkpt lat="45.677035" lon="9.4490983"><ele>263.0</ele><time>2026-04-25T06:23:13.229Z</time></trkpt><trkpt lat="45.6771083" lon="9.4492467"><ele>262.0</ele><time>2026-04-25T06:23:14.227Z</time></trkpt><trkpt lat="45.6771783" lon="9.44939"><ele>261.0</ele><time>2026-04-25T06:23:15.228Z</time></trkpt><trkpt lat="45.6772533" lon="9.4495367"><ele>260.75</ele><time>2026-04-25T06:23:16.227Z</time></trkpt><trkpt lat="45.6773283" lon="9.4496967"><ele>260.5</ele><time>2026-04-25T06:23:17.227Z</time></trkpt><trkpt lat="45.677405" lon="9.449865"><ele>260.25</ele><time>2026-04-25T06:23:18.227Z</time></trkpt><trkpt lat="45.6774833" lon="9.4500283"><ele>260.0</ele><time>2026-04-25T06:23:19.228Z</time></trkpt><trkpt lat="45.67756" lon="9.45018"><ele>260.0</ele><time>2026-04-25T06:23:20.228Z</time></trkpt><trkpt lat="45.6776333" lon="9.4503217"><ele>260.0</ele><time>2026-04-25T06:23:21.229Z</time></trkpt><trkpt lat="45.67771" lon="9.45046"><ele>260.0</ele><time>2026-04-25T06:23:22.229Z</time></trkpt><trkpt lat="45.6777983" lon="9.4506033"><ele>260.0</ele><time>2026-04-25T06:23:23.229Z</time></trkpt><trkpt lat="45.6778967" lon="9.450745"><ele>260.0</ele><time>2026-04-25T06:23:24.23Z</time></trkpt><trkpt lat="45.6780033" lon="9.4508667"><ele>260.0</ele><time>2026-04-25T06:23:25.229Z</time></trkpt><trkpt lat="45.6781117" lon="9.4509833"><ele>260.0</ele><time>2026-04-25T06:23:26.228Z</time></trkpt><trkpt lat="45.6782283" lon="9.4510933"><ele>260.0</ele><time>2026-04-25T06:23:27.228Z</time></trkpt><trkpt lat="45.6783483" lon="9.45119"><ele>260.0</ele><time>2026-04-25T06:23:28.228Z</time></trkpt><trkpt lat="45.67848" lon="9.4512683"><ele>260.0</ele><time>2026-04-25T06:23:29.227Z</time></trkpt><trkpt lat="45.6786167" lon="9.4513367"><ele>260.0</ele><time>2026-04-25T06:23:30.228Z</time></trkpt><trkpt lat="45.6787567" lon="9.4513817"><ele>260.0</ele><time>2026-04-25T06:23:31.228Z</time></trkpt><trkpt lat="45.6789017" lon="9.4514217"><ele>259.5</ele><time>2026-04-25T06:23:32.23Z</time></trkpt><trkpt lat="45.6790433" lon="9.4514483"><ele>259.0</ele><time>2026-04-25T06:23:33.229Z</time></trkpt><trkpt lat="45.6791717" lon="9.4514683"><ele>258.5</ele><time>2026-04-25T06:23:34.228Z</time></trkpt><trkpt lat="45.67929" lon="9.4514833"><ele>258.0</ele><time>2026-04-25T06:23:35.228Z</time></trkpt><trkpt lat="45.6793967" lon="9.4514917"><ele>258.6</ele><time>2026-04-25T06:23:36.228Z</time></trkpt><trkpt lat="45.6794967" lon="9.451495"><ele>259.20000000000005</ele><time>2026-04-25T06:23:37.228Z</time></trkpt><trkpt lat="45.679595" lon="9.4515"><ele>259.8</ele><time>2026-04-25T06:23:38.228Z</time></trkpt><trkpt lat="45.6796967" lon="9.4514983"><ele>260.40000000000003</ele><time>2026-04-25T06:23:39.229Z</time></trkpt><trkpt lat="45.6797983" lon="9.4514983"><ele>261.0</ele><time>2026-04-25T06:23:40.23Z</time></trkpt><trkpt lat="45.6798917" lon="9.451495"><ele>261.0</ele><time>2026-04-25T06:23:41.228Z</time></trkpt><trkpt lat="45.6799867" lon="9.4514933"><ele>261.0</ele><time>2026-04-25T06:23:42.227Z</time></trkpt><trkpt lat="45.680075" lon="9.4514883"><ele>261.0</ele><time>2026-04-25T06:23:43.227Z</time></trkpt><trkpt lat="45.6801617" lon="9.4514867"><ele>261.0</ele><time>2026-04-25T06:23:44.228Z</time></trkpt><trkpt lat="45.680245" lon="9.4514883"><ele>261.0</ele><time>2026-04-25T06:23:45.229Z</time></trkpt><trkpt lat="45.6803233" lon="9.4514833"><ele>261.0</ele><time>2026-04-25T06:23:46.228Z</time></trkpt><trkpt lat="45.6803983" lon="9.4514833"><ele>261.40000000000003</ele><time>2026-04-25T06:23:47.229Z</time></trkpt><trkpt lat="45.6804817" lon="9.4514867"><ele>261.8</ele><time>2026-04-25T06:23:48.229Z</time></trkpt><trkpt lat="45.6805817" lon="9.4514833"><ele>262.20000000000005</ele><time>2026-04-25T06:23:49.228Z</time></trkpt><trkpt lat="45.6807017" lon="9.4514833"><ele>262.6</ele><time>2026-04-25T06:23:50.228Z</time></trkpt><trkpt lat="45.6808233" lon="9.4514817"><ele>263.0</ele><time>2026-04-25T06:23:51.23Z</time></trkpt><trkpt lat="45.6809383" lon="9.4514783"><ele>263.0</ele><time>2026-04-25T06:23:52.23Z</time></trkpt><trkpt lat="45.6810383" lon="9.4514783"><ele>263.0</ele><time>2026-04-25T06:23:53.228Z</time></trkpt><trkpt lat="45.6811233" lon="9.4514883"><ele>263.0</ele><time>2026-04-25T06:23:54.228Z</time></trkpt><trkpt lat="45.6811867" lon="9.4514983"><ele>263.0</ele><time>2026-04-25T06:23:55.227Z</time></trkpt><trkpt lat="45.6812933" lon="9.4514967"><ele>263.0</ele><time>2026-04-25T06:23:57.231Z</time></trkpt><trkpt lat="45.6813517" lon="9.4514583"><ele>263.0</ele><time>2026-04-25T06:23:59.227Z</time></trkpt><trkpt lat="45.681435" lon="9.45141"><ele>260.5</ele><time>2026-04-25T06:24:02.227Z</time></trkpt><trkpt lat="45.6814967" lon="9.4513467"><ele>258.0</ele><time>2026-04-25T06:24:05.228Z</time></trkpt><trkpt lat="45.6815617" lon="9.45133"><ele>255.5</ele><time>2026-04-25T06:24:08.227Z</time></trkpt><trkpt lat="45.6816367" lon="9.4514083"><ele>253.0</ele><time>2026-04-25T06:24:11.228Z</time></trkpt><trkpt lat="45.681725" lon="9.451525"><ele>250.50000000000003</ele><time>2026-04-25T06:24:13.228Z</time></trkpt><trkpt lat="45.681775" lon="9.451595"><ele>248.0</ele><time>2026-04-25T06:24:14.227Z</time></trkpt><trkpt lat="45.6818333" lon="9.4516717"><ele>248.00000000000003</ele><time>2026-04-25T06:24:15.227Z</time></trkpt><trkpt lat="45.6818933" lon="9.4517533"><ele>248.0</ele><time>2026-04-25T06:24:16.227Z</time></trkpt><trkpt lat="45.6819517" lon="9.4518367"><ele>248.0</ele><time>2026-04-25T06:24:17.228Z</time></trkpt><trkpt lat="45.6820117" lon="9.4519167"><ele>248.0</ele><time>2026-04-25T06:24:18.227Z</time></trkpt><trkpt lat="45.6820683" lon="9.4519967"><ele>248.00000000000003</ele><time>2026-04-25T06:24:19.231Z</time></trkpt><trkpt lat="45.6821283" lon="9.45208"><ele>248.0</ele><time>2026-04-25T06:24:20.229Z</time></trkpt><trkpt lat="45.68219" lon="9.4521683"><ele>235.8</ele><time>2026-04-25T06:24:21.23Z</time></trkpt><trkpt lat="45.682255" lon="9.45226"><ele>223.60000000000002</ele><time>2026-04-25T06:24:22.229Z</time></trkpt><trkpt lat="45.6823217" lon="9.4523533"><ele>211.39999999999998</ele><time>2026-04-25T06:24:23.23Z</time></trkpt><trkpt lat="45.6823917" lon="9.4524483"><ele>199.2</ele><time>2026-04-25T06:24:24.229Z</time></trkpt><trkpt lat="45.6824567" lon="9.4525367"><ele>187.0</ele><time>2026-04-25T06:24:25.227Z</time></trkpt><trkpt lat="45.6825183" lon="9.4526233"><ele>187.0</ele><time>2026-04-25T06:24:26.227Z</time></trkpt><trkpt lat="45.6825767" lon="9.45271"><ele>187.0</ele><time>2026-04-25T06:24:27.227Z</time></trkpt><trkpt lat="45.6826367" lon="9.4527983"><ele>187.0</ele><time>2026-04-25T06:24:28.229Z</time></trkpt><trkpt lat="45.6827017" lon="9.4528883"><ele>187.0</ele><time>2026-04-25T06:24:29.229Z</time></trkpt><trkpt lat="45.6827683" lon="9.45298"><ele>187.0</ele><time>2026-04-25T06:24:30.229Z</time></trkpt><trkpt lat="45.6828367" lon="9.453075"><ele>187.0</ele><time>2026-04-25T06:24:31.23Z</time></trkpt><trkpt lat="45.6829033" lon="9.45317"><ele>198.39999999999998</ele><time>2026-04-25T06:24:32.228Z</time></trkpt><trkpt lat="45.68297" lon="9.4532633"><ele>209.79999999999998</ele><time>2026-04-25T06:24:33.229Z</time></trkpt><trkpt lat="45.6830367" lon="9.4533583"><ele>221.2</ele><time>2026-04-25T06:24:34.229Z</time></trkpt><trkpt lat="45.6831017" lon="9.45345"><ele>232.6</ele><time>2026-04-25T06:24:35.23Z</time></trkpt><trkpt lat="45.68317" lon="9.4535367"><ele>244.0</ele><time>2026-04-25T06:24:36.23Z</time></trkpt><trkpt lat="45.6832317" lon="9.45362"><ele>244.0</ele><time>2026-04-25T06:24:37.232Z</time></trkpt><trkpt lat="45.6832883" lon="9.4536983"><ele>243.99999999999997</ele><time>2026-04-25T06:24:38.23Z</time></trkpt><trkpt lat="45.6833733" lon="9.4538133"><ele>243.99999999999997</ele><time>2026-04-25T06:24:40.243Z</time></trkpt><trkpt lat="45.68344" lon="9.4539183"><ele>244.0</ele><time>2026-04-25T06:24:42.23Z</time></trkpt><trkpt lat="45.6834617" lon="9.4540533"><ele>244.0</ele><time>2026-04-25T06:24:44.228Z</time></trkpt><trkpt lat="45.68342" lon="9.454215"><ele>245.16666666666666</ele><time>2026-04-25T06:24:46.228Z</time></trkpt><trkpt lat="45.683415" lon="9.4543083"><ele>246.33333333333331</ele><time>2026-04-25T06:24:47.229Z</time></trkpt><trkpt lat="45.6834283" lon="9.4544233"><ele>247.5</ele><time>2026-04-25T06:24:48.227Z</time></trkpt><trkpt lat="45.683445" lon="9.4545483"><ele>248.66666666666669</ele><time>2026-04-25T06:24:49.228Z</time></trkpt><trkpt lat="45.6834617" lon="9.45468"><ele>249.83333333333334</ele><time>2026-04-25T06:24:50.229Z</time></trkpt><trkpt lat="45.68348" lon="9.454815"><ele>251.0</ele><time>2026-04-25T06:24:51.229Z</time></trkpt><trkpt lat="45.683495" lon="9.4549483"><ele>251.0</ele><time>2026-04-25T06:24:52.229Z</time></trkpt><trkpt lat="45.6835117" lon="9.4550733"><ele>251.00000000000003</ele><time>2026-04-25T06:24:53.229Z</time></trkpt><trkpt lat="45.6835367" lon="9.45519"><ele>251.00000000000003</ele><time>2026-04-25T06:24:54.23Z</time></trkpt><trkpt lat="45.6835667" lon="9.4553133"><ele>251.0</ele><time>2026-04-25T06:24:55.23Z</time></trkpt><trkpt lat="45.6836083" lon="9.4554533"><ele>251.0</ele><time>2026-04-25T06:24:56.229Z</time></trkpt><trkpt lat="45.68365" lon="9.45559"><ele>254.0</ele><time>2026-04-25T06:24:57.229Z</time></trkpt><trkpt lat="45.6837017" lon="9.4557367"><ele>257.0</ele><time>2026-04-25T06:24:58.229Z</time></trkpt><trkpt lat="45.6837517" lon="9.4558867"><ele>260.0</ele><time>2026-04-25T06:24:59.228Z</time></trkpt><trkpt lat="45.6838017" lon="9.45604"><ele>263.0</ele><time>2026-04-25T06:25:00.228Z</time></trkpt><trkpt lat="45.6838567" lon="9.4561917"><ele>263.25</ele><time>2026-04-25T06:25:01.231Z</time></trkpt><trkpt lat="45.683905" lon="9.4563433"><ele>263.5</ele><time>2026-04-25T06:25:02.228Z</time></trkpt><trkpt lat="45.68395" lon="9.456495"><ele>263.75</ele><time>2026-04-25T06:25:03.228Z</time></trkpt><trkpt lat="45.68399" lon="9.4566433"><ele>264.0</ele><time>2026-04-25T06:25:04.227Z</time></trkpt><trkpt lat="45.6840233" lon="9.4567917"><ele>264.0</ele><time>2026-04-25T06:25:05.228Z</time></trkpt><trkpt lat="45.684055" lon="9.4569383"><ele>264.0</ele><time>2026-04-25T06:25:06.232Z</time></trkpt><trkpt lat="45.68407" lon="9.4570817"><ele>264.0</ele><time>2026-04-25T06:25:07.23Z</time></trkpt><trkpt lat="45.6840817" lon="9.4572267"><ele>264.0</ele><time>2026-04-25T06:25:08.229Z</time></trkpt><trkpt lat="45.6840883" lon="9.4573567"><ele>264.0</ele><time>2026-04-25T06:25:09.229Z</time></trkpt><trkpt lat="45.68409" lon="9.4574833"><ele>263.6666666666667</ele><time>2026-04-25T06:25:10.228Z</time></trkpt><trkpt lat="45.68409" lon="9.457605"><ele>263.3333333333333</ele><time>2026-04-25T06:25:11.228Z</time></trkpt><trkpt lat="45.6840933" lon="9.4577183"><ele>263.0</ele><time>2026-04-25T06:25:12.232Z</time></trkpt><trkpt lat="45.6841017" lon="9.45782"><ele>262.66666666666663</ele><time>2026-04-25T06:25:13.228Z</time></trkpt><trkpt lat="45.684155" lon="9.4579517"><ele>262.3333333333333</ele><time>2026-04-25T06:25:15.228Z</time></trkpt><trkpt lat="45.6842383" lon="9.4579683"><ele>262.0</ele><time>2026-04-25T06:25:17.227Z</time></trkpt><trkpt lat="45.6843017" lon="9.4579583"><ele>262.0</ele><time>2026-04-25T06:25:19.229Z</time></trkpt><trkpt lat="45.684385" lon="9.4579617"><ele>262.0</ele><time>2026-04-25T06:25:22.23Z</time></trkpt><trkpt lat="45.684475" lon="9.457955"><ele>262.0</ele><time>2026-04-25T06:25:25.228Z</time></trkpt><trkpt lat="45.6845783" lon="9.4579667"><ele>262.0</ele><time>2026-04-25T06:25:28.227Z</time></trkpt><trkpt lat="45.6846733" lon="9.4580033"><ele>262.0</ele><time>2026-04-25T06:25:30.228Z</time></trkpt><trkpt lat="45.6847517" lon="9.4580367"><ele>262.5</ele><time>2026-04-25T06:25:32.227Z</time></trkpt><trkpt lat="45.6848167" lon="9.4580817"><ele>263.0</ele><time>2026-04-25T06:25:35.228Z</time></trkpt><trkpt lat="45.68488" lon="9.4581667"><ele>263.5</ele><time>2026-04-25T06:25:39.229Z</time></trkpt><trkpt lat="45.684925" lon="9.4583283"><ele>264.0</ele><time>2026-04-25T06:25:41.227Z</time></trkpt><trkpt lat="45.6849433" lon="9.4584183"><ele>264.5</ele><time>2026-04-25T06:25:42.227Z</time></trkpt><trkpt lat="45.68496" lon="9.45851"><ele>265.0</ele><time>2026-04-25T06:25:43.228Z</time></trkpt><trkpt lat="45.6849767" lon="9.4586067"><ele>264.99999999999994</ele><time>2026-04-25T06:25:44.229Z</time></trkpt><trkpt lat="45.6849933" lon="9.4587067"><ele>265.0</ele><time>2026-04-25T06:25:45.229Z</time></trkpt><trkpt lat="45.6850117" lon="9.4588"><ele>265.0</ele><time>2026-04-25T06:25:46.227Z</time></trkpt><trkpt lat="45.68503" lon="9.45889"><ele>265.0</ele><time>2026-04-25T06:25:47.229Z</time></trkpt><trkpt lat="45.6850517" lon="9.4589817"><ele>265.0</ele><time>2026-04-25T06:25:48.228Z</time></trkpt><trkpt lat="45.6850733" lon="9.4590717"><ele>264.99999999999994</ele><time>2026-04-25T06:25:49.23Z</time></trkpt><trkpt lat="45.685095" lon="9.4591617"><ele>265.0</ele><time>2026-04-25T06:25:50.227Z</time></trkpt><trkpt lat="45.685115" lon="9.4592517"><ele>265.0</ele><time>2026-04-25T06:25:51.229Z</time></trkpt><trkpt lat="45.6851417" lon="9.45941"><ele>265.0</ele><time>2026-04-25T06:25:53.231Z</time></trkpt><trkpt lat="45.6851667" lon="9.4595533"><ele>265.0</ele><time>2026-04-25T06:25:55.228Z</time></trkpt><trkpt lat="45.6851817" lon="9.4597117"><ele>265.0</ele><time>2026-04-25T06:25:57.23Z</time></trkpt><trkpt lat="45.6851567" lon="9.4598717"><ele>265.0</ele><time>2026-04-25T06:25:59.229Z</time></trkpt><trkpt lat="45.6851517" lon="9.4599667"><ele>265.2</ele><time>2026-04-25T06:26:00.23Z</time></trkpt><trkpt lat="45.6851617" lon="9.460065"><ele>265.4</ele><time>2026-04-25T06:26:01.23Z</time></trkpt><trkpt lat="45.685235" lon="9.4602233"><ele>265.6</ele><time>2026-04-25T06:26:03.229Z</time></trkpt><trkpt lat="45.6852833" lon="9.4603233"><ele>265.8</ele><time>2026-04-25T06:26:04.229Z</time></trkpt><trkpt lat="45.6853183" lon="9.4604433"><ele>266.0</ele><time>2026-04-25T06:26:05.228Z</time></trkpt><trkpt lat="45.68535" lon="9.4605767"><ele>266.0</ele><time>2026-04-25T06:26:06.232Z</time></trkpt><trkpt lat="45.6853767" lon="9.4607267"><ele>266.0</ele><time>2026-04-25T06:26:07.228Z</time></trkpt><trkpt lat="45.6854083" lon="9.4608883"><ele>266.0</ele><time>2026-04-25T06:26:08.227Z</time></trkpt><trkpt lat="45.6854383" lon="9.4610733"><ele>266.0</ele><time>2026-04-25T06:26:09.229Z</time></trkpt><trkpt lat="45.6854717" lon="9.4612583"><ele>265.5</ele><time>2026-04-25T06:26:10.228Z</time></trkpt><trkpt lat="45.6855067" lon="9.4614433"><ele>265.0</ele><time>2026-04-25T06:26:11.228Z</time></trkpt><trkpt lat="45.685545" lon="9.461635"><ele>264.5</ele><time>2026-04-25T06:26:12.23Z</time></trkpt><trkpt lat="45.6855817" lon="9.4618367"><ele>264.0</ele><time>2026-04-25T06:26:13.23Z</time></trkpt><trkpt lat="45.68562" lon="9.4620417"><ele>264.25</ele><time>2026-04-25T06:26:14.229Z</time></trkpt><trkpt lat="45.6856583" lon="9.46225"><ele>264.5</ele><time>2026-04-25T06:26:15.229Z</time></trkpt><trkpt lat="45.6856983" lon="9.4624567"><ele>264.75</ele><time>2026-04-25T06:26:16.231Z</time></trkpt><trkpt lat="45.685735" lon="9.46266"><ele>265.0</ele><time>2026-04-25T06:26:17.23Z</time></trkpt><trkpt lat="45.6857733" lon="9.4628567"><ele>264.75</ele><time>2026-04-25T06:26:18.23Z</time></trkpt><trkpt lat="45.68581" lon="9.4630433"><ele>264.5</ele><time>2026-04-25T06:26:19.23Z</time></trkpt><trkpt lat="45.68585" lon="9.46323"><ele>264.25</ele><time>2026-04-25T06:26:20.228Z</time></trkpt><trkpt lat="45.68589" lon="9.4634083"><ele>264.0</ele><time>2026-04-25T06:26:21.228Z</time></trkpt><trkpt lat="45.6859267" lon="9.463585"><ele>264.0</ele><time>2026-04-25T06:26:22.229Z</time></trkpt><trkpt lat="45.6859567" lon="9.4637633"><ele>264.0</ele><time>2026-04-25T06:26:23.229Z</time></trkpt><trkpt lat="45.6859817" lon="9.4639417"><ele>264.0</ele><time>2026-04-25T06:26:24.228Z</time></trkpt><trkpt lat="45.68601" lon="9.46412"><ele>264.0</ele><time>2026-04-25T06:26:25.228Z</time></trkpt><trkpt lat="45.6860417" lon="9.4643067"><ele>264.0</ele><time>2026-04-25T06:26:26.228Z</time></trkpt><trkpt lat="45.6860783" lon="9.4645"><ele>264.0</ele><time>2026-04-25T06:26:27.228Z</time></trkpt><trkpt lat="45.686115" lon="9.4646983"><ele>264.0</ele><time>2026-04-25T06:26:28.227Z</time></trkpt><trkpt lat="45.6861533" lon="9.464895"><ele>264.0</ele><time>2026-04-25T06:26:29.227Z</time></trkpt><trkpt lat="45.6861883" lon="9.46509"><ele>264.5</ele><time>2026-04-25T06:26:30.231Z</time></trkpt><trkpt lat="45.6862267" lon="9.4652867"><ele>265.0</ele><time>2026-04-25T06:26:31.227Z</time></trkpt><trkpt lat="45.6862617" lon="9.4654883"><ele>265.5</ele><time>2026-04-25T06:26:32.228Z</time></trkpt><trkpt lat="45.6863" lon="9.4656933"><ele>266.0</ele><time>2026-04-25T06:26:33.23Z</time></trkpt><trkpt lat="45.686335" lon="9.4659"><ele>267.5</ele><time>2026-04-25T06:26:34.227Z</time></trkpt><trkpt lat="45.6863717" lon="9.466105"><ele>269.0</ele><time>2026-04-25T06:26:35.227Z</time></trkpt><trkpt lat="45.6864083" lon="9.4663117"><ele>270.5</ele><time>2026-04-25T06:26:36.228Z</time></trkpt><trkpt lat="45.6864483" lon="9.46652"><ele>272.0</ele><time>2026-04-25T06:26:37.231Z</time></trkpt><trkpt lat="45.6864883" lon="9.466725"><ele>272.33333333333337</ele><time>2026-04-25T06:26:38.228Z</time></trkpt><trkpt lat="45.6865217" lon="9.4669333"><ele>272.6666666666667</ele><time>2026-04-25T06:26:39.227Z</time></trkpt><trkpt lat="45.6865567" lon="9.4671483"><ele>273.0</ele><time>2026-04-25T06:26:40.229Z</time></trkpt><trkpt lat="45.6865967" lon="9.467355"><ele>272.0</ele><time>2026-04-25T06:26:41.228Z</time></trkpt><trkpt lat="45.6866383" lon="9.4675633"><ele>271.0</ele><time>2026-04-25T06:26:42.228Z</time></trkpt><trkpt lat="45.6866783" lon="9.4677683"><ele>270.0</ele><time>2026-04-25T06:26:43.227Z</time></trkpt><trkpt lat="45.68672" lon="9.4679683"><ele>269.0</ele><time>2026-04-25T06:26:44.23Z</time></trkpt><trkpt lat="45.68676" lon="9.46817"><ele>268.25</ele><time>2026-04-25T06:26:45.229Z</time></trkpt><trkpt lat="45.6867983" lon="9.4683683"><ele>267.5</ele><time>2026-04-25T06:26:46.228Z</time></trkpt><trkpt lat="45.68684" lon="9.468565"><ele>266.75</ele><time>2026-04-25T06:26:47.228Z</time></trkpt><trkpt lat="45.6868767" lon="9.4687567"><ele>266.0</ele><time>2026-04-25T06:26:48.227Z</time></trkpt><trkpt lat="45.6869183" lon="9.4689467"><ele>266.75</ele><time>2026-04-25T06:26:49.227Z</time></trkpt><trkpt lat="45.686955" lon="9.4691417"><ele>267.5</ele><time>2026-04-25T06:26:50.228Z</time></trkpt><trkpt lat="45.6869917" lon="9.4693333"><ele>268.25</ele><time>2026-04-25T06:26:51.227Z</time></trkpt><trkpt lat="45.6870283" lon="9.4695233"><ele>269.0</ele><time>2026-04-25T06:26:52.227Z</time></trkpt><trkpt lat="45.6870633" lon="9.469715"><ele>269.0</ele><time>2026-04-25T06:26:53.228Z</time></trkpt><trkpt lat="45.687095" lon="9.4699033"><ele>269.0</ele><time>2026-04-25T06:26:54.228Z</time></trkpt><trkpt lat="45.68713" lon="9.470095"><ele>269.0</ele><time>2026-04-25T06:26:55.227Z</time></trkpt><trkpt lat="45.6871633" lon="9.47028"><ele>269.0</ele><time>2026-04-25T06:26:56.228Z</time></trkpt><trkpt lat="45.6871967" lon="9.4704483"><ele>268.8</ele><time>2026-04-25T06:26:57.228Z</time></trkpt><trkpt lat="45.6872267" lon="9.4706083"><ele>268.59999999999997</ele><time>2026-04-25T06:26:58.227Z</time></trkpt><trkpt lat="45.6872567" lon="9.470755"><ele>268.4</ele><time>2026-04-25T06:26:59.227Z</time></trkpt><trkpt lat="45.6872833" lon="9.4708933"><ele>268.2</ele><time>2026-04-25T06:27:00.228Z</time></trkpt><trkpt lat="45.6873033" lon="9.4710317"><ele>268.0</ele><time>2026-04-25T06:27:01.227Z</time></trkpt><trkpt lat="45.68733" lon="9.4711767"><ele>268.0</ele><time>2026-04-25T06:27:02.228Z</time></trkpt><trkpt lat="45.6873633" lon="9.471325"><ele>268.0</ele><time>2026-04-25T06:27:03.229Z</time></trkpt><trkpt lat="45.687395" lon="9.4714817"><ele>268.0</ele><time>2026-04-25T06:27:04.227Z</time></trkpt><trkpt lat="45.687425" lon="9.4716383"><ele>268.0</ele><time>2026-04-25T06:27:05.227Z</time></trkpt><trkpt lat="45.6874567" lon="9.4717967"><ele>268.0</ele><time>2026-04-25T06:27:06.228Z</time></trkpt><trkpt lat="45.68749" lon="9.471955"><ele>268.0</ele><time>2026-04-25T06:27:07.229Z</time></trkpt><trkpt lat="45.68752" lon="9.4721167"><ele>268.0</ele><time>2026-04-25T06:27:08.228Z</time></trkpt><trkpt lat="45.6875567" lon="9.47228"><ele>268.0</ele><time>2026-04-25T06:27:09.23Z</time></trkpt><trkpt lat="45.6875883" lon="9.4724467"><ele>268.0</ele><time>2026-04-25T06:27:10.23Z</time></trkpt><trkpt lat="45.6876183" lon="9.472615"><ele>268.0</ele><time>2026-04-25T06:27:11.227Z</time></trkpt><trkpt lat="45.68765" lon="9.4727833"><ele>268.0</ele><time>2026-04-25T06:27:12.228Z</time></trkpt><trkpt lat="45.6876767" lon="9.472945"><ele>268.0</ele><time>2026-04-25T06:27:13.227Z</time></trkpt><trkpt lat="45.687705" lon="9.4730917"><ele>268.8</ele><time>2026-04-25T06:27:14.228Z</time></trkpt><trkpt lat="45.687735" lon="9.4732317"><ele>269.6</ele><time>2026-04-25T06:27:15.229Z</time></trkpt><trkpt lat="45.6877567" lon="9.4733667"><ele>270.4</ele><time>2026-04-25T06:27:16.228Z</time></trkpt><trkpt lat="45.6877883" lon="9.4734883"><ele>271.2</ele><time>2026-04-25T06:27:17.227Z</time></trkpt><trkpt lat="45.6878067" lon="9.47361"><ele>272.0</ele><time>2026-04-25T06:27:18.228Z</time></trkpt><trkpt lat="45.68783" lon="9.473725"><ele>272.0</ele><time>2026-04-25T06:27:19.228Z</time></trkpt><trkpt lat="45.6878583" lon="9.4738383"><ele>272.0</ele><time>2026-04-25T06:27:20.228Z</time></trkpt><trkpt lat="45.6878783" lon="9.473945"><ele>272.0</ele><time>2026-04-25T06:27:21.229Z</time></trkpt><trkpt lat="45.68791" lon="9.474035"><ele>272.0</ele><time>2026-04-25T06:27:22.23Z</time></trkpt><trkpt lat="45.6879333" lon="9.4741533"><ele>272.0</ele><time>2026-04-25T06:27:24.229Z</time></trkpt><trkpt lat="45.6878783" lon="9.4742383"><ele>272.0</ele><time>2026-04-25T06:27:27.23Z</time></trkpt><trkpt lat="45.687795" lon="9.4742533"><ele>272.2</ele><time>2026-04-25T06:27:29.229Z</time></trkpt><trkpt lat="45.6876983" lon="9.474315"><ele>272.4</ele><time>2026-04-25T06:27:31.23Z</time></trkpt><trkpt lat="45.6875883" lon="9.474365"><ele>272.6</ele><time>2026-04-25T06:27:33.233Z</time></trkpt><trkpt lat="45.6875217" lon="9.4743867"><ele>272.8</ele><time>2026-04-25T06:27:34.229Z</time></trkpt><trkpt lat="45.6874017" lon="9.4744217"><ele>273.0</ele><time>2026-04-25T06:27:36.228Z</time></trkpt><trkpt lat="45.6872817" lon="9.4744783"><ele>273.0</ele><time>2026-04-25T06:27:38.227Z</time></trkpt><trkpt lat="45.6872183" lon="9.4745333"><ele>273.0</ele><time>2026-04-25T06:27:39.231Z</time></trkpt><trkpt lat="45.6871533" lon="9.474605"><ele>273.0</ele><time>2026-04-25T06:27:40.228Z</time></trkpt><trkpt lat="45.6870883" lon="9.4746933"><ele>273.0</ele><time>2026-04-25T06:27:41.228Z</time></trkpt><trkpt lat="45.68703" lon="9.4747883"><ele>273.0</ele><time>2026-04-25T06:27:42.227Z</time></trkpt><trkpt lat="45.68698" lon="9.4749"><ele>273.0</ele><time>2026-04-25T06:27:43.228Z</time></trkpt><trkpt lat="45.68693" lon="9.475015"><ele>272.0</ele><time>2026-04-25T06:27:44.229Z</time></trkpt><trkpt lat="45.6868767" lon="9.475135"><ele>271.0</ele><time>2026-04-25T06:27:45.228Z</time></trkpt><trkpt lat="45.686835" lon="9.4752667"><ele>270.0</ele><time>2026-04-25T06:27:46.227Z</time></trkpt><trkpt lat="45.6867917" lon="9.4753983"><ele>269.0</ele><time>2026-04-25T06:27:47.228Z</time></trkpt><trkpt lat="45.6867417" lon="9.4755333"><ele>268.0</ele><time>2026-04-25T06:27:48.228Z</time></trkpt><trkpt lat="45.6866833" lon="9.47568"><ele>268.0</ele><time>2026-04-25T06:27:49.23Z</time></trkpt><trkpt lat="45.6866183" lon="9.4758233"><ele>268.0</ele><time>2026-04-25T06:27:50.228Z</time></trkpt><trkpt lat="45.68655" lon="9.47598"><ele>268.0</ele><time>2026-04-25T06:27:51.229Z</time></trkpt><trkpt lat="45.68649" lon="9.476135"><ele>268.0</ele><time>2026-04-25T06:27:52.23Z</time></trkpt><trkpt lat="45.6864317" lon="9.4762967"><ele>268.25</ele><time>2026-04-25T06:27:53.229Z</time></trkpt><trkpt lat="45.6863817" lon="9.4764567"><ele>268.5</ele><time>2026-04-25T06:27:54.229Z</time></trkpt><trkpt lat="45.6863317" lon="9.476625"><ele>268.75</ele><time>2026-04-25T06:27:55.23Z</time></trkpt><trkpt lat="45.68628" lon="9.4768033"><ele>269.0</ele><time>2026-04-25T06:27:56.228Z</time></trkpt><trkpt lat="45.68623" lon="9.4769817"><ele>269.0</ele><time>2026-04-25T06:27:57.23Z</time></trkpt><trkpt lat="45.6861817" lon="9.47716"><ele>269.0</ele><time>2026-04-25T06:27:58.228Z</time></trkpt><trkpt lat="45.6861433" lon="9.4773233"><ele>269.0</ele><time>2026-04-25T06:27:59.227Z</time></trkpt><trkpt lat="45.6861033" lon="9.47746"><ele>269.0</ele><time>2026-04-25T06:28:00.227Z</time></trkpt><trkpt lat="45.686065" lon="9.4775717"><ele>269.0</ele><time>2026-04-25T06:28:01.227Z</time></trkpt><trkpt lat="45.6860267" lon="9.477665"><ele>268.83333333333337</ele><time>2026-04-25T06:28:02.227Z</time></trkpt><trkpt lat="45.6859383" lon="9.4777733"><ele>268.6666666666667</ele><time>2026-04-25T06:28:04.227Z</time></trkpt><trkpt lat="45.685875" lon="9.4777983"><ele>268.5</ele><time>2026-04-25T06:28:06.227Z</time></trkpt><trkpt lat="45.6858533" lon="9.4779267"><ele>268.3333333333333</ele><time>2026-04-25T06:28:10.228Z</time></trkpt><trkpt lat="45.6858683" lon="9.4780267"><ele>268.16666666666663</ele><time>2026-04-25T06:28:11.228Z</time></trkpt><trkpt lat="45.685895" lon="9.4781517"><ele>268.0</ele><time>2026-04-25T06:28:12.229Z</time></trkpt><trkpt lat="45.6859317" lon="9.4782867"><ele>268.0</ele><time>2026-04-25T06:28:13.23Z</time></trkpt><trkpt lat="45.685975" lon="9.4784283"><ele>268.0</ele><time>2026-04-25T06:28:14.23Z</time></trkpt><trkpt lat="45.6860283" lon="9.4785833"><ele>268.0</ele><time>2026-04-25T06:28:15.23Z</time></trkpt><trkpt lat="45.6860867" lon="9.4787483"><ele>268.0</ele><time>2026-04-25T06:28:16.229Z</time></trkpt><trkpt lat="45.6861483" lon="9.4789233"><ele>268.0</ele><time>2026-04-25T06:28:17.227Z</time></trkpt><trkpt lat="45.6862133" lon="9.4790983"><ele>268.0</ele><time>2026-04-25T06:28:18.227Z</time></trkpt><trkpt lat="45.6862767" lon="9.4792833"><ele>268.0</ele><time>2026-04-25T06:28:19.228Z</time></trkpt><trkpt lat="45.68634" lon="9.479475"><ele>268.0</ele><time>2026-04-25T06:28:20.228Z</time></trkpt><trkpt lat="45.6864033" lon="9.4796667"><ele>268.0</ele><time>2026-04-25T06:28:21.23Z</time></trkpt><trkpt lat="45.686465" lon="9.4798583"><ele>268.0</ele><time>2026-04-25T06:28:22.229Z</time></trkpt><trkpt lat="45.6865283" lon="9.4800467"><ele>268.0</ele><time>2026-04-25T06:28:23.23Z</time></trkpt><trkpt lat="45.68659" lon="9.480235"><ele>268.0</ele><time>2026-04-25T06:28:24.229Z</time></trkpt><trkpt lat="45.68665" lon="9.4804217"><ele>268.25</ele><time>2026-04-25T06:28:25.23Z</time></trkpt><trkpt lat="45.686705" lon="9.4806017"><ele>268.5</ele><time>2026-04-25T06:28:26.229Z</time></trkpt><trkpt lat="45.6867583" lon="9.4807783"><ele>268.75</ele><time>2026-04-25T06:28:27.229Z</time></trkpt><trkpt lat="45.6868" lon="9.480955"><ele>269.0</ele><time>2026-04-25T06:28:28.23Z</time></trkpt><trkpt lat="45.68684" lon="9.4811333"><ele>268.8</ele><time>2026-04-25T06:28:29.229Z</time></trkpt><trkpt lat="45.6868767" lon="9.481305"><ele>268.59999999999997</ele><time>2026-04-25T06:28:30.229Z</time></trkpt><trkpt lat="45.68691" lon="9.4814667"><ele>268.4</ele><time>2026-04-25T06:28:31.227Z</time></trkpt><trkpt lat="45.6869417" lon="9.4816133"><ele>268.2</ele><time>2026-04-25T06:28:32.227Z</time></trkpt><trkpt lat="45.6869683" lon="9.4817333"><ele>268.0</ele><time>2026-04-25T06:28:33.227Z</time></trkpt><trkpt lat="45.6869933" lon="9.4818267"><ele>267.8</ele><time>2026-04-25T06:28:34.229Z</time></trkpt><trkpt lat="45.6870283" lon="9.48196"><ele>267.6</ele><time>2026-04-25T06:28:36.229Z</time></trkpt><trkpt lat="45.68706" lon="9.4820883"><ele>267.4</ele><time>2026-04-25T06:28:38.229Z</time></trkpt><trkpt lat="45.6871" lon="9.48226"><ele>267.2</ele><time>2026-04-25T06:28:40.227Z</time></trkpt><trkpt lat="45.6871233" lon="9.48236"><ele>267.0</ele><time>2026-04-25T06:28:41.228Z</time></trkpt><trkpt lat="45.6871483" lon="9.482465"><ele>267.0</ele><time>2026-04-25T06:28:42.229Z</time></trkpt><trkpt lat="45.6871767" lon="9.4825783"><ele>267.0</ele><time>2026-04-25T06:28:43.229Z</time></trkpt><trkpt lat="45.6872067" lon="9.482695"><ele>267.0</ele><time>2026-04-25T06:28:44.227Z</time></trkpt><trkpt lat="45.68724" lon="9.48282"><ele>267.0</ele><time>2026-04-25T06:28:45.228Z</time></trkpt><trkpt lat="45.6872733" lon="9.4829583"><ele>267.0</ele><time>2026-04-25T06:28:46.229Z</time></trkpt><trkpt lat="45.6873083" lon="9.4831"><ele>266.5</ele><time>2026-04-25T06:28:47.228Z</time></trkpt><trkpt lat="45.6873433" lon="9.483235"><ele>266.0</ele><time>2026-04-25T06:28:48.23Z</time></trkpt><trkpt lat="45.687375" lon="9.4833533"><ele>265.5</ele><time>2026-04-25T06:28:49.23Z</time></trkpt><trkpt lat="45.687395" lon="9.4834467"><ele>265.0</ele><time>2026-04-25T06:28:50.23Z</time></trkpt><trkpt lat="45.6874217" lon="9.483565"><ele>264.5</ele><time>2026-04-25T06:28:52.23Z</time></trkpt><trkpt lat="45.6874517" lon="9.4836833"><ele>264.0</ele><time>2026-04-25T06:28:54.229Z</time></trkpt><trkpt lat="45.6874767" lon="9.483775"><ele>263.59999999999997</ele><time>2026-04-25T06:28:55.23Z</time></trkpt><trkpt lat="45.6875133" lon="9.4838917"><ele>263.2</ele><time>2026-04-25T06:28:56.23Z</time></trkpt><trkpt lat="45.6875617" lon="9.484025"><ele>262.79999999999995</ele><time>2026-04-25T06:28:57.229Z</time></trkpt><trkpt lat="45.6876217" lon="9.4841767"><ele>262.4</ele><time>2026-04-25T06:28:58.23Z</time></trkpt><trkpt lat="45.6876817" lon="9.48434"><ele>262.0</ele><time>2026-04-25T06:28:59.229Z</time></trkpt><trkpt lat="45.68774" lon="9.4845067"><ele>262.75</ele><time>2026-04-25T06:29:00.23Z</time></trkpt><trkpt lat="45.6878017" lon="9.4846733"><ele>263.5</ele><time>2026-04-25T06:29:01.23Z</time></trkpt><trkpt lat="45.6878633" lon="9.4848417"><ele>264.25</ele><time>2026-04-25T06:29:02.229Z</time></trkpt><trkpt lat="45.687925" lon="9.48501"><ele>265.0</ele><time>2026-04-25T06:29:03.23Z</time></trkpt><trkpt lat="45.6879883" lon="9.4851817"><ele>265.0</ele><time>2026-04-25T06:29:04.228Z</time></trkpt><trkpt lat="45.6880533" lon="9.485355"><ele>265.0</ele><time>2026-04-25T06:29:05.228Z</time></trkpt><trkpt lat="45.68812" lon="9.4855283"><ele>265.0</ele><time>2026-04-25T06:29:06.23Z</time></trkpt><trkpt lat="45.6881817" lon="9.4856967"><ele>265.0</ele><time>2026-04-25T06:29:07.229Z</time></trkpt><trkpt lat="45.6882367" lon="9.4858583"><ele>264.8</ele><time>2026-04-25T06:29:08.228Z</time></trkpt><trkpt lat="45.688285" lon="9.4860083"><ele>264.6</ele><time>2026-04-25T06:29:09.229Z</time></trkpt><trkpt lat="45.6883267" lon="9.4861417"><ele>264.4</ele><time>2026-04-25T06:29:10.229Z</time></trkpt><trkpt lat="45.688365" lon="9.4862733"><ele>264.2</ele><time>2026-04-25T06:29:11.23Z</time></trkpt><trkpt lat="45.6883983" lon="9.48641"><ele>264.0</ele><time>2026-04-25T06:29:12.228Z</time></trkpt><trkpt lat="45.6884317" lon="9.48655"><ele>264.0</ele><time>2026-04-25T06:29:13.227Z</time></trkpt><trkpt lat="45.68846" lon="9.4866833"><ele>264.0</ele><time>2026-04-25T06:29:14.227Z</time></trkpt><trkpt lat="45.6884867" lon="9.486815"><ele>264.0</ele><time>2026-04-25T06:29:15.229Z</time></trkpt><trkpt lat="45.6885117" lon="9.48694"><ele>264.0</ele><time>2026-04-25T06:29:16.229Z</time></trkpt><trkpt lat="45.6885333" lon="9.48705"><ele>264.0</ele><time>2026-04-25T06:29:17.227Z</time></trkpt><trkpt lat="45.688545" lon="9.4871417"><ele>264.0</ele><time>2026-04-25T06:29:18.229Z</time></trkpt><trkpt lat="45.688555" lon="9.4872967"><ele>264.0</ele><time>2026-04-25T06:29:20.228Z</time></trkpt><trkpt lat="45.688535" lon="9.4874383"><ele>264.0</ele><time>2026-04-25T06:29:22.23Z</time></trkpt><trkpt lat="45.6884733" lon="9.4874967"><ele>264.0</ele><time>2026-04-25T06:29:23.23Z</time></trkpt><trkpt lat="45.6883833" lon="9.4875467"><ele>264.0</ele><time>2026-04-25T06:29:24.229Z</time></trkpt><trkpt lat="45.6883267" lon="9.4876083"><ele>264.0</ele><time>2026-04-25T06:29:25.228Z</time></trkpt><trkpt lat="45.6882733" lon="9.4876767"><ele>264.0</ele><time>2026-04-25T06:29:26.229Z</time></trkpt><trkpt lat="45.688235" lon="9.4877517"><ele>264.0</ele><time>2026-04-25T06:29:27.227Z</time></trkpt><trkpt lat="45.6882283" lon="9.4878433"><ele>264.0</ele><time>2026-04-25T06:29:28.228Z</time></trkpt><trkpt lat="45.6882383" lon="9.487955"><ele>264.0</ele><time>2026-04-25T06:29:29.227Z</time></trkpt><trkpt lat="45.6882533" lon="9.4880833"><ele>264.0</ele><time>2026-04-25T06:29:30.228Z</time></trkpt><trkpt lat="45.6882717" lon="9.48822"><ele>264.0</ele><time>2026-04-25T06:29:31.228Z</time></trkpt><trkpt lat="45.6882867" lon="9.48836"><ele>264.0</ele><time>2026-04-25T06:29:32.229Z</time></trkpt><trkpt lat="45.6883" lon="9.488505"><ele>264.1666666666667</ele><time>2026-04-25T06:29:33.229Z</time></trkpt><trkpt lat="45.68831" lon="9.4886367"><ele>264.3333333333333</ele><time>2026-04-25T06:29:34.228Z</time></trkpt><trkpt lat="45.6883117" lon="9.48876"><ele>264.5</ele><time>2026-04-25T06:29:35.23Z</time></trkpt><trkpt lat="45.6882983" lon="9.4888717"><ele>264.66666666666663</ele><time>2026-04-25T06:29:36.227Z</time></trkpt><trkpt lat="45.6882567" lon="9.48898"><ele>264.8333333333333</ele><time>2026-04-25T06:29:37.227Z</time></trkpt><trkpt lat="45.6882033" lon="9.4890983"><ele>265.0</ele><time>2026-04-25T06:29:38.228Z</time></trkpt><trkpt lat="45.68815" lon="9.4892217"><ele>264.6</ele><time>2026-04-25T06:29:39.229Z</time></trkpt><trkpt lat="45.6880917" lon="9.4893367"><ele>264.2</ele><time>2026-04-25T06:29:40.228Z</time></trkpt><trkpt lat="45.68804" lon="9.4894467"><ele>263.8</ele><time>2026-04-25T06:29:41.228Z</time></trkpt><trkpt lat="45.6879983" lon="9.489545"><ele>263.4</ele><time>2026-04-25T06:29:42.228Z</time></trkpt><trkpt lat="45.687965" lon="9.4896317"><ele>263.0</ele><time>2026-04-25T06:29:43.227Z</time></trkpt><trkpt lat="45.6879833" lon="9.489785"><ele>262.0</ele><time>2026-04-25T06:29:45.229Z</time></trkpt><trkpt lat="45.6880883" lon="9.4898867"><ele>261.0</ele><time>2026-04-25T06:29:47.228Z</time></trkpt><trkpt lat="45.688155" lon="9.489945"><ele>260.0</ele><time>2026-04-25T06:29:48.229Z</time></trkpt><trkpt lat="45.6882267" lon="9.49002"><ele>259.0</ele><time>2026-04-25T06:29:49.229Z</time></trkpt><trkpt lat="45.6882967" lon="9.4901117"><ele>258.0</ele><time>2026-04-25T06:29:50.229Z</time></trkpt><trkpt lat="45.6883567" lon="9.4902217"><ele>258.0</ele><time>2026-04-25T06:29:51.231Z</time></trkpt><trkpt lat="45.6883967" lon="9.4903333"><ele>258.0</ele><time>2026-04-25T06:29:52.232Z</time></trkpt><trkpt lat="45.688415" lon="9.49044"><ele>258.0</ele><time>2026-04-25T06:29:53.229Z</time></trkpt><trkpt lat="45.6884133" lon="9.4905533"><ele>258.0</ele><time>2026-04-25T06:29:54.229Z</time></trkpt><trkpt lat="45.6883867" lon="9.4906717"><ele>258.0</ele><time>2026-04-25T06:29:55.229Z</time></trkpt><trkpt lat="45.6883467" lon="9.490805"><ele>258.0</ele><time>2026-04-25T06:29:56.227Z</time></trkpt><trkpt lat="45.6882867" lon="9.4909767"><ele>256.6666666666667</ele><time>2026-04-25T06:29:57.229Z</time></trkpt><trkpt lat="45.68822" lon="9.491165"><ele>255.33333333333334</ele><time>2026-04-25T06:29:58.227Z</time></trkpt><trkpt lat="45.6881517" lon="9.4913783"><ele>254.0</ele><time>2026-04-25T06:29:59.228Z</time></trkpt><trkpt lat="45.6880883" lon="9.4915933"><ele>253.66666666666669</ele><time>2026-04-25T06:30:00.23Z</time></trkpt><trkpt lat="45.68803" lon="9.4918183"><ele>253.33333333333331</ele><time>2026-04-25T06:30:01.229Z</time></trkpt><trkpt lat="45.6879733" lon="9.4920517"><ele>253.0</ele><time>2026-04-25T06:30:02.229Z</time></trkpt><trkpt lat="45.6879167" lon="9.49229"><ele>252.66666666666666</ele><time>2026-04-25T06:30:03.229Z</time></trkpt><trkpt lat="45.687865" lon="9.4925183"><ele>252.33333333333331</ele><time>2026-04-25T06:30:04.23Z</time></trkpt><trkpt lat="45.6878167" lon="9.4927333"><ele>252.0</ele><time>2026-04-25T06:30:05.229Z</time></trkpt><trkpt lat="45.6877683" lon="9.4929383"><ele>251.75</ele><time>2026-04-25T06:30:06.23Z</time></trkpt><trkpt lat="45.6877267" lon="9.4931283"><ele>251.5</ele><time>2026-04-25T06:30:07.23Z</time></trkpt><trkpt lat="45.687685" lon="9.4933117"><ele>251.25</ele><time>2026-04-25T06:30:08.23Z</time></trkpt><trkpt lat="45.687635" lon="9.493495"><ele>251.0</ele><time>2026-04-25T06:30:09.23Z</time></trkpt><trkpt lat="45.68757" lon="9.49365"><ele>251.75</ele><time>2026-04-25T06:30:10.23Z</time></trkpt><trkpt lat="45.6874833" lon="9.4937817"><ele>252.5</ele><time>2026-04-25T06:30:11.23Z</time></trkpt><trkpt lat="45.687375" lon="9.493885"><ele>253.25</ele><time>2026-04-25T06:30:12.229Z</time></trkpt><trkpt lat="45.6872483" lon="9.4939667"><ele>254.0</ele><time>2026-04-25T06:30:13.227Z</time></trkpt><trkpt lat="45.6871133" lon="9.4940433"><ele>254.0</ele><time>2026-04-25T06:30:14.228Z</time></trkpt><trkpt lat="45.6869783" lon="9.494115"><ele>254.0</ele><time>2026-04-25T06:30:15.23Z</time></trkpt><trkpt lat="45.6868483" lon="9.4941833"><ele>254.0</ele><time>2026-04-25T06:30:16.229Z</time></trkpt><trkpt lat="45.68673" lon="9.4942467"><ele>254.0</ele><time>2026-04-25T06:30:17.228Z</time></trkpt><trkpt lat="45.6866317" lon="9.4942933"><ele>253.16666666666669</ele><time>2026-04-25T06:30:18.227Z</time></trkpt><trkpt lat="45.686555" lon="9.4943483"><ele>252.33333333333334</ele><time>2026-04-25T06:30:19.227Z</time></trkpt><trkpt lat="45.686505" lon="9.494425"><ele>251.5</ele><time>2026-04-25T06:30:20.228Z</time></trkpt><trkpt lat="45.6864967" lon="9.494525"><ele>250.66666666666669</ele><time>2026-04-25T06:30:21.228Z</time></trkpt><trkpt lat="45.6865133" lon="9.4946417"><ele>249.83333333333334</ele><time>2026-04-25T06:30:22.227Z</time></trkpt><trkpt lat="45.6865417" lon="9.4947783"><ele>249.0</ele><time>2026-04-25T06:30:23.229Z</time></trkpt><trkpt lat="45.6865917" lon="9.4949333"><ele>248.75</ele><time>2026-04-25T06:30:24.23Z</time></trkpt><trkpt lat="45.6866483" lon="9.4950967"><ele>248.5</ele><time>2026-04-25T06:30:25.229Z</time></trkpt><trkpt lat="45.6867033" lon="9.4952733"><ele>248.25</ele><time>2026-04-25T06:30:26.228Z</time></trkpt><trkpt lat="45.6867617" lon="9.4954617"><ele>248.0</ele><time>2026-04-25T06:30:27.227Z</time></trkpt><trkpt lat="45.6868233" lon="9.4956583"><ele>247.66666666666669</ele><time>2026-04-25T06:30:28.228Z</time></trkpt><trkpt lat="45.6868867" lon="9.4958517"><ele>247.33333333333331</ele><time>2026-04-25T06:30:29.229Z</time></trkpt><trkpt lat="45.686945" lon="9.4960483"><ele>247.0</ele><time>2026-04-25T06:30:30.229Z</time></trkpt><trkpt lat="45.6870033" lon="9.4962517"><ele>249.66666666666666</ele><time>2026-04-25T06:30:31.229Z</time></trkpt><trkpt lat="45.6870633" lon="9.4964583"><ele>252.33333333333331</ele><time>2026-04-25T06:30:32.227Z</time></trkpt><trkpt lat="45.6871217" lon="9.496665"><ele>255.0</ele><time>2026-04-25T06:30:33.228Z</time></trkpt><trkpt lat="45.6871733" lon="9.496865"><ele>255.0</ele><time>2026-04-25T06:30:34.227Z</time></trkpt><trkpt lat="45.6872167" lon="9.4970633"><ele>255.0</ele><time>2026-04-25T06:30:35.227Z</time></trkpt><trkpt lat="45.6872267" lon="9.4972633"><ele>255.0</ele><time>2026-04-25T06:30:36.228Z</time></trkpt><trkpt lat="45.6872033" lon="9.497475"><ele>255.0</ele><time>2026-04-25T06:30:37.228Z</time></trkpt><trkpt lat="45.6871633" lon="9.497695"><ele>256.3333333333333</ele><time>2026-04-25T06:30:38.228Z</time></trkpt><trkpt lat="45.6871217" lon="9.4979183"><ele>257.66666666666663</ele><time>2026-04-25T06:30:39.229Z</time></trkpt><trkpt lat="45.6870833" lon="9.4981483"><ele>259.0</ele><time>2026-04-25T06:30:40.227Z</time></trkpt><trkpt lat="45.6870433" lon="9.498375"><ele>259.5</ele><time>2026-04-25T06:30:41.229Z</time></trkpt><trkpt lat="45.687" lon="9.49859"><ele>260.0</ele><time>2026-04-25T06:30:42.228Z</time></trkpt><trkpt lat="45.6869567" lon="9.49879"><ele>260.5</ele><time>2026-04-25T06:30:43.228Z</time></trkpt><trkpt lat="45.686905" lon="9.4989867"><ele>261.0</ele><time>2026-04-25T06:30:44.227Z</time></trkpt><trkpt lat="45.6868533" lon="9.4991767"><ele>259.75</ele><time>2026-04-25T06:30:45.228Z</time></trkpt><trkpt lat="45.6867983" lon="9.4993633"><ele>258.5</ele><time>2026-04-25T06:30:46.228Z</time></trkpt><trkpt lat="45.6867417" lon="9.4995517"><ele>257.25</ele><time>2026-04-25T06:30:47.227Z</time></trkpt><trkpt lat="45.68668" lon="9.499745"><ele>256.0</ele><time>2026-04-25T06:30:48.228Z</time></trkpt><trkpt lat="45.686615" lon="9.4999383"><ele>255.75</ele><time>2026-04-25T06:30:49.228Z</time></trkpt><trkpt lat="45.686555" lon="9.500125"><ele>255.5</ele><time>2026-04-25T06:30:50.227Z</time></trkpt><trkpt lat="45.6864983" lon="9.500305"><ele>255.25</ele><time>2026-04-25T06:30:51.227Z</time></trkpt><trkpt lat="45.68645" lon="9.5004817"><ele>255.0</ele><time>2026-04-25T06:30:52.227Z</time></trkpt><trkpt lat="45.6864183" lon="9.5006667"><ele>254.75</ele><time>2026-04-25T06:30:53.227Z</time></trkpt><trkpt lat="45.6864133" lon="9.5008633"><ele>254.5</ele><time>2026-04-25T06:30:54.227Z</time></trkpt><trkpt lat="45.6864333" lon="9.5010567"><ele>254.25</ele><time>2026-04-25T06:30:55.229Z</time></trkpt><trkpt lat="45.686465" lon="9.501245"><ele>254.0</ele><time>2026-04-25T06:30:56.229Z</time></trkpt><trkpt lat="45.6865033" lon="9.501435"><ele>254.0</ele><time>2026-04-25T06:30:57.229Z</time></trkpt><trkpt lat="45.686545" lon="9.501635"><ele>254.0</ele><time>2026-04-25T06:30:58.228Z</time></trkpt><trkpt lat="45.6865883" lon="9.5018417"><ele>254.0</ele><time>2026-04-25T06:30:59.228Z</time></trkpt><trkpt lat="45.686635" lon="9.5020533"><ele>253.66666666666669</ele><time>2026-04-25T06:31:00.228Z</time></trkpt><trkpt lat="45.6866833" lon="9.50227"><ele>253.33333333333331</ele><time>2026-04-25T06:31:01.229Z</time></trkpt><trkpt lat="45.6867317" lon="9.50249"><ele>253.0</ele><time>2026-04-25T06:31:02.228Z</time></trkpt><trkpt lat="45.68678" lon="9.5027133"><ele>253.66666666666666</ele><time>2026-04-25T06:31:03.232Z</time></trkpt><trkpt lat="45.6868283" lon="9.5029333"><ele>254.33333333333331</ele><time>2026-04-25T06:31:04.229Z</time></trkpt><trkpt lat="45.6868733" lon="9.5031517"><ele>255.0</ele><time>2026-04-25T06:31:05.229Z</time></trkpt><trkpt lat="45.6869183" lon="9.5033567"><ele>255.25</ele><time>2026-04-25T06:31:06.23Z</time></trkpt><trkpt lat="45.6869617" lon="9.5035483"><ele>255.5</ele><time>2026-04-25T06:31:07.23Z</time></trkpt><trkpt lat="45.6870017" lon="9.5037317"><ele>255.75</ele><time>2026-04-25T06:31:08.231Z</time></trkpt><trkpt lat="45.687035" lon="9.5039183"><ele>256.0</ele><time>2026-04-25T06:31:09.228Z</time></trkpt><trkpt lat="45.6870633" lon="9.5041217"><ele>256.0</ele><time>2026-04-25T06:31:10.229Z</time></trkpt><trkpt lat="45.6870883" lon="9.5043383"><ele>256.0</ele><time>2026-04-25T06:31:11.227Z</time></trkpt><trkpt lat="45.6871133" lon="9.5045683"><ele>256.0</ele><time>2026-04-25T06:31:12.228Z</time></trkpt><trkpt lat="45.6871383" lon="9.504805"><ele>255.33333333333331</ele><time>2026-04-25T06:31:13.227Z</time></trkpt><trkpt lat="45.687165" lon="9.5050517"><ele>254.66666666666669</ele><time>2026-04-25T06:31:14.228Z</time></trkpt><trkpt lat="45.6871883" lon="9.50531"><ele>254.0</ele><time>2026-04-25T06:31:15.229Z</time></trkpt><trkpt lat="45.6872117" lon="9.505575"><ele>254.0</ele><time>2026-04-25T06:31:16.227Z</time></trkpt><trkpt lat="45.6872333" lon="9.5058333"><ele>254.0</ele><time>2026-04-25T06:31:17.228Z</time></trkpt><trkpt lat="45.687255" lon="9.50608"><ele>254.0</ele><time>2026-04-25T06:31:18.227Z</time></trkpt><trkpt lat="45.687275" lon="9.506315"><ele>254.25</ele><time>2026-04-25T06:31:19.228Z</time></trkpt><trkpt lat="45.6872933" lon="9.5065367"><ele>254.5</ele><time>2026-04-25T06:31:20.227Z</time></trkpt><trkpt lat="45.68731" lon="9.5067433"><ele>254.75</ele><time>2026-04-25T06:31:21.23Z</time></trkpt><trkpt lat="45.6873233" lon="9.50694"><ele>255.0</ele><time>2026-04-25T06:31:22.227Z</time></trkpt><trkpt lat="45.6873317" lon="9.5071333"><ele>255.25</ele><time>2026-04-25T06:31:23.228Z</time></trkpt><trkpt lat="45.6873367" lon="9.5073267"><ele>255.5</ele><time>2026-04-25T06:31:24.227Z</time></trkpt><trkpt lat="45.68735" lon="9.5075233"><ele>255.75</ele><time>2026-04-25T06:31:25.229Z</time></trkpt><trkpt lat="45.6873733" lon="9.5077233"><ele>256.0</ele><time>2026-04-25T06:31:26.227Z</time></trkpt><trkpt lat="45.687405" lon="9.5079267"><ele>256.0</ele><time>2026-04-25T06:31:27.228Z</time></trkpt><trkpt lat="45.6874433" lon="9.5081333"><ele>256.0</ele><time>2026-04-25T06:31:28.228Z</time></trkpt><trkpt lat="45.6874867" lon="9.5083467"><ele>256.0</ele><time>2026-04-25T06:31:29.227Z</time></trkpt><trkpt lat="45.68753" lon="9.5085617"><ele>255.66666666666666</ele><time>2026-04-25T06:31:30.228Z</time></trkpt><trkpt lat="45.6875733" lon="9.5087817"><ele>255.33333333333331</ele><time>2026-04-25T06:31:31.228Z</time></trkpt><trkpt lat="45.687615" lon="9.5090083"><ele>255.0</ele><time>2026-04-25T06:31:32.227Z</time></trkpt><trkpt lat="45.68765" lon="9.5092383"><ele>255.0</ele><time>2026-04-25T06:31:33.23Z</time></trkpt><trkpt lat="45.6876867" lon="9.5094717"><ele>255.0</ele><time>2026-04-25T06:31:34.227Z</time></trkpt><trkpt lat="45.6877233" lon="9.5097033"><ele>255.0</ele><time>2026-04-25T06:31:35.229Z</time></trkpt><trkpt lat="45.6877617" lon="9.5099317"><ele>255.0</ele><time>2026-04-25T06:31:36.227Z</time></trkpt><trkpt lat="45.6878033" lon="9.5101583"><ele>255.0</ele><time>2026-04-25T06:31:37.227Z</time></trkpt><trkpt lat="45.6878433" lon="9.51039"><ele>255.0</ele><time>2026-04-25T06:31:38.227Z</time></trkpt><trkpt lat="45.6878867" lon="9.5106217"><ele>254.66666666666669</ele><time>2026-04-25T06:31:39.228Z</time></trkpt><trkpt lat="45.6879283" lon="9.510855"><ele>254.33333333333334</ele><time>2026-04-25T06:31:40.228Z</time></trkpt><trkpt lat="45.6879717" lon="9.5110867"><ele>254.0</ele><time>2026-04-25T06:31:41.228Z</time></trkpt><trkpt lat="45.688015" lon="9.5113183"><ele>253.66666666666669</ele><time>2026-04-25T06:31:42.227Z</time></trkpt><trkpt lat="45.6880617" lon="9.5115517"><ele>253.33333333333331</ele><time>2026-04-25T06:31:43.228Z</time></trkpt><trkpt lat="45.68811" lon="9.5117833"><ele>253.0</ele><time>2026-04-25T06:31:44.227Z</time></trkpt><trkpt lat="45.688165" lon="9.5120167"><ele>253.33333333333331</ele><time>2026-04-25T06:31:45.229Z</time></trkpt><trkpt lat="45.68822" lon="9.51225"><ele>253.66666666666669</ele><time>2026-04-25T06:31:46.227Z</time></trkpt><trkpt lat="45.68828" lon="9.5124833"><ele>254.0</ele><time>2026-04-25T06:31:47.228Z</time></trkpt><trkpt lat="45.6883333" lon="9.5127117"><ele>253.0</ele><time>2026-04-25T06:31:48.228Z</time></trkpt><trkpt lat="45.6883833" lon="9.5129417"><ele>252.0</ele><time>2026-04-25T06:31:49.228Z</time></trkpt><trkpt lat="45.68843" lon="9.5131733"><ele>251.0</ele><time>2026-04-25T06:31:50.228Z</time></trkpt><trkpt lat="45.6884733" lon="9.5134033"><ele>251.0</ele><time>2026-04-25T06:31:51.228Z</time></trkpt><trkpt lat="45.6885183" lon="9.5136333"><ele>251.0</ele><time>2026-04-25T06:31:52.229Z</time></trkpt><trkpt lat="45.6885583" lon="9.51386"><ele>251.0</ele><time>2026-04-25T06:31:53.228Z</time></trkpt><trkpt lat="45.6885983" lon="9.5140883"><ele>251.33333333333334</ele><time>2026-04-25T06:31:54.228Z</time></trkpt><trkpt lat="45.6886467" lon="9.5143183"><ele>251.66666666666669</ele><time>2026-04-25T06:31:55.229Z</time></trkpt><trkpt lat="45.6886933" lon="9.514545"><ele>252.0</ele><time>2026-04-25T06:31:56.228Z</time></trkpt><trkpt lat="45.68874" lon="9.5147683"><ele>252.0</ele><time>2026-04-25T06:31:57.23Z</time></trkpt><trkpt lat="45.688785" lon="9.5149933"><ele>252.0</ele><time>2026-04-25T06:31:58.23Z</time></trkpt><trkpt lat="45.68883" lon="9.5152133"><ele>252.0</ele><time>2026-04-25T06:31:59.229Z</time></trkpt><trkpt lat="45.6888733" lon="9.51543"><ele>251.66666666666669</ele><time>2026-04-25T06:32:00.229Z</time></trkpt><trkpt lat="45.6889133" lon="9.5156433"><ele>251.33333333333334</ele><time>2026-04-25T06:32:01.228Z</time></trkpt><trkpt lat="45.6889517" lon="9.515855"><ele>251.0</ele><time>2026-04-25T06:32:02.228Z</time></trkpt><trkpt lat="45.6889883" lon="9.516065"><ele>250.75</ele><time>2026-04-25T06:32:03.228Z</time></trkpt><trkpt lat="45.6890217" lon="9.5162717"><ele>250.5</ele><time>2026-04-25T06:32:04.228Z</time></trkpt><trkpt lat="45.6890417" lon="9.5164617"><ele>250.25</ele><time>2026-04-25T06:32:05.227Z</time></trkpt><trkpt lat="45.6890517" lon="9.5166283"><ele>250.0</ele><time>2026-04-25T06:32:06.229Z</time></trkpt><trkpt lat="45.689055" lon="9.5167867"><ele>250.0</ele><time>2026-04-25T06:32:07.229Z</time></trkpt><trkpt lat="45.6890533" lon="9.5169367"><ele>250.0</ele><time>2026-04-25T06:32:08.227Z</time></trkpt><trkpt lat="45.6890433" lon="9.5170733"><ele>250.0</ele><time>2026-04-25T06:32:09.228Z</time></trkpt><trkpt lat="45.68904" lon="9.5172083"><ele>250.0</ele><time>2026-04-25T06:32:10.227Z</time></trkpt><trkpt lat="45.6890533" lon="9.5173567"><ele>250.0</ele><time>2026-04-25T06:32:11.229Z</time></trkpt><trkpt lat="45.6890767" lon="9.5175167"><ele>250.0</ele><time>2026-04-25T06:32:12.229Z</time></trkpt><trkpt lat="45.689095" lon="9.5176917"><ele>250.0</ele><time>2026-04-25T06:32:13.229Z</time></trkpt><trkpt lat="45.6891067" lon="9.5178783"><ele>250.0</ele><time>2026-04-25T06:32:14.228Z</time></trkpt><trkpt lat="45.6891167" lon="9.51807"><ele>250.0</ele><time>2026-04-25T06:32:15.228Z</time></trkpt><trkpt lat="45.6891233" lon="9.518275"><ele>250.25</ele><time>2026-04-25T06:32:16.228Z</time></trkpt><trkpt lat="45.6891333" lon="9.5184783"><ele>250.5</ele><time>2026-04-25T06:32:17.227Z</time></trkpt><trkpt lat="45.689145" lon="9.5186817"><ele>250.75</ele><time>2026-04-25T06:32:18.228Z</time></trkpt><trkpt lat="45.6891567" lon="9.5188833"><ele>251.0</ele><time>2026-04-25T06:32:19.231Z</time></trkpt><trkpt lat="45.68917" lon="9.51908"><ele>251.0</ele><time>2026-04-25T06:32:20.229Z</time></trkpt><trkpt lat="45.6891817" lon="9.5192667"><ele>251.0</ele><time>2026-04-25T06:32:21.228Z</time></trkpt><trkpt lat="45.6891933" lon="9.5194383"><ele>251.0</ele><time>2026-04-25T06:32:22.228Z</time></trkpt><trkpt lat="45.6892" lon="9.5195983"><ele>251.0</ele><time>2026-04-25T06:32:23.228Z</time></trkpt><trkpt lat="45.6892033" lon="9.519755"><ele>250.75</ele><time>2026-04-25T06:32:24.227Z</time></trkpt><trkpt lat="45.689195" lon="9.51992"><ele>250.5</ele><time>2026-04-25T06:32:25.228Z</time></trkpt><trkpt lat="45.689185" lon="9.520095"><ele>250.25</ele><time>2026-04-25T06:32:26.228Z</time></trkpt><trkpt lat="45.6891767" lon="9.52028"><ele>250.0</ele><time>2026-04-25T06:32:27.229Z</time></trkpt><trkpt lat="45.6891667" lon="9.5204733"><ele>249.5</ele><time>2026-04-25T06:32:28.228Z</time></trkpt><trkpt lat="45.689155" lon="9.5206683"><ele>249.0</ele><time>2026-04-25T06:32:29.231Z</time></trkpt><trkpt lat="45.689145" lon="9.520865"><ele>248.5</ele><time>2026-04-25T06:32:30.23Z</time></trkpt><trkpt lat="45.6891367" lon="9.521045"><ele>248.0</ele><time>2026-04-25T06:32:31.228Z</time></trkpt><trkpt lat="45.689125" lon="9.5212083"><ele>248.16666666666669</ele><time>2026-04-25T06:32:32.229Z</time></trkpt><trkpt lat="45.6891167" lon="9.52135"><ele>248.33333333333334</ele><time>2026-04-25T06:32:33.229Z</time></trkpt><trkpt lat="45.6891083" lon="9.5214683"><ele>248.5</ele><time>2026-04-25T06:32:34.228Z</time></trkpt><trkpt lat="45.6890983" lon="9.5215683"><ele>248.66666666666669</ele><time>2026-04-25T06:32:35.228Z</time></trkpt><trkpt lat="45.6890883" lon="9.5216667"><ele>248.83333333333334</ele><time>2026-04-25T06:32:36.232Z</time></trkpt><trkpt lat="45.689075" lon="9.5217633"><ele>249.0</ele><time>2026-04-25T06:32:37.228Z</time></trkpt><trkpt lat="45.68905" lon="9.5218583"><ele>249.0</ele><time>2026-04-25T06:32:38.227Z</time></trkpt><trkpt lat="45.6889967" lon="9.52196"><ele>248.99999999999997</ele><time>2026-04-25T06:32:39.228Z</time></trkpt><trkpt lat="45.6889433" lon="9.5220717"><ele>248.99999999999997</ele><time>2026-04-25T06:32:40.228Z</time></trkpt><trkpt lat="45.6888833" lon="9.5221983"><ele>249.0</ele><time>2026-04-25T06:32:41.229Z</time></trkpt><trkpt lat="45.6888183" lon="9.5223333"><ele>249.0</ele><time>2026-04-25T06:32:42.229Z</time></trkpt><trkpt lat="45.6887567" lon="9.5224633"><ele>249.0</ele><time>2026-04-25T06:32:43.227Z</time></trkpt><trkpt lat="45.6887033" lon="9.5225833"><ele>248.99999999999997</ele><time>2026-04-25T06:32:44.229Z</time></trkpt><trkpt lat="45.6886467" lon="9.5226983"><ele>248.99999999999997</ele><time>2026-04-25T06:32:45.228Z</time></trkpt><trkpt lat="45.68859" lon="9.5228183"><ele>249.0</ele><time>2026-04-25T06:32:46.23Z</time></trkpt><trkpt lat="45.6885267" lon="9.5229467"><ele>249.0</ele><time>2026-04-25T06:32:47.23Z</time></trkpt><trkpt lat="45.6884583" lon="9.52308"><ele>248.75</ele><time>2026-04-25T06:32:48.228Z</time></trkpt><trkpt lat="45.688385" lon="9.52322"><ele>248.5</ele><time>2026-04-25T06:32:49.228Z</time></trkpt><trkpt lat="45.6883083" lon="9.5233583"><ele>248.25</ele><time>2026-04-25T06:32:50.229Z</time></trkpt><trkpt lat="45.6882333" lon="9.5234933"><ele>248.0</ele><time>2026-04-25T06:32:51.229Z</time></trkpt><trkpt lat="45.68816" lon="9.5236233"><ele>247.4</ele><time>2026-04-25T06:32:52.227Z</time></trkpt><trkpt lat="45.6880933" lon="9.523745"><ele>246.8</ele><time>2026-04-25T06:32:53.228Z</time></trkpt><trkpt lat="45.6880333" lon="9.52386"><ele>246.2</ele><time>2026-04-25T06:32:54.229Z</time></trkpt><trkpt lat="45.68798" lon="9.52397"><ele>245.6</ele><time>2026-04-25T06:32:55.227Z</time></trkpt><trkpt lat="45.6879317" lon="9.5240783"><ele>245.0</ele><time>2026-04-25T06:32:56.229Z</time></trkpt><trkpt lat="45.687895" lon="9.5241983"><ele>245.00000000000003</ele><time>2026-04-25T06:32:57.228Z</time></trkpt><trkpt lat="45.6878667" lon="9.5243133"><ele>245.0</ele><time>2026-04-25T06:32:58.227Z</time></trkpt><trkpt lat="45.687845" lon="9.5244267"><ele>245.0</ele><time>2026-04-25T06:32:59.227Z</time></trkpt><trkpt lat="45.6878283" lon="9.52452"><ele>245.0</ele><time>2026-04-25T06:33:00.228Z</time></trkpt><trkpt lat="45.6878083" lon="9.5246717"><ele>245.00000000000003</ele><time>2026-04-25T06:33:02.227Z</time></trkpt><trkpt lat="45.6878" lon="9.5247667"><ele>245.0</ele><time>2026-04-25T06:33:04.228Z</time></trkpt><trkpt lat="45.68779" lon="9.5248917"><ele>244.8</ele><time>2026-04-25T06:38:49.229Z</time></trkpt><trkpt lat="45.687755" lon="9.5250233"><ele>244.6</ele><time>2026-04-25T06:38:51.229Z</time></trkpt><trkpt lat="45.6877017" lon="9.525205"><ele>244.39999999999998</ele><time>2026-04-25T06:38:53.228Z</time></trkpt><trkpt lat="45.6876783" lon="9.5253333"><ele>244.2</ele><time>2026-04-25T06:38:54.229Z</time></trkpt><trkpt lat="45.6876567" lon="9.5254767"><ele>244.0</ele><time>2026-04-25T06:38:55.227Z</time></trkpt><trkpt lat="45.6876267" lon="9.525635"><ele>243.25</ele><time>2026-04-25T06:38:56.228Z</time></trkpt><trkpt lat="45.6875817" lon="9.525805"><ele>242.5</ele><time>2026-04-25T06:38:57.228Z</time></trkpt><trkpt lat="45.6875333" lon="9.5259767"><ele>241.75</ele><time>2026-04-25T06:38:58.228Z</time></trkpt><trkpt lat="45.6874833" lon="9.5261483"><ele>241.0</ele><time>2026-04-25T06:38:59.227Z</time></trkpt><trkpt lat="45.6874317" lon="9.5263133"><ele>239.5</ele><time>2026-04-25T06:39:00.228Z</time></trkpt><trkpt lat="45.6873767" lon="9.52648"><ele>238.0</ele><time>2026-04-25T06:39:01.228Z</time></trkpt><trkpt lat="45.68732" lon="9.52665"><ele>236.5</ele><time>2026-04-25T06:39:02.23Z</time></trkpt><trkpt lat="45.6872633" lon="9.5268133"><ele>235.0</ele><time>2026-04-25T06:39:03.231Z</time></trkpt><trkpt lat="45.6872117" lon="9.5269583"><ele>234.16666666666666</ele><time>2026-04-25T06:39:04.229Z</time></trkpt><trkpt lat="45.6871633" lon="9.5270833"><ele>233.33333333333331</ele><time>2026-04-25T06:39:05.228Z</time></trkpt><trkpt lat="45.6871233" lon="9.5271867"><ele>232.5</ele><time>2026-04-25T06:39:06.229Z</time></trkpt><trkpt lat="45.687085" lon="9.52728"><ele>231.66666666666669</ele><time>2026-04-25T06:39:07.229Z</time></trkpt><trkpt lat="45.6870483" lon="9.5273717"><ele>230.83333333333334</ele><time>2026-04-25T06:39:08.228Z</time></trkpt><trkpt lat="45.687015" lon="9.5274833"><ele>230.0</ele><time>2026-04-25T06:39:09.231Z</time></trkpt><trkpt lat="45.6869767" lon="9.5275983"><ele>230.00000000000003</ele><time>2026-04-25T06:39:10.227Z</time></trkpt><trkpt lat="45.6869333" lon="9.52771"><ele>230.0</ele><time>2026-04-25T06:39:11.229Z</time></trkpt><trkpt lat="45.686885" lon="9.5278083"><ele>230.0</ele><time>2026-04-25T06:39:12.228Z</time></trkpt><trkpt lat="45.6868333" lon="9.5279167"><ele>230.0</ele><time>2026-04-25T06:39:13.227Z</time></trkpt><trkpt lat="45.68678" lon="9.52803"><ele>230.00000000000003</ele><time>2026-04-25T06:39:14.227Z</time></trkpt><trkpt lat="45.68673" lon="9.5281333"><ele>230.0</ele><time>2026-04-25T06:39:15.228Z</time></trkpt><trkpt lat="45.68668" lon="9.528235"><ele>229.66666666666669</ele><time>2026-04-25T06:39:16.229Z</time></trkpt><trkpt lat="45.686625" lon="9.528345"><ele>229.33333333333334</ele><time>2026-04-25T06:39:17.227Z</time></trkpt><trkpt lat="45.6865733" lon="9.5284533"><ele>229.0</ele><time>2026-04-25T06:39:18.228Z</time></trkpt><trkpt lat="45.6865217" lon="9.528555"><ele>228.66666666666669</ele><time>2026-04-25T06:39:19.229Z</time></trkpt><trkpt lat="45.686475" lon="9.528645"><ele>228.33333333333334</ele><time>2026-04-25T06:39:20.228Z</time></trkpt><trkpt lat="45.6864233" lon="9.528715"><ele>228.0</ele><time>2026-04-25T06:39:21.229Z</time></trkpt><trkpt lat="45.6863717" lon="9.5287717"><ele>228.0</ele><time>2026-04-25T06:39:22.227Z</time></trkpt><trkpt lat="45.6863133" lon="9.5288167"><ele>228.0</ele><time>2026-04-25T06:39:23.23Z</time></trkpt><trkpt lat="45.6862533" lon="9.5288483"><ele>228.0</ele><time>2026-04-25T06:39:24.228Z</time></trkpt><trkpt lat="45.6861567" lon="9.5289183"><ele>228.0</ele><time>2026-04-25T06:39:26.228Z</time></trkpt><trkpt lat="45.68612" lon="9.52904"><ele>228.0</ele><time>2026-04-25T06:39:28.228Z</time></trkpt><trkpt lat="45.6861083" lon="9.5292083"><ele>228.0</ele><time>2026-04-25T06:39:30.228Z</time></trkpt><trkpt lat="45.68611" lon="9.5293117"><ele>228.0</ele><time>2026-04-25T06:39:31.229Z</time></trkpt><trkpt lat="45.6861133" lon="9.529425"><ele>227.99999999999997</ele><time>2026-04-25T06:39:32.228Z</time></trkpt><trkpt lat="45.68612" lon="9.5295433"><ele>228.0</ele><time>2026-04-25T06:39:33.23Z</time></trkpt><trkpt lat="45.6861383" lon="9.5296533"><ele>228.0</ele><time>2026-04-25T06:39:34.228Z</time></trkpt><trkpt lat="45.6861683" lon="9.529745"><ele>227.99999999999997</ele><time>2026-04-25T06:39:35.229Z</time></trkpt><trkpt lat="45.68622" lon="9.529805"><ele>228.0</ele><time>2026-04-25T06:39:36.227Z</time></trkpt><trkpt lat="45.6862833" lon="9.5298283"><ele>228.0</ele><time>2026-04-25T06:39:37.229Z</time></trkpt><trkpt lat="45.6863633" lon="9.5298333"><ele>228.0</ele><time>2026-04-25T06:39:38.227Z</time></trkpt><trkpt lat="45.6864533" lon="9.5298333"><ele>228.0</ele><time>2026-04-25T06:39:39.229Z</time></trkpt><trkpt lat="45.6865467" lon="9.5298333"><ele>228.0</ele><time>2026-04-25T06:39:40.229Z</time></trkpt><trkpt lat="45.6866417" lon="9.5298317"><ele>228.0</ele><time>2026-04-25T06:39:41.227Z</time></trkpt><trkpt lat="45.6867433" lon="9.5298267"><ele>228.0</ele><time>2026-04-25T06:39:42.227Z</time></trkpt><trkpt lat="45.68685" lon="9.52983"><ele>228.0</ele><time>2026-04-25T06:39:43.228Z</time></trkpt><trkpt lat="45.6869533" lon="9.52983"><ele>228.0</ele><time>2026-04-25T06:39:44.228Z</time></trkpt><trkpt lat="45.6870433" lon="9.5298233"><ele>228.0</ele><time>2026-04-25T06:39:45.229Z</time></trkpt><trkpt lat="45.6871267" lon="9.5298117"><ele>228.0</ele><time>2026-04-25T06:39:46.231Z</time></trkpt><trkpt lat="45.6871983" lon="9.5298133"><ele>228.0</ele><time>2026-04-25T06:39:47.228Z</time></trkpt><trkpt lat="45.6872817" lon="9.52984"><ele>228.0</ele><time>2026-04-25T06:39:49.228Z</time></trkpt><trkpt lat="45.6873283" lon="9.5299167"><ele>228.0</ele><time>2026-04-25T06:39:53.228Z</time></trkpt><trkpt lat="45.6872917" lon="9.5300017"><ele>228.0</ele><time>2026-04-25T06:39:55.23Z</time></trkpt><trkpt lat="45.687245" lon="9.5300833"><ele>228.0</ele><time>2026-04-25T06:39:56.229Z</time></trkpt><trkpt lat="45.68717" lon="9.530195"><ele>228.0</ele><time>2026-04-25T06:39:57.23Z</time></trkpt><trkpt lat="45.6870833" lon="9.5303267"><ele>228.0</ele><time>2026-04-25T06:39:58.23Z</time></trkpt><trkpt lat="45.6869883" lon="9.5304717"><ele>228.25</ele><time>2026-04-25T06:39:59.228Z</time></trkpt><trkpt lat="45.68689" lon="9.5306233"><ele>228.5</ele><time>2026-04-25T06:40:00.227Z</time></trkpt><trkpt lat="45.6867883" lon="9.5307783"><ele>228.75</ele><time>2026-04-25T06:40:01.227Z</time></trkpt><trkpt lat="45.6867033" lon="9.5309183"><ele>229.0</ele><time>2026-04-25T06:40:02.228Z</time></trkpt><trkpt lat="45.6866267" lon="9.5310567"><ele>229.0</ele><time>2026-04-25T06:40:03.232Z</time></trkpt><trkpt lat="45.6865583" lon="9.531185"><ele>228.99999999999997</ele><time>2026-04-25T06:40:04.228Z</time></trkpt><trkpt lat="45.6864967" lon="9.5313"><ele>228.99999999999997</ele><time>2026-04-25T06:40:05.228Z</time></trkpt><trkpt lat="45.686435" lon="9.531405"><ele>229.0</ele><time>2026-04-25T06:40:06.227Z</time></trkpt><trkpt lat="45.6863667" lon="9.5315"><ele>229.0</ele><time>2026-04-25T06:40:07.227Z</time></trkpt><trkpt lat="45.6862967" lon="9.5315933"><ele>228.99999999999997</ele><time>2026-04-25T06:40:08.227Z</time></trkpt><trkpt lat="45.686235" lon="9.5316833"><ele>229.0</ele><time>2026-04-25T06:40:09.228Z</time></trkpt><trkpt lat="45.6861833" lon="9.531775"><ele>229.0</ele><time>2026-04-25T06:40:10.229Z</time></trkpt><trkpt lat="45.6861483" lon="9.53188"><ele>229.0</ele><time>2026-04-25T06:40:11.227Z</time></trkpt><trkpt lat="45.6861417" lon="9.5319933"><ele>228.99999999999997</ele><time>2026-04-25T06:40:12.229Z</time></trkpt><trkpt lat="45.6861533" lon="9.53211"><ele>229.0</ele><time>2026-04-25T06:40:13.229Z</time></trkpt><trkpt lat="45.68617" lon="9.53223"><ele>228.79999999999998</ele><time>2026-04-25T06:40:14.227Z</time></trkpt><trkpt lat="45.6861817" lon="9.5323617"><ele>228.59999999999997</ele><time>2026-04-25T06:40:15.227Z</time></trkpt><trkpt lat="45.68618" lon="9.532505"><ele>228.4</ele><time>2026-04-25T06:40:16.228Z</time></trkpt><trkpt lat="45.686175" lon="9.5326617"><ele>228.2</ele><time>2026-04-25T06:40:17.227Z</time></trkpt><trkpt lat="45.6861733" lon="9.5328267"><ele>228.0</ele><time>2026-04-25T06:40:18.228Z</time></trkpt><trkpt lat="45.6861783" lon="9.5329967"><ele>227.75</ele><time>2026-04-25T06:40:19.228Z</time></trkpt><trkpt lat="45.6861883" lon="9.5331667"><ele>227.5</ele><time>2026-04-25T06:40:20.23Z</time></trkpt><trkpt lat="45.6862083" lon="9.5333383"><ele>227.25</ele><time>2026-04-25T06:40:21.23Z</time></trkpt><trkpt lat="45.686235" lon="9.5335083"><ele>227.0</ele><time>2026-04-25T06:40:22.23Z</time></trkpt><trkpt lat="45.686265" lon="9.5336833"><ele>227.75</ele><time>2026-04-25T06:40:23.229Z</time></trkpt><trkpt lat="45.686295" lon="9.5338617"><ele>228.5</ele><time>2026-04-25T06:40:24.229Z</time></trkpt><trkpt lat="45.6863233" lon="9.53404"><ele>229.25</ele><time>2026-04-25T06:40:25.229Z</time></trkpt><trkpt lat="45.686355" lon="9.5342183"><ele>230.0</ele><time>2026-04-25T06:40:26.229Z</time></trkpt><trkpt lat="45.686385" lon="9.5343983"><ele>230.25</ele><time>2026-04-25T06:40:27.23Z</time></trkpt><trkpt lat="45.6864183" lon="9.5345767"><ele>230.5</ele><time>2026-04-25T06:40:28.23Z</time></trkpt><trkpt lat="45.6864483" lon="9.5347533"><ele>230.75</ele><time>2026-04-25T06:40:29.23Z</time></trkpt><trkpt lat="45.68648" lon="9.5349233"><ele>231.0</ele><time>2026-04-25T06:40:30.23Z</time></trkpt><trkpt lat="45.6865083" lon="9.53509"><ele>231.0</ele><time>2026-04-25T06:40:31.228Z</time></trkpt><trkpt lat="45.6865367" lon="9.5352533"><ele>231.0</ele><time>2026-04-25T06:40:32.228Z</time></trkpt><trkpt lat="45.686565" lon="9.5354183"><ele>231.0</ele><time>2026-04-25T06:40:33.23Z</time></trkpt><trkpt lat="45.6865917" lon="9.5355833"><ele>231.0</ele><time>2026-04-25T06:40:34.228Z</time></trkpt><trkpt lat="45.6866183" lon="9.5357433"><ele>230.4</ele><time>2026-04-25T06:40:35.23Z</time></trkpt><trkpt lat="45.6866417" lon="9.53589"><ele>229.8</ele><time>2026-04-25T06:40:36.228Z</time></trkpt><trkpt lat="45.6866617" lon="9.53602"><ele>229.20000000000002</ele><time>2026-04-25T06:40:37.227Z</time></trkpt><trkpt lat="45.6866817" lon="9.5361467"><ele>228.60000000000002</ele><time>2026-04-25T06:40:38.227Z</time></trkpt><trkpt lat="45.6867033" lon="9.5362783"><ele>228.0</ele><time>2026-04-25T06:40:39.228Z</time></trkpt><trkpt lat="45.6867267" lon="9.536415"><ele>228.0</ele><time>2026-04-25T06:40:40.23Z</time></trkpt><trkpt lat="45.6867517" lon="9.5365567"><ele>228.0</ele><time>2026-04-25T06:40:41.228Z</time></trkpt><trkpt lat="45.6867783" lon="9.5367017"><ele>228.0</ele><time>2026-04-25T06:40:42.228Z</time></trkpt><trkpt lat="45.6868033" lon="9.5368533"><ele>228.0</ele><time>2026-04-25T06:40:43.228Z</time></trkpt><trkpt lat="45.6868283" lon="9.537005"><ele>228.0</ele><time>2026-04-25T06:40:44.227Z</time></trkpt><trkpt lat="45.6868533" lon="9.537155"><ele>228.5</ele><time>2026-04-25T06:40:45.227Z</time></trkpt><trkpt lat="45.68688" lon="9.53731"><ele>229.0</ele><time>2026-04-25T06:40:46.229Z</time></trkpt><trkpt lat="45.686905" lon="9.5374717"><ele>229.5</ele><time>2026-04-25T06:40:47.228Z</time></trkpt><trkpt lat="45.6869283" lon="9.5376317"><ele>230.0</ele><time>2026-04-25T06:40:48.228Z</time></trkpt><trkpt lat="45.6869533" lon="9.5377867"><ele>230.2</ele><time>2026-04-25T06:40:49.228Z</time></trkpt><trkpt lat="45.6869767" lon="9.5379317"><ele>230.4</ele><time>2026-04-25T06:40:50.228Z</time></trkpt><trkpt lat="45.6869983" lon="9.53807"><ele>230.60000000000002</ele><time>2026-04-25T06:40:51.229Z</time></trkpt><trkpt lat="45.6870183" lon="9.5382"><ele>230.8</ele><time>2026-04-25T06:40:52.228Z</time></trkpt><trkpt lat="45.6870383" lon="9.53833"><ele>231.0</ele><time>2026-04-25T06:40:53.228Z</time></trkpt><trkpt lat="45.6870583" lon="9.53846"><ele>231.0</ele><time>2026-04-25T06:40:54.229Z</time></trkpt><trkpt lat="45.6870783" lon="9.5385817"><ele>231.0</ele><time>2026-04-25T06:40:55.23Z</time></trkpt><trkpt lat="45.6870983" lon="9.5387033"><ele>231.0</ele><time>2026-04-25T06:40:56.228Z</time></trkpt><trkpt lat="45.6871183" lon="9.5388233"><ele>231.0</ele><time>2026-04-25T06:40:57.229Z</time></trkpt><trkpt lat="45.6871367" lon="9.5389367"><ele>231.0</ele><time>2026-04-25T06:40:58.229Z</time></trkpt><trkpt lat="45.6871533" lon="9.5390467"><ele>231.0</ele><time>2026-04-25T06:40:59.229Z</time></trkpt><trkpt lat="45.68717" lon="9.539155"><ele>231.0</ele><time>2026-04-25T06:41:00.229Z</time></trkpt><trkpt lat="45.68719" lon="9.5392667"><ele>231.0</ele><time>2026-04-25T06:41:01.227Z</time></trkpt><trkpt lat="45.6872083" lon="9.5393783"><ele>231.0</ele><time>2026-04-25T06:41:02.229Z</time></trkpt><trkpt lat="45.687225" lon="9.539485"><ele>231.0</ele><time>2026-04-25T06:41:03.229Z</time></trkpt><trkpt lat="45.6872433" lon="9.5395883"><ele>231.0</ele><time>2026-04-25T06:41:04.227Z</time></trkpt><trkpt lat="45.68726" lon="9.5396867"><ele>231.0</ele><time>2026-04-25T06:41:05.227Z</time></trkpt><trkpt lat="45.687275" lon="9.539775"><ele>231.0</ele><time>2026-04-25T06:41:06.23Z</time></trkpt><trkpt lat="45.6873" lon="9.539925"><ele>230.4</ele><time>2026-04-25T06:41:08.228Z</time></trkpt><trkpt lat="45.6873233" lon="9.540055"><ele>229.8</ele><time>2026-04-25T06:41:10.227Z</time></trkpt><trkpt lat="45.68734" lon="9.5401817"><ele>229.20000000000002</ele><time>2026-04-25T06:41:12.229Z</time></trkpt><trkpt lat="45.687365" lon="9.540345"><ele>228.60000000000002</ele><time>2026-04-25T06:41:14.23Z</time></trkpt><trkpt lat="45.6873817" lon="9.5404883"><ele>228.0</ele><time>2026-04-25T06:41:16.228Z</time></trkpt><trkpt lat="45.68738" lon="9.5405917"><ele>228.0</ele><time>2026-04-25T06:41:18.228Z</time></trkpt><trkpt lat="45.6873533" lon="9.5407017"><ele>228.0</ele><time>2026-04-25T06:41:21.229Z</time></trkpt><trkpt lat="45.6873017" lon="9.5408367"><ele>228.0</ele><time>2026-04-25T06:41:23.228Z</time></trkpt><trkpt lat="45.6872733" lon="9.5409267"><ele>228.0</ele><time>2026-04-25T06:41:24.23Z</time></trkpt><trkpt lat="45.6872767" lon="9.5410967"><ele>228.0</ele><time>2026-04-25T06:41:26.228Z</time></trkpt><trkpt lat="45.687395" lon="9.5411767"><ele>228.0</ele><time>2026-04-25T06:41:28.229Z</time></trkpt><trkpt lat="45.6874667" lon="9.54115"><ele>228.0</ele><time>2026-04-25T06:41:29.228Z</time></trkpt><trkpt lat="45.68753" lon="9.5410983"><ele>228.0</ele><time>2026-04-25T06:41:30.227Z</time></trkpt><trkpt lat="45.68759" lon="9.5410083"><ele>228.0</ele><time>2026-04-25T06:41:31.231Z</time></trkpt><trkpt lat="45.68765" lon="9.54091"><ele>228.0</ele><time>2026-04-25T06:41:32.228Z</time></trkpt><trkpt lat="45.687715" lon="9.540825"><ele>228.0</ele><time>2026-04-25T06:41:33.229Z</time></trkpt><trkpt lat="45.6877967" lon="9.5407717"><ele>229.25</ele><time>2026-04-25T06:41:34.228Z</time></trkpt><trkpt lat="45.6879117" lon="9.5407583"><ele>230.5</ele><time>2026-04-25T06:41:35.228Z</time></trkpt><trkpt lat="45.6880417" lon="9.5407417"><ele>231.75</ele><time>2026-04-25T06:41:36.228Z</time></trkpt><trkpt lat="45.6881817" lon="9.54072"><ele>233.0</ele><time>2026-04-25T06:41:37.228Z</time></trkpt><trkpt lat="45.688325" lon="9.540695"><ele>233.0</ele><time>2026-04-25T06:41:38.228Z</time></trkpt><trkpt lat="45.6884633" lon="9.5406767"><ele>233.0</ele><time>2026-04-25T06:41:39.227Z</time></trkpt><trkpt lat="45.6885867" lon="9.5406583"><ele>233.0</ele><time>2026-04-25T06:41:40.227Z</time></trkpt><trkpt lat="45.688695" lon="9.540635"><ele>233.0</ele><time>2026-04-25T06:41:41.228Z</time></trkpt><trkpt lat="45.688795" lon="9.54061"><ele>232.8</ele><time>2026-04-25T06:41:42.228Z</time></trkpt><trkpt lat="45.6888967" lon="9.5405833"><ele>232.60000000000002</ele><time>2026-04-25T06:41:43.231Z</time></trkpt><trkpt lat="45.6889967" lon="9.5405683"><ele>232.39999999999998</ele><time>2026-04-25T06:41:44.228Z</time></trkpt><trkpt lat="45.68909" lon="9.5405583"><ele>232.2</ele><time>2026-04-25T06:41:45.228Z</time></trkpt><trkpt lat="45.6891717" lon="9.5405467"><ele>232.0</ele><time>2026-04-25T06:41:46.228Z</time></trkpt><trkpt lat="45.68925" lon="9.5405233"><ele>232.0</ele><time>2026-04-25T06:41:47.228Z</time></trkpt><trkpt lat="45.6893333" lon="9.54049"><ele>232.0</ele><time>2026-04-25T06:41:48.23Z</time></trkpt><trkpt lat="45.6894283" lon="9.5404433"><ele>232.0</ele><time>2026-04-25T06:41:49.229Z</time></trkpt><trkpt lat="45.6895233" lon="9.5403733"><ele>232.0</ele><time>2026-04-25T06:41:50.229Z</time></trkpt><trkpt lat="45.6896217" lon="9.5402867"><ele>232.0</ele><time>2026-04-25T06:41:51.234Z</time></trkpt><trkpt lat="45.68972" lon="9.5401933"><ele>232.25</ele><time>2026-04-25T06:41:52.231Z</time></trkpt><trkpt lat="45.68982" lon="9.5400883"><ele>232.5</ele><time>2026-04-25T06:41:53.229Z</time></trkpt><trkpt lat="45.68992" lon="9.53997"><ele>232.75</ele><time>2026-04-25T06:41:54.23Z</time></trkpt><trkpt lat="45.6900183" lon="9.5398467"><ele>233.0</ele><time>2026-04-25T06:41:55.227Z</time></trkpt><trkpt lat="45.6901167" lon="9.539715"><ele>233.0</ele><time>2026-04-25T06:41:56.228Z</time></trkpt><trkpt lat="45.6902117" lon="9.5395717"><ele>233.0</ele><time>2026-04-25T06:41:57.23Z</time></trkpt><trkpt lat="45.690305" lon="9.539425"><ele>233.0</ele><time>2026-04-25T06:41:58.228Z</time></trkpt><trkpt lat="45.6903917" lon="9.539265"><ele>233.0</ele><time>2026-04-25T06:41:59.227Z</time></trkpt><trkpt lat="45.69048" lon="9.5390967"><ele>233.25</ele><time>2026-04-25T06:42:00.231Z</time></trkpt><trkpt lat="45.690565" lon="9.5389283"><ele>233.5</ele><time>2026-04-25T06:42:01.229Z</time></trkpt><trkpt lat="45.6906467" lon="9.53876"><ele>233.75</ele><time>2026-04-25T06:42:02.227Z</time></trkpt><trkpt lat="45.6907333" lon="9.5385833"><ele>234.0</ele><time>2026-04-25T06:42:03.228Z</time></trkpt><trkpt lat="45.690825" lon="9.5384067"><ele>234.0</ele><time>2026-04-25T06:42:04.236Z</time></trkpt><trkpt lat="45.6909233" lon="9.538235"><ele>234.0</ele><time>2026-04-25T06:42:05.227Z</time></trkpt><trkpt lat="45.6910267" lon="9.5380683"><ele>234.0</ele><time>2026-04-25T06:42:06.231Z</time></trkpt><trkpt lat="45.691135" lon="9.5379067"><ele>233.33333333333331</ele><time>2026-04-25T06:42:07.23Z</time></trkpt><trkpt lat="45.6912467" lon="9.5377467"><ele>232.66666666666666</ele><time>2026-04-25T06:42:08.231Z</time></trkpt><trkpt lat="45.6913667" lon="9.5375967"><ele>232.0</ele><time>2026-04-25T06:42:09.227Z</time></trkpt><trkpt lat="45.6914917" lon="9.5374567"><ele>232.0</ele><time>2026-04-25T06:42:10.229Z</time></trkpt><trkpt lat="45.6916233" lon="9.5373267"><ele>232.0</ele><time>2026-04-25T06:42:11.227Z</time></trkpt><trkpt lat="45.6917617" lon="9.537215"><ele>232.0</ele><time>2026-04-25T06:42:12.228Z</time></trkpt><trkpt lat="45.6919067" lon="9.537135"><ele>232.66666666666666</ele><time>2026-04-25T06:42:13.227Z</time></trkpt><trkpt lat="45.692055" lon="9.53708"><ele>233.33333333333331</ele><time>2026-04-25T06:42:14.232Z</time></trkpt><trkpt lat="45.6922117" lon="9.53705"><ele>234.0</ele><time>2026-04-25T06:42:15.227Z</time></trkpt><trkpt lat="45.6923683" lon="9.537035"><ele>233.66666666666669</ele><time>2026-04-25T06:42:16.227Z</time></trkpt><trkpt lat="45.6925267" lon="9.53703"><ele>233.33333333333334</ele><time>2026-04-25T06:42:17.227Z</time></trkpt><trkpt lat="45.6926883" lon="9.537025"><ele>233.0</ele><time>2026-04-25T06:42:18.227Z</time></trkpt><trkpt lat="45.6928533" lon="9.5370233"><ele>233.0</ele><time>2026-04-25T06:42:19.228Z</time></trkpt><trkpt lat="45.6930167" lon="9.53702"><ele>233.0</ele><time>2026-04-25T06:42:20.229Z</time></trkpt><trkpt lat="45.6931617" lon="9.537015"><ele>233.0</ele><time>2026-04-25T06:42:21.229Z</time></trkpt><trkpt lat="45.6932883" lon="9.5370117"><ele>233.0</ele><time>2026-04-25T06:42:22.229Z</time></trkpt><trkpt lat="45.6934083" lon="9.537005"><ele>233.0</ele><time>2026-04-25T06:42:23.228Z</time></trkpt><trkpt lat="45.6935267" lon="9.536995"><ele>233.0</ele><time>2026-04-25T06:42:24.228Z</time></trkpt><trkpt lat="45.69365" lon="9.536975"><ele>233.0</ele><time>2026-04-25T06:42:25.227Z</time></trkpt><trkpt lat="45.693775" lon="9.5369533"><ele>233.0</ele><time>2026-04-25T06:42:26.227Z</time></trkpt><trkpt lat="45.693905" lon="9.5369233"><ele>233.5</ele><time>2026-04-25T06:42:27.228Z</time></trkpt><trkpt lat="45.6940383" lon="9.5368883"><ele>234.0</ele><time>2026-04-25T06:42:28.227Z</time></trkpt><trkpt lat="45.6941767" lon="9.5368533"><ele>234.5</ele><time>2026-04-25T06:42:29.228Z</time></trkpt><trkpt lat="45.6943183" lon="9.536815"><ele>235.0</ele><time>2026-04-25T06:42:30.228Z</time></trkpt><trkpt lat="45.694455" lon="9.5367817"><ele>235.2</ele><time>2026-04-25T06:42:31.229Z</time></trkpt><trkpt lat="45.6945817" lon="9.5367483"><ele>235.4</ele><time>2026-04-25T06:42:32.228Z</time></trkpt><trkpt lat="45.6947017" lon="9.536715"><ele>235.60000000000002</ele><time>2026-04-25T06:42:33.227Z</time></trkpt><trkpt lat="45.6948017" lon="9.5366917"><ele>235.8</ele><time>2026-04-25T06:42:34.228Z</time></trkpt><trkpt lat="45.69487" lon="9.5366683"><ele>236.0</ele><time>2026-04-25T06:42:35.228Z</time></trkpt><trkpt lat="45.6949317" lon="9.5366417"><ele>236.0</ele><time>2026-04-25T06:42:37.228Z</time></trkpt><trkpt lat="45.6951283" lon="9.5366017"><ele>236.0</ele><time>2026-04-25T06:43:04.228Z</time></trkpt><trkpt lat="45.695195" lon="9.5365767"><ele>236.0</ele><time>2026-04-25T06:43:05.227Z</time></trkpt><trkpt lat="45.695285" lon="9.5365917"><ele>236.0</ele><time>2026-04-25T06:43:07.229Z</time></trkpt><trkpt lat="45.69531" lon="9.53674"><ele>236.4</ele><time>2026-04-25T06:43:09.23Z</time></trkpt><trkpt lat="45.6953117" lon="9.536865"><ele>236.8</ele><time>2026-04-25T06:43:10.229Z</time></trkpt><trkpt lat="45.6953117" lon="9.5370117"><ele>237.20000000000002</ele><time>2026-04-25T06:43:11.227Z</time></trkpt><trkpt lat="45.6953183" lon="9.5371633"><ele>237.60000000000002</ele><time>2026-04-25T06:43:12.227Z</time></trkpt><trkpt lat="45.6953267" lon="9.5373033"><ele>238.0</ele><time>2026-04-25T06:43:13.227Z</time></trkpt><trkpt lat="45.695335" lon="9.5374283"><ele>238.0</ele><time>2026-04-25T06:43:14.228Z</time></trkpt><trkpt lat="45.695345" lon="9.5375633"><ele>238.0</ele><time>2026-04-25T06:43:15.227Z</time></trkpt><trkpt lat="45.6953533" lon="9.537725"><ele>238.0</ele><time>2026-04-25T06:43:16.229Z</time></trkpt><trkpt lat="45.6953617" lon="9.53791"><ele>238.0</ele><time>2026-04-25T06:43:17.227Z</time></trkpt><trkpt lat="45.6953717" lon="9.5381133"><ele>238.0</ele><time>2026-04-25T06:43:18.23Z</time></trkpt><trkpt lat="45.6953783" lon="9.538335"><ele>238.0</ele><time>2026-04-25T06:43:19.228Z</time></trkpt><trkpt lat="45.69539" lon="9.5385667"><ele>238.0</ele><time>2026-04-25T06:43:20.228Z</time></trkpt><trkpt lat="45.6954017" lon="9.5387883"><ele>237.75</ele><time>2026-04-25T06:43:21.227Z</time></trkpt><trkpt lat="45.695415" lon="9.538995"><ele>237.5</ele><time>2026-04-25T06:43:22.228Z</time></trkpt><trkpt lat="45.6954283" lon="9.5392033"><ele>237.25</ele><time>2026-04-25T06:43:23.228Z</time></trkpt><trkpt lat="45.69544" lon="9.539405"><ele>237.0</ele><time>2026-04-25T06:43:24.228Z</time></trkpt><trkpt lat="45.6954517" lon="9.5395933"><ele>236.8</ele><time>2026-04-25T06:43:25.227Z</time></trkpt><trkpt lat="45.6954617" lon="9.5397667"><ele>236.6</ele><time>2026-04-25T06:43:26.228Z</time></trkpt><trkpt lat="45.6954683" lon="9.53992"><ele>236.40000000000003</ele><time>2026-04-25T06:43:27.228Z</time></trkpt><trkpt lat="45.6954733" lon="9.5400483"><ele>236.20000000000002</ele><time>2026-04-25T06:43:28.227Z</time></trkpt><trkpt lat="45.6954767" lon="9.5401517"><ele>236.0</ele><time>2026-04-25T06:43:29.229Z</time></trkpt><trkpt lat="45.6954783" lon="9.5403167"><ele>236.00000000000003</ele><time>2026-04-25T06:43:31.228Z</time></trkpt><trkpt lat="45.6954317" lon="9.5404033"><ele>236.0</ele><time>2026-04-25T06:43:33.227Z</time></trkpt><trkpt lat="45.6953583" lon="9.5404017"><ele>236.0</ele><time>2026-04-25T06:43:35.228Z</time></trkpt><trkpt lat="45.695425" lon="9.5404017"><ele>236.0</ele><time>2026-04-25T07:06:07.228Z</time></trkpt><trkpt lat="45.6954933" lon="9.54031"><ele>236.00000000000003</ele><time>2026-04-25T07:06:09.228Z</time></trkpt><trkpt lat="45.6955033" lon="9.5401267"><ele>236.0</ele><time>2026-04-25T07:06:11.229Z</time></trkpt><trkpt lat="45.6954933" lon="9.5400083"><ele>236.00000000000003</ele><time>2026-04-25T07:06:12.229Z</time></trkpt><trkpt lat="45.6954833" lon="9.53988"><ele>236.0</ele><time>2026-04-25T07:06:13.229Z</time></trkpt><trkpt lat="45.6954733" lon="9.5397533"><ele>236.0</ele><time>2026-04-25T07:06:14.228Z</time></trkpt><trkpt lat="45.6954617" lon="9.5396333"><ele>236.0</ele><time>2026-04-25T07:06:15.228Z</time></trkpt><trkpt lat="45.6954533" lon="9.53952"><ele>236.00000000000003</ele><time>2026-04-25T07:06:16.228Z</time></trkpt><trkpt lat="45.6954433" lon="9.539405"><ele>236.0</ele><time>2026-04-25T07:06:17.23Z</time></trkpt><trkpt lat="45.6954383" lon="9.53929"><ele>236.16666666666669</ele><time>2026-04-25T07:06:18.231Z</time></trkpt><trkpt lat="45.6954317" lon="9.5391733"><ele>236.33333333333334</ele><time>2026-04-25T07:06:19.229Z</time></trkpt><trkpt lat="45.6954283" lon="9.5390533"><ele>236.5</ele><time>2026-04-25T07:06:20.228Z</time></trkpt><trkpt lat="45.6954283" lon="9.5389383"><ele>236.66666666666669</ele><time>2026-04-25T07:06:21.229Z</time></trkpt><trkpt lat="45.6954417" lon="9.5388317"><ele>236.83333333333334</ele><time>2026-04-25T07:06:22.23Z</time></trkpt><trkpt lat="45.6954617" lon="9.5387417"><ele>237.0</ele><time>2026-04-25T07:06:23.229Z</time></trkpt><trkpt lat="45.6954967" lon="9.538665"><ele>237.2</ele><time>2026-04-25T07:06:24.229Z</time></trkpt><trkpt lat="45.695615" lon="9.5385817"><ele>237.39999999999998</ele><time>2026-04-25T07:06:26.228Z</time></trkpt><trkpt lat="45.6956967" lon="9.53857"><ele>237.60000000000002</ele><time>2026-04-25T07:06:27.228Z</time></trkpt><trkpt lat="45.6957867" lon="9.5385517"><ele>237.8</ele><time>2026-04-25T07:06:28.229Z</time></trkpt><trkpt lat="45.6958833" lon="9.538535"><ele>238.0</ele><time>2026-04-25T07:06:29.227Z</time></trkpt><trkpt lat="45.6959867" lon="9.5385117"><ele>237.8</ele><time>2026-04-25T07:06:30.229Z</time></trkpt><trkpt lat="45.6960917" lon="9.5384867"><ele>237.60000000000002</ele><time>2026-04-25T07:06:31.23Z</time></trkpt><trkpt lat="45.696195" lon="9.5384617"><ele>237.39999999999998</ele><time>2026-04-25T07:06:32.228Z</time></trkpt><trkpt lat="45.696305" lon="9.538435"><ele>237.2</ele><time>2026-04-25T07:06:33.229Z</time></trkpt><trkpt lat="45.6964183" lon="9.5384083"><ele>237.0</ele><time>2026-04-25T07:06:34.228Z</time></trkpt><trkpt lat="45.6965317" lon="9.538385"><ele>237.0</ele><time>2026-04-25T07:06:35.229Z</time></trkpt><trkpt lat="45.696645" lon="9.53836"><ele>237.0</ele><time>2026-04-25T07:06:36.229Z</time></trkpt><trkpt lat="45.6967517" lon="9.53833"><ele>237.0</ele><time>2026-04-25T07:06:37.229Z</time></trkpt><trkpt lat="45.6968533" lon="9.538305"><ele>237.0</ele><time>2026-04-25T07:06:38.23Z</time></trkpt><trkpt lat="45.69694" lon="9.53828"><ele>237.0</ele><time>2026-04-25T07:06:39.228Z</time></trkpt><trkpt lat="45.6970033" lon="9.53826"><ele>237.33333333333334</ele><time>2026-04-25T07:06:40.228Z</time></trkpt><trkpt lat="45.6970783" lon="9.538245"><ele>237.66666666666669</ele><time>2026-04-25T07:06:42.232Z</time></trkpt><trkpt lat="45.6971483" lon="9.5382667"><ele>238.0</ele><time>2026-04-25T07:07:07.228Z</time></trkpt><trkpt lat="45.6971933" lon="9.5383967"><ele>238.33333333333334</ele><time>2026-04-25T07:07:09.228Z</time></trkpt><trkpt lat="45.6972117" lon="9.5384833"><ele>238.66666666666669</ele><time>2026-04-25T07:07:10.23Z</time></trkpt><trkpt lat="45.6972317" lon="9.5385883"><ele>239.0</ele><time>2026-04-25T07:07:11.231Z</time></trkpt><trkpt lat="45.697245" lon="9.5387233"><ele>239.6</ele><time>2026-04-25T07:07:12.228Z</time></trkpt><trkpt lat="45.697255" lon="9.5388783"><ele>240.2</ele><time>2026-04-25T07:07:13.229Z</time></trkpt><trkpt lat="45.6972733" lon="9.539035"><ele>240.79999999999998</ele><time>2026-04-25T07:07:14.228Z</time></trkpt><trkpt lat="45.69729" lon="9.5391967"><ele>241.39999999999998</ele><time>2026-04-25T07:07:15.229Z</time></trkpt><trkpt lat="45.6973033" lon="9.53936"><ele>242.0</ele><time>2026-04-25T07:07:16.229Z</time></trkpt><trkpt lat="45.6973167" lon="9.539525"><ele>242.0</ele><time>2026-04-25T07:07:17.229Z</time></trkpt><trkpt lat="45.6973333" lon="9.5396883"><ele>242.0</ele><time>2026-04-25T07:07:18.23Z</time></trkpt><trkpt lat="45.69735" lon="9.5398533"><ele>242.0</ele><time>2026-04-25T07:07:19.228Z</time></trkpt><trkpt lat="45.697365" lon="9.540015"><ele>242.0</ele><time>2026-04-25T07:07:20.229Z</time></trkpt><trkpt lat="45.6973833" lon="9.5401733"><ele>242.0</ele><time>2026-04-25T07:07:21.228Z</time></trkpt><trkpt lat="45.6974017" lon="9.5403367"><ele>242.0</ele><time>2026-04-25T07:07:22.228Z</time></trkpt><trkpt lat="45.69742" lon="9.5405033"><ele>242.0</ele><time>2026-04-25T07:07:23.228Z</time></trkpt><trkpt lat="45.6974383" lon="9.5406733"><ele>242.0</ele><time>2026-04-25T07:07:24.229Z</time></trkpt><trkpt lat="45.6974583" lon="9.5408483"><ele>242.0</ele><time>2026-04-25T07:07:25.229Z</time></trkpt><trkpt lat="45.6974767" lon="9.5410217"><ele>242.0</ele><time>2026-04-25T07:07:26.227Z</time></trkpt><trkpt lat="45.6974933" lon="9.5411883"><ele>242.0</ele><time>2026-04-25T07:07:27.228Z</time></trkpt><trkpt lat="45.69751" lon="9.541335"><ele>242.0</ele><time>2026-04-25T07:07:28.227Z</time></trkpt><trkpt lat="45.697525" lon="9.5414617"><ele>242.0</ele><time>2026-04-25T07:07:29.232Z</time></trkpt><trkpt lat="45.69754" lon="9.5415733"><ele>241.50000000000003</ele><time>2026-04-25T07:07:30.23Z</time></trkpt><trkpt lat="45.6975533" lon="9.541675"><ele>241.0</ele><time>2026-04-25T07:07:31.231Z</time></trkpt><trkpt lat="45.6975667" lon="9.5417667"><ele>240.5</ele><time>2026-04-25T07:07:32.23Z</time></trkpt><trkpt lat="45.697595" lon="9.541935"><ele>240.0</ele><time>2026-04-25T07:07:34.23Z</time></trkpt><trkpt lat="45.6976333" lon="9.54209"><ele>239.50000000000003</ele><time>2026-04-25T07:07:36.231Z</time></trkpt><trkpt lat="45.6976633" lon="9.5421783"><ele>239.0</ele><time>2026-04-25T07:07:37.23Z</time></trkpt><trkpt lat="45.6976983" lon="9.542275"><ele>239.00000000000003</ele><time>2026-04-25T07:07:38.231Z</time></trkpt><trkpt lat="45.6977317" lon="9.5423717"><ele>239.0</ele><time>2026-04-25T07:07:39.23Z</time></trkpt><trkpt lat="45.6977633" lon="9.542465"><ele>239.0</ele><time>2026-04-25T07:07:40.23Z</time></trkpt><trkpt lat="45.6977917" lon="9.542555"><ele>239.0</ele><time>2026-04-25T07:07:41.23Z</time></trkpt><trkpt lat="45.6978183" lon="9.5426383"><ele>239.00000000000003</ele><time>2026-04-25T07:07:42.228Z</time></trkpt><trkpt lat="45.6978733" lon="9.5427833"><ele>239.0</ele><time>2026-04-25T07:07:44.228Z</time></trkpt><trkpt lat="45.6979033" lon="9.5428633"><ele>239.00000000000003</ele><time>2026-04-25T07:07:45.229Z</time></trkpt><trkpt lat="45.697935" lon="9.5429517"><ele>239.0</ele><time>2026-04-25T07:07:46.228Z</time></trkpt><trkpt lat="45.6979683" lon="9.54304"><ele>239.0</ele><time>2026-04-25T07:07:47.228Z</time></trkpt><trkpt lat="45.6979967" lon="9.5431217"><ele>239.0</ele><time>2026-04-25T07:07:48.23Z</time></trkpt><trkpt lat="45.6980517" lon="9.5432683"><ele>239.00000000000003</ele><time>2026-04-25T07:07:50.227Z</time></trkpt><trkpt lat="45.6981" lon="9.5433967"><ele>239.0</ele><time>2026-04-25T07:07:52.229Z</time></trkpt><trkpt lat="45.6981367" lon="9.543525"><ele>239.00000000000003</ele><time>2026-04-25T07:07:54.231Z</time></trkpt><trkpt lat="45.6981783" lon="9.5436767"><ele>239.0</ele><time>2026-04-25T07:07:56.232Z</time></trkpt><trkpt lat="45.6981967" lon="9.5437633"><ele>239.0</ele><time>2026-04-25T07:07:57.229Z</time></trkpt><trkpt lat="45.6982117" lon="9.54386"><ele>239.0</ele><time>2026-04-25T07:07:58.231Z</time></trkpt><trkpt lat="45.698225" lon="9.5439633"><ele>239.00000000000003</ele><time>2026-04-25T07:07:59.228Z</time></trkpt><trkpt lat="45.6982383" lon="9.5440667"><ele>239.0</ele><time>2026-04-25T07:08:00.231Z</time></trkpt><trkpt lat="45.6982517" lon="9.544165"><ele>239.00000000000003</ele><time>2026-04-25T07:08:01.229Z</time></trkpt><trkpt lat="45.6982633" lon="9.544255"><ele>239.0</ele><time>2026-04-25T07:08:02.229Z</time></trkpt><trkpt lat="45.6982767" lon="9.5443467"><ele>239.00000000000003</ele><time>2026-04-25T07:08:03.228Z</time></trkpt><trkpt lat="45.6982917" lon="9.5444433"><ele>239.00000000000003</ele><time>2026-04-25T07:08:04.229Z</time></trkpt><trkpt lat="45.698305" lon="9.5445417"><ele>239.0</ele><time>2026-04-25T07:08:05.23Z</time></trkpt><trkpt lat="45.6983183" lon="9.5446383"><ele>239.00000000000003</ele><time>2026-04-25T07:08:06.23Z</time></trkpt><trkpt lat="45.6983333" lon="9.544745"><ele>239.00000000000003</ele><time>2026-04-25T07:08:07.229Z</time></trkpt><trkpt lat="45.6983467" lon="9.54485"><ele>239.00000000000003</ele><time>2026-04-25T07:08:08.228Z</time></trkpt><trkpt lat="45.6983583" lon="9.544945"><ele>239.0</ele><time>2026-04-25T07:08:09.228Z</time></trkpt><trkpt lat="45.6983767" lon="9.545115"><ele>239.0</ele><time>2026-04-25T07:08:11.228Z</time></trkpt><trkpt lat="45.69839" lon="9.5452483"><ele>239.0</ele><time>2026-04-25T07:08:13.227Z</time></trkpt><trkpt lat="45.6983983" lon="9.5453433"><ele>239.00000000000003</ele><time>2026-04-25T07:08:15.23Z</time></trkpt><trkpt lat="45.6984533" lon="9.5454183"><ele>239.0</ele><time>2026-04-25T07:08:18.227Z</time></trkpt><trkpt lat="45.69853" lon="9.545415"><ele>239.00000000000003</ele><time>2026-04-25T07:08:21.228Z</time></trkpt><trkpt lat="45.6985917" lon="9.545395"><ele>239.0</ele><time>2026-04-25T07:08:23.227Z</time></trkpt><trkpt lat="45.6986767" lon="9.5453633"><ele>239.0</ele><time>2026-04-25T07:08:25.23Z</time></trkpt><trkpt lat="45.69879" lon="9.5453267"><ele>239.0</ele><time>2026-04-25T07:08:27.231Z</time></trkpt><trkpt lat="45.6988533" lon="9.54531"><ele>239.00000000000003</ele><time>2026-04-25T07:08:28.23Z</time></trkpt><trkpt lat="45.69892" lon="9.545295"><ele>239.0</ele><time>2026-04-25T07:08:29.227Z</time></trkpt><trkpt lat="45.69899" lon="9.5452767"><ele>239.0</ele><time>2026-04-25T07:08:30.227Z</time></trkpt><trkpt lat="45.6990617" lon="9.54526"><ele>238.99999999999997</ele><time>2026-04-25T07:08:31.227Z</time></trkpt><trkpt lat="45.6991333" lon="9.545245"><ele>238.99999999999997</ele><time>2026-04-25T07:08:32.227Z</time></trkpt><trkpt lat="45.6992433" lon="9.5452183"><ele>239.0</ele><time>2026-04-25T07:08:34.227Z</time></trkpt><trkpt lat="45.6993333" lon="9.5451883"><ele>239.0</ele><time>2026-04-25T07:08:36.227Z</time></trkpt><trkpt lat="45.69944" lon="9.5451533"><ele>239.16666666666669</ele><time>2026-04-25T07:08:38.226Z</time></trkpt><trkpt lat="45.6995067" lon="9.545135"><ele>239.33333333333334</ele><time>2026-04-25T07:08:39.229Z</time></trkpt><trkpt lat="45.6996233" lon="9.5451"><ele>239.5</ele><time>2026-04-25T07:08:41.228Z</time></trkpt><trkpt lat="45.6997183" lon="9.5450733"><ele>239.66666666666669</ele><time>2026-04-25T07:08:43.227Z</time></trkpt><trkpt lat="45.6997933" lon="9.5450617"><ele>239.83333333333334</ele><time>2026-04-25T07:08:45.229Z</time></trkpt><trkpt lat="45.6998725" lon="9.545087"><ele>240.0</ele><time>2026-04-25T07:08:48.228Z</time></trkpt><trkpt lat="45.6998935" lon="9.5452539"><ele>240.0</ele><time>2026-04-25T07:08:52.285Z</time></trkpt><trkpt lat="45.6999056" lon="9.5453491"><ele>240.0</ele><time>2026-04-25T07:08:53.228Z</time></trkpt><trkpt lat="45.699936" lon="9.5455013"><ele>240.0</ele><time>2026-04-25T07:08:55.228Z</time></trkpt><trkpt lat="45.6999539" lon="9.5456254"><ele>240.0</ele><time>2026-04-25T07:08:57.227Z</time></trkpt><trkpt lat="45.6999756" lon="9.5457504"><ele>240.0</ele><time>2026-04-25T07:08:59.228Z</time></trkpt><trkpt lat="45.6999961" lon="9.5458773"><ele>240.0</ele><time>2026-04-25T07:09:01.228Z</time></trkpt><trkpt lat="45.7000227" lon="9.5459909"><ele>240.0</ele><time>2026-04-25T07:09:04.249Z</time></trkpt><trkpt lat="45.7000628" lon="9.5461234"><ele>240.0</ele><time>2026-04-25T07:09:06.357Z</time></trkpt><trkpt lat="45.7001116" lon="9.546214"><ele>240.0</ele><time>2026-04-25T07:09:09.206Z</time></trkpt><trkpt lat="45.7001765" lon="9.5462671"><ele>240.0</ele><time>2026-04-25T07:09:12.323Z</time></trkpt><trkpt lat="45.7002355" lon="9.5462121"><ele>240.0</ele><time>2026-04-25T07:09:14.312Z</time></trkpt><trkpt lat="45.7002823" lon="9.5461421"><ele>240.0</ele><time>2026-04-25T07:09:16.324Z</time></trkpt><trkpt lat="45.7003463" lon="9.5460967"><ele>240.0</ele><time>2026-04-25T07:09:19.227Z</time></trkpt><trkpt lat="45.7004211" lon="9.5460719"><ele>240.0</ele><time>2026-04-25T07:09:22.27Z</time></trkpt><trkpt lat="45.7005007" lon="9.5460501"><ele>240.0</ele><time>2026-04-25T07:09:24.258Z</time></trkpt><trkpt lat="45.700591" lon="9.5460187"><ele>240.0</ele><time>2026-04-25T07:09:26.248Z</time></trkpt><trkpt lat="45.7006793" lon="9.5459661"><ele>240.0</ele><time>2026-04-25T07:09:28.228Z</time></trkpt><trkpt lat="45.7007623" lon="9.5459099"><ele>240.0</ele><time>2026-04-25T07:09:30.228Z</time></trkpt><trkpt lat="45.7008428" lon="9.545866"><ele>240.0</ele><time>2026-04-25T07:09:32.227Z</time></trkpt><trkpt lat="45.7009358" lon="9.5458178"><ele>240.0</ele><time>2026-04-25T07:09:34.227Z</time></trkpt><trkpt lat="45.7010335" lon="9.5457694"><ele>240.0</ele><time>2026-04-25T07:09:36.229Z</time></trkpt><trkpt lat="45.7011264" lon="9.5457247"><ele>240.0</ele><time>2026-04-25T07:09:38.227Z</time></trkpt><trkpt lat="45.7012312" lon="9.5456735"><ele>240.0</ele><time>2026-04-25T07:09:40.228Z</time></trkpt><trkpt lat="45.7013366" lon="9.545618"><ele>240.33333333333334</ele><time>2026-04-25T07:09:42.228Z</time></trkpt><trkpt lat="45.7014436" lon="9.545571"><ele>240.66666666666669</ele><time>2026-04-25T07:09:44.227Z</time></trkpt><trkpt lat="45.7015343" lon="9.5455268"><ele>241.0</ele><time>2026-04-25T07:09:46.228Z</time></trkpt><trkpt lat="45.7016073" lon="9.5454886"><ele>241.33333333333334</ele><time>2026-04-25T07:09:48.227Z</time></trkpt><trkpt lat="45.7016721" lon="9.5454627"><ele>241.66666666666669</ele><time>2026-04-25T07:09:50.228Z</time></trkpt><trkpt lat="45.7017421" lon="9.5454668"><ele>242.0</ele><time>2026-04-25T07:09:52.228Z</time></trkpt><trkpt lat="45.7018088" lon="9.5454744"><ele>242.0</ele><time>2026-04-25T07:09:55.227Z</time></trkpt><trkpt lat="45.701913" lon="9.5454908"><ele>242.0</ele><time>2026-04-25T07:10:07.227Z</time></trkpt><trkpt lat="45.7019948" lon="9.5454873"><ele>242.0</ele><time>2026-04-25T07:10:08.228Z</time></trkpt><trkpt lat="45.70209" lon="9.5454746"><ele>242.0</ele><time>2026-04-25T07:10:09.227Z</time></trkpt><trkpt lat="45.7022025" lon="9.5454527"><ele>242.0</ele><time>2026-04-25T07:10:10.227Z</time></trkpt><trkpt lat="45.7023202" lon="9.5454225"><ele>242.25</ele><time>2026-04-25T07:10:11.227Z</time></trkpt><trkpt lat="45.7024387" lon="9.5453841"><ele>242.5</ele><time>2026-04-25T07:10:12.227Z</time></trkpt><trkpt lat="45.7025566" lon="9.5453445"><ele>242.75</ele><time>2026-04-25T07:10:13.228Z</time></trkpt><trkpt lat="45.7026752" lon="9.5453104"><ele>243.0</ele><time>2026-04-25T07:10:14.228Z</time></trkpt><trkpt lat="45.7027983" lon="9.5452769"><ele>243.75</ele><time>2026-04-25T07:10:15.229Z</time></trkpt><trkpt lat="45.7029294" lon="9.5452365"><ele>244.5</ele><time>2026-04-25T07:10:16.227Z</time></trkpt><trkpt lat="45.7030675" lon="9.54519"><ele>245.25</ele><time>2026-04-25T07:10:17.228Z</time></trkpt><trkpt lat="45.7032079" lon="9.5451447"><ele>246.0</ele><time>2026-04-25T07:10:18.229Z</time></trkpt><trkpt lat="45.7033446" lon="9.5451004"><ele>246.0</ele><time>2026-04-25T07:10:19.228Z</time></trkpt><trkpt lat="45.7034812" lon="9.5450468"><ele>246.0</ele><time>2026-04-25T07:10:20.23Z</time></trkpt><trkpt lat="45.703612" lon="9.5449878"><ele>246.0</ele><time>2026-04-25T07:10:21.229Z</time></trkpt><trkpt lat="45.7037358" lon="9.54493"><ele>246.0</ele><time>2026-04-25T07:10:22.228Z</time></trkpt><trkpt lat="45.7038499" lon="9.5448756"><ele>246.60000000000002</ele><time>2026-04-25T07:10:23.23Z</time></trkpt><trkpt lat="45.7039538" lon="9.544824"><ele>247.20000000000002</ele><time>2026-04-25T07:10:24.227Z</time></trkpt><trkpt lat="45.7040503" lon="9.5447748"><ele>247.79999999999998</ele><time>2026-04-25T07:10:25.227Z</time></trkpt><trkpt lat="45.70414" lon="9.5447268"><ele>248.39999999999998</ele><time>2026-04-25T07:10:26.227Z</time></trkpt><trkpt lat="45.7042234" lon="9.5446833"><ele>249.0</ele><time>2026-04-25T07:10:27.229Z</time></trkpt><trkpt lat="45.7043042" lon="9.5446492"><ele>249.0</ele><time>2026-04-25T07:10:28.228Z</time></trkpt><trkpt lat="45.7043838" lon="9.5446257"><ele>249.0</ele><time>2026-04-25T07:10:29.228Z</time></trkpt><trkpt lat="45.7044594" lon="9.5446216"><ele>249.0</ele><time>2026-04-25T07:10:30.228Z</time></trkpt><trkpt lat="45.7045357" lon="9.5446389"><ele>249.0</ele><time>2026-04-25T07:10:31.227Z</time></trkpt><trkpt lat="45.7046108" lon="9.5446633"><ele>249.0</ele><time>2026-04-25T07:10:32.229Z</time></trkpt><trkpt lat="45.7046828" lon="9.5446745"><ele>249.0</ele><time>2026-04-25T07:10:33.228Z</time></trkpt><trkpt lat="45.7047531" lon="9.5446597"><ele>248.83333333333334</ele><time>2026-04-25T07:10:34.229Z</time></trkpt><trkpt lat="45.7048211" lon="9.5446441"><ele>248.66666666666669</ele><time>2026-04-25T07:10:35.228Z</time></trkpt><trkpt lat="45.7048863" lon="9.5446541"><ele>248.5</ele><time>2026-04-25T07:10:36.229Z</time></trkpt><trkpt lat="45.704951" lon="9.5446992"><ele>248.33333333333334</ele><time>2026-04-25T07:10:37.227Z</time></trkpt><trkpt lat="45.7050263" lon="9.5447761"><ele>248.16666666666669</ele><time>2026-04-25T07:10:38.228Z</time></trkpt><trkpt lat="45.7051144" lon="9.5448709"><ele>248.0</ele><time>2026-04-25T07:10:39.229Z</time></trkpt><trkpt lat="45.7052148" lon="9.5449722"><ele>247.75</ele><time>2026-04-25T07:10:40.227Z</time></trkpt><trkpt lat="45.705325" lon="9.545081"><ele>247.5</ele><time>2026-04-25T07:10:41.229Z</time></trkpt><trkpt lat="45.7054392" lon="9.5451911"><ele>247.25</ele><time>2026-04-25T07:10:42.227Z</time></trkpt><trkpt lat="45.7055578" lon="9.5452996"><ele>247.0</ele><time>2026-04-25T07:10:43.227Z</time></trkpt><trkpt lat="45.7056758" lon="9.5454071"><ele>247.0</ele><time>2026-04-25T07:10:44.227Z</time></trkpt><trkpt lat="45.7057956" lon="9.5455082"><ele>247.0</ele><time>2026-04-25T07:10:45.228Z</time></trkpt><trkpt lat="45.7059161" lon="9.5455993"><ele>247.0</ele><time>2026-04-25T07:10:46.23Z</time></trkpt><trkpt lat="45.7060378" lon="9.5456859"><ele>247.0</ele><time>2026-04-25T07:10:47.227Z</time></trkpt><trkpt lat="45.7061628" lon="9.5457662"><ele>248.25</ele><time>2026-04-25T07:10:48.229Z</time></trkpt><trkpt lat="45.7062883" lon="9.5458399"><ele>249.5</ele><time>2026-04-25T07:10:49.23Z</time></trkpt><trkpt lat="45.706411" lon="9.5459072"><ele>250.75</ele><time>2026-04-25T07:10:50.229Z</time></trkpt><trkpt lat="45.7065327" lon="9.5459672"><ele>252.0</ele><time>2026-04-25T07:10:51.229Z</time></trkpt><trkpt lat="45.7066542" lon="9.5460183"><ele>252.0</ele><time>2026-04-25T07:10:52.229Z</time></trkpt><trkpt lat="45.7067758" lon="9.5460586"><ele>252.0</ele><time>2026-04-25T07:10:53.23Z</time></trkpt><trkpt lat="45.7069015" lon="9.5460773"><ele>252.0</ele><time>2026-04-25T07:10:54.23Z</time></trkpt><trkpt lat="45.707032" lon="9.5460797"><ele>252.0</ele><time>2026-04-25T07:10:55.228Z</time></trkpt><trkpt lat="45.707165" lon="9.5460794"><ele>252.5</ele><time>2026-04-25T07:10:56.228Z</time></trkpt><trkpt lat="45.7072957" lon="9.546084"><ele>253.0</ele><time>2026-04-25T07:10:57.227Z</time></trkpt><trkpt lat="45.7074245" lon="9.5461059"><ele>253.5</ele><time>2026-04-25T07:10:58.227Z</time></trkpt><trkpt lat="45.7075531" lon="9.5461455"><ele>254.0</ele><time>2026-04-25T07:10:59.229Z</time></trkpt><trkpt lat="45.707677" lon="9.5461872"><ele>254.39999999999998</ele><time>2026-04-25T07:11:00.229Z</time></trkpt><trkpt lat="45.7077934" lon="9.5462169"><ele>254.79999999999998</ele><time>2026-04-25T07:11:01.227Z</time></trkpt><trkpt lat="45.7078997" lon="9.5462221"><ele>255.20000000000002</ele><time>2026-04-25T07:11:02.228Z</time></trkpt><trkpt lat="45.7079982" lon="9.5462078"><ele>255.60000000000002</ele><time>2026-04-25T07:11:03.23Z</time></trkpt><trkpt lat="45.708085" lon="9.5461805"><ele>256.0</ele><time>2026-04-25T07:11:04.228Z</time></trkpt><trkpt lat="45.7081569" lon="9.5461531"><ele>256.0</ele><time>2026-04-25T07:11:05.229Z</time></trkpt><trkpt lat="45.7082589" lon="9.5461199"><ele>256.0</ele><time>2026-04-25T07:11:07.228Z</time></trkpt><trkpt lat="45.7083426" lon="9.5461583"><ele>256.0</ele><time>2026-04-25T07:11:09.229Z</time></trkpt><trkpt lat="45.7084117" lon="9.546305"><ele>256.0</ele><time>2026-04-25T07:11:11.227Z</time></trkpt><trkpt lat="45.708455" lon="9.54639"><ele>256.0</ele><time>2026-04-25T07:11:12.23Z</time></trkpt><trkpt lat="45.7084983" lon="9.5464883"><ele>255.99999999999997</ele><time>2026-04-25T07:11:13.229Z</time></trkpt><trkpt lat="45.7085417" lon="9.5465783"><ele>256.0</ele><time>2026-04-25T07:11:14.229Z</time></trkpt><trkpt lat="45.7085817" lon="9.5466683"><ele>256.0</ele><time>2026-04-25T07:11:15.229Z</time></trkpt><trkpt lat="45.7086183" lon="9.5467517"><ele>256.0</ele><time>2026-04-25T07:11:16.228Z</time></trkpt><trkpt lat="45.7086533" lon="9.5468333"><ele>255.99999999999997</ele><time>2026-04-25T07:11:17.228Z</time></trkpt><trkpt lat="45.7087117" lon="9.5469783"><ele>256.0</ele><time>2026-04-25T07:11:19.229Z</time></trkpt><trkpt lat="45.70877" lon="9.54711"><ele>256.3333333333333</ele><time>2026-04-25T07:11:21.228Z</time></trkpt><trkpt lat="45.708815" lon="9.5472033"><ele>256.66666666666663</ele><time>2026-04-25T07:11:23.229Z</time></trkpt><trkpt lat="45.708875" lon="9.5472333"><ele>257.0</ele><time>2026-04-25T07:11:25.228Z</time></trkpt><trkpt lat="45.7089933" lon="9.5471967"><ele>257.3333333333333</ele><time>2026-04-25T07:11:27.227Z</time></trkpt><trkpt lat="45.7090567" lon="9.5471583"><ele>257.6666666666667</ele><time>2026-04-25T07:11:28.227Z</time></trkpt><trkpt lat="45.7091217" lon="9.5471267"><ele>258.0</ele><time>2026-04-25T07:11:29.228Z</time></trkpt><trkpt lat="45.70919" lon="9.547085"><ele>257.99999999999994</ele><time>2026-04-25T07:11:30.228Z</time></trkpt><trkpt lat="45.70926" lon="9.5470467"><ele>258.0</ele><time>2026-04-25T07:11:31.227Z</time></trkpt><trkpt lat="45.7093283" lon="9.5470133"><ele>258.0</ele><time>2026-04-25T07:11:32.229Z</time></trkpt><trkpt lat="45.7093967" lon="9.54699"><ele>258.0</ele><time>2026-04-25T07:11:33.228Z</time></trkpt><trkpt lat="45.7094717" lon="9.5469817"><ele>258.0</ele><time>2026-04-25T07:11:34.228Z</time></trkpt><trkpt lat="45.709545" lon="9.546995"><ele>257.99999999999994</ele><time>2026-04-25T07:11:35.227Z</time></trkpt><trkpt lat="45.7096167" lon="9.5470133"><ele>258.0</ele><time>2026-04-25T07:11:36.229Z</time></trkpt><trkpt lat="45.7096883" lon="9.5470367"><ele>258.5</ele><time>2026-04-25T07:11:37.23Z</time></trkpt><trkpt lat="45.70975" lon="9.5470567"><ele>259.0</ele><time>2026-04-25T07:11:38.229Z</time></trkpt><trkpt lat="45.70981" lon="9.547145"><ele>259.5</ele><time>2026-04-25T07:11:40.229Z</time></trkpt><trkpt lat="45.7098083" lon="9.547305"><ele>260.0</ele><time>2026-04-25T07:11:42.228Z</time></trkpt><trkpt lat="45.70981" lon="9.5474033"><ele>260.5</ele><time>2026-04-25T07:11:43.229Z</time></trkpt><trkpt lat="45.70982" lon="9.5475017"><ele>261.0</ele><time>2026-04-25T07:11:44.228Z</time></trkpt><trkpt lat="45.70983" lon="9.5476033"><ele>261.0</ele><time>2026-04-25T07:11:45.227Z</time></trkpt><trkpt lat="45.7098417" lon="9.5476983"><ele>261.0</ele><time>2026-04-25T07:11:46.229Z</time></trkpt><trkpt lat="45.709865" lon="9.547785"><ele>261.0</ele><time>2026-04-25T07:11:47.229Z</time></trkpt><trkpt lat="45.7099" lon="9.5478783"><ele>261.0</ele><time>2026-04-25T07:11:48.228Z</time></trkpt><trkpt lat="45.7099383" lon="9.5479717"><ele>261.0</ele><time>2026-04-25T07:11:49.23Z</time></trkpt><trkpt lat="45.7099867" lon="9.5480583"><ele>261.0</ele><time>2026-04-25T07:11:50.23Z</time></trkpt><trkpt lat="45.7100367" lon="9.5481367"><ele>261.0</ele><time>2026-04-25T07:11:51.228Z</time></trkpt><trkpt lat="45.710085" lon="9.54821"><ele>261.2</ele><time>2026-04-25T07:11:52.227Z</time></trkpt><trkpt lat="45.710135" lon="9.54828"><ele>261.40000000000003</ele><time>2026-04-25T07:11:53.229Z</time></trkpt><trkpt lat="45.7101817" lon="9.5483533"><ele>261.6</ele><time>2026-04-25T07:11:54.23Z</time></trkpt><trkpt lat="45.710265" lon="9.5484717"><ele>261.8</ele><time>2026-04-25T07:11:56.228Z</time></trkpt><trkpt lat="45.710335" lon="9.548585"><ele>262.0</ele><time>2026-04-25T07:11:58.227Z</time></trkpt><trkpt lat="45.7104033" lon="9.54869"><ele>260.5</ele><time>2026-04-25T07:12:00.227Z</time></trkpt><trkpt lat="45.7104583" lon="9.5487683"><ele>259.0</ele><time>2026-04-25T07:12:02.228Z</time></trkpt><trkpt lat="45.7105367" lon="9.5488633"><ele>257.5</ele><time>2026-04-25T07:12:04.227Z</time></trkpt><trkpt lat="45.710595" lon="9.5489033"><ele>256.0</ele><time>2026-04-25T07:12:05.229Z</time></trkpt><trkpt lat="45.710665" lon="9.5489283"><ele>254.49999999999997</ele><time>2026-04-25T07:12:06.23Z</time></trkpt><trkpt lat="45.7107433" lon="9.5489383"><ele>253.0</ele><time>2026-04-25T07:12:07.229Z</time></trkpt><trkpt lat="45.71083" lon="9.5489117"><ele>253.0</ele><time>2026-04-25T07:12:08.228Z</time></trkpt><trkpt lat="45.7109233" lon="9.548855"><ele>253.0</ele><time>2026-04-25T07:12:09.23Z</time></trkpt><trkpt lat="45.7110283" lon="9.5487767"><ele>253.0</ele><time>2026-04-25T07:12:10.227Z</time></trkpt><trkpt lat="45.71114" lon="9.548695"><ele>253.0</ele><time>2026-04-25T07:12:11.227Z</time></trkpt><trkpt lat="45.7112667" lon="9.5486067"><ele>254.5</ele><time>2026-04-25T07:12:12.228Z</time></trkpt><trkpt lat="45.7113967" lon="9.548515"><ele>256.0</ele><time>2026-04-25T07:12:13.23Z</time></trkpt><trkpt lat="45.71152" lon="9.5484217"><ele>257.5</ele><time>2026-04-25T07:12:14.227Z</time></trkpt><trkpt lat="45.7116433" lon="9.548325"><ele>259.0</ele><time>2026-04-25T07:12:15.228Z</time></trkpt><trkpt lat="45.7117683" lon="9.5482367"><ele>259.0</ele><time>2026-04-25T07:12:16.228Z</time></trkpt><trkpt lat="45.7118783" lon="9.5481517"><ele>259.0</ele><time>2026-04-25T07:12:17.227Z</time></trkpt><trkpt lat="45.7119867" lon="9.5480733"><ele>259.0</ele><time>2026-04-25T07:12:18.229Z</time></trkpt><trkpt lat="45.7120917" lon="9.5479967"><ele>259.0</ele><time>2026-04-25T07:12:19.23Z</time></trkpt><trkpt lat="45.7122017" lon="9.5479283"><ele>259.25</ele><time>2026-04-25T07:12:20.23Z</time></trkpt><trkpt lat="45.712315" lon="9.5478683"><ele>259.5</ele><time>2026-04-25T07:12:21.229Z</time></trkpt><trkpt lat="45.7124333" lon="9.5478183"><ele>259.75</ele><time>2026-04-25T07:12:22.229Z</time></trkpt><trkpt lat="45.712555" lon="9.5477817"><ele>260.0</ele><time>2026-04-25T07:12:23.228Z</time></trkpt><trkpt lat="45.7126783" lon="9.54777"><ele>259.5</ele><time>2026-04-25T07:12:24.229Z</time></trkpt><trkpt lat="45.7128" lon="9.54779"><ele>259.0</ele><time>2026-04-25T07:12:25.229Z</time></trkpt><trkpt lat="45.7129233" lon="9.547825"><ele>258.5</ele><time>2026-04-25T07:12:26.228Z</time></trkpt><trkpt lat="45.713045" lon="9.54787"><ele>258.0</ele><time>2026-04-25T07:12:27.227Z</time></trkpt><trkpt lat="45.7131583" lon="9.5479183"><ele>257.25</ele><time>2026-04-25T07:12:28.228Z</time></trkpt><trkpt lat="45.7132683" lon="9.5479717"><ele>256.5</ele><time>2026-04-25T07:12:29.228Z</time></trkpt><trkpt lat="45.713375" lon="9.5480217"><ele>255.75</ele><time>2026-04-25T07:12:30.227Z</time></trkpt><trkpt lat="45.71349" lon="9.5480683"><ele>255.0</ele><time>2026-04-25T07:12:31.228Z</time></trkpt><trkpt lat="45.7136117" lon="9.54811"><ele>255.0</ele><time>2026-04-25T07:12:32.228Z</time></trkpt><trkpt lat="45.7137367" lon="9.5481417"><ele>255.0</ele><time>2026-04-25T07:12:33.227Z</time></trkpt><trkpt lat="45.7138667" lon="9.54817"><ele>255.0</ele><time>2026-04-25T07:12:34.227Z</time></trkpt><trkpt lat="45.7139983" lon="9.5482033"><ele>255.0</ele><time>2026-04-25T07:12:35.227Z</time></trkpt><trkpt lat="45.7141317" lon="9.5482333"><ele>255.0</ele><time>2026-04-25T07:12:36.227Z</time></trkpt><trkpt lat="45.7142667" lon="9.5482633"><ele>255.0</ele><time>2026-04-25T07:12:37.228Z</time></trkpt><trkpt lat="45.714405" lon="9.5482917"><ele>255.0</ele><time>2026-04-25T07:12:38.229Z</time></trkpt><trkpt lat="45.7145483" lon="9.5483183"><ele>255.0</ele><time>2026-04-25T07:12:39.228Z</time></trkpt><trkpt lat="45.71469" lon="9.5483417"><ele>255.75</ele><time>2026-04-25T07:12:40.227Z</time></trkpt><trkpt lat="45.714825" lon="9.5483617"><ele>256.5</ele><time>2026-04-25T07:12:41.228Z</time></trkpt><trkpt lat="45.7149533" lon="9.5483817"><ele>257.25</ele><time>2026-04-25T07:12:42.228Z</time></trkpt><trkpt lat="45.7150667" lon="9.548405"><ele>258.0</ele><time>2026-04-25T07:12:43.227Z</time></trkpt><trkpt lat="45.715165" lon="9.54846"><ele>258.0</ele><time>2026-04-25T07:12:44.228Z</time></trkpt><trkpt lat="45.7152583" lon="9.54855"><ele>258.0</ele><time>2026-04-25T07:12:45.228Z</time></trkpt><trkpt lat="45.7153517" lon="9.5486667"><ele>258.0</ele><time>2026-04-25T07:12:46.23Z</time></trkpt><trkpt lat="45.7154467" lon="9.5488017"><ele>258.0</ele><time>2026-04-25T07:12:47.228Z</time></trkpt><trkpt lat="45.715545" lon="9.54895"><ele>258.0</ele><time>2026-04-25T07:12:48.23Z</time></trkpt><trkpt lat="45.715645" lon="9.549105"><ele>258.0</ele><time>2026-04-25T07:12:49.231Z</time></trkpt><trkpt lat="45.71575" lon="9.5492633"><ele>258.0</ele><time>2026-04-25T07:12:50.23Z</time></trkpt><trkpt lat="45.7158483" lon="9.54941"><ele>258.0</ele><time>2026-04-25T07:12:51.229Z</time></trkpt><trkpt lat="45.7159317" lon="9.549535"><ele>258.2</ele><time>2026-04-25T07:12:52.23Z</time></trkpt><trkpt lat="45.71601" lon="9.54965"><ele>258.4</ele><time>2026-04-25T07:12:53.229Z</time></trkpt><trkpt lat="45.7160867" lon="9.549765"><ele>258.59999999999997</ele><time>2026-04-25T07:12:54.229Z</time></trkpt><trkpt lat="45.716165" lon="9.5498833"><ele>258.8</ele><time>2026-04-25T07:12:55.227Z</time></trkpt><trkpt lat="45.7162383" lon="9.549995"><ele>259.0</ele><time>2026-04-25T07:12:56.227Z</time></trkpt><trkpt lat="45.7162983" lon="9.5500883"><ele>259.0</ele><time>2026-04-25T07:12:57.228Z</time></trkpt><trkpt lat="45.7163517" lon="9.5501683"><ele>259.0</ele><time>2026-04-25T07:12:58.228Z</time></trkpt><trkpt lat="45.7164083" lon="9.5502267"><ele>259.0</ele><time>2026-04-25T07:12:59.227Z</time></trkpt><trkpt lat="45.7164733" lon="9.5502467"><ele>259.0</ele><time>2026-04-25T07:13:00.23Z</time></trkpt><trkpt lat="45.7165467" lon="9.5502367"><ele>259.0</ele><time>2026-04-25T07:13:01.23Z</time></trkpt><trkpt lat="45.7166317" lon="9.550205"><ele>259.0</ele><time>2026-04-25T07:13:02.227Z</time></trkpt><trkpt lat="45.716735" lon="9.5501517"><ele>259.0</ele><time>2026-04-25T07:13:03.23Z</time></trkpt><trkpt lat="45.7168483" lon="9.5500933"><ele>259.0</ele><time>2026-04-25T07:13:04.229Z</time></trkpt><trkpt lat="45.7169767" lon="9.5500417"><ele>259.0</ele><time>2026-04-25T07:13:05.228Z</time></trkpt><trkpt lat="45.717115" lon="9.5499933"><ele>259.0</ele><time>2026-04-25T07:13:06.228Z</time></trkpt><trkpt lat="45.7172617" lon="9.5499533"><ele>258.75</ele><time>2026-04-25T07:13:07.229Z</time></trkpt><trkpt lat="45.717405" lon="9.5499217"><ele>258.5</ele><time>2026-04-25T07:13:08.228Z</time></trkpt><trkpt lat="45.7175367" lon="9.5498967"><ele>258.25</ele><time>2026-04-25T07:13:09.229Z</time></trkpt><trkpt lat="45.717645" lon="9.5498767"><ele>258.0</ele><time>2026-04-25T07:13:10.227Z</time></trkpt><trkpt lat="45.71774" lon="9.549865"><ele>258.4</ele><time>2026-04-25T07:13:11.229Z</time></trkpt><trkpt lat="45.71783" lon="9.54985"><ele>258.8</ele><time>2026-04-25T07:13:12.228Z</time></trkpt><trkpt lat="45.7179183" lon="9.5498333"><ele>259.2</ele><time>2026-04-25T07:13:13.228Z</time></trkpt><trkpt lat="45.718" lon="9.5498133"><ele>259.6</ele><time>2026-04-25T07:13:14.229Z</time></trkpt><trkpt lat="45.7180717" lon="9.54979"><ele>260.0</ele><time>2026-04-25T07:13:15.229Z</time></trkpt><trkpt lat="45.718185" lon="9.5497633"><ele>260.0</ele><time>2026-04-25T07:13:17.228Z</time></trkpt><trkpt lat="45.7182833" lon="9.549755"><ele>260.0</ele><time>2026-04-25T07:13:19.227Z</time></trkpt><trkpt lat="45.718415" lon="9.54972"><ele>260.0</ele><time>2026-04-25T07:13:21.23Z</time></trkpt><trkpt lat="45.7184967" lon="9.5496933"><ele>260.0</ele><time>2026-04-25T07:13:22.228Z</time></trkpt><trkpt lat="45.718585" lon="9.5496617"><ele>260.0</ele><time>2026-04-25T07:13:23.23Z</time></trkpt><trkpt lat="45.71867" lon="9.5496317"><ele>260.6</ele><time>2026-04-25T07:13:24.229Z</time></trkpt><trkpt lat="45.7187567" lon="9.5495983"><ele>261.2</ele><time>2026-04-25T07:13:25.267Z</time></trkpt><trkpt lat="45.7188433" lon="9.54957"><ele>261.8</ele><time>2026-04-25T07:13:26.227Z</time></trkpt><trkpt lat="45.7189333" lon="9.5495383"><ele>262.4</ele><time>2026-04-25T07:13:27.229Z</time></trkpt><trkpt lat="45.7190283" lon="9.5495033"><ele>263.0</ele><time>2026-04-25T07:13:28.229Z</time></trkpt><trkpt lat="45.7191233" lon="9.54947"><ele>263.0</ele><time>2026-04-25T07:13:29.227Z</time></trkpt><trkpt lat="45.7192183" lon="9.549435"><ele>263.0</ele><time>2026-04-25T07:13:30.227Z</time></trkpt><trkpt lat="45.7193083" lon="9.5494017"><ele>263.0</ele><time>2026-04-25T07:13:31.228Z</time></trkpt><trkpt lat="45.7193967" lon="9.549375"><ele>263.0</ele><time>2026-04-25T07:13:32.228Z</time></trkpt><trkpt lat="45.7194833" lon="9.5493467"><ele>263.0</ele><time>2026-04-25T07:13:33.228Z</time></trkpt><trkpt lat="45.71957" lon="9.5493217"><ele>262.83333333333337</ele><time>2026-04-25T07:13:34.229Z</time></trkpt><trkpt lat="45.7196417" lon="9.5493"><ele>262.6666666666667</ele><time>2026-04-25T07:13:35.227Z</time></trkpt><trkpt lat="45.719715" lon="9.5492733"><ele>262.5</ele><time>2026-04-25T07:13:36.228Z</time></trkpt><trkpt lat="45.7197967" lon="9.5492433"><ele>262.3333333333333</ele><time>2026-04-25T07:13:37.228Z</time></trkpt><trkpt lat="45.7198817" lon="9.5492167"><ele>262.16666666666663</ele><time>2026-04-25T07:13:38.227Z</time></trkpt><trkpt lat="45.71997" lon="9.5491883"><ele>262.0</ele><time>2026-04-25T07:13:39.228Z</time></trkpt><trkpt lat="45.720055" lon="9.5491633"><ele>262.0</ele><time>2026-04-25T07:13:40.228Z</time></trkpt><trkpt lat="45.720135" lon="9.54914"><ele>262.0</ele><time>2026-04-25T07:13:41.23Z</time></trkpt><trkpt lat="45.7202033" lon="9.5491183"><ele>262.0</ele><time>2026-04-25T07:13:42.229Z</time></trkpt><trkpt lat="45.7202983" lon="9.5490933"><ele>262.0</ele><time>2026-04-25T07:13:44.227Z</time></trkpt><trkpt lat="45.72039" lon="9.54912"><ele>262.0</ele><time>2026-04-25T07:13:47.23Z</time></trkpt><trkpt lat="45.720465" lon="9.54928"><ele>262.4</ele><time>2026-04-25T07:13:49.227Z</time></trkpt><trkpt lat="45.7205383" lon="9.5494083"><ele>262.79999999999995</ele><time>2026-04-25T07:13:50.232Z</time></trkpt><trkpt lat="45.7206033" lon="9.5495233"><ele>263.2</ele><time>2026-04-25T07:13:51.228Z</time></trkpt><trkpt lat="45.7206683" lon="9.5496267"><ele>263.59999999999997</ele><time>2026-04-25T07:13:52.228Z</time></trkpt><trkpt lat="45.7207317" lon="9.54973"><ele>264.0</ele><time>2026-04-25T07:13:53.228Z</time></trkpt><trkpt lat="45.72081" lon="9.5498567"><ele>264.0</ele><time>2026-04-25T07:13:54.229Z</time></trkpt><trkpt lat="45.7209033" lon="9.5500017"><ele>264.0</ele><time>2026-04-25T07:13:55.227Z</time></trkpt><trkpt lat="45.7210117" lon="9.5501517"><ele>264.0</ele><time>2026-04-25T07:13:56.228Z</time></trkpt><trkpt lat="45.721125" lon="9.550295"><ele>264.0</ele><time>2026-04-25T07:13:57.228Z</time></trkpt><trkpt lat="45.7212267" lon="9.55042"><ele>264.4</ele><time>2026-04-25T07:13:58.228Z</time></trkpt><trkpt lat="45.7213133" lon="9.5505283"><ele>264.79999999999995</ele><time>2026-04-25T07:13:59.228Z</time></trkpt><trkpt lat="45.7213883" lon="9.5506317"><ele>265.20000000000005</ele><time>2026-04-25T07:14:00.227Z</time></trkpt><trkpt lat="45.7214567" lon="9.550735"><ele>265.6</ele><time>2026-04-25T07:14:01.229Z</time></trkpt><trkpt lat="45.7215233" lon="9.5508383"><ele>266.0</ele><time>2026-04-25T07:14:02.231Z</time></trkpt><trkpt lat="45.7215867" lon="9.5509367"><ele>266.0</ele><time>2026-04-25T07:14:03.228Z</time></trkpt><trkpt lat="45.7216467" lon="9.5510383"><ele>266.0</ele><time>2026-04-25T07:14:04.228Z</time></trkpt><trkpt lat="45.7217033" lon="9.551145"><ele>266.0</ele><time>2026-04-25T07:14:05.229Z</time></trkpt><trkpt lat="45.7217683" lon="9.551275"><ele>266.0</ele><time>2026-04-25T07:14:06.228Z</time></trkpt><trkpt lat="45.7218317" lon="9.5514017"><ele>266.0</ele><time>2026-04-25T07:14:07.228Z</time></trkpt><trkpt lat="45.721895" lon="9.55153"><ele>266.25</ele><time>2026-04-25T07:14:08.227Z</time></trkpt><trkpt lat="45.7219617" lon="9.55166"><ele>266.5</ele><time>2026-04-25T07:14:09.228Z</time></trkpt><trkpt lat="45.72203" lon="9.551795"><ele>266.75</ele><time>2026-04-25T07:14:10.228Z</time></trkpt><trkpt lat="45.7220983" lon="9.551935"><ele>267.0</ele><time>2026-04-25T07:14:11.228Z</time></trkpt><trkpt lat="45.7221667" lon="9.5520817"><ele>267.25</ele><time>2026-04-25T07:14:12.227Z</time></trkpt><trkpt lat="45.72223" lon="9.55224"><ele>267.5</ele><time>2026-04-25T07:14:13.227Z</time></trkpt><trkpt lat="45.72229" lon="9.5524033"><ele>267.75</ele><time>2026-04-25T07:14:14.227Z</time></trkpt><trkpt lat="45.7223533" lon="9.5525683"><ele>268.0</ele><time>2026-04-25T07:14:15.229Z</time></trkpt><trkpt lat="45.722425" lon="9.5527133"><ele>268.0</ele><time>2026-04-25T07:14:16.228Z</time></trkpt><trkpt lat="45.72252" lon="9.55284"><ele>268.0</ele><time>2026-04-25T07:14:17.227Z</time></trkpt><trkpt lat="45.7226283" lon="9.552945"><ele>268.0</ele><time>2026-04-25T07:14:18.227Z</time></trkpt><trkpt lat="45.7227433" lon="9.55304"><ele>268.0</ele><time>2026-04-25T07:14:19.238Z</time></trkpt><trkpt lat="45.7228517" lon="9.5531217"><ele>268.0</ele><time>2026-04-25T07:14:20.229Z</time></trkpt><trkpt lat="45.722945" lon="9.5531967"><ele>268.0</ele><time>2026-04-25T07:14:21.227Z</time></trkpt><trkpt lat="45.7230233" lon="9.5532733"><ele>268.0</ele><time>2026-04-25T07:14:22.227Z</time></trkpt><trkpt lat="45.72309" lon="9.5533533"><ele>268.0</ele><time>2026-04-25T07:14:23.227Z</time></trkpt><trkpt lat="45.7231467" lon="9.5534367"><ele>268.0</ele><time>2026-04-25T07:14:24.227Z</time></trkpt><trkpt lat="45.7231933" lon="9.553525"><ele>268.0</ele><time>2026-04-25T07:14:25.228Z</time></trkpt><trkpt lat="45.7232267" lon="9.553615"><ele>268.2</ele><time>2026-04-25T07:14:26.227Z</time></trkpt><trkpt lat="45.7232417" lon="9.5537467"><ele>268.4</ele><time>2026-04-25T07:14:28.227Z</time></trkpt><trkpt lat="45.7232133" lon="9.553845"><ele>268.59999999999997</ele><time>2026-04-25T07:14:38.229Z</time></trkpt><trkpt lat="45.723175" lon="9.5539367"><ele>268.8</ele><time>2026-04-25T07:14:41.229Z</time></trkpt><trkpt lat="45.7231167" lon="9.554045"><ele>269.0</ele><time>2026-04-25T07:14:42.23Z</time></trkpt><trkpt lat="45.7230317" lon="9.554175"><ele>269.0</ele><time>2026-04-25T07:14:43.23Z</time></trkpt><trkpt lat="45.72293" lon="9.5543167"><ele>269.0</ele><time>2026-04-25T07:14:44.229Z</time></trkpt><trkpt lat="45.72281" lon="9.55446"><ele>269.0</ele><time>2026-04-25T07:14:45.229Z</time></trkpt><trkpt lat="45.7226883" lon="9.55459"><ele>268.75</ele><time>2026-04-25T07:14:46.227Z</time></trkpt><trkpt lat="45.7225633" lon="9.55471"><ele>268.5</ele><time>2026-04-25T07:14:47.227Z</time></trkpt><trkpt lat="45.7224367" lon="9.55482"><ele>268.25</ele><time>2026-04-25T07:14:48.229Z</time></trkpt><trkpt lat="45.7223117" lon="9.554915"><ele>268.0</ele><time>2026-04-25T07:14:49.227Z</time></trkpt><trkpt lat="45.722185" lon="9.5549983"><ele>268.0</ele><time>2026-04-25T07:14:50.23Z</time></trkpt><trkpt lat="45.7220517" lon="9.5550733"><ele>268.0</ele><time>2026-04-25T07:14:51.228Z</time></trkpt><trkpt lat="45.7219117" lon="9.5551433"><ele>268.0</ele><time>2026-04-25T07:14:52.23Z</time></trkpt><trkpt lat="45.7217617" lon="9.55521"><ele>268.0</ele><time>2026-04-25T07:14:53.229Z</time></trkpt><trkpt lat="45.7216" lon="9.5552733"><ele>268.0</ele><time>2026-04-25T07:14:54.227Z</time></trkpt><trkpt lat="45.72144" lon="9.5553317"><ele>268.0</ele><time>2026-04-25T07:14:55.228Z</time></trkpt><trkpt lat="45.72128" lon="9.5553833"><ele>268.0</ele><time>2026-04-25T07:14:56.227Z</time></trkpt><trkpt lat="45.7211283" lon="9.5554317"><ele>267.25</ele><time>2026-04-25T07:14:57.228Z</time></trkpt><trkpt lat="45.7209883" lon="9.5554783"><ele>266.5</ele><time>2026-04-25T07:14:58.227Z</time></trkpt><trkpt lat="45.7208567" lon="9.5555233"><ele>265.75</ele><time>2026-04-25T07:14:59.228Z</time></trkpt><trkpt lat="45.7207333" lon="9.5555633"><ele>265.0</ele><time>2026-04-25T07:15:00.23Z</time></trkpt><trkpt lat="45.7206183" lon="9.5555983"><ele>265.0</ele><time>2026-04-25T07:15:01.228Z</time></trkpt><trkpt lat="45.7205067" lon="9.5556317"><ele>265.0</ele><time>2026-04-25T07:15:02.228Z</time></trkpt><trkpt lat="45.7203933" lon="9.5556667"><ele>265.0</ele><time>2026-04-25T07:15:03.227Z</time></trkpt><trkpt lat="45.7202717" lon="9.5557017"><ele>265.0</ele><time>2026-04-25T07:15:04.228Z</time></trkpt><trkpt lat="45.7201533" lon="9.5557283"><ele>265.4</ele><time>2026-04-25T07:15:05.228Z</time></trkpt><trkpt lat="45.72004" lon="9.5557467"><ele>265.8</ele><time>2026-04-25T07:15:06.227Z</time></trkpt><trkpt lat="45.7199367" lon="9.5557517"><ele>266.2</ele><time>2026-04-25T07:15:07.227Z</time></trkpt><trkpt lat="45.719855" lon="9.5557483"><ele>266.6</ele><time>2026-04-25T07:15:08.227Z</time></trkpt><trkpt lat="45.719745" lon="9.555705"><ele>267.0</ele><time>2026-04-25T07:15:10.228Z</time></trkpt><trkpt lat="45.7196817" lon="9.5556617"><ele>267.0</ele><time>2026-04-25T07:15:11.227Z</time></trkpt><trkpt lat="45.71961" lon="9.5556133"><ele>267.0</ele><time>2026-04-25T07:15:12.228Z</time></trkpt><trkpt lat="45.71954" lon="9.5555817"><ele>267.0</ele><time>2026-04-25T07:15:13.229Z</time></trkpt><trkpt lat="45.7194383" lon="9.5556567"><ele>267.0</ele><time>2026-04-25T07:15:15.229Z</time></trkpt><trkpt lat="45.7194033" lon="9.5557333"><ele>267.0</ele><time>2026-04-25T07:15:16.227Z</time></trkpt><trkpt lat="45.7194417" lon="9.555895"><ele>267.0</ele><time>2026-04-25T07:15:18.227Z</time></trkpt><trkpt lat="45.7195033" lon="9.555955"><ele>267.0</ele><time>2026-04-25T07:15:19.228Z</time></trkpt><trkpt lat="45.7195667" lon="9.5559867"><ele>267.0</ele><time>2026-04-25T07:15:20.228Z</time></trkpt><trkpt lat="45.7196467" lon="9.5559733"><ele>267.0</ele><time>2026-04-25T07:15:21.228Z</time></trkpt><trkpt lat="45.7197517" lon="9.5559217"><ele>267.0</ele><time>2026-04-25T07:15:22.23Z</time></trkpt><trkpt lat="45.7198783" lon="9.5558683"><ele>267.0</ele><time>2026-04-25T07:15:23.229Z</time></trkpt><trkpt lat="45.720015" lon="9.5558283"><ele>267.0</ele><time>2026-04-25T07:15:24.229Z</time></trkpt><trkpt lat="45.7201767" lon="9.5557817"><ele>267.0</ele><time>2026-04-25T07:15:25.229Z</time></trkpt><trkpt lat="45.72035" lon="9.5557283"><ele>266.3333333333333</ele><time>2026-04-25T07:15:26.229Z</time></trkpt><trkpt lat="45.7205367" lon="9.555675"><ele>265.66666666666663</ele><time>2026-04-25T07:15:27.23Z</time></trkpt><trkpt lat="45.72073" lon="9.5556233"><ele>265.0</ele><time>2026-04-25T07:15:28.229Z</time></trkpt><trkpt lat="45.7209117" lon="9.55557"><ele>266.0</ele><time>2026-04-25T07:15:29.228Z</time></trkpt><trkpt lat="45.721075" lon="9.5555217"><ele>267.0</ele><time>2026-04-25T07:15:30.228Z</time></trkpt><trkpt lat="45.721225" lon="9.5554733"><ele>268.0</ele><time>2026-04-25T07:15:31.227Z</time></trkpt><trkpt lat="45.7213617" lon="9.555425"><ele>268.0</ele><time>2026-04-25T07:15:32.228Z</time></trkpt><trkpt lat="45.7214933" lon="9.5553817"><ele>268.0</ele><time>2026-04-25T07:15:33.227Z</time></trkpt><trkpt lat="45.7216283" lon="9.5553317"><ele>268.0</ele><time>2026-04-25T07:15:34.228Z</time></trkpt><trkpt lat="45.7217633" lon="9.55528"><ele>268.0</ele><time>2026-04-25T07:15:35.23Z</time></trkpt><trkpt lat="45.7219" lon="9.55522"><ele>268.0</ele><time>2026-04-25T07:15:36.228Z</time></trkpt><trkpt lat="45.7220367" lon="9.5551533"><ele>268.0</ele><time>2026-04-25T07:15:37.228Z</time></trkpt><trkpt lat="45.7221717" lon="9.5550783"><ele>268.0</ele><time>2026-04-25T07:15:38.23Z</time></trkpt><trkpt lat="45.722305" lon="9.5549917"><ele>268.0</ele><time>2026-04-25T07:15:39.228Z</time></trkpt><trkpt lat="45.72243" lon="9.5549"><ele>268.0</ele><time>2026-04-25T07:15:40.229Z</time></trkpt><trkpt lat="45.7225533" lon="9.5548"><ele>268.0</ele><time>2026-04-25T07:15:41.227Z</time></trkpt><trkpt lat="45.72267" lon="9.5546933"><ele>268.0</ele><time>2026-04-25T07:15:42.228Z</time></trkpt><trkpt lat="45.7227817" lon="9.55458"><ele>268.0</ele><time>2026-04-25T07:15:43.23Z</time></trkpt><trkpt lat="45.7228883" lon="9.5544617"><ele>268.25</ele><time>2026-04-25T07:15:44.228Z</time></trkpt><trkpt lat="45.7229917" lon="9.5543383"><ele>268.5</ele><time>2026-04-25T07:15:45.227Z</time></trkpt><trkpt lat="45.723095" lon="9.5542133"><ele>268.75</ele><time>2026-04-25T07:15:46.229Z</time></trkpt><trkpt lat="45.7231917" lon="9.5540917"><ele>269.0</ele><time>2026-04-25T07:15:47.229Z</time></trkpt><trkpt lat="45.7232783" lon="9.55398"><ele>269.0</ele><time>2026-04-25T07:15:48.227Z</time></trkpt><trkpt lat="45.723365" lon="9.553865"><ele>269.0</ele><time>2026-04-25T07:15:49.23Z</time></trkpt><trkpt lat="45.7234583" lon="9.5537433"><ele>269.0</ele><time>2026-04-25T07:15:50.227Z</time></trkpt><trkpt lat="45.7235533" lon="9.5536133"><ele>269.0</ele><time>2026-04-25T07:15:51.229Z</time></trkpt><trkpt lat="45.7236483" lon="9.5534733"><ele>269.0</ele><time>2026-04-25T07:15:52.228Z</time></trkpt><trkpt lat="45.723745" lon="9.5533317"><ele>269.0</ele><time>2026-04-25T07:15:53.23Z</time></trkpt><trkpt lat="45.7238383" lon="9.5531983"><ele>269.0</ele><time>2026-04-25T07:15:54.228Z</time></trkpt><trkpt lat="45.7239283" lon="9.5530717"><ele>269.0</ele><time>2026-04-25T07:15:55.228Z</time></trkpt><trkpt lat="45.7240117" lon="9.5529533"><ele>268.75</ele><time>2026-04-25T07:15:56.23Z</time></trkpt><trkpt lat="45.724095" lon="9.55284"><ele>268.5</ele><time>2026-04-25T07:15:57.229Z</time></trkpt><trkpt lat="45.72418" lon="9.5527267"><ele>268.25</ele><time>2026-04-25T07:15:58.228Z</time></trkpt><trkpt lat="45.7242667" lon="9.5526183"><ele>268.0</ele><time>2026-04-25T07:15:59.227Z</time></trkpt><trkpt lat="45.7243533" lon="9.5525167"><ele>268.2</ele><time>2026-04-25T07:16:00.227Z</time></trkpt><trkpt lat="45.7244367" lon="9.5524267"><ele>268.4</ele><time>2026-04-25T07:16:01.228Z</time></trkpt><trkpt lat="45.7245217" lon="9.5523533"><ele>268.59999999999997</ele><time>2026-04-25T07:16:02.227Z</time></trkpt><trkpt lat="45.72461" lon="9.5522967"><ele>268.8</ele><time>2026-04-25T07:16:03.228Z</time></trkpt><trkpt lat="45.7247" lon="9.552255"><ele>269.0</ele><time>2026-04-25T07:16:04.227Z</time></trkpt><trkpt lat="45.7248" lon="9.5522267"><ele>269.0</ele><time>2026-04-25T07:16:05.229Z</time></trkpt><trkpt lat="45.7249117" lon="9.5522167"><ele>269.0</ele><time>2026-04-25T07:16:06.228Z</time></trkpt><trkpt lat="45.7250317" lon="9.5522333"><ele>269.0</ele><time>2026-04-25T07:16:07.228Z</time></trkpt><trkpt lat="45.7251617" lon="9.55228"><ele>269.0</ele><time>2026-04-25T07:16:08.228Z</time></trkpt><trkpt lat="45.725315" lon="9.552355"><ele>269.6666666666667</ele><time>2026-04-25T07:16:09.232Z</time></trkpt><trkpt lat="45.72547" lon="9.5524417"><ele>270.3333333333333</ele><time>2026-04-25T07:16:10.229Z</time></trkpt><trkpt lat="45.7256067" lon="9.5525333"><ele>271.0</ele><time>2026-04-25T07:16:11.231Z</time></trkpt><trkpt lat="45.72573" lon="9.552645"><ele>271.0</ele><time>2026-04-25T07:16:12.228Z</time></trkpt><trkpt lat="45.7258467" lon="9.552785"><ele>271.0</ele><time>2026-04-25T07:16:13.229Z</time></trkpt><trkpt lat="45.7259517" lon="9.5529483"><ele>271.0</ele><time>2026-04-25T07:16:14.229Z</time></trkpt><trkpt lat="45.72604" lon="9.5531317"><ele>271.0</ele><time>2026-04-25T07:16:15.229Z</time></trkpt><trkpt lat="45.7261183" lon="9.5533333"><ele>271.0</ele><time>2026-04-25T07:16:16.228Z</time></trkpt><trkpt lat="45.726195" lon="9.5535367"><ele>271.0</ele><time>2026-04-25T07:16:17.228Z</time></trkpt><trkpt lat="45.7262683" lon="9.553735"><ele>270.66666666666663</ele><time>2026-04-25T07:16:18.229Z</time></trkpt><trkpt lat="45.7263417" lon="9.5539233"><ele>270.3333333333333</ele><time>2026-04-25T07:16:19.229Z</time></trkpt><trkpt lat="45.7264167" lon="9.5541133"><ele>270.0</ele><time>2026-04-25T07:16:20.229Z</time></trkpt><trkpt lat="45.7265" lon="9.5542967"><ele>270.0</ele><time>2026-04-25T07:16:21.228Z</time></trkpt><trkpt lat="45.726595" lon="9.5544667"><ele>270.0</ele><time>2026-04-25T07:16:22.227Z</time></trkpt><trkpt lat="45.7267017" lon="9.5546117"><ele>270.0</ele><time>2026-04-25T07:16:23.229Z</time></trkpt><trkpt lat="45.7268217" lon="9.5547383"><ele>270.0</ele><time>2026-04-25T07:16:24.229Z</time></trkpt><trkpt lat="45.72695" lon="9.5548483"><ele>270.25</ele><time>2026-04-25T07:16:25.227Z</time></trkpt><trkpt lat="45.7270817" lon="9.55493"><ele>270.5</ele><time>2026-04-25T07:16:26.23Z</time></trkpt><trkpt lat="45.72721" lon="9.55498"><ele>270.75</ele><time>2026-04-25T07:16:27.228Z</time></trkpt><trkpt lat="45.7273333" lon="9.5550133"><ele>271.0</ele><time>2026-04-25T07:16:28.229Z</time></trkpt><trkpt lat="45.7274533" lon="9.5550317"><ele>271.0</ele><time>2026-04-25T07:16:29.23Z</time></trkpt><trkpt lat="45.7275683" lon="9.5550367"><ele>271.0</ele><time>2026-04-25T07:16:30.228Z</time></trkpt><trkpt lat="45.7276783" lon="9.55503"><ele>271.0</ele><time>2026-04-25T07:16:31.231Z</time></trkpt><trkpt lat="45.7277817" lon="9.5550233"><ele>271.0</ele><time>2026-04-25T07:16:32.227Z</time></trkpt><trkpt lat="45.72788" lon="9.555025"><ele>271.0</ele><time>2026-04-25T07:16:33.228Z</time></trkpt><trkpt lat="45.72797" lon="9.55505"><ele>271.6</ele><time>2026-04-25T07:16:34.227Z</time></trkpt><trkpt lat="45.7280517" lon="9.55511"><ele>272.20000000000005</ele><time>2026-04-25T07:16:35.228Z</time></trkpt><trkpt lat="45.72812" lon="9.555195"><ele>272.79999999999995</ele><time>2026-04-25T07:16:36.227Z</time></trkpt><trkpt lat="45.72817" lon="9.5553267"><ele>273.4</ele><time>2026-04-25T07:16:37.227Z</time></trkpt><trkpt lat="45.7282033" lon="9.5554783"><ele>274.0</ele><time>2026-04-25T07:16:38.229Z</time></trkpt><trkpt lat="45.7282217" lon="9.5556567"><ele>275.5</ele><time>2026-04-25T07:16:39.227Z</time></trkpt><trkpt lat="45.7282283" lon="9.555855"><ele>277.0</ele><time>2026-04-25T07:16:40.228Z</time></trkpt><trkpt lat="45.72823" lon="9.556065"><ele>278.5</ele><time>2026-04-25T07:16:41.228Z</time></trkpt><trkpt lat="45.7282383" lon="9.5562867"><ele>280.0</ele><time>2026-04-25T07:16:42.227Z</time></trkpt><trkpt lat="45.7282483" lon="9.5565133"><ele>280.3333333333333</ele><time>2026-04-25T07:16:43.228Z</time></trkpt><trkpt lat="45.7282633" lon="9.5567483"><ele>280.6666666666667</ele><time>2026-04-25T07:16:44.23Z</time></trkpt><trkpt lat="45.72829" lon="9.5569817"><ele>281.0</ele><time>2026-04-25T07:16:45.229Z</time></trkpt><trkpt lat="45.7283217" lon="9.5572067"><ele>279.6666666666667</ele><time>2026-04-25T07:16:46.23Z</time></trkpt><trkpt lat="45.728355" lon="9.557425"><ele>278.3333333333333</ele><time>2026-04-25T07:16:47.23Z</time></trkpt><trkpt lat="45.7283983" lon="9.5576433"><ele>277.0</ele><time>2026-04-25T07:16:48.231Z</time></trkpt><trkpt lat="45.7284517" lon="9.5578617"><ele>276.0</ele><time>2026-04-25T07:16:49.229Z</time></trkpt><trkpt lat="45.728505" lon="9.5580867"><ele>275.0</ele><time>2026-04-25T07:16:50.229Z</time></trkpt><trkpt lat="45.7285583" lon="9.5583183"><ele>274.0</ele><time>2026-04-25T07:16:51.231Z</time></trkpt><trkpt lat="45.7286117" lon="9.5585483"><ele>275.66666666666663</ele><time>2026-04-25T07:16:52.232Z</time></trkpt><trkpt lat="45.7286633" lon="9.55878"><ele>277.3333333333333</ele><time>2026-04-25T07:16:53.23Z</time></trkpt><trkpt lat="45.728715" lon="9.5590167"><ele>279.0</ele><time>2026-04-25T07:16:54.23Z</time></trkpt><trkpt lat="45.7287567" lon="9.5592567"><ele>279.0</ele><time>2026-04-25T07:16:55.229Z</time></trkpt><trkpt lat="45.7287833" lon="9.55949"><ele>279.0</ele><time>2026-04-25T07:16:56.228Z</time></trkpt><trkpt lat="45.7287983" lon="9.5597083"><ele>279.0</ele><time>2026-04-25T07:16:57.229Z</time></trkpt><trkpt lat="45.7288033" lon="9.559915"><ele>279.25</ele><time>2026-04-25T07:16:58.229Z</time></trkpt><trkpt lat="45.7288033" lon="9.5601117"><ele>279.5</ele><time>2026-04-25T07:16:59.228Z</time></trkpt><trkpt lat="45.7287983" lon="9.5602983"><ele>279.75</ele><time>2026-04-25T07:17:00.228Z</time></trkpt><trkpt lat="45.72879" lon="9.5604817"><ele>280.0</ele><time>2026-04-25T07:17:01.228Z</time></trkpt><trkpt lat="45.72877" lon="9.5606583"><ele>280.0</ele><time>2026-04-25T07:17:02.228Z</time></trkpt><trkpt lat="45.728745" lon="9.560825"><ele>280.0</ele><time>2026-04-25T07:17:03.232Z</time></trkpt><trkpt lat="45.7287117" lon="9.5609783"><ele>280.0</ele><time>2026-04-25T07:17:04.227Z</time></trkpt><trkpt lat="45.72866" lon="9.5611067"><ele>280.0</ele><time>2026-04-25T07:17:05.228Z</time></trkpt><trkpt lat="45.7286" lon="9.5612217"><ele>280.0</ele><time>2026-04-25T07:17:06.227Z</time></trkpt><trkpt lat="45.7285467" lon="9.5613367"><ele>279.8333333333333</ele><time>2026-04-25T07:17:07.228Z</time></trkpt><trkpt lat="45.7285167" lon="9.5614533"><ele>279.66666666666663</ele><time>2026-04-25T07:17:08.228Z</time></trkpt><trkpt lat="45.7285167" lon="9.561565"><ele>279.5</ele><time>2026-04-25T07:17:09.227Z</time></trkpt><trkpt lat="45.7285467" lon="9.5616633"><ele>279.3333333333333</ele><time>2026-04-25T07:17:10.227Z</time></trkpt><trkpt lat="45.7286117" lon="9.5617183"><ele>279.1666666666667</ele><time>2026-04-25T07:17:11.227Z</time></trkpt><trkpt lat="45.7286733" lon="9.56176"><ele>279.0</ele><time>2026-04-25T07:17:12.228Z</time></trkpt><trkpt lat="45.728775" lon="9.5617267"><ele>279.0</ele><time>2026-04-25T07:17:13.228Z</time></trkpt><trkpt lat="45.728885" lon="9.5616833"><ele>279.0</ele><time>2026-04-25T07:17:14.227Z</time></trkpt><trkpt lat="45.7289817" lon="9.5616683"><ele>279.0</ele><time>2026-04-25T07:17:15.227Z</time></trkpt><trkpt lat="45.7290717" lon="9.561675"><ele>279.0</ele><time>2026-04-25T07:17:16.229Z</time></trkpt><trkpt lat="45.7291467" lon="9.561715"><ele>279.0</ele><time>2026-04-25T07:17:17.227Z</time></trkpt><trkpt lat="45.72922" lon="9.5617867"><ele>279.0</ele><time>2026-04-25T07:17:18.227Z</time></trkpt><trkpt lat="45.7292817" lon="9.5618833"><ele>279.0</ele><time>2026-04-25T07:17:19.228Z</time></trkpt><trkpt lat="45.7293467" lon="9.562"><ele>279.0</ele><time>2026-04-25T07:17:20.231Z</time></trkpt><trkpt lat="45.7294183" lon="9.562115"><ele>279.0</ele><time>2026-04-25T07:17:21.228Z</time></trkpt><trkpt lat="45.72949" lon="9.5622183"><ele>279.0</ele><time>2026-04-25T07:17:22.227Z</time></trkpt><trkpt lat="45.729565" lon="9.5623183"><ele>280.25</ele><time>2026-04-25T07:17:23.228Z</time></trkpt><trkpt lat="45.729645" lon="9.5624233"><ele>281.5</ele><time>2026-04-25T07:17:24.228Z</time></trkpt><trkpt lat="45.7297317" lon="9.5625383"><ele>282.75</ele><time>2026-04-25T07:17:25.23Z</time></trkpt><trkpt lat="45.729825" lon="9.562655"><ele>284.0</ele><time>2026-04-25T07:17:26.227Z</time></trkpt><trkpt lat="45.729925" lon="9.5627733"><ele>284.0</ele><time>2026-04-25T07:17:27.229Z</time></trkpt><trkpt lat="45.7300233" lon="9.5628917"><ele>284.0</ele><time>2026-04-25T07:17:28.23Z</time></trkpt><trkpt lat="45.7301233" lon="9.5630117"><ele>284.0</ele><time>2026-04-25T07:17:29.228Z</time></trkpt><trkpt lat="45.730225" lon="9.5631383"><ele>284.0</ele><time>2026-04-25T07:17:30.228Z</time></trkpt><trkpt lat="45.73033" lon="9.5632817"><ele>284.25</ele><time>2026-04-25T07:17:31.229Z</time></trkpt><trkpt lat="45.7304333" lon="9.5634233"><ele>284.5</ele><time>2026-04-25T07:17:32.228Z</time></trkpt><trkpt lat="45.7305417" lon="9.563565"><ele>284.75</ele><time>2026-04-25T07:17:33.229Z</time></trkpt><trkpt lat="45.7306483" lon="9.563705"><ele>285.0</ele><time>2026-04-25T07:17:34.229Z</time></trkpt><trkpt lat="45.730755" lon="9.5638433"><ele>285.0</ele><time>2026-04-25T07:17:35.228Z</time></trkpt><trkpt lat="45.7308617" lon="9.5639767"><ele>285.0</ele><time>2026-04-25T07:17:36.228Z</time></trkpt><trkpt lat="45.7309667" lon="9.56411"><ele>285.0</ele><time>2026-04-25T07:17:37.228Z</time></trkpt><trkpt lat="45.73107" lon="9.564245"><ele>285.0</ele><time>2026-04-25T07:17:38.229Z</time></trkpt><trkpt lat="45.7311717" lon="9.5643767"><ele>285.25</ele><time>2026-04-25T07:17:39.228Z</time></trkpt><trkpt lat="45.7312717" lon="9.564505"><ele>285.5</ele><time>2026-04-25T07:17:40.227Z</time></trkpt><trkpt lat="45.7313733" lon="9.5646333"><ele>285.75</ele><time>2026-04-25T07:17:41.234Z</time></trkpt><trkpt lat="45.7314767" lon="9.56476"><ele>286.0</ele><time>2026-04-25T07:17:42.228Z</time></trkpt><trkpt lat="45.731565" lon="9.5648683"><ele>286.0</ele><time>2026-04-25T07:17:43.228Z</time></trkpt><trkpt lat="45.7316367" lon="9.5649533"><ele>286.0</ele><time>2026-04-25T07:17:44.228Z</time></trkpt><trkpt lat="45.7316967" lon="9.5650283"><ele>286.0</ele><time>2026-04-25T07:17:45.228Z</time></trkpt><trkpt lat="45.73175" lon="9.5651033"><ele>286.0</ele><time>2026-04-25T07:17:46.229Z</time></trkpt><trkpt lat="45.7318017" lon="9.5651783"><ele>286.0</ele><time>2026-04-25T07:17:47.229Z</time></trkpt><trkpt lat="45.7318583" lon="9.5652567"><ele>286.0</ele><time>2026-04-25T07:17:48.228Z</time></trkpt><trkpt lat="45.7319217" lon="9.56535"><ele>286.75</ele><time>2026-04-25T07:17:49.227Z</time></trkpt><trkpt lat="45.73199" lon="9.5654567"><ele>287.5</ele><time>2026-04-25T07:17:50.232Z</time></trkpt><trkpt lat="45.73207" lon="9.56558"><ele>288.25</ele><time>2026-04-25T07:17:51.229Z</time></trkpt><trkpt lat="45.732155" lon="9.5657167"><ele>289.0</ele><time>2026-04-25T07:17:52.229Z</time></trkpt><trkpt lat="45.7322433" lon="9.56586"><ele>289.0</ele><time>2026-04-25T07:17:53.229Z</time></trkpt><trkpt lat="45.7323283" lon="9.5660033"><ele>289.0</ele><time>2026-04-25T07:17:54.228Z</time></trkpt><trkpt lat="45.7324117" lon="9.5661533"><ele>289.0</ele><time>2026-04-25T07:17:55.228Z</time></trkpt><trkpt lat="45.7324917" lon="9.5663117"><ele>289.0</ele><time>2026-04-25T07:17:56.23Z</time></trkpt><trkpt lat="45.7325717" lon="9.5664817"><ele>288.75</ele><time>2026-04-25T07:17:57.227Z</time></trkpt><trkpt lat="45.73265" lon="9.5666567"><ele>288.5</ele><time>2026-04-25T07:17:58.229Z</time></trkpt><trkpt lat="45.7327283" lon="9.5668333"><ele>288.25</ele><time>2026-04-25T07:17:59.232Z</time></trkpt><trkpt lat="45.7328033" lon="9.5670033"><ele>288.0</ele><time>2026-04-25T07:18:00.228Z</time></trkpt><trkpt lat="45.7328683" lon="9.567155"><ele>288.8</ele><time>2026-04-25T07:18:01.228Z</time></trkpt><trkpt lat="45.73292" lon="9.567285"><ele>289.6</ele><time>2026-04-25T07:18:02.229Z</time></trkpt><trkpt lat="45.7329617" lon="9.5674033"><ele>290.4</ele><time>2026-04-25T07:18:03.229Z</time></trkpt><trkpt lat="45.733" lon="9.5675133"><ele>291.2</ele><time>2026-04-25T07:18:04.229Z</time></trkpt><trkpt lat="45.7330367" lon="9.567625"><ele>292.0</ele><time>2026-04-25T07:18:05.228Z</time></trkpt><trkpt lat="45.733075" lon="9.56775"><ele>292.0</ele><time>2026-04-25T07:18:06.228Z</time></trkpt><trkpt lat="45.7331183" lon="9.567875"><ele>292.0</ele><time>2026-04-25T07:18:07.227Z</time></trkpt><trkpt lat="45.733165" lon="9.56799"><ele>292.0</ele><time>2026-04-25T07:18:08.227Z</time></trkpt><trkpt lat="45.7332217" lon="9.5681"><ele>292.0</ele><time>2026-04-25T07:18:09.228Z</time></trkpt><trkpt lat="45.7332917" lon="9.56821"><ele>292.0</ele><time>2026-04-25T07:18:10.227Z</time></trkpt><trkpt lat="45.73337" lon="9.5683117"><ele>292.0</ele><time>2026-04-25T07:18:11.228Z</time></trkpt><trkpt lat="45.733455" lon="9.5684033"><ele>292.0</ele><time>2026-04-25T07:18:12.229Z</time></trkpt><trkpt lat="45.733545" lon="9.5684883"><ele>292.0</ele><time>2026-04-25T07:18:13.228Z</time></trkpt><trkpt lat="45.7336383" lon="9.56856"><ele>292.0</ele><time>2026-04-25T07:18:14.23Z</time></trkpt><trkpt lat="45.73373" lon="9.5686283"><ele>292.0</ele><time>2026-04-25T07:18:15.228Z</time></trkpt><trkpt lat="45.7338067" lon="9.5687"><ele>291.66666666666663</ele><time>2026-04-25T07:18:16.228Z</time></trkpt><trkpt lat="45.7338683" lon="9.5687767"><ele>291.3333333333333</ele><time>2026-04-25T07:18:17.227Z</time></trkpt><trkpt lat="45.7339167" lon="9.5688617"><ele>291.0</ele><time>2026-04-25T07:18:18.227Z</time></trkpt><trkpt lat="45.733955" lon="9.5689567"><ele>290.6666666666667</ele><time>2026-04-25T07:18:19.23Z</time></trkpt><trkpt lat="45.7339783" lon="9.5690733"><ele>290.33333333333337</ele><time>2026-04-25T07:18:20.23Z</time></trkpt><trkpt lat="45.7340017" lon="9.5691983"><ele>290.0</ele><time>2026-04-25T07:18:21.227Z</time></trkpt><trkpt lat="45.7340233" lon="9.5693183"><ele>290.0</ele><time>2026-04-25T07:18:22.228Z</time></trkpt><trkpt lat="45.7340367" lon="9.5694133"><ele>290.0</ele><time>2026-04-25T07:18:23.228Z</time></trkpt><trkpt lat="45.7340567" lon="9.5695283"><ele>290.0</ele><time>2026-04-25T07:18:25.228Z</time></trkpt><trkpt lat="45.7340767" lon="9.5696217"><ele>290.0</ele><time>2026-04-25T07:18:28.228Z</time></trkpt><trkpt lat="45.7340683" lon="9.5697317"><ele>290.0</ele><time>2026-04-25T07:18:39.228Z</time></trkpt><trkpt lat="45.7341483" lon="9.5698217"><ele>290.0</ele><time>2026-04-25T07:18:42.227Z</time></trkpt><trkpt lat="45.7342133" lon="9.569825"><ele>290.2</ele><time>2026-04-25T07:18:43.227Z</time></trkpt><trkpt lat="45.7342917" lon="9.56982"><ele>290.4</ele><time>2026-04-25T07:18:44.228Z</time></trkpt><trkpt lat="45.7343917" lon="9.5698"><ele>290.6</ele><time>2026-04-25T07:18:45.227Z</time></trkpt><trkpt lat="45.7344967" lon="9.5697667"><ele>290.8</ele><time>2026-04-25T07:18:46.228Z</time></trkpt><trkpt lat="45.7346117" lon="9.56972"><ele>291.0</ele><time>2026-04-25T07:18:47.229Z</time></trkpt><trkpt lat="45.7347283" lon="9.56966"><ele>290.5</ele><time>2026-04-25T07:18:48.227Z</time></trkpt><trkpt lat="45.7348467" lon="9.56961"><ele>290.0</ele><time>2026-04-25T07:18:49.228Z</time></trkpt><trkpt lat="45.7349667" lon="9.569595"><ele>289.5</ele><time>2026-04-25T07:18:50.228Z</time></trkpt><trkpt lat="45.735075" lon="9.5696233"><ele>289.0</ele><time>2026-04-25T07:18:51.228Z</time></trkpt><trkpt lat="45.7351733" lon="9.56969"><ele>289.25</ele><time>2026-04-25T07:18:52.228Z</time></trkpt><trkpt lat="45.73527" lon="9.569775"><ele>289.5</ele><time>2026-04-25T07:18:53.231Z</time></trkpt><trkpt lat="45.7353717" lon="9.5698717"><ele>289.75</ele><time>2026-04-25T07:18:54.228Z</time></trkpt><trkpt lat="45.7354767" lon="9.5699783"><ele>290.0</ele><time>2026-04-25T07:18:55.23Z</time></trkpt><trkpt lat="45.7355817" lon="9.57009"><ele>290.0</ele><time>2026-04-25T07:18:56.229Z</time></trkpt><trkpt lat="45.7356817" lon="9.570205"><ele>290.0</ele><time>2026-04-25T07:18:57.229Z</time></trkpt><trkpt lat="45.73577" lon="9.5703133"><ele>290.0</ele><time>2026-04-25T07:18:58.228Z</time></trkpt><trkpt lat="45.7358533" lon="9.57042"><ele>290.0</ele><time>2026-04-25T07:18:59.228Z</time></trkpt><trkpt lat="45.735935" lon="9.5705333"><ele>290.0</ele><time>2026-04-25T07:19:00.23Z</time></trkpt><trkpt lat="45.73601" lon="9.5706583"><ele>290.0</ele><time>2026-04-25T07:19:01.228Z</time></trkpt><trkpt lat="45.73609" lon="9.5707883"><ele>290.0</ele><time>2026-04-25T07:19:02.228Z</time></trkpt><trkpt lat="45.7361733" lon="9.5709283"><ele>290.0</ele><time>2026-04-25T07:19:03.228Z</time></trkpt><trkpt lat="45.7362517" lon="9.5710767"><ele>289.75</ele><time>2026-04-25T07:19:04.228Z</time></trkpt><trkpt lat="45.7363233" lon="9.57124"><ele>289.5</ele><time>2026-04-25T07:19:05.227Z</time></trkpt><trkpt lat="45.7363867" lon="9.5714117"><ele>289.25</ele><time>2026-04-25T07:19:06.228Z</time></trkpt><trkpt lat="45.73645" lon="9.5715783"><ele>289.0</ele><time>2026-04-25T07:19:07.228Z</time></trkpt><trkpt lat="45.736505" lon="9.57172"><ele>289.0</ele><time>2026-04-25T07:19:08.227Z</time></trkpt><trkpt lat="45.7365533" lon="9.571845"><ele>289.0</ele><time>2026-04-25T07:19:09.23Z</time></trkpt><trkpt lat="45.7366" lon="9.5719617"><ele>289.0</ele><time>2026-04-25T07:19:10.227Z</time></trkpt><trkpt lat="45.736645" lon="9.5720667"><ele>289.0</ele><time>2026-04-25T07:19:11.229Z</time></trkpt><trkpt lat="45.736695" lon="9.5721667"><ele>289.0</ele><time>2026-04-25T07:19:12.227Z</time></trkpt><trkpt lat="45.7367483" lon="9.5722767"><ele>288.8</ele><time>2026-04-25T07:19:13.23Z</time></trkpt><trkpt lat="45.7368067" lon="9.5724"><ele>288.59999999999997</ele><time>2026-04-25T07:19:14.228Z</time></trkpt><trkpt lat="45.7368667" lon="9.572525"><ele>288.4</ele><time>2026-04-25T07:19:15.228Z</time></trkpt><trkpt lat="45.736925" lon="9.572645"><ele>288.2</ele><time>2026-04-25T07:19:16.232Z</time></trkpt><trkpt lat="45.73698" lon="9.5727517"><ele>288.0</ele><time>2026-04-25T07:19:17.228Z</time></trkpt><trkpt lat="45.7370383" lon="9.5728467"><ele>289.0</ele><time>2026-04-25T07:19:18.229Z</time></trkpt><trkpt lat="45.737105" lon="9.5729317"><ele>290.0</ele><time>2026-04-25T07:19:19.229Z</time></trkpt><trkpt lat="45.7371883" lon="9.5729983"><ele>291.0</ele><time>2026-04-25T07:19:20.228Z</time></trkpt><trkpt lat="45.7372833" lon="9.5730317"><ele>292.0</ele><time>2026-04-25T07:19:21.228Z</time></trkpt><trkpt lat="45.7373833" lon="9.5730383"><ele>293.0</ele><time>2026-04-25T07:19:22.228Z</time></trkpt><trkpt lat="45.737475" lon="9.57303"><ele>293.0</ele><time>2026-04-25T07:19:23.231Z</time></trkpt><trkpt lat="45.7375633" lon="9.5730167"><ele>293.0</ele><time>2026-04-25T07:19:24.227Z</time></trkpt><trkpt lat="45.73765" lon="9.5730083"><ele>293.0</ele><time>2026-04-25T07:19:25.23Z</time></trkpt><trkpt lat="45.737735" lon="9.57302"><ele>293.0</ele><time>2026-04-25T07:19:26.228Z</time></trkpt><trkpt lat="45.73781" lon="9.5730517"><ele>293.0</ele><time>2026-04-25T07:19:27.229Z</time></trkpt><trkpt lat="45.7378717" lon="9.5731267"><ele>293.0</ele><time>2026-04-25T07:19:28.228Z</time></trkpt><trkpt lat="45.737915" lon="9.5732333"><ele>293.2</ele><time>2026-04-25T07:19:29.229Z</time></trkpt><trkpt lat="45.73794" lon="9.573365"><ele>293.4</ele><time>2026-04-25T07:19:30.228Z</time></trkpt><trkpt lat="45.73795" lon="9.5735183"><ele>293.59999999999997</ele><time>2026-04-25T07:19:31.228Z</time></trkpt><trkpt lat="45.73796" lon="9.57368"><ele>293.8</ele><time>2026-04-25T07:19:32.228Z</time></trkpt><trkpt lat="45.73797" lon="9.5738417"><ele>294.0</ele><time>2026-04-25T07:19:33.227Z</time></trkpt><trkpt lat="45.73798" lon="9.5740117"><ele>295.0</ele><time>2026-04-25T07:19:34.23Z</time></trkpt><trkpt lat="45.7379933" lon="9.5741917"><ele>296.0</ele><time>2026-04-25T07:19:35.228Z</time></trkpt><trkpt lat="45.7380167" lon="9.5743717"><ele>297.0</ele><time>2026-04-25T07:19:36.229Z</time></trkpt><trkpt lat="45.7380517" lon="9.574555"><ele>298.0</ele><time>2026-04-25T07:19:37.229Z</time></trkpt><trkpt lat="45.738095" lon="9.57474"><ele>298.0</ele><time>2026-04-25T07:19:38.228Z</time></trkpt><trkpt lat="45.73815" lon="9.5749367"><ele>298.0</ele><time>2026-04-25T07:19:39.227Z</time></trkpt><trkpt lat="45.7382167" lon="9.575145"><ele>298.0</ele><time>2026-04-25T07:19:40.229Z</time></trkpt><trkpt lat="45.7382967" lon="9.575365"><ele>298.66666666666663</ele><time>2026-04-25T07:19:41.228Z</time></trkpt><trkpt lat="45.73838" lon="9.5755867"><ele>299.3333333333333</ele><time>2026-04-25T07:19:42.228Z</time></trkpt><trkpt lat="45.73846" lon="9.5758133"><ele>300.0</ele><time>2026-04-25T07:19:43.227Z</time></trkpt><trkpt lat="45.738535" lon="9.5760483"><ele>301.0</ele><time>2026-04-25T07:19:44.227Z</time></trkpt><trkpt lat="45.7386017" lon="9.57629"><ele>302.0</ele><time>2026-04-25T07:19:45.228Z</time></trkpt><trkpt lat="45.7386617" lon="9.576525"><ele>303.0</ele><time>2026-04-25T07:19:46.23Z</time></trkpt><trkpt lat="45.7387183" lon="9.5767433"><ele>303.0</ele><time>2026-04-25T07:19:47.229Z</time></trkpt><trkpt lat="45.7387683" lon="9.5769367"><ele>303.0</ele><time>2026-04-25T07:19:48.228Z</time></trkpt><trkpt lat="45.7388117" lon="9.577105"><ele>303.0</ele><time>2026-04-25T07:19:49.227Z</time></trkpt><trkpt lat="45.7388517" lon="9.5772567"><ele>303.0</ele><time>2026-04-25T07:19:50.228Z</time></trkpt><trkpt lat="45.73889" lon="9.5773983"><ele>302.8</ele><time>2026-04-25T07:19:51.228Z</time></trkpt><trkpt lat="45.738925" lon="9.5775333"><ele>302.6</ele><time>2026-04-25T07:19:52.232Z</time></trkpt><trkpt lat="45.7389617" lon="9.5776717"><ele>302.4</ele><time>2026-04-25T07:19:53.228Z</time></trkpt><trkpt lat="45.7390017" lon="9.577825"><ele>302.2</ele><time>2026-04-25T07:19:54.228Z</time></trkpt><trkpt lat="45.7390483" lon="9.57799"><ele>302.0</ele><time>2026-04-25T07:19:55.229Z</time></trkpt><trkpt lat="45.7391" lon="9.5781633"><ele>301.75</ele><time>2026-04-25T07:19:56.228Z</time></trkpt><trkpt lat="45.7391617" lon="9.5783383"><ele>301.5</ele><time>2026-04-25T07:19:57.229Z</time></trkpt><trkpt lat="45.7392433" lon="9.5785033"><ele>301.25</ele><time>2026-04-25T07:19:58.249Z</time></trkpt><trkpt lat="45.7393433" lon="9.5786533"><ele>301.0</ele><time>2026-04-25T07:19:59.23Z</time></trkpt><trkpt lat="45.7394517" lon="9.5788"><ele>301.0</ele><time>2026-04-25T07:20:00.227Z</time></trkpt><trkpt lat="45.7395567" lon="9.578955"><ele>301.0</ele><time>2026-04-25T07:20:01.229Z</time></trkpt><trkpt lat="45.7396633" lon="9.579115"><ele>301.0</ele><time>2026-04-25T07:20:02.227Z</time></trkpt><trkpt lat="45.73977" lon="9.5792733"><ele>301.0</ele><time>2026-04-25T07:20:03.227Z</time></trkpt><trkpt lat="45.73988" lon="9.5794283"><ele>301.0</ele><time>2026-04-25T07:20:04.23Z</time></trkpt><trkpt lat="45.7399933" lon="9.5795733"><ele>301.0</ele><time>2026-04-25T07:20:05.23Z</time></trkpt><trkpt lat="45.7401117" lon="9.5797017"><ele>301.0</ele><time>2026-04-25T07:20:06.228Z</time></trkpt><trkpt lat="45.740235" lon="9.5798217"><ele>301.0</ele><time>2026-04-25T07:20:07.227Z</time></trkpt><trkpt lat="45.7403567" lon="9.579935"><ele>301.0</ele><time>2026-04-25T07:20:08.229Z</time></trkpt><trkpt lat="45.7404717" lon="9.5800433"><ele>301.0</ele><time>2026-04-25T07:20:09.235Z</time></trkpt><trkpt lat="45.7405817" lon="9.580145"><ele>301.0</ele><time>2026-04-25T07:20:10.229Z</time></trkpt><trkpt lat="45.7406833" lon="9.5802367"><ele>301.0</ele><time>2026-04-25T07:20:11.228Z</time></trkpt><trkpt lat="45.7407733" lon="9.580315"><ele>301.0</ele><time>2026-04-25T07:20:12.229Z</time></trkpt><trkpt lat="45.740855" lon="9.580395"><ele>301.0</ele><time>2026-04-25T07:20:13.228Z</time></trkpt><trkpt lat="45.7409217" lon="9.58046"><ele>301.0</ele><time>2026-04-25T07:20:14.229Z</time></trkpt><trkpt lat="45.7409933" lon="9.5805283"><ele>301.0</ele><time>2026-04-25T07:20:16.229Z</time></trkpt><trkpt lat="45.7410583" lon="9.5806067"><ele>301.0</ele><time>2026-04-25T07:20:18.227Z</time></trkpt><trkpt lat="45.7411017" lon="9.5806783"><ele>301.0</ele><time>2026-04-25T07:20:19.228Z</time></trkpt><trkpt lat="45.7411467" lon="9.58075"><ele>301.0</ele><time>2026-04-25T07:20:20.229Z</time></trkpt><trkpt lat="45.7412433" lon="9.580835"><ele>301.0</ele><time>2026-04-25T07:20:22.228Z</time></trkpt><trkpt lat="45.7413083" lon="9.5808633"><ele>301.0</ele><time>2026-04-25T07:20:23.228Z</time></trkpt><trkpt lat="45.7413833" lon="9.5809117"><ele>301.0</ele><time>2026-04-25T07:20:24.227Z</time></trkpt><trkpt lat="45.74147" lon="9.5809717"><ele>301.0</ele><time>2026-04-25T07:20:25.228Z</time></trkpt><trkpt lat="45.7415733" lon="9.5810283"><ele>301.0</ele><time>2026-04-25T07:20:26.229Z</time></trkpt><trkpt lat="45.741695" lon="9.5810667"><ele>301.0</ele><time>2026-04-25T07:20:27.232Z</time></trkpt><trkpt lat="45.7418217" lon="9.58109"><ele>302.75</ele><time>2026-04-25T07:20:28.228Z</time></trkpt><trkpt lat="45.7419467" lon="9.581115"><ele>304.5</ele><time>2026-04-25T07:20:29.228Z</time></trkpt><trkpt lat="45.7420733" lon="9.581155"><ele>306.25</ele><time>2026-04-25T07:20:30.228Z</time></trkpt><trkpt lat="45.7421933" lon="9.5812267"><ele>308.0</ele><time>2026-04-25T07:20:31.227Z</time></trkpt><trkpt lat="45.7423183" lon="9.5813183"><ele>308.0</ele><time>2026-04-25T07:20:32.232Z</time></trkpt><trkpt lat="45.7424433" lon="9.5814133"><ele>308.0</ele><time>2026-04-25T07:20:33.229Z</time></trkpt><trkpt lat="45.7425583" lon="9.5815033"><ele>308.0</ele><time>2026-04-25T07:20:34.228Z</time></trkpt><trkpt lat="45.7426667" lon="9.5815883"><ele>308.0</ele><time>2026-04-25T07:20:35.229Z</time></trkpt><trkpt lat="45.7427617" lon="9.5816583"><ele>308.8</ele><time>2026-04-25T07:20:36.228Z</time></trkpt><trkpt lat="45.7428533" lon="9.581725"><ele>309.6</ele><time>2026-04-25T07:20:37.229Z</time></trkpt><trkpt lat="45.74294" lon="9.5817783"><ele>310.4</ele><time>2026-04-25T07:20:38.229Z</time></trkpt><trkpt lat="45.7430283" lon="9.5818233"><ele>311.2</ele><time>2026-04-25T07:20:39.229Z</time></trkpt><trkpt lat="45.7431167" lon="9.5818583"><ele>312.0</ele><time>2026-04-25T07:20:40.229Z</time></trkpt><trkpt lat="45.7431983" lon="9.5818933"><ele>312.0</ele><time>2026-04-25T07:20:41.227Z</time></trkpt><trkpt lat="45.7432767" lon="9.5819317"><ele>312.0</ele><time>2026-04-25T07:20:42.227Z</time></trkpt><trkpt lat="45.7433533" lon="9.5819783"><ele>312.0</ele><time>2026-04-25T07:20:43.229Z</time></trkpt><trkpt lat="45.7434283" lon="9.58204"><ele>312.0</ele><time>2026-04-25T07:20:44.229Z</time></trkpt><trkpt lat="45.7435083" lon="9.5821233"><ele>312.0</ele><time>2026-04-25T07:20:45.229Z</time></trkpt><trkpt lat="45.7435833" lon="9.582225"><ele>311.8</ele><time>2026-04-25T07:20:46.228Z</time></trkpt><trkpt lat="45.7436467" lon="9.5823267"><ele>311.6</ele><time>2026-04-25T07:20:47.228Z</time></trkpt><trkpt lat="45.7437033" lon="9.58243"><ele>311.40000000000003</ele><time>2026-04-25T07:20:48.229Z</time></trkpt><trkpt lat="45.74376" lon="9.5825433"><ele>311.2</ele><time>2026-04-25T07:20:49.229Z</time></trkpt><trkpt lat="45.7438233" lon="9.58267"><ele>311.0</ele><time>2026-04-25T07:20:50.228Z</time></trkpt><trkpt lat="45.7438867" lon="9.5828067"><ele>310.25</ele><time>2026-04-25T07:20:51.23Z</time></trkpt><trkpt lat="45.743955" lon="9.5829583"><ele>309.5</ele><time>2026-04-25T07:20:52.228Z</time></trkpt><trkpt lat="45.7440233" lon="9.58312"><ele>308.75</ele><time>2026-04-25T07:20:53.229Z</time></trkpt><trkpt lat="45.7440933" lon="9.5832967"><ele>308.0</ele><time>2026-04-25T07:20:54.229Z</time></trkpt><trkpt lat="45.7441733" lon="9.5834617"><ele>308.0</ele><time>2026-04-25T07:20:55.228Z</time></trkpt><trkpt lat="45.7442467" lon="9.5836117"><ele>308.0</ele><time>2026-04-25T07:20:56.229Z</time></trkpt><trkpt lat="45.7443217" lon="9.583745"><ele>308.0</ele><time>2026-04-25T07:20:57.23Z</time></trkpt><trkpt lat="45.7443983" lon="9.5838533"><ele>308.0</ele><time>2026-04-25T07:20:58.229Z</time></trkpt><trkpt lat="45.74449" lon="9.583915"><ele>306.75</ele><time>2026-04-25T07:20:59.228Z</time></trkpt><trkpt lat="45.7445917" lon="9.5839283"><ele>305.5</ele><time>2026-04-25T07:21:00.229Z</time></trkpt><trkpt lat="45.744695" lon="9.583895"><ele>304.25</ele><time>2026-04-25T07:21:01.227Z</time></trkpt><trkpt lat="45.7448083" lon="9.5838383"><ele>303.0</ele><time>2026-04-25T07:21:02.227Z</time></trkpt><trkpt lat="45.7449267" lon="9.5837717"><ele>303.0</ele><time>2026-04-25T07:21:03.229Z</time></trkpt><trkpt lat="45.7450517" lon="9.5836983"><ele>303.0</ele><time>2026-04-25T07:21:04.227Z</time></trkpt><trkpt lat="45.7451717" lon="9.5836317"><ele>303.0</ele><time>2026-04-25T07:21:05.229Z</time></trkpt><trkpt lat="45.74529" lon="9.5835683"><ele>303.0</ele><time>2026-04-25T07:21:06.227Z</time></trkpt><trkpt lat="45.7454017" lon="9.5835067"><ele>304.2</ele><time>2026-04-25T07:21:07.23Z</time></trkpt><trkpt lat="45.7454967" lon="9.583435"><ele>305.4</ele><time>2026-04-25T07:21:08.229Z</time></trkpt><trkpt lat="45.7455883" lon="9.5833617"><ele>306.59999999999997</ele><time>2026-04-25T07:21:09.229Z</time></trkpt><trkpt lat="45.7456733" lon="9.5832817"><ele>307.8</ele><time>2026-04-25T07:21:10.228Z</time></trkpt><trkpt lat="45.74576" lon="9.5831967"><ele>309.0</ele><time>2026-04-25T07:21:11.228Z</time></trkpt><trkpt lat="45.7458417" lon="9.5831183"><ele>309.0</ele><time>2026-04-25T07:21:12.228Z</time></trkpt><trkpt lat="45.745915" lon="9.58306"><ele>309.0</ele><time>2026-04-25T07:21:13.238Z</time></trkpt><trkpt lat="45.7459833" lon="9.5830133"><ele>309.0</ele><time>2026-04-25T07:21:14.229Z</time></trkpt><trkpt lat="45.746055" lon="9.5830033"><ele>309.0</ele><time>2026-04-25T07:21:15.229Z</time></trkpt><trkpt lat="45.746115" lon="9.5830367"><ele>309.0</ele><time>2026-04-25T07:21:16.228Z</time></trkpt><trkpt lat="45.7461817" lon="9.5830867"><ele>309.0</ele><time>2026-04-25T07:21:17.227Z</time></trkpt><trkpt lat="45.7462717" lon="9.5831383"><ele>309.0</ele><time>2026-04-25T07:21:18.228Z</time></trkpt><trkpt lat="45.746365" lon="9.583175"><ele>309.0</ele><time>2026-04-25T07:21:19.23Z</time></trkpt><trkpt lat="45.7464617" lon="9.5832117"><ele>309.0</ele><time>2026-04-25T07:21:20.229Z</time></trkpt><trkpt lat="45.7465617" lon="9.5832567"><ele>309.0</ele><time>2026-04-25T07:21:21.229Z</time></trkpt><trkpt lat="45.7466667" lon="9.583295"><ele>309.0</ele><time>2026-04-25T07:21:22.23Z</time></trkpt><trkpt lat="45.7467667" lon="9.5833317"><ele>309.0</ele><time>2026-04-25T07:21:23.23Z</time></trkpt><trkpt lat="45.7469017" lon="9.58336"><ele>309.0</ele><time>2026-04-25T07:21:24.228Z</time></trkpt><trkpt lat="45.747015" lon="9.5833867"><ele>309.0</ele><time>2026-04-25T07:21:25.228Z</time></trkpt><trkpt lat="45.7471217" lon="9.5834167"><ele>309.0</ele><time>2026-04-25T07:21:26.231Z</time></trkpt><trkpt lat="45.7472367" lon="9.5834567"><ele>309.0</ele><time>2026-04-25T07:21:27.228Z</time></trkpt><trkpt lat="45.74735" lon="9.58347"><ele>309.0</ele><time>2026-04-25T07:21:28.23Z</time></trkpt><trkpt lat="45.747465" lon="9.5834567"><ele>309.0</ele><time>2026-04-25T07:21:29.228Z</time></trkpt><trkpt lat="45.7475633" lon="9.5834233"><ele>309.0</ele><time>2026-04-25T07:21:30.228Z</time></trkpt><trkpt lat="45.7476533" lon="9.58339"><ele>309.0</ele><time>2026-04-25T07:21:31.228Z</time></trkpt><trkpt lat="45.7477467" lon="9.5833483"><ele>309.4</ele><time>2026-04-25T07:21:32.228Z</time></trkpt><trkpt lat="45.7478383" lon="9.5833133"><ele>309.79999999999995</ele><time>2026-04-25T07:21:33.229Z</time></trkpt><trkpt lat="45.7479133" lon="9.5832833"><ele>310.20000000000005</ele><time>2026-04-25T07:21:34.227Z</time></trkpt><trkpt lat="45.7480267" lon="9.5833"><ele>310.6</ele><time>2026-04-25T07:21:36.228Z</time></trkpt><trkpt lat="45.7480717" lon="9.5833767"><ele>311.0</ele><time>2026-04-25T07:21:37.229Z</time></trkpt><trkpt lat="45.748125" lon="9.5834967"><ele>311.0</ele><time>2026-04-25T07:21:38.227Z</time></trkpt><trkpt lat="45.74819" lon="9.5836117"><ele>311.0</ele><time>2026-04-25T07:21:39.228Z</time></trkpt><trkpt lat="45.7482633" lon="9.5837317"><ele>311.0</ele><time>2026-04-25T07:21:40.228Z</time></trkpt><trkpt lat="45.7483317" lon="9.5838367"><ele>311.0</ele><time>2026-04-25T07:21:41.228Z</time></trkpt><trkpt lat="45.7484033" lon="9.583935"><ele>311.0</ele><time>2026-04-25T07:21:42.229Z</time></trkpt><trkpt lat="45.74848" lon="9.5840167"><ele>313.20000000000005</ele><time>2026-04-25T07:21:43.228Z</time></trkpt><trkpt lat="45.7485767" lon="9.5840883"><ele>315.40000000000003</ele><time>2026-04-25T07:21:44.23Z</time></trkpt><trkpt lat="45.7486783" lon="9.584145"><ele>317.6</ele><time>2026-04-25T07:21:45.231Z</time></trkpt><trkpt lat="45.7487833" lon="9.5841983"><ele>319.8</ele><time>2026-04-25T07:21:46.229Z</time></trkpt><trkpt lat="45.7489" lon="9.5842333"><ele>322.0</ele><time>2026-04-25T07:21:47.23Z</time></trkpt><trkpt lat="45.7490217" lon="9.5842717"><ele>322.0</ele><time>2026-04-25T07:21:48.229Z</time></trkpt><trkpt lat="45.7491283" lon="9.58431"><ele>322.0</ele><time>2026-04-25T07:21:49.23Z</time></trkpt><trkpt lat="45.7492167" lon="9.5843517"><ele>322.0</ele><time>2026-04-25T07:21:50.232Z</time></trkpt><trkpt lat="45.7492867" lon="9.584385"><ele>322.0</ele><time>2026-04-25T07:21:51.228Z</time></trkpt><trkpt lat="45.74939" lon="9.5844417"><ele>322.0</ele><time>2026-04-25T07:21:53.228Z</time></trkpt><trkpt lat="45.7494567" lon="9.5844917"><ele>324.20000000000005</ele><time>2026-04-25T07:21:56.228Z</time></trkpt><trkpt lat="45.74955" lon="9.5845183"><ele>326.4</ele><time>2026-04-25T07:21:59.228Z</time></trkpt><trkpt lat="45.7495933" lon="9.5846383"><ele>328.6</ele><time>2026-04-25T07:22:01.231Z</time></trkpt><trkpt lat="45.7496083" lon="9.5847417"><ele>330.79999999999995</ele><time>2026-04-25T07:22:02.23Z</time></trkpt><trkpt lat="45.749625" lon="9.584865"><ele>333.0</ele><time>2026-04-25T07:22:03.228Z</time></trkpt><trkpt lat="45.749635" lon="9.5850117"><ele>333.0</ele><time>2026-04-25T07:22:04.229Z</time></trkpt><trkpt lat="45.7496533" lon="9.58517"><ele>333.0</ele><time>2026-04-25T07:22:05.228Z</time></trkpt><trkpt lat="45.7496683" lon="9.58534"><ele>333.0</ele><time>2026-04-25T07:22:06.23Z</time></trkpt><trkpt lat="45.7496767" lon="9.585505"><ele>333.0</ele><time>2026-04-25T07:22:07.232Z</time></trkpt><trkpt lat="45.749685" lon="9.58565"><ele>333.0</ele><time>2026-04-25T07:22:08.228Z</time></trkpt><trkpt lat="45.749695" lon="9.5857783"><ele>332.79999999999995</ele><time>2026-04-25T07:22:09.228Z</time></trkpt><trkpt lat="45.7497183" lon="9.585895"><ele>332.6</ele><time>2026-04-25T07:22:10.228Z</time></trkpt><trkpt lat="45.7497617" lon="9.5860033"><ele>332.4</ele><time>2026-04-25T07:22:11.229Z</time></trkpt><trkpt lat="45.7498217" lon="9.5861017"><ele>332.20000000000005</ele><time>2026-04-25T07:22:12.227Z</time></trkpt><trkpt lat="45.7498883" lon="9.5862117"><ele>332.0</ele><time>2026-04-25T07:22:13.228Z</time></trkpt><trkpt lat="45.7499933" lon="9.5862967"><ele>331.83333333333337</ele><time>2026-04-25T07:22:14.229Z</time></trkpt><trkpt lat="45.75008" lon="9.5863867"><ele>331.6666666666667</ele><time>2026-04-25T07:22:15.231Z</time></trkpt><trkpt lat="45.750155" lon="9.586455"><ele>331.5</ele><time>2026-04-25T07:22:16.228Z</time></trkpt><trkpt lat="45.7502217" lon="9.5865133"><ele>331.3333333333333</ele><time>2026-04-25T07:22:17.23Z</time></trkpt><trkpt lat="45.7502817" lon="9.5865783"><ele>331.16666666666663</ele><time>2026-04-25T07:22:18.229Z</time></trkpt><trkpt lat="45.750325" lon="9.586645"><ele>331.0</ele><time>2026-04-25T07:22:19.228Z</time></trkpt><trkpt lat="45.7503617" lon="9.5867233"><ele>331.0</ele><time>2026-04-25T07:22:20.232Z</time></trkpt><trkpt lat="45.7503367" lon="9.5868767"><ele>331.0</ele><time>2026-04-25T07:22:22.229Z</time></trkpt><trkpt lat="45.7502783" lon="9.58696"><ele>331.0</ele><time>2026-04-25T07:22:23.229Z</time></trkpt><trkpt lat="45.7502183" lon="9.5870417"><ele>331.0</ele><time>2026-04-25T07:22:24.231Z</time></trkpt><trkpt lat="45.7501583" lon="9.5871183"><ele>331.0</ele><time>2026-04-25T07:22:25.231Z</time></trkpt><trkpt lat="45.75011" lon="9.5871917"><ele>331.0</ele><time>2026-04-25T07:22:26.228Z</time></trkpt><trkpt lat="45.750035" lon="9.5873083"><ele>330.16666666666663</ele><time>2026-04-25T07:22:28.228Z</time></trkpt><trkpt lat="45.7499683" lon="9.5874317"><ele>329.3333333333333</ele><time>2026-04-25T07:22:30.23Z</time></trkpt><trkpt lat="45.749925" lon="9.587515"><ele>328.5</ele><time>2026-04-25T07:22:31.232Z</time></trkpt><trkpt lat="45.7498683" lon="9.5875933"><ele>327.6666666666667</ele><time>2026-04-25T07:22:32.232Z</time></trkpt><trkpt lat="45.749805" lon="9.5876767"><ele>326.83333333333337</ele><time>2026-04-25T07:22:33.231Z</time></trkpt><trkpt lat="45.749745" lon="9.58776"><ele>326.0</ele><time>2026-04-25T07:22:34.229Z</time></trkpt><trkpt lat="45.7496933" lon="9.5878283"><ele>325.33333333333337</ele><time>2026-04-25T07:22:35.229Z</time></trkpt><trkpt lat="45.7496467" lon="9.587895"><ele>324.6666666666667</ele><time>2026-04-25T07:22:36.23Z</time></trkpt><trkpt lat="45.7496" lon="9.5879617"><ele>324.0</ele><time>2026-04-25T07:22:37.23Z</time></trkpt><trkpt lat="45.749555" lon="9.58803"><ele>323.3333333333333</ele><time>2026-04-25T07:22:38.23Z</time></trkpt><trkpt lat="45.7494933" lon="9.5881617"><ele>322.66666666666663</ele><time>2026-04-25T07:22:40.23Z</time></trkpt><trkpt lat="45.7495083" lon="9.5883183"><ele>322.0</ele><time>2026-04-25T07:22:42.227Z</time></trkpt><trkpt lat="45.7495467" lon="9.58839"><ele>322.0</ele><time>2026-04-25T07:22:43.23Z</time></trkpt><trkpt lat="45.7495867" lon="9.588465"><ele>322.0</ele><time>2026-04-25T07:22:44.229Z</time></trkpt><trkpt lat="45.7496267" lon="9.588555"><ele>322.0</ele><time>2026-04-25T07:22:45.229Z</time></trkpt><trkpt lat="45.7496533" lon="9.5886683"><ele>322.0</ele><time>2026-04-25T07:22:46.23Z</time></trkpt><trkpt lat="45.7496533" lon="9.588795"><ele>322.0</ele><time>2026-04-25T07:22:47.228Z</time></trkpt><trkpt lat="45.74964" lon="9.5889383"><ele>322.0</ele><time>2026-04-25T07:22:48.23Z</time></trkpt><trkpt lat="45.7496133" lon="9.5890967"><ele>319.25</ele><time>2026-04-25T07:22:49.23Z</time></trkpt><trkpt lat="45.7495933" lon="9.5892633"><ele>316.5</ele><time>2026-04-25T07:22:50.231Z</time></trkpt><trkpt lat="45.749575" lon="9.5894333"><ele>313.75</ele><time>2026-04-25T07:22:51.229Z</time></trkpt><trkpt lat="45.7495583" lon="9.58961"><ele>311.0</ele><time>2026-04-25T07:22:52.228Z</time></trkpt><trkpt lat="45.7495367" lon="9.58978"><ele>310.8</ele><time>2026-04-25T07:22:53.23Z</time></trkpt><trkpt lat="45.7495183" lon="9.5899417"><ele>310.6</ele><time>2026-04-25T07:22:54.23Z</time></trkpt><trkpt lat="45.74949" lon="9.59009"><ele>310.4</ele><time>2026-04-25T07:22:55.231Z</time></trkpt><trkpt lat="45.7494717" lon="9.5902317"><ele>310.2</ele><time>2026-04-25T07:22:56.229Z</time></trkpt><trkpt lat="45.7494717" lon="9.5903767"><ele>310.0</ele><time>2026-04-25T07:22:57.228Z</time></trkpt><trkpt lat="45.7494867" lon="9.590535"><ele>310.6</ele><time>2026-04-25T07:22:58.232Z</time></trkpt><trkpt lat="45.7495167" lon="9.5906917"><ele>311.2</ele><time>2026-04-25T07:22:59.228Z</time></trkpt><trkpt lat="45.7495483" lon="9.5908467"><ele>311.8</ele><time>2026-04-25T07:23:00.23Z</time></trkpt><trkpt lat="45.7495817" lon="9.5909883"><ele>312.4</ele><time>2026-04-25T07:23:01.229Z</time></trkpt><trkpt lat="45.749615" lon="9.591115"><ele>313.0</ele><time>2026-04-25T07:23:02.23Z</time></trkpt><trkpt lat="45.7496517" lon="9.5912283"><ele>313.2</ele><time>2026-04-25T07:23:03.228Z</time></trkpt><trkpt lat="45.749695" lon="9.59134"><ele>313.4</ele><time>2026-04-25T07:23:04.236Z</time></trkpt><trkpt lat="45.749745" lon="9.591455"><ele>313.59999999999997</ele><time>2026-04-25T07:23:05.228Z</time></trkpt><trkpt lat="45.7497983" lon="9.5915733"><ele>313.8</ele><time>2026-04-25T07:23:06.229Z</time></trkpt><trkpt lat="45.74985" lon="9.5916883"><ele>314.0</ele><time>2026-04-25T07:23:07.229Z</time></trkpt><trkpt lat="45.7498933" lon="9.5917967"><ele>314.0</ele><time>2026-04-25T07:23:08.23Z</time></trkpt><trkpt lat="45.7499383" lon="9.5919"><ele>314.0</ele><time>2026-04-25T07:23:09.229Z</time></trkpt><trkpt lat="45.7499833" lon="9.5920017"><ele>314.0</ele><time>2026-04-25T07:23:10.228Z</time></trkpt><trkpt lat="45.7500283" lon="9.5921017"><ele>314.0</ele><time>2026-04-25T07:23:11.23Z</time></trkpt><trkpt lat="45.750065" lon="9.5921867"><ele>314.0</ele><time>2026-04-25T07:23:12.228Z</time></trkpt><trkpt lat="45.7501167" lon="9.5923083"><ele>314.0</ele><time>2026-04-25T07:23:14.229Z</time></trkpt><trkpt lat="45.75016" lon="9.592405"><ele>314.0</ele><time>2026-04-25T07:23:17.229Z</time></trkpt><trkpt lat="45.7502" lon="9.59249"><ele>314.0</ele><time>2026-04-25T07:23:20.229Z</time></trkpt><trkpt lat="45.7502533" lon="9.5926"><ele>314.0</ele><time>2026-04-25T07:23:22.232Z</time></trkpt><trkpt lat="45.7502917" lon="9.59268"><ele>314.0</ele><time>2026-04-25T07:23:23.231Z</time></trkpt><trkpt lat="45.7503367" lon="9.5927767"><ele>314.0</ele><time>2026-04-25T07:23:24.23Z</time></trkpt><trkpt lat="45.7503833" lon="9.5928817"><ele>314.0</ele><time>2026-04-25T07:23:25.229Z</time></trkpt><trkpt lat="45.75043" lon="9.592995"><ele>313.0</ele><time>2026-04-25T07:23:26.229Z</time></trkpt><trkpt lat="45.7504817" lon="9.593115"><ele>312.0</ele><time>2026-04-25T07:23:27.23Z</time></trkpt><trkpt lat="45.7505367" lon="9.59324"><ele>311.0</ele><time>2026-04-25T07:23:28.229Z</time></trkpt><trkpt lat="45.75059" lon="9.5933633"><ele>310.0</ele><time>2026-04-25T07:23:29.227Z</time></trkpt><trkpt lat="45.7506467" lon="9.5934867"><ele>309.0</ele><time>2026-04-25T07:23:30.23Z</time></trkpt><trkpt lat="45.750705" lon="9.593615"><ele>308.4</ele><time>2026-04-25T07:23:31.228Z</time></trkpt><trkpt lat="45.750765" lon="9.5937467"><ele>307.79999999999995</ele><time>2026-04-25T07:23:32.228Z</time></trkpt><trkpt lat="45.7508267" lon="9.5938817"><ele>307.20000000000005</ele><time>2026-04-25T07:23:33.233Z</time></trkpt><trkpt lat="45.7508883" lon="9.59402"><ele>306.6</ele><time>2026-04-25T07:23:34.229Z</time></trkpt><trkpt lat="45.7509467" lon="9.594155"><ele>306.0</ele><time>2026-04-25T07:23:35.228Z</time></trkpt><trkpt lat="45.751005" lon="9.5942783"><ele>306.2</ele><time>2026-04-25T07:23:36.227Z</time></trkpt><trkpt lat="45.7510633" lon="9.59439"><ele>306.40000000000003</ele><time>2026-04-25T07:23:37.227Z</time></trkpt><trkpt lat="45.7511117" lon="9.5945033"><ele>306.6</ele><time>2026-04-25T07:23:38.229Z</time></trkpt><trkpt lat="45.75116" lon="9.5946233"><ele>306.8</ele><time>2026-04-25T07:23:39.229Z</time></trkpt><trkpt lat="45.7511833" lon="9.594755"><ele>307.0</ele><time>2026-04-25T07:23:40.232Z</time></trkpt><trkpt lat="45.7511917" lon="9.5948967"><ele>307.0</ele><time>2026-04-25T07:23:41.228Z</time></trkpt><trkpt lat="45.7511967" lon="9.5950417"><ele>307.0</ele><time>2026-04-25T07:23:42.228Z</time></trkpt><trkpt lat="45.7511967" lon="9.5951833"><ele>307.0</ele><time>2026-04-25T07:23:43.229Z</time></trkpt><trkpt lat="45.751195" lon="9.5953017"><ele>307.0</ele><time>2026-04-25T07:23:44.228Z</time></trkpt><trkpt lat="45.751195" lon="9.5954133"><ele>307.0</ele><time>2026-04-25T07:23:45.23Z</time></trkpt><trkpt lat="45.7512" lon="9.59552"><ele>307.0</ele><time>2026-04-25T07:23:46.227Z</time></trkpt><trkpt lat="45.751205" lon="9.595625"><ele>306.66666666666663</ele><time>2026-04-25T07:23:47.229Z</time></trkpt><trkpt lat="45.7512067" lon="9.595725"><ele>306.3333333333333</ele><time>2026-04-25T07:23:48.229Z</time></trkpt><trkpt lat="45.7512117" lon="9.5958317"><ele>306.0</ele><time>2026-04-25T07:23:49.228Z</time></trkpt><trkpt lat="45.7512133" lon="9.5959483"><ele>305.6666666666667</ele><time>2026-04-25T07:23:50.228Z</time></trkpt><trkpt lat="45.75122" lon="9.5960733"><ele>305.33333333333337</ele><time>2026-04-25T07:23:51.229Z</time></trkpt><trkpt lat="45.7512233" lon="9.5962067"><ele>305.0</ele><time>2026-04-25T07:23:52.229Z</time></trkpt><trkpt lat="45.75122" lon="9.59634"><ele>304.8</ele><time>2026-04-25T07:23:53.227Z</time></trkpt><trkpt lat="45.751205" lon="9.596465"><ele>304.6</ele><time>2026-04-25T07:23:54.228Z</time></trkpt><trkpt lat="45.7511733" lon="9.59658"><ele>304.4</ele><time>2026-04-25T07:23:55.227Z</time></trkpt><trkpt lat="45.75114" lon="9.596705"><ele>304.2</ele><time>2026-04-25T07:23:56.228Z</time></trkpt><trkpt lat="45.7510983" lon="9.5968333"><ele>304.0</ele><time>2026-04-25T07:23:57.229Z</time></trkpt><trkpt lat="45.7510617" lon="9.5969567"><ele>303.4</ele><time>2026-04-25T07:23:58.228Z</time></trkpt><trkpt lat="45.75102" lon="9.5970933"><ele>302.79999999999995</ele><time>2026-04-25T07:23:59.227Z</time></trkpt><trkpt lat="45.75097" lon="9.5972367"><ele>302.20000000000005</ele><time>2026-04-25T07:24:00.227Z</time></trkpt><trkpt lat="45.750925" lon="9.5973833"><ele>301.6</ele><time>2026-04-25T07:24:01.227Z</time></trkpt><trkpt lat="45.7508933" lon="9.5975417"><ele>301.0</ele><time>2026-04-25T07:24:02.228Z</time></trkpt><trkpt lat="45.7508817" lon="9.597705"><ele>300.75</ele><time>2026-04-25T07:24:03.23Z</time></trkpt><trkpt lat="45.7508867" lon="9.5978683"><ele>300.5</ele><time>2026-04-25T07:24:04.227Z</time></trkpt><trkpt lat="45.7508983" lon="9.5980383"><ele>300.25</ele><time>2026-04-25T07:24:05.228Z</time></trkpt><trkpt lat="45.7509117" lon="9.598205"><ele>300.0</ele><time>2026-04-25T07:24:06.227Z</time></trkpt><trkpt lat="45.7509217" lon="9.5983633"><ele>300.0</ele><time>2026-04-25T07:24:07.227Z</time></trkpt><trkpt lat="45.7509317" lon="9.59851"><ele>300.0</ele><time>2026-04-25T07:24:08.233Z</time></trkpt><trkpt lat="45.75094" lon="9.5986467"><ele>300.0</ele><time>2026-04-25T07:24:09.228Z</time></trkpt><trkpt lat="45.7509517" lon="9.5987633"><ele>300.0</ele><time>2026-04-25T07:24:10.233Z</time></trkpt><trkpt lat="45.75096" lon="9.5988617"><ele>300.0</ele><time>2026-04-25T07:24:11.228Z</time></trkpt><trkpt lat="45.7509717" lon="9.5990017"><ele>300.0</ele><time>2026-04-25T07:24:13.227Z</time></trkpt><trkpt lat="45.7509983" lon="9.5990983"><ele>300.2</ele><time>2026-04-25T07:24:23.227Z</time></trkpt><trkpt lat="45.751115" lon="9.5991117"><ele>300.4</ele><time>2026-04-25T07:24:25.228Z</time></trkpt><trkpt lat="45.7512" lon="9.599095"><ele>300.6</ele><time>2026-04-25T07:24:26.229Z</time></trkpt><trkpt lat="45.7513033" lon="9.5990567"><ele>300.8</ele><time>2026-04-25T07:24:27.229Z</time></trkpt><trkpt lat="45.7514183" lon="9.5990083"><ele>301.0</ele><time>2026-04-25T07:24:28.226Z</time></trkpt><trkpt lat="45.7515533" lon="9.5989283"><ele>301.0</ele><time>2026-04-25T07:24:29.229Z</time></trkpt><trkpt lat="45.7516867" lon="9.5988417"><ele>301.0</ele><time>2026-04-25T07:24:30.229Z</time></trkpt><trkpt lat="45.75181" lon="9.5987633"><ele>301.0</ele><time>2026-04-25T07:24:31.228Z</time></trkpt><trkpt lat="45.751925" lon="9.5986917"><ele>301.0</ele><time>2026-04-25T07:24:32.227Z</time></trkpt><trkpt lat="45.7520317" lon="9.5986267"><ele>302.25</ele><time>2026-04-25T07:24:33.229Z</time></trkpt><trkpt lat="45.752135" lon="9.5985617"><ele>303.5</ele><time>2026-04-25T07:24:34.228Z</time></trkpt><trkpt lat="45.75224" lon="9.5984983"><ele>304.75</ele><time>2026-04-25T07:24:35.226Z</time></trkpt><trkpt lat="45.7523483" lon="9.5984367"><ele>306.0</ele><time>2026-04-25T07:24:36.227Z</time></trkpt><trkpt lat="45.752455" lon="9.5983717"><ele>306.0</ele><time>2026-04-25T07:24:37.227Z</time></trkpt><trkpt lat="45.75256" lon="9.598305"><ele>306.0</ele><time>2026-04-25T07:24:38.228Z</time></trkpt><trkpt lat="45.7526667" lon="9.59824"><ele>306.0</ele><time>2026-04-25T07:24:39.23Z</time></trkpt><trkpt lat="45.7527767" lon="9.5981717"><ele>306.0</ele><time>2026-04-25T07:24:40.228Z</time></trkpt><trkpt lat="45.752895" lon="9.59809"><ele>307.25</ele><time>2026-04-25T07:24:41.228Z</time></trkpt><trkpt lat="45.7530117" lon="9.5979967"><ele>308.5</ele><time>2026-04-25T07:24:42.233Z</time></trkpt><trkpt lat="45.7531367" lon="9.597895"><ele>309.75</ele><time>2026-04-25T07:24:43.229Z</time></trkpt><trkpt lat="45.75326" lon="9.59779"><ele>311.0</ele><time>2026-04-25T07:24:44.228Z</time></trkpt><trkpt lat="45.75338" lon="9.597675"><ele>311.5</ele><time>2026-04-25T07:24:45.228Z</time></trkpt><trkpt lat="45.7534883" lon="9.5975483"><ele>312.0</ele><time>2026-04-25T07:24:46.227Z</time></trkpt><trkpt lat="45.7535983" lon="9.59741"><ele>312.5</ele><time>2026-04-25T07:24:47.229Z</time></trkpt><trkpt lat="45.7537067" lon="9.597275"><ele>313.0</ele><time>2026-04-25T07:24:48.231Z</time></trkpt><trkpt lat="45.753805" lon="9.5971533"><ele>313.25</ele><time>2026-04-25T07:24:49.228Z</time></trkpt><trkpt lat="45.7539033" lon="9.597035"><ele>313.5</ele><time>2026-04-25T07:24:50.229Z</time></trkpt><trkpt lat="45.7539983" lon="9.5969133"><ele>313.75</ele><time>2026-04-25T07:24:51.228Z</time></trkpt><trkpt lat="45.7540917" lon="9.5967917"><ele>314.0</ele><time>2026-04-25T07:24:52.231Z</time></trkpt><trkpt lat="45.7541867" lon="9.5966733"><ele>314.25</ele><time>2026-04-25T07:24:53.229Z</time></trkpt><trkpt lat="45.7542783" lon="9.5965567"><ele>314.5</ele><time>2026-04-25T07:24:54.229Z</time></trkpt><trkpt lat="45.7543617" lon="9.596445"><ele>314.75</ele><time>2026-04-25T07:24:55.228Z</time></trkpt><trkpt lat="45.7544467" lon="9.5963417"><ele>315.0</ele><time>2026-04-25T07:24:56.228Z</time></trkpt><trkpt lat="45.7545283" lon="9.5962467"><ele>316.5</ele><time>2026-04-25T07:24:57.227Z</time></trkpt><trkpt lat="45.7546033" lon="9.596165"><ele>318.0</ele><time>2026-04-25T07:24:58.228Z</time></trkpt><trkpt lat="45.7546767" lon="9.5960983"><ele>319.5</ele><time>2026-04-25T07:24:59.227Z</time></trkpt><trkpt lat="45.7547483" lon="9.5960433"><ele>321.0</ele><time>2026-04-25T07:25:00.234Z</time></trkpt><trkpt lat="45.754825" lon="9.5959967"><ele>322.5</ele><time>2026-04-25T07:25:01.228Z</time></trkpt><trkpt lat="45.7549133" lon="9.5959617"><ele>324.0</ele><time>2026-04-25T07:25:02.231Z</time></trkpt><trkpt lat="45.7550067" lon="9.5959383"><ele>324.0</ele><time>2026-04-25T07:25:03.228Z</time></trkpt><trkpt lat="45.7551167" lon="9.5959167"><ele>324.0</ele><time>2026-04-25T07:25:04.229Z</time></trkpt><trkpt lat="45.7552417" lon="9.595905"><ele>324.0</ele><time>2026-04-25T07:25:05.227Z</time></trkpt><trkpt lat="45.7553783" lon="9.5958967"><ele>324.0</ele><time>2026-04-25T07:25:06.229Z</time></trkpt><trkpt lat="45.7555167" lon="9.59591"><ele>324.75</ele><time>2026-04-25T07:25:07.228Z</time></trkpt><trkpt lat="45.7556467" lon="9.5959533"><ele>325.5</ele><time>2026-04-25T07:25:08.228Z</time></trkpt><trkpt lat="45.7557633" lon="9.5960083"><ele>326.25</ele><time>2026-04-25T07:25:09.228Z</time></trkpt><trkpt lat="45.7558667" lon="9.5960683"><ele>327.0</ele><time>2026-04-25T07:25:10.227Z</time></trkpt><trkpt lat="45.7559583" lon="9.5961267"><ele>326.6666666666667</ele><time>2026-04-25T07:25:11.227Z</time></trkpt><trkpt lat="45.7560533" lon="9.5961867"><ele>326.3333333333333</ele><time>2026-04-25T07:25:12.228Z</time></trkpt><trkpt lat="45.75614" lon="9.5962483"><ele>326.0</ele><time>2026-04-25T07:25:13.227Z</time></trkpt><trkpt lat="45.7562083" lon="9.5963167"><ele>325.66666666666663</ele><time>2026-04-25T07:25:14.228Z</time></trkpt><trkpt lat="45.7562567" lon="9.5964017"><ele>325.3333333333333</ele><time>2026-04-25T07:25:15.228Z</time></trkpt><trkpt lat="45.7562917" lon="9.5965083"><ele>325.0</ele><time>2026-04-25T07:25:16.231Z</time></trkpt><trkpt lat="45.7563133" lon="9.5966483"><ele>325.0</ele><time>2026-04-25T07:25:17.228Z</time></trkpt><trkpt lat="45.7563283" lon="9.5968083"><ele>325.0</ele><time>2026-04-25T07:25:18.227Z</time></trkpt><trkpt lat="45.756345" lon="9.5969817"><ele>325.0</ele><time>2026-04-25T07:25:19.227Z</time></trkpt><trkpt lat="45.75636" lon="9.597165"><ele>325.0</ele><time>2026-04-25T07:25:20.227Z</time></trkpt><trkpt lat="45.756375" lon="9.5973483"><ele>324.75</ele><time>2026-04-25T07:25:21.227Z</time></trkpt><trkpt lat="45.75639" lon="9.5975333"><ele>324.5</ele><time>2026-04-25T07:25:22.228Z</time></trkpt><trkpt lat="45.756395" lon="9.597715"><ele>324.25</ele><time>2026-04-25T07:25:23.227Z</time></trkpt><trkpt lat="45.7563833" lon="9.5978967"><ele>324.0</ele><time>2026-04-25T07:25:24.229Z</time></trkpt><trkpt lat="45.756355" lon="9.5980783"><ele>324.0</ele><time>2026-04-25T07:25:25.228Z</time></trkpt><trkpt lat="45.756315" lon="9.598255"><ele>324.0</ele><time>2026-04-25T07:25:26.228Z</time></trkpt><trkpt lat="45.75626" lon="9.59843"><ele>324.0</ele><time>2026-04-25T07:25:27.228Z</time></trkpt><trkpt lat="45.7562" lon="9.598605"><ele>324.0</ele><time>2026-04-25T07:25:28.23Z</time></trkpt><trkpt lat="45.7561333" lon="9.5987833"><ele>326.25</ele><time>2026-04-25T07:25:29.229Z</time></trkpt><trkpt lat="45.75607" lon="9.598965"><ele>328.5</ele><time>2026-04-25T07:25:30.227Z</time></trkpt><trkpt lat="45.756015" lon="9.5991417"><ele>330.75</ele><time>2026-04-25T07:25:31.227Z</time></trkpt><trkpt lat="45.75597" lon="9.599315"><ele>333.0</ele><time>2026-04-25T07:25:32.227Z</time></trkpt><trkpt lat="45.7559417" lon="9.59949"><ele>333.5</ele><time>2026-04-25T07:25:33.228Z</time></trkpt><trkpt lat="45.75593" lon="9.5996783"><ele>334.0</ele><time>2026-04-25T07:25:34.228Z</time></trkpt><trkpt lat="45.7559417" lon="9.5998783"><ele>334.5</ele><time>2026-04-25T07:25:35.228Z</time></trkpt><trkpt lat="45.75596" lon="9.6000833"><ele>335.0</ele><time>2026-04-25T07:25:36.227Z</time></trkpt><trkpt lat="45.7559867" lon="9.6002667"><ele>335.0</ele><time>2026-04-25T07:25:37.227Z</time></trkpt><trkpt lat="45.7560017" lon="9.60046"><ele>335.0</ele><time>2026-04-25T07:25:38.228Z</time></trkpt><trkpt lat="45.7560267" lon="9.6006467"><ele>335.0</ele><time>2026-04-25T07:25:39.229Z</time></trkpt><trkpt lat="45.75605" lon="9.6008267"><ele>335.0</ele><time>2026-04-25T07:25:40.228Z</time></trkpt><trkpt lat="45.756095" lon="9.6009917"><ele>335.0</ele><time>2026-04-25T07:25:41.227Z</time></trkpt><trkpt lat="45.7561767" lon="9.6011467"><ele>335.0</ele><time>2026-04-25T07:25:42.227Z</time></trkpt><trkpt lat="45.7562783" lon="9.6013117"><ele>335.0</ele><time>2026-04-25T07:25:43.228Z</time></trkpt><trkpt lat="45.756395" lon="9.601495"><ele>329.6666666666667</ele><time>2026-04-25T07:25:44.227Z</time></trkpt><trkpt lat="45.7565183" lon="9.6016933"><ele>324.3333333333333</ele><time>2026-04-25T07:25:45.228Z</time></trkpt><trkpt lat="45.7566467" lon="9.6019033"><ele>319.0</ele><time>2026-04-25T07:25:46.227Z</time></trkpt><trkpt lat="45.7567733" lon="9.6021083"><ele>321.3333333333333</ele><time>2026-04-25T07:25:47.227Z</time></trkpt><trkpt lat="45.7568917" lon="9.6023017"><ele>323.6666666666667</ele><time>2026-04-25T07:25:48.227Z</time></trkpt><trkpt lat="45.756995" lon="9.602475"><ele>326.0</ele><time>2026-04-25T07:25:49.226Z</time></trkpt><trkpt lat="45.7570783" lon="9.6026083"><ele>326.0</ele><time>2026-04-25T07:25:50.228Z</time></trkpt><trkpt lat="45.7571433" lon="9.6027133"><ele>326.0</ele><time>2026-04-25T07:25:51.227Z</time></trkpt><trkpt lat="45.7572033" lon="9.6028117"><ele>326.0</ele><time>2026-04-25T07:25:52.227Z</time></trkpt><trkpt lat="45.7572667" lon="9.6029133"><ele>326.0</ele><time>2026-04-25T07:25:53.227Z</time></trkpt><trkpt lat="45.7573333" lon="9.60301"><ele>326.0</ele><time>2026-04-25T07:25:54.227Z</time></trkpt><trkpt lat="45.7574033" lon="9.6030983"><ele>322.8</ele><time>2026-04-25T07:25:55.227Z</time></trkpt><trkpt lat="45.7574817" lon="9.60318"><ele>319.6</ele><time>2026-04-25T07:25:56.229Z</time></trkpt><trkpt lat="45.7575717" lon="9.6032583"><ele>316.4</ele><time>2026-04-25T07:25:57.229Z</time></trkpt><trkpt lat="45.7576783" lon="9.60333"><ele>313.2</ele><time>2026-04-25T07:25:58.227Z</time></trkpt><trkpt lat="45.7577917" lon="9.6033933"><ele>310.0</ele><time>2026-04-25T07:25:59.228Z</time></trkpt><trkpt lat="45.757905" lon="9.603445"><ele>310.0</ele><time>2026-04-25T07:26:00.228Z</time></trkpt><trkpt lat="45.7580133" lon="9.6034917"><ele>310.0</ele><time>2026-04-25T07:26:01.228Z</time></trkpt><trkpt lat="45.7581217" lon="9.6035333"><ele>310.0</ele><time>2026-04-25T07:26:02.228Z</time></trkpt><trkpt lat="45.7582267" lon="9.6035783"><ele>310.0</ele><time>2026-04-25T07:26:03.227Z</time></trkpt><trkpt lat="45.75833" lon="9.6036283"><ele>310.0</ele><time>2026-04-25T07:26:04.229Z</time></trkpt><trkpt lat="45.7584333" lon="9.6036683"><ele>304.4</ele><time>2026-04-25T07:26:05.228Z</time></trkpt><trkpt lat="45.758535" lon="9.6037083"><ele>298.8</ele><time>2026-04-25T07:26:06.227Z</time></trkpt><trkpt lat="45.7586333" lon="9.603735"><ele>293.2</ele><time>2026-04-25T07:26:07.228Z</time></trkpt><trkpt lat="45.7587233" lon="9.6037467"><ele>287.6</ele><time>2026-04-25T07:26:08.227Z</time></trkpt><trkpt lat="45.7587983" lon="9.6037467"><ele>282.0</ele><time>2026-04-25T07:26:09.227Z</time></trkpt><trkpt lat="45.7588883" lon="9.603725"><ele>282.0</ele><time>2026-04-25T07:26:11.228Z</time></trkpt><trkpt lat="45.75896" lon="9.6036967"><ele>282.0</ele><time>2026-04-25T07:26:15.228Z</time></trkpt><trkpt lat="45.7590517" lon="9.6036533"><ele>282.0</ele><time>2026-04-25T07:26:18.228Z</time></trkpt><trkpt lat="45.7591517" lon="9.6036217"><ele>282.0</ele><time>2026-04-25T07:26:20.23Z</time></trkpt><trkpt lat="45.7592133" lon="9.6036017"><ele>282.0</ele><time>2026-04-25T07:26:21.229Z</time></trkpt><trkpt lat="45.75934" lon="9.6035617"><ele>282.0</ele><time>2026-04-25T07:26:23.228Z</time></trkpt><trkpt lat="45.7594083" lon="9.603545"><ele>282.0</ele><time>2026-04-25T07:26:24.227Z</time></trkpt><trkpt lat="45.7594767" lon="9.6035183"><ele>282.0</ele><time>2026-04-25T07:26:25.23Z</time></trkpt><trkpt lat="45.759545" lon="9.6034767"><ele>282.0</ele><time>2026-04-25T07:26:26.227Z</time></trkpt><trkpt lat="45.7596083" lon="9.60342"><ele>282.0</ele><time>2026-04-25T07:26:27.227Z</time></trkpt><trkpt lat="45.7596683" lon="9.6033467"><ele>282.0</ele><time>2026-04-25T07:26:28.228Z</time></trkpt><trkpt lat="45.7597267" lon="9.6032483"><ele>282.0</ele><time>2026-04-25T07:26:29.231Z</time></trkpt><trkpt lat="45.7597883" lon="9.60313"><ele>282.0</ele><time>2026-04-25T07:26:30.227Z</time></trkpt><trkpt lat="45.75985" lon="9.603"><ele>282.0</ele><time>2026-04-25T07:26:31.227Z</time></trkpt><trkpt lat="45.7599083" lon="9.6028717"><ele>282.0</ele><time>2026-04-25T07:26:32.227Z</time></trkpt><trkpt lat="45.7599533" lon="9.6027633"><ele>282.0</ele><time>2026-04-25T07:26:33.229Z</time></trkpt><trkpt lat="45.7599883" lon="9.6026817"><ele>281.6</ele><time>2026-04-25T07:26:34.229Z</time></trkpt><trkpt lat="45.760025" lon="9.6026033"><ele>281.2</ele><time>2026-04-25T07:26:36.228Z</time></trkpt><trkpt lat="45.7600517" lon="9.60249"><ele>280.8</ele><time>2026-04-25T07:27:45.227Z</time></trkpt><trkpt lat="45.76019" lon="9.6023517"><ele>280.4</ele><time>2026-04-25T07:27:48.227Z</time></trkpt><trkpt lat="45.760265" lon="9.60235"><ele>280.0</ele><time>2026-04-25T07:27:49.229Z</time></trkpt><trkpt lat="45.7603617" lon="9.6023683"><ele>280.0</ele><time>2026-04-25T07:27:50.229Z</time></trkpt><trkpt lat="45.7604833" lon="9.6024"><ele>280.0</ele><time>2026-04-25T07:27:51.23Z</time></trkpt><trkpt lat="45.76061" lon="9.6024383"><ele>280.0</ele><time>2026-04-25T07:27:52.23Z</time></trkpt><trkpt lat="45.760735" lon="9.6024733"><ele>280.0</ele><time>2026-04-25T07:27:53.231Z</time></trkpt><trkpt lat="45.7608633" lon="9.6025083"><ele>280.0</ele><time>2026-04-25T07:27:54.228Z</time></trkpt><trkpt lat="45.7609917" lon="9.602545"><ele>280.0</ele><time>2026-04-25T07:27:55.23Z</time></trkpt><trkpt lat="45.7611183" lon="9.60259"><ele>280.0</ele><time>2026-04-25T07:27:56.239Z</time></trkpt><trkpt lat="45.7612383" lon="9.6026467"><ele>280.0</ele><time>2026-04-25T07:27:57.229Z</time></trkpt><trkpt lat="45.7613617" lon="9.602715"><ele>277.75</ele><time>2026-04-25T07:27:58.229Z</time></trkpt><trkpt lat="45.7614817" lon="9.6027783"><ele>275.5</ele><time>2026-04-25T07:27:59.229Z</time></trkpt><trkpt lat="45.7616033" lon="9.6028233"><ele>273.25</ele><time>2026-04-25T07:28:00.23Z</time></trkpt><trkpt lat="45.7617317" lon="9.6028433"><ele>271.0</ele><time>2026-04-25T07:28:01.231Z</time></trkpt><trkpt lat="45.7618583" lon="9.60286"><ele>273.5</ele><time>2026-04-25T07:28:02.227Z</time></trkpt><trkpt lat="45.7619767" lon="9.6028717"><ele>276.0</ele><time>2026-04-25T07:28:03.23Z</time></trkpt><trkpt lat="45.7620883" lon="9.6028833"><ele>278.5</ele><time>2026-04-25T07:28:04.228Z</time></trkpt><trkpt lat="45.7622017" lon="9.602895"><ele>281.0</ele><time>2026-04-25T07:28:05.228Z</time></trkpt><trkpt lat="45.7623267" lon="9.6029067"><ele>281.0</ele><time>2026-04-25T07:28:06.228Z</time></trkpt><trkpt lat="45.7624483" lon="9.602935"><ele>281.0</ele><time>2026-04-25T07:28:07.228Z</time></trkpt><trkpt lat="45.7625683" lon="9.602975"><ele>281.0</ele><time>2026-04-25T07:28:08.229Z</time></trkpt><trkpt lat="45.762685" lon="9.6030383"><ele>281.0</ele><time>2026-04-25T07:28:09.228Z</time></trkpt><trkpt lat="45.7628017" lon="9.6031133"><ele>284.25</ele><time>2026-04-25T07:28:10.229Z</time></trkpt><trkpt lat="45.7629183" lon="9.6031983"><ele>287.5</ele><time>2026-04-25T07:28:11.228Z</time></trkpt><trkpt lat="45.7630283" lon="9.6032967"><ele>290.75</ele><time>2026-04-25T07:28:12.23Z</time></trkpt><trkpt lat="45.7631417" lon="9.6033933"><ele>294.0</ele><time>2026-04-25T07:28:13.23Z</time></trkpt><trkpt lat="45.7632667" lon="9.6034633"><ele>294.0</ele><time>2026-04-25T07:28:14.228Z</time></trkpt><trkpt lat="45.7633933" lon="9.6035167"><ele>294.0</ele><time>2026-04-25T07:28:15.23Z</time></trkpt><trkpt lat="45.7635217" lon="9.6035667"><ele>294.0</ele><time>2026-04-25T07:28:16.227Z</time></trkpt><trkpt lat="45.7636467" lon="9.6036233"><ele>294.0</ele><time>2026-04-25T07:28:17.227Z</time></trkpt><trkpt lat="45.7637617" lon="9.6036817"><ele>292.8</ele><time>2026-04-25T07:28:18.228Z</time></trkpt><trkpt lat="45.7638633" lon="9.60374"><ele>291.59999999999997</ele><time>2026-04-25T07:28:19.228Z</time></trkpt><trkpt lat="45.7639433" lon="9.6037983"><ele>290.4</ele><time>2026-04-25T07:28:20.228Z</time></trkpt><trkpt lat="45.7640233" lon="9.6038533"><ele>289.2</ele><time>2026-04-25T07:28:21.229Z</time></trkpt><trkpt lat="45.7641117" lon="9.60389"><ele>288.0</ele><time>2026-04-25T07:28:22.228Z</time></trkpt><trkpt lat="45.764205" lon="9.6038917"><ele>288.0</ele><time>2026-04-25T07:28:23.229Z</time></trkpt><trkpt lat="45.764295" lon="9.6038667"><ele>288.0</ele><time>2026-04-25T07:28:24.229Z</time></trkpt><trkpt lat="45.7643817" lon="9.6038433"><ele>288.0</ele><time>2026-04-25T07:28:25.228Z</time></trkpt><trkpt lat="45.7644617" lon="9.6038467"><ele>288.0</ele><time>2026-04-25T07:28:26.229Z</time></trkpt><trkpt lat="45.7645383" lon="9.6038817"><ele>288.0</ele><time>2026-04-25T07:28:27.23Z</time></trkpt><trkpt lat="45.7646317" lon="9.603915"><ele>288.0</ele><time>2026-04-25T07:28:28.23Z</time></trkpt><trkpt lat="45.7647433" lon="9.60393"><ele>287.5</ele><time>2026-04-25T07:28:29.228Z</time></trkpt><trkpt lat="45.764865" lon="9.6039217"><ele>287.0</ele><time>2026-04-25T07:28:30.228Z</time></trkpt><trkpt lat="45.7649967" lon="9.6038933"><ele>286.5</ele><time>2026-04-25T07:28:31.229Z</time></trkpt><trkpt lat="45.7651333" lon="9.6038417"><ele>286.0</ele><time>2026-04-25T07:28:32.231Z</time></trkpt><trkpt lat="45.7652583" lon="9.6037817"><ele>289.8</ele><time>2026-04-25T07:28:33.231Z</time></trkpt><trkpt lat="45.7653683" lon="9.6037217"><ele>293.6</ele><time>2026-04-25T07:28:34.227Z</time></trkpt><trkpt lat="45.7654633" lon="9.6036767"><ele>297.4</ele><time>2026-04-25T07:28:35.228Z</time></trkpt><trkpt lat="45.7655517" lon="9.60366"><ele>301.2</ele><time>2026-04-25T07:28:36.228Z</time></trkpt><trkpt lat="45.765635" lon="9.6036717"><ele>305.0</ele><time>2026-04-25T07:28:37.228Z</time></trkpt><trkpt lat="45.7657333" lon="9.6037"><ele>305.0</ele><time>2026-04-25T07:28:38.229Z</time></trkpt><trkpt lat="45.7658433" lon="9.60373"><ele>305.0</ele><time>2026-04-25T07:28:39.228Z</time></trkpt><trkpt lat="45.76595" lon="9.6037633"><ele>305.0</ele><time>2026-04-25T07:28:40.227Z</time></trkpt><trkpt lat="45.7660533" lon="9.6038133"><ele>305.0</ele><time>2026-04-25T07:28:41.227Z</time></trkpt><trkpt lat="45.7661533" lon="9.603885"><ele>305.0</ele><time>2026-04-25T07:28:42.229Z</time></trkpt><trkpt lat="45.7662567" lon="9.6039817"><ele>314.5</ele><time>2026-04-25T07:28:43.229Z</time></trkpt><trkpt lat="45.7663617" lon="9.6040867"><ele>324.0</ele><time>2026-04-25T07:28:44.23Z</time></trkpt><trkpt lat="45.766465" lon="9.6042067"><ele>333.5</ele><time>2026-04-25T07:28:45.233Z</time></trkpt><trkpt lat="45.7665717" lon="9.60434"><ele>343.0</ele><time>2026-04-25T07:28:46.229Z</time></trkpt><trkpt lat="45.76667" lon="9.60448"><ele>347.5</ele><time>2026-04-25T07:28:47.228Z</time></trkpt><trkpt lat="45.7667617" lon="9.6046233"><ele>352.0</ele><time>2026-04-25T07:28:48.229Z</time></trkpt><trkpt lat="45.7668517" lon="9.6047683"><ele>356.5</ele><time>2026-04-25T07:28:49.227Z</time></trkpt><trkpt lat="45.7669333" lon="9.60493"><ele>361.0</ele><time>2026-04-25T07:28:50.228Z</time></trkpt><trkpt lat="45.767" lon="9.6050883"><ele>361.0</ele><time>2026-04-25T07:28:51.23Z</time></trkpt><trkpt lat="45.7670583" lon="9.605265"><ele>361.0</ele><time>2026-04-25T07:28:52.227Z</time></trkpt><trkpt lat="45.7671" lon="9.6054317"><ele>361.0</ele><time>2026-04-25T07:28:53.228Z</time></trkpt><trkpt lat="45.7671333" lon="9.6055917"><ele>361.0</ele><time>2026-04-25T07:28:54.228Z</time></trkpt><trkpt lat="45.767155" lon="9.6057533"><ele>360.0</ele><time>2026-04-25T07:28:55.228Z</time></trkpt><trkpt lat="45.76716" lon="9.6058983"><ele>359.0</ele><time>2026-04-25T07:28:56.228Z</time></trkpt><trkpt lat="45.7671367" lon="9.6060367"><ele>358.0</ele><time>2026-04-25T07:28:57.228Z</time></trkpt><trkpt lat="45.7671" lon="9.6061883"><ele>357.0</ele><time>2026-04-25T07:28:58.227Z</time></trkpt><trkpt lat="45.7670567" lon="9.6063533"><ele>356.0</ele><time>2026-04-25T07:28:59.227Z</time></trkpt><trkpt lat="45.7670167" lon="9.6065233"><ele>355.25</ele><time>2026-04-25T07:29:00.228Z</time></trkpt><trkpt lat="45.76698" lon="9.6067"><ele>354.5</ele><time>2026-04-25T07:29:01.227Z</time></trkpt><trkpt lat="45.7669533" lon="9.6068817"><ele>353.75</ele><time>2026-04-25T07:29:02.229Z</time></trkpt><trkpt lat="45.7669367" lon="9.6070767"><ele>353.0</ele><time>2026-04-25T07:29:03.228Z</time></trkpt><trkpt lat="45.76694" lon="9.607275"><ele>351.5</ele><time>2026-04-25T07:29:04.227Z</time></trkpt><trkpt lat="45.7669617" lon="9.6074683"><ele>350.0</ele><time>2026-04-25T07:29:05.229Z</time></trkpt><trkpt lat="45.7669833" lon="9.6076517"><ele>348.5</ele><time>2026-04-25T07:29:06.229Z</time></trkpt><trkpt lat="45.7670167" lon="9.6078267"><ele>347.0</ele><time>2026-04-25T07:29:07.231Z</time></trkpt><trkpt lat="45.7670633" lon="9.6079933"><ele>339.5</ele><time>2026-04-25T07:29:08.228Z</time></trkpt><trkpt lat="45.7671233" lon="9.6081567"><ele>332.0</ele><time>2026-04-25T07:29:09.228Z</time></trkpt><trkpt lat="45.7671867" lon="9.6083083"><ele>324.5</ele><time>2026-04-25T07:29:10.227Z</time></trkpt><trkpt lat="45.7672683" lon="9.6084333"><ele>317.0</ele><time>2026-04-25T07:29:11.229Z</time></trkpt><trkpt lat="45.7673717" lon="9.6085317"><ele>317.0</ele><time>2026-04-25T07:29:12.227Z</time></trkpt><trkpt lat="45.7674967" lon="9.60861"><ele>317.0</ele><time>2026-04-25T07:29:13.227Z</time></trkpt><trkpt lat="45.7676417" lon="9.608675"><ele>317.0</ele><time>2026-04-25T07:29:14.227Z</time></trkpt><trkpt lat="45.7678017" lon="9.6087183"><ele>310.5</ele><time>2026-04-25T07:29:15.228Z</time></trkpt><trkpt lat="45.76796" lon="9.60875"><ele>304.0</ele><time>2026-04-25T07:29:16.227Z</time></trkpt><trkpt lat="45.7681" lon="9.608775"><ele>297.5</ele><time>2026-04-25T07:29:17.228Z</time></trkpt><trkpt lat="45.76824" lon="9.6087783"><ele>291.0</ele><time>2026-04-25T07:29:18.228Z</time></trkpt><trkpt lat="45.7683833" lon="9.608765"><ele>291.0</ele><time>2026-04-25T07:29:19.229Z</time></trkpt><trkpt lat="45.768515" lon="9.6087617"><ele>291.0</ele><time>2026-04-25T07:29:20.229Z</time></trkpt><trkpt lat="45.7686333" lon="9.6087917"><ele>291.0</ele><time>2026-04-25T07:29:21.232Z</time></trkpt><trkpt lat="45.7687517" lon="9.6088483"><ele>291.0</ele><time>2026-04-25T07:29:22.229Z</time></trkpt><trkpt lat="45.7688833" lon="9.60891"><ele>295.6666666666667</ele><time>2026-04-25T07:29:23.229Z</time></trkpt><trkpt lat="45.76903" lon="9.608965"><ele>300.33333333333337</ele><time>2026-04-25T07:29:24.229Z</time></trkpt><trkpt lat="45.7691867" lon="9.6090033"><ele>305.0</ele><time>2026-04-25T07:29:25.23Z</time></trkpt><trkpt lat="45.76934" lon="9.6090417"><ele>307.2</ele><time>2026-04-25T07:29:26.23Z</time></trkpt><trkpt lat="45.7694717" lon="9.60907"><ele>309.4</ele><time>2026-04-25T07:29:27.232Z</time></trkpt><trkpt lat="45.7695783" lon="9.6090983"><ele>311.6</ele><time>2026-04-25T07:29:28.232Z</time></trkpt><trkpt lat="45.7696667" lon="9.6091433"><ele>313.8</ele><time>2026-04-25T07:29:29.23Z</time></trkpt><trkpt lat="45.7697483" lon="9.6092017"><ele>316.0</ele><time>2026-04-25T07:29:30.23Z</time></trkpt><trkpt lat="45.7698217" lon="9.60929"><ele>316.0</ele><time>2026-04-25T07:29:31.23Z</time></trkpt><trkpt lat="45.7699017" lon="9.609395"><ele>316.0</ele><time>2026-04-25T07:29:32.229Z</time></trkpt><trkpt lat="45.7699867" lon="9.6094833"><ele>316.0</ele><time>2026-04-25T07:29:33.233Z</time></trkpt><trkpt lat="45.7700883" lon="9.6095283"><ele>316.0</ele><time>2026-04-25T07:29:34.231Z</time></trkpt><trkpt lat="45.7702033" lon="9.60952"><ele>316.0</ele><time>2026-04-25T07:29:35.229Z</time></trkpt><trkpt lat="45.7703183" lon="9.6094867"><ele>318.75</ele><time>2026-04-25T07:29:36.229Z</time></trkpt><trkpt lat="45.77044" lon="9.60945"><ele>321.5</ele><time>2026-04-25T07:29:37.23Z</time></trkpt><trkpt lat="45.7705617" lon="9.6094417"><ele>324.25</ele><time>2026-04-25T07:29:38.23Z</time></trkpt><trkpt lat="45.770685" lon="9.6094583"><ele>327.0</ele><time>2026-04-25T07:29:39.23Z</time></trkpt><trkpt lat="45.7708217" lon="9.609485"><ele>317.6666666666667</ele><time>2026-04-25T07:29:40.229Z</time></trkpt><trkpt lat="45.77097" lon="9.6095183"><ele>308.33333333333337</ele><time>2026-04-25T07:29:41.229Z</time></trkpt><trkpt lat="45.7711233" lon="9.6095567"><ele>299.0</ele><time>2026-04-25T07:29:42.231Z</time></trkpt><trkpt lat="45.771285" lon="9.6096017"><ele>299.0</ele><time>2026-04-25T07:29:43.231Z</time></trkpt><trkpt lat="45.7714467" lon="9.6096533"><ele>299.0</ele><time>2026-04-25T07:29:44.229Z</time></trkpt><trkpt lat="45.7716083" lon="9.6097067"><ele>299.0</ele><time>2026-04-25T07:29:45.231Z</time></trkpt><trkpt lat="45.7717733" lon="9.6097617"><ele>303.6666666666667</ele><time>2026-04-25T07:29:46.229Z</time></trkpt><trkpt lat="45.7719433" lon="9.6098133"><ele>308.3333333333333</ele><time>2026-04-25T07:29:47.229Z</time></trkpt><trkpt lat="45.7721183" lon="9.6098617"><ele>313.0</ele><time>2026-04-25T07:29:48.232Z</time></trkpt><trkpt lat="45.77229" lon="9.609915"><ele>313.0</ele><time>2026-04-25T07:29:49.233Z</time></trkpt><trkpt lat="45.7724667" lon="9.6099683"><ele>313.0</ele><time>2026-04-25T07:29:50.233Z</time></trkpt><trkpt lat="45.7726383" lon="9.6100217"><ele>313.0</ele><time>2026-04-25T07:29:51.231Z</time></trkpt><trkpt lat="45.7728067" lon="9.6100717"><ele>312.66666666666663</ele><time>2026-04-25T07:29:52.23Z</time></trkpt><trkpt lat="45.7729683" lon="9.6101217"><ele>312.3333333333333</ele><time>2026-04-25T07:29:53.229Z</time></trkpt><trkpt lat="45.77312" lon="9.6101683"><ele>312.0</ele><time>2026-04-25T07:29:54.231Z</time></trkpt><trkpt lat="45.7732617" lon="9.610215"><ele>312.0</ele><time>2026-04-25T07:29:55.227Z</time></trkpt><trkpt lat="45.7733967" lon="9.6102583"><ele>312.0</ele><time>2026-04-25T07:29:56.228Z</time></trkpt><trkpt lat="45.773525" lon="9.6103"><ele>312.0</ele><time>2026-04-25T07:29:57.227Z</time></trkpt><trkpt lat="45.77365" lon="9.61034"><ele>312.0</ele><time>2026-04-25T07:29:58.227Z</time></trkpt><trkpt lat="45.7737717" lon="9.61037"><ele>310.25</ele><time>2026-04-25T07:29:59.229Z</time></trkpt><trkpt lat="45.77389" lon="9.6103733"><ele>308.5</ele><time>2026-04-25T07:30:00.231Z</time></trkpt><trkpt lat="45.7740067" lon="9.610335"><ele>306.75</ele><time>2026-04-25T07:30:01.23Z</time></trkpt><trkpt lat="45.7741267" lon="9.6102617"><ele>305.0</ele><time>2026-04-25T07:30:02.229Z</time></trkpt><trkpt lat="45.7742517" lon="9.6101583"><ele>301.0</ele><time>2026-04-25T07:30:03.23Z</time></trkpt><trkpt lat="45.774385" lon="9.6100433"><ele>297.0</ele><time>2026-04-25T07:30:04.23Z</time></trkpt><trkpt lat="45.774525" lon="9.6099233"><ele>293.0</ele><time>2026-04-25T07:30:05.229Z</time></trkpt><trkpt lat="45.7746633" lon="9.609805"><ele>293.0</ele><time>2026-04-25T07:30:06.23Z</time></trkpt><trkpt lat="45.7748" lon="9.6096967"><ele>293.0</ele><time>2026-04-25T07:30:07.231Z</time></trkpt><trkpt lat="45.7749317" lon="9.6096017"><ele>293.0</ele><time>2026-04-25T07:30:08.231Z</time></trkpt><trkpt lat="45.7750633" lon="9.6095317"><ele>293.0</ele><time>2026-04-25T07:30:09.23Z</time></trkpt><trkpt lat="45.7752033" lon="9.6094867"><ele>300.6666666666667</ele><time>2026-04-25T07:30:10.23Z</time></trkpt><trkpt lat="45.7753533" lon="9.6094533"><ele>308.3333333333333</ele><time>2026-04-25T07:30:11.23Z</time></trkpt><trkpt lat="45.7755183" lon="9.609405"><ele>316.0</ele><time>2026-04-25T07:30:12.229Z</time></trkpt><trkpt lat="45.77569" lon="9.6093333"><ele>316.0</ele><time>2026-04-25T07:30:13.23Z</time></trkpt><trkpt lat="45.7758667" lon="9.60925"><ele>316.0</ele><time>2026-04-25T07:30:14.228Z</time></trkpt><trkpt lat="45.7760417" lon="9.6091567"><ele>316.0</ele><time>2026-04-25T07:30:15.229Z</time></trkpt><trkpt lat="45.7762117" lon="9.60907"><ele>309.3333333333333</ele><time>2026-04-25T07:30:16.231Z</time></trkpt><trkpt lat="45.7763767" lon="9.609"><ele>302.6666666666667</ele><time>2026-04-25T07:30:17.23Z</time></trkpt><trkpt lat="45.7765333" lon="9.6089567"><ele>296.0</ele><time>2026-04-25T07:30:18.229Z</time></trkpt><trkpt lat="45.77668" lon="9.6089217"><ele>296.0</ele><time>2026-04-25T07:30:19.229Z</time></trkpt><trkpt lat="45.77682" lon="9.6088767"><ele>296.0</ele><time>2026-04-25T07:30:20.231Z</time></trkpt><trkpt lat="45.7769517" lon="9.6088233"><ele>296.0</ele><time>2026-04-25T07:30:21.231Z</time></trkpt><trkpt lat="45.7770733" lon="9.6087783"><ele>296.0</ele><time>2026-04-25T07:30:22.23Z</time></trkpt><trkpt lat="45.7771933" lon="9.6087333"><ele>295.40000000000003</ele><time>2026-04-25T07:30:23.227Z</time></trkpt><trkpt lat="45.7773033" lon="9.6087433"><ele>294.8</ele><time>2026-04-25T07:30:24.227Z</time></trkpt><trkpt lat="45.7774" lon="9.60879"><ele>294.20000000000005</ele><time>2026-04-25T07:30:25.228Z</time></trkpt><trkpt lat="45.777485" lon="9.608885"><ele>293.6</ele><time>2026-04-25T07:30:26.228Z</time></trkpt><trkpt lat="45.7775783" lon="9.6089933"><ele>293.0</ele><time>2026-04-25T07:30:27.231Z</time></trkpt><trkpt lat="45.7776817" lon="9.6090983"><ele>306.75</ele><time>2026-04-25T07:30:28.228Z</time></trkpt><trkpt lat="45.7778017" lon="9.6091783"><ele>320.5</ele><time>2026-04-25T07:30:29.228Z</time></trkpt><trkpt lat="45.77793" lon="9.6092517"><ele>334.25</ele><time>2026-04-25T07:30:30.229Z</time></trkpt><trkpt lat="45.7780533" lon="9.6093283"><ele>348.0</ele><time>2026-04-25T07:30:31.233Z</time></trkpt><trkpt lat="45.7781633" lon="9.6094117"><ele>352.25</ele><time>2026-04-25T07:30:32.23Z</time></trkpt><trkpt lat="45.7782717" lon="9.60952"><ele>356.5</ele><time>2026-04-25T07:30:33.23Z</time></trkpt><trkpt lat="45.77838" lon="9.609635"><ele>360.75</ele><time>2026-04-25T07:30:34.229Z</time></trkpt><trkpt lat="45.7784933" lon="9.6097567"><ele>365.0</ele><time>2026-04-25T07:30:35.23Z</time></trkpt><trkpt lat="45.7786033" lon="9.6099067"><ele>365.0</ele><time>2026-04-25T07:30:36.23Z</time></trkpt><trkpt lat="45.7787183" lon="9.6100717"><ele>365.0</ele><time>2026-04-25T07:30:37.229Z</time></trkpt><trkpt lat="45.7788317" lon="9.610235"><ele>365.0</ele><time>2026-04-25T07:30:38.231Z</time></trkpt><trkpt lat="45.778935" lon="9.6103817"><ele>361.5</ele><time>2026-04-25T07:30:39.232Z</time></trkpt><trkpt lat="45.7790367" lon="9.6104983"><ele>358.0</ele><time>2026-04-25T07:30:40.229Z</time></trkpt><trkpt lat="45.7791417" lon="9.6105817"><ele>354.5</ele><time>2026-04-25T07:30:41.232Z</time></trkpt><trkpt lat="45.7792617" lon="9.6106383"><ele>351.0</ele><time>2026-04-25T07:30:42.23Z</time></trkpt><trkpt lat="45.7793917" lon="9.6106917"><ele>351.0</ele><time>2026-04-25T07:30:43.227Z</time></trkpt><trkpt lat="45.779525" lon="9.61076"><ele>351.0</ele><time>2026-04-25T07:30:44.232Z</time></trkpt><trkpt lat="45.7796567" lon="9.610825"><ele>351.0</ele><time>2026-04-25T07:30:45.229Z</time></trkpt><trkpt lat="45.7797833" lon="9.6108933"><ele>351.0</ele><time>2026-04-25T07:30:46.227Z</time></trkpt><trkpt lat="45.7798867" lon="9.61098"><ele>351.0</ele><time>2026-04-25T07:30:47.229Z</time></trkpt><trkpt lat="45.7799817" lon="9.6110683"><ele>351.0</ele><time>2026-04-25T07:30:48.228Z</time></trkpt><trkpt lat="45.780085" lon="9.6111333"><ele>351.0</ele><time>2026-04-25T07:30:49.228Z</time></trkpt><trkpt lat="45.7802033" lon="9.6111633"><ele>351.0</ele><time>2026-04-25T07:30:50.228Z</time></trkpt><trkpt lat="45.7803267" lon="9.6111783"><ele>351.0</ele><time>2026-04-25T07:30:51.229Z</time></trkpt><trkpt lat="45.7804517" lon="9.6112117"><ele>351.0</ele><time>2026-04-25T07:30:52.227Z</time></trkpt><trkpt lat="45.7805667" lon="9.6112867"><ele>351.0</ele><time>2026-04-25T07:30:53.227Z</time></trkpt><trkpt lat="45.780675" lon="9.611395"><ele>351.0</ele><time>2026-04-25T07:30:54.229Z</time></trkpt><trkpt lat="45.78078" lon="9.6115067"><ele>351.0</ele><time>2026-04-25T07:30:55.229Z</time></trkpt><trkpt lat="45.7808767" lon="9.6116183"><ele>351.0</ele><time>2026-04-25T07:30:56.227Z</time></trkpt><trkpt lat="45.780955" lon="9.6117283"><ele>351.0</ele><time>2026-04-25T07:30:57.229Z</time></trkpt><trkpt lat="45.7810133" lon="9.6118317"><ele>351.0</ele><time>2026-04-25T07:30:58.229Z</time></trkpt><trkpt lat="45.78106" lon="9.611945"><ele>351.0</ele><time>2026-04-25T07:30:59.229Z</time></trkpt><trkpt lat="45.781105" lon="9.61209"><ele>353.75</ele><time>2026-04-25T07:31:00.228Z</time></trkpt><trkpt lat="45.7811483" lon="9.6122583"><ele>356.5</ele><time>2026-04-25T07:31:01.229Z</time></trkpt><trkpt lat="45.7811833" lon="9.6124383"><ele>359.25</ele><time>2026-04-25T07:31:02.23Z</time></trkpt><trkpt lat="45.7812117" lon="9.6126083"><ele>362.0</ele><time>2026-04-25T07:31:03.227Z</time></trkpt><trkpt lat="45.7812433" lon="9.6127617"><ele>356.40000000000003</ele><time>2026-04-25T07:31:04.227Z</time></trkpt><trkpt lat="45.78129" lon="9.6129017"><ele>350.8</ele><time>2026-04-25T07:31:05.229Z</time></trkpt><trkpt lat="45.7813517" lon="9.61303"><ele>345.2</ele><time>2026-04-25T07:31:06.229Z</time></trkpt><trkpt lat="45.78142" lon="9.6131633"><ele>339.6</ele><time>2026-04-25T07:31:07.228Z</time></trkpt><trkpt lat="45.78149" lon="9.6132967"><ele>334.0</ele><time>2026-04-25T07:31:08.228Z</time></trkpt><trkpt lat="45.78156" lon="9.6134267"><ele>334.0</ele><time>2026-04-25T07:31:09.229Z</time></trkpt><trkpt lat="45.78163" lon="9.6135417"><ele>334.0</ele><time>2026-04-25T07:31:10.228Z</time></trkpt><trkpt lat="45.781705" lon="9.6136333"><ele>334.0</ele><time>2026-04-25T07:31:11.228Z</time></trkpt><trkpt lat="45.78178" lon="9.6137"><ele>334.0</ele><time>2026-04-25T07:31:12.228Z</time></trkpt><trkpt lat="45.78186" lon="9.6137483"><ele>334.0</ele><time>2026-04-25T07:31:13.228Z</time></trkpt><trkpt lat="45.7819483" lon="9.61378"><ele>335.0</ele><time>2026-04-25T07:31:14.228Z</time></trkpt><trkpt lat="45.7820433" lon="9.61382"><ele>336.0</ele><time>2026-04-25T07:31:15.232Z</time></trkpt><trkpt lat="45.782135" lon="9.6138717"><ele>337.0</ele><time>2026-04-25T07:31:16.227Z</time></trkpt><trkpt lat="45.782215" lon="9.613935"><ele>338.0</ele><time>2026-04-25T07:31:17.229Z</time></trkpt><trkpt lat="45.7822867" lon="9.6140033"><ele>339.0</ele><time>2026-04-25T07:31:18.227Z</time></trkpt><trkpt lat="45.7823483" lon="9.6140933"><ele>339.0</ele><time>2026-04-25T07:31:19.228Z</time></trkpt><trkpt lat="45.7823783" lon="9.6142183"><ele>339.0</ele><time>2026-04-25T07:31:20.229Z</time></trkpt><trkpt lat="45.78239" lon="9.61435"><ele>339.0</ele><time>2026-04-25T07:31:21.228Z</time></trkpt><trkpt lat="45.7823833" lon="9.61448"><ele>339.0</ele><time>2026-04-25T07:31:22.23Z</time></trkpt><trkpt lat="45.7823583" lon="9.6146133"><ele>339.0</ele><time>2026-04-25T07:31:23.229Z</time></trkpt><trkpt lat="45.782325" lon="9.6147517"><ele>338.79999999999995</ele><time>2026-04-25T07:31:24.227Z</time></trkpt><trkpt lat="45.7822883" lon="9.6148933"><ele>338.59999999999997</ele><time>2026-04-25T07:31:25.228Z</time></trkpt><trkpt lat="45.78225" lon="9.6150433"><ele>338.4</ele><time>2026-04-25T07:31:26.228Z</time></trkpt><trkpt lat="45.7822083" lon="9.6151883"><ele>338.2</ele><time>2026-04-25T07:31:27.23Z</time></trkpt><trkpt lat="45.7821817" lon="9.61532"><ele>338.0</ele><time>2026-04-25T07:31:28.228Z</time></trkpt><trkpt lat="45.7821533" lon="9.6154433"><ele>339.1666666666667</ele><time>2026-04-25T07:31:29.23Z</time></trkpt><trkpt lat="45.782125" lon="9.615555"><ele>340.33333333333337</ele><time>2026-04-25T07:31:30.231Z</time></trkpt><trkpt lat="45.7820967" lon="9.6156533"><ele>341.5</ele><time>2026-04-25T07:31:31.23Z</time></trkpt><trkpt lat="45.7820783" lon="9.6157433"><ele>342.6666666666667</ele><time>2026-04-25T07:31:32.23Z</time></trkpt><trkpt lat="45.78206" lon="9.61589"><ele>343.8333333333333</ele><time>2026-04-25T07:31:34.23Z</time></trkpt><trkpt lat="45.782055" lon="9.61601"><ele>345.0</ele><time>2026-04-25T07:31:37.229Z</time></trkpt><trkpt lat="45.7820483" lon="9.61612"><ele>344.0</ele><time>2026-04-25T07:31:39.231Z</time></trkpt><trkpt lat="45.7820483" lon="9.616265"><ele>343.0</ele><time>2026-04-25T07:31:41.232Z</time></trkpt><trkpt lat="45.7820483" lon="9.61639"><ele>342.0</ele><time>2026-04-25T07:31:43.228Z</time></trkpt><trkpt lat="45.7820483" lon="9.6165083"><ele>341.0</ele><time>2026-04-25T07:31:45.229Z</time></trkpt><trkpt lat="45.7820517" lon="9.6166583"><ele>340.0</ele><time>2026-04-25T07:31:47.228Z</time></trkpt><trkpt lat="45.7820583" lon="9.6168467"><ele>340.0</ele><time>2026-04-25T07:31:49.228Z</time></trkpt><trkpt lat="45.78206" lon="9.616955"><ele>340.0</ele><time>2026-04-25T07:31:50.23Z</time></trkpt><trkpt lat="45.7820617" lon="9.6170633"><ele>340.0</ele><time>2026-04-25T07:31:51.23Z</time></trkpt><trkpt lat="45.7820633" lon="9.61717"><ele>340.0</ele><time>2026-04-25T07:31:52.228Z</time></trkpt><trkpt lat="45.7820617" lon="9.617275"><ele>340.0</ele><time>2026-04-25T07:31:53.228Z</time></trkpt><trkpt lat="45.78206" lon="9.6173883"><ele>340.0</ele><time>2026-04-25T07:31:54.229Z</time></trkpt><trkpt lat="45.7820567" lon="9.6175133"><ele>340.4</ele><time>2026-04-25T07:31:55.228Z</time></trkpt><trkpt lat="45.7820567" lon="9.61765"><ele>340.8</ele><time>2026-04-25T07:31:56.227Z</time></trkpt><trkpt lat="45.7820583" lon="9.6177933"><ele>341.20000000000005</ele><time>2026-04-25T07:31:57.23Z</time></trkpt><trkpt lat="45.7820583" lon="9.6179383"><ele>341.6</ele><time>2026-04-25T07:31:58.227Z</time></trkpt><trkpt lat="45.78206" lon="9.61807"><ele>342.0</ele><time>2026-04-25T07:31:59.23Z</time></trkpt><trkpt lat="45.7820617" lon="9.6181917"><ele>342.5</ele><time>2026-04-25T07:32:00.228Z</time></trkpt><trkpt lat="45.78206" lon="9.6183"><ele>343.0</ele><time>2026-04-25T07:32:01.228Z</time></trkpt><trkpt lat="45.7820567" lon="9.6183967"><ele>343.5</ele><time>2026-04-25T07:32:02.228Z</time></trkpt><trkpt lat="45.7820483" lon="9.6185467"><ele>344.0</ele><time>2026-04-25T07:32:04.228Z</time></trkpt><trkpt lat="45.7820433" lon="9.6186767"><ele>344.5</ele><time>2026-04-25T07:32:06.228Z</time></trkpt><trkpt lat="45.782045" lon="9.6187983"><ele>345.0</ele><time>2026-04-25T07:32:08.228Z</time></trkpt><trkpt lat="45.78205" lon="9.6189367"><ele>346.0</ele><time>2026-04-25T07:32:10.227Z</time></trkpt><trkpt lat="45.78206" lon="9.6190267"><ele>347.0</ele><time>2026-04-25T07:32:11.23Z</time></trkpt><trkpt lat="45.7820717" lon="9.6191367"><ele>348.0</ele><time>2026-04-25T07:32:12.229Z</time></trkpt><trkpt lat="45.7820783" lon="9.61925"><ele>349.0</ele><time>2026-04-25T07:32:13.228Z</time></trkpt><trkpt lat="45.7820783" lon="9.61937"><ele>350.0</ele><time>2026-04-25T07:32:14.23Z</time></trkpt><trkpt lat="45.78208" lon="9.6194933"><ele>351.0</ele><time>2026-04-25T07:32:15.229Z</time></trkpt><trkpt lat="45.7820867" lon="9.6196217"><ele>352.20000000000005</ele><time>2026-04-25T07:32:16.229Z</time></trkpt><trkpt lat="45.7821083" lon="9.6197467"><ele>353.40000000000003</ele><time>2026-04-25T07:32:17.227Z</time></trkpt><trkpt lat="45.7821533" lon="9.6198633"><ele>354.6</ele><time>2026-04-25T07:32:18.228Z</time></trkpt><trkpt lat="45.7822033" lon="9.6199817"><ele>355.8</ele><time>2026-04-25T07:32:19.228Z</time></trkpt><trkpt lat="45.782255" lon="9.620115"><ele>357.0</ele><time>2026-04-25T07:32:20.228Z</time></trkpt><trkpt lat="45.782305" lon="9.6202583"><ele>353.0</ele><time>2026-04-25T07:32:21.229Z</time></trkpt><trkpt lat="45.782365" lon="9.6204033"><ele>349.0</ele><time>2026-04-25T07:32:22.229Z</time></trkpt><trkpt lat="45.78242" lon="9.62055"><ele>345.0</ele><time>2026-04-25T07:32:23.229Z</time></trkpt><trkpt lat="45.782475" lon="9.6206967"><ele>341.0</ele><time>2026-04-25T07:32:24.229Z</time></trkpt><trkpt lat="45.78253" lon="9.6208467"><ele>341.0</ele><time>2026-04-25T07:32:25.229Z</time></trkpt><trkpt lat="45.7825533" lon="9.62109"><ele>341.0</ele><time>2026-04-25T07:32:26.229Z</time></trkpt><trkpt lat="45.7825783" lon="9.62138"><ele>341.0</ele><time>2026-04-25T07:32:27.23Z</time></trkpt><trkpt lat="45.782625" lon="9.6215783"><ele>340.25</ele><time>2026-04-25T07:32:28.23Z</time></trkpt><trkpt lat="45.78269" lon="9.6217383"><ele>339.5</ele><time>2026-04-25T07:32:29.229Z</time></trkpt><trkpt lat="45.7827617" lon="9.62188"><ele>338.75</ele><time>2026-04-25T07:32:30.233Z</time></trkpt><trkpt lat="45.7828267" lon="9.6220033"><ele>338.0</ele><time>2026-04-25T07:32:31.233Z</time></trkpt><trkpt lat="45.7828783" lon="9.6221217"><ele>338.0</ele><time>2026-04-25T07:32:32.23Z</time></trkpt><trkpt lat="45.7829217" lon="9.6222333"><ele>338.0</ele><time>2026-04-25T07:32:33.233Z</time></trkpt><trkpt lat="45.78296" lon="9.622345"><ele>338.0</ele><time>2026-04-25T07:32:34.23Z</time></trkpt><trkpt lat="45.783015" lon="9.6224367"><ele>338.0</ele><time>2026-04-25T07:32:35.231Z</time></trkpt><trkpt lat="45.783095" lon="9.6224983"><ele>338.0</ele><time>2026-04-25T07:32:36.229Z</time></trkpt><trkpt lat="45.7831883" lon="9.6225533"><ele>338.0</ele><time>2026-04-25T07:32:37.23Z</time></trkpt><trkpt lat="45.7832767" lon="9.6226183"><ele>338.0</ele><time>2026-04-25T07:32:38.23Z</time></trkpt><trkpt lat="45.7833567" lon="9.62271"><ele>338.0</ele><time>2026-04-25T07:32:39.231Z</time></trkpt><trkpt lat="45.783425" lon="9.6228133"><ele>338.0</ele><time>2026-04-25T07:32:40.23Z</time></trkpt><trkpt lat="45.783475" lon="9.6229417"><ele>338.0</ele><time>2026-04-25T07:32:41.23Z</time></trkpt><trkpt lat="45.78352" lon="9.6230817"><ele>343.4</ele><time>2026-04-25T07:32:42.229Z</time></trkpt><trkpt lat="45.7835667" lon="9.6232167"><ele>348.79999999999995</ele><time>2026-04-25T07:32:43.23Z</time></trkpt><trkpt lat="45.7836167" lon="9.6233433"><ele>354.2</ele><time>2026-04-25T07:32:44.229Z</time></trkpt><trkpt lat="45.7836767" lon="9.62346"><ele>359.6</ele><time>2026-04-25T07:32:45.231Z</time></trkpt><trkpt lat="45.7837517" lon="9.6235533"><ele>365.0</ele><time>2026-04-25T07:32:46.23Z</time></trkpt><trkpt lat="45.7838283" lon="9.6236283"><ele>359.0</ele><time>2026-04-25T07:32:47.23Z</time></trkpt><trkpt lat="45.7839033" lon="9.6237133"><ele>353.0</ele><time>2026-04-25T07:32:48.229Z</time></trkpt><trkpt lat="45.7839617" lon="9.6238167"><ele>347.0</ele><time>2026-04-25T07:32:49.228Z</time></trkpt><trkpt lat="45.7840083" lon="9.6239333"><ele>341.0</ele><time>2026-04-25T07:32:50.227Z</time></trkpt><trkpt lat="45.78405" lon="9.6240633"><ele>335.0</ele><time>2026-04-25T07:32:51.228Z</time></trkpt><trkpt lat="45.7840867" lon="9.6241917"><ele>335.0</ele><time>2026-04-25T07:32:52.228Z</time></trkpt><trkpt lat="45.78413" lon="9.6243167"><ele>335.0</ele><time>2026-04-25T07:32:53.232Z</time></trkpt><trkpt lat="45.78418" lon="9.6244367"><ele>335.0</ele><time>2026-04-25T07:32:54.229Z</time></trkpt><trkpt lat="45.7842283" lon="9.6245633"><ele>335.0</ele><time>2026-04-25T07:32:55.228Z</time></trkpt><trkpt lat="45.7842733" lon="9.6246833"><ele>335.0</ele><time>2026-04-25T07:32:56.227Z</time></trkpt><trkpt lat="45.78431" lon="9.6248183"><ele>335.5</ele><time>2026-04-25T07:32:57.228Z</time></trkpt><trkpt lat="45.7843567" lon="9.6249817"><ele>336.0</ele><time>2026-04-25T07:32:58.227Z</time></trkpt><trkpt lat="45.7844233" lon="9.6251767"><ele>336.5</ele><time>2026-04-25T07:32:59.228Z</time></trkpt><trkpt lat="45.7845017" lon="9.6253817"><ele>337.0</ele><time>2026-04-25T07:33:00.228Z</time></trkpt><trkpt lat="45.7845667" lon="9.6255933"><ele>337.0</ele><time>2026-04-25T07:33:01.227Z</time></trkpt><trkpt lat="45.7846133" lon="9.6257917"><ele>337.0</ele><time>2026-04-25T07:33:02.227Z</time></trkpt><trkpt lat="45.7846417" lon="9.625965"><ele>337.0</ele><time>2026-04-25T07:33:03.23Z</time></trkpt><trkpt lat="45.78467" lon="9.62611"><ele>337.0</ele><time>2026-04-25T07:33:04.229Z</time></trkpt><trkpt lat="45.7847267" lon="9.6262233"><ele>328.5</ele><time>2026-04-25T07:33:05.228Z</time></trkpt><trkpt lat="45.7848167" lon="9.62631"><ele>320.0</ele><time>2026-04-25T07:33:06.228Z</time></trkpt><trkpt lat="45.7849267" lon="9.62637"><ele>311.5</ele><time>2026-04-25T07:33:07.227Z</time></trkpt><trkpt lat="45.7850367" lon="9.6264333"><ele>303.0</ele><time>2026-04-25T07:33:08.229Z</time></trkpt><trkpt lat="45.785145" lon="9.6265217"><ele>304.75</ele><time>2026-04-25T07:33:09.229Z</time></trkpt><trkpt lat="45.7852517" lon="9.6266517"><ele>306.5</ele><time>2026-04-25T07:33:10.229Z</time></trkpt><trkpt lat="45.7853567" lon="9.626805"><ele>308.25</ele><time>2026-04-25T07:33:11.229Z</time></trkpt><trkpt lat="45.7854583" lon="9.62695"><ele>310.0</ele><time>2026-04-25T07:33:12.231Z</time></trkpt><trkpt lat="45.7855583" lon="9.627095"><ele>310.0</ele><time>2026-04-25T07:33:13.229Z</time></trkpt><trkpt lat="45.78566" lon="9.6272433"><ele>310.0</ele><time>2026-04-25T07:33:14.23Z</time></trkpt><trkpt lat="45.78576" lon="9.6273983"><ele>310.0</ele><time>2026-04-25T07:33:15.227Z</time></trkpt><trkpt lat="45.785815" lon="9.6276017"><ele>310.0</ele><time>2026-04-25T07:33:16.228Z</time></trkpt><trkpt lat="45.7857417" lon="9.6278667"><ele>310.0</ele><time>2026-04-25T07:33:17.228Z</time></trkpt><trkpt lat="45.7857133" lon="9.6279683"><ele>310.0</ele><time>2026-04-25T07:33:18.229Z</time></trkpt><trkpt lat="45.7856917" lon="9.628125"><ele>310.0</ele><time>2026-04-25T07:33:19.228Z</time></trkpt><trkpt lat="45.7856483" lon="9.628265"><ele>310.0</ele><time>2026-04-25T07:33:20.229Z</time></trkpt><trkpt lat="45.78559" lon="9.6284083"><ele>310.0</ele><time>2026-04-25T07:33:21.231Z</time></trkpt><trkpt lat="45.78552" lon="9.6285467"><ele>310.0</ele><time>2026-04-25T07:33:22.23Z</time></trkpt><trkpt lat="45.78546" lon="9.6286583"><ele>310.0</ele><time>2026-04-25T07:33:23.228Z</time></trkpt><trkpt lat="45.7854183" lon="9.6287333"><ele>310.0</ele><time>2026-04-25T07:33:24.228Z</time></trkpt><trkpt lat="45.7853717" lon="9.6288217"><ele>310.0</ele><time>2026-04-25T07:33:26.23Z</time></trkpt><trkpt lat="45.7853233" lon="9.62891"><ele>310.0</ele><time>2026-04-25T07:33:28.23Z</time></trkpt><trkpt lat="45.78526" lon="9.6290083"><ele>310.0</ele><time>2026-04-25T07:33:31.231Z</time></trkpt><trkpt lat="45.7852033" lon="9.6291283"><ele>310.0</ele><time>2026-04-25T07:33:34.231Z</time></trkpt><trkpt lat="45.7851517" lon="9.6292183"><ele>310.0</ele><time>2026-04-25T07:33:37.23Z</time></trkpt><trkpt lat="45.785175" lon="9.6293133"><ele>310.0</ele><time>2026-04-25T07:33:44.231Z</time></trkpt><trkpt lat="45.7853017" lon="9.629375"><ele>310.0</ele><time>2026-04-25T07:33:46.228Z</time></trkpt><trkpt lat="45.7853817" lon="9.62943"><ele>310.0</ele><time>2026-04-25T07:33:47.228Z</time></trkpt><trkpt lat="45.7854667" lon="9.6294917"><ele>309.2</ele><time>2026-04-25T07:33:48.229Z</time></trkpt><trkpt lat="45.7855617" lon="9.6295517"><ele>308.4</ele><time>2026-04-25T07:33:49.231Z</time></trkpt><trkpt lat="45.7856683" lon="9.6296133"><ele>307.6</ele><time>2026-04-25T07:33:50.229Z</time></trkpt><trkpt lat="45.7857633" lon="9.629685"><ele>306.8</ele><time>2026-04-25T07:33:51.228Z</time></trkpt><trkpt lat="45.7858517" lon="9.6297617"><ele>306.0</ele><time>2026-04-25T07:33:52.229Z</time></trkpt><trkpt lat="45.785935" lon="9.6298333"><ele>306.0</ele><time>2026-04-25T07:33:53.228Z</time></trkpt><trkpt lat="45.78601" lon="9.6298983"><ele>306.0</ele><time>2026-04-25T07:33:54.227Z</time></trkpt><trkpt lat="45.7860817" lon="9.6299567"><ele>306.0</ele><time>2026-04-25T07:33:55.228Z</time></trkpt><trkpt lat="45.7861383" lon="9.6300117"><ele>306.0</ele><time>2026-04-25T07:33:56.231Z</time></trkpt><trkpt lat="45.7861917" lon="9.6300617"><ele>306.0</ele><time>2026-04-25T07:33:57.229Z</time></trkpt><trkpt lat="45.786275" lon="9.6301333"><ele>306.0</ele><time>2026-04-25T07:33:59.23Z</time></trkpt><trkpt lat="45.7863533" lon="9.6302017"><ele>304.8</ele><time>2026-04-25T07:34:01.231Z</time></trkpt><trkpt lat="45.78646" lon="9.630295"><ele>303.6</ele><time>2026-04-25T07:34:03.232Z</time></trkpt><trkpt lat="45.7865317" lon="9.630355"><ele>302.4</ele><time>2026-04-25T07:34:04.231Z</time></trkpt><trkpt lat="45.7866" lon="9.6304167"><ele>301.2</ele><time>2026-04-25T07:34:05.23Z</time></trkpt><trkpt lat="45.78667" lon="9.6304833"><ele>300.0</ele><time>2026-04-25T07:34:06.23Z</time></trkpt><trkpt lat="45.78674" lon="9.630545"><ele>299.4</ele><time>2026-04-25T07:34:07.231Z</time></trkpt><trkpt lat="45.7868217" lon="9.630605"><ele>298.8</ele><time>2026-04-25T07:34:08.231Z</time></trkpt><trkpt lat="45.786915" lon="9.63069"><ele>298.2</ele><time>2026-04-25T07:34:09.23Z</time></trkpt><trkpt lat="45.786985" lon="9.6307833"><ele>297.6</ele><time>2026-04-25T07:34:10.23Z</time></trkpt><trkpt lat="45.7870567" lon="9.6308867"><ele>297.0</ele><time>2026-04-25T07:34:11.232Z</time></trkpt><trkpt lat="45.7871283" lon="9.631005"><ele>302.75</ele><time>2026-04-25T07:34:12.23Z</time></trkpt><trkpt lat="45.7871817" lon="9.6311567"><ele>308.5</ele><time>2026-04-25T07:34:13.23Z</time></trkpt><trkpt lat="45.7872167" lon="9.631335"><ele>314.25</ele><time>2026-04-25T07:34:14.23Z</time></trkpt><trkpt lat="45.7872467" lon="9.6315267"><ele>320.0</ele><time>2026-04-25T07:34:15.231Z</time></trkpt><trkpt lat="45.7872667" lon="9.6317133"><ele>320.0</ele><time>2026-04-25T07:34:16.228Z</time></trkpt><trkpt lat="45.78728" lon="9.63191"><ele>320.0</ele><time>2026-04-25T07:34:17.228Z</time></trkpt><trkpt lat="45.7872883" lon="9.6321233"><ele>320.0</ele><time>2026-04-25T07:34:18.228Z</time></trkpt><trkpt lat="45.7873083" lon="9.6323383"><ele>320.0</ele><time>2026-04-25T07:34:19.228Z</time></trkpt><trkpt lat="45.7873517" lon="9.63255"><ele>322.0</ele><time>2026-04-25T07:34:20.229Z</time></trkpt><trkpt lat="45.7874017" lon="9.632765"><ele>324.0</ele><time>2026-04-25T07:34:21.228Z</time></trkpt><trkpt lat="45.787455" lon="9.6329817"><ele>326.0</ele><time>2026-04-25T07:34:22.229Z</time></trkpt><trkpt lat="45.787505" lon="9.633195"><ele>319.33333333333337</ele><time>2026-04-25T07:34:23.229Z</time></trkpt><trkpt lat="45.78755" lon="9.6334117"><ele>312.6666666666667</ele><time>2026-04-25T07:34:24.227Z</time></trkpt><trkpt lat="45.7875933" lon="9.6336283"><ele>306.0</ele><time>2026-04-25T07:34:25.229Z</time></trkpt><trkpt lat="45.7876333" lon="9.6338433"><ele>303.0</ele><time>2026-04-25T07:34:26.229Z</time></trkpt><trkpt lat="45.787675" lon="9.6340517"><ele>300.0</ele><time>2026-04-25T07:34:27.228Z</time></trkpt><trkpt lat="45.78773" lon="9.6342333"><ele>297.0</ele><time>2026-04-25T07:34:28.228Z</time></trkpt><trkpt lat="45.7877883" lon="9.6343967"><ele>294.0</ele><time>2026-04-25T07:34:29.229Z</time></trkpt><trkpt lat="45.7878467" lon="9.63454"><ele>305.0</ele><time>2026-04-25T07:34:30.227Z</time></trkpt><trkpt lat="45.787895" lon="9.63466"><ele>316.0</ele><time>2026-04-25T07:34:31.228Z</time></trkpt><trkpt lat="45.78794" lon="9.6347617"><ele>327.0</ele><time>2026-04-25T07:34:32.227Z</time></trkpt><trkpt lat="45.7879867" lon="9.63487"><ele>338.0</ele><time>2026-04-25T07:34:33.23Z</time></trkpt><trkpt lat="45.7880367" lon="9.6349933"><ele>349.0</ele><time>2026-04-25T07:34:34.228Z</time></trkpt><trkpt lat="45.788085" lon="9.635145"><ele>341.0</ele><time>2026-04-25T07:34:35.228Z</time></trkpt><trkpt lat="45.78813" lon="9.635325"><ele>333.0</ele><time>2026-04-25T07:34:36.229Z</time></trkpt><trkpt lat="45.7881717" lon="9.6355233"><ele>325.0</ele><time>2026-04-25T07:34:37.229Z</time></trkpt><trkpt lat="45.7882083" lon="9.63572"><ele>317.0</ele><time>2026-04-25T07:34:38.23Z</time></trkpt><trkpt lat="45.7882467" lon="9.6359067"><ele>317.0</ele><time>2026-04-25T07:34:39.23Z</time></trkpt><trkpt lat="45.788285" lon="9.6360833"><ele>317.0</ele><time>2026-04-25T07:34:40.229Z</time></trkpt><trkpt lat="45.788315" lon="9.6362667"><ele>317.0</ele><time>2026-04-25T07:34:41.232Z</time></trkpt><trkpt lat="45.78837" lon="9.6364267"><ele>317.0</ele><time>2026-04-25T07:34:42.232Z</time></trkpt><trkpt lat="45.7884467" lon="9.6365717"><ele>320.25</ele><time>2026-04-25T07:34:43.23Z</time></trkpt><trkpt lat="45.7885383" lon="9.6366917"><ele>323.5</ele><time>2026-04-25T07:34:44.229Z</time></trkpt><trkpt lat="45.7886167" lon="9.636835"><ele>326.75</ele><time>2026-04-25T07:34:45.231Z</time></trkpt><trkpt lat="45.7886883" lon="9.6369533"><ele>330.0</ele><time>2026-04-25T07:34:46.227Z</time></trkpt><trkpt lat="45.788765" lon="9.637095"><ele>321.75</ele><time>2026-04-25T07:34:47.227Z</time></trkpt><trkpt lat="45.7888433" lon="9.6372283"><ele>313.5</ele><time>2026-04-25T07:34:48.23Z</time></trkpt><trkpt lat="45.788915" lon="9.63736"><ele>305.25</ele><time>2026-04-25T07:34:49.23Z</time></trkpt><trkpt lat="45.788985" lon="9.637495"><ele>297.0</ele><time>2026-04-25T07:34:50.23Z</time></trkpt><trkpt lat="45.789055" lon="9.637635"><ele>297.0</ele><time>2026-04-25T07:34:51.231Z</time></trkpt><trkpt lat="45.7891117" lon="9.6377767"><ele>297.0</ele><time>2026-04-25T07:34:52.233Z</time></trkpt><trkpt lat="45.7891617" lon="9.63791"><ele>297.0</ele><time>2026-04-25T07:34:53.229Z</time></trkpt><trkpt lat="45.789205" lon="9.6380283"><ele>297.0</ele><time>2026-04-25T07:34:54.23Z</time></trkpt><trkpt lat="45.7892417" lon="9.6381483"><ele>297.0</ele><time>2026-04-25T07:34:55.229Z</time></trkpt><trkpt lat="45.7892667" lon="9.638265"><ele>296.5</ele><time>2026-04-25T07:34:56.23Z</time></trkpt><trkpt lat="45.7892833" lon="9.6383767"><ele>296.0</ele><time>2026-04-25T07:34:57.229Z</time></trkpt><trkpt lat="45.7892883" lon="9.638485"><ele>295.5</ele><time>2026-04-25T07:34:58.228Z</time></trkpt><trkpt lat="45.7892817" lon="9.6385917"><ele>295.0</ele><time>2026-04-25T07:34:59.228Z</time></trkpt><trkpt lat="45.7892733" lon="9.6387083"><ele>294.5</ele><time>2026-04-25T07:35:00.228Z</time></trkpt><trkpt lat="45.7892733" lon="9.6388417"><ele>294.0</ele><time>2026-04-25T07:35:01.228Z</time></trkpt><trkpt lat="45.7893033" lon="9.6389883"><ele>294.5</ele><time>2026-04-25T07:35:02.228Z</time></trkpt><trkpt lat="45.7893433" lon="9.639145"><ele>295.0</ele><time>2026-04-25T07:35:03.229Z</time></trkpt><trkpt lat="45.7893883" lon="9.6392917"><ele>295.5</ele><time>2026-04-25T07:35:04.228Z</time></trkpt><trkpt lat="45.78945" lon="9.6394267"><ele>296.0</ele><time>2026-04-25T07:35:05.228Z</time></trkpt><trkpt lat="45.7895367" lon="9.6395483"><ele>296.0</ele><time>2026-04-25T07:35:06.229Z</time></trkpt><trkpt lat="45.7896333" lon="9.63966"><ele>296.0</ele><time>2026-04-25T07:35:07.228Z</time></trkpt><trkpt lat="45.7897267" lon="9.63977"><ele>296.0</ele><time>2026-04-25T07:35:08.228Z</time></trkpt><trkpt lat="45.78981" lon="9.6398917"><ele>296.0</ele><time>2026-04-25T07:35:09.23Z</time></trkpt><trkpt lat="45.7898767" lon="9.64004"><ele>296.0</ele><time>2026-04-25T07:35:10.23Z</time></trkpt><trkpt lat="45.78994" lon="9.640205"><ele>296.0</ele><time>2026-04-25T07:35:11.23Z</time></trkpt><trkpt lat="45.790005" lon="9.6403817"><ele>296.0</ele><time>2026-04-25T07:35:12.229Z</time></trkpt><trkpt lat="45.79007" lon="9.6405633"><ele>296.0</ele><time>2026-04-25T07:35:13.227Z</time></trkpt><trkpt lat="45.7901367" lon="9.6407483"><ele>295.75</ele><time>2026-04-25T07:35:14.229Z</time></trkpt><trkpt lat="45.7902033" lon="9.6409333"><ele>295.5</ele><time>2026-04-25T07:35:15.229Z</time></trkpt><trkpt lat="45.79027" lon="9.6411133"><ele>295.25</ele><time>2026-04-25T07:35:16.228Z</time></trkpt><trkpt lat="45.7903317" lon="9.6412783"><ele>295.0</ele><time>2026-04-25T07:35:17.228Z</time></trkpt><trkpt lat="45.7903883" lon="9.6414233"><ele>295.0</ele><time>2026-04-25T07:35:18.23Z</time></trkpt><trkpt lat="45.79044" lon="9.6415567"><ele>295.0</ele><time>2026-04-25T07:35:19.231Z</time></trkpt><trkpt lat="45.7904883" lon="9.6416833"><ele>295.0</ele><time>2026-04-25T07:35:20.232Z</time></trkpt><trkpt lat="45.790535" lon="9.6418133"><ele>295.0</ele><time>2026-04-25T07:35:21.23Z</time></trkpt><trkpt lat="45.7905817" lon="9.6419483"><ele>295.0</ele><time>2026-04-25T07:35:22.231Z</time></trkpt><trkpt lat="45.790625" lon="9.6420933"><ele>294.5</ele><time>2026-04-25T07:35:23.23Z</time></trkpt><trkpt lat="45.790665" lon="9.64225"><ele>294.0</ele><time>2026-04-25T07:35:24.232Z</time></trkpt><trkpt lat="45.7907033" lon="9.6424117"><ele>293.5</ele><time>2026-04-25T07:35:25.229Z</time></trkpt><trkpt lat="45.7907367" lon="9.64258"><ele>293.0</ele><time>2026-04-25T07:35:26.229Z</time></trkpt><trkpt lat="45.790765" lon="9.6427517"><ele>293.0</ele><time>2026-04-25T07:35:27.231Z</time></trkpt><trkpt lat="45.7907917" lon="9.6429183"><ele>293.0</ele><time>2026-04-25T07:35:28.229Z</time></trkpt><trkpt lat="45.7908167" lon="9.6430683"><ele>293.0</ele><time>2026-04-25T07:35:29.232Z</time></trkpt><trkpt lat="45.7908383" lon="9.64319"><ele>293.0</ele><time>2026-04-25T07:35:30.228Z</time></trkpt><trkpt lat="45.790855" lon="9.6432817"><ele>293.0</ele><time>2026-04-25T07:35:31.228Z</time></trkpt><trkpt lat="45.7908867" lon="9.643435"><ele>293.0</ele><time>2026-04-25T07:35:33.23Z</time></trkpt><trkpt lat="45.790915" lon="9.64359"><ele>293.0</ele><time>2026-04-25T07:35:35.23Z</time></trkpt><trkpt lat="45.7909333" lon="9.6436883"><ele>293.0</ele><time>2026-04-25T07:35:36.228Z</time></trkpt><trkpt lat="45.7909533" lon="9.6437983"><ele>293.0</ele><time>2026-04-25T07:35:37.228Z</time></trkpt><trkpt lat="45.7909733" lon="9.643915"><ele>293.0</ele><time>2026-04-25T07:35:38.228Z</time></trkpt><trkpt lat="45.790995" lon="9.64404"><ele>293.0</ele><time>2026-04-25T07:35:39.229Z</time></trkpt><trkpt lat="45.7910233" lon="9.6441733"><ele>294.8</ele><time>2026-04-25T07:35:40.229Z</time></trkpt><trkpt lat="45.791055" lon="9.6443117"><ele>296.6</ele><time>2026-04-25T07:35:41.228Z</time></trkpt><trkpt lat="45.7910867" lon="9.6444433"><ele>298.4</ele><time>2026-04-25T07:35:42.229Z</time></trkpt><trkpt lat="45.79112" lon="9.6445717"><ele>300.2</ele><time>2026-04-25T07:35:43.228Z</time></trkpt><trkpt lat="45.7911567" lon="9.6447083"><ele>302.0</ele><time>2026-04-25T07:35:44.228Z</time></trkpt><trkpt lat="45.7911917" lon="9.64486"><ele>302.0</ele><time>2026-04-25T07:35:45.23Z</time></trkpt><trkpt lat="45.791225" lon="9.64501"><ele>302.0</ele><time>2026-04-25T07:35:46.229Z</time></trkpt><trkpt lat="45.79126" lon="9.6451583"><ele>302.0</ele><time>2026-04-25T07:35:47.228Z</time></trkpt><trkpt lat="45.7912933" lon="9.6452967"><ele>302.0</ele><time>2026-04-25T07:35:48.229Z</time></trkpt><trkpt lat="45.791325" lon="9.6454267"><ele>302.0</ele><time>2026-04-25T07:35:49.229Z</time></trkpt><trkpt lat="45.7913567" lon="9.6455517"><ele>301.2</ele><time>2026-04-25T07:35:50.23Z</time></trkpt><trkpt lat="45.7913883" lon="9.645675"><ele>300.4</ele><time>2026-04-25T07:35:51.228Z</time></trkpt><trkpt lat="45.7914217" lon="9.6458083"><ele>299.6</ele><time>2026-04-25T07:35:52.232Z</time></trkpt><trkpt lat="45.7914517" lon="9.645935"><ele>298.8</ele><time>2026-04-25T07:35:53.228Z</time></trkpt><trkpt lat="45.7914817" lon="9.6460583"><ele>298.0</ele><time>2026-04-25T07:35:54.228Z</time></trkpt><trkpt lat="45.79151" lon="9.6461867"><ele>298.0</ele><time>2026-04-25T07:35:55.228Z</time></trkpt><trkpt lat="45.7915383" lon="9.6463217"><ele>298.0</ele><time>2026-04-25T07:35:56.228Z</time></trkpt><trkpt lat="45.7915667" lon="9.6464567"><ele>298.0</ele><time>2026-04-25T07:35:57.229Z</time></trkpt><trkpt lat="45.7915933" lon="9.6465867"><ele>298.0</ele><time>2026-04-25T07:35:58.228Z</time></trkpt><trkpt lat="45.7916183" lon="9.6467083"><ele>298.0</ele><time>2026-04-25T07:35:59.229Z</time></trkpt><trkpt lat="45.7916417" lon="9.6468267"><ele>298.0</ele><time>2026-04-25T07:36:00.23Z</time></trkpt><trkpt lat="45.791665" lon="9.6469367"><ele>298.0</ele><time>2026-04-25T07:36:01.228Z</time></trkpt><trkpt lat="45.7916867" lon="9.6470433"><ele>298.0</ele><time>2026-04-25T07:36:02.228Z</time></trkpt><trkpt lat="45.7917067" lon="9.6471433"><ele>298.0</ele><time>2026-04-25T07:36:03.228Z</time></trkpt><trkpt lat="45.791725" lon="9.6472367"><ele>298.0</ele><time>2026-04-25T07:36:04.227Z</time></trkpt><trkpt lat="45.7917433" lon="9.6473317"><ele>298.0</ele><time>2026-04-25T07:36:05.227Z</time></trkpt><trkpt lat="45.791765" lon="9.64744"><ele>298.0</ele><time>2026-04-25T07:36:06.228Z</time></trkpt><trkpt lat="45.7917867" lon="9.6475667"><ele>297.8</ele><time>2026-04-25T07:36:07.231Z</time></trkpt><trkpt lat="45.79181" lon="9.647705"><ele>297.6</ele><time>2026-04-25T07:36:08.228Z</time></trkpt><trkpt lat="45.7918367" lon="9.6478533"><ele>297.4</ele><time>2026-04-25T07:36:09.23Z</time></trkpt><trkpt lat="45.7918633" lon="9.6480167"><ele>297.2</ele><time>2026-04-25T07:36:10.228Z</time></trkpt><trkpt lat="45.7918933" lon="9.6481883"><ele>297.0</ele><time>2026-04-25T07:36:11.228Z</time></trkpt><trkpt lat="45.7919233" lon="9.648375"><ele>299.5</ele><time>2026-04-25T07:36:12.227Z</time></trkpt><trkpt lat="45.7919517" lon="9.6485767"><ele>302.0</ele><time>2026-04-25T07:36:13.229Z</time></trkpt><trkpt lat="45.7919783" lon="9.6487767"><ele>304.5</ele><time>2026-04-25T07:36:14.231Z</time></trkpt><trkpt lat="45.7920017" lon="9.6489717"><ele>307.0</ele><time>2026-04-25T07:36:15.23Z</time></trkpt><trkpt lat="45.792025" lon="9.6491617"><ele>307.0</ele><time>2026-04-25T07:36:16.23Z</time></trkpt><trkpt lat="45.7920483" lon="9.6493483"><ele>307.0</ele><time>2026-04-25T07:36:17.23Z</time></trkpt><trkpt lat="45.7920717" lon="9.649535"><ele>307.0</ele><time>2026-04-25T07:36:18.231Z</time></trkpt><trkpt lat="45.7921" lon="9.6497233"><ele>307.0</ele><time>2026-04-25T07:36:19.229Z</time></trkpt><trkpt lat="45.79213" lon="9.649915"><ele>306.0</ele><time>2026-04-25T07:36:20.228Z</time></trkpt><trkpt lat="45.79216" lon="9.6501067"><ele>305.0</ele><time>2026-04-25T07:36:21.23Z</time></trkpt><trkpt lat="45.7921933" lon="9.6502917"><ele>304.0</ele><time>2026-04-25T07:36:22.229Z</time></trkpt><trkpt lat="45.7922267" lon="9.6504733"><ele>303.0</ele><time>2026-04-25T07:36:23.228Z</time></trkpt><trkpt lat="45.79226" lon="9.6506517"><ele>302.0</ele><time>2026-04-25T07:36:24.229Z</time></trkpt><trkpt lat="45.7922933" lon="9.6508283"><ele>301.0</ele><time>2026-04-25T07:36:25.23Z</time></trkpt><trkpt lat="45.7923267" lon="9.6510067"><ele>300.0</ele><time>2026-04-25T07:36:26.229Z</time></trkpt><trkpt lat="45.7923617" lon="9.6511933"><ele>299.0</ele><time>2026-04-25T07:36:27.231Z</time></trkpt><trkpt lat="45.7923967" lon="9.651375"><ele>299.0</ele><time>2026-04-25T07:36:28.228Z</time></trkpt><trkpt lat="45.7924317" lon="9.6515483"><ele>299.0</ele><time>2026-04-25T07:36:29.229Z</time></trkpt><trkpt lat="45.7924667" lon="9.6517083"><ele>299.0</ele><time>2026-04-25T07:36:30.228Z</time></trkpt><trkpt lat="45.7924967" lon="9.651865"><ele>299.0</ele><time>2026-04-25T07:36:31.229Z</time></trkpt><trkpt lat="45.792525" lon="9.6520183"><ele>299.0</ele><time>2026-04-25T07:36:32.23Z</time></trkpt><trkpt lat="45.792555" lon="9.6521717"><ele>299.0</ele><time>2026-04-25T07:36:33.231Z</time></trkpt><trkpt lat="45.7925833" lon="9.652325"><ele>299.0</ele><time>2026-04-25T07:36:34.23Z</time></trkpt><trkpt lat="45.792615" lon="9.6524783"><ele>299.0</ele><time>2026-04-25T07:36:35.23Z</time></trkpt><trkpt lat="45.792645" lon="9.6526317"><ele>299.0</ele><time>2026-04-25T07:36:36.228Z</time></trkpt><trkpt lat="45.7926733" lon="9.65278"><ele>300.2</ele><time>2026-04-25T07:36:37.229Z</time></trkpt><trkpt lat="45.7927" lon="9.6529133"><ele>301.4</ele><time>2026-04-25T07:36:38.228Z</time></trkpt><trkpt lat="45.7927267" lon="9.65304"><ele>302.6</ele><time>2026-04-25T07:36:39.23Z</time></trkpt><trkpt lat="45.7927517" lon="9.6531633"><ele>303.8</ele><time>2026-04-25T07:36:40.228Z</time></trkpt><trkpt lat="45.7927783" lon="9.6532917"><ele>305.0</ele><time>2026-04-25T07:36:41.228Z</time></trkpt><trkpt lat="45.7928067" lon="9.6534267"><ele>305.0</ele><time>2026-04-25T07:36:42.228Z</time></trkpt><trkpt lat="45.792835" lon="9.6535683"><ele>305.0</ele><time>2026-04-25T07:36:43.228Z</time></trkpt><trkpt lat="45.7928633" lon="9.6537083"><ele>305.0</ele><time>2026-04-25T07:36:44.229Z</time></trkpt><trkpt lat="45.79289" lon="9.65384"><ele>305.0</ele><time>2026-04-25T07:36:45.229Z</time></trkpt><trkpt lat="45.792915" lon="9.6539683"><ele>305.0</ele><time>2026-04-25T07:36:46.228Z</time></trkpt><trkpt lat="45.7929383" lon="9.65409"><ele>305.0</ele><time>2026-04-25T07:36:47.229Z</time></trkpt><trkpt lat="45.79296" lon="9.6542133"><ele>305.0</ele><time>2026-04-25T07:36:48.23Z</time></trkpt><trkpt lat="45.7929833" lon="9.6543467"><ele>305.0</ele><time>2026-04-25T07:36:49.232Z</time></trkpt><trkpt lat="45.7930083" lon="9.65449"><ele>305.0</ele><time>2026-04-25T07:36:50.231Z</time></trkpt><trkpt lat="45.79303" lon="9.6546417"><ele>305.0</ele><time>2026-04-25T07:36:51.238Z</time></trkpt><trkpt lat="45.7930517" lon="9.6547967"><ele>305.0</ele><time>2026-04-25T07:36:52.232Z</time></trkpt><trkpt lat="45.79307" lon="9.6549467"><ele>305.0</ele><time>2026-04-25T07:36:53.231Z</time></trkpt><trkpt lat="45.7930833" lon="9.65509"><ele>305.0</ele><time>2026-04-25T07:36:54.23Z</time></trkpt><trkpt lat="45.7930967" lon="9.6552233"><ele>305.0</ele><time>2026-04-25T07:36:55.234Z</time></trkpt><trkpt lat="45.7931067" lon="9.655345"><ele>305.0</ele><time>2026-04-25T07:36:56.232Z</time></trkpt><trkpt lat="45.7931183" lon="9.65547"><ele>304.83333333333337</ele><time>2026-04-25T07:36:57.229Z</time></trkpt><trkpt lat="45.7931317" lon="9.6555983"><ele>304.6666666666667</ele><time>2026-04-25T07:36:58.228Z</time></trkpt><trkpt lat="45.7931417" lon="9.6557233"><ele>304.5</ele><time>2026-04-25T07:36:59.229Z</time></trkpt><trkpt lat="45.7931467" lon="9.6558483"><ele>304.3333333333333</ele><time>2026-04-25T07:37:00.227Z</time></trkpt><trkpt lat="45.7931583" lon="9.655975"><ele>304.16666666666663</ele><time>2026-04-25T07:37:01.23Z</time></trkpt><trkpt lat="45.7931683" lon="9.6561067"><ele>304.0</ele><time>2026-04-25T07:37:02.232Z</time></trkpt><trkpt lat="45.7931833" lon="9.6562433"><ele>304.2</ele><time>2026-04-25T07:37:03.228Z</time></trkpt><trkpt lat="45.7931917" lon="9.6563883"><ele>304.4</ele><time>2026-04-25T07:37:04.229Z</time></trkpt><trkpt lat="45.793205" lon="9.6565333"><ele>304.6</ele><time>2026-04-25T07:37:05.229Z</time></trkpt><trkpt lat="45.7932217" lon="9.6566767"><ele>304.8</ele><time>2026-04-25T07:37:06.228Z</time></trkpt><trkpt lat="45.7932383" lon="9.65682"><ele>305.0</ele><time>2026-04-25T07:37:07.23Z</time></trkpt><trkpt lat="45.79325" lon="9.6569567"><ele>305.0</ele><time>2026-04-25T07:37:08.241Z</time></trkpt><trkpt lat="45.79326" lon="9.65709"><ele>305.0</ele><time>2026-04-25T07:37:09.23Z</time></trkpt><trkpt lat="45.7932683" lon="9.6572233"><ele>305.0</ele><time>2026-04-25T07:37:10.228Z</time></trkpt><trkpt lat="45.793275" lon="9.6573617"><ele>305.0</ele><time>2026-04-25T07:37:11.229Z</time></trkpt><trkpt lat="45.7932833" lon="9.6575033"><ele>305.0</ele><time>2026-04-25T07:37:12.232Z</time></trkpt><trkpt lat="45.793295" lon="9.6576483"><ele>305.0</ele><time>2026-04-25T07:37:13.228Z</time></trkpt><trkpt lat="45.7933083" lon="9.6577867"><ele>305.0</ele><time>2026-04-25T07:37:14.23Z</time></trkpt><trkpt lat="45.7933167" lon="9.6579267"><ele>305.0</ele><time>2026-04-25T07:37:15.228Z</time></trkpt><trkpt lat="45.7933233" lon="9.65808"><ele>305.0</ele><time>2026-04-25T07:37:16.228Z</time></trkpt><trkpt lat="45.7933267" lon="9.658245"><ele>305.0</ele><time>2026-04-25T07:37:17.228Z</time></trkpt><trkpt lat="45.7933267" lon="9.6584083"><ele>305.0</ele><time>2026-04-25T07:37:18.229Z</time></trkpt><trkpt lat="45.793325" lon="9.65857"><ele>305.0</ele><time>2026-04-25T07:37:19.229Z</time></trkpt><trkpt lat="45.7933267" lon="9.65873"><ele>305.0</ele><time>2026-04-25T07:37:20.23Z</time></trkpt><trkpt lat="45.7933267" lon="9.6588717"><ele>305.0</ele><time>2026-04-25T07:37:21.229Z</time></trkpt><trkpt lat="45.79333" lon="9.6589917"><ele>305.0</ele><time>2026-04-25T07:37:22.229Z</time></trkpt><trkpt lat="45.7933333" lon="9.659145"><ele>305.0</ele><time>2026-04-25T07:37:24.232Z</time></trkpt><trkpt lat="45.7933217" lon="9.6592767"><ele>305.0</ele><time>2026-04-25T07:37:41.228Z</time></trkpt><trkpt lat="45.793285" lon="9.65936"><ele>305.0</ele><time>2026-04-25T07:37:43.23Z</time></trkpt><trkpt lat="45.7931917" lon="9.65946"><ele>305.0</ele><time>2026-04-25T07:37:45.228Z</time></trkpt><trkpt lat="45.79311" lon="9.6595333"><ele>305.0</ele><time>2026-04-25T07:37:47.231Z</time></trkpt><trkpt lat="45.793015" lon="9.6595983"><ele>304.6</ele><time>2026-04-25T07:37:49.229Z</time></trkpt><trkpt lat="45.7929467" lon="9.6596417"><ele>304.2</ele><time>2026-04-25T07:37:50.229Z</time></trkpt><trkpt lat="45.7928683" lon="9.6597"><ele>303.8</ele><time>2026-04-25T07:37:51.23Z</time></trkpt><trkpt lat="45.7927833" lon="9.659765"><ele>303.4</ele><time>2026-04-25T07:37:52.23Z</time></trkpt><trkpt lat="45.7926967" lon="9.65984"><ele>303.0</ele><time>2026-04-25T07:37:53.23Z</time></trkpt><trkpt lat="45.7926083" lon="9.6599333"><ele>303.0</ele><time>2026-04-25T07:37:54.23Z</time></trkpt><trkpt lat="45.792525" lon="9.6600467"><ele>303.0</ele><time>2026-04-25T07:37:55.228Z</time></trkpt><trkpt lat="45.792455" lon="9.660185"><ele>303.0</ele><time>2026-04-25T07:37:56.23Z</time></trkpt><trkpt lat="45.7923967" lon="9.6603417"><ele>303.0</ele><time>2026-04-25T07:37:57.228Z</time></trkpt><trkpt lat="45.7923583" lon="9.6605083"><ele>303.25</ele><time>2026-04-25T07:37:58.232Z</time></trkpt><trkpt lat="45.79233" lon="9.660685"><ele>303.5</ele><time>2026-04-25T07:37:59.23Z</time></trkpt><trkpt lat="45.79231" lon="9.660855"><ele>303.75</ele><time>2026-04-25T07:38:00.232Z</time></trkpt><trkpt lat="45.7922983" lon="9.6610167"><ele>304.0</ele><time>2026-04-25T07:38:01.23Z</time></trkpt><trkpt lat="45.7922867" lon="9.6611667"><ele>304.8</ele><time>2026-04-25T07:38:02.231Z</time></trkpt><trkpt lat="45.7922767" lon="9.6612967"><ele>305.59999999999997</ele><time>2026-04-25T07:38:03.231Z</time></trkpt><trkpt lat="45.7922633" lon="9.6614183"><ele>306.4</ele><time>2026-04-25T07:38:04.23Z</time></trkpt><trkpt lat="45.79225" lon="9.66154"><ele>307.2</ele><time>2026-04-25T07:38:05.23Z</time></trkpt><trkpt lat="45.792235" lon="9.6616717"><ele>308.0</ele><time>2026-04-25T07:38:06.232Z</time></trkpt><trkpt lat="45.79222" lon="9.6618217"><ele>308.5</ele><time>2026-04-25T07:38:07.232Z</time></trkpt><trkpt lat="45.7922033" lon="9.6619833"><ele>309.0</ele><time>2026-04-25T07:38:08.231Z</time></trkpt><trkpt lat="45.79219" lon="9.6621567"><ele>309.5</ele><time>2026-04-25T07:38:09.229Z</time></trkpt><trkpt lat="45.792185" lon="9.66234"><ele>310.0</ele><time>2026-04-25T07:38:10.228Z</time></trkpt><trkpt lat="45.79218" lon="9.6625333"><ele>310.0</ele><time>2026-04-25T07:38:11.229Z</time></trkpt><trkpt lat="45.7921733" lon="9.6627267"><ele>310.0</ele><time>2026-04-25T07:38:12.231Z</time></trkpt><trkpt lat="45.7921683" lon="9.662905"><ele>310.0</ele><time>2026-04-25T07:38:13.228Z</time></trkpt><trkpt lat="45.79216" lon="9.6630683"><ele>310.0</ele><time>2026-04-25T07:38:14.229Z</time></trkpt><trkpt lat="45.7921533" lon="9.6632167"><ele>310.0</ele><time>2026-04-25T07:38:15.228Z</time></trkpt><trkpt lat="45.79215" lon="9.6633533"><ele>310.0</ele><time>2026-04-25T07:38:16.229Z</time></trkpt><trkpt lat="45.792145" lon="9.6634783"><ele>310.0</ele><time>2026-04-25T07:38:17.229Z</time></trkpt><trkpt lat="45.7921433" lon="9.663595"><ele>310.0</ele><time>2026-04-25T07:38:18.229Z</time></trkpt><trkpt lat="45.7921467" lon="9.6637017"><ele>310.0</ele><time>2026-04-25T07:38:19.23Z</time></trkpt><trkpt lat="45.7921517" lon="9.6638017"><ele>310.0</ele><time>2026-04-25T07:38:20.23Z</time></trkpt><trkpt lat="45.7921567" lon="9.6638983"><ele>310.0</ele><time>2026-04-25T07:38:21.229Z</time></trkpt><trkpt lat="45.792165" lon="9.664005"><ele>310.0</ele><time>2026-04-25T07:38:22.23Z</time></trkpt><trkpt lat="45.792185" lon="9.6641283"><ele>310.0</ele><time>2026-04-25T07:38:23.229Z</time></trkpt><trkpt lat="45.7922167" lon="9.6642683"><ele>310.0</ele><time>2026-04-25T07:38:24.228Z</time></trkpt><trkpt lat="45.7922583" lon="9.664415"><ele>310.0</ele><time>2026-04-25T07:38:25.229Z</time></trkpt><trkpt lat="45.7923083" lon="9.6645767"><ele>310.0</ele><time>2026-04-25T07:38:26.23Z</time></trkpt><trkpt lat="45.7923617" lon="9.66475"><ele>310.0</ele><time>2026-04-25T07:38:27.231Z</time></trkpt><trkpt lat="45.7924167" lon="9.6649233"><ele>310.0</ele><time>2026-04-25T07:38:28.233Z</time></trkpt><trkpt lat="45.7924733" lon="9.6650983"><ele>310.0</ele><time>2026-04-25T07:38:29.232Z</time></trkpt><trkpt lat="45.7925317" lon="9.665285"><ele>310.3333333333333</ele><time>2026-04-25T07:38:30.231Z</time></trkpt><trkpt lat="45.7925983" lon="9.66548"><ele>310.6666666666667</ele><time>2026-04-25T07:38:31.23Z</time></trkpt><trkpt lat="45.7926717" lon="9.665685"><ele>311.0</ele><time>2026-04-25T07:38:32.23Z</time></trkpt><trkpt lat="45.792745" lon="9.6658983"><ele>313.0</ele><time>2026-04-25T07:38:33.231Z</time></trkpt><trkpt lat="45.79282" lon="9.6661217"><ele>315.0</ele><time>2026-04-25T07:38:34.23Z</time></trkpt><trkpt lat="45.7928917" lon="9.6663433"><ele>317.0</ele><time>2026-04-25T07:38:35.23Z</time></trkpt><trkpt lat="45.7929617" lon="9.6665617"><ele>317.0</ele><time>2026-04-25T07:38:36.232Z</time></trkpt><trkpt lat="45.79303" lon="9.6667733"><ele>317.0</ele><time>2026-04-25T07:38:37.23Z</time></trkpt><trkpt lat="45.7931" lon="9.6669817"><ele>317.0</ele><time>2026-04-25T07:38:38.233Z</time></trkpt><trkpt lat="45.7931667" lon="9.6671883"><ele>317.33333333333337</ele><time>2026-04-25T07:38:39.231Z</time></trkpt><trkpt lat="45.7932333" lon="9.667395"><ele>317.6666666666667</ele><time>2026-04-25T07:38:40.232Z</time></trkpt><trkpt lat="45.7933017" lon="9.6676"><ele>318.0</ele><time>2026-04-25T07:38:41.232Z</time></trkpt><trkpt lat="45.7933667" lon="9.6677917"><ele>318.0</ele><time>2026-04-25T07:38:42.232Z</time></trkpt><trkpt lat="45.7934267" lon="9.6679583"><ele>318.0</ele><time>2026-04-25T07:38:43.231Z</time></trkpt><trkpt lat="45.7934817" lon="9.66809"><ele>318.0</ele><time>2026-04-25T07:38:44.229Z</time></trkpt><trkpt lat="45.7935283" lon="9.6681933"><ele>318.0</ele><time>2026-04-25T07:38:45.228Z</time></trkpt><trkpt lat="45.7935683" lon="9.66828"><ele>318.0</ele><time>2026-04-25T07:38:46.227Z</time></trkpt><trkpt lat="45.7936283" lon="9.66839"><ele>318.1666666666667</ele><time>2026-04-25T07:38:48.23Z</time></trkpt><trkpt lat="45.7936717" lon="9.6684567"><ele>318.3333333333333</ele><time>2026-04-25T07:38:50.227Z</time></trkpt><trkpt lat="45.7937517" lon="9.6685533"><ele>318.5</ele><time>2026-04-25T07:39:04.228Z</time></trkpt><trkpt lat="45.793805" lon="9.6686167"><ele>318.66666666666663</ele><time>2026-04-25T07:39:05.232Z</time></trkpt><trkpt lat="45.7938717" lon="9.6686933"><ele>318.8333333333333</ele><time>2026-04-25T07:39:06.228Z</time></trkpt><trkpt lat="45.7939483" lon="9.6687817"><ele>319.0</ele><time>2026-04-25T07:39:07.229Z</time></trkpt><trkpt lat="45.7940333" lon="9.6688817"><ele>319.0</ele><time>2026-04-25T07:39:08.231Z</time></trkpt><trkpt lat="45.79412" lon="9.6689783"><ele>319.0</ele><time>2026-04-25T07:39:09.229Z</time></trkpt><trkpt lat="45.7942033" lon="9.66907"><ele>319.0</ele><time>2026-04-25T07:39:10.229Z</time></trkpt><trkpt lat="45.7942917" lon="9.6691617"><ele>319.0</ele><time>2026-04-25T07:39:11.228Z</time></trkpt><trkpt lat="45.7943833" lon="9.6692533"><ele>319.0</ele><time>2026-04-25T07:39:12.231Z</time></trkpt><trkpt lat="45.794475" lon="9.66933"><ele>319.79999999999995</ele><time>2026-04-25T07:39:13.229Z</time></trkpt><trkpt lat="45.7945617" lon="9.6693933"><ele>320.59999999999997</ele><time>2026-04-25T07:39:14.228Z</time></trkpt><trkpt lat="45.79465" lon="9.6694483"><ele>321.4</ele><time>2026-04-25T07:39:15.23Z</time></trkpt><trkpt lat="45.7947417" lon="9.6694983"><ele>322.2</ele><time>2026-04-25T07:39:16.228Z</time></trkpt><trkpt lat="45.7948283" lon="9.6695433"><ele>323.0</ele><time>2026-04-25T07:39:17.231Z</time></trkpt><trkpt lat="45.7949083" lon="9.6695767"><ele>321.4</ele><time>2026-04-25T07:39:18.229Z</time></trkpt><trkpt lat="45.7949783" lon="9.6696083"><ele>319.79999999999995</ele><time>2026-04-25T07:39:19.229Z</time></trkpt><trkpt lat="45.7950467" lon="9.6696583"><ele>318.2</ele><time>2026-04-25T07:39:20.228Z</time></trkpt><trkpt lat="45.7951167" lon="9.6697433"><ele>316.6</ele><time>2026-04-25T07:39:21.23Z</time></trkpt><trkpt lat="45.7951833" lon="9.66985"><ele>315.0</ele><time>2026-04-25T07:39:22.229Z</time></trkpt><trkpt lat="45.795245" lon="9.6699833"><ele>315.0</ele><time>2026-04-25T07:39:23.228Z</time></trkpt><trkpt lat="45.7952983" lon="9.6701333"><ele>315.0</ele><time>2026-04-25T07:39:24.228Z</time></trkpt><trkpt lat="45.7953517" lon="9.6702933"><ele>315.0</ele><time>2026-04-25T07:39:25.229Z</time></trkpt><trkpt lat="45.7954083" lon="9.670465"><ele>315.0</ele><time>2026-04-25T07:39:26.229Z</time></trkpt><trkpt lat="45.795465" lon="9.6706333"><ele>314.75</ele><time>2026-04-25T07:39:27.228Z</time></trkpt><trkpt lat="45.7955217" lon="9.6707983"><ele>314.5</ele><time>2026-04-25T07:39:28.229Z</time></trkpt><trkpt lat="45.7955767" lon="9.67096"><ele>314.25</ele><time>2026-04-25T07:39:29.228Z</time></trkpt><trkpt lat="45.79563" lon="9.6711067"><ele>314.0</ele><time>2026-04-25T07:39:30.229Z</time></trkpt><trkpt lat="45.7956783" lon="9.671235"><ele>316.83333333333337</ele><time>2026-04-25T07:39:31.23Z</time></trkpt><trkpt lat="45.7957167" lon="9.67134"><ele>319.6666666666667</ele><time>2026-04-25T07:39:32.228Z</time></trkpt><trkpt lat="45.7957433" lon="9.6714233"><ele>322.5</ele><time>2026-04-25T07:39:33.229Z</time></trkpt><trkpt lat="45.7957783" lon="9.671535"><ele>325.3333333333333</ele><time>2026-04-25T07:39:35.229Z</time></trkpt><trkpt lat="45.795855" lon="9.6716083"><ele>328.16666666666663</ele><time>2026-04-25T07:39:38.229Z</time></trkpt><trkpt lat="45.7959567" lon="9.6715767"><ele>331.0</ele><time>2026-04-25T07:39:40.23Z</time></trkpt><trkpt lat="45.79606" lon="9.67152"><ele>331.0</ele><time>2026-04-25T07:39:42.229Z</time></trkpt><trkpt lat="45.7961333" lon="9.67152"><ele>331.0</ele><time>2026-04-25T07:39:44.228Z</time></trkpt><trkpt lat="45.796145" lon="9.6716417"><ele>331.0</ele><time>2026-04-25T07:39:47.23Z</time></trkpt><trkpt lat="45.7960633" lon="9.6717133"><ele>331.0</ele><time>2026-04-25T07:39:49.228Z</time></trkpt><trkpt lat="45.7959967" lon="9.6717367"><ele>331.0</ele><time>2026-04-25T07:39:51.231Z</time></trkpt><trkpt lat="45.79592" lon="9.6718033"><ele>331.0</ele><time>2026-04-25T07:40:04.229Z</time></trkpt><trkpt lat="45.7958567" lon="9.6718733"><ele>334.3333333333333</ele><time>2026-04-25T07:40:05.228Z</time></trkpt><trkpt lat="45.7957883" lon="9.671945"><ele>337.66666666666663</ele><time>2026-04-25T07:40:06.229Z</time></trkpt><trkpt lat="45.79572" lon="9.67202"><ele>341.0</ele><time>2026-04-25T07:40:07.23Z</time></trkpt><trkpt lat="45.79565" lon="9.6721083"><ele>344.3333333333333</ele><time>2026-04-25T07:40:08.229Z</time></trkpt><trkpt lat="45.7955817" lon="9.6722"><ele>347.6666666666667</ele><time>2026-04-25T07:40:09.229Z</time></trkpt><trkpt lat="45.79552" lon="9.6722917"><ele>351.0</ele><time>2026-04-25T07:40:10.228Z</time></trkpt><trkpt lat="45.7954667" lon="9.67238"><ele>351.0</ele><time>2026-04-25T07:40:11.228Z</time></trkpt><trkpt lat="45.7954183" lon="9.6724617"><ele>351.0</ele><time>2026-04-25T07:40:12.229Z</time></trkpt><trkpt lat="45.7953783" lon="9.672545"><ele>351.0</ele><time>2026-04-25T07:40:13.23Z</time></trkpt><trkpt lat="45.7953533" lon="9.6726433"><ele>351.0</ele><time>2026-04-25T07:40:14.229Z</time></trkpt><trkpt lat="45.7953367" lon="9.6727567"><ele>351.0</ele><time>2026-04-25T07:40:15.231Z</time></trkpt><trkpt lat="45.7953283" lon="9.6728883"><ele>351.0</ele><time>2026-04-25T07:40:16.228Z</time></trkpt><trkpt lat="45.79533" lon="9.6730367"><ele>353.4</ele><time>2026-04-25T07:40:17.228Z</time></trkpt><trkpt lat="45.7953383" lon="9.6732017"><ele>355.8</ele><time>2026-04-25T07:40:18.227Z</time></trkpt><trkpt lat="45.79534" lon="9.6733633"><ele>358.2</ele><time>2026-04-25T07:40:19.23Z</time></trkpt><trkpt lat="45.7953317" lon="9.6735017"><ele>360.59999999999997</ele><time>2026-04-25T07:40:20.23Z</time></trkpt><trkpt lat="45.7953233" lon="9.6736167"><ele>363.0</ele><time>2026-04-25T07:40:21.233Z</time></trkpt><trkpt lat="45.795375" lon="9.6737517"><ele>363.0</ele><time>2026-04-25T07:40:23.23Z</time></trkpt><trkpt lat="45.79547" lon="9.67374"><ele>363.0</ele><time>2026-04-25T07:40:25.23Z</time></trkpt><trkpt lat="45.79552" lon="9.6736417"><ele>363.0</ele><time>2026-04-25T07:40:27.232Z</time></trkpt><trkpt lat="45.7955167" lon="9.6735183"><ele>363.0</ele><time>2026-04-25T07:40:28.231Z</time></trkpt><trkpt lat="45.7955017" lon="9.6733783"><ele>363.0</ele><time>2026-04-25T07:40:29.233Z</time></trkpt><trkpt lat="45.79549" lon="9.673215"><ele>363.0</ele><time>2026-04-25T07:40:30.228Z</time></trkpt><trkpt lat="45.7954917" lon="9.6730633"><ele>363.0</ele><time>2026-04-25T07:40:31.228Z</time></trkpt><trkpt lat="45.7954983" lon="9.6729383"><ele>363.0</ele><time>2026-04-25T07:40:32.231Z</time></trkpt><trkpt lat="45.795505" lon="9.6728167"><ele>363.0</ele><time>2026-04-25T07:40:33.229Z</time></trkpt><trkpt lat="45.7955283" lon="9.6726983"><ele>363.0</ele><time>2026-04-25T07:40:34.231Z</time></trkpt><trkpt lat="45.7955833" lon="9.6725817"><ele>360.0</ele><time>2026-04-25T07:40:35.232Z</time></trkpt><trkpt lat="45.795675" lon="9.67247"><ele>357.0</ele><time>2026-04-25T07:40:36.229Z</time></trkpt><trkpt lat="45.7957567" lon="9.6723583"><ele>354.0</ele><time>2026-04-25T07:40:37.229Z</time></trkpt><trkpt lat="45.79586" lon="9.6722767"><ele>351.0</ele><time>2026-04-25T07:40:38.229Z</time></trkpt><trkpt lat="45.7959717" lon="9.6722083"><ele>354.25</ele><time>2026-04-25T07:40:39.229Z</time></trkpt><trkpt lat="45.7960933" lon="9.67216"><ele>357.5</ele><time>2026-04-25T07:40:40.228Z</time></trkpt><trkpt lat="45.79621" lon="9.6721167"><ele>360.75</ele><time>2026-04-25T07:40:41.23Z</time></trkpt><trkpt lat="45.79632" lon="9.6720733"><ele>364.0</ele><time>2026-04-25T07:40:42.229Z</time></trkpt><trkpt lat="45.7964283" lon="9.6720333"><ele>364.0</ele><time>2026-04-25T07:40:43.228Z</time></trkpt><trkpt lat="45.7965267" lon="9.6720067"><ele>364.0</ele><time>2026-04-25T07:40:44.232Z</time></trkpt><trkpt lat="45.7966167" lon="9.6719867"><ele>364.0</ele><time>2026-04-25T07:40:45.228Z</time></trkpt><trkpt lat="45.7967017" lon="9.6719817"><ele>364.0</ele><time>2026-04-25T07:40:46.228Z</time></trkpt><trkpt lat="45.796775" lon="9.6719867"><ele>364.0</ele><time>2026-04-25T07:40:47.23Z</time></trkpt><trkpt lat="45.7968383" lon="9.6720067"><ele>364.0</ele><time>2026-04-25T07:40:48.231Z</time></trkpt><trkpt lat="45.79697" lon="9.6719767"><ele>361.79999999999995</ele><time>2026-04-25T07:40:50.231Z</time></trkpt><trkpt lat="45.7970433" lon="9.6719367"><ele>359.59999999999997</ele><time>2026-04-25T07:40:51.231Z</time></trkpt><trkpt lat="45.7971317" lon="9.671895"><ele>357.4</ele><time>2026-04-25T07:40:52.23Z</time></trkpt><trkpt lat="45.7972317" lon="9.6718617"><ele>355.2</ele><time>2026-04-25T07:40:53.23Z</time></trkpt><trkpt lat="45.79734" lon="9.6718417"><ele>353.0</ele><time>2026-04-25T07:40:54.231Z</time></trkpt><trkpt lat="45.7974533" lon="9.6718367"><ele>353.0</ele><time>2026-04-25T07:40:55.231Z</time></trkpt><trkpt lat="45.7975683" lon="9.6718267"><ele>353.0</ele><time>2026-04-25T07:40:56.23Z</time></trkpt><trkpt lat="45.79768" lon="9.6718117"><ele>353.0</ele><time>2026-04-25T07:40:57.236Z</time></trkpt><trkpt lat="45.797785" lon="9.6718"><ele>353.0</ele><time>2026-04-25T07:40:58.229Z</time></trkpt><trkpt lat="45.79788" lon="9.6718017"><ele>353.0</ele><time>2026-04-25T07:40:59.229Z</time></trkpt><trkpt lat="45.7979667" lon="9.6718283"><ele>353.25</ele><time>2026-04-25T07:41:00.231Z</time></trkpt><trkpt lat="45.7980417" lon="9.67189"><ele>353.5</ele><time>2026-04-25T07:41:01.23Z</time></trkpt><trkpt lat="45.798135" lon="9.6719733"><ele>353.75</ele><time>2026-04-25T07:41:02.228Z</time></trkpt><trkpt lat="45.7982417" lon="9.6720767"><ele>354.0</ele><time>2026-04-25T07:41:03.231Z</time></trkpt><trkpt lat="45.7983517" lon="9.6721933"><ele>357.5</ele><time>2026-04-25T07:41:04.228Z</time></trkpt><trkpt lat="45.7984617" lon="9.6723067"><ele>361.0</ele><time>2026-04-25T07:41:05.229Z</time></trkpt><trkpt lat="45.7985733" lon="9.6724167"><ele>364.5</ele><time>2026-04-25T07:41:06.23Z</time></trkpt><trkpt lat="45.7986767" lon="9.672495"><ele>368.0</ele><time>2026-04-25T07:41:07.228Z</time></trkpt><trkpt lat="45.79878" lon="9.6725333"><ele>368.0</ele><time>2026-04-25T07:41:08.228Z</time></trkpt><trkpt lat="45.7988683" lon="9.672555"><ele>368.0</ele><time>2026-04-25T07:41:09.229Z</time></trkpt><trkpt lat="45.798945" lon="9.6725683"><ele>368.0</ele><time>2026-04-25T07:41:10.231Z</time></trkpt><trkpt lat="45.7990067" lon="9.6725933"><ele>368.0</ele><time>2026-04-25T07:41:11.229Z</time></trkpt><trkpt lat="45.7990433" lon="9.6727217"><ele>368.0</ele><time>2026-04-25T07:41:13.228Z</time></trkpt><trkpt lat="45.79897" lon="9.6728167"><ele>368.0</ele><time>2026-04-25T07:41:15.229Z</time></trkpt><trkpt lat="45.7988267" lon="9.672825"><ele>370.2</ele><time>2026-04-25T07:41:17.228Z</time></trkpt><trkpt lat="45.7987283" lon="9.672815"><ele>372.4</ele><time>2026-04-25T07:41:18.231Z</time></trkpt><trkpt lat="45.7986317" lon="9.6728133"><ele>374.59999999999997</ele><time>2026-04-25T07:41:19.237Z</time></trkpt><trkpt lat="45.7985367" lon="9.6728283"><ele>376.79999999999995</ele><time>2026-04-25T07:41:20.23Z</time></trkpt><trkpt lat="45.7984467" lon="9.6728617"><ele>379.0</ele><time>2026-04-25T07:41:21.23Z</time></trkpt><trkpt lat="45.7983717" lon="9.6729233"><ele>379.4</ele><time>2026-04-25T07:41:22.231Z</time></trkpt><trkpt lat="45.798315" lon="9.67302"><ele>379.79999999999995</ele><time>2026-04-25T07:41:23.231Z</time></trkpt><trkpt lat="45.7982683" lon="9.67314"><ele>380.20000000000005</ele><time>2026-04-25T07:41:24.233Z</time></trkpt><trkpt lat="45.7982183" lon="9.673265"><ele>380.6</ele><time>2026-04-25T07:41:25.229Z</time></trkpt><trkpt lat="45.7981517" lon="9.6733667"><ele>381.0</ele><time>2026-04-25T07:41:26.23Z</time></trkpt><trkpt lat="45.7980683" lon="9.673425"><ele>381.0</ele><time>2026-04-25T07:41:27.23Z</time></trkpt><trkpt lat="45.797975" lon="9.67345"><ele>381.0</ele><time>2026-04-25T07:41:28.227Z</time></trkpt><trkpt lat="45.7978783" lon="9.673425"><ele>381.0</ele><time>2026-04-25T07:41:29.227Z</time></trkpt><trkpt lat="45.7977833" lon="9.6733767"><ele>381.0</ele><time>2026-04-25T07:41:30.227Z</time></trkpt><trkpt lat="45.7976817" lon="9.67332"><ele>381.0</ele><time>2026-04-25T07:41:31.232Z</time></trkpt><trkpt lat="45.797575" lon="9.6732667"><ele>381.5</ele><time>2026-04-25T07:41:32.229Z</time></trkpt><trkpt lat="45.7974783" lon="9.67322"><ele>382.0</ele><time>2026-04-25T07:41:33.229Z</time></trkpt><trkpt lat="45.797395" lon="9.6731933"><ele>382.5</ele><time>2026-04-25T07:41:34.229Z</time></trkpt><trkpt lat="45.7973167" lon="9.6731883"><ele>383.0</ele><time>2026-04-25T07:41:35.228Z</time></trkpt><trkpt lat="45.7972383" lon="9.673215"><ele>383.5</ele><time>2026-04-25T07:41:36.229Z</time></trkpt><trkpt lat="45.7971617" lon="9.67327"><ele>384.0</ele><time>2026-04-25T07:41:37.228Z</time></trkpt><trkpt lat="45.797095" lon="9.6733533"><ele>384.0</ele><time>2026-04-25T07:41:38.229Z</time></trkpt><trkpt lat="45.7970417" lon="9.67345"><ele>384.0</ele><time>2026-04-25T07:41:39.229Z</time></trkpt><trkpt lat="45.79701" lon="9.6735617"><ele>384.0</ele><time>2026-04-25T07:41:40.228Z</time></trkpt><trkpt lat="45.7970017" lon="9.6736933"><ele>384.0</ele><time>2026-04-25T07:41:41.229Z</time></trkpt><trkpt lat="45.7970033" lon="9.6738483"><ele>384.0</ele><time>2026-04-25T07:41:42.228Z</time></trkpt><trkpt lat="45.7970167" lon="9.6740117"><ele>387.5</ele><time>2026-04-25T07:41:43.229Z</time></trkpt><trkpt lat="45.7970417" lon="9.6741933"><ele>391.0</ele><time>2026-04-25T07:41:44.228Z</time></trkpt><trkpt lat="45.7970733" lon="9.6743733"><ele>394.5</ele><time>2026-04-25T07:41:45.23Z</time></trkpt><trkpt lat="45.797105" lon="9.674545"><ele>398.0</ele><time>2026-04-25T07:41:46.229Z</time></trkpt><trkpt lat="45.7971367" lon="9.6747183"><ele>398.5</ele><time>2026-04-25T07:41:47.228Z</time></trkpt><trkpt lat="45.7971683" lon="9.6748967"><ele>399.0</ele><time>2026-04-25T07:41:48.229Z</time></trkpt><trkpt lat="45.7971983" lon="9.67508"><ele>399.5</ele><time>2026-04-25T07:41:49.231Z</time></trkpt><trkpt lat="45.7972233" lon="9.67527"><ele>400.0</ele><time>2026-04-25T07:41:50.229Z</time></trkpt><trkpt lat="45.797245" lon="9.6754617"><ele>401.25</ele><time>2026-04-25T07:41:51.229Z</time></trkpt><trkpt lat="45.7972617" lon="9.675655"><ele>402.5</ele><time>2026-04-25T07:41:52.228Z</time></trkpt><trkpt lat="45.797275" lon="9.6758383"><ele>403.75</ele><time>2026-04-25T07:41:53.229Z</time></trkpt><trkpt lat="45.7972767" lon="9.6759983"><ele>405.0</ele><time>2026-04-25T07:41:54.23Z</time></trkpt><trkpt lat="45.79726" lon="9.676135"><ele>407.0</ele><time>2026-04-25T07:41:55.23Z</time></trkpt><trkpt lat="45.7972317" lon="9.67626"><ele>409.0</ele><time>2026-04-25T07:41:56.228Z</time></trkpt><trkpt lat="45.79718" lon="9.6763833"><ele>411.0</ele><time>2026-04-25T07:41:57.229Z</time></trkpt><trkpt lat="45.7971083" lon="9.6765017"><ele>413.0</ele><time>2026-04-25T07:41:58.229Z</time></trkpt><trkpt lat="45.7970233" lon="9.6766217"><ele>415.0</ele><time>2026-04-25T07:41:59.228Z</time></trkpt><trkpt lat="45.7969283" lon="9.6767433"><ele>413.75</ele><time>2026-04-25T07:42:00.228Z</time></trkpt><trkpt lat="45.796835" lon="9.6768633"><ele>412.5</ele><time>2026-04-25T07:42:01.23Z</time></trkpt><trkpt lat="45.7967383" lon="9.6769783"><ele>411.25</ele><time>2026-04-25T07:42:02.228Z</time></trkpt><trkpt lat="45.7966433" lon="9.6771"><ele>410.0</ele><time>2026-04-25T07:42:03.229Z</time></trkpt><trkpt lat="45.7965467" lon="9.67723"><ele>410.0</ele><time>2026-04-25T07:42:04.229Z</time></trkpt><trkpt lat="45.796445" lon="9.67736"><ele>410.0</ele><time>2026-04-25T07:42:05.233Z</time></trkpt><trkpt lat="45.7963467" lon="9.6774883"><ele>410.0</ele><time>2026-04-25T07:42:06.229Z</time></trkpt><trkpt lat="45.7962467" lon="9.6776183"><ele>410.0</ele><time>2026-04-25T07:42:07.231Z</time></trkpt><trkpt lat="45.7961467" lon="9.6777483"><ele>409.5</ele><time>2026-04-25T07:42:08.23Z</time></trkpt><trkpt lat="45.7960533" lon="9.6778833"><ele>409.0</ele><time>2026-04-25T07:42:09.23Z</time></trkpt><trkpt lat="45.79597" lon="9.6780233"><ele>408.5</ele><time>2026-04-25T07:42:10.229Z</time></trkpt><trkpt lat="45.795895" lon="9.6781617"><ele>408.0</ele><time>2026-04-25T07:42:11.23Z</time></trkpt><trkpt lat="45.795825" lon="9.6782883"><ele>408.0</ele><time>2026-04-25T07:42:12.233Z</time></trkpt><trkpt lat="45.795755" lon="9.678415"><ele>408.0</ele><time>2026-04-25T07:42:13.231Z</time></trkpt><trkpt lat="45.7956817" lon="9.6785417"><ele>408.0</ele><time>2026-04-25T07:42:14.229Z</time></trkpt><trkpt lat="45.7956117" lon="9.6786683"><ele>408.0</ele><time>2026-04-25T07:42:15.228Z</time></trkpt><trkpt lat="45.795545" lon="9.6787883"><ele>408.0</ele><time>2026-04-25T07:42:16.228Z</time></trkpt><trkpt lat="45.795485" lon="9.6789"><ele>408.3333333333333</ele><time>2026-04-25T07:42:17.229Z</time></trkpt><trkpt lat="45.7954383" lon="9.6790033"><ele>408.66666666666663</ele><time>2026-04-25T07:42:18.23Z</time></trkpt><trkpt lat="45.7954" lon="9.6791117"><ele>409.0</ele><time>2026-04-25T07:42:19.23Z</time></trkpt><trkpt lat="45.7953833" lon="9.6792317"><ele>409.3333333333333</ele><time>2026-04-25T07:42:20.229Z</time></trkpt><trkpt lat="45.7953967" lon="9.6793483"><ele>409.66666666666663</ele><time>2026-04-25T07:42:21.229Z</time></trkpt><trkpt lat="45.7954267" lon="9.67945"><ele>410.0</ele><time>2026-04-25T07:42:22.228Z</time></trkpt><trkpt lat="45.795475" lon="9.67953"><ele>410.4</ele><time>2026-04-25T07:42:23.231Z</time></trkpt><trkpt lat="45.795565" lon="9.679555"><ele>410.8</ele><time>2026-04-25T07:42:24.23Z</time></trkpt><trkpt lat="45.7956567" lon="9.6795733"><ele>411.20000000000005</ele><time>2026-04-25T07:42:25.23Z</time></trkpt><trkpt lat="45.795745" lon="9.6795633"><ele>411.6</ele><time>2026-04-25T07:42:26.229Z</time></trkpt><trkpt lat="45.7958317" lon="9.6795433"><ele>412.0</ele><time>2026-04-25T07:42:27.229Z</time></trkpt><trkpt lat="45.7959217" lon="9.679515"><ele>413.20000000000005</ele><time>2026-04-25T07:42:28.229Z</time></trkpt><trkpt lat="45.796025" lon="9.6794917"><ele>414.4</ele><time>2026-04-25T07:42:29.229Z</time></trkpt><trkpt lat="45.7961367" lon="9.6794633"><ele>415.6</ele><time>2026-04-25T07:42:30.23Z</time></trkpt><trkpt lat="45.7962467" lon="9.6794333"><ele>416.79999999999995</ele><time>2026-04-25T07:42:31.229Z</time></trkpt><trkpt lat="45.7963483" lon="9.6793617"><ele>418.0</ele><time>2026-04-25T07:42:32.229Z</time></trkpt><trkpt lat="45.7964383" lon="9.6792633"><ele>418.0</ele><time>2026-04-25T07:42:33.228Z</time></trkpt><trkpt lat="45.7965167" lon="9.67917"><ele>418.0</ele><time>2026-04-25T07:42:34.229Z</time></trkpt><trkpt lat="45.796605" lon="9.6791017"><ele>418.0</ele><time>2026-04-25T07:42:35.228Z</time></trkpt><trkpt lat="45.796705" lon="9.679045"><ele>418.0</ele><time>2026-04-25T07:42:36.23Z</time></trkpt><trkpt lat="45.79682" lon="9.6789967"><ele>418.0</ele><time>2026-04-25T07:42:37.23Z</time></trkpt><trkpt lat="45.7969267" lon="9.6789717"><ele>420.0</ele><time>2026-04-25T07:42:38.23Z</time></trkpt><trkpt lat="45.7970417" lon="9.6789617"><ele>422.0</ele><time>2026-04-25T07:42:39.231Z</time></trkpt><trkpt lat="45.7971567" lon="9.67898"><ele>424.0</ele><time>2026-04-25T07:42:40.229Z</time></trkpt><trkpt lat="45.7972717" lon="9.6790183"><ele>426.0</ele><time>2026-04-25T07:42:41.23Z</time></trkpt><trkpt lat="45.7973917" lon="9.6790567"><ele>426.0</ele><time>2026-04-25T07:42:42.231Z</time></trkpt><trkpt lat="45.797505" lon="9.6790967"><ele>426.0</ele><time>2026-04-25T07:42:43.229Z</time></trkpt><trkpt lat="45.797615" lon="9.6791133"><ele>426.0</ele><time>2026-04-25T07:42:44.234Z</time></trkpt><trkpt lat="45.797715" lon="9.679115"><ele>426.0</ele><time>2026-04-25T07:42:45.228Z</time></trkpt><trkpt lat="45.797805" lon="9.6791"><ele>426.0</ele><time>2026-04-25T07:42:46.228Z</time></trkpt><trkpt lat="45.7978883" lon="9.6791"><ele>427.6666666666667</ele><time>2026-04-25T07:42:47.229Z</time></trkpt><trkpt lat="45.7979633" lon="9.6791217"><ele>429.33333333333337</ele><time>2026-04-25T07:42:48.228Z</time></trkpt><trkpt lat="45.79802" lon="9.6791817"><ele>431.0</ele><time>2026-04-25T07:42:49.229Z</time></trkpt><trkpt lat="45.798055" lon="9.6792717"><ele>432.6666666666667</ele><time>2026-04-25T07:42:50.229Z</time></trkpt><trkpt lat="45.7980383" lon="9.6793667"><ele>434.33333333333337</ele><time>2026-04-25T07:42:51.228Z</time></trkpt><trkpt lat="45.7979683" lon="9.67951"><ele>436.0</ele><time>2026-04-25T07:42:53.228Z</time></trkpt><trkpt lat="45.7978883" lon="9.6795433"><ele>436.8</ele><time>2026-04-25T07:42:54.229Z</time></trkpt><trkpt lat="45.7977833" lon="9.6795817"><ele>437.6</ele><time>2026-04-25T07:42:55.229Z</time></trkpt><trkpt lat="45.79767" lon="9.6796133"><ele>438.4</ele><time>2026-04-25T07:42:56.23Z</time></trkpt><trkpt lat="45.7975633" lon="9.6796283"><ele>439.2</ele><time>2026-04-25T07:42:57.228Z</time></trkpt><trkpt lat="45.7974667" lon="9.679645"><ele>440.0</ele><time>2026-04-25T07:42:58.228Z</time></trkpt><trkpt lat="45.7973817" lon="9.6796667"><ele>440.0</ele><time>2026-04-25T07:42:59.229Z</time></trkpt><trkpt lat="45.7973133" lon="9.6797033"><ele>440.0</ele><time>2026-04-25T07:43:00.229Z</time></trkpt><trkpt lat="45.7972833" lon="9.679845"><ele>440.0</ele><time>2026-04-25T07:43:02.227Z</time></trkpt><trkpt lat="45.79738" lon="9.6799533"><ele>440.0</ele><time>2026-04-25T07:43:04.228Z</time></trkpt><trkpt lat="45.7974567" lon="9.6799483"><ele>440.0</ele><time>2026-04-25T07:43:05.229Z</time></trkpt><trkpt lat="45.7975483" lon="9.6799183"><ele>440.0</ele><time>2026-04-25T07:43:06.228Z</time></trkpt><trkpt lat="45.79765" lon="9.6798917"><ele>440.0</ele><time>2026-04-25T07:43:07.228Z</time></trkpt><trkpt lat="45.7977633" lon="9.6798633"><ele>440.0</ele><time>2026-04-25T07:43:08.228Z</time></trkpt><trkpt lat="45.7978817" lon="9.679825"><ele>440.0</ele><time>2026-04-25T07:43:09.228Z</time></trkpt><trkpt lat="45.7980017" lon="9.6797667"><ele>439.0</ele><time>2026-04-25T07:43:10.228Z</time></trkpt><trkpt lat="45.7981233" lon="9.6796867"><ele>438.0</ele><time>2026-04-25T07:43:11.228Z</time></trkpt><trkpt lat="45.7982367" lon="9.6795833"><ele>437.0</ele><time>2026-04-25T07:43:12.229Z</time></trkpt><trkpt lat="45.7983417" lon="9.67948"><ele>436.0</ele><time>2026-04-25T07:43:13.228Z</time></trkpt><trkpt lat="45.798435" lon="9.67939"><ele>437.6</ele><time>2026-04-25T07:43:14.23Z</time></trkpt><trkpt lat="45.798525" lon="9.6793183"><ele>439.20000000000005</ele><time>2026-04-25T07:43:15.228Z</time></trkpt><trkpt lat="45.7986183" lon="9.679265"><ele>440.79999999999995</ele><time>2026-04-25T07:43:16.228Z</time></trkpt><trkpt lat="45.7987183" lon="9.6792367"><ele>442.4</ele><time>2026-04-25T07:43:17.229Z</time></trkpt><trkpt lat="45.798825" lon="9.6792267"><ele>444.0</ele><time>2026-04-25T07:43:18.229Z</time></trkpt><trkpt lat="45.798935" lon="9.6792167"><ele>444.0</ele><time>2026-04-25T07:43:19.228Z</time></trkpt><trkpt lat="45.79905" lon="9.67918"><ele>444.0</ele><time>2026-04-25T07:43:20.229Z</time></trkpt><trkpt lat="45.7991417" lon="9.6791233"><ele>444.0</ele><time>2026-04-25T07:43:21.229Z</time></trkpt><trkpt lat="45.799235" lon="9.67906"><ele>444.0</ele><time>2026-04-25T07:43:22.232Z</time></trkpt><trkpt lat="45.7993267" lon="9.6790217"><ele>444.0</ele><time>2026-04-25T07:43:23.228Z</time></trkpt><trkpt lat="45.7994067" lon="9.679005"><ele>444.6666666666667</ele><time>2026-04-25T07:43:24.234Z</time></trkpt><trkpt lat="45.799485" lon="9.6790083"><ele>445.33333333333337</ele><time>2026-04-25T07:43:25.229Z</time></trkpt><trkpt lat="45.7995533" lon="9.6790483"><ele>446.0</ele><time>2026-04-25T07:43:26.23Z</time></trkpt><trkpt lat="45.7996083" lon="9.6791267"><ele>446.6666666666667</ele><time>2026-04-25T07:43:27.232Z</time></trkpt><trkpt lat="45.79967" lon="9.6792367"><ele>447.33333333333337</ele><time>2026-04-25T07:43:28.229Z</time></trkpt><trkpt lat="45.7997117" lon="9.6793817"><ele>448.0</ele><time>2026-04-25T07:43:29.229Z</time></trkpt><trkpt lat="45.79975" lon="9.6794917"><ele>452.1666666666667</ele><time>2026-04-25T07:43:30.231Z</time></trkpt><trkpt lat="45.7997933" lon="9.6795917"><ele>456.33333333333337</ele><time>2026-04-25T07:43:31.229Z</time></trkpt><trkpt lat="45.7998367" lon="9.6796667"><ele>460.5</ele><time>2026-04-25T07:43:32.23Z</time></trkpt><trkpt lat="45.79994" lon="9.67966"><ele>464.66666666666663</ele><time>2026-04-25T07:43:34.228Z</time></trkpt><trkpt lat="45.8000133" lon="9.6795933"><ele>468.8333333333333</ele><time>2026-04-25T07:43:35.228Z</time></trkpt><trkpt lat="45.8000783" lon="9.6795233"><ele>473.0</ele><time>2026-04-25T07:43:36.229Z</time></trkpt><trkpt lat="45.80014" lon="9.6794667"><ele>470.4</ele><time>2026-04-25T07:43:37.228Z</time></trkpt><trkpt lat="45.80021" lon="9.6794317"><ele>467.79999999999995</ele><time>2026-04-25T07:43:38.228Z</time></trkpt><trkpt lat="45.800285" lon="9.6794283"><ele>465.2</ele><time>2026-04-25T07:43:39.228Z</time></trkpt><trkpt lat="45.8003817" lon="9.6794183"><ele>462.6</ele><time>2026-04-25T07:43:40.228Z</time></trkpt><trkpt lat="45.8004867" lon="9.6794133"><ele>460.0</ele><time>2026-04-25T07:43:41.227Z</time></trkpt><trkpt lat="45.800595" lon="9.6794067"><ele>460.0</ele><time>2026-04-25T07:43:42.23Z</time></trkpt><trkpt lat="45.8007017" lon="9.679395"><ele>460.0</ele><time>2026-04-25T07:43:43.227Z</time></trkpt><trkpt lat="45.8008117" lon="9.6793517"><ele>460.0</ele><time>2026-04-25T07:43:44.227Z</time></trkpt><trkpt lat="45.8009067" lon="9.6792733"><ele>460.0</ele><time>2026-04-25T07:43:45.229Z</time></trkpt><trkpt lat="45.8009867" lon="9.6791733"><ele>460.0</ele><time>2026-04-25T07:43:46.227Z</time></trkpt><trkpt lat="45.8010517" lon="9.679075"><ele>460.00000000000006</ele><time>2026-04-25T07:43:47.229Z</time></trkpt><trkpt lat="45.8011083" lon="9.6789967"><ele>460.0</ele><time>2026-04-25T07:43:48.228Z</time></trkpt><trkpt lat="45.8011667" lon="9.6789367"><ele>460.0</ele><time>2026-04-25T07:43:49.229Z</time></trkpt><trkpt lat="45.80123" lon="9.67891"><ele>460.0</ele><time>2026-04-25T07:43:50.23Z</time></trkpt><trkpt lat="45.8013" lon="9.678925"><ele>460.00000000000006</ele><time>2026-04-25T07:43:51.228Z</time></trkpt><trkpt lat="45.80137" lon="9.679005"><ele>460.0</ele><time>2026-04-25T07:43:52.228Z</time></trkpt><trkpt lat="45.8014333" lon="9.6790967"><ele>460.0</ele><time>2026-04-25T07:43:53.228Z</time></trkpt><trkpt lat="45.8014833" lon="9.6792083"><ele>460.0</ele><time>2026-04-25T07:43:54.228Z</time></trkpt><trkpt lat="45.80152" lon="9.6793267"><ele>460.0</ele><time>2026-04-25T07:43:55.229Z</time></trkpt><trkpt lat="45.8015467" lon="9.679455"><ele>460.0</ele><time>2026-04-25T07:43:56.23Z</time></trkpt><trkpt lat="45.80157" lon="9.679595"><ele>460.0</ele><time>2026-04-25T07:43:57.228Z</time></trkpt><trkpt lat="45.8015983" lon="9.6797383"><ele>462.0</ele><time>2026-04-25T07:43:58.228Z</time></trkpt><trkpt lat="45.8016417" lon="9.6798767"><ele>464.0</ele><time>2026-04-25T07:43:59.228Z</time></trkpt><trkpt lat="45.8017033" lon="9.68"><ele>466.0</ele><time>2026-04-25T07:44:00.228Z</time></trkpt><trkpt lat="45.80179" lon="9.6801017"><ele>468.0</ele><time>2026-04-25T07:44:01.228Z</time></trkpt><trkpt lat="45.8018933" lon="9.6802"><ele>470.0</ele><time>2026-04-25T07:44:02.228Z</time></trkpt><trkpt lat="45.8020133" lon="9.6802883"><ele>475.25</ele><time>2026-04-25T07:44:03.228Z</time></trkpt><trkpt lat="45.8021383" lon="9.6803683"><ele>480.5</ele><time>2026-04-25T07:44:04.227Z</time></trkpt><trkpt lat="45.8022683" lon="9.68044"><ele>485.75</ele><time>2026-04-25T07:44:05.228Z</time></trkpt><trkpt lat="45.802395" lon="9.6805067"><ele>491.0</ele><time>2026-04-25T07:44:06.227Z</time></trkpt><trkpt lat="45.8025183" lon="9.6805633"><ele>491.0</ele><time>2026-04-25T07:44:07.227Z</time></trkpt><trkpt lat="45.8026317" lon="9.6805933"><ele>491.0</ele><time>2026-04-25T07:44:08.229Z</time></trkpt><trkpt lat="45.8027317" lon="9.680595"><ele>491.0</ele><time>2026-04-25T07:44:09.231Z</time></trkpt><trkpt lat="45.802835" lon="9.6805683"><ele>491.0</ele><time>2026-04-25T07:44:10.228Z</time></trkpt><trkpt lat="45.802945" lon="9.6805167"><ele>491.0</ele><time>2026-04-25T07:44:11.229Z</time></trkpt><trkpt lat="45.8030583" lon="9.680445"><ele>492.25</ele><time>2026-04-25T07:44:12.227Z</time></trkpt><trkpt lat="45.8031817" lon="9.6803667"><ele>493.5</ele><time>2026-04-25T07:44:13.227Z</time></trkpt><trkpt lat="45.8033117" lon="9.68029"><ele>494.75</ele><time>2026-04-25T07:44:14.227Z</time></trkpt><trkpt lat="45.8034433" lon="9.6802167"><ele>496.0</ele><time>2026-04-25T07:44:15.227Z</time></trkpt><trkpt lat="45.80356" lon="9.68014"><ele>492.20000000000005</ele><time>2026-04-25T07:44:16.227Z</time></trkpt><trkpt lat="45.8036483" lon="9.680085"><ele>488.40000000000003</ele><time>2026-04-25T07:44:17.229Z</time></trkpt><trkpt lat="45.8037167" lon="9.6800417"><ele>484.6</ele><time>2026-04-25T07:44:18.228Z</time></trkpt><trkpt lat="45.803805" lon="9.6800333"><ele>480.8</ele><time>2026-04-25T07:44:20.228Z</time></trkpt><trkpt lat="45.80383" lon="9.6801667"><ele>477.0</ele><time>2026-04-25T07:44:23.228Z</time></trkpt><trkpt lat="45.8037283" lon="9.6802933"><ele>477.0</ele><time>2026-04-25T07:44:25.227Z</time></trkpt><trkpt lat="45.8036433" lon="9.6803483"><ele>477.00000000000006</ele><time>2026-04-25T07:44:26.233Z</time></trkpt><trkpt lat="45.8035483" lon="9.6804117"><ele>477.00000000000006</ele><time>2026-04-25T07:44:27.227Z</time></trkpt><trkpt lat="45.803445" lon="9.68049"><ele>477.0</ele><time>2026-04-25T07:44:28.229Z</time></trkpt><trkpt lat="45.8033417" lon="9.6805817"><ele>477.0</ele><time>2026-04-25T07:44:29.229Z</time></trkpt><trkpt lat="45.80324" lon="9.680685"><ele>481.75</ele><time>2026-04-25T07:44:30.229Z</time></trkpt><trkpt lat="45.803145" lon="9.6808083"><ele>486.5</ele><time>2026-04-25T07:44:31.228Z</time></trkpt><trkpt lat="45.8030583" lon="9.68093"><ele>491.25</ele><time>2026-04-25T07:44:32.228Z</time></trkpt><trkpt lat="45.8029833" lon="9.6810517"><ele>496.0</ele><time>2026-04-25T07:44:33.228Z</time></trkpt><trkpt lat="45.8029167" lon="9.681185"><ele>496.8</ele><time>2026-04-25T07:44:34.228Z</time></trkpt><trkpt lat="45.8028583" lon="9.6813333"><ele>497.6</ele><time>2026-04-25T07:44:35.228Z</time></trkpt><trkpt lat="45.8028067" lon="9.681475"><ele>498.4</ele><time>2026-04-25T07:44:36.234Z</time></trkpt><trkpt lat="45.802755" lon="9.681595"><ele>499.2</ele><time>2026-04-25T07:44:37.227Z</time></trkpt><trkpt lat="45.8026933" lon="9.6816933"><ele>500.0</ele><time>2026-04-25T07:44:38.228Z</time></trkpt><trkpt lat="45.8026083" lon="9.6817533"><ele>503.0</ele><time>2026-04-25T07:44:39.228Z</time></trkpt><trkpt lat="45.802515" lon="9.6817933"><ele>506.0</ele><time>2026-04-25T07:44:40.229Z</time></trkpt><trkpt lat="45.8024167" lon="9.68181"><ele>509.0</ele><time>2026-04-25T07:44:41.227Z</time></trkpt><trkpt lat="45.8023167" lon="9.6818017"><ele>512.0</ele><time>2026-04-25T07:44:42.227Z</time></trkpt><trkpt lat="45.8022083" lon="9.6817767"><ele>515.0</ele><time>2026-04-25T07:44:43.229Z</time></trkpt><trkpt lat="45.8020917" lon="9.6817417"><ele>515.0</ele><time>2026-04-25T07:44:44.229Z</time></trkpt><trkpt lat="45.80197" lon="9.6817033"><ele>515.0</ele><time>2026-04-25T07:44:45.227Z</time></trkpt><trkpt lat="45.8018417" lon="9.68165"><ele>515.0</ele><time>2026-04-25T07:44:46.23Z</time></trkpt><trkpt lat="45.801715" lon="9.6815817"><ele>515.0</ele><time>2026-04-25T07:44:47.228Z</time></trkpt><trkpt lat="45.8015867" lon="9.6815033"><ele>519.25</ele><time>2026-04-25T07:44:48.227Z</time></trkpt><trkpt lat="45.8014633" lon="9.68142"><ele>523.5</ele><time>2026-04-25T07:44:49.227Z</time></trkpt><trkpt lat="45.8013517" lon="9.6813367"><ele>527.75</ele><time>2026-04-25T07:44:50.229Z</time></trkpt><trkpt lat="45.8012483" lon="9.68126"><ele>532.0</ele><time>2026-04-25T07:44:51.23Z</time></trkpt><trkpt lat="45.8011533" lon="9.6812083"><ele>532.0</ele><time>2026-04-25T07:44:52.228Z</time></trkpt><trkpt lat="45.8010483" lon="9.6811783"><ele>532.0</ele><time>2026-04-25T07:44:53.24Z</time></trkpt><trkpt lat="45.80094" lon="9.68117"><ele>532.0</ele><time>2026-04-25T07:44:54.232Z</time></trkpt><trkpt lat="45.80083" lon="9.681195"><ele>532.0</ele><time>2026-04-25T07:44:55.228Z</time></trkpt><trkpt lat="45.8007183" lon="9.6812417"><ele>532.0</ele><time>2026-04-25T07:44:56.23Z</time></trkpt><trkpt lat="45.8006033" lon="9.6812917"><ele>536.75</ele><time>2026-04-25T07:44:57.229Z</time></trkpt><trkpt lat="45.8004817" lon="9.6813533"><ele>541.5</ele><time>2026-04-25T07:44:58.229Z</time></trkpt><trkpt lat="45.8003483" lon="9.6814183"><ele>546.25</ele><time>2026-04-25T07:44:59.23Z</time></trkpt><trkpt lat="45.80021" lon="9.6814667"><ele>551.0</ele><time>2026-04-25T07:45:00.229Z</time></trkpt><trkpt lat="45.80007" lon="9.681535"><ele>551.0</ele><time>2026-04-25T07:45:01.229Z</time></trkpt><trkpt lat="45.79993" lon="9.6815783"><ele>551.0</ele><time>2026-04-25T07:45:02.229Z</time></trkpt><trkpt lat="45.7997767" lon="9.6816067"><ele>551.0</ele><time>2026-04-25T07:45:03.229Z</time></trkpt><trkpt lat="45.7996133" lon="9.6816067"><ele>551.0</ele><time>2026-04-25T07:45:04.229Z</time></trkpt><trkpt lat="45.79946" lon="9.6816083"><ele>551.0</ele><time>2026-04-25T07:45:05.228Z</time></trkpt><trkpt lat="45.7993083" lon="9.68163"><ele>551.0</ele><time>2026-04-25T07:45:06.228Z</time></trkpt><trkpt lat="45.7991683" lon="9.6816567"><ele>551.0</ele><time>2026-04-25T07:45:07.227Z</time></trkpt><trkpt lat="45.79905" lon="9.6816683"><ele>550.1666666666666</ele><time>2026-04-25T07:45:08.227Z</time></trkpt><trkpt lat="45.79895" lon="9.6816983"><ele>549.3333333333333</ele><time>2026-04-25T07:45:09.229Z</time></trkpt><trkpt lat="45.7988633" lon="9.6817367"><ele>548.5</ele><time>2026-04-25T07:45:10.227Z</time></trkpt><trkpt lat="45.7987867" lon="9.6818"><ele>547.6666666666666</ele><time>2026-04-25T07:45:11.229Z</time></trkpt><trkpt lat="45.7987133" lon="9.6818667"><ele>546.8333333333334</ele><time>2026-04-25T07:45:12.23Z</time></trkpt><trkpt lat="45.7986517" lon="9.6819367"><ele>546.0</ele><time>2026-04-25T07:45:13.227Z</time></trkpt><trkpt lat="45.7986117" lon="9.6820283"><ele>551.2</ele><time>2026-04-25T07:45:14.227Z</time></trkpt><trkpt lat="45.798585" lon="9.6821467"><ele>556.4000000000001</ele><time>2026-04-25T07:45:15.229Z</time></trkpt><trkpt lat="45.798575" lon="9.682275"><ele>561.6</ele><time>2026-04-25T07:45:16.228Z</time></trkpt><trkpt lat="45.79858" lon="9.682405"><ele>566.8000000000001</ele><time>2026-04-25T07:45:17.227Z</time></trkpt><trkpt lat="45.7986083" lon="9.682535"><ele>572.0</ele><time>2026-04-25T07:45:18.228Z</time></trkpt><trkpt lat="45.7986467" lon="9.6826633"><ele>572.0</ele><time>2026-04-25T07:45:19.227Z</time></trkpt><trkpt lat="45.7986883" lon="9.6828117"><ele>572.0</ele><time>2026-04-25T07:45:20.229Z</time></trkpt><trkpt lat="45.7987283" lon="9.6829683"><ele>572.0</ele><time>2026-04-25T07:45:21.228Z</time></trkpt><trkpt lat="45.798765" lon="9.6831333"><ele>572.0</ele><time>2026-04-25T07:45:22.228Z</time></trkpt><trkpt lat="45.7987983" lon="9.68331"><ele>572.0</ele><time>2026-04-25T07:45:23.229Z</time></trkpt><trkpt lat="45.798825" lon="9.6834867"><ele>572.0</ele><time>2026-04-25T07:45:24.23Z</time></trkpt><trkpt lat="45.798845" lon="9.6836467"><ele>572.0</ele><time>2026-04-25T07:45:25.228Z</time></trkpt><trkpt lat="45.7988583" lon="9.683785"><ele>572.0</ele><time>2026-04-25T07:45:26.228Z</time></trkpt><trkpt lat="45.798885" lon="9.6838967"><ele>572.0</ele><time>2026-04-25T07:45:27.228Z</time></trkpt><trkpt lat="45.7989283" lon="9.6840017"><ele>570.75</ele><time>2026-04-25T07:45:28.228Z</time></trkpt><trkpt lat="45.7989917" lon="9.6841117"><ele>569.5</ele><time>2026-04-25T07:45:29.227Z</time></trkpt><trkpt lat="45.79907" lon="9.6842217"><ele>568.25</ele><time>2026-04-25T07:45:30.228Z</time></trkpt><trkpt lat="45.7991517" lon="9.6843417"><ele>567.0</ele><time>2026-04-25T07:45:31.227Z</time></trkpt><trkpt lat="45.799245" lon="9.6844683"><ele>572.25</ele><time>2026-04-25T07:45:32.227Z</time></trkpt><trkpt lat="45.7993417" lon="9.68459"><ele>577.5</ele><time>2026-04-25T07:45:33.229Z</time></trkpt><trkpt lat="45.7994367" lon="9.6847033"><ele>582.75</ele><time>2026-04-25T07:45:34.228Z</time></trkpt><trkpt lat="45.7995267" lon="9.6848033"><ele>588.0</ele><time>2026-04-25T07:45:35.229Z</time></trkpt><trkpt lat="45.799595" lon="9.684895"><ele>588.0</ele><time>2026-04-25T07:45:36.228Z</time></trkpt><trkpt lat="45.7996533" lon="9.6849917"><ele>588.0</ele><time>2026-04-25T07:45:37.227Z</time></trkpt><trkpt lat="45.799695" lon="9.6850967"><ele>588.0</ele><time>2026-04-25T07:45:38.228Z</time></trkpt><trkpt lat="45.7997117" lon="9.6852217"><ele>588.0</ele><time>2026-04-25T07:45:39.228Z</time></trkpt><trkpt lat="45.7996967" lon="9.6853433"><ele>588.0</ele><time>2026-04-25T07:45:40.228Z</time></trkpt><trkpt lat="45.79965" lon="9.685465"><ele>588.0</ele><time>2026-04-25T07:45:41.228Z</time></trkpt><trkpt lat="45.7995883" lon="9.6855883"><ele>590.0</ele><time>2026-04-25T07:45:42.229Z</time></trkpt><trkpt lat="45.7995133" lon="9.6857117"><ele>592.0</ele><time>2026-04-25T07:45:43.231Z</time></trkpt><trkpt lat="45.7994267" lon="9.685825"><ele>594.0</ele><time>2026-04-25T07:45:44.23Z</time></trkpt><trkpt lat="45.7993333" lon="9.6859283"><ele>596.0</ele><time>2026-04-25T07:45:45.23Z</time></trkpt><trkpt lat="45.7992283" lon="9.68602"><ele>594.25</ele><time>2026-04-25T07:45:46.228Z</time></trkpt><trkpt lat="45.7991117" lon="9.6860983"><ele>592.5</ele><time>2026-04-25T07:45:47.227Z</time></trkpt><trkpt lat="45.79899" lon="9.6861667"><ele>590.75</ele><time>2026-04-25T07:45:48.229Z</time></trkpt><trkpt lat="45.7988567" lon="9.68623"><ele>589.0</ele><time>2026-04-25T07:45:49.227Z</time></trkpt><trkpt lat="45.7987283" lon="9.6863"><ele>589.0</ele><time>2026-04-25T07:45:50.228Z</time></trkpt><trkpt lat="45.7986033" lon="9.6863833"><ele>589.0</ele><time>2026-04-25T07:45:51.228Z</time></trkpt><trkpt lat="45.79848" lon="9.6864767"><ele>589.0</ele><time>2026-04-25T07:45:52.227Z</time></trkpt><trkpt lat="45.7983583" lon="9.6865733"><ele>589.0</ele><time>2026-04-25T07:45:53.229Z</time></trkpt><trkpt lat="45.798245" lon="9.6866667"><ele>589.5</ele><time>2026-04-25T07:45:54.227Z</time></trkpt><trkpt lat="45.79815" lon="9.6867483"><ele>590.0</ele><time>2026-04-25T07:45:55.227Z</time></trkpt><trkpt lat="45.7980717" lon="9.6868267"><ele>590.5</ele><time>2026-04-25T07:45:56.227Z</time></trkpt><trkpt lat="45.79801" lon="9.6869083"><ele>591.0</ele><time>2026-04-25T07:45:57.228Z</time></trkpt><trkpt lat="45.7979667" lon="9.686995"><ele>591.5</ele><time>2026-04-25T07:45:58.227Z</time></trkpt><trkpt lat="45.797955" lon="9.6870867"><ele>592.0</ele><time>2026-04-25T07:45:59.229Z</time></trkpt><trkpt lat="45.7980283" lon="9.68723"><ele>592.0</ele><time>2026-04-25T07:46:01.229Z</time></trkpt><trkpt lat="45.798095" lon="9.6872667"><ele>592.0</ele><time>2026-04-25T07:46:02.227Z</time></trkpt><trkpt lat="45.7981683" lon="9.687275"><ele>592.0</ele><time>2026-04-25T07:46:03.227Z</time></trkpt><trkpt lat="45.7982617" lon="9.687255"><ele>592.0</ele><time>2026-04-25T07:46:04.227Z</time></trkpt><trkpt lat="45.7983633" lon="9.687215"><ele>592.0</ele><time>2026-04-25T07:46:05.229Z</time></trkpt><trkpt lat="45.7984833" lon="9.6871633"><ele>591.25</ele><time>2026-04-25T07:46:06.229Z</time></trkpt><trkpt lat="45.7986083" lon="9.6871017"><ele>590.5</ele><time>2026-04-25T07:46:07.227Z</time></trkpt><trkpt lat="45.798735" lon="9.6870383"><ele>589.75</ele><time>2026-04-25T07:46:08.229Z</time></trkpt><trkpt lat="45.798855" lon="9.6869733"><ele>589.0</ele><time>2026-04-25T07:46:09.228Z</time></trkpt><trkpt lat="45.7989783" lon="9.686915"><ele>589.0</ele><time>2026-04-25T07:46:10.227Z</time></trkpt><trkpt lat="45.7991" lon="9.686855"><ele>589.0</ele><time>2026-04-25T07:46:11.227Z</time></trkpt><trkpt lat="45.7992217" lon="9.6867883"><ele>589.0</ele><time>2026-04-25T07:46:12.23Z</time></trkpt><trkpt lat="45.7993383" lon="9.6867117"><ele>589.0</ele><time>2026-04-25T07:46:13.227Z</time></trkpt><trkpt lat="45.7994483" lon="9.686625"><ele>595.75</ele><time>2026-04-25T07:46:14.227Z</time></trkpt><trkpt lat="45.7995533" lon="9.686525"><ele>602.5</ele><time>2026-04-25T07:46:15.231Z</time></trkpt><trkpt lat="45.7996583" lon="9.6864183"><ele>609.25</ele><time>2026-04-25T07:46:16.227Z</time></trkpt><trkpt lat="45.799765" lon="9.686315"><ele>616.0</ele><time>2026-04-25T07:46:17.227Z</time></trkpt><trkpt lat="45.7998733" lon="9.6862183"><ele>616.0</ele><time>2026-04-25T07:46:18.229Z</time></trkpt><trkpt lat="45.79999" lon="9.686115"><ele>616.0</ele><time>2026-04-25T07:46:19.233Z</time></trkpt><trkpt lat="45.8001" lon="9.686015"><ele>616.0</ele><time>2026-04-25T07:46:20.229Z</time></trkpt><trkpt lat="45.8001933" lon="9.6859133"><ele>616.0</ele><time>2026-04-25T07:46:21.229Z</time></trkpt><trkpt lat="45.80026" lon="9.685815"><ele>618.4</ele><time>2026-04-25T07:46:22.228Z</time></trkpt><trkpt lat="45.800315" lon="9.6857117"><ele>620.8</ele><time>2026-04-25T07:46:23.227Z</time></trkpt><trkpt lat="45.8003683" lon="9.685605"><ele>623.1999999999999</ele><time>2026-04-25T07:46:24.227Z</time></trkpt><trkpt lat="45.80043" lon="9.6854933"><ele>625.6</ele><time>2026-04-25T07:46:25.23Z</time></trkpt><trkpt lat="45.80049" lon="9.68538"><ele>628.0</ele><time>2026-04-25T07:46:26.231Z</time></trkpt><trkpt lat="45.800545" lon="9.68527"><ele>626.4</ele><time>2026-04-25T07:46:27.229Z</time></trkpt><trkpt lat="45.8005883" lon="9.685135"><ele>624.8</ele><time>2026-04-25T07:46:28.228Z</time></trkpt><trkpt lat="45.8006167" lon="9.6849917"><ele>623.2</ele><time>2026-04-25T07:46:29.229Z</time></trkpt><trkpt lat="45.8006217" lon="9.6848433"><ele>621.6</ele><time>2026-04-25T07:46:30.227Z</time></trkpt><trkpt lat="45.800605" lon="9.684695"><ele>620.0</ele><time>2026-04-25T07:46:31.228Z</time></trkpt><trkpt lat="45.8005783" lon="9.684545"><ele>620.5</ele><time>2026-04-25T07:46:32.228Z</time></trkpt><trkpt lat="45.8005417" lon="9.6843933"><ele>621.0</ele><time>2026-04-25T07:46:33.228Z</time></trkpt><trkpt lat="45.8005083" lon="9.6842333"><ele>621.5</ele><time>2026-04-25T07:46:34.227Z</time></trkpt><trkpt lat="45.8004883" lon="9.6840633"><ele>622.0</ele><time>2026-04-25T07:46:35.229Z</time></trkpt><trkpt lat="45.8004717" lon="9.68388"><ele>622.0</ele><time>2026-04-25T07:46:36.227Z</time></trkpt><trkpt lat="45.800465" lon="9.683695"><ele>622.0</ele><time>2026-04-25T07:46:37.228Z</time></trkpt><trkpt lat="45.8004633" lon="9.68352"><ele>622.0</ele><time>2026-04-25T07:46:38.23Z</time></trkpt><trkpt lat="45.8004667" lon="9.6833633"><ele>622.0</ele><time>2026-04-25T07:46:39.228Z</time></trkpt><trkpt lat="45.8004683" lon="9.683235"><ele>621.8333333333334</ele><time>2026-04-25T07:46:40.228Z</time></trkpt><trkpt lat="45.8004783" lon="9.6831333"><ele>621.6666666666667</ele><time>2026-04-25T07:46:41.229Z</time></trkpt><trkpt lat="45.8005467" lon="9.6830567"><ele>621.5</ele><time>2026-04-25T07:46:43.227Z</time></trkpt><trkpt lat="45.80063" lon="9.683155"><ele>621.3333333333334</ele><time>2026-04-25T07:46:45.227Z</time></trkpt><trkpt lat="45.80066" lon="9.6832567"><ele>621.1666666666666</ele><time>2026-04-25T07:46:46.227Z</time></trkpt><trkpt lat="45.800685" lon="9.6833733"><ele>621.0</ele><time>2026-04-25T07:46:47.228Z</time></trkpt><trkpt lat="45.8007" lon="9.683525"><ele>621.25</ele><time>2026-04-25T07:46:48.227Z</time></trkpt><trkpt lat="45.8007167" lon="9.6836967"><ele>621.5</ele><time>2026-04-25T07:46:49.227Z</time></trkpt><trkpt lat="45.8007367" lon="9.6838817"><ele>621.75</ele><time>2026-04-25T07:46:50.228Z</time></trkpt><trkpt lat="45.8007683" lon="9.684065"><ele>622.0</ele><time>2026-04-25T07:46:51.228Z</time></trkpt><trkpt lat="45.800805" lon="9.6842417"><ele>622.0</ele><time>2026-04-25T07:46:52.227Z</time></trkpt><trkpt lat="45.8008467" lon="9.6844133"><ele>622.0</ele><time>2026-04-25T07:46:53.227Z</time></trkpt><trkpt lat="45.800895" lon="9.68458"><ele>622.0</ele><time>2026-04-25T07:46:54.229Z</time></trkpt><trkpt lat="45.8009467" lon="9.68475"><ele>622.0</ele><time>2026-04-25T07:46:55.228Z</time></trkpt><trkpt lat="45.801" lon="9.6849217"><ele>622.0</ele><time>2026-04-25T07:46:56.227Z</time></trkpt><trkpt lat="45.8010517" lon="9.6850967"><ele>622.0</ele><time>2026-04-25T07:46:57.227Z</time></trkpt><trkpt lat="45.8011017" lon="9.6852717"><ele>622.0</ele><time>2026-04-25T07:46:58.228Z</time></trkpt><trkpt lat="45.8011467" lon="9.6854383"><ele>622.0</ele><time>2026-04-25T07:46:59.229Z</time></trkpt><trkpt lat="45.8011867" lon="9.6856"><ele>623.25</ele><time>2026-04-25T07:47:00.228Z</time></trkpt><trkpt lat="45.8012233" lon="9.685765"><ele>624.5</ele><time>2026-04-25T07:47:01.228Z</time></trkpt><trkpt lat="45.8012583" lon="9.6859333"><ele>625.75</ele><time>2026-04-25T07:47:02.228Z</time></trkpt><trkpt lat="45.8012867" lon="9.6861033"><ele>627.0</ele><time>2026-04-25T07:47:03.229Z</time></trkpt><trkpt lat="45.8013017" lon="9.6862817"><ele>628.0</ele><time>2026-04-25T07:47:04.227Z</time></trkpt><trkpt lat="45.8013083" lon="9.6864667"><ele>629.0</ele><time>2026-04-25T07:47:05.227Z</time></trkpt><trkpt lat="45.8013167" lon="9.6866567"><ele>630.0</ele><time>2026-04-25T07:47:06.228Z</time></trkpt><trkpt lat="45.8013283" lon="9.6868517"><ele>631.0</ele><time>2026-04-25T07:47:07.227Z</time></trkpt><trkpt lat="45.80134" lon="9.687055"><ele>632.75</ele><time>2026-04-25T07:47:08.228Z</time></trkpt><trkpt lat="45.8013483" lon="9.6872633"><ele>634.5</ele><time>2026-04-25T07:47:09.228Z</time></trkpt><trkpt lat="45.8013567" lon="9.687475"><ele>636.25</ele><time>2026-04-25T07:47:10.228Z</time></trkpt><trkpt lat="45.8013633" lon="9.687685"><ele>638.0</ele><time>2026-04-25T07:47:11.227Z</time></trkpt><trkpt lat="45.8013717" lon="9.6878833"><ele>639.0</ele><time>2026-04-25T07:47:12.228Z</time></trkpt><trkpt lat="45.8013817" lon="9.6880733"><ele>640.0</ele><time>2026-04-25T07:47:13.229Z</time></trkpt><trkpt lat="45.8013917" lon="9.688255"><ele>641.0</ele><time>2026-04-25T07:47:14.229Z</time></trkpt><trkpt lat="45.80141" lon="9.6884283"><ele>642.0</ele><time>2026-04-25T07:47:15.228Z</time></trkpt><trkpt lat="45.80144" lon="9.688595"><ele>645.0</ele><time>2026-04-25T07:47:16.228Z</time></trkpt><trkpt lat="45.80148" lon="9.6887583"><ele>648.0</ele><time>2026-04-25T07:47:17.231Z</time></trkpt><trkpt lat="45.8015233" lon="9.6889267"><ele>651.0</ele><time>2026-04-25T07:47:18.229Z</time></trkpt><trkpt lat="45.80157" lon="9.689095"><ele>654.0</ele><time>2026-04-25T07:47:19.229Z</time></trkpt><trkpt lat="45.801615" lon="9.6892633"><ele>656.5</ele><time>2026-04-25T07:47:20.228Z</time></trkpt><trkpt lat="45.8016533" lon="9.6894283"><ele>659.0</ele><time>2026-04-25T07:47:21.229Z</time></trkpt><trkpt lat="45.8016783" lon="9.6895967"><ele>661.5</ele><time>2026-04-25T07:47:22.228Z</time></trkpt><trkpt lat="45.8016983" lon="9.689765"><ele>664.0</ele><time>2026-04-25T07:47:23.229Z</time></trkpt><trkpt lat="45.8017183" lon="9.6899383"><ele>664.0</ele><time>2026-04-25T07:47:24.228Z</time></trkpt><trkpt lat="45.8017383" lon="9.6901117"><ele>664.0</ele><time>2026-04-25T07:47:25.228Z</time></trkpt><trkpt lat="45.8017567" lon="9.69028"><ele>664.0</ele><time>2026-04-25T07:47:26.229Z</time></trkpt><trkpt lat="45.8017683" lon="9.69043"><ele>664.0</ele><time>2026-04-25T07:47:27.228Z</time></trkpt><trkpt lat="45.8017633" lon="9.6905717"><ele>664.0</ele><time>2026-04-25T07:47:28.228Z</time></trkpt><trkpt lat="45.801745" lon="9.690715"><ele>664.4000000000001</ele><time>2026-04-25T07:47:29.227Z</time></trkpt><trkpt lat="45.8017033" lon="9.6908417"><ele>664.8</ele><time>2026-04-25T07:47:30.227Z</time></trkpt><trkpt lat="45.801655" lon="9.69096"><ele>665.2</ele><time>2026-04-25T07:47:31.227Z</time></trkpt><trkpt lat="45.8016167" lon="9.69108"><ele>665.5999999999999</ele><time>2026-04-25T07:47:32.228Z</time></trkpt><trkpt lat="45.8015983" lon="9.6912017"><ele>666.0</ele><time>2026-04-25T07:47:33.228Z</time></trkpt><trkpt lat="45.8015917" lon="9.6913317"><ele>666.5999999999999</ele><time>2026-04-25T07:47:34.229Z</time></trkpt><trkpt lat="45.8015867" lon="9.6914767"><ele>667.2</ele><time>2026-04-25T07:47:35.228Z</time></trkpt><trkpt lat="45.8015817" lon="9.6916267"><ele>667.8</ele><time>2026-04-25T07:47:36.227Z</time></trkpt><trkpt lat="45.80158" lon="9.6917817"><ele>668.4000000000001</ele><time>2026-04-25T07:47:37.229Z</time></trkpt><trkpt lat="45.8015717" lon="9.6919333"><ele>669.0</ele><time>2026-04-25T07:47:38.227Z</time></trkpt><trkpt lat="45.801555" lon="9.6920833"><ele>669.5</ele><time>2026-04-25T07:47:39.227Z</time></trkpt><trkpt lat="45.8015267" lon="9.692235"><ele>670.0</ele><time>2026-04-25T07:47:40.228Z</time></trkpt><trkpt lat="45.8014883" lon="9.6923933"><ele>670.5</ele><time>2026-04-25T07:47:41.228Z</time></trkpt><trkpt lat="45.8014467" lon="9.69256"><ele>671.0</ele><time>2026-04-25T07:47:42.228Z</time></trkpt><trkpt lat="45.8014017" lon="9.6927367"><ele>670.75</ele><time>2026-04-25T07:47:43.227Z</time></trkpt><trkpt lat="45.8013633" lon="9.6929117"><ele>670.5</ele><time>2026-04-25T07:47:44.228Z</time></trkpt><trkpt lat="45.8013233" lon="9.6930917"><ele>670.25</ele><time>2026-04-25T07:47:45.229Z</time></trkpt><trkpt lat="45.8012817" lon="9.6932817"><ele>670.0</ele><time>2026-04-25T07:47:46.227Z</time></trkpt><trkpt lat="45.8012467" lon="9.69346"><ele>671.5</ele><time>2026-04-25T07:47:47.228Z</time></trkpt><trkpt lat="45.8012283" lon="9.693645"><ele>673.0</ele><time>2026-04-25T07:47:48.228Z</time></trkpt><trkpt lat="45.801215" lon="9.693835"><ele>674.5</ele><time>2026-04-25T07:47:49.229Z</time></trkpt><trkpt lat="45.8012133" lon="9.6940283"><ele>676.0</ele><time>2026-04-25T07:47:50.227Z</time></trkpt><trkpt lat="45.8012117" lon="9.6942233"><ele>676.0</ele><time>2026-04-25T07:47:51.229Z</time></trkpt><trkpt lat="45.8012133" lon="9.69442"><ele>676.0</ele><time>2026-04-25T07:47:52.228Z</time></trkpt><trkpt lat="45.8012133" lon="9.694605"><ele>676.0</ele><time>2026-04-25T07:47:53.228Z</time></trkpt><trkpt lat="45.8012117" lon="9.6947883"><ele>676.0</ele><time>2026-04-25T07:47:54.229Z</time></trkpt><trkpt lat="45.8012133" lon="9.6949717"><ele>677.5</ele><time>2026-04-25T07:47:55.228Z</time></trkpt><trkpt lat="45.8012133" lon="9.6951583"><ele>679.0</ele><time>2026-04-25T07:47:56.229Z</time></trkpt><trkpt lat="45.80121" lon="9.6953417"><ele>680.5</ele><time>2026-04-25T07:47:57.229Z</time></trkpt><trkpt lat="45.8012067" lon="9.695525"><ele>682.0</ele><time>2026-04-25T07:47:58.228Z</time></trkpt><trkpt lat="45.8012033" lon="9.6957"><ele>683.6</ele><time>2026-04-25T07:47:59.227Z</time></trkpt><trkpt lat="45.8012017" lon="9.6958517"><ele>685.2</ele><time>2026-04-25T07:48:00.227Z</time></trkpt><trkpt lat="45.8011933" lon="9.695995"><ele>686.8</ele><time>2026-04-25T07:48:01.227Z</time></trkpt><trkpt lat="45.80117" lon="9.6961383"><ele>688.4</ele><time>2026-04-25T07:48:02.228Z</time></trkpt><trkpt lat="45.80113" lon="9.696285"><ele>690.0</ele><time>2026-04-25T07:48:03.228Z</time></trkpt><trkpt lat="45.8010767" lon="9.6964333"><ele>690.5</ele><time>2026-04-25T07:48:04.229Z</time></trkpt><trkpt lat="45.8010167" lon="9.6965867"><ele>691.0</ele><time>2026-04-25T07:48:05.229Z</time></trkpt><trkpt lat="45.80096" lon="9.696755"><ele>691.5</ele><time>2026-04-25T07:48:06.228Z</time></trkpt><trkpt lat="45.800915" lon="9.6969383"><ele>692.0</ele><time>2026-04-25T07:48:07.228Z</time></trkpt><trkpt lat="45.8008833" lon="9.6971233"><ele>696.8</ele><time>2026-04-25T07:48:08.228Z</time></trkpt><trkpt lat="45.8008617" lon="9.6973083"><ele>701.6</ele><time>2026-04-25T07:48:09.229Z</time></trkpt><trkpt lat="45.8008483" lon="9.6974817"><ele>706.4</ele><time>2026-04-25T07:48:10.228Z</time></trkpt><trkpt lat="45.8008533" lon="9.697625"><ele>711.1999999999999</ele><time>2026-04-25T07:48:11.227Z</time></trkpt><trkpt lat="45.8008667" lon="9.6977533"><ele>716.0</ele><time>2026-04-25T07:48:12.23Z</time></trkpt><trkpt lat="45.8008767" lon="9.69787"><ele>717.0</ele><time>2026-04-25T07:48:13.228Z</time></trkpt><trkpt lat="45.80088" lon="9.6979667"><ele>718.0</ele><time>2026-04-25T07:48:14.228Z</time></trkpt><trkpt lat="45.8008267" lon="9.698125"><ele>719.0</ele><time>2026-04-25T07:48:16.228Z</time></trkpt><trkpt lat="45.8007283" lon="9.69814"><ele>720.0</ele><time>2026-04-25T07:48:18.23Z</time></trkpt><trkpt lat="45.8006567" lon="9.6980233"><ele>721.0</ele><time>2026-04-25T07:48:20.229Z</time></trkpt><trkpt lat="45.8006367" lon="9.6979233"><ele>721.0</ele><time>2026-04-25T07:48:21.227Z</time></trkpt><trkpt lat="45.8006367" lon="9.6978017"><ele>721.0</ele><time>2026-04-25T07:48:22.228Z</time></trkpt><trkpt lat="45.800645" lon="9.6976517"><ele>721.0</ele><time>2026-04-25T07:48:23.227Z</time></trkpt><trkpt lat="45.8006467" lon="9.6974917"><ele>721.0</ele><time>2026-04-25T07:48:24.228Z</time></trkpt><trkpt lat="45.8006467" lon="9.697325"><ele>721.0</ele><time>2026-04-25T07:48:25.227Z</time></trkpt><trkpt lat="45.800635" lon="9.6971833"><ele>720.0</ele><time>2026-04-25T07:48:26.227Z</time></trkpt><trkpt lat="45.800605" lon="9.6970667"><ele>719.0</ele><time>2026-04-25T07:48:27.228Z</time></trkpt><trkpt lat="45.8005533" lon="9.6969717"><ele>718.0</ele><time>2026-04-25T07:48:28.228Z</time></trkpt><trkpt lat="45.80048" lon="9.6968983"><ele>717.0</ele><time>2026-04-25T07:48:29.228Z</time></trkpt><trkpt lat="45.80039" lon="9.6968467"><ele>716.0</ele><time>2026-04-25T07:48:30.228Z</time></trkpt><trkpt lat="45.80028" lon="9.6968283"><ele>715.5</ele><time>2026-04-25T07:48:31.227Z</time></trkpt><trkpt lat="45.8001667" lon="9.6968267"><ele>715.0</ele><time>2026-04-25T07:48:32.234Z</time></trkpt><trkpt lat="45.8000483" lon="9.69683"><ele>714.5</ele><time>2026-04-25T07:48:33.228Z</time></trkpt><trkpt lat="45.7999267" lon="9.6968333"><ele>714.0</ele><time>2026-04-25T07:48:34.227Z</time></trkpt><trkpt lat="45.799805" lon="9.69683"><ele>715.5</ele><time>2026-04-25T07:48:35.228Z</time></trkpt><trkpt lat="45.7996817" lon="9.696825"><ele>717.0</ele><time>2026-04-25T07:48:36.23Z</time></trkpt><trkpt lat="45.7995567" lon="9.6968217"><ele>718.5</ele><time>2026-04-25T07:48:37.228Z</time></trkpt><trkpt lat="45.7994367" lon="9.69682"><ele>720.0</ele><time>2026-04-25T07:48:38.227Z</time></trkpt><trkpt lat="45.79933" lon="9.6968183"><ele>720.4</ele><time>2026-04-25T07:48:39.227Z</time></trkpt><trkpt lat="45.7992367" lon="9.6968183"><ele>720.8</ele><time>2026-04-25T07:48:40.232Z</time></trkpt><trkpt lat="45.7991617" lon="9.696825"><ele>721.2</ele><time>2026-04-25T07:48:41.227Z</time></trkpt><trkpt lat="45.799095" lon="9.6968517"><ele>721.6</ele><time>2026-04-25T07:48:42.229Z</time></trkpt><trkpt lat="45.7990267" lon="9.6969767"><ele>722.0</ele><time>2026-04-25T07:48:44.228Z</time></trkpt><trkpt lat="45.7990967" lon="9.6971217"><ele>723.6666666666666</ele><time>2026-04-25T07:48:46.227Z</time></trkpt><trkpt lat="45.7991583" lon="9.6971583"><ele>725.3333333333333</ele><time>2026-04-25T07:48:47.227Z</time></trkpt><trkpt lat="45.7992367" lon="9.6971717"><ele>727.0</ele><time>2026-04-25T07:48:48.228Z</time></trkpt><trkpt lat="45.7993333" lon="9.6971767"><ele>728.6666666666666</ele><time>2026-04-25T07:48:49.229Z</time></trkpt><trkpt lat="45.7994317" lon="9.6972017"><ele>730.3333333333334</ele><time>2026-04-25T07:48:50.229Z</time></trkpt><trkpt lat="45.7995317" lon="9.6972467"><ele>732.0</ele><time>2026-04-25T07:48:51.229Z</time></trkpt><trkpt lat="45.7996317" lon="9.6973033"><ele>732.0</ele><time>2026-04-25T07:48:52.227Z</time></trkpt><trkpt lat="45.7997283" lon="9.6973833"><ele>732.0</ele><time>2026-04-25T07:48:53.229Z</time></trkpt><trkpt lat="45.7998117" lon="9.697485"><ele>732.0</ele><time>2026-04-25T07:48:54.229Z</time></trkpt><trkpt lat="45.799885" lon="9.6976067"><ele>732.0</ele><time>2026-04-25T07:48:55.228Z</time></trkpt><trkpt lat="45.7999433" lon="9.697735"><ele>732.0</ele><time>2026-04-25T07:48:56.229Z</time></trkpt><trkpt lat="45.7999833" lon="9.6978483"><ele>734.2</ele><time>2026-04-25T07:48:57.227Z</time></trkpt><trkpt lat="45.8000033" lon="9.6979567"><ele>736.4000000000001</ele><time>2026-04-25T07:48:58.227Z</time></trkpt><trkpt lat="45.800005" lon="9.69808"><ele>738.5999999999999</ele><time>2026-04-25T07:48:59.228Z</time></trkpt><trkpt lat="45.7999967" lon="9.6982183"><ele>740.8</ele><time>2026-04-25T07:49:00.227Z</time></trkpt><trkpt lat="45.79999" lon="9.69836"><ele>743.0</ele><time>2026-04-25T07:49:01.228Z</time></trkpt><trkpt lat="45.7999817" lon="9.6985117"><ele>744.5999999999999</ele><time>2026-04-25T07:49:02.228Z</time></trkpt><trkpt lat="45.7999683" lon="9.6986717"><ele>746.1999999999999</ele><time>2026-04-25T07:49:03.228Z</time></trkpt><trkpt lat="45.7999583" lon="9.698825"><ele>747.8</ele><time>2026-04-25T07:49:04.227Z</time></trkpt><trkpt lat="45.7999567" lon="9.6989783"><ele>749.4</ele><time>2026-04-25T07:49:05.227Z</time></trkpt><trkpt lat="45.7999717" lon="9.699135"><ele>751.0</ele><time>2026-04-25T07:49:06.228Z</time></trkpt><trkpt lat="45.8000067" lon="9.6992883"><ele>751.25</ele><time>2026-04-25T07:49:07.229Z</time></trkpt><trkpt lat="45.8000617" lon="9.69943"><ele>751.5</ele><time>2026-04-25T07:49:08.227Z</time></trkpt><trkpt lat="45.8001317" lon="9.699565"><ele>751.75</ele><time>2026-04-25T07:49:09.228Z</time></trkpt><trkpt lat="45.800205" lon="9.6997033"><ele>752.0</ele><time>2026-04-25T07:49:10.227Z</time></trkpt><trkpt lat="45.8002817" lon="9.6998417"><ele>752.0</ele><time>2026-04-25T07:49:11.227Z</time></trkpt><trkpt lat="45.8003583" lon="9.6999833"><ele>752.0</ele><time>2026-04-25T07:49:12.227Z</time></trkpt><trkpt lat="45.8004367" lon="9.7001283"><ele>752.0</ele><time>2026-04-25T07:49:13.228Z</time></trkpt><trkpt lat="45.8005167" lon="9.7002733"><ele>752.0</ele><time>2026-04-25T07:49:14.227Z</time></trkpt><trkpt lat="45.8006" lon="9.7004183"><ele>754.8</ele><time>2026-04-25T07:49:15.23Z</time></trkpt><trkpt lat="45.80068" lon="9.7005567"><ele>757.6</ele><time>2026-04-25T07:49:16.227Z</time></trkpt><trkpt lat="45.80075" lon="9.7006767"><ele>760.4</ele><time>2026-04-25T07:49:17.228Z</time></trkpt><trkpt lat="45.8008117" lon="9.7007867"><ele>763.1999999999999</ele><time>2026-04-25T07:49:18.231Z</time></trkpt><trkpt lat="45.8008717" lon="9.700885"><ele>766.0</ele><time>2026-04-25T07:49:19.23Z</time></trkpt><trkpt lat="45.8009083" lon="9.7009767"><ele>766.0</ele><time>2026-04-25T07:49:20.229Z</time></trkpt><trkpt lat="45.8009267" lon="9.70107"><ele>766.0</ele><time>2026-04-25T07:49:21.229Z</time></trkpt><trkpt lat="45.8008583" lon="9.7011783"><ele>766.0</ele><time>2026-04-25T07:49:23.23Z</time></trkpt><trkpt lat="45.800745" lon="9.7011417"><ele>766.0</ele><time>2026-04-25T07:49:25.23Z</time></trkpt><trkpt lat="45.8006867" lon="9.701085"><ele>766.0</ele><time>2026-04-25T07:49:26.227Z</time></trkpt><trkpt lat="45.80062" lon="9.7010017"><ele>766.0</ele><time>2026-04-25T07:49:27.228Z</time></trkpt><trkpt lat="45.80054" lon="9.7009133"><ele>766.0</ele><time>2026-04-25T07:49:28.227Z</time></trkpt><trkpt lat="45.8004467" lon="9.70082"><ele>766.0</ele><time>2026-04-25T07:49:29.229Z</time></trkpt><trkpt lat="45.8003383" lon="9.7007283"><ele>766.0</ele><time>2026-04-25T07:49:30.228Z</time></trkpt><trkpt lat="45.800215" lon="9.700635"><ele>766.0</ele><time>2026-04-25T07:49:31.229Z</time></trkpt><trkpt lat="45.8000883" lon="9.7005433"><ele>765.25</ele><time>2026-04-25T07:49:32.227Z</time></trkpt><trkpt lat="45.799965" lon="9.7004567"><ele>764.5</ele><time>2026-04-25T07:49:33.227Z</time></trkpt><trkpt lat="45.7998517" lon="9.70037"><ele>763.75</ele><time>2026-04-25T07:49:34.228Z</time></trkpt><trkpt lat="45.7997583" lon="9.7002783"><ele>763.0</ele><time>2026-04-25T07:49:35.228Z</time></trkpt><trkpt lat="45.7996867" lon="9.7001867"><ele>763.0</ele><time>2026-04-25T07:49:36.227Z</time></trkpt><trkpt lat="45.799625" lon="9.700095"><ele>763.0</ele><time>2026-04-25T07:49:37.227Z</time></trkpt><trkpt lat="45.7995667" lon="9.7000117"><ele>763.0</ele><time>2026-04-25T07:49:38.229Z</time></trkpt><trkpt lat="45.7994567" lon="9.69998"><ele>763.0</ele><time>2026-04-25T07:49:40.227Z</time></trkpt><trkpt lat="45.79938" lon="9.7000617"><ele>763.0</ele><time>2026-04-25T07:49:42.227Z</time></trkpt><trkpt lat="45.7993883" lon="9.7002083"><ele>765.5999999999999</ele><time>2026-04-25T07:49:44.227Z</time></trkpt><trkpt lat="45.79948" lon="9.7003433"><ele>768.1999999999999</ele><time>2026-04-25T07:49:46.229Z</time></trkpt><trkpt lat="45.7995467" lon="9.7004167"><ele>770.8</ele><time>2026-04-25T07:49:47.227Z</time></trkpt><trkpt lat="45.7996167" lon="9.7004933"><ele>773.4</ele><time>2026-04-25T07:49:48.227Z</time></trkpt><trkpt lat="45.7996867" lon="9.7005817"><ele>776.0</ele><time>2026-04-25T07:49:49.229Z</time></trkpt><trkpt lat="45.7997467" lon="9.7006917"><ele>776.0</ele><time>2026-04-25T07:49:50.229Z</time></trkpt><trkpt lat="45.7997917" lon="9.700815"><ele>776.0</ele><time>2026-04-25T07:49:51.23Z</time></trkpt><trkpt lat="45.7998217" lon="9.7009417"><ele>776.0</ele><time>2026-04-25T07:49:52.227Z</time></trkpt><trkpt lat="45.799845" lon="9.701065"><ele>776.0</ele><time>2026-04-25T07:49:53.227Z</time></trkpt><trkpt lat="45.7998667" lon="9.701195"><ele>776.0</ele><time>2026-04-25T07:49:54.229Z</time></trkpt><trkpt lat="45.79989" lon="9.7013283"><ele>780.8</ele><time>2026-04-25T07:49:55.227Z</time></trkpt><trkpt lat="45.7999233" lon="9.7014617"><ele>785.5999999999999</ele><time>2026-04-25T07:49:56.227Z</time></trkpt><trkpt lat="45.7999633" lon="9.7015767"><ele>790.4</ele><time>2026-04-25T07:49:57.228Z</time></trkpt><trkpt lat="45.800015" lon="9.7016933"><ele>795.2</ele><time>2026-04-25T07:49:58.228Z</time></trkpt><trkpt lat="45.800075" lon="9.7018233"><ele>800.0</ele><time>2026-04-25T07:49:59.23Z</time></trkpt><trkpt lat="45.8001483" lon="9.701945"><ele>800.0</ele><time>2026-04-25T07:50:00.229Z</time></trkpt><trkpt lat="45.800225" lon="9.702055"><ele>800.0</ele><time>2026-04-25T07:50:01.23Z</time></trkpt><trkpt lat="45.8003" lon="9.702165"><ele>800.0</ele><time>2026-04-25T07:50:02.228Z</time></trkpt><trkpt lat="45.8003817" lon="9.7022767"><ele>800.0</ele><time>2026-04-25T07:50:03.229Z</time></trkpt><trkpt lat="45.8004633" lon="9.7023883"><ele>800.0</ele><time>2026-04-25T07:50:04.23Z</time></trkpt><trkpt lat="45.80055" lon="9.7025083"><ele>800.0</ele><time>2026-04-25T07:50:05.229Z</time></trkpt><trkpt lat="45.8006317" lon="9.702635"><ele>800.0</ele><time>2026-04-25T07:50:06.229Z</time></trkpt><trkpt lat="45.800715" lon="9.7027733"><ele>800.0</ele><time>2026-04-25T07:50:07.229Z</time></trkpt><trkpt lat="45.800805" lon="9.7029033"><ele>800.0</ele><time>2026-04-25T07:50:08.228Z</time></trkpt><trkpt lat="45.800895" lon="9.70304"><ele>804.0</ele><time>2026-04-25T07:50:09.227Z</time></trkpt><trkpt lat="45.8009867" lon="9.7031633"><ele>808.0</ele><time>2026-04-25T07:50:10.227Z</time></trkpt><trkpt lat="45.8010833" lon="9.7032783"><ele>812.0</ele><time>2026-04-25T07:50:11.226Z</time></trkpt><trkpt lat="45.801185" lon="9.7033783"><ele>816.0</ele><time>2026-04-25T07:50:12.228Z</time></trkpt><trkpt lat="45.8013" lon="9.7034517"><ele>816.0</ele><time>2026-04-25T07:50:13.227Z</time></trkpt><trkpt lat="45.8014133" lon="9.70347"><ele>816.0</ele><time>2026-04-25T07:50:14.228Z</time></trkpt><trkpt lat="45.80154" lon="9.70346"><ele>816.0</ele><time>2026-04-25T07:50:15.227Z</time></trkpt><trkpt lat="45.80167" lon="9.7034317"><ele>816.0</ele><time>2026-04-25T07:50:16.228Z</time></trkpt><trkpt lat="45.8017933" lon="9.7034"><ele>815.0</ele><time>2026-04-25T07:50:17.228Z</time></trkpt><trkpt lat="45.8019033" lon="9.7033767"><ele>814.0</ele><time>2026-04-25T07:50:18.228Z</time></trkpt><trkpt lat="45.80201" lon="9.7033633"><ele>813.0</ele><time>2026-04-25T07:50:19.228Z</time></trkpt><trkpt lat="45.802105" lon="9.70336"><ele>812.0</ele><time>2026-04-25T07:50:20.23Z</time></trkpt><trkpt lat="45.8021783" lon="9.7033783"><ele>811.0</ele><time>2026-04-25T07:50:21.228Z</time></trkpt><trkpt lat="45.8022417" lon="9.703415"><ele>810.9999999999999</ele><time>2026-04-25T07:50:22.228Z</time></trkpt><trkpt lat="45.8022833" lon="9.7035117"><ele>811.0</ele><time>2026-04-25T07:50:24.229Z</time></trkpt><trkpt lat="45.802205" lon="9.7035617"><ele>811.0</ele><time>2026-04-25T07:50:26.227Z</time></trkpt><trkpt lat="45.8021333" lon="9.7035783"><ele>811.0</ele><time>2026-04-25T07:50:27.229Z</time></trkpt><trkpt lat="45.8020617" lon="9.7035833"><ele>810.9999999999999</ele><time>2026-04-25T07:50:28.228Z</time></trkpt><trkpt lat="45.8019367" lon="9.7035833"><ele>811.0</ele><time>2026-04-25T07:50:29.23Z</time></trkpt><trkpt lat="45.8017883" lon="9.7035817"><ele>819.75</ele><time>2026-04-25T07:50:30.229Z</time></trkpt><trkpt lat="45.8016517" lon="9.703615"><ele>828.5</ele><time>2026-04-25T07:50:31.228Z</time></trkpt><trkpt lat="45.8015217" lon="9.7036667"><ele>837.25</ele><time>2026-04-25T07:50:32.227Z</time></trkpt><trkpt lat="45.8013983" lon="9.7037117"><ele>846.0</ele><time>2026-04-25T07:50:33.229Z</time></trkpt><trkpt lat="45.8012733" lon="9.703725"><ele>846.0</ele><time>2026-04-25T07:50:34.23Z</time></trkpt><trkpt lat="45.8011467" lon="9.7037083"><ele>846.0</ele><time>2026-04-25T07:50:35.227Z</time></trkpt><trkpt lat="45.8010267" lon="9.7036817"><ele>846.0</ele><time>2026-04-25T07:50:36.227Z</time></trkpt><trkpt lat="45.8009083" lon="9.703635"><ele>846.0</ele><time>2026-04-25T07:50:37.227Z</time></trkpt><trkpt lat="45.8007967" lon="9.703575"><ele>842.25</ele><time>2026-04-25T07:50:38.228Z</time></trkpt><trkpt lat="45.8006933" lon="9.7035017"><ele>838.5</ele><time>2026-04-25T07:50:39.23Z</time></trkpt><trkpt lat="45.8005883" lon="9.70343"><ele>834.75</ele><time>2026-04-25T07:50:40.228Z</time></trkpt><trkpt lat="45.8004817" lon="9.70335"><ele>831.0</ele><time>2026-04-25T07:50:41.227Z</time></trkpt><trkpt lat="45.8003717" lon="9.7032883"><ele>831.0</ele><time>2026-04-25T07:50:42.228Z</time></trkpt><trkpt lat="45.8002617" lon="9.7032417"><ele>831.0</ele><time>2026-04-25T07:50:43.231Z</time></trkpt><trkpt lat="45.8001617" lon="9.7032017"><ele>831.0</ele><time>2026-04-25T07:50:44.228Z</time></trkpt><trkpt lat="45.8000783" lon="9.70317"><ele>831.0</ele><time>2026-04-25T07:50:45.23Z</time></trkpt><trkpt lat="45.8000133" lon="9.7031767"><ele>831.0</ele><time>2026-04-25T07:50:46.23Z</time></trkpt><trkpt lat="45.7999333" lon="9.7031967"><ele>831.8333333333334</ele><time>2026-04-25T07:50:47.229Z</time></trkpt><trkpt lat="45.7998633" lon="9.7032367"><ele>832.6666666666667</ele><time>2026-04-25T07:50:48.227Z</time></trkpt><trkpt lat="45.7998233" lon="9.7033233"><ele>833.5</ele><time>2026-04-25T07:50:49.228Z</time></trkpt><trkpt lat="45.7998033" lon="9.70341"><ele>834.3333333333334</ele><time>2026-04-25T07:50:50.227Z</time></trkpt><trkpt lat="45.799825" lon="9.7035167"><ele>835.1666666666667</ele><time>2026-04-25T07:50:51.227Z</time></trkpt><trkpt lat="45.799875" lon="9.7036133"><ele>836.0</ele><time>2026-04-25T07:50:52.227Z</time></trkpt><trkpt lat="45.7999467" lon="9.703705"><ele>836.0</ele><time>2026-04-25T07:50:53.228Z</time></trkpt><trkpt lat="45.8000233" lon="9.7037967"><ele>836.0</ele><time>2026-04-25T07:50:54.229Z</time></trkpt><trkpt lat="45.800105" lon="9.703895"><ele>836.0</ele><time>2026-04-25T07:50:55.227Z</time></trkpt><trkpt lat="45.800195" lon="9.7039933"><ele>836.0</ele><time>2026-04-25T07:50:56.233Z</time></trkpt><trkpt lat="45.8002917" lon="9.7041017"><ele>836.0</ele><time>2026-04-25T07:50:57.228Z</time></trkpt><trkpt lat="45.800385" lon="9.7042133"><ele>837.8</ele><time>2026-04-25T07:50:58.228Z</time></trkpt><trkpt lat="45.80047" lon="9.7043117"><ele>839.5999999999999</ele><time>2026-04-25T07:50:59.23Z</time></trkpt><trkpt lat="45.80055" lon="9.7044"><ele>841.4</ele><time>2026-04-25T07:51:00.229Z</time></trkpt><trkpt lat="45.8006167" lon="9.7044883"><ele>843.2</ele><time>2026-04-25T07:51:01.227Z</time></trkpt><trkpt lat="45.8006717" lon="9.7045767"><ele>845.0</ele><time>2026-04-25T07:51:02.228Z</time></trkpt><trkpt lat="45.80071" lon="9.7046733"><ele>847.2</ele><time>2026-04-25T07:51:03.228Z</time></trkpt><trkpt lat="45.800725" lon="9.7047883"><ele>849.4</ele><time>2026-04-25T07:51:04.228Z</time></trkpt><trkpt lat="45.8007183" lon="9.7049133"><ele>851.5999999999999</ele><time>2026-04-25T07:51:05.227Z</time></trkpt><trkpt lat="45.800705" lon="9.7050433"><ele>853.8</ele><time>2026-04-25T07:51:06.227Z</time></trkpt><trkpt lat="45.80069" lon="9.7051783"><ele>856.0</ele><time>2026-04-25T07:51:07.229Z</time></trkpt><trkpt lat="45.8006683" lon="9.7053183"><ele>857.1999999999999</ele><time>2026-04-25T07:51:08.228Z</time></trkpt><trkpt lat="45.8006483" lon="9.70546"><ele>858.3999999999999</ele><time>2026-04-25T07:51:09.229Z</time></trkpt><trkpt lat="45.8006317" lon="9.7056067"><ele>859.6</ele><time>2026-04-25T07:51:10.229Z</time></trkpt><trkpt lat="45.8006333" lon="9.7057483"><ele>860.8</ele><time>2026-04-25T07:51:11.228Z</time></trkpt><trkpt lat="45.8006583" lon="9.705885"><ele>862.0</ele><time>2026-04-25T07:51:12.228Z</time></trkpt><trkpt lat="45.8007033" lon="9.7060167"><ele>863.4000000000001</ele><time>2026-04-25T07:51:13.228Z</time></trkpt><trkpt lat="45.80075" lon="9.70615"><ele>864.8000000000001</ele><time>2026-04-25T07:51:14.229Z</time></trkpt><trkpt lat="45.8007917" lon="9.7062867"><ele>866.2</ele><time>2026-04-25T07:51:15.228Z</time></trkpt><trkpt lat="45.800825" lon="9.706435"><ele>867.6</ele><time>2026-04-25T07:51:16.229Z</time></trkpt><trkpt lat="45.8008417" lon="9.7065867"><ele>869.0</ele><time>2026-04-25T07:51:17.228Z</time></trkpt><trkpt lat="45.8008433" lon="9.7067433"><ele>869.0</ele><time>2026-04-25T07:51:18.228Z</time></trkpt><trkpt lat="45.8008267" lon="9.7069017"><ele>869.0000000000001</ele><time>2026-04-25T07:51:19.229Z</time></trkpt><trkpt lat="45.8007983" lon="9.7070567"><ele>869.0000000000001</ele><time>2026-04-25T07:51:20.229Z</time></trkpt><trkpt lat="45.8007533" lon="9.707205"><ele>869.0</ele><time>2026-04-25T07:51:21.23Z</time></trkpt><trkpt lat="45.80069" lon="9.7073383"><ele>869.0</ele><time>2026-04-25T07:51:22.227Z</time></trkpt><trkpt lat="45.8006133" lon="9.707465"><ele>871.5</ele><time>2026-04-25T07:51:23.233Z</time></trkpt><trkpt lat="45.8005283" lon="9.70759"><ele>874.0</ele><time>2026-04-25T07:51:24.228Z</time></trkpt><trkpt lat="45.8004333" lon="9.70771"><ele>876.5</ele><time>2026-04-25T07:51:25.228Z</time></trkpt><trkpt lat="45.8003383" lon="9.7078283"><ele>879.0</ele><time>2026-04-25T07:51:26.228Z</time></trkpt><trkpt lat="45.8002433" lon="9.707945"><ele>880.4000000000001</ele><time>2026-04-25T07:51:27.229Z</time></trkpt><trkpt lat="45.80015" lon="9.708055"><ele>881.8000000000001</ele><time>2026-04-25T07:51:28.227Z</time></trkpt><trkpt lat="45.8000567" lon="9.708145"><ele>883.1999999999999</ele><time>2026-04-25T07:51:29.229Z</time></trkpt><trkpt lat="45.799975" lon="9.7082167"><ele>884.5999999999999</ele><time>2026-04-25T07:51:30.227Z</time></trkpt><trkpt lat="45.7999017" lon="9.7082783"><ele>886.0</ele><time>2026-04-25T07:51:31.227Z</time></trkpt><trkpt lat="45.7998433" lon="9.7083467"><ele>885.9999999999999</ele><time>2026-04-25T07:51:32.228Z</time></trkpt><trkpt lat="45.7998017" lon="9.7084233"><ele>886.0</ele><time>2026-04-25T07:51:33.228Z</time></trkpt><trkpt lat="45.7997967" lon="9.708565"><ele>886.0</ele><time>2026-04-25T07:51:35.228Z</time></trkpt><trkpt lat="45.7998817" lon="9.7086833"><ele>886.0</ele><time>2026-04-25T07:51:37.228Z</time></trkpt><trkpt lat="45.7999483" lon="9.7087"><ele>885.9999999999999</ele><time>2026-04-25T07:51:38.228Z</time></trkpt><trkpt lat="45.800025" lon="9.7086583"><ele>886.0</ele><time>2026-04-25T07:51:39.228Z</time></trkpt><trkpt lat="45.8000917" lon="9.7085967"><ele>888.0</ele><time>2026-04-25T07:51:40.228Z</time></trkpt><trkpt lat="45.8001683" lon="9.7085283"><ele>889.9999999999999</ele><time>2026-04-25T07:51:41.23Z</time></trkpt><trkpt lat="45.8002567" lon="9.7084767"><ele>891.9999999999999</ele><time>2026-04-25T07:51:42.227Z</time></trkpt><trkpt lat="45.8003417" lon="9.7084517"><ele>894.0</ele><time>2026-04-25T07:51:43.228Z</time></trkpt><trkpt lat="45.8004333" lon="9.708445"><ele>896.0</ele><time>2026-04-25T07:51:44.227Z</time></trkpt><trkpt lat="45.8005283" lon="9.7084517"><ele>896.0</ele><time>2026-04-25T07:51:45.229Z</time></trkpt><trkpt lat="45.80063" lon="9.7084717"><ele>895.9999999999999</ele><time>2026-04-25T07:51:46.229Z</time></trkpt><trkpt lat="45.800735" lon="9.7085033"><ele>895.9999999999999</ele><time>2026-04-25T07:51:47.23Z</time></trkpt><trkpt lat="45.8008433" lon="9.70854"><ele>896.0</ele><time>2026-04-25T07:51:48.227Z</time></trkpt><trkpt lat="45.8009483" lon="9.708575"><ele>896.0</ele><time>2026-04-25T07:51:49.227Z</time></trkpt><trkpt lat="45.8010433" lon="9.7086067"><ele>896.3333333333334</ele><time>2026-04-25T07:51:50.229Z</time></trkpt><trkpt lat="45.8011183" lon="9.7086533"><ele>896.6666666666667</ele><time>2026-04-25T07:51:51.228Z</time></trkpt><trkpt lat="45.801185" lon="9.7087233"><ele>897.0</ele><time>2026-04-25T07:51:52.227Z</time></trkpt><trkpt lat="45.8012467" lon="9.7088117"><ele>897.3333333333333</ele><time>2026-04-25T07:51:53.227Z</time></trkpt><trkpt lat="45.8012983" lon="9.7089133"><ele>897.6666666666666</ele><time>2026-04-25T07:51:54.228Z</time></trkpt><trkpt lat="45.8013367" lon="9.709025"><ele>898.0</ele><time>2026-04-25T07:51:55.227Z</time></trkpt><trkpt lat="45.8013617" lon="9.7091467"><ele>898.0</ele><time>2026-04-25T07:51:56.231Z</time></trkpt><trkpt lat="45.80137" lon="9.709275"><ele>898.0</ele><time>2026-04-25T07:51:57.228Z</time></trkpt><trkpt lat="45.801365" lon="9.709425"><ele>898.0</ele><time>2026-04-25T07:51:58.228Z</time></trkpt><trkpt lat="45.8013633" lon="9.709575"><ele>898.0</ele><time>2026-04-25T07:51:59.229Z</time></trkpt><trkpt lat="45.8013617" lon="9.7097317"><ele>898.0</ele><time>2026-04-25T07:52:00.228Z</time></trkpt><trkpt lat="45.8013617" lon="9.7099"><ele>900.25</ele><time>2026-04-25T07:52:01.228Z</time></trkpt><trkpt lat="45.8013517" lon="9.7100717"><ele>902.5</ele><time>2026-04-25T07:52:02.231Z</time></trkpt><trkpt lat="45.8013467" lon="9.7102333"><ele>904.75</ele><time>2026-04-25T07:52:03.227Z</time></trkpt><trkpt lat="45.8013283" lon="9.710395"><ele>907.0</ele><time>2026-04-25T07:52:04.228Z</time></trkpt><trkpt lat="45.8012933" lon="9.7105533"><ele>908.75</ele><time>2026-04-25T07:52:05.229Z</time></trkpt><trkpt lat="45.8012433" lon="9.7107033"><ele>910.5</ele><time>2026-04-25T07:52:06.228Z</time></trkpt><trkpt lat="45.8011883" lon="9.7108467"><ele>912.25</ele><time>2026-04-25T07:52:07.229Z</time></trkpt><trkpt lat="45.8011317" lon="9.710995"><ele>914.0</ele><time>2026-04-25T07:52:08.228Z</time></trkpt><trkpt lat="45.8010733" lon="9.711145"><ele>914.0</ele><time>2026-04-25T07:52:09.229Z</time></trkpt><trkpt lat="45.8010133" lon="9.7112933"><ele>914.0</ele><time>2026-04-25T07:52:10.232Z</time></trkpt><trkpt lat="45.8009583" lon="9.711445"><ele>914.0</ele><time>2026-04-25T07:52:11.228Z</time></trkpt><trkpt lat="45.8009183" lon="9.7116083"><ele>914.0</ele><time>2026-04-25T07:52:12.23Z</time></trkpt><trkpt lat="45.8008883" lon="9.71178"><ele>917.0</ele><time>2026-04-25T07:52:13.231Z</time></trkpt><trkpt lat="45.8008683" lon="9.7119533"><ele>920.0000000000001</ele><time>2026-04-25T07:52:14.233Z</time></trkpt><trkpt lat="45.8008583" lon="9.71212"><ele>923.0000000000001</ele><time>2026-04-25T07:52:15.228Z</time></trkpt><trkpt lat="45.8008517" lon="9.7122667"><ele>926.0</ele><time>2026-04-25T07:52:16.228Z</time></trkpt><trkpt lat="45.800855" lon="9.7124017"><ele>929.0</ele><time>2026-04-25T07:52:17.229Z</time></trkpt><trkpt lat="45.800865" lon="9.7125283"><ele>929.0000000000001</ele><time>2026-04-25T07:52:18.227Z</time></trkpt><trkpt lat="45.8008833" lon="9.7126383"><ele>929.0</ele><time>2026-04-25T07:52:19.227Z</time></trkpt><trkpt lat="45.8009" lon="9.7127367"><ele>929.0</ele><time>2026-04-25T07:52:20.229Z</time></trkpt><trkpt lat="45.800915" lon="9.712835"><ele>929.0</ele><time>2026-04-25T07:52:21.228Z</time></trkpt><trkpt lat="45.800935" lon="9.71295"><ele>929.0000000000001</ele><time>2026-04-25T07:52:22.228Z</time></trkpt><trkpt lat="45.8009617" lon="9.7130767"><ele>929.0</ele><time>2026-04-25T07:52:23.227Z</time></trkpt><trkpt lat="45.8009983" lon="9.7132117"><ele>928.75</ele><time>2026-04-25T07:52:24.228Z</time></trkpt><trkpt lat="45.8010467" lon="9.7133533"><ele>928.5</ele><time>2026-04-25T07:52:25.227Z</time></trkpt><trkpt lat="45.8011083" lon="9.7134917"><ele>928.25</ele><time>2026-04-25T07:52:26.228Z</time></trkpt><trkpt lat="45.80119" lon="9.7136183"><ele>928.0</ele><time>2026-04-25T07:52:27.229Z</time></trkpt><trkpt lat="45.8012767" lon="9.713745"><ele>928.0</ele><time>2026-04-25T07:52:28.228Z</time></trkpt><trkpt lat="45.8013633" lon="9.713875"><ele>928.0</ele><time>2026-04-25T07:52:29.227Z</time></trkpt><trkpt lat="45.8014533" lon="9.7140033"><ele>928.0</ele><time>2026-04-25T07:52:30.228Z</time></trkpt><trkpt lat="45.80155" lon="9.71412"><ele>928.0</ele><time>2026-04-25T07:52:31.229Z</time></trkpt><trkpt lat="45.8016467" lon="9.7142233"><ele>928.0</ele><time>2026-04-25T07:52:32.229Z</time></trkpt><trkpt lat="45.801745" lon="9.7143167"><ele>928.0</ele><time>2026-04-25T07:52:33.229Z</time></trkpt><trkpt lat="45.80184" lon="9.7144"><ele>928.0</ele><time>2026-04-25T07:52:34.228Z</time></trkpt><trkpt lat="45.80193" lon="9.7144733"><ele>928.0</ele><time>2026-04-25T07:52:35.229Z</time></trkpt><trkpt lat="45.80202" lon="9.7145383"><ele>928.0</ele><time>2026-04-25T07:52:36.227Z</time></trkpt><trkpt lat="45.80211" lon="9.7145983"><ele>929.4</ele><time>2026-04-25T07:52:37.227Z</time></trkpt><trkpt lat="45.8022" lon="9.7146633"><ele>930.8</ele><time>2026-04-25T07:52:38.228Z</time></trkpt><trkpt lat="45.80228" lon="9.7147383"><ele>932.2</ele><time>2026-04-25T07:52:39.227Z</time></trkpt><trkpt lat="45.8023533" lon="9.7148333"><ele>933.6</ele><time>2026-04-25T07:52:40.228Z</time></trkpt><trkpt lat="45.8024167" lon="9.7149433"><ele>935.0</ele><time>2026-04-25T07:52:41.227Z</time></trkpt><trkpt lat="45.8024767" lon="9.7150533"><ele>935.0</ele><time>2026-04-25T07:52:42.227Z</time></trkpt><trkpt lat="45.8025367" lon="9.7151483"><ele>935.0</ele><time>2026-04-25T07:52:43.227Z</time></trkpt><trkpt lat="45.80259" lon="9.7152417"><ele>935.0</ele><time>2026-04-25T07:52:44.229Z</time></trkpt><trkpt lat="45.8026517" lon="9.71532"><ele>935.0</ele><time>2026-04-25T07:52:45.227Z</time></trkpt><trkpt lat="45.8027167" lon="9.71538"><ele>935.0</ele><time>2026-04-25T07:52:46.229Z</time></trkpt><trkpt lat="45.8028417" lon="9.7153833"><ele>935.2</ele><time>2026-04-25T07:52:48.229Z</time></trkpt><trkpt lat="45.80291" lon="9.7153367"><ele>935.4</ele><time>2026-04-25T07:52:49.228Z</time></trkpt><trkpt lat="45.8029867" lon="9.71527"><ele>935.5999999999999</ele><time>2026-04-25T07:52:50.228Z</time></trkpt><trkpt lat="45.8030683" lon="9.7151983"><ele>935.8</ele><time>2026-04-25T07:52:51.235Z</time></trkpt><trkpt lat="45.8031617" lon="9.7151217"><ele>936.0</ele><time>2026-04-25T07:52:52.228Z</time></trkpt><trkpt lat="45.8032583" lon="9.7150467"><ele>936.0</ele><time>2026-04-25T07:52:53.228Z</time></trkpt><trkpt lat="45.8033567" lon="9.7149783"><ele>935.9999999999999</ele><time>2026-04-25T07:52:54.23Z</time></trkpt><trkpt lat="45.80345" lon="9.7149233"><ele>935.9999999999999</ele><time>2026-04-25T07:52:55.228Z</time></trkpt><trkpt lat="45.8035333" lon="9.7148767"><ele>936.0</ele><time>2026-04-25T07:52:56.23Z</time></trkpt><trkpt lat="45.8036117" lon="9.71484"><ele>936.0</ele><time>2026-04-25T07:52:57.229Z</time></trkpt><trkpt lat="45.8036833" lon="9.714835"><ele>935.5</ele><time>2026-04-25T07:52:58.227Z</time></trkpt><trkpt lat="45.8037433" lon="9.7148667"><ele>935.0</ele><time>2026-04-25T07:52:59.228Z</time></trkpt><trkpt lat="45.8038317" lon="9.715005"><ele>934.5</ele><time>2026-04-25T07:53:01.229Z</time></trkpt><trkpt lat="45.8038683" lon="9.7151117"><ele>934.0</ele><time>2026-04-25T07:53:02.229Z</time></trkpt><trkpt lat="45.8039033" lon="9.7152217"><ele>933.5</ele><time>2026-04-25T07:53:03.228Z</time></trkpt><trkpt lat="45.803945" lon="9.71532"><ele>933.0</ele><time>2026-04-25T07:53:04.228Z</time></trkpt><trkpt lat="45.803995" lon="9.7154033"><ele>934.0</ele><time>2026-04-25T07:53:05.227Z</time></trkpt><trkpt lat="45.804065" lon="9.71547"><ele>935.0</ele><time>2026-04-25T07:53:06.229Z</time></trkpt><trkpt lat="45.8041483" lon="9.7155233"><ele>936.0</ele><time>2026-04-25T07:53:07.228Z</time></trkpt><trkpt lat="45.8042383" lon="9.715575"><ele>937.0</ele><time>2026-04-25T07:53:08.228Z</time></trkpt><trkpt lat="45.8043533" lon="9.71563"><ele>938.0</ele><time>2026-04-25T07:53:09.231Z</time></trkpt><trkpt lat="45.8044617" lon="9.7156967"><ele>938.0</ele><time>2026-04-25T07:53:10.228Z</time></trkpt><trkpt lat="45.8045733" lon="9.7157833"><ele>938.0</ele><time>2026-04-25T07:53:11.228Z</time></trkpt><trkpt lat="45.80469" lon="9.7158767"><ele>938.0</ele><time>2026-04-25T07:53:12.228Z</time></trkpt><trkpt lat="45.8048" lon="9.715965"><ele>938.0</ele><time>2026-04-25T07:53:13.231Z</time></trkpt><trkpt lat="45.804905" lon="9.71605"><ele>940.5</ele><time>2026-04-25T07:53:14.227Z</time></trkpt><trkpt lat="45.80501" lon="9.7161333"><ele>943.0</ele><time>2026-04-25T07:53:15.227Z</time></trkpt><trkpt lat="45.80512" lon="9.7162083"><ele>945.5</ele><time>2026-04-25T07:53:16.228Z</time></trkpt><trkpt lat="45.8052433" lon="9.7162633"><ele>948.0</ele><time>2026-04-25T07:53:17.227Z</time></trkpt><trkpt lat="45.8053767" lon="9.7163033"><ele>948.0</ele><time>2026-04-25T07:53:18.228Z</time></trkpt><trkpt lat="45.8055167" lon="9.7163433"><ele>948.0</ele><time>2026-04-25T07:53:19.227Z</time></trkpt><trkpt lat="45.8056633" lon="9.716395"><ele>948.0</ele><time>2026-04-25T07:53:20.228Z</time></trkpt><trkpt lat="45.80581" lon="9.716455"><ele>948.0</ele><time>2026-04-25T07:53:21.228Z</time></trkpt><trkpt lat="45.8059517" lon="9.7165067"><ele>946.0</ele><time>2026-04-25T07:53:22.228Z</time></trkpt><trkpt lat="45.8060817" lon="9.7165517"><ele>944.0</ele><time>2026-04-25T07:53:23.228Z</time></trkpt><trkpt lat="45.8061883" lon="9.716605"><ele>942.0</ele><time>2026-04-25T07:53:24.23Z</time></trkpt><trkpt lat="45.8062883" lon="9.7166583"><ele>940.0</ele><time>2026-04-25T07:53:25.23Z</time></trkpt><trkpt lat="45.8063767" lon="9.71673"><ele>940.0</ele><time>2026-04-25T07:53:26.227Z</time></trkpt><trkpt lat="45.8064533" lon="9.7168117"><ele>940.0</ele><time>2026-04-25T07:53:27.229Z</time></trkpt><trkpt lat="45.806525" lon="9.7169133"><ele>940.0</ele><time>2026-04-25T07:53:28.229Z</time></trkpt><trkpt lat="45.8065917" lon="9.7170317"><ele>940.0</ele><time>2026-04-25T07:53:29.23Z</time></trkpt><trkpt lat="45.8066617" lon="9.71716"><ele>940.0</ele><time>2026-04-25T07:53:30.228Z</time></trkpt><trkpt lat="45.806745" lon="9.717285"><ele>940.5</ele><time>2026-04-25T07:53:31.229Z</time></trkpt><trkpt lat="45.8068433" lon="9.717405"><ele>941.0</ele><time>2026-04-25T07:53:32.227Z</time></trkpt><trkpt lat="45.8069517" lon="9.7175183"><ele>941.5</ele><time>2026-04-25T07:53:33.227Z</time></trkpt><trkpt lat="45.8070733" lon="9.7176217"><ele>942.0</ele><time>2026-04-25T07:53:34.227Z</time></trkpt><trkpt lat="45.8072117" lon="9.7177233"><ele>951.3333333333333</ele><time>2026-04-25T07:53:35.227Z</time></trkpt><trkpt lat="45.80736" lon="9.7178217"><ele>960.6666666666666</ele><time>2026-04-25T07:53:36.228Z</time></trkpt><trkpt lat="45.8075067" lon="9.71791"><ele>970.0</ele><time>2026-04-25T07:53:37.229Z</time></trkpt><trkpt lat="45.8076417" lon="9.7180033"><ele>964.5</ele><time>2026-04-25T07:53:38.227Z</time></trkpt><trkpt lat="45.80776" lon="9.7180933"><ele>959.0</ele><time>2026-04-25T07:53:39.228Z</time></trkpt><trkpt lat="45.8078667" lon="9.7181667"><ele>953.5</ele><time>2026-04-25T07:53:40.227Z</time></trkpt><trkpt lat="45.8079683" lon="9.7182233"><ele>948.0</ele><time>2026-04-25T07:53:41.229Z</time></trkpt><trkpt lat="45.80807" lon="9.71826"><ele>948.0</ele><time>2026-04-25T07:53:42.227Z</time></trkpt><trkpt lat="45.80817" lon="9.7182867"><ele>948.0</ele><time>2026-04-25T07:53:43.23Z</time></trkpt><trkpt lat="45.80827" lon="9.7183217"><ele>948.0</ele><time>2026-04-25T07:53:44.228Z</time></trkpt><trkpt lat="45.8083667" lon="9.7183767"><ele>948.0</ele><time>2026-04-25T07:53:45.229Z</time></trkpt><trkpt lat="45.8084667" lon="9.7184433"><ele>948.0</ele><time>2026-04-25T07:53:46.227Z</time></trkpt><trkpt lat="45.808575" lon="9.7185133"><ele>950.25</ele><time>2026-04-25T07:53:47.228Z</time></trkpt><trkpt lat="45.8086883" lon="9.7185917"><ele>952.5</ele><time>2026-04-25T07:53:48.227Z</time></trkpt><trkpt lat="45.8088033" lon="9.7186767"><ele>954.75</ele><time>2026-04-25T07:53:49.227Z</time></trkpt><trkpt lat="45.8089167" lon="9.7187617"><ele>957.0</ele><time>2026-04-25T07:53:50.228Z</time></trkpt><trkpt lat="45.8090367" lon="9.7188333"><ele>957.0</ele><time>2026-04-25T07:53:51.228Z</time></trkpt><trkpt lat="45.8091667" lon="9.7188717"><ele>957.0</ele><time>2026-04-25T07:53:52.228Z</time></trkpt><trkpt lat="45.8093033" lon="9.7188933"><ele>957.0</ele><time>2026-04-25T07:53:53.228Z</time></trkpt><trkpt lat="45.8094433" lon="9.7189167"><ele>957.0</ele><time>2026-04-25T07:53:54.229Z</time></trkpt><trkpt lat="45.8095883" lon="9.718945"><ele>954.75</ele><time>2026-04-25T07:53:55.228Z</time></trkpt><trkpt lat="45.8097283" lon="9.71897"><ele>952.5</ele><time>2026-04-25T07:53:56.23Z</time></trkpt><trkpt lat="45.8098567" lon="9.7189817"><ele>950.25</ele><time>2026-04-25T07:53:57.227Z</time></trkpt><trkpt lat="45.8099733" lon="9.7189833"><ele>948.0</ele><time>2026-04-25T07:53:58.227Z</time></trkpt><trkpt lat="45.8100833" lon="9.7189733"><ele>946.8333333333334</ele><time>2026-04-25T07:53:59.228Z</time></trkpt><trkpt lat="45.8101883" lon="9.7189667"><ele>945.6666666666667</ele><time>2026-04-25T07:54:00.228Z</time></trkpt><trkpt lat="45.8102883" lon="9.718965"><ele>944.5</ele><time>2026-04-25T07:54:01.228Z</time></trkpt><trkpt lat="45.8103733" lon="9.718975"><ele>943.3333333333334</ele><time>2026-04-25T07:54:02.227Z</time></trkpt><trkpt lat="45.8104433" lon="9.719005"><ele>942.1666666666667</ele><time>2026-04-25T07:54:03.228Z</time></trkpt><trkpt lat="45.8105017" lon="9.7190517"><ele>941.0</ele><time>2026-04-25T07:54:04.228Z</time></trkpt><trkpt lat="45.8105367" lon="9.7191283"><ele>941.0</ele><time>2026-04-25T07:54:05.227Z</time></trkpt><trkpt lat="45.8105483" lon="9.7192217"><ele>940.9999999999999</ele><time>2026-04-25T07:54:06.227Z</time></trkpt><trkpt lat="45.81054" lon="9.71934"><ele>940.9999999999999</ele><time>2026-04-25T07:54:07.227Z</time></trkpt><trkpt lat="45.8105183" lon="9.71949"><ele>941.0</ele><time>2026-04-25T07:54:08.228Z</time></trkpt><trkpt lat="45.8104983" lon="9.7196467"><ele>941.0</ele><time>2026-04-25T07:54:09.228Z</time></trkpt><trkpt lat="45.81048" lon="9.719795"><ele>939.5000000000001</ele><time>2026-04-25T07:54:10.227Z</time></trkpt><trkpt lat="45.8104633" lon="9.7199217"><ele>938.0</ele><time>2026-04-25T07:54:11.229Z</time></trkpt><trkpt lat="45.8104417" lon="9.720035"><ele>936.5</ele><time>2026-04-25T07:54:12.227Z</time></trkpt><trkpt lat="45.8104033" lon="9.72013"><ele>935.0</ele><time>2026-04-25T07:54:13.227Z</time></trkpt><trkpt lat="45.8103533" lon="9.7202083"><ele>933.5000000000001</ele><time>2026-04-25T07:54:14.229Z</time></trkpt><trkpt lat="45.81029" lon="9.7202517"><ele>932.0</ele><time>2026-04-25T07:54:15.228Z</time></trkpt><trkpt lat="45.8102183" lon="9.7202667"><ele>933.4000000000001</ele><time>2026-04-25T07:54:16.228Z</time></trkpt><trkpt lat="45.8101383" lon="9.7202917"><ele>934.8000000000001</ele><time>2026-04-25T07:54:17.228Z</time></trkpt><trkpt lat="45.81005" lon="9.7203217"><ele>936.2</ele><time>2026-04-25T07:54:18.229Z</time></trkpt><trkpt lat="45.80995" lon="9.7203583"><ele>937.6</ele><time>2026-04-25T07:54:19.228Z</time></trkpt><trkpt lat="45.80983" lon="9.72041"><ele>939.0</ele><time>2026-04-25T07:54:20.227Z</time></trkpt><trkpt lat="45.8097133" lon="9.7204767"><ele>939.0</ele><time>2026-04-25T07:54:21.228Z</time></trkpt><trkpt lat="45.80962" lon="9.720555"><ele>939.0000000000001</ele><time>2026-04-25T07:54:22.229Z</time></trkpt><trkpt lat="45.8095383" lon="9.7206533"><ele>939.0000000000001</ele><time>2026-04-25T07:54:23.229Z</time></trkpt><trkpt lat="45.80946" lon="9.7207617"><ele>939.0</ele><time>2026-04-25T07:54:24.229Z</time></trkpt><trkpt lat="45.8093767" lon="9.7208683"><ele>939.0</ele><time>2026-04-25T07:54:25.228Z</time></trkpt><trkpt lat="45.8092867" lon="9.7209817"><ele>941.0</ele><time>2026-04-25T07:54:26.227Z</time></trkpt><trkpt lat="45.8091967" lon="9.7210983"><ele>943.0</ele><time>2026-04-25T07:54:27.227Z</time></trkpt><trkpt lat="45.8091" lon="9.7212183"><ele>945.0</ele><time>2026-04-25T07:54:28.229Z</time></trkpt><trkpt lat="45.809" lon="9.7213417"><ele>947.0</ele><time>2026-04-25T07:54:29.228Z</time></trkpt><trkpt lat="45.8089" lon="9.72147"><ele>947.0</ele><time>2026-04-25T07:54:30.228Z</time></trkpt><trkpt lat="45.8088017" lon="9.7215917"><ele>947.0</ele><time>2026-04-25T07:54:31.227Z</time></trkpt><trkpt lat="45.8087083" lon="9.7217117"><ele>947.0</ele><time>2026-04-25T07:54:32.227Z</time></trkpt><trkpt lat="45.8086267" lon="9.7218317"><ele>947.0</ele><time>2026-04-25T07:54:33.228Z</time></trkpt><trkpt lat="45.808555" lon="9.7219633"><ele>946.75</ele><time>2026-04-25T07:54:34.228Z</time></trkpt><trkpt lat="45.808485" lon="9.7221033"><ele>946.5</ele><time>2026-04-25T07:54:35.227Z</time></trkpt><trkpt lat="45.8084167" lon="9.7222533"><ele>946.25</ele><time>2026-04-25T07:54:36.227Z</time></trkpt><trkpt lat="45.80835" lon="9.7224067"><ele>946.0</ele><time>2026-04-25T07:54:37.228Z</time></trkpt><trkpt lat="45.808285" lon="9.7225567"><ele>945.9999999999999</ele><time>2026-04-25T07:54:38.228Z</time></trkpt><trkpt lat="45.8082333" lon="9.7226883"><ele>946.0</ele><time>2026-04-25T07:54:39.23Z</time></trkpt><trkpt lat="45.8081883" lon="9.7228017"><ele>946.0</ele><time>2026-04-25T07:54:40.229Z</time></trkpt><trkpt lat="45.8081483" lon="9.7229"><ele>946.0</ele><time>2026-04-25T07:54:41.23Z</time></trkpt><trkpt lat="45.8081233" lon="9.7229983"><ele>945.9999999999999</ele><time>2026-04-25T07:54:42.229Z</time></trkpt><trkpt lat="45.80812" lon="9.7231083"><ele>946.0</ele><time>2026-04-25T07:54:43.23Z</time></trkpt><trkpt lat="45.80814" lon="9.723215"><ele>944.0</ele><time>2026-04-25T07:54:44.228Z</time></trkpt><trkpt lat="45.8081867" lon="9.7233067"><ele>941.9999999999999</ele><time>2026-04-25T07:54:45.23Z</time></trkpt><trkpt lat="45.808245" lon="9.7234067"><ele>939.9999999999999</ele><time>2026-04-25T07:54:46.227Z</time></trkpt><trkpt lat="45.8083267" lon="9.7235133"><ele>938.0</ele><time>2026-04-25T07:54:47.227Z</time></trkpt><trkpt lat="45.808415" lon="9.723635"><ele>936.0</ele><time>2026-04-25T07:54:48.227Z</time></trkpt><trkpt lat="45.8085067" lon="9.7237583"><ele>931.8</ele><time>2026-04-25T07:54:49.227Z</time></trkpt><trkpt lat="45.8085833" lon="9.7238667"><ele>927.5999999999999</ele><time>2026-04-25T07:54:50.228Z</time></trkpt><trkpt lat="45.808645" lon="9.7239683"><ele>923.4</ele><time>2026-04-25T07:54:51.228Z</time></trkpt><trkpt lat="45.808685" lon="9.724085"><ele>919.2</ele><time>2026-04-25T07:54:52.227Z</time></trkpt><trkpt lat="45.8087" lon="9.724215"><ele>915.0</ele><time>2026-04-25T07:54:53.228Z</time></trkpt><trkpt lat="45.8087" lon="9.7243567"><ele>914.5</ele><time>2026-04-25T07:54:54.227Z</time></trkpt><trkpt lat="45.80868" lon="9.7245117"><ele>914.0</ele><time>2026-04-25T07:54:55.228Z</time></trkpt><trkpt lat="45.8086383" lon="9.72468"><ele>913.5</ele><time>2026-04-25T07:54:56.228Z</time></trkpt><trkpt lat="45.8085867" lon="9.7248567"><ele>913.0</ele><time>2026-04-25T07:54:57.233Z</time></trkpt><trkpt lat="45.8085283" lon="9.72505"><ele>915.25</ele><time>2026-04-25T07:54:58.227Z</time></trkpt><trkpt lat="45.80847" lon="9.7252467"><ele>917.5</ele><time>2026-04-25T07:54:59.229Z</time></trkpt><trkpt lat="45.808415" lon="9.72544"><ele>919.75</ele><time>2026-04-25T07:55:00.228Z</time></trkpt><trkpt lat="45.80836" lon="9.7256233"><ele>922.0</ele><time>2026-04-25T07:55:01.229Z</time></trkpt><trkpt lat="45.8083067" lon="9.7258067"><ele>922.0</ele><time>2026-04-25T07:55:02.229Z</time></trkpt><trkpt lat="45.8082483" lon="9.7259867"><ele>922.0</ele><time>2026-04-25T07:55:03.228Z</time></trkpt><trkpt lat="45.8081917" lon="9.72617"><ele>922.0</ele><time>2026-04-25T07:55:04.228Z</time></trkpt><trkpt lat="45.8081333" lon="9.7263583"><ele>922.0</ele><time>2026-04-25T07:55:05.227Z</time></trkpt><trkpt lat="45.8080767" lon="9.7265417"><ele>919.25</ele><time>2026-04-25T07:55:06.229Z</time></trkpt><trkpt lat="45.80803" lon="9.7267217"><ele>916.5</ele><time>2026-04-25T07:55:07.228Z</time></trkpt><trkpt lat="45.8079883" lon="9.72689"><ele>913.75</ele><time>2026-04-25T07:55:08.228Z</time></trkpt><trkpt lat="45.8079617" lon="9.7270533"><ele>911.0</ele><time>2026-04-25T07:55:09.229Z</time></trkpt><trkpt lat="45.8079433" lon="9.7271983"><ele>910.1999999999999</ele><time>2026-04-25T07:55:10.231Z</time></trkpt><trkpt lat="45.807935" lon="9.7273417"><ele>909.3999999999999</ele><time>2026-04-25T07:55:11.227Z</time></trkpt><trkpt lat="45.80794" lon="9.7274883"><ele>908.6</ele><time>2026-04-25T07:55:12.227Z</time></trkpt><trkpt lat="45.807965" lon="9.7276433"><ele>907.8</ele><time>2026-04-25T07:55:13.228Z</time></trkpt><trkpt lat="45.80799" lon="9.72782"><ele>907.0</ele><time>2026-04-25T07:55:14.228Z</time></trkpt><trkpt lat="45.808015" lon="9.7280033"><ele>907.0</ele><time>2026-04-25T07:55:15.228Z</time></trkpt><trkpt lat="45.8080417" lon="9.7281883"><ele>907.0</ele><time>2026-04-25T07:55:16.229Z</time></trkpt><trkpt lat="45.8080683" lon="9.72836"><ele>907.0</ele><time>2026-04-25T07:55:17.228Z</time></trkpt><trkpt lat="45.8080917" lon="9.728515"><ele>907.0</ele><time>2026-04-25T07:55:18.227Z</time></trkpt><trkpt lat="45.8081083" lon="9.7286433"><ele>907.8</ele><time>2026-04-25T07:55:19.227Z</time></trkpt><trkpt lat="45.8081217" lon="9.7287433"><ele>908.6</ele><time>2026-04-25T07:55:20.228Z</time></trkpt><trkpt lat="45.808155" lon="9.7289033"><ele>909.3999999999999</ele><time>2026-04-25T07:55:22.227Z</time></trkpt><trkpt lat="45.8082133" lon="9.7290317"><ele>910.1999999999999</ele><time>2026-04-25T07:55:24.228Z</time></trkpt><trkpt lat="45.8082983" lon="9.7291083"><ele>911.0</ele><time>2026-04-25T07:55:26.227Z</time></trkpt><trkpt lat="45.8084083" lon="9.7291933"><ele>911.0</ele><time>2026-04-25T07:55:28.23Z</time></trkpt><trkpt lat="45.808475" lon="9.729245"><ele>910.9999999999999</ele><time>2026-04-25T07:55:29.229Z</time></trkpt><trkpt lat="45.8085483" lon="9.7293117"><ele>910.9999999999999</ele><time>2026-04-25T07:55:30.229Z</time></trkpt><trkpt lat="45.8086217" lon="9.729395"><ele>911.0</ele><time>2026-04-25T07:55:31.227Z</time></trkpt><trkpt lat="45.808695" lon="9.7294833"><ele>911.0</ele><time>2026-04-25T07:55:32.227Z</time></trkpt><trkpt lat="45.8087717" lon="9.7295833"><ele>908.1999999999999</ele><time>2026-04-25T07:55:33.228Z</time></trkpt><trkpt lat="45.8088533" lon="9.72969"><ele>905.3999999999999</ele><time>2026-04-25T07:55:34.228Z</time></trkpt><trkpt lat="45.808935" lon="9.7297983"><ele>902.6</ele><time>2026-04-25T07:55:35.227Z</time></trkpt><trkpt lat="45.80901" lon="9.7298983"><ele>899.8</ele><time>2026-04-25T07:55:36.228Z</time></trkpt><trkpt lat="45.8090733" lon="9.7299967"><ele>897.0</ele><time>2026-04-25T07:55:37.229Z</time></trkpt><trkpt lat="45.80913" lon="9.7301083"><ele>898.2</ele><time>2026-04-25T07:55:38.227Z</time></trkpt><trkpt lat="45.8091767" lon="9.73024"><ele>899.4000000000001</ele><time>2026-04-25T07:55:39.227Z</time></trkpt><trkpt lat="45.8092217" lon="9.73038"><ele>900.5999999999999</ele><time>2026-04-25T07:55:40.23Z</time></trkpt><trkpt lat="45.8092717" lon="9.7305083"><ele>901.8</ele><time>2026-04-25T07:55:41.229Z</time></trkpt><trkpt lat="45.8093317" lon="9.7306283"><ele>903.0</ele><time>2026-04-25T07:55:42.227Z</time></trkpt><trkpt lat="45.8093983" lon="9.7307467"><ele>900.0</ele><time>2026-04-25T07:55:43.228Z</time></trkpt><trkpt lat="45.80946" lon="9.7308683"><ele>897.0</ele><time>2026-04-25T07:55:44.227Z</time></trkpt><trkpt lat="45.8095083" lon="9.7309967"><ele>894.0</ele><time>2026-04-25T07:55:45.229Z</time></trkpt><trkpt lat="45.80955" lon="9.7311383"><ele>891.0</ele><time>2026-04-25T07:55:46.228Z</time></trkpt><trkpt lat="45.8095933" lon="9.7312967"><ele>888.0</ele><time>2026-04-25T07:55:47.228Z</time></trkpt><trkpt lat="45.8096433" lon="9.7314633"><ele>888.0</ele><time>2026-04-25T07:55:48.228Z</time></trkpt><trkpt lat="45.8096933" lon="9.7316333"><ele>888.0</ele><time>2026-04-25T07:55:49.228Z</time></trkpt><trkpt lat="45.809745" lon="9.7317933"><ele>888.0</ele><time>2026-04-25T07:55:50.227Z</time></trkpt><trkpt lat="45.8097917" lon="9.73195"><ele>888.0</ele><time>2026-04-25T07:55:51.228Z</time></trkpt><trkpt lat="45.8098383" lon="9.7321067"><ele>888.0</ele><time>2026-04-25T07:55:52.228Z</time></trkpt><trkpt lat="45.8098783" lon="9.7322617"><ele>888.0</ele><time>2026-04-25T07:55:53.228Z</time></trkpt><trkpt lat="45.8099117" lon="9.7324167"><ele>888.0</ele><time>2026-04-25T07:55:54.228Z</time></trkpt><trkpt lat="45.80994" lon="9.73257"><ele>888.0</ele><time>2026-04-25T07:55:55.228Z</time></trkpt><trkpt lat="45.809965" lon="9.7327183"><ele>888.0</ele><time>2026-04-25T07:55:56.228Z</time></trkpt><trkpt lat="45.80999" lon="9.7328567"><ele>888.0</ele><time>2026-04-25T07:55:57.228Z</time></trkpt><trkpt lat="45.8100317" lon="9.7330083"><ele>888.0</ele><time>2026-04-25T07:55:58.228Z</time></trkpt><trkpt lat="45.8100833" lon="9.733165"><ele>888.0</ele><time>2026-04-25T07:55:59.229Z</time></trkpt><trkpt lat="45.8101383" lon="9.7333167"><ele>888.0</ele><time>2026-04-25T07:56:00.228Z</time></trkpt><trkpt lat="45.8101933" lon="9.73346"><ele>884.4</ele><time>2026-04-25T07:56:01.227Z</time></trkpt><trkpt lat="45.8102583" lon="9.7335867"><ele>880.8</ele><time>2026-04-25T07:56:02.228Z</time></trkpt><trkpt lat="45.810335" lon="9.7336983"><ele>877.2</ele><time>2026-04-25T07:56:03.228Z</time></trkpt><trkpt lat="45.8104167" lon="9.7338"><ele>873.6</ele><time>2026-04-25T07:56:04.229Z</time></trkpt><trkpt lat="45.810495" lon="9.733895"><ele>870.0</ele><time>2026-04-25T07:56:05.227Z</time></trkpt><trkpt lat="45.8105633" lon="9.733985"><ele>870.0</ele><time>2026-04-25T07:56:06.227Z</time></trkpt><trkpt lat="45.8106217" lon="9.7340767"><ele>870.0</ele><time>2026-04-25T07:56:07.229Z</time></trkpt><trkpt lat="45.8106617" lon="9.7341767"><ele>870.0</ele><time>2026-04-25T07:56:08.227Z</time></trkpt><trkpt lat="45.8106833" lon="9.7342867"><ele>870.0</ele><time>2026-04-25T07:56:09.228Z</time></trkpt><trkpt lat="45.8106817" lon="9.7343917"><ele>870.0</ele><time>2026-04-25T07:56:10.23Z</time></trkpt><trkpt lat="45.8106533" lon="9.734475"><ele>870.0</ele><time>2026-04-25T07:56:11.228Z</time></trkpt><trkpt lat="45.8105617" lon="9.734555"><ele>867.3333333333334</ele><time>2026-04-25T07:56:13.227Z</time></trkpt><trkpt lat="45.810495" lon="9.7345617"><ele>864.6666666666667</ele><time>2026-04-25T07:56:14.229Z</time></trkpt><trkpt lat="45.8104317" lon="9.734555"><ele>862.0</ele><time>2026-04-25T07:56:15.23Z</time></trkpt><trkpt lat="45.81036" lon="9.7345317"><ele>859.3333333333334</ele><time>2026-04-25T07:56:16.228Z</time></trkpt><trkpt lat="45.81028" lon="9.734515"><ele>856.6666666666667</ele><time>2026-04-25T07:56:17.231Z</time></trkpt><trkpt lat="45.8101933" lon="9.73451"><ele>854.0</ele><time>2026-04-25T07:56:18.227Z</time></trkpt><trkpt lat="45.8101033" lon="9.734515"><ele>854.0</ele><time>2026-04-25T07:56:19.228Z</time></trkpt><trkpt lat="45.8100183" lon="9.7345233"><ele>854.0000000000001</ele><time>2026-04-25T07:56:20.228Z</time></trkpt><trkpt lat="45.80992" lon="9.7345467"><ele>854.0000000000001</ele><time>2026-04-25T07:56:21.228Z</time></trkpt><trkpt lat="45.8098183" lon="9.73457"><ele>854.0</ele><time>2026-04-25T07:56:22.228Z</time></trkpt><trkpt lat="45.80972" lon="9.7346117"><ele>854.0</ele><time>2026-04-25T07:56:23.228Z</time></trkpt><trkpt lat="45.8096233" lon="9.73465"><ele>854.0</ele><time>2026-04-25T07:56:24.228Z</time></trkpt><trkpt lat="45.8095233" lon="9.7347033"><ele>854.0000000000001</ele><time>2026-04-25T07:56:25.231Z</time></trkpt><trkpt lat="45.8094283" lon="9.7347483"><ele>854.0000000000001</ele><time>2026-04-25T07:56:26.229Z</time></trkpt><trkpt lat="45.8093283" lon="9.7347933"><ele>854.0</ele><time>2026-04-25T07:56:27.229Z</time></trkpt><trkpt lat="45.809235" lon="9.7348217"><ele>854.0</ele><time>2026-04-25T07:56:28.228Z</time></trkpt><trkpt lat="45.8091367" lon="9.7348383"><ele>856.75</ele><time>2026-04-25T07:56:29.229Z</time></trkpt><trkpt lat="45.8090183" lon="9.7348533"><ele>859.5</ele><time>2026-04-25T07:56:30.229Z</time></trkpt><trkpt lat="45.8088933" lon="9.7348467"><ele>862.25</ele><time>2026-04-25T07:56:31.23Z</time></trkpt><trkpt lat="45.8087617" lon="9.73484"><ele>865.0</ele><time>2026-04-25T07:56:32.229Z</time></trkpt><trkpt lat="45.8086317" lon="9.7348367"><ele>865.0</ele><time>2026-04-25T07:56:33.228Z</time></trkpt><trkpt lat="45.808505" lon="9.7348317"><ele>865.0</ele><time>2026-04-25T07:56:34.227Z</time></trkpt><trkpt lat="45.808375" lon="9.7348333"><ele>865.0</ele><time>2026-04-25T07:56:35.229Z</time></trkpt><trkpt lat="45.808245" lon="9.734855"><ele>865.0</ele><time>2026-04-25T07:56:36.229Z</time></trkpt><trkpt lat="45.808115" lon="9.734895"><ele>865.25</ele><time>2026-04-25T07:56:37.227Z</time></trkpt><trkpt lat="45.8079933" lon="9.734955"><ele>865.5</ele><time>2026-04-25T07:56:38.227Z</time></trkpt><trkpt lat="45.8078767" lon="9.73503"><ele>865.75</ele><time>2026-04-25T07:56:39.229Z</time></trkpt><trkpt lat="45.8077767" lon="9.7350917"><ele>866.0</ele><time>2026-04-25T07:56:40.227Z</time></trkpt><trkpt lat="45.80767" lon="9.7351517"><ele>863.5</ele><time>2026-04-25T07:56:41.229Z</time></trkpt><trkpt lat="45.8075517" lon="9.7351917"><ele>861.0</ele><time>2026-04-25T07:56:42.227Z</time></trkpt><trkpt lat="45.8074333" lon="9.7352217"><ele>858.5</ele><time>2026-04-25T07:56:43.229Z</time></trkpt><trkpt lat="45.8073217" lon="9.7352483"><ele>856.0</ele><time>2026-04-25T07:56:44.228Z</time></trkpt><trkpt lat="45.8072233" lon="9.735265"><ele>856.0</ele><time>2026-04-25T07:56:45.227Z</time></trkpt><trkpt lat="45.80713" lon="9.73526"><ele>855.9999999999999</ele><time>2026-04-25T07:56:46.228Z</time></trkpt><trkpt lat="45.8070383" lon="9.7352283"><ele>855.9999999999999</ele><time>2026-04-25T07:56:47.227Z</time></trkpt><trkpt lat="45.8069317" lon="9.7351933"><ele>856.0</ele><time>2026-04-25T07:56:48.229Z</time></trkpt><trkpt lat="45.80681" lon="9.7351733"><ele>856.0</ele><time>2026-04-25T07:56:49.227Z</time></trkpt><trkpt lat="45.8066917" lon="9.7351733"><ele>853.75</ele><time>2026-04-25T07:56:50.227Z</time></trkpt><trkpt lat="45.80658" lon="9.7351733"><ele>851.5</ele><time>2026-04-25T07:56:51.23Z</time></trkpt><trkpt lat="45.8064683" lon="9.7351533"><ele>849.25</ele><time>2026-04-25T07:56:52.232Z</time></trkpt><trkpt lat="45.8063517" lon="9.7351267"><ele>847.0</ele><time>2026-04-25T07:56:53.227Z</time></trkpt><trkpt lat="45.8062233" lon="9.7350967"><ele>847.0</ele><time>2026-04-25T07:56:54.23Z</time></trkpt><trkpt lat="45.80609" lon="9.7350517"><ele>847.0</ele><time>2026-04-25T07:56:55.23Z</time></trkpt><trkpt lat="45.8059517" lon="9.735005"><ele>847.0</ele><time>2026-04-25T07:56:56.228Z</time></trkpt><trkpt lat="45.8058067" lon="9.7349583"><ele>847.0</ele><time>2026-04-25T07:56:57.227Z</time></trkpt><trkpt lat="45.8056633" lon="9.73491"><ele>844.4000000000001</ele><time>2026-04-25T07:56:58.229Z</time></trkpt><trkpt lat="45.8055217" lon="9.7348667"><ele>841.8000000000001</ele><time>2026-04-25T07:56:59.229Z</time></trkpt><trkpt lat="45.8054033" lon="9.73483"><ele>839.2</ele><time>2026-04-25T07:57:00.229Z</time></trkpt><trkpt lat="45.8053083" lon="9.7348033"><ele>836.6</ele><time>2026-04-25T07:57:01.229Z</time></trkpt><trkpt lat="45.805235" lon="9.7347817"><ele>834.0</ele><time>2026-04-25T07:57:02.228Z</time></trkpt><trkpt lat="45.8051383" lon="9.734765"><ele>832.8333333333334</ele><time>2026-04-25T07:57:04.228Z</time></trkpt><trkpt lat="45.8050683" lon="9.73473"><ele>831.6666666666667</ele><time>2026-04-25T07:57:27.23Z</time></trkpt><trkpt lat="45.8049783" lon="9.73466"><ele>830.5</ele><time>2026-04-25T07:57:29.228Z</time></trkpt><trkpt lat="45.804915" lon="9.7346083"><ele>829.3333333333334</ele><time>2026-04-25T07:57:30.228Z</time></trkpt><trkpt lat="45.804845" lon="9.7345367"><ele>828.1666666666667</ele><time>2026-04-25T07:57:31.228Z</time></trkpt><trkpt lat="45.8047683" lon="9.7344583"><ele>827.0</ele><time>2026-04-25T07:57:32.228Z</time></trkpt><trkpt lat="45.8046867" lon="9.7343683"><ele>831.4000000000001</ele><time>2026-04-25T07:57:33.228Z</time></trkpt><trkpt lat="45.8045883" lon="9.7342967"><ele>835.8000000000001</ele><time>2026-04-25T07:57:34.228Z</time></trkpt><trkpt lat="45.8044833" lon="9.7342433"><ele>840.2</ele><time>2026-04-25T07:57:35.227Z</time></trkpt><trkpt lat="45.80438" lon="9.7341883"><ele>844.6</ele><time>2026-04-25T07:57:36.228Z</time></trkpt><trkpt lat="45.80428" lon="9.7341233"><ele>849.0</ele><time>2026-04-25T07:57:37.226Z</time></trkpt><trkpt lat="45.80418" lon="9.7340483"><ele>849.0</ele><time>2026-04-25T07:57:38.228Z</time></trkpt><trkpt lat="45.8040717" lon="9.7339567"><ele>849.0</ele><time>2026-04-25T07:57:39.229Z</time></trkpt><trkpt lat="45.80396" lon="9.7338617"><ele>849.0</ele><time>2026-04-25T07:57:40.228Z</time></trkpt><trkpt lat="45.8038417" lon="9.73379"><ele>849.0</ele><time>2026-04-25T07:57:41.23Z</time></trkpt><trkpt lat="45.80373" lon="9.7337083"><ele>849.0</ele><time>2026-04-25T07:57:42.227Z</time></trkpt><trkpt lat="45.8036083" lon="9.7336333"><ele>849.0</ele><time>2026-04-25T07:57:43.227Z</time></trkpt><trkpt lat="45.8034783" lon="9.7335733"><ele>849.0</ele><time>2026-04-25T07:57:44.23Z</time></trkpt><trkpt lat="45.803355" lon="9.7335083"><ele>849.0</ele><time>2026-04-25T07:57:45.228Z</time></trkpt><trkpt lat="45.80323" lon="9.7334483"><ele>857.0</ele><time>2026-04-25T07:57:46.227Z</time></trkpt><trkpt lat="45.8031067" lon="9.7333933"><ele>865.0</ele><time>2026-04-25T07:57:47.227Z</time></trkpt><trkpt lat="45.803" lon="9.7333333"><ele>873.0</ele><time>2026-04-25T07:57:48.229Z</time></trkpt><trkpt lat="45.8029" lon="9.7332767"><ele>881.0</ele><time>2026-04-25T07:57:49.228Z</time></trkpt><trkpt lat="45.8028017" lon="9.7332033"><ele>881.0</ele><time>2026-04-25T07:57:50.228Z</time></trkpt><trkpt lat="45.80271" lon="9.7331233"><ele>880.9999999999999</ele><time>2026-04-25T07:57:51.228Z</time></trkpt><trkpt lat="45.80262" lon="9.7330417"><ele>880.9999999999999</ele><time>2026-04-25T07:57:52.227Z</time></trkpt><trkpt lat="45.8025267" lon="9.7329633"><ele>881.0</ele><time>2026-04-25T07:57:53.228Z</time></trkpt><trkpt lat="45.802425" lon="9.7328933"><ele>881.0</ele><time>2026-04-25T07:57:54.228Z</time></trkpt><trkpt lat="45.8023317" lon="9.7328233"><ele>878.4</ele><time>2026-04-25T07:57:55.229Z</time></trkpt><trkpt lat="45.802245" lon="9.732765"><ele>875.8</ele><time>2026-04-25T07:57:56.227Z</time></trkpt><trkpt lat="45.802165" lon="9.732715"><ele>873.1999999999999</ele><time>2026-04-25T07:57:57.229Z</time></trkpt><trkpt lat="45.8020683" lon="9.7327017"><ele>870.5999999999999</ele><time>2026-04-25T07:57:58.228Z</time></trkpt><trkpt lat="45.8019633" lon="9.7327"><ele>868.0</ele><time>2026-04-25T07:57:59.228Z</time></trkpt><trkpt lat="45.8018483" lon="9.7326917"><ele>877.0</ele><time>2026-04-25T07:58:00.229Z</time></trkpt><trkpt lat="45.8017217" lon="9.7326767"><ele>886.0</ele><time>2026-04-25T07:58:01.229Z</time></trkpt><trkpt lat="45.8015867" lon="9.7326667"><ele>895.0</ele><time>2026-04-25T07:58:02.228Z</time></trkpt><trkpt lat="45.8014517" lon="9.73266"><ele>904.0</ele><time>2026-04-25T07:58:03.229Z</time></trkpt><trkpt lat="45.8013317" lon="9.7326483"><ele>904.0</ele><time>2026-04-25T07:58:04.228Z</time></trkpt><trkpt lat="45.8012333" lon="9.73262"><ele>904.0000000000001</ele><time>2026-04-25T07:58:05.231Z</time></trkpt><trkpt lat="45.801145" lon="9.7325817"><ele>904.0000000000001</ele><time>2026-04-25T07:58:06.231Z</time></trkpt><trkpt lat="45.8010667" lon="9.73253"><ele>904.0</ele><time>2026-04-25T07:58:07.228Z</time></trkpt><trkpt lat="45.8010017" lon="9.7324583"><ele>904.0</ele><time>2026-04-25T07:58:08.228Z</time></trkpt><trkpt lat="45.80094" lon="9.7323633"><ele>907.1666666666666</ele><time>2026-04-25T07:58:09.228Z</time></trkpt><trkpt lat="45.8008917" lon="9.7322433"><ele>910.3333333333333</ele><time>2026-04-25T07:58:10.228Z</time></trkpt><trkpt lat="45.8008517" lon="9.7321283"><ele>913.5</ele><time>2026-04-25T07:58:11.227Z</time></trkpt><trkpt lat="45.8008183" lon="9.7320183"><ele>916.6666666666667</ele><time>2026-04-25T07:58:12.228Z</time></trkpt><trkpt lat="45.8007617" lon="9.731925"><ele>919.8333333333334</ele><time>2026-04-25T07:58:13.227Z</time></trkpt><trkpt lat="45.8006983" lon="9.7318333"><ele>923.0</ele><time>2026-04-25T07:58:14.23Z</time></trkpt><trkpt lat="45.80061" lon="9.7317533"><ele>923.0</ele><time>2026-04-25T07:58:15.229Z</time></trkpt><trkpt lat="45.800515" lon="9.7316817"><ele>923.0</ele><time>2026-04-25T07:58:16.228Z</time></trkpt><trkpt lat="45.8004183" lon="9.7316017"><ele>923.0</ele><time>2026-04-25T07:58:17.228Z</time></trkpt><trkpt lat="45.8003117" lon="9.731505"><ele>923.0</ele><time>2026-04-25T07:58:18.228Z</time></trkpt><trkpt lat="45.8001967" lon="9.7314"><ele>926.0</ele><time>2026-04-25T07:58:19.229Z</time></trkpt><trkpt lat="45.8000783" lon="9.7312933"><ele>929.0</ele><time>2026-04-25T07:58:20.23Z</time></trkpt><trkpt lat="45.7999533" lon="9.73118"><ele>932.0</ele><time>2026-04-25T07:58:21.229Z</time></trkpt><trkpt lat="45.7998317" lon="9.7310517"><ele>935.0</ele><time>2026-04-25T07:58:22.228Z</time></trkpt><trkpt lat="45.799705" lon="9.7309283"><ele>935.0</ele><time>2026-04-25T07:58:23.231Z</time></trkpt><trkpt lat="45.7995783" lon="9.7308183"><ele>935.0</ele><time>2026-04-25T07:58:24.228Z</time></trkpt><trkpt lat="45.799455" lon="9.730715"><ele>935.0</ele><time>2026-04-25T07:58:25.23Z</time></trkpt><trkpt lat="45.7993317" lon="9.7306217"><ele>935.0</ele><time>2026-04-25T07:58:26.23Z</time></trkpt><trkpt lat="45.79922" lon="9.73054"><ele>927.75</ele><time>2026-04-25T07:58:27.231Z</time></trkpt><trkpt lat="45.7991117" lon="9.7304833"><ele>920.5</ele><time>2026-04-25T07:58:28.228Z</time></trkpt><trkpt lat="45.799" lon="9.730445"><ele>913.25</ele><time>2026-04-25T07:58:29.228Z</time></trkpt><trkpt lat="45.79889" lon="9.73042"><ele>906.0</ele><time>2026-04-25T07:58:30.227Z</time></trkpt><trkpt lat="45.7987667" lon="9.7304017"><ele>906.0</ele><time>2026-04-25T07:58:31.227Z</time></trkpt><trkpt lat="45.7986467" lon="9.7303917"><ele>906.0</ele><time>2026-04-25T07:58:32.227Z</time></trkpt><trkpt lat="45.7985267" lon="9.7303867"><ele>906.0</ele><time>2026-04-25T07:58:33.229Z</time></trkpt><trkpt lat="45.7984067" lon="9.73039"><ele>906.0</ele><time>2026-04-25T07:58:34.229Z</time></trkpt><trkpt lat="45.79828" lon="9.7303983"><ele>905.0</ele><time>2026-04-25T07:58:35.228Z</time></trkpt><trkpt lat="45.7981783" lon="9.7304117"><ele>904.0</ele><time>2026-04-25T07:58:36.229Z</time></trkpt><trkpt lat="45.7980767" lon="9.7304183"><ele>903.0</ele><time>2026-04-25T07:58:37.227Z</time></trkpt><trkpt lat="45.7979817" lon="9.7304167"><ele>902.0</ele><time>2026-04-25T07:58:38.228Z</time></trkpt><trkpt lat="45.797915" lon="9.730415"><ele>901.0</ele><time>2026-04-25T07:58:39.23Z</time></trkpt><trkpt lat="45.7978483" lon="9.7303933"><ele>900.0</ele><time>2026-04-25T07:58:40.228Z</time></trkpt><trkpt lat="45.79775" lon="9.7303183"><ele>900.0</ele><time>2026-04-25T07:58:42.229Z</time></trkpt><trkpt lat="45.7977267" lon="9.7302333"><ele>900.0</ele><time>2026-04-25T07:58:43.227Z</time></trkpt><trkpt lat="45.797715" lon="9.7301083"><ele>900.0</ele><time>2026-04-25T07:58:44.228Z</time></trkpt><trkpt lat="45.7976867" lon="9.7299833"><ele>900.0</ele><time>2026-04-25T07:58:45.227Z</time></trkpt><trkpt lat="45.7976483" lon="9.7298517"><ele>900.0</ele><time>2026-04-25T07:58:46.229Z</time></trkpt><trkpt lat="45.7976" lon="9.72963"><ele>910.6666666666667</ele><time>2026-04-25T07:58:47.227Z</time></trkpt><trkpt lat="45.7975367" lon="9.7293617"><ele>921.3333333333334</ele><time>2026-04-25T07:58:48.228Z</time></trkpt><trkpt lat="45.7974667" lon="9.7291267"><ele>932.0</ele><time>2026-04-25T07:58:49.227Z</time></trkpt><trkpt lat="45.7973933" lon="9.72888"><ele>932.0</ele><time>2026-04-25T07:58:50.228Z</time></trkpt><trkpt lat="45.7973233" lon="9.7286583"><ele>932.0</ele><time>2026-04-25T07:58:51.229Z</time></trkpt><trkpt lat="45.7972483" lon="9.7284567"><ele>932.0</ele><time>2026-04-25T07:58:52.228Z</time></trkpt><trkpt lat="45.7971633" lon="9.7282733"><ele>937.25</ele><time>2026-04-25T07:58:53.227Z</time></trkpt><trkpt lat="45.79706" lon="9.7281083"><ele>942.5</ele><time>2026-04-25T07:58:54.229Z</time></trkpt><trkpt lat="45.7969667" lon="9.72796"><ele>947.75</ele><time>2026-04-25T07:58:55.228Z</time></trkpt><trkpt lat="45.7968667" lon="9.72783"><ele>953.0</ele><time>2026-04-25T07:58:56.227Z</time></trkpt><trkpt lat="45.7967417" lon="9.727725"><ele>953.0</ele><time>2026-04-25T07:58:57.227Z</time></trkpt><trkpt lat="45.7966183" lon="9.7276033"><ele>953.0</ele><time>2026-04-25T07:58:58.228Z</time></trkpt><trkpt lat="45.796485" lon="9.727495"><ele>953.0</ele><time>2026-04-25T07:58:59.229Z</time></trkpt><trkpt lat="45.7963583" lon="9.7274"><ele>953.0</ele><time>2026-04-25T07:59:00.229Z</time></trkpt><trkpt lat="45.7962533" lon="9.7273133"><ele>953.0</ele><time>2026-04-25T07:59:01.227Z</time></trkpt><trkpt lat="45.7961617" lon="9.7272333"><ele>953.0</ele><time>2026-04-25T07:59:02.227Z</time></trkpt><trkpt lat="45.796085" lon="9.727145"><ele>953.0</ele><time>2026-04-25T07:59:03.229Z</time></trkpt><trkpt lat="45.7960233" lon="9.7270333"><ele>953.0</ele><time>2026-04-25T07:59:04.227Z</time></trkpt><trkpt lat="45.7959567" lon="9.72691"><ele>953.0</ele><time>2026-04-25T07:59:05.228Z</time></trkpt><trkpt lat="45.79589" lon="9.7267967"><ele>954.6666666666667</ele><time>2026-04-25T07:59:06.228Z</time></trkpt><trkpt lat="45.7958167" lon="9.72671"><ele>956.3333333333334</ele><time>2026-04-25T07:59:07.227Z</time></trkpt><trkpt lat="45.79575" lon="9.7266417"><ele>958.0</ele><time>2026-04-25T07:59:08.228Z</time></trkpt><trkpt lat="45.7956833" lon="9.7265817"><ele>959.6666666666667</ele><time>2026-04-25T07:59:09.23Z</time></trkpt><trkpt lat="45.7956217" lon="9.7265317"><ele>961.3333333333334</ele><time>2026-04-25T07:59:10.227Z</time></trkpt><trkpt lat="45.7955733" lon="9.726465"><ele>963.0</ele><time>2026-04-25T07:59:11.229Z</time></trkpt><trkpt lat="45.7955183" lon="9.7263833"><ele>963.0</ele><time>2026-04-25T07:59:12.23Z</time></trkpt><trkpt lat="45.795455" lon="9.726305"><ele>963.0</ele><time>2026-04-25T07:59:13.229Z</time></trkpt><trkpt lat="45.795395" lon="9.72622"><ele>963.0</ele><time>2026-04-25T07:59:14.228Z</time></trkpt><trkpt lat="45.7953233" lon="9.726145"><ele>963.0</ele><time>2026-04-25T07:59:15.23Z</time></trkpt><trkpt lat="45.7952417" lon="9.7260633"><ele>963.0</ele><time>2026-04-25T07:59:16.229Z</time></trkpt><trkpt lat="45.795155" lon="9.725975"><ele>962.8</ele><time>2026-04-25T07:59:17.23Z</time></trkpt><trkpt lat="45.7950767" lon="9.7258883"><ele>962.5999999999999</ele><time>2026-04-25T07:59:18.228Z</time></trkpt><trkpt lat="45.7949817" lon="9.7258017"><ele>962.4000000000001</ele><time>2026-04-25T07:59:19.229Z</time></trkpt><trkpt lat="45.7948967" lon="9.72571"><ele>962.2</ele><time>2026-04-25T07:59:20.229Z</time></trkpt><trkpt lat="45.794815" lon="9.7256383"><ele>962.0</ele><time>2026-04-25T07:59:21.229Z</time></trkpt><trkpt lat="45.79474" lon="9.72559"><ele>962.0</ele><time>2026-04-25T07:59:22.229Z</time></trkpt><trkpt lat="45.79465" lon="9.7255567"><ele>962.0</ele><time>2026-04-25T07:59:23.227Z</time></trkpt><trkpt lat="45.79455" lon="9.7255433"><ele>962.0</ele><time>2026-04-25T07:59:24.228Z</time></trkpt><trkpt lat="45.794445" lon="9.7255417"><ele>962.0</ele><time>2026-04-25T07:59:25.227Z</time></trkpt><trkpt lat="45.794335" lon="9.7255467"><ele>962.0</ele><time>2026-04-25T07:59:26.227Z</time></trkpt><trkpt lat="45.7942317" lon="9.7255617"><ele>960.6</ele><time>2026-04-25T07:59:27.229Z</time></trkpt><trkpt lat="45.7941333" lon="9.7255967"><ele>959.2</ele><time>2026-04-25T07:59:28.229Z</time></trkpt><trkpt lat="45.7940417" lon="9.725655"><ele>957.8</ele><time>2026-04-25T07:59:29.227Z</time></trkpt><trkpt lat="45.7939517" lon="9.7257267"><ele>956.4</ele><time>2026-04-25T07:59:30.227Z</time></trkpt><trkpt lat="45.7938517" lon="9.7258017"><ele>955.0</ele><time>2026-04-25T07:59:31.229Z</time></trkpt><trkpt lat="45.7937433" lon="9.7258683"><ele>955.0</ele><time>2026-04-25T07:59:32.228Z</time></trkpt><trkpt lat="45.793625" lon="9.72594"><ele>955.0</ele><time>2026-04-25T07:59:33.228Z</time></trkpt><trkpt lat="45.793505" lon="9.7260167"><ele>955.0</ele><time>2026-04-25T07:59:34.237Z</time></trkpt><trkpt lat="45.793385" lon="9.7261"><ele>955.0</ele><time>2026-04-25T07:59:35.229Z</time></trkpt><trkpt lat="45.7932683" lon="9.7261783"><ele>958.5</ele><time>2026-04-25T07:59:36.227Z</time></trkpt><trkpt lat="45.7931567" lon="9.7262517"><ele>962.0</ele><time>2026-04-25T07:59:37.227Z</time></trkpt><trkpt lat="45.7930467" lon="9.72633"><ele>965.5</ele><time>2026-04-25T07:59:38.227Z</time></trkpt><trkpt lat="45.7929417" lon="9.7263967"><ele>969.0</ele><time>2026-04-25T07:59:39.228Z</time></trkpt><trkpt lat="45.79285" lon="9.7264583"><ele>969.0</ele><time>2026-04-25T07:59:40.228Z</time></trkpt><trkpt lat="45.7927717" lon="9.72652"><ele>969.0</ele><time>2026-04-25T07:59:41.228Z</time></trkpt><trkpt lat="45.7927117" lon="9.726655"><ele>969.0</ele><time>2026-04-25T07:59:43.227Z</time></trkpt><trkpt lat="45.792705" lon="9.726755"><ele>969.0</ele><time>2026-04-25T07:59:44.228Z</time></trkpt><trkpt lat="45.7927083" lon="9.72688"><ele>969.0</ele><time>2026-04-25T07:59:45.228Z</time></trkpt><trkpt lat="45.7927067" lon="9.7270083"><ele>969.0</ele><time>2026-04-25T07:59:46.228Z</time></trkpt><trkpt lat="45.7926933" lon="9.727135"><ele>973.3333333333334</ele><time>2026-04-25T07:59:47.227Z</time></trkpt><trkpt lat="45.79267" lon="9.727265"><ele>977.6666666666667</ele><time>2026-04-25T07:59:48.227Z</time></trkpt><trkpt lat="45.792645" lon="9.7273833"><ele>982.0</ele><time>2026-04-25T07:59:49.228Z</time></trkpt><trkpt lat="45.7926167" lon="9.7274917"><ele>986.3333333333334</ele><time>2026-04-25T07:59:50.23Z</time></trkpt><trkpt lat="45.79259" lon="9.7275783"><ele>990.6666666666667</ele><time>2026-04-25T07:59:51.229Z</time></trkpt><trkpt lat="45.7925333" lon="9.7276717"><ele>995.0</ele><time>2026-04-25T07:59:53.229Z</time></trkpt><trkpt lat="45.7924967" lon="9.7275583"><ele>995.0000000000001</ele><time>2026-04-25T07:59:57.229Z</time></trkpt><trkpt lat="45.792535" lon="9.727475"><ele>995.0</ele><time>2026-04-25T07:59:59.229Z</time></trkpt><trkpt lat="45.792575" lon="9.7273417"><ele>995.0</ele><time>2026-04-25T08:00:01.227Z</time></trkpt><trkpt lat="45.792585" lon="9.72725"><ele>995.0</ele><time>2026-04-25T08:00:02.227Z</time></trkpt><trkpt lat="45.7925917" lon="9.72715"><ele>995.0000000000001</ele><time>2026-04-25T08:00:03.23Z</time></trkpt><trkpt lat="45.7925833" lon="9.72706"><ele>995.0</ele><time>2026-04-25T08:00:04.23Z</time></trkpt><trkpt lat="45.79252" lon="9.7269833"><ele>995.0</ele><time>2026-04-25T08:00:06.228Z</time></trkpt><trkpt lat="45.7924117" lon="9.72705"><ele>995.0</ele><time>2026-04-25T08:00:08.23Z</time></trkpt><trkpt lat="45.7923467" lon="9.7271083"><ele>995.0</ele><time>2026-04-25T08:00:09.229Z</time></trkpt><trkpt lat="45.7922783" lon="9.7271733"><ele>995.0</ele><time>2026-04-25T08:00:10.233Z</time></trkpt><trkpt lat="45.792205" lon="9.7272383"><ele>995.0</ele><time>2026-04-25T08:00:11.229Z</time></trkpt><trkpt lat="45.792125" lon="9.7272883"><ele>995.0000000000001</ele><time>2026-04-25T08:00:12.23Z</time></trkpt><trkpt lat="45.7920417" lon="9.72733"><ele>995.0</ele><time>2026-04-25T08:00:13.227Z</time></trkpt><trkpt lat="45.7919617" lon="9.72734"><ele>995.0</ele><time>2026-04-25T08:00:14.229Z</time></trkpt><trkpt lat="45.79188" lon="9.7273383"><ele>995.0</ele><time>2026-04-25T08:00:15.23Z</time></trkpt><trkpt lat="45.79179" lon="9.72734"><ele>995.0000000000001</ele><time>2026-04-25T08:00:16.227Z</time></trkpt><trkpt lat="45.7916967" lon="9.727345"><ele>995.0</ele><time>2026-04-25T08:00:17.229Z</time></trkpt><trkpt lat="45.7916017" lon="9.7273633"><ele>998.0</ele><time>2026-04-25T08:00:18.227Z</time></trkpt><trkpt lat="45.7915083" lon="9.7274017"><ele>1001.0</ele><time>2026-04-25T08:00:19.227Z</time></trkpt><trkpt lat="45.7914117" lon="9.7274467"><ele>1004.0</ele><time>2026-04-25T08:00:20.228Z</time></trkpt><trkpt lat="45.7913133" lon="9.7275067"><ele>1007.0</ele><time>2026-04-25T08:00:21.23Z</time></trkpt><trkpt lat="45.791225" lon="9.727595"><ele>1010.0</ele><time>2026-04-25T08:00:22.228Z</time></trkpt><trkpt lat="45.7911317" lon="9.7276917"><ele>1012.5</ele><time>2026-04-25T08:00:23.228Z</time></trkpt><trkpt lat="45.791035" lon="9.72779"><ele>1015.0</ele><time>2026-04-25T08:00:24.227Z</time></trkpt><trkpt lat="45.7909317" lon="9.7278833"><ele>1017.5</ele><time>2026-04-25T08:00:25.228Z</time></trkpt><trkpt lat="45.7908283" lon="9.7279733"><ele>1020.0</ele><time>2026-04-25T08:00:26.229Z</time></trkpt><trkpt lat="45.7907267" lon="9.728035"><ele>1022.0</ele><time>2026-04-25T08:00:27.228Z</time></trkpt><trkpt lat="45.7906233" lon="9.7280667"><ele>1024.0</ele><time>2026-04-25T08:00:28.229Z</time></trkpt><trkpt lat="45.7905133" lon="9.7280717"><ele>1026.0</ele><time>2026-04-25T08:00:29.228Z</time></trkpt><trkpt lat="45.7904083" lon="9.7280567"><ele>1028.0</ele><time>2026-04-25T08:00:30.228Z</time></trkpt><trkpt lat="45.7903133" lon="9.728055"><ele>1030.0</ele><time>2026-04-25T08:00:31.228Z</time></trkpt><trkpt lat="45.79022" lon="9.7280767"><ele>1029.2</ele><time>2026-04-25T08:00:32.229Z</time></trkpt><trkpt lat="45.7901233" lon="9.7281183"><ele>1028.4</ele><time>2026-04-25T08:00:33.229Z</time></trkpt><trkpt lat="45.7900283" lon="9.7281667"><ele>1027.6</ele><time>2026-04-25T08:00:34.228Z</time></trkpt><trkpt lat="45.7899317" lon="9.7282133"><ele>1026.8</ele><time>2026-04-25T08:00:35.228Z</time></trkpt><trkpt lat="45.7898317" lon="9.7282433"><ele>1026.0</ele><time>2026-04-25T08:00:36.231Z</time></trkpt><trkpt lat="45.789725" lon="9.7282533"><ele>1026.0</ele><time>2026-04-25T08:00:37.228Z</time></trkpt><trkpt lat="45.7896133" lon="9.7282467"><ele>1026.0</ele><time>2026-04-25T08:00:38.228Z</time></trkpt><trkpt lat="45.7894967" lon="9.7282333"><ele>1026.0</ele><time>2026-04-25T08:00:39.228Z</time></trkpt><trkpt lat="45.7893833" lon="9.7282117"><ele>1026.0</ele><time>2026-04-25T08:00:40.228Z</time></trkpt><trkpt lat="45.789265" lon="9.7281717"><ele>1030.0</ele><time>2026-04-25T08:00:41.227Z</time></trkpt><trkpt lat="45.7891533" lon="9.728115"><ele>1034.0</ele><time>2026-04-25T08:00:42.229Z</time></trkpt><trkpt lat="45.789045" lon="9.7280367"><ele>1038.0</ele><time>2026-04-25T08:00:43.227Z</time></trkpt><trkpt lat="45.7889483" lon="9.7279483"><ele>1042.0</ele><time>2026-04-25T08:00:44.227Z</time></trkpt><trkpt lat="45.7888767" lon="9.727845"><ele>1042.0</ele><time>2026-04-25T08:00:45.228Z</time></trkpt><trkpt lat="45.7888317" lon="9.7277483"><ele>1042.0</ele><time>2026-04-25T08:00:46.227Z</time></trkpt><trkpt lat="45.7887683" lon="9.7276267"><ele>1042.0</ele><time>2026-04-25T08:00:48.229Z</time></trkpt><trkpt lat="45.788675" lon="9.7275767"><ele>1042.0</ele><time>2026-04-25T08:03:59.229Z</time></trkpt><trkpt lat="45.7885967" lon="9.7276267"><ele>1042.0</ele><time>2026-04-25T08:04:08.229Z</time></trkpt><trkpt lat="45.7884967" lon="9.72772"><ele>1045.8333333333333</ele><time>2026-04-25T08:04:10.23Z</time></trkpt><trkpt lat="45.7884317" lon="9.72777"><ele>1049.6666666666665</ele><time>2026-04-25T08:04:11.23Z</time></trkpt><trkpt lat="45.7883667" lon="9.7278167"><ele>1053.5</ele><time>2026-04-25T08:04:12.231Z</time></trkpt><trkpt lat="45.7882983" lon="9.72786"><ele>1057.3333333333333</ele><time>2026-04-25T08:04:13.23Z</time></trkpt><trkpt lat="45.7882217" lon="9.7278883"><ele>1061.1666666666667</ele><time>2026-04-25T08:04:14.227Z</time></trkpt><trkpt lat="45.7881367" lon="9.7278933"><ele>1065.0</ele><time>2026-04-25T08:04:15.23Z</time></trkpt><trkpt lat="45.7880533" lon="9.7278917"><ele>1065.0</ele><time>2026-04-25T08:04:16.228Z</time></trkpt><trkpt lat="45.7879817" lon="9.7278983"><ele>1065.0</ele><time>2026-04-25T08:04:17.229Z</time></trkpt><trkpt lat="45.7879183" lon="9.727915"><ele>1065.0</ele><time>2026-04-25T08:04:18.228Z</time></trkpt><trkpt lat="45.7878017" lon="9.728005"><ele>1065.0</ele><time>2026-04-25T08:04:20.227Z</time></trkpt><trkpt lat="45.787745" lon="9.7280767"><ele>1065.0</ele><time>2026-04-25T08:04:21.228Z</time></trkpt><trkpt lat="45.7876917" lon="9.7281467"><ele>1065.0</ele><time>2026-04-25T08:04:22.228Z</time></trkpt><trkpt lat="45.7876" lon="9.7282067"><ele>1066.8</ele><time>2026-04-25T08:04:24.228Z</time></trkpt><trkpt lat="45.7874883" lon="9.7282083"><ele>1068.6</ele><time>2026-04-25T08:04:26.229Z</time></trkpt><trkpt lat="45.7873917" lon="9.72814"><ele>1070.4</ele><time>2026-04-25T08:04:28.228Z</time></trkpt><trkpt lat="45.7873517" lon="9.7280567"><ele>1072.2</ele><time>2026-04-25T08:04:29.229Z</time></trkpt><trkpt lat="45.7873067" lon="9.7279933"><ele>1074.0</ele><time>2026-04-25T08:04:30.229Z</time></trkpt><trkpt lat="45.7872183" lon="9.727915"><ele>1074.0</ele><time>2026-04-25T08:04:32.228Z</time></trkpt><trkpt lat="45.787185" lon="9.7280267"><ele>1074.0</ele><time>2026-04-25T08:04:35.228Z</time></trkpt><trkpt lat="45.7872333" lon="9.7281517"><ele>1074.0</ele><time>2026-04-25T08:04:37.228Z</time></trkpt><trkpt lat="45.787255" lon="9.7282383"><ele>1074.0</ele><time>2026-04-25T08:04:38.229Z</time></trkpt><trkpt lat="45.78728" lon="9.7283317"><ele>1074.0</ele><time>2026-04-25T08:04:39.228Z</time></trkpt><trkpt lat="45.7873183" lon="9.72842"><ele>1074.0</ele><time>2026-04-25T08:04:40.228Z</time></trkpt><trkpt lat="45.78737" lon="9.7284883"><ele>1074.0</ele><time>2026-04-25T08:04:41.227Z</time></trkpt><trkpt lat="45.787435" lon="9.7285317"><ele>1074.0</ele><time>2026-04-25T08:04:42.229Z</time></trkpt><trkpt lat="45.7875167" lon="9.728555"><ele>1074.0</ele><time>2026-04-25T08:04:43.228Z</time></trkpt><trkpt lat="45.7876067" lon="9.7285583"><ele>1074.0</ele><time>2026-04-25T08:04:44.228Z</time></trkpt><trkpt lat="45.787695" lon="9.7285417"><ele>1074.0</ele><time>2026-04-25T08:04:45.229Z</time></trkpt><trkpt lat="45.78778" lon="9.7285017"><ele>1074.0</ele><time>2026-04-25T08:04:46.227Z</time></trkpt><trkpt lat="45.7878483" lon="9.7284383"><ele>1072.5</ele><time>2026-04-25T08:04:47.23Z</time></trkpt><trkpt lat="45.7878983" lon="9.72837"><ele>1071.0</ele><time>2026-04-25T08:04:48.231Z</time></trkpt><trkpt lat="45.78795" lon="9.72831"><ele>1069.5</ele><time>2026-04-25T08:04:49.229Z</time></trkpt><trkpt lat="45.78804" lon="9.728285"><ele>1068.0</ele><time>2026-04-25T08:04:51.228Z</time></trkpt><trkpt lat="45.7880833" lon="9.728365"><ele>1066.5</ele><time>2026-04-25T08:04:53.229Z</time></trkpt><trkpt lat="45.7880167" lon="9.7284583"><ele>1065.0</ele><time>2026-04-25T08:04:55.229Z</time></trkpt><trkpt lat="45.78795" lon="9.728525"><ele>1063.0</ele><time>2026-04-25T08:04:56.228Z</time></trkpt><trkpt lat="45.78788" lon="9.7285933"><ele>1061.0</ele><time>2026-04-25T08:04:57.228Z</time></trkpt><trkpt lat="45.78781" lon="9.72866"><ele>1059.0</ele><time>2026-04-25T08:04:58.23Z</time></trkpt><trkpt lat="45.78774" lon="9.728735"><ele>1057.0</ele><time>2026-04-25T08:04:59.227Z</time></trkpt><trkpt lat="45.7876833" lon="9.7288283"><ele>1055.0</ele><time>2026-04-25T08:05:00.228Z</time></trkpt><trkpt lat="45.7876367" lon="9.72894"><ele>1053.0</ele><time>2026-04-25T08:05:01.229Z</time></trkpt><trkpt lat="45.787605" lon="9.7290517"><ele>1055.6666666666667</ele><time>2026-04-25T08:05:02.229Z</time></trkpt><trkpt lat="45.7875733" lon="9.7291467"><ele>1058.3333333333333</ele><time>2026-04-25T08:05:03.229Z</time></trkpt><trkpt lat="45.7874933" lon="9.729275"><ele>1061.0</ele><time>2026-04-25T08:05:05.23Z</time></trkpt><trkpt lat="45.7874333" lon="9.7293283"><ele>1063.6666666666665</ele><time>2026-04-25T08:05:06.231Z</time></trkpt><trkpt lat="45.7873617" lon="9.7293783"><ele>1066.3333333333333</ele><time>2026-04-25T08:05:07.229Z</time></trkpt><trkpt lat="45.7872817" lon="9.7294367"><ele>1069.0</ele><time>2026-04-25T08:05:08.228Z</time></trkpt><trkpt lat="45.7872067" lon="9.7295"><ele>1069.0</ele><time>2026-04-25T08:05:09.228Z</time></trkpt><trkpt lat="45.787125" lon="9.729575"><ele>1069.0</ele><time>2026-04-25T08:05:10.23Z</time></trkpt><trkpt lat="45.78704" lon="9.7296667"><ele>1069.0</ele><time>2026-04-25T08:05:11.228Z</time></trkpt><trkpt lat="45.7869567" lon="9.7297717"><ele>1069.0</ele><time>2026-04-25T08:05:12.228Z</time></trkpt><trkpt lat="45.7868833" lon="9.72988"><ele>1069.0</ele><time>2026-04-25T08:05:13.227Z</time></trkpt><trkpt lat="45.7868283" lon="9.729985"><ele>1077.6000000000001</ele><time>2026-04-25T08:05:14.23Z</time></trkpt><trkpt lat="45.78679" lon="9.7301033"><ele>1086.2</ele><time>2026-04-25T08:05:15.229Z</time></trkpt><trkpt lat="45.7867767" lon="9.730235"><ele>1094.8000000000002</ele><time>2026-04-25T08:05:16.229Z</time></trkpt><trkpt lat="45.7867783" lon="9.7303783"><ele>1103.4</ele><time>2026-04-25T08:05:17.229Z</time></trkpt><trkpt lat="45.786795" lon="9.7305183"><ele>1112.0</ele><time>2026-04-25T08:05:18.229Z</time></trkpt><trkpt lat="45.7868117" lon="9.7306417"><ele>1112.0</ele><time>2026-04-25T08:05:19.229Z</time></trkpt><trkpt lat="45.7868217" lon="9.7307583"><ele>1112.0</ele><time>2026-04-25T08:05:20.23Z</time></trkpt><trkpt lat="45.78682" lon="9.7308583"><ele>1112.0</ele><time>2026-04-25T08:05:21.23Z</time></trkpt><trkpt lat="45.7867933" lon="9.730995"><ele>1112.0</ele><time>2026-04-25T08:05:23.228Z</time></trkpt><trkpt lat="45.7867417" lon="9.7310917"><ele>1112.0</ele><time>2026-04-25T08:05:25.229Z</time></trkpt><trkpt lat="45.7866417" lon="9.7311067"><ele>1112.0</ele><time>2026-04-25T08:05:27.23Z</time></trkpt><trkpt lat="45.7865567" lon="9.7310967"><ele>1105.8</ele><time>2026-04-25T08:05:28.227Z</time></trkpt><trkpt lat="45.7864583" lon="9.7310983"><ele>1099.6</ele><time>2026-04-25T08:05:29.227Z</time></trkpt><trkpt lat="45.7863633" lon="9.7311217"><ele>1093.3999999999999</ele><time>2026-04-25T08:05:30.228Z</time></trkpt><trkpt lat="45.7862767" lon="9.7311633"><ele>1087.2</ele><time>2026-04-25T08:05:31.227Z</time></trkpt><trkpt lat="45.786195" lon="9.7312317"><ele>1081.0</ele><time>2026-04-25T08:05:32.231Z</time></trkpt><trkpt lat="45.7861117" lon="9.731295"><ele>1081.0</ele><time>2026-04-25T08:05:33.229Z</time></trkpt><trkpt lat="45.7860283" lon="9.7313483"><ele>1081.0</ele><time>2026-04-25T08:05:34.228Z</time></trkpt><trkpt lat="45.7859517" lon="9.73138"><ele>1081.0</ele><time>2026-04-25T08:05:35.228Z</time></trkpt><trkpt lat="45.7858733" lon="9.7313867"><ele>1081.0</ele><time>2026-04-25T08:05:36.227Z</time></trkpt><trkpt lat="45.7858033" lon="9.731375"><ele>1081.0</ele><time>2026-04-25T08:05:37.227Z</time></trkpt><trkpt lat="45.7856867" lon="9.7312917"><ele>1081.4285714285713</ele><time>2026-04-25T08:05:39.228Z</time></trkpt><trkpt lat="45.7856167" lon="9.7312567"><ele>1081.857142857143</ele><time>2026-04-25T08:05:40.229Z</time></trkpt><trkpt lat="45.7855467" lon="9.7312467"><ele>1082.2857142857142</ele><time>2026-04-25T08:05:41.229Z</time></trkpt><trkpt lat="45.7854783" lon="9.7312683"><ele>1082.7142857142858</ele><time>2026-04-25T08:05:42.228Z</time></trkpt><trkpt lat="45.7854133" lon="9.7313117"><ele>1083.142857142857</ele><time>2026-04-25T08:05:43.229Z</time></trkpt><trkpt lat="45.7853533" lon="9.7313767"><ele>1083.5714285714284</ele><time>2026-04-25T08:05:44.23Z</time></trkpt><trkpt lat="45.785295" lon="9.731435"><ele>1084.0</ele><time>2026-04-25T08:05:45.23Z</time></trkpt><trkpt lat="45.7852367" lon="9.7314833"><ele>1084.6666666666665</ele><time>2026-04-25T08:05:46.23Z</time></trkpt><trkpt lat="45.7851633" lon="9.731495"><ele>1085.3333333333333</ele><time>2026-04-25T08:05:47.23Z</time></trkpt><trkpt lat="45.7850783" lon="9.7314933"><ele>1086.0</ele><time>2026-04-25T08:05:48.229Z</time></trkpt><trkpt lat="45.785" lon="9.7314633"><ele>1086.6666666666667</ele><time>2026-04-25T08:05:49.229Z</time></trkpt><trkpt lat="45.7849317" lon="9.7314183"><ele>1087.3333333333335</ele><time>2026-04-25T08:05:50.23Z</time></trkpt><trkpt lat="45.784875" lon="9.7313367"><ele>1088.0</ele><time>2026-04-25T08:05:51.231Z</time></trkpt><trkpt lat="45.784835" lon="9.731235"><ele>1088.0</ele><time>2026-04-25T08:05:52.227Z</time></trkpt><trkpt lat="45.7848133" lon="9.731095"><ele>1088.0</ele><time>2026-04-25T08:05:53.228Z</time></trkpt><trkpt lat="45.784785" lon="9.73095"><ele>1088.0</ele><time>2026-04-25T08:05:54.23Z</time></trkpt><trkpt lat="45.7847517" lon="9.7308083"><ele>1088.0</ele><time>2026-04-25T08:05:55.228Z</time></trkpt><trkpt lat="45.7847117" lon="9.7306667"><ele>1088.0</ele><time>2026-04-25T08:05:56.228Z</time></trkpt><trkpt lat="45.784665" lon="9.7305417"><ele>1089.8</ele><time>2026-04-25T08:05:57.229Z</time></trkpt><trkpt lat="45.78462" lon="9.7304183"><ele>1091.6</ele><time>2026-04-25T08:05:58.229Z</time></trkpt><trkpt lat="45.7845733" lon="9.7302983"><ele>1093.4</ele><time>2026-04-25T08:05:59.23Z</time></trkpt><trkpt lat="45.7845333" lon="9.7301783"><ele>1095.2</ele><time>2026-04-25T08:06:00.23Z</time></trkpt><trkpt lat="45.784495" lon="9.7300583"><ele>1097.0</ele><time>2026-04-25T08:06:01.229Z</time></trkpt><trkpt lat="45.7844567" lon="9.7299517"><ele>1098.5</ele><time>2026-04-25T08:06:02.229Z</time></trkpt><trkpt lat="45.784425" lon="9.7298433"><ele>1100.0</ele><time>2026-04-25T08:06:03.229Z</time></trkpt><trkpt lat="45.7843933" lon="9.72973"><ele>1101.5</ele><time>2026-04-25T08:06:04.227Z</time></trkpt><trkpt lat="45.7843567" lon="9.7296317"><ele>1103.0</ele><time>2026-04-25T08:06:05.229Z</time></trkpt><trkpt lat="45.7843167" lon="9.7295383"><ele>1104.5</ele><time>2026-04-25T08:06:06.228Z</time></trkpt><trkpt lat="45.784265" lon="9.7294567"><ele>1106.0</ele><time>2026-04-25T08:06:07.229Z</time></trkpt><trkpt lat="45.7842033" lon="9.7293817"><ele>1103.2857142857142</ele><time>2026-04-25T08:06:08.228Z</time></trkpt><trkpt lat="45.7841433" lon="9.729325"><ele>1100.5714285714284</ele><time>2026-04-25T08:06:09.228Z</time></trkpt><trkpt lat="45.7840783" lon="9.7292833"><ele>1097.857142857143</ele><time>2026-04-25T08:06:10.227Z</time></trkpt><trkpt lat="45.7840183" lon="9.72924"><ele>1095.142857142857</ele><time>2026-04-25T08:06:11.228Z</time></trkpt><trkpt lat="45.7839617" lon="9.7291933"><ele>1092.4285714285713</ele><time>2026-04-25T08:06:12.228Z</time></trkpt><trkpt lat="45.7838967" lon="9.7292267"><ele>1089.7142857142858</ele><time>2026-04-25T08:06:16.227Z</time></trkpt><trkpt lat="45.783935" lon="9.729315"><ele>1087.0</ele><time>2026-04-25T08:06:18.228Z</time></trkpt><trkpt lat="45.7839817" lon="9.72939"><ele>1084.6666666666665</ele><time>2026-04-25T08:06:19.229Z</time></trkpt><trkpt lat="45.78403" lon="9.7294733"><ele>1082.3333333333333</ele><time>2026-04-25T08:06:20.228Z</time></trkpt><trkpt lat="45.7840617" lon="9.7295667"><ele>1080.0</ele><time>2026-04-25T08:06:21.229Z</time></trkpt><trkpt lat="45.7840867" lon="9.7296717"><ele>1077.6666666666667</ele><time>2026-04-25T08:06:22.228Z</time></trkpt><trkpt lat="45.7841033" lon="9.72979"><ele>1075.3333333333335</ele><time>2026-04-25T08:06:23.229Z</time></trkpt><trkpt lat="45.7841083" lon="9.7299083"><ele>1073.0</ele><time>2026-04-25T08:06:24.231Z</time></trkpt><trkpt lat="45.7841" lon="9.7300267"><ele>1073.0</ele><time>2026-04-25T08:06:25.227Z</time></trkpt><trkpt lat="45.78409" lon="9.7301433"><ele>1073.0</ele><time>2026-04-25T08:06:26.231Z</time></trkpt><trkpt lat="45.7840867" lon="9.7302567"><ele>1073.0</ele><time>2026-04-25T08:06:27.228Z</time></trkpt><trkpt lat="45.7840917" lon="9.7303717"><ele>1073.0</ele><time>2026-04-25T08:06:28.229Z</time></trkpt><trkpt lat="45.7841017" lon="9.7304933"><ele>1073.0</ele><time>2026-04-25T08:06:29.229Z</time></trkpt><trkpt lat="45.7841267" lon="9.7306117"><ele>1073.0</ele><time>2026-04-25T08:06:30.227Z</time></trkpt><trkpt lat="45.7841633" lon="9.7307267"><ele>1072.1666666666667</ele><time>2026-04-25T08:06:31.228Z</time></trkpt><trkpt lat="45.7841983" lon="9.73084"><ele>1071.3333333333335</ele><time>2026-04-25T08:06:32.227Z</time></trkpt><trkpt lat="45.7842283" lon="9.7309483"><ele>1070.5</ele><time>2026-04-25T08:06:33.229Z</time></trkpt><trkpt lat="45.7842467" lon="9.73105"><ele>1069.6666666666667</ele><time>2026-04-25T08:06:34.228Z</time></trkpt><trkpt lat="45.784255" lon="9.7311417"><ele>1068.8333333333333</ele><time>2026-04-25T08:06:35.228Z</time></trkpt><trkpt lat="45.78424" lon="9.731295"><ele>1068.0</ele><time>2026-04-25T08:06:37.227Z</time></trkpt><trkpt lat="45.7841733" lon="9.7314267"><ele>1068.0</ele><time>2026-04-25T08:06:39.228Z</time></trkpt><trkpt lat="45.7841217" lon="9.7314983"><ele>1068.0</ele><time>2026-04-25T08:06:40.228Z</time></trkpt><trkpt lat="45.7840667" lon="9.7315933"><ele>1068.0</ele><time>2026-04-25T08:06:41.227Z</time></trkpt><trkpt lat="45.7840133" lon="9.731705"><ele>1068.0</ele><time>2026-04-25T08:06:42.23Z</time></trkpt><trkpt lat="45.783965" lon="9.731835"><ele>1068.0</ele><time>2026-04-25T08:06:43.229Z</time></trkpt><trkpt lat="45.783915" lon="9.73198"><ele>1068.5</ele><time>2026-04-25T08:06:44.229Z</time></trkpt><trkpt lat="45.7838667" lon="9.7321333"><ele>1069.0</ele><time>2026-04-25T08:06:45.229Z</time></trkpt><trkpt lat="45.783825" lon="9.7323"><ele>1069.5</ele><time>2026-04-25T08:06:46.23Z</time></trkpt><trkpt lat="45.78378" lon="9.7324533"><ele>1070.0</ele><time>2026-04-25T08:06:47.227Z</time></trkpt><trkpt lat="45.7837433" lon="9.7325883"><ele>1070.0</ele><time>2026-04-25T08:06:48.231Z</time></trkpt><trkpt lat="45.783705" lon="9.7327083"><ele>1070.0</ele><time>2026-04-25T08:06:49.23Z</time></trkpt><trkpt lat="45.78368" lon="9.7328033"><ele>1070.0</ele><time>2026-04-25T08:06:50.227Z</time></trkpt><trkpt lat="45.783675" lon="9.7328967"><ele>1070.0</ele><time>2026-04-25T08:06:51.228Z</time></trkpt><trkpt lat="45.7836817" lon="9.7329933"><ele>1070.0</ele><time>2026-04-25T08:06:52.228Z</time></trkpt><trkpt lat="45.7836917" lon="9.7330867"><ele>1070.0</ele><time>2026-04-25T08:06:53.232Z</time></trkpt><trkpt lat="45.7836933" lon="9.733185"><ele>1070.0</ele><time>2026-04-25T08:06:54.228Z</time></trkpt><trkpt lat="45.7836733" lon="9.7332717"><ele>1066.0</ele><time>2026-04-25T08:06:55.229Z</time></trkpt><trkpt lat="45.7836367" lon="9.733365"><ele>1062.0</ele><time>2026-04-25T08:06:56.228Z</time></trkpt><trkpt lat="45.7835917" lon="9.7334367"><ele>1058.0</ele><time>2026-04-25T08:06:57.229Z</time></trkpt><trkpt lat="45.7835283" lon="9.7335117"><ele>1054.0</ele><time>2026-04-25T08:06:58.228Z</time></trkpt><trkpt lat="45.7834583" lon="9.733605"><ele>1050.0</ele><time>2026-04-25T08:06:59.227Z</time></trkpt><trkpt lat="45.783395" lon="9.7337183"><ele>1046.0</ele><time>2026-04-25T08:07:00.228Z</time></trkpt><trkpt lat="45.783325" lon="9.7338417"><ele>1042.8</ele><time>2026-04-25T08:07:01.227Z</time></trkpt><trkpt lat="45.7832567" lon="9.733955"><ele>1039.6</ele><time>2026-04-25T08:07:02.227Z</time></trkpt><trkpt lat="45.7831933" lon="9.734045"><ele>1036.4</ele><time>2026-04-25T08:07:03.228Z</time></trkpt><trkpt lat="45.7831183" lon="9.73411"><ele>1033.2</ele><time>2026-04-25T08:07:04.228Z</time></trkpt><trkpt lat="45.7830283" lon="9.7341583"><ele>1030.0</ele><time>2026-04-25T08:07:05.228Z</time></trkpt><trkpt lat="45.7829283" lon="9.7341867"><ele>1030.0</ele><time>2026-04-25T08:07:06.229Z</time></trkpt><trkpt lat="45.7828217" lon="9.7342283"><ele>1030.0</ele><time>2026-04-25T08:07:07.228Z</time></trkpt><trkpt lat="45.7827233" lon="9.7342883"><ele>1030.0</ele><time>2026-04-25T08:07:08.228Z</time></trkpt><trkpt lat="45.7826283" lon="9.7343617"><ele>1030.0</ele><time>2026-04-25T08:07:09.228Z</time></trkpt><trkpt lat="45.7825467" lon="9.7344283"><ele>1030.0</ele><time>2026-04-25T08:07:10.229Z</time></trkpt><trkpt lat="45.78247" lon="9.7345067"><ele>1025.8</ele><time>2026-04-25T08:07:11.227Z</time></trkpt><trkpt lat="45.7824" lon="9.7345867"><ele>1021.6</ele><time>2026-04-25T08:07:12.227Z</time></trkpt><trkpt lat="45.7823283" lon="9.7346617"><ele>1017.4000000000001</ele><time>2026-04-25T08:07:13.227Z</time></trkpt><trkpt lat="45.7822533" lon="9.7347483"><ele>1013.2</ele><time>2026-04-25T08:07:14.229Z</time></trkpt><trkpt lat="45.7821767" lon="9.7348483"><ele>1009.0</ele><time>2026-04-25T08:07:15.229Z</time></trkpt><trkpt lat="45.7821033" lon="9.7349633"><ele>1009.0</ele><time>2026-04-25T08:07:16.229Z</time></trkpt><trkpt lat="45.78203" lon="9.73509"><ele>1009.0</ele><time>2026-04-25T08:07:17.227Z</time></trkpt><trkpt lat="45.7819617" lon="9.73523"><ele>1009.0</ele><time>2026-04-25T08:07:18.229Z</time></trkpt><trkpt lat="45.7819017" lon="9.73538"><ele>1009.0</ele><time>2026-04-25T08:07:19.23Z</time></trkpt><trkpt lat="45.7818533" lon="9.7355167"><ele>1008.8000000000001</ele><time>2026-04-25T08:07:20.228Z</time></trkpt><trkpt lat="45.7818067" lon="9.7356283"><ele>1008.6000000000001</ele><time>2026-04-25T08:07:21.228Z</time></trkpt><trkpt lat="45.7817683" lon="9.73576"><ele>1008.4</ele><time>2026-04-25T08:07:22.227Z</time></trkpt><trkpt lat="45.781745" lon="9.7358933"><ele>1008.2</ele><time>2026-04-25T08:07:23.228Z</time></trkpt><trkpt lat="45.78173" lon="9.7360233"><ele>1008.0</ele><time>2026-04-25T08:07:24.229Z</time></trkpt><trkpt lat="45.78173" lon="9.73615"><ele>1008.0</ele><time>2026-04-25T08:07:25.231Z</time></trkpt><trkpt lat="45.7817417" lon="9.7362583"><ele>1008.0</ele><time>2026-04-25T08:07:26.232Z</time></trkpt><trkpt lat="45.7817683" lon="9.73638"><ele>1008.0</ele><time>2026-04-25T08:07:27.23Z</time></trkpt><trkpt lat="45.78182" lon="9.7365117"><ele>1008.0</ele><time>2026-04-25T08:07:28.228Z</time></trkpt><trkpt lat="45.7818733" lon="9.736645"><ele>1008.0</ele><time>2026-04-25T08:07:29.227Z</time></trkpt><trkpt lat="45.7819183" lon="9.7367667"><ele>1004.2</ele><time>2026-04-25T08:07:30.232Z</time></trkpt><trkpt lat="45.7819567" lon="9.7368683"><ele>1000.4</ele><time>2026-04-25T08:07:31.229Z</time></trkpt><trkpt lat="45.7819933" lon="9.7370267"><ele>996.6000000000001</ele><time>2026-04-25T08:07:33.229Z</time></trkpt><trkpt lat="45.7819533" lon="9.7371667"><ele>992.8000000000001</ele><time>2026-04-25T08:07:35.23Z</time></trkpt><trkpt lat="45.7818417" lon="9.7372683"><ele>989.0</ele><time>2026-04-25T08:07:37.227Z</time></trkpt><trkpt lat="45.7817517" lon="9.7373217"><ele>989.0</ele><time>2026-04-25T08:07:38.228Z</time></trkpt><trkpt lat="45.781665" lon="9.7373833"><ele>989.0000000000001</ele><time>2026-04-25T08:07:39.228Z</time></trkpt><trkpt lat="45.7815817" lon="9.7374533"><ele>989.0000000000001</ele><time>2026-04-25T08:07:40.227Z</time></trkpt><trkpt lat="45.7815183" lon="9.7375217"><ele>989.0</ele><time>2026-04-25T08:07:41.228Z</time></trkpt><trkpt lat="45.7814567" lon="9.73759"><ele>989.0</ele><time>2026-04-25T08:07:42.229Z</time></trkpt><trkpt lat="45.7813817" lon="9.7377217"><ele>984.4000000000001</ele><time>2026-04-25T08:07:44.227Z</time></trkpt><trkpt lat="45.7813967" lon="9.7378833"><ele>979.8000000000001</ele><time>2026-04-25T08:07:46.228Z</time></trkpt><trkpt lat="45.7814183" lon="9.737975"><ele>975.1999999999999</ele><time>2026-04-25T08:07:47.229Z</time></trkpt><trkpt lat="45.78144" lon="9.7380867"><ele>970.5999999999999</ele><time>2026-04-25T08:07:48.229Z</time></trkpt><trkpt lat="45.7814567" lon="9.7382167"><ele>966.0</ele><time>2026-04-25T08:07:49.227Z</time></trkpt><trkpt lat="45.7814733" lon="9.7383533"><ele>966.0</ele><time>2026-04-25T08:07:50.228Z</time></trkpt><trkpt lat="45.7814883" lon="9.7384783"><ele>966.0</ele><time>2026-04-25T08:07:51.229Z</time></trkpt><trkpt lat="45.7814883" lon="9.738585"><ele>966.0</ele><time>2026-04-25T08:07:52.228Z</time></trkpt><trkpt lat="45.7814733" lon="9.73869"><ele>966.0</ele><time>2026-04-25T08:07:53.228Z</time></trkpt><trkpt lat="45.7814483" lon="9.7388033"><ele>966.0</ele><time>2026-04-25T08:07:54.228Z</time></trkpt><trkpt lat="45.7814183" lon="9.7389217"><ele>966.0</ele><time>2026-04-25T08:07:55.228Z</time></trkpt><trkpt lat="45.7813867" lon="9.7390333"><ele>963.2857142857142</ele><time>2026-04-25T08:07:56.231Z</time></trkpt><trkpt lat="45.78135" lon="9.73913"><ele>960.5714285714286</ele><time>2026-04-25T08:07:57.231Z</time></trkpt><trkpt lat="45.7813267" lon="9.739215"><ele>957.8571428571429</ele><time>2026-04-25T08:07:58.232Z</time></trkpt><trkpt lat="45.7813067" lon="9.73931"><ele>955.1428571428571</ele><time>2026-04-25T08:07:59.228Z</time></trkpt><trkpt lat="45.7812917" lon="9.739405"><ele>952.4285714285713</ele><time>2026-04-25T08:08:00.229Z</time></trkpt><trkpt lat="45.7812867" lon="9.7395083"><ele>949.7142857142857</ele><time>2026-04-25T08:08:01.228Z</time></trkpt><trkpt lat="45.781275" lon="9.73963"><ele>947.0</ele><time>2026-04-25T08:08:02.228Z</time></trkpt><trkpt lat="45.7812667" lon="9.7397517"><ele>944.6666666666667</ele><time>2026-04-25T08:08:03.228Z</time></trkpt><trkpt lat="45.78125" lon="9.73987"><ele>942.3333333333334</ele><time>2026-04-25T08:08:04.228Z</time></trkpt><trkpt lat="45.7812333" lon="9.739975"><ele>940.0</ele><time>2026-04-25T08:08:05.227Z</time></trkpt><trkpt lat="45.781205" lon="9.74007"><ele>937.6666666666667</ele><time>2026-04-25T08:08:06.229Z</time></trkpt><trkpt lat="45.78117" lon="9.740205"><ele>935.3333333333334</ele><time>2026-04-25T08:08:08.228Z</time></trkpt><trkpt lat="45.7811833" lon="9.740315"><ele>933.0</ele><time>2026-04-25T08:08:10.229Z</time></trkpt><trkpt lat="45.7812567" lon="9.74029"><ele>933.0</ele><time>2026-04-25T08:08:12.23Z</time></trkpt><trkpt lat="45.7813067" lon="9.740235"><ele>933.0</ele><time>2026-04-25T08:08:13.233Z</time></trkpt><trkpt lat="45.781365" lon="9.74013"><ele>933.0</ele><time>2026-04-25T08:08:15.23Z</time></trkpt><trkpt lat="45.7814483" lon="9.740125"><ele>933.0</ele><time>2026-04-25T08:08:18.229Z</time></trkpt><trkpt lat="45.7814383" lon="9.7402817"><ele>933.0</ele><time>2026-04-25T08:08:21.23Z</time></trkpt><trkpt lat="45.7813683" lon="9.74042"><ele>930.6666666666666</ele><time>2026-04-25T08:08:23.231Z</time></trkpt><trkpt lat="45.781315" lon="9.740485"><ele>928.3333333333333</ele><time>2026-04-25T08:08:24.232Z</time></trkpt><trkpt lat="45.781255" lon="9.74057"><ele>926.0</ele><time>2026-04-25T08:08:25.228Z</time></trkpt><trkpt lat="45.7811983" lon="9.7406783"><ele>923.6666666666666</ele><time>2026-04-25T08:08:26.228Z</time></trkpt><trkpt lat="45.7811617" lon="9.7407983"><ele>921.3333333333333</ele><time>2026-04-25T08:08:27.228Z</time></trkpt><trkpt lat="45.7811333" lon="9.74094"><ele>919.0</ele><time>2026-04-25T08:08:28.229Z</time></trkpt><trkpt lat="45.78111" lon="9.7411"><ele>916.8000000000001</ele><time>2026-04-25T08:08:29.231Z</time></trkpt><trkpt lat="45.7810783" lon="9.74124"><ele>914.6000000000001</ele><time>2026-04-25T08:08:30.23Z</time></trkpt><trkpt lat="45.781065" lon="9.7413933"><ele>912.4</ele><time>2026-04-25T08:08:31.231Z</time></trkpt><trkpt lat="45.7810583" lon="9.7415467"><ele>910.2</ele><time>2026-04-25T08:08:32.23Z</time></trkpt><trkpt lat="45.781095" lon="9.741655"><ele>908.0</ele><time>2026-04-25T08:08:33.232Z</time></trkpt><trkpt lat="45.78112" lon="9.7417867"><ele>908.0</ele><time>2026-04-25T08:08:34.229Z</time></trkpt><trkpt lat="45.7811617" lon="9.74191"><ele>908.0</ele><time>2026-04-25T08:08:35.229Z</time></trkpt><trkpt lat="45.7812133" lon="9.742025"><ele>908.0</ele><time>2026-04-25T08:08:36.229Z</time></trkpt><trkpt lat="45.7812567" lon="9.742155"><ele>908.0</ele><time>2026-04-25T08:08:37.23Z</time></trkpt><trkpt lat="45.781285" lon="9.7422933"><ele>908.0</ele><time>2026-04-25T08:08:38.23Z</time></trkpt><trkpt lat="45.7813017" lon="9.74245"><ele>908.0</ele><time>2026-04-25T08:08:39.228Z</time></trkpt><trkpt lat="45.78132" lon="9.7426167"><ele>908.0</ele><time>2026-04-25T08:08:40.228Z</time></trkpt><trkpt lat="45.7813317" lon="9.7427867"><ele>908.0</ele><time>2026-04-25T08:08:41.227Z</time></trkpt><trkpt lat="45.7813483" lon="9.742955"><ele>908.0</ele><time>2026-04-25T08:08:42.228Z</time></trkpt><trkpt lat="45.7813633" lon="9.7431133"><ele>908.5999999999999</ele><time>2026-04-25T08:08:43.228Z</time></trkpt><trkpt lat="45.78137" lon="9.74325"><ele>909.1999999999999</ele><time>2026-04-25T08:08:44.227Z</time></trkpt><trkpt lat="45.78137" lon="9.74338"><ele>909.8</ele><time>2026-04-25T08:08:45.228Z</time></trkpt><trkpt lat="45.781365" lon="9.7434983"><ele>910.4</ele><time>2026-04-25T08:08:46.229Z</time></trkpt><trkpt lat="45.7813617" lon="9.743625"><ele>911.0</ele><time>2026-04-25T08:08:47.228Z</time></trkpt><trkpt lat="45.781355" lon="9.7437583"><ele>911.5999999999999</ele><time>2026-04-25T08:08:48.229Z</time></trkpt><trkpt lat="45.781345" lon="9.7439067"><ele>912.1999999999999</ele><time>2026-04-25T08:08:49.229Z</time></trkpt><trkpt lat="45.7813283" lon="9.7440667"><ele>912.8000000000001</ele><time>2026-04-25T08:08:50.229Z</time></trkpt><trkpt lat="45.78131" lon="9.744225"><ele>913.4000000000001</ele><time>2026-04-25T08:08:51.228Z</time></trkpt><trkpt lat="45.781295" lon="9.7443717"><ele>914.0</ele><time>2026-04-25T08:08:52.229Z</time></trkpt><trkpt lat="45.781285" lon="9.744505"><ele>915.5000000000001</ele><time>2026-04-25T08:08:53.228Z</time></trkpt><trkpt lat="45.78127" lon="9.7446133"><ele>917.0</ele><time>2026-04-25T08:08:54.229Z</time></trkpt><trkpt lat="45.7812367" lon="9.7447433"><ele>918.5</ele><time>2026-04-25T08:08:56.228Z</time></trkpt><trkpt lat="45.7811617" lon="9.7447983"><ele>920.0</ele><time>2026-04-25T08:09:00.23Z</time></trkpt><trkpt lat="45.78106" lon="9.7447767"><ele>921.5000000000001</ele><time>2026-04-25T08:09:02.228Z</time></trkpt><trkpt lat="45.7809967" lon="9.74474"><ele>923.0</ele><time>2026-04-25T08:09:03.229Z</time></trkpt><trkpt lat="45.7809383" lon="9.7446983"><ele>924.3333333333334</ele><time>2026-04-25T08:09:04.228Z</time></trkpt><trkpt lat="45.780855" lon="9.7446433"><ele>925.6666666666667</ele><time>2026-04-25T08:09:06.228Z</time></trkpt><trkpt lat="45.780775" lon="9.7446067"><ele>927.0</ele><time>2026-04-25T08:09:08.228Z</time></trkpt><trkpt lat="45.7807117" lon="9.744585"><ele>928.3333333333333</ele><time>2026-04-25T08:09:09.228Z</time></trkpt><trkpt lat="45.7806317" lon="9.7445533"><ele>929.6666666666666</ele><time>2026-04-25T08:09:10.23Z</time></trkpt><trkpt lat="45.7805333" lon="9.7445117"><ele>931.0</ele><time>2026-04-25T08:09:11.228Z</time></trkpt><trkpt lat="45.7804283" lon="9.74448"><ele>931.0</ele><time>2026-04-25T08:09:12.231Z</time></trkpt><trkpt lat="45.7803133" lon="9.744465"><ele>931.0</ele><time>2026-04-25T08:09:13.229Z</time></trkpt><trkpt lat="45.78019" lon="9.7444583"><ele>931.0</ele><time>2026-04-25T08:09:14.228Z</time></trkpt><trkpt lat="45.7800633" lon="9.74445"><ele>931.0</ele><time>2026-04-25T08:09:15.229Z</time></trkpt><trkpt lat="45.7799383" lon="9.7444333"><ele>929.5999999999999</ele><time>2026-04-25T08:09:16.229Z</time></trkpt><trkpt lat="45.77983" lon="9.7444017"><ele>928.1999999999999</ele><time>2026-04-25T08:09:17.228Z</time></trkpt><trkpt lat="45.7797333" lon="9.7443517"><ele>926.8000000000001</ele><time>2026-04-25T08:09:18.229Z</time></trkpt><trkpt lat="45.7796417" lon="9.744285"><ele>925.4000000000001</ele><time>2026-04-25T08:09:19.238Z</time></trkpt><trkpt lat="45.779555" lon="9.7442067"><ele>924.0</ele><time>2026-04-25T08:09:20.23Z</time></trkpt><trkpt lat="45.7794617" lon="9.7441383"><ele>923.6666666666666</ele><time>2026-04-25T08:09:21.23Z</time></trkpt><trkpt lat="45.7793733" lon="9.7440867"><ele>923.3333333333333</ele><time>2026-04-25T08:09:22.229Z</time></trkpt><trkpt lat="45.7792917" lon="9.74405"><ele>923.0</ele><time>2026-04-25T08:09:23.228Z</time></trkpt><trkpt lat="45.779215" lon="9.7440217"><ele>922.6666666666666</ele><time>2026-04-25T08:09:24.228Z</time></trkpt><trkpt lat="45.7791433" lon="9.7440033"><ele>922.3333333333333</ele><time>2026-04-25T08:09:25.228Z</time></trkpt><trkpt lat="45.7790667" lon="9.7439867"><ele>922.0</ele><time>2026-04-25T08:09:26.232Z</time></trkpt><trkpt lat="45.77899" lon="9.74396"><ele>921.9999999999999</ele><time>2026-04-25T08:09:27.228Z</time></trkpt><trkpt lat="45.77892" lon="9.7439217"><ele>922.0</ele><time>2026-04-25T08:09:28.233Z</time></trkpt><trkpt lat="45.7788567" lon="9.7438633"><ele>922.0</ele><time>2026-04-25T08:09:29.23Z</time></trkpt><trkpt lat="45.7787933" lon="9.7438"><ele>922.0</ele><time>2026-04-25T08:09:30.232Z</time></trkpt><trkpt lat="45.7787267" lon="9.7437317"><ele>921.9999999999999</ele><time>2026-04-25T08:09:31.229Z</time></trkpt><trkpt lat="45.7786617" lon="9.74366"><ele>922.0</ele><time>2026-04-25T08:09:32.23Z</time></trkpt><trkpt lat="45.77861" lon="9.7435917"><ele>921.9999999999999</ele><time>2026-04-25T08:09:33.232Z</time></trkpt><trkpt lat="45.7785683" lon="9.743515"><ele>922.0</ele><time>2026-04-25T08:09:34.228Z</time></trkpt><trkpt lat="45.7785167" lon="9.7434417"><ele>922.0</ele><time>2026-04-25T08:09:35.231Z</time></trkpt><trkpt lat="45.7784567" lon="9.7433683"><ele>922.0</ele><time>2026-04-25T08:09:36.231Z</time></trkpt><trkpt lat="45.778385" lon="9.7433033"><ele>921.9999999999999</ele><time>2026-04-25T08:09:37.233Z</time></trkpt><trkpt lat="45.7783133" lon="9.7432317"><ele>922.0</ele><time>2026-04-25T08:09:38.23Z</time></trkpt><trkpt lat="45.7782433" lon="9.74317"><ele>921.9999999999999</ele><time>2026-04-25T08:09:39.232Z</time></trkpt><trkpt lat="45.7781833" lon="9.743125"><ele>922.0</ele><time>2026-04-25T08:09:40.233Z</time></trkpt><trkpt lat="45.7782933" lon="9.7432167"><ele>922.0</ele><time>2026-04-25T08:09:59.23Z</time></trkpt><trkpt lat="45.7783617" lon="9.74328"><ele>922.0</ele><time>2026-04-25T08:10:00.23Z</time></trkpt><trkpt lat="45.77843" lon="9.74334"><ele>921.9999999999999</ele><time>2026-04-25T08:10:01.229Z</time></trkpt><trkpt lat="45.7784817" lon="9.743395"><ele>922.0</ele><time>2026-04-25T08:10:02.23Z</time></trkpt><trkpt lat="45.7785317" lon="9.743505"><ele>921.9999999999999</ele><time>2026-04-25T08:10:04.231Z</time></trkpt><trkpt lat="45.7785267" lon="9.7435983"><ele>922.0</ele><time>2026-04-25T08:10:06.23Z</time></trkpt><trkpt lat="45.7784267" lon="9.7436533"><ele>922.0</ele><time>2026-04-25T08:10:09.228Z</time></trkpt><trkpt lat="45.7783567" lon="9.7436633"><ele>922.0</ele><time>2026-04-25T08:10:10.23Z</time></trkpt><trkpt lat="45.7782617" lon="9.7436683"><ele>921.9999999999999</ele><time>2026-04-25T08:10:11.227Z</time></trkpt><trkpt lat="45.77816" lon="9.743665"><ele>922.0</ele><time>2026-04-25T08:10:12.229Z</time></trkpt><trkpt lat="45.7780583" lon="9.7436633"><ele>920.4000000000001</ele><time>2026-04-25T08:10:13.231Z</time></trkpt><trkpt lat="45.7779583" lon="9.743655"><ele>918.8000000000001</ele><time>2026-04-25T08:10:14.23Z</time></trkpt><trkpt lat="45.7778583" lon="9.7436283"><ele>917.2</ele><time>2026-04-25T08:10:15.231Z</time></trkpt><trkpt lat="45.777755" lon="9.7435833"><ele>915.6</ele><time>2026-04-25T08:10:16.23Z</time></trkpt><trkpt lat="45.7776483" lon="9.743525"><ele>914.0</ele><time>2026-04-25T08:10:17.228Z</time></trkpt><trkpt lat="45.777535" lon="9.7434567"><ele>912.8333333333334</ele><time>2026-04-25T08:10:18.229Z</time></trkpt><trkpt lat="45.777435" lon="9.7433833"><ele>911.6666666666667</ele><time>2026-04-25T08:10:19.228Z</time></trkpt><trkpt lat="45.777355" lon="9.7433183"><ele>910.5</ele><time>2026-04-25T08:10:20.229Z</time></trkpt><trkpt lat="45.7772933" lon="9.7432567"><ele>909.3333333333333</ele><time>2026-04-25T08:10:21.23Z</time></trkpt><trkpt lat="45.777245" lon="9.7431867"><ele>908.1666666666666</ele><time>2026-04-25T08:10:22.229Z</time></trkpt><trkpt lat="45.7772083" lon="9.7431083"><ele>907.0</ele><time>2026-04-25T08:10:23.23Z</time></trkpt><trkpt lat="45.7772" lon="9.74301"><ele>907.0</ele><time>2026-04-25T08:10:24.23Z</time></trkpt><trkpt lat="45.7772067" lon="9.7428817"><ele>907.0</ele><time>2026-04-25T08:10:25.232Z</time></trkpt><trkpt lat="45.77723" lon="9.7427217"><ele>907.0</ele><time>2026-04-25T08:10:26.229Z</time></trkpt><trkpt lat="45.7772383" lon="9.7425483"><ele>907.0</ele><time>2026-04-25T08:10:27.231Z</time></trkpt><trkpt lat="45.7772233" lon="9.7423667"><ele>910.0</ele><time>2026-04-25T08:10:28.231Z</time></trkpt><trkpt lat="45.7771867" lon="9.74218"><ele>913.0</ele><time>2026-04-25T08:10:29.23Z</time></trkpt><trkpt lat="45.7771333" lon="9.7420117"><ele>916.0</ele><time>2026-04-25T08:10:30.23Z</time></trkpt><trkpt lat="45.7770833" lon="9.7418467"><ele>919.0</ele><time>2026-04-25T08:10:31.23Z</time></trkpt><trkpt lat="45.777045" lon="9.7416783"><ele>919.75</ele><time>2026-04-25T08:10:32.231Z</time></trkpt><trkpt lat="45.7770267" lon="9.7415"><ele>920.5</ele><time>2026-04-25T08:10:33.231Z</time></trkpt><trkpt lat="45.7770217" lon="9.7413167"><ele>921.25</ele><time>2026-04-25T08:10:34.23Z</time></trkpt><trkpt lat="45.77702" lon="9.7411217"><ele>922.0</ele><time>2026-04-25T08:10:35.23Z</time></trkpt><trkpt lat="45.7770317" lon="9.7409117"><ele>923.25</ele><time>2026-04-25T08:10:36.233Z</time></trkpt><trkpt lat="45.7770567" lon="9.740705"><ele>924.5</ele><time>2026-04-25T08:10:37.231Z</time></trkpt><trkpt lat="45.7770833" lon="9.74051"><ele>925.75</ele><time>2026-04-25T08:10:38.23Z</time></trkpt><trkpt lat="45.7771183" lon="9.7403283"><ele>927.0</ele><time>2026-04-25T08:10:39.23Z</time></trkpt><trkpt lat="45.7771467" lon="9.740175"><ele>927.0</ele><time>2026-04-25T08:10:40.231Z</time></trkpt><trkpt lat="45.7771567" lon="9.7400383"><ele>927.0</ele><time>2026-04-25T08:10:41.231Z</time></trkpt><trkpt lat="45.7771317" lon="9.7399133"><ele>927.0</ele><time>2026-04-25T08:10:42.23Z</time></trkpt><trkpt lat="45.7770833" lon="9.7398067"><ele>927.0</ele><time>2026-04-25T08:10:43.23Z</time></trkpt><trkpt lat="45.7770233" lon="9.739715"><ele>927.0</ele><time>2026-04-25T08:10:44.228Z</time></trkpt><trkpt lat="45.7769317" lon="9.7396483"><ele>920.5</ele><time>2026-04-25T08:10:45.231Z</time></trkpt><trkpt lat="45.776815" lon="9.7396067"><ele>914.0</ele><time>2026-04-25T08:10:46.229Z</time></trkpt><trkpt lat="45.7766917" lon="9.7395717"><ele>907.5</ele><time>2026-04-25T08:10:47.23Z</time></trkpt><trkpt lat="45.7765733" lon="9.7395567"><ele>901.0</ele><time>2026-04-25T08:10:48.231Z</time></trkpt><trkpt lat="45.7764617" lon="9.7395783"><ele>901.0</ele><time>2026-04-25T08:10:49.228Z</time></trkpt><trkpt lat="45.77637" lon="9.73964"><ele>901.0</ele><time>2026-04-25T08:10:50.229Z</time></trkpt><trkpt lat="45.7762817" lon="9.7397283"><ele>901.0</ele><time>2026-04-25T08:10:51.229Z</time></trkpt><trkpt lat="45.77619" lon="9.73984"><ele>901.0</ele><time>2026-04-25T08:10:52.229Z</time></trkpt><trkpt lat="45.776085" lon="9.7399517"><ele>902.5</ele><time>2026-04-25T08:10:53.228Z</time></trkpt><trkpt lat="45.7759683" lon="9.7400433"><ele>904.0</ele><time>2026-04-25T08:10:54.23Z</time></trkpt><trkpt lat="45.775845" lon="9.74011"><ele>905.5</ele><time>2026-04-25T08:10:55.228Z</time></trkpt><trkpt lat="45.7757183" lon="9.740165"><ele>907.0</ele><time>2026-04-25T08:10:56.229Z</time></trkpt><trkpt lat="45.7755967" lon="9.74023"><ele>898.25</ele><time>2026-04-25T08:10:57.229Z</time></trkpt><trkpt lat="45.7754933" lon="9.7403167"><ele>889.5</ele><time>2026-04-25T08:10:58.231Z</time></trkpt><trkpt lat="45.7754" lon="9.7404383"><ele>880.75</ele><time>2026-04-25T08:10:59.232Z</time></trkpt><trkpt lat="45.7753183" lon="9.740585"><ele>872.0</ele><time>2026-04-25T08:11:00.228Z</time></trkpt><trkpt lat="45.7752467" lon="9.7407333"><ele>870.25</ele><time>2026-04-25T08:11:01.23Z</time></trkpt><trkpt lat="45.7751783" lon="9.7408767"><ele>868.5</ele><time>2026-04-25T08:11:02.229Z</time></trkpt><trkpt lat="45.7751067" lon="9.7410167"><ele>866.75</ele><time>2026-04-25T08:11:03.23Z</time></trkpt><trkpt lat="45.77503" lon="9.74114"><ele>865.0</ele><time>2026-04-25T08:11:04.228Z</time></trkpt><trkpt lat="45.7749467" lon="9.74124"><ele>865.0</ele><time>2026-04-25T08:11:05.231Z</time></trkpt><trkpt lat="45.774855" lon="9.7413017"><ele>865.0</ele><time>2026-04-25T08:11:06.228Z</time></trkpt><trkpt lat="45.7747417" lon="9.7413233"><ele>865.0</ele><time>2026-04-25T08:11:07.229Z</time></trkpt><trkpt lat="45.7746283" lon="9.7413117"><ele>865.0</ele><time>2026-04-25T08:11:08.23Z</time></trkpt><trkpt lat="45.77452" lon="9.74131"><ele>865.0</ele><time>2026-04-25T08:11:09.229Z</time></trkpt><trkpt lat="45.77442" lon="9.7413583"><ele>868.0</ele><time>2026-04-25T08:11:10.228Z</time></trkpt><trkpt lat="45.77434" lon="9.741455"><ele>871.0</ele><time>2026-04-25T08:11:11.228Z</time></trkpt><trkpt lat="45.77426" lon="9.7415733"><ele>874.0</ele><time>2026-04-25T08:11:12.229Z</time></trkpt><trkpt lat="45.77417" lon="9.7417033"><ele>877.0</ele><time>2026-04-25T08:11:13.228Z</time></trkpt><trkpt lat="45.7740733" lon="9.7418317"><ele>870.0</ele><time>2026-04-25T08:11:14.228Z</time></trkpt><trkpt lat="45.77397" lon="9.7419383"><ele>863.0</ele><time>2026-04-25T08:11:15.231Z</time></trkpt><trkpt lat="45.773865" lon="9.7420017"><ele>856.0</ele><time>2026-04-25T08:11:16.229Z</time></trkpt><trkpt lat="45.77375" lon="9.7420217"><ele>849.0</ele><time>2026-04-25T08:11:17.228Z</time></trkpt><trkpt lat="45.77364" lon="9.7420067"><ele>849.0</ele><time>2026-04-25T08:11:18.228Z</time></trkpt><trkpt lat="45.773525" lon="9.7419883"><ele>849.0</ele><time>2026-04-25T08:11:19.23Z</time></trkpt><trkpt lat="45.7733983" lon="9.7419933"><ele>849.0</ele><time>2026-04-25T08:11:20.23Z</time></trkpt><trkpt lat="45.7732667" lon="9.742025"><ele>849.0</ele><time>2026-04-25T08:11:21.228Z</time></trkpt><trkpt lat="45.7731317" lon="9.7420667"><ele>848.75</ele><time>2026-04-25T08:11:22.229Z</time></trkpt><trkpt lat="45.7729967" lon="9.7421017"><ele>848.5</ele><time>2026-04-25T08:11:23.229Z</time></trkpt><trkpt lat="45.7728633" lon="9.74212"><ele>848.25</ele><time>2026-04-25T08:11:24.229Z</time></trkpt><trkpt lat="45.7727333" lon="9.7421167"><ele>848.0</ele><time>2026-04-25T08:11:25.228Z</time></trkpt><trkpt lat="45.7726083" lon="9.7421033"><ele>848.0</ele><time>2026-04-25T08:11:26.229Z</time></trkpt><trkpt lat="45.7724833" lon="9.7421"><ele>848.0</ele><time>2026-04-25T08:11:27.229Z</time></trkpt><trkpt lat="45.7723517" lon="9.7421217"><ele>848.0</ele><time>2026-04-25T08:11:28.227Z</time></trkpt><trkpt lat="45.772215" lon="9.7421567"><ele>848.0</ele><time>2026-04-25T08:11:29.229Z</time></trkpt><trkpt lat="45.7720717" lon="9.7422117"><ele>848.0</ele><time>2026-04-25T08:11:30.228Z</time></trkpt><trkpt lat="45.7719283" lon="9.7422817"><ele>848.0</ele><time>2026-04-25T08:11:31.228Z</time></trkpt><trkpt lat="45.7717883" lon="9.7423533"><ele>848.0</ele><time>2026-04-25T08:11:32.229Z</time></trkpt><trkpt lat="45.7716483" lon="9.7424267"><ele>848.0</ele><time>2026-04-25T08:11:33.229Z</time></trkpt><trkpt lat="45.7715183" lon="9.7424867"><ele>847.5999999999999</ele><time>2026-04-25T08:11:34.227Z</time></trkpt><trkpt lat="45.7714067" lon="9.7425283"><ele>847.1999999999999</ele><time>2026-04-25T08:11:35.229Z</time></trkpt><trkpt lat="45.7713067" lon="9.742555"><ele>846.8</ele><time>2026-04-25T08:11:36.228Z</time></trkpt><trkpt lat="45.77122" lon="9.742555"><ele>846.4</ele><time>2026-04-25T08:11:37.228Z</time></trkpt><trkpt lat="45.7711433" lon="9.7425217"><ele>846.0</ele><time>2026-04-25T08:11:38.23Z</time></trkpt><trkpt lat="45.7710783" lon="9.7424583"><ele>846.0</ele><time>2026-04-25T08:11:39.229Z</time></trkpt><trkpt lat="45.7710417" lon="9.7423467"><ele>846.0</ele><time>2026-04-25T08:11:40.23Z</time></trkpt><trkpt lat="45.77103" lon="9.7421983"><ele>846.0</ele><time>2026-04-25T08:11:41.229Z</time></trkpt><trkpt lat="45.77102" lon="9.74203"><ele>846.0</ele><time>2026-04-25T08:11:42.227Z</time></trkpt><trkpt lat="45.7710117" lon="9.741865"><ele>846.0</ele><time>2026-04-25T08:11:43.231Z</time></trkpt><trkpt lat="45.7710117" lon="9.7417083"><ele>847.5999999999999</ele><time>2026-04-25T08:11:44.229Z</time></trkpt><trkpt lat="45.7710283" lon="9.7415617"><ele>849.2</ele><time>2026-04-25T08:11:45.23Z</time></trkpt><trkpt lat="45.7710617" lon="9.7414267"><ele>850.8000000000001</ele><time>2026-04-25T08:11:46.229Z</time></trkpt><trkpt lat="45.7711083" lon="9.741295"><ele>852.4000000000001</ele><time>2026-04-25T08:11:47.229Z</time></trkpt><trkpt lat="45.771165" lon="9.7411667"><ele>854.0</ele><time>2026-04-25T08:11:48.23Z</time></trkpt><trkpt lat="45.7712283" lon="9.7410367"><ele>854.0000000000001</ele><time>2026-04-25T08:11:49.23Z</time></trkpt><trkpt lat="45.77129" lon="9.7409167"><ele>854.0</ele><time>2026-04-25T08:11:50.23Z</time></trkpt><trkpt lat="45.7713517" lon="9.7408233"><ele>854.0</ele><time>2026-04-25T08:11:51.231Z</time></trkpt><trkpt lat="45.7714167" lon="9.7407483"><ele>854.0</ele><time>2026-04-25T08:11:52.228Z</time></trkpt><trkpt lat="45.7714667" lon="9.7406867"><ele>854.0000000000001</ele><time>2026-04-25T08:11:53.229Z</time></trkpt><trkpt lat="45.7714967" lon="9.7405417"><ele>854.0</ele><time>2026-04-25T08:11:55.231Z</time></trkpt><trkpt lat="45.77142" lon="9.740525"><ele>854.0</ele><time>2026-04-25T08:11:57.229Z</time></trkpt><trkpt lat="45.7713067" lon="9.740635"><ele>854.0000000000001</ele><time>2026-04-25T08:11:59.231Z</time></trkpt><trkpt lat="45.77124" lon="9.7407317"><ele>854.0000000000001</ele><time>2026-04-25T08:12:00.228Z</time></trkpt><trkpt lat="45.7711833" lon="9.740845"><ele>854.0</ele><time>2026-04-25T08:12:01.228Z</time></trkpt><trkpt lat="45.7711183" lon="9.7409667"><ele>854.0</ele><time>2026-04-25T08:12:02.228Z</time></trkpt><trkpt lat="45.7710383" lon="9.7411017"><ele>848.25</ele><time>2026-04-25T08:12:03.228Z</time></trkpt><trkpt lat="45.7709583" lon="9.7412417"><ele>842.5</ele><time>2026-04-25T08:12:04.229Z</time></trkpt><trkpt lat="45.7708967" lon="9.74139"><ele>836.75</ele><time>2026-04-25T08:12:05.229Z</time></trkpt><trkpt lat="45.7708483" lon="9.7415483"><ele>831.0</ele><time>2026-04-25T08:12:06.229Z</time></trkpt><trkpt lat="45.7708267" lon="9.7417083"><ele>831.0</ele><time>2026-04-25T08:12:07.228Z</time></trkpt><trkpt lat="45.7708133" lon="9.741865"><ele>831.0</ele><time>2026-04-25T08:12:08.229Z</time></trkpt><trkpt lat="45.7707933" lon="9.7420133"><ele>831.0</ele><time>2026-04-25T08:12:09.23Z</time></trkpt><trkpt lat="45.7707667" lon="9.7421517"><ele>831.0</ele><time>2026-04-25T08:12:10.23Z</time></trkpt><trkpt lat="45.7707133" lon="9.74228"><ele>831.0</ele><time>2026-04-25T08:12:11.228Z</time></trkpt><trkpt lat="45.7706283" lon="9.7423867"><ele>832.4</ele><time>2026-04-25T08:12:12.227Z</time></trkpt><trkpt lat="45.77053" lon="9.7424667"><ele>833.8</ele><time>2026-04-25T08:12:13.229Z</time></trkpt><trkpt lat="45.770425" lon="9.742525"><ele>835.1999999999999</ele><time>2026-04-25T08:12:14.228Z</time></trkpt><trkpt lat="45.7703383" lon="9.7425733"><ele>836.5999999999999</ele><time>2026-04-25T08:12:15.229Z</time></trkpt><trkpt lat="45.7702683" lon="9.7426367"><ele>838.0</ele><time>2026-04-25T08:12:16.229Z</time></trkpt><trkpt lat="45.7702517" lon="9.7427333"><ele>835.3333333333333</ele><time>2026-04-25T08:12:17.232Z</time></trkpt><trkpt lat="45.770265" lon="9.74283"><ele>832.6666666666666</ele><time>2026-04-25T08:12:18.229Z</time></trkpt><trkpt lat="45.7702967" lon="9.742925"><ele>830.0</ele><time>2026-04-25T08:12:19.228Z</time></trkpt><trkpt lat="45.770345" lon="9.7430217"><ele>827.3333333333333</ele><time>2026-04-25T08:12:20.229Z</time></trkpt><trkpt lat="45.770395" lon="9.7431183"><ele>824.6666666666666</ele><time>2026-04-25T08:12:21.229Z</time></trkpt><trkpt lat="45.7704467" lon="9.7432117"><ele>822.0</ele><time>2026-04-25T08:12:22.228Z</time></trkpt><trkpt lat="45.7704933" lon="9.7432917"><ele>822.0</ele><time>2026-04-25T08:12:23.229Z</time></trkpt><trkpt lat="45.77054" lon="9.7433633"><ele>822.0</ele><time>2026-04-25T08:12:24.228Z</time></trkpt><trkpt lat="45.7706233" lon="9.743475"><ele>822.0</ele><time>2026-04-25T08:12:26.228Z</time></trkpt><trkpt lat="45.7706183" lon="9.743575"><ele>822.0</ele><time>2026-04-25T08:12:29.23Z</time></trkpt><trkpt lat="45.7705567" lon="9.7434967"><ele>822.0</ele><time>2026-04-25T08:12:31.229Z</time></trkpt><trkpt lat="45.77051" lon="9.74341"><ele>822.0</ele><time>2026-04-25T08:12:32.228Z</time></trkpt><trkpt lat="45.7704517" lon="9.7433117"><ele>822.0</ele><time>2026-04-25T08:12:33.229Z</time></trkpt><trkpt lat="45.7703883" lon="9.743215"><ele>822.0</ele><time>2026-04-25T08:12:34.228Z</time></trkpt><trkpt lat="45.77032" lon="9.7431233"><ele>822.0</ele><time>2026-04-25T08:12:35.23Z</time></trkpt><trkpt lat="45.770245" lon="9.7430317"><ele>822.0</ele><time>2026-04-25T08:12:36.228Z</time></trkpt><trkpt lat="45.7701733" lon="9.7429433"><ele>822.0</ele><time>2026-04-25T08:12:37.228Z</time></trkpt><trkpt lat="45.7701083" lon="9.7428633"><ele>818.7142857142857</ele><time>2026-04-25T08:12:38.228Z</time></trkpt><trkpt lat="45.7700533" lon="9.7427867"><ele>815.4285714285713</ele><time>2026-04-25T08:12:39.228Z</time></trkpt><trkpt lat="45.7700167" lon="9.7427"><ele>812.1428571428571</ele><time>2026-04-25T08:12:40.229Z</time></trkpt><trkpt lat="45.7699983" lon="9.7426117"><ele>808.8571428571429</ele><time>2026-04-25T08:12:41.228Z</time></trkpt><trkpt lat="45.77" lon="9.74252"><ele>805.5714285714286</ele><time>2026-04-25T08:12:42.229Z</time></trkpt><trkpt lat="45.77002" lon="9.742425"><ele>802.2857142857143</ele><time>2026-04-25T08:12:43.228Z</time></trkpt><trkpt lat="45.7700517" lon="9.7423333"><ele>799.0</ele><time>2026-04-25T08:12:44.23Z</time></trkpt><trkpt lat="45.7701017" lon="9.74225"><ele>798.9999999999999</ele><time>2026-04-25T08:12:45.229Z</time></trkpt><trkpt lat="45.77017" lon="9.7421817"><ele>799.0</ele><time>2026-04-25T08:12:46.229Z</time></trkpt><trkpt lat="45.7702583" lon="9.7421333"><ele>799.0</ele><time>2026-04-25T08:12:47.231Z</time></trkpt><trkpt lat="45.7703333" lon="9.74207"><ele>799.0</ele><time>2026-04-25T08:12:48.23Z</time></trkpt><trkpt lat="45.7704033" lon="9.742"><ele>798.9999999999999</ele><time>2026-04-25T08:12:49.23Z</time></trkpt><trkpt lat="45.7704583" lon="9.7419167"><ele>799.0</ele><time>2026-04-25T08:12:50.229Z</time></trkpt><trkpt lat="45.77049" lon="9.741825"><ele>804.3333333333333</ele><time>2026-04-25T08:12:51.229Z</time></trkpt><trkpt lat="45.7705117" lon="9.7417067"><ele>809.6666666666666</ele><time>2026-04-25T08:12:52.229Z</time></trkpt><trkpt lat="45.770535" lon="9.7415967"><ele>815.0</ele><time>2026-04-25T08:12:53.229Z</time></trkpt><trkpt lat="45.7705633" lon="9.741485"><ele>820.3333333333333</ele><time>2026-04-25T08:12:54.234Z</time></trkpt><trkpt lat="45.7706017" lon="9.7413717"><ele>825.6666666666666</ele><time>2026-04-25T08:12:55.23Z</time></trkpt><trkpt lat="45.770645" lon="9.7412533"><ele>831.0</ele><time>2026-04-25T08:12:56.229Z</time></trkpt><trkpt lat="45.7706833" lon="9.74112"><ele>827.0</ele><time>2026-04-25T08:12:57.227Z</time></trkpt><trkpt lat="45.77072" lon="9.7409867"><ele>823.0</ele><time>2026-04-25T08:12:58.227Z</time></trkpt><trkpt lat="45.7707533" lon="9.740865"><ele>819.0</ele><time>2026-04-25T08:12:59.227Z</time></trkpt><trkpt lat="45.7707867" lon="9.7407367"><ele>815.0</ele><time>2026-04-25T08:13:00.228Z</time></trkpt><trkpt lat="45.7708233" lon="9.7406167"><ele>811.0</ele><time>2026-04-25T08:13:01.227Z</time></trkpt><trkpt lat="45.7708617" lon="9.7405083"><ele>810.9999999999999</ele><time>2026-04-25T08:13:02.229Z</time></trkpt><trkpt lat="45.7708983" lon="9.740425"><ele>811.0</ele><time>2026-04-25T08:13:03.229Z</time></trkpt><trkpt lat="45.7709533" lon="9.740295"><ele>811.0</ele><time>2026-04-25T08:13:05.228Z</time></trkpt><trkpt lat="45.7709117" lon="9.7402017"><ele>811.0</ele><time>2026-04-25T08:13:08.227Z</time></trkpt><trkpt lat="45.7708383" lon="9.7402833"><ele>810.9999999999999</ele><time>2026-04-25T08:13:10.232Z</time></trkpt><trkpt lat="45.7708017" lon="9.7403833"><ele>811.0</ele><time>2026-04-25T08:13:11.228Z</time></trkpt><trkpt lat="45.7707467" lon="9.740525"><ele>811.0</ele><time>2026-04-25T08:13:12.232Z</time></trkpt><trkpt lat="45.77068" lon="9.7406967"><ele>811.0</ele><time>2026-04-25T08:13:13.227Z</time></trkpt><trkpt lat="45.770615" lon="9.74087"><ele>811.0</ele><time>2026-04-25T08:13:14.227Z</time></trkpt><trkpt lat="45.7705467" lon="9.7410217"><ele>811.0</ele><time>2026-04-25T08:13:15.228Z</time></trkpt><trkpt lat="45.77047" lon="9.741145"><ele>815.0</ele><time>2026-04-25T08:13:16.228Z</time></trkpt><trkpt lat="45.7703867" lon="9.7412533"><ele>819.0</ele><time>2026-04-25T08:13:17.227Z</time></trkpt><trkpt lat="45.7703183" lon="9.7413717"><ele>823.0</ele><time>2026-04-25T08:13:18.229Z</time></trkpt><trkpt lat="45.77028" lon="9.7415"><ele>827.0</ele><time>2026-04-25T08:13:19.229Z</time></trkpt><trkpt lat="45.7702533" lon="9.7416267"><ele>831.0</ele><time>2026-04-25T08:13:20.229Z</time></trkpt><trkpt lat="45.7702217" lon="9.7417367"><ele>823.0</ele><time>2026-04-25T08:13:21.229Z</time></trkpt><trkpt lat="45.77017" lon="9.741835"><ele>815.0</ele><time>2026-04-25T08:13:22.229Z</time></trkpt><trkpt lat="45.77006" lon="9.741885"><ele>807.0</ele><time>2026-04-25T08:13:23.229Z</time></trkpt><trkpt lat="45.76994" lon="9.74195"><ele>799.0</ele><time>2026-04-25T08:13:24.229Z</time></trkpt><trkpt lat="45.7698283" lon="9.7420467"><ele>799.0</ele><time>2026-04-25T08:13:25.23Z</time></trkpt><trkpt lat="45.769725" lon="9.742165"><ele>799.0</ele><time>2026-04-25T08:13:26.227Z</time></trkpt><trkpt lat="45.76964" lon="9.7422867"><ele>799.0</ele><time>2026-04-25T08:13:27.228Z</time></trkpt><trkpt lat="45.7695533" lon="9.7424167"><ele>799.0</ele><time>2026-04-25T08:13:28.229Z</time></trkpt><trkpt lat="45.7694917" lon="9.7425633"><ele>798.0</ele><time>2026-04-25T08:13:29.23Z</time></trkpt><trkpt lat="45.769455" lon="9.74272"><ele>797.0</ele><time>2026-04-25T08:13:30.23Z</time></trkpt><trkpt lat="45.7694467" lon="9.7428767"><ele>796.0</ele><time>2026-04-25T08:13:31.229Z</time></trkpt><trkpt lat="45.7694567" lon="9.7430233"><ele>795.0</ele><time>2026-04-25T08:13:32.227Z</time></trkpt><trkpt lat="45.7694933" lon="9.7431633"><ele>794.0</ele><time>2026-04-25T08:13:33.228Z</time></trkpt><trkpt lat="45.76956" lon="9.7433033"><ele>794.0</ele><time>2026-04-25T08:13:34.228Z</time></trkpt><trkpt lat="45.7696517" lon="9.743435"><ele>794.0</ele><time>2026-04-25T08:13:35.228Z</time></trkpt><trkpt lat="45.7697467" lon="9.743565"><ele>794.0</ele><time>2026-04-25T08:13:36.227Z</time></trkpt><trkpt lat="45.76984" lon="9.7436783"><ele>794.0</ele><time>2026-04-25T08:13:37.227Z</time></trkpt><trkpt lat="45.7699233" lon="9.74378"><ele>789.8000000000001</ele><time>2026-04-25T08:13:38.227Z</time></trkpt><trkpt lat="45.76999" lon="9.7438817"><ele>785.6</ele><time>2026-04-25T08:13:39.232Z</time></trkpt><trkpt lat="45.770035" lon="9.7439933"><ele>781.4</ele><time>2026-04-25T08:13:40.227Z</time></trkpt><trkpt lat="45.7700517" lon="9.7441233"><ele>777.2</ele><time>2026-04-25T08:13:41.228Z</time></trkpt><trkpt lat="45.7700533" lon="9.7442733"><ele>773.0</ele><time>2026-04-25T08:13:42.228Z</time></trkpt><trkpt lat="45.7700733" lon="9.7444283"><ele>773.5999999999999</ele><time>2026-04-25T08:13:43.227Z</time></trkpt><trkpt lat="45.7701217" lon="9.744575"><ele>774.1999999999999</ele><time>2026-04-25T08:13:44.227Z</time></trkpt><trkpt lat="45.770185" lon="9.7447067"><ele>774.8</ele><time>2026-04-25T08:13:45.23Z</time></trkpt><trkpt lat="45.7702417" lon="9.7448317"><ele>775.4</ele><time>2026-04-25T08:13:46.228Z</time></trkpt><trkpt lat="45.7702783" lon="9.74497"><ele>776.0</ele><time>2026-04-25T08:13:47.229Z</time></trkpt><trkpt lat="45.77028" lon="9.7451233"><ele>770.25</ele><time>2026-04-25T08:13:48.229Z</time></trkpt><trkpt lat="45.7702533" lon="9.74529"><ele>764.5</ele><time>2026-04-25T08:13:49.227Z</time></trkpt><trkpt lat="45.770205" lon="9.7454717"><ele>758.75</ele><time>2026-04-25T08:13:50.229Z</time></trkpt><trkpt lat="45.7701417" lon="9.7456617"><ele>753.0</ele><time>2026-04-25T08:13:51.228Z</time></trkpt><trkpt lat="45.770065" lon="9.7458417"><ele>753.0</ele><time>2026-04-25T08:13:52.227Z</time></trkpt><trkpt lat="45.7699767" lon="9.7459883"><ele>753.0</ele><time>2026-04-25T08:13:53.228Z</time></trkpt><trkpt lat="45.7698767" lon="9.74611"><ele>753.0</ele><time>2026-04-25T08:13:54.227Z</time></trkpt><trkpt lat="45.7697667" lon="9.7462183"><ele>753.0</ele><time>2026-04-25T08:13:55.227Z</time></trkpt><trkpt lat="45.769655" lon="9.7463183"><ele>751.0</ele><time>2026-04-25T08:13:56.227Z</time></trkpt><trkpt lat="45.7695517" lon="9.7464067"><ele>749.0</ele><time>2026-04-25T08:13:57.228Z</time></trkpt><trkpt lat="45.7694617" lon="9.74648"><ele>747.0</ele><time>2026-04-25T08:13:58.227Z</time></trkpt><trkpt lat="45.7693867" lon="9.7465433"><ele>745.0</ele><time>2026-04-25T08:13:59.227Z</time></trkpt><trkpt lat="45.769325" lon="9.7465883"><ele>743.0</ele><time>2026-04-25T08:14:00.229Z</time></trkpt><trkpt lat="45.7692483" lon="9.7465933"><ele>743.0</ele><time>2026-04-25T08:14:02.228Z</time></trkpt><trkpt lat="45.7692667" lon="9.7465"><ele>743.0</ele><time>2026-04-25T08:14:05.229Z</time></trkpt><trkpt lat="45.7693483" lon="9.7464533"><ele>743.0</ele><time>2026-04-25T08:14:06.231Z</time></trkpt><trkpt lat="45.769425" lon="9.7464033"><ele>743.0</ele><time>2026-04-25T08:14:07.228Z</time></trkpt><trkpt lat="45.7695117" lon="9.7463317"><ele>743.0</ele><time>2026-04-25T08:14:08.227Z</time></trkpt><trkpt lat="45.769605" lon="9.7462233"><ele>742.0</ele><time>2026-04-25T08:14:09.23Z</time></trkpt><trkpt lat="45.7696867" lon="9.746095"><ele>741.0</ele><time>2026-04-25T08:14:10.228Z</time></trkpt><trkpt lat="45.7697667" lon="9.74596"><ele>740.0</ele><time>2026-04-25T08:14:11.227Z</time></trkpt><trkpt lat="45.7698333" lon="9.7458233"><ele>739.0</ele><time>2026-04-25T08:14:12.228Z</time></trkpt><trkpt lat="45.769885" lon="9.7456867"><ele>741.8000000000001</ele><time>2026-04-25T08:14:13.228Z</time></trkpt><trkpt lat="45.76992" lon="9.74555"><ele>744.6</ele><time>2026-04-25T08:14:14.227Z</time></trkpt><trkpt lat="45.76994" lon="9.7454067"><ele>747.4</ele><time>2026-04-25T08:14:15.227Z</time></trkpt><trkpt lat="45.7699333" lon="9.7452783"><ele>750.2</ele><time>2026-04-25T08:14:16.227Z</time></trkpt><trkpt lat="45.7699" lon="9.745155"><ele>753.0</ele><time>2026-04-25T08:14:17.229Z</time></trkpt><trkpt lat="45.7698367" lon="9.74504"><ele>754.5</ele><time>2026-04-25T08:14:18.226Z</time></trkpt><trkpt lat="45.7697567" lon="9.744925"><ele>756.0</ele><time>2026-04-25T08:14:19.228Z</time></trkpt><trkpt lat="45.76968" lon="9.7448067"><ele>757.5</ele><time>2026-04-25T08:14:20.228Z</time></trkpt><trkpt lat="45.7696267" lon="9.7446667"><ele>759.0</ele><time>2026-04-25T08:14:21.228Z</time></trkpt><trkpt lat="45.769585" lon="9.7445167"><ele>761.8000000000001</ele><time>2026-04-25T08:14:22.228Z</time></trkpt><trkpt lat="45.7695433" lon="9.7443717"><ele>764.6</ele><time>2026-04-25T08:14:23.231Z</time></trkpt><trkpt lat="45.7694983" lon="9.7442333"><ele>767.4</ele><time>2026-04-25T08:14:24.228Z</time></trkpt><trkpt lat="45.7694433" lon="9.7441067"><ele>770.2</ele><time>2026-04-25T08:14:25.228Z</time></trkpt><trkpt lat="45.7693683" lon="9.7440067"><ele>773.0</ele><time>2026-04-25T08:14:26.227Z</time></trkpt><trkpt lat="45.7692767" lon="9.7439167"><ele>768.25</ele><time>2026-04-25T08:14:27.229Z</time></trkpt><trkpt lat="45.7691783" lon="9.7438233"><ele>763.5</ele><time>2026-04-25T08:14:28.23Z</time></trkpt><trkpt lat="45.769075" lon="9.7437233"><ele>758.75</ele><time>2026-04-25T08:14:29.227Z</time></trkpt><trkpt lat="45.7689733" lon="9.7436133"><ele>754.0</ele><time>2026-04-25T08:14:30.228Z</time></trkpt><trkpt lat="45.768895" lon="9.7434983"><ele>754.0</ele><time>2026-04-25T08:14:31.229Z</time></trkpt><trkpt lat="45.768835" lon="9.7433567"><ele>754.0</ele><time>2026-04-25T08:14:32.229Z</time></trkpt><trkpt lat="45.7688017" lon="9.7432183"><ele>754.0</ele><time>2026-04-25T08:14:33.227Z</time></trkpt><trkpt lat="45.7687917" lon="9.7430933"><ele>754.0</ele><time>2026-04-25T08:14:34.227Z</time></trkpt><trkpt lat="45.768785" lon="9.74299"><ele>754.0</ele><time>2026-04-25T08:14:35.228Z</time></trkpt><trkpt lat="45.7687383" lon="9.7428867"><ele>754.0</ele><time>2026-04-25T08:14:37.229Z</time></trkpt><trkpt lat="45.768665" lon="9.7429733"><ele>754.0</ele><time>2026-04-25T08:14:39.229Z</time></trkpt><trkpt lat="45.7686617" lon="9.74317"><ele>754.0</ele><time>2026-04-25T08:14:41.227Z</time></trkpt><trkpt lat="45.7686817" lon="9.7433033"><ele>754.0</ele><time>2026-04-25T08:14:42.229Z</time></trkpt><trkpt lat="45.7687083" lon="9.7434467"><ele>754.0</ele><time>2026-04-25T08:14:43.231Z</time></trkpt><trkpt lat="45.7687467" lon="9.7435917"><ele>750.2</ele><time>2026-04-25T08:14:44.228Z</time></trkpt><trkpt lat="45.7688083" lon="9.7437317"><ele>746.4000000000001</ele><time>2026-04-25T08:14:45.228Z</time></trkpt><trkpt lat="45.76888" lon="9.743855"><ele>742.6</ele><time>2026-04-25T08:14:46.231Z</time></trkpt><trkpt lat="45.7689583" lon="9.7439733"><ele>738.8</ele><time>2026-04-25T08:14:47.228Z</time></trkpt><trkpt lat="45.769035" lon="9.7440767"><ele>735.0</ele><time>2026-04-25T08:14:48.228Z</time></trkpt><trkpt lat="45.76911" lon="9.74418"><ele>735.0</ele><time>2026-04-25T08:14:49.227Z</time></trkpt><trkpt lat="45.7691783" lon="9.744285"><ele>735.0</ele><time>2026-04-25T08:14:50.228Z</time></trkpt><trkpt lat="45.76923" lon="9.744395"><ele>735.0</ele><time>2026-04-25T08:14:51.229Z</time></trkpt><trkpt lat="45.769255" lon="9.7445317"><ele>735.0</ele><time>2026-04-25T08:14:52.227Z</time></trkpt><trkpt lat="45.7692667" lon="9.7446867"><ele>735.0</ele><time>2026-04-25T08:14:53.227Z</time></trkpt><trkpt lat="45.7692833" lon="9.74485"><ele>733.8</ele><time>2026-04-25T08:14:54.228Z</time></trkpt><trkpt lat="45.7693033" lon="9.745005"><ele>732.6</ele><time>2026-04-25T08:14:55.227Z</time></trkpt><trkpt lat="45.7693333" lon="9.745145"><ele>731.4000000000001</ele><time>2026-04-25T08:14:56.229Z</time></trkpt><trkpt lat="45.7693583" lon="9.7452717"><ele>730.2</ele><time>2026-04-25T08:14:57.229Z</time></trkpt><trkpt lat="45.7693683" lon="9.74538"><ele>729.0</ele><time>2026-04-25T08:14:58.228Z</time></trkpt><trkpt lat="45.7693583" lon="9.7454817"><ele>729.0</ele><time>2026-04-25T08:14:59.228Z</time></trkpt><trkpt lat="45.769295" lon="9.745555"><ele>729.0</ele><time>2026-04-25T08:15:00.229Z</time></trkpt><trkpt lat="45.7692233" lon="9.7456383"><ele>729.0</ele><time>2026-04-25T08:15:01.229Z</time></trkpt><trkpt lat="45.7691167" lon="9.745725"><ele>729.0</ele><time>2026-04-25T08:15:02.23Z</time></trkpt><trkpt lat="45.7690033" lon="9.7458083"><ele>729.0</ele><time>2026-04-25T08:15:03.227Z</time></trkpt><trkpt lat="45.7688767" lon="9.7458833"><ele>729.0</ele><time>2026-04-25T08:15:04.229Z</time></trkpt><trkpt lat="45.768745" lon="9.7459483"><ele>729.0</ele><time>2026-04-25T08:15:05.229Z</time></trkpt><trkpt lat="45.7686183" lon="9.7460083"><ele>729.0</ele><time>2026-04-25T08:15:06.227Z</time></trkpt><trkpt lat="45.768495" lon="9.746075"><ele>729.0</ele><time>2026-04-25T08:15:07.227Z</time></trkpt><trkpt lat="45.7683867" lon="9.7461517"><ele>726.4000000000001</ele><time>2026-04-25T08:15:08.228Z</time></trkpt><trkpt lat="45.768305" lon="9.74625"><ele>723.8</ele><time>2026-04-25T08:15:09.228Z</time></trkpt><trkpt lat="45.7682467" lon="9.7463733"><ele>721.2</ele><time>2026-04-25T08:15:10.227Z</time></trkpt><trkpt lat="45.7682067" lon="9.746515"><ele>718.5999999999999</ele><time>2026-04-25T08:15:11.227Z</time></trkpt><trkpt lat="45.7681717" lon="9.7466683"><ele>716.0</ele><time>2026-04-25T08:15:12.238Z</time></trkpt><trkpt lat="45.7681367" lon="9.74683"><ele>718.25</ele><time>2026-04-25T08:15:13.227Z</time></trkpt><trkpt lat="45.7681" lon="9.746995"><ele>720.5</ele><time>2026-04-25T08:15:14.227Z</time></trkpt><trkpt lat="45.7680633" lon="9.7471617"><ele>722.75</ele><time>2026-04-25T08:15:15.228Z</time></trkpt><trkpt lat="45.76803" lon="9.7473183"><ele>725.0</ele><time>2026-04-25T08:15:16.228Z</time></trkpt><trkpt lat="45.7679917" lon="9.7474683"><ele>725.0</ele><time>2026-04-25T08:15:17.227Z</time></trkpt><trkpt lat="45.7679583" lon="9.74761"><ele>725.0</ele><time>2026-04-25T08:15:18.228Z</time></trkpt><trkpt lat="45.7679367" lon="9.7477367"><ele>725.0</ele><time>2026-04-25T08:15:19.23Z</time></trkpt><trkpt lat="45.7679233" lon="9.7478417"><ele>725.0</ele><time>2026-04-25T08:15:20.23Z</time></trkpt><trkpt lat="45.767885" lon="9.7479583"><ele>725.0</ele><time>2026-04-25T08:15:22.229Z</time></trkpt><trkpt lat="45.7678567" lon="9.74783"><ele>725.0</ele><time>2026-04-25T08:15:25.234Z</time></trkpt><trkpt lat="45.7678817" lon="9.7477467"><ele>725.0</ele><time>2026-04-25T08:15:26.232Z</time></trkpt><trkpt lat="45.7679183" lon="9.74763"><ele>725.0</ele><time>2026-04-25T08:15:27.234Z</time></trkpt><trkpt lat="45.767955" lon="9.74749"><ele>725.0</ele><time>2026-04-25T08:15:28.229Z</time></trkpt><trkpt lat="45.7679867" lon="9.7473367"><ele>725.0</ele><time>2026-04-25T08:15:29.23Z</time></trkpt><trkpt lat="45.7680067" lon="9.7471817"><ele>725.0</ele><time>2026-04-25T08:15:30.23Z</time></trkpt><trkpt lat="45.7680083" lon="9.7470367"><ele>725.0</ele><time>2026-04-25T08:15:31.228Z</time></trkpt><trkpt lat="45.7680117" lon="9.7469017"><ele>725.0</ele><time>2026-04-25T08:15:32.23Z</time></trkpt><trkpt lat="45.7680183" lon="9.74677"><ele>725.0</ele><time>2026-04-25T08:15:33.229Z</time></trkpt><trkpt lat="45.7680317" lon="9.7466383"><ele>725.0</ele><time>2026-04-25T08:15:34.328Z</time></trkpt><trkpt lat="45.7680483" lon="9.746505"><ele>723.2</ele><time>2026-04-25T08:15:35.23Z</time></trkpt><trkpt lat="45.76807" lon="9.7463717"><ele>721.4</ele><time>2026-04-25T08:15:36.229Z</time></trkpt><trkpt lat="45.7681" lon="9.7462283"><ele>719.5999999999999</ele><time>2026-04-25T08:15:37.232Z</time></trkpt><trkpt lat="45.7681433" lon="9.74609"><ele>717.8</ele><time>2026-04-25T08:15:38.229Z</time></trkpt><trkpt lat="45.7681983" lon="9.7459467"><ele>716.0</ele><time>2026-04-25T08:15:39.228Z</time></trkpt><trkpt lat="45.7682717" lon="9.7458283"><ele>718.5999999999999</ele><time>2026-04-25T08:15:40.227Z</time></trkpt><trkpt lat="45.7683583" lon="9.7457217"><ele>721.2</ele><time>2026-04-25T08:15:41.227Z</time></trkpt><trkpt lat="45.7684467" lon="9.7456217"><ele>723.8</ele><time>2026-04-25T08:15:42.228Z</time></trkpt><trkpt lat="45.7685333" lon="9.7455367"><ele>726.4000000000001</ele><time>2026-04-25T08:15:43.227Z</time></trkpt><trkpt lat="45.7686167" lon="9.7454667"><ele>729.0</ele><time>2026-04-25T08:15:44.231Z</time></trkpt><trkpt lat="45.7686933" lon="9.7453967"><ele>729.0</ele><time>2026-04-25T08:15:45.229Z</time></trkpt><trkpt lat="45.76875" lon="9.7453283"><ele>729.0</ele><time>2026-04-25T08:15:46.229Z</time></trkpt><trkpt lat="45.7687817" lon="9.7452433"><ele>729.0</ele><time>2026-04-25T08:15:47.227Z</time></trkpt><trkpt lat="45.7687733" lon="9.74515"><ele>729.0</ele><time>2026-04-25T08:15:48.227Z</time></trkpt><trkpt lat="45.7687433" lon="9.74504"><ele>729.0</ele><time>2026-04-25T08:15:49.228Z</time></trkpt><trkpt lat="45.7686867" lon="9.7449183"><ele>729.0</ele><time>2026-04-25T08:15:50.228Z</time></trkpt><trkpt lat="45.768605" lon="9.7447933"><ele>721.0</ele><time>2026-04-25T08:15:51.23Z</time></trkpt><trkpt lat="45.76851" lon="9.7446717"><ele>713.0</ele><time>2026-04-25T08:15:52.23Z</time></trkpt><trkpt lat="45.768405" lon="9.744555"><ele>705.0</ele><time>2026-04-25T08:15:53.229Z</time></trkpt><trkpt lat="45.7683" lon="9.74444"><ele>697.0</ele><time>2026-04-25T08:15:54.229Z</time></trkpt><trkpt lat="45.7682017" lon="9.7443283"><ele>697.0</ele><time>2026-04-25T08:15:55.229Z</time></trkpt><trkpt lat="45.7681083" lon="9.7442183"><ele>697.0</ele><time>2026-04-25T08:15:56.23Z</time></trkpt><trkpt lat="45.7680267" lon="9.744105"><ele>697.0</ele><time>2026-04-25T08:15:57.231Z</time></trkpt><trkpt lat="45.7679567" lon="9.7439933"><ele>697.0</ele><time>2026-04-25T08:15:58.228Z</time></trkpt><trkpt lat="45.7679033" lon="9.74388"><ele>697.0</ele><time>2026-04-25T08:15:59.229Z</time></trkpt><trkpt lat="45.767865" lon="9.74377"><ele>697.0</ele><time>2026-04-25T08:16:00.23Z</time></trkpt><trkpt lat="45.7678533" lon="9.7436683"><ele>697.0</ele><time>2026-04-25T08:16:01.227Z</time></trkpt><trkpt lat="45.7678333" lon="9.743515"><ele>697.0</ele><time>2026-04-25T08:16:03.319Z</time></trkpt><trkpt lat="45.76775" lon="9.7435433"><ele>697.0</ele><time>2026-04-25T08:16:05.228Z</time></trkpt><trkpt lat="45.7677267" lon="9.7437167"><ele>697.0</ele><time>2026-04-25T08:16:07.227Z</time></trkpt><trkpt lat="45.7677433" lon="9.7438233"><ele>697.0</ele><time>2026-04-25T08:16:08.229Z</time></trkpt><trkpt lat="45.7677833" lon="9.7439633"><ele>697.0</ele><time>2026-04-25T08:16:09.23Z</time></trkpt><trkpt lat="45.76784" lon="9.7441167"><ele>697.0</ele><time>2026-04-25T08:16:10.227Z</time></trkpt><trkpt lat="45.7679017" lon="9.7442683"><ele>697.0</ele><time>2026-04-25T08:16:11.229Z</time></trkpt><trkpt lat="45.7679567" lon="9.7444083"><ele>695.0</ele><time>2026-04-25T08:16:12.23Z</time></trkpt><trkpt lat="45.768015" lon="9.7445317"><ele>693.0</ele><time>2026-04-25T08:16:13.228Z</time></trkpt><trkpt lat="45.768075" lon="9.7446417"><ele>691.0</ele><time>2026-04-25T08:16:14.231Z</time></trkpt><trkpt lat="45.768145" lon="9.7447483"><ele>689.0</ele><time>2026-04-25T08:16:15.227Z</time></trkpt><trkpt lat="45.7682083" lon="9.7448483"><ele>687.0</ele><time>2026-04-25T08:16:16.228Z</time></trkpt><trkpt lat="45.76826" lon="9.7449433"><ele>687.0</ele><time>2026-04-25T08:16:17.227Z</time></trkpt><trkpt lat="45.76829" lon="9.7450317"><ele>687.0</ele><time>2026-04-25T08:16:18.228Z</time></trkpt><trkpt lat="45.7682433" lon="9.74517"><ele>687.0</ele><time>2026-04-25T08:16:20.232Z</time></trkpt><trkpt lat="45.768135" lon="9.7452717"><ele>687.0</ele><time>2026-04-25T08:16:22.23Z</time></trkpt><trkpt lat="45.7680483" lon="9.74536"><ele>687.0</ele><time>2026-04-25T08:16:23.229Z</time></trkpt><trkpt lat="45.76796" lon="9.7454667"><ele>690.75</ele><time>2026-04-25T08:16:24.23Z</time></trkpt><trkpt lat="45.7678733" lon="9.7456217"><ele>694.5</ele><time>2026-04-25T08:16:25.274Z</time></trkpt><trkpt lat="45.767795" lon="9.7457733"><ele>698.25</ele><time>2026-04-25T08:16:26.229Z</time></trkpt><trkpt lat="45.7677167" lon="9.7459317"><ele>702.0</ele><time>2026-04-25T08:16:27.23Z</time></trkpt><trkpt lat="45.7676467" lon="9.7460933"><ele>694.25</ele><time>2026-04-25T08:16:28.23Z</time></trkpt><trkpt lat="45.76759" lon="9.7462633"><ele>686.5</ele><time>2026-04-25T08:16:29.23Z</time></trkpt><trkpt lat="45.7675483" lon="9.7464317"><ele>678.75</ele><time>2026-04-25T08:16:30.228Z</time></trkpt><trkpt lat="45.76752" lon="9.746595"><ele>671.0</ele><time>2026-04-25T08:16:31.23Z</time></trkpt><trkpt lat="45.7674967" lon="9.7467533"><ele>672.8</ele><time>2026-04-25T08:16:32.229Z</time></trkpt><trkpt lat="45.7674683" lon="9.7469"><ele>674.5999999999999</ele><time>2026-04-25T08:16:33.229Z</time></trkpt><trkpt lat="45.7674317" lon="9.7470417"><ele>676.4</ele><time>2026-04-25T08:16:34.228Z</time></trkpt><trkpt lat="45.7673783" lon="9.7471867"><ele>678.2</ele><time>2026-04-25T08:16:35.229Z</time></trkpt><trkpt lat="45.7673167" lon="9.747325"><ele>680.0</ele><time>2026-04-25T08:16:36.227Z</time></trkpt><trkpt lat="45.767255" lon="9.7474617"><ele>680.0</ele><time>2026-04-25T08:16:37.227Z</time></trkpt><trkpt lat="45.7671967" lon="9.7475983"><ele>680.0</ele><time>2026-04-25T08:16:38.227Z</time></trkpt><trkpt lat="45.76715" lon="9.7477383"><ele>680.0</ele><time>2026-04-25T08:16:39.227Z</time></trkpt><trkpt lat="45.76712" lon="9.74788"><ele>680.0</ele><time>2026-04-25T08:16:40.228Z</time></trkpt><trkpt lat="45.7671067" lon="9.74802"><ele>680.0</ele><time>2026-04-25T08:16:41.229Z</time></trkpt><trkpt lat="45.767105" lon="9.7481517"><ele>679.2</ele><time>2026-04-25T08:16:42.229Z</time></trkpt><trkpt lat="45.767115" lon="9.7482683"><ele>678.4</ele><time>2026-04-25T08:16:43.228Z</time></trkpt><trkpt lat="45.7671233" lon="9.7483667"><ele>677.5999999999999</ele><time>2026-04-25T08:16:44.23Z</time></trkpt><trkpt lat="45.76711" lon="9.7485383"><ele>676.8</ele><time>2026-04-25T08:16:46.228Z</time></trkpt><trkpt lat="45.767015" lon="9.7484733"><ele>676.0</ele><time>2026-04-25T08:16:48.228Z</time></trkpt><trkpt lat="45.76699" lon="9.7483283"><ele>676.0</ele><time>2026-04-25T08:16:50.232Z</time></trkpt><trkpt lat="45.7669917" lon="9.7482317"><ele>676.0</ele><time>2026-04-25T08:16:51.23Z</time></trkpt><trkpt lat="45.7669967" lon="9.7481133"><ele>676.0</ele><time>2026-04-25T08:16:52.23Z</time></trkpt><trkpt lat="45.7670117" lon="9.7479767"><ele>676.0</ele><time>2026-04-25T08:16:53.229Z</time></trkpt><trkpt lat="45.7670433" lon="9.7478133"><ele>676.0</ele><time>2026-04-25T08:16:54.231Z</time></trkpt><trkpt lat="45.7670767" lon="9.7476517"><ele>677.0</ele><time>2026-04-25T08:16:55.23Z</time></trkpt><trkpt lat="45.7671167" lon="9.7474917"><ele>678.0</ele><time>2026-04-25T08:16:56.231Z</time></trkpt><trkpt lat="45.767155" lon="9.747335"><ele>679.0</ele><time>2026-04-25T08:16:57.231Z</time></trkpt><trkpt lat="45.7671933" lon="9.7471717"><ele>680.0</ele><time>2026-04-25T08:16:58.231Z</time></trkpt><trkpt lat="45.7672283" lon="9.7470083"><ele>677.75</ele><time>2026-04-25T08:16:59.231Z</time></trkpt><trkpt lat="45.7672517" lon="9.7468367"><ele>675.5</ele><time>2026-04-25T08:17:00.23Z</time></trkpt><trkpt lat="45.76726" lon="9.7466533"><ele>673.25</ele><time>2026-04-25T08:17:01.231Z</time></trkpt><trkpt lat="45.767255" lon="9.74647"><ele>671.0</ele><time>2026-04-25T08:17:02.231Z</time></trkpt><trkpt lat="45.76724" lon="9.7462867"><ele>671.0</ele><time>2026-04-25T08:17:03.23Z</time></trkpt><trkpt lat="45.76722" lon="9.7461"><ele>671.0</ele><time>2026-04-25T08:17:04.229Z</time></trkpt><trkpt lat="45.7672017" lon="9.7459083"><ele>671.0</ele><time>2026-04-25T08:17:05.231Z</time></trkpt><trkpt lat="45.76719" lon="9.7457217"><ele>671.0</ele><time>2026-04-25T08:17:06.23Z</time></trkpt><trkpt lat="45.7671783" lon="9.7455433"><ele>669.5999999999999</ele><time>2026-04-25T08:17:07.231Z</time></trkpt><trkpt lat="45.7671633" lon="9.7453717"><ele>668.2</ele><time>2026-04-25T08:17:08.23Z</time></trkpt><trkpt lat="45.7671383" lon="9.7452167"><ele>666.8</ele><time>2026-04-25T08:17:09.229Z</time></trkpt><trkpt lat="45.7671017" lon="9.7450883"><ele>665.4000000000001</ele><time>2026-04-25T08:17:10.23Z</time></trkpt><trkpt lat="45.7670633" lon="9.7449617"><ele>664.0</ele><time>2026-04-25T08:17:11.23Z</time></trkpt><trkpt lat="45.7670317" lon="9.744845"><ele>663.6666666666667</ele><time>2026-04-25T08:17:12.231Z</time></trkpt><trkpt lat="45.767015" lon="9.7447233"><ele>663.3333333333334</ele><time>2026-04-25T08:17:13.23Z</time></trkpt><trkpt lat="45.7670133" lon="9.7446017"><ele>663.0</ele><time>2026-04-25T08:17:14.23Z</time></trkpt><trkpt lat="45.76702" lon="9.7444717"><ele>662.6666666666666</ele><time>2026-04-25T08:17:15.235Z</time></trkpt><trkpt lat="45.7670283" lon="9.744355"><ele>662.3333333333333</ele><time>2026-04-25T08:17:16.232Z</time></trkpt><trkpt lat="45.7670283" lon="9.7442533"><ele>662.0</ele><time>2026-04-25T08:17:17.227Z</time></trkpt><trkpt lat="45.7669817" lon="9.7441133"><ele>662.0</ele><time>2026-04-25T08:17:19.227Z</time></trkpt><trkpt lat="45.7669067" lon="9.7441683"><ele>662.0</ele><time>2026-04-25T08:17:21.231Z</time></trkpt><trkpt lat="45.7668867" lon="9.744255"><ele>662.0</ele><time>2026-04-25T08:17:22.227Z</time></trkpt><trkpt lat="45.7668833" lon="9.7443667"><ele>662.0</ele><time>2026-04-25T08:17:23.228Z</time></trkpt><trkpt lat="45.7668917" lon="9.7445133"><ele>662.0</ele><time>2026-04-25T08:17:24.227Z</time></trkpt><trkpt lat="45.7668967" lon="9.7446617"><ele>662.0</ele><time>2026-04-25T08:17:25.229Z</time></trkpt><trkpt lat="45.7669017" lon="9.7448067"><ele>662.3333333333333</ele><time>2026-04-25T08:17:26.229Z</time></trkpt><trkpt lat="45.7669133" lon="9.744945"><ele>662.6666666666666</ele><time>2026-04-25T08:17:27.229Z</time></trkpt><trkpt lat="45.7669317" lon="9.74507"><ele>663.0</ele><time>2026-04-25T08:17:28.229Z</time></trkpt><trkpt lat="45.766945" lon="9.7451817"><ele>663.3333333333334</ele><time>2026-04-25T08:17:29.23Z</time></trkpt><trkpt lat="45.7669417" lon="9.7452933"><ele>663.6666666666667</ele><time>2026-04-25T08:17:30.229Z</time></trkpt><trkpt lat="45.76692" lon="9.7454"><ele>664.0</ele><time>2026-04-25T08:17:31.229Z</time></trkpt><trkpt lat="45.7668783" lon="9.7455267"><ele>664.0</ele><time>2026-04-25T08:17:32.23Z</time></trkpt><trkpt lat="45.7668617" lon="9.745675"><ele>664.0</ele><time>2026-04-25T08:17:33.229Z</time></trkpt><trkpt lat="45.7668717" lon="9.7458383"><ele>664.0</ele><time>2026-04-25T08:17:34.228Z</time></trkpt><trkpt lat="45.7668817" lon="9.7460067"><ele>664.0</ele><time>2026-04-25T08:17:35.228Z</time></trkpt><trkpt lat="45.7668817" lon="9.7461733"><ele>665.75</ele><time>2026-04-25T08:17:36.227Z</time></trkpt><trkpt lat="45.766865" lon="9.7463433"><ele>667.5</ele><time>2026-04-25T08:17:37.227Z</time></trkpt><trkpt lat="45.7668417" lon="9.7465167"><ele>669.25</ele><time>2026-04-25T08:17:38.228Z</time></trkpt><trkpt lat="45.7668083" lon="9.7467033"><ele>671.0</ele><time>2026-04-25T08:17:39.229Z</time></trkpt><trkpt lat="45.76677" lon="9.746885"><ele>659.5</ele><time>2026-04-25T08:17:40.228Z</time></trkpt><trkpt lat="45.7667283" lon="9.7470667"><ele>648.0</ele><time>2026-04-25T08:17:41.228Z</time></trkpt><trkpt lat="45.7666833" lon="9.7472417"><ele>636.5</ele><time>2026-04-25T08:17:42.227Z</time></trkpt><trkpt lat="45.7666467" lon="9.747415"><ele>625.0</ele><time>2026-04-25T08:17:43.228Z</time></trkpt><trkpt lat="45.766615" lon="9.7475817"><ele>626.0</ele><time>2026-04-25T08:17:44.228Z</time></trkpt><trkpt lat="45.7665933" lon="9.7477483"><ele>627.0</ele><time>2026-04-25T08:17:45.228Z</time></trkpt><trkpt lat="45.7665883" lon="9.7479067"><ele>628.0</ele><time>2026-04-25T08:17:46.227Z</time></trkpt><trkpt lat="45.7665833" lon="9.74806"><ele>629.0</ele><time>2026-04-25T08:17:47.228Z</time></trkpt><trkpt lat="45.7665683" lon="9.7482083"><ele>630.0</ele><time>2026-04-25T08:17:48.227Z</time></trkpt><trkpt lat="45.7665467" lon="9.7483467"><ele>630.0</ele><time>2026-04-25T08:17:49.23Z</time></trkpt><trkpt lat="45.7665333" lon="9.7484833"><ele>630.0</ele><time>2026-04-25T08:17:50.228Z</time></trkpt><trkpt lat="45.7665217" lon="9.74861"><ele>630.0</ele><time>2026-04-25T08:17:51.229Z</time></trkpt><trkpt lat="45.7665267" lon="9.74871"><ele>630.0</ele><time>2026-04-25T08:17:52.229Z</time></trkpt><trkpt lat="45.76653" lon="9.748805"><ele>630.0</ele><time>2026-04-25T08:17:53.227Z</time></trkpt><trkpt lat="45.7664733" lon="9.74886"><ele>630.0</ele><time>2026-04-25T08:17:55.233Z</time></trkpt><trkpt lat="45.7664167" lon="9.7487917"><ele>630.0</ele><time>2026-04-25T08:17:57.229Z</time></trkpt><trkpt lat="45.7664167" lon="9.748605"><ele>630.0</ele><time>2026-04-25T08:17:59.227Z</time></trkpt><trkpt lat="45.7664517" lon="9.748445"><ele>630.0</ele><time>2026-04-25T08:18:00.227Z</time></trkpt><trkpt lat="45.7664833" lon="9.7482717"><ele>630.0</ele><time>2026-04-25T08:18:01.228Z</time></trkpt><trkpt lat="45.7665017" lon="9.7481017"><ele>630.0</ele><time>2026-04-25T08:18:02.229Z</time></trkpt><trkpt lat="45.7665033" lon="9.7479333"><ele>630.0</ele><time>2026-04-25T08:18:03.228Z</time></trkpt><trkpt lat="45.7664917" lon="9.74777"><ele>630.0</ele><time>2026-04-25T08:18:04.229Z</time></trkpt><trkpt lat="45.766475" lon="9.7476133"><ele>630.0</ele><time>2026-04-25T08:18:05.23Z</time></trkpt><trkpt lat="45.7664667" lon="9.7474567"><ele>629.0</ele><time>2026-04-25T08:18:06.228Z</time></trkpt><trkpt lat="45.7664683" lon="9.7473033"><ele>628.0</ele><time>2026-04-25T08:18:07.227Z</time></trkpt><trkpt lat="45.7664817" lon="9.7471583"><ele>627.0</ele><time>2026-04-25T08:18:08.23Z</time></trkpt><trkpt lat="45.7664933" lon="9.7470117"><ele>626.0</ele><time>2026-04-25T08:18:09.231Z</time></trkpt><trkpt lat="45.7665183" lon="9.7468633"><ele>625.0</ele><time>2026-04-25T08:18:10.23Z</time></trkpt><trkpt lat="45.76656" lon="9.7467483"><ele>624.2</ele><time>2026-04-25T08:18:11.23Z</time></trkpt><trkpt lat="45.7665917" lon="9.7466133"><ele>623.4</ele><time>2026-04-25T08:18:12.228Z</time></trkpt><trkpt lat="45.7665817" lon="9.7465033"><ele>622.6</ele><time>2026-04-25T08:18:13.227Z</time></trkpt><trkpt lat="45.7665633" lon="9.74637"><ele>621.8</ele><time>2026-04-25T08:18:14.228Z</time></trkpt><trkpt lat="45.7665333" lon="9.7462183"><ele>621.0</ele><time>2026-04-25T08:18:15.229Z</time></trkpt><trkpt lat="45.7665067" lon="9.7460717"><ele>620.6</ele><time>2026-04-25T08:18:16.229Z</time></trkpt><trkpt lat="45.7664783" lon="9.74593"><ele>620.2</ele><time>2026-04-25T08:18:17.229Z</time></trkpt><trkpt lat="45.7664533" lon="9.7457967"><ele>619.8</ele><time>2026-04-25T08:18:18.23Z</time></trkpt><trkpt lat="45.7664383" lon="9.7456733"><ele>619.4</ele><time>2026-04-25T08:18:19.228Z</time></trkpt><trkpt lat="45.766445" lon="9.7455483"><ele>619.0</ele><time>2026-04-25T08:18:20.228Z</time></trkpt><trkpt lat="45.766455" lon="9.7454333"><ele>619.0</ele><time>2026-04-25T08:18:21.229Z</time></trkpt><trkpt lat="45.7664317" lon="9.7453417"><ele>619.0</ele><time>2026-04-25T08:18:22.23Z</time></trkpt><trkpt lat="45.76642" lon="9.7452183"><ele>619.0</ele><time>2026-04-25T08:18:23.228Z</time></trkpt><trkpt lat="45.7664017" lon="9.7450833"><ele>619.0</ele><time>2026-04-25T08:18:24.227Z</time></trkpt><trkpt lat="45.7663767" lon="9.7449483"><ele>619.0</ele><time>2026-04-25T08:18:25.228Z</time></trkpt><trkpt lat="45.7663567" lon="9.7448217"><ele>619.0</ele><time>2026-04-25T08:18:26.228Z</time></trkpt><trkpt lat="45.7663533" lon="9.7447017"><ele>618.8333333333334</ele><time>2026-04-25T08:18:27.229Z</time></trkpt><trkpt lat="45.76636" lon="9.744595"><ele>618.6666666666667</ele><time>2026-04-25T08:18:28.229Z</time></trkpt><trkpt lat="45.7663533" lon="9.7444917"><ele>618.5</ele><time>2026-04-25T08:18:29.229Z</time></trkpt><trkpt lat="45.7662817" lon="9.744425"><ele>618.3333333333334</ele><time>2026-04-25T08:18:31.227Z</time></trkpt><trkpt lat="45.7662183" lon="9.7445317"><ele>618.1666666666666</ele><time>2026-04-25T08:18:33.228Z</time></trkpt><trkpt lat="45.76622" lon="9.7446617"><ele>618.0</ele><time>2026-04-25T08:18:34.228Z</time></trkpt><trkpt lat="45.7662433" lon="9.7447917"><ele>618.0</ele><time>2026-04-25T08:18:35.227Z</time></trkpt><trkpt lat="45.766285" lon="9.7449167"><ele>618.0</ele><time>2026-04-25T08:18:36.228Z</time></trkpt><trkpt lat="45.7663233" lon="9.745045"><ele>618.0</ele><time>2026-04-25T08:18:37.23Z</time></trkpt><trkpt lat="45.766335" lon="9.7451733"><ele>618.0</ele><time>2026-04-25T08:18:38.229Z</time></trkpt><trkpt lat="45.7663233" lon="9.745305"><ele>618.0</ele><time>2026-04-25T08:18:39.228Z</time></trkpt><trkpt lat="45.766295" lon="9.74545"><ele>618.25</ele><time>2026-04-25T08:18:40.229Z</time></trkpt><trkpt lat="45.766275" lon="9.7456117"><ele>618.5</ele><time>2026-04-25T08:18:41.231Z</time></trkpt><trkpt lat="45.766265" lon="9.7457867"><ele>618.75</ele><time>2026-04-25T08:18:42.231Z</time></trkpt><trkpt lat="45.7662583" lon="9.7459583"><ele>619.0</ele><time>2026-04-25T08:18:43.227Z</time></trkpt><trkpt lat="45.7662533" lon="9.74612"><ele>619.5</ele><time>2026-04-25T08:18:44.229Z</time></trkpt><trkpt lat="45.7662483" lon="9.7462817"><ele>620.0</ele><time>2026-04-25T08:18:45.229Z</time></trkpt><trkpt lat="45.766235" lon="9.7464317"><ele>620.5</ele><time>2026-04-25T08:18:46.228Z</time></trkpt><trkpt lat="45.7661983" lon="9.7465733"><ele>621.0</ele><time>2026-04-25T08:18:47.228Z</time></trkpt><trkpt lat="45.766145" lon="9.7467367"><ele>622.0</ele><time>2026-04-25T08:18:48.227Z</time></trkpt><trkpt lat="45.766095" lon="9.7469167"><ele>623.0</ele><time>2026-04-25T08:18:49.228Z</time></trkpt><trkpt lat="45.766055" lon="9.747095"><ele>624.0</ele><time>2026-04-25T08:18:50.227Z</time></trkpt><trkpt lat="45.7660283" lon="9.747265"><ele>625.0</ele><time>2026-04-25T08:18:51.229Z</time></trkpt><trkpt lat="45.76601" lon="9.7474333"><ele>626.0</ele><time>2026-04-25T08:18:52.227Z</time></trkpt><trkpt lat="45.7660083" lon="9.7475917"><ele>627.0</ele><time>2026-04-25T08:18:53.227Z</time></trkpt><trkpt lat="45.7660233" lon="9.7477483"><ele>628.0</ele><time>2026-04-25T08:18:54.229Z</time></trkpt><trkpt lat="45.766035" lon="9.7478967"><ele>629.0</ele><time>2026-04-25T08:18:55.229Z</time></trkpt><trkpt lat="45.7660233" lon="9.7480483"><ele>630.0</ele><time>2026-04-25T08:18:56.227Z</time></trkpt><trkpt lat="45.766" lon="9.7482183"><ele>615.75</ele><time>2026-04-25T08:18:57.228Z</time></trkpt><trkpt lat="45.7659733" lon="9.748405"><ele>601.5</ele><time>2026-04-25T08:18:58.227Z</time></trkpt><trkpt lat="45.7659583" lon="9.748585"><ele>587.25</ele><time>2026-04-25T08:18:59.227Z</time></trkpt><trkpt lat="45.7659533" lon="9.748765"><ele>573.0</ele><time>2026-04-25T08:19:00.227Z</time></trkpt><trkpt lat="45.7659617" lon="9.74893"><ele>573.0</ele><time>2026-04-25T08:19:01.228Z</time></trkpt><trkpt lat="45.7659767" lon="9.749065"><ele>573.0</ele><time>2026-04-25T08:19:02.229Z</time></trkpt><trkpt lat="45.7660083" lon="9.7491817"><ele>573.0</ele><time>2026-04-25T08:19:03.229Z</time></trkpt><trkpt lat="45.7660467" lon="9.749275"><ele>573.0</ele><time>2026-04-25T08:19:04.229Z</time></trkpt><trkpt lat="45.76608" lon="9.7493883"><ele>573.0</ele><time>2026-04-25T08:19:06.228Z</time></trkpt><trkpt lat="45.7660133" lon="9.7494"><ele>573.0</ele><time>2026-04-25T08:19:08.23Z</time></trkpt><trkpt lat="45.7659467" lon="9.7493133"><ele>571.8</ele><time>2026-04-25T08:19:10.228Z</time></trkpt><trkpt lat="45.765915" lon="9.749225"><ele>570.5999999999999</ele><time>2026-04-25T08:19:11.228Z</time></trkpt><trkpt lat="45.7658967" lon="9.7491067"><ele>569.4000000000001</ele><time>2026-04-25T08:19:12.228Z</time></trkpt><trkpt lat="45.76587" lon="9.7489983"><ele>568.2</ele><time>2026-04-25T08:19:13.23Z</time></trkpt><trkpt lat="45.7658633" lon="9.74885"><ele>567.0</ele><time>2026-04-25T08:19:14.23Z</time></trkpt><trkpt lat="45.765855" lon="9.74868"><ele>568.2</ele><time>2026-04-25T08:19:15.229Z</time></trkpt><trkpt lat="45.7658467" lon="9.7485217"><ele>569.4000000000001</ele><time>2026-04-25T08:19:16.229Z</time></trkpt><trkpt lat="45.7658467" lon="9.7483783"><ele>570.5999999999999</ele><time>2026-04-25T08:19:17.229Z</time></trkpt><trkpt lat="45.7658567" lon="9.748235"><ele>571.8</ele><time>2026-04-25T08:19:18.231Z</time></trkpt><trkpt lat="45.7658617" lon="9.748085"><ele>573.0</ele><time>2026-04-25T08:19:19.228Z</time></trkpt><trkpt lat="45.7658467" lon="9.747925"><ele>573.0</ele><time>2026-04-25T08:19:20.23Z</time></trkpt><trkpt lat="45.765815" lon="9.7477617"><ele>573.0</ele><time>2026-04-25T08:19:21.228Z</time></trkpt><trkpt lat="45.7657867" lon="9.7475983"><ele>573.0</ele><time>2026-04-25T08:19:22.229Z</time></trkpt><trkpt lat="45.7657667" lon="9.74744"><ele>573.0</ele><time>2026-04-25T08:19:23.229Z</time></trkpt><trkpt lat="45.7657517" lon="9.74728"><ele>572.5</ele><time>2026-04-25T08:19:24.23Z</time></trkpt><trkpt lat="45.7657483" lon="9.7471233"><ele>572.0</ele><time>2026-04-25T08:19:25.231Z</time></trkpt><trkpt lat="45.7754" lon="9.7404383"><ele>647.0</ele><time>2026-04-25T08:10:59.232Z</time></trkpt><trkpt lat="45.7753183" lon="9.740585"><ele>722.0</ele><time>2026-04-25T08:11:00.228Z</time></trkpt><trkpt lat="45.7752467" lon="9.7407333"><ele>797.0</ele><time>2026-04-25T08:11:01.23Z</time></trkpt><trkpt lat="45.7751783" lon="9.7408767"><ele>872.0</ele><time>2026-04-25T08:11:02.229Z</time></trkpt><trkpt lat="45.7751067" lon="9.7410167"><ele>870.6</ele><time>2026-04-25T08:11:03.23Z</time></trkpt><trkpt lat="45.77503" lon="9.74114"><ele>869.2</ele><time>2026-04-25T08:11:04.228Z</time></trkpt><trkpt lat="45.7749467" lon="9.74124"><ele>867.8</ele><time>2026-04-25T08:11:05.231Z</time></trkpt><trkpt lat="45.774855" lon="9.7413017"><ele>866.4</ele><time>2026-04-25T08:11:06.228Z</time></trkpt><trkpt lat="45.7747417" lon="9.7413233"><ele>865.0</ele><time>2026-04-25T08:11:07.229Z</time></trkpt><trkpt lat="45.7746283" lon="9.7413117"><ele>865.0</ele><time>2026-04-25T08:11:08.23Z</time></trkpt><trkpt lat="45.77452" lon="9.74131"><ele>865.0</ele><time>2026-04-25T08:11:09.229Z</time></trkpt><trkpt lat="45.77442" lon="9.7413583"><ele>865.0</ele><time>2026-04-25T08:11:10.228Z</time></trkpt><trkpt lat="45.77434" lon="9.741455"><ele>865.0</ele><time>2026-04-25T08:11:11.228Z</time></trkpt><trkpt lat="45.77426" lon="9.7415733"><ele>865.0</ele><time>2026-04-25T08:11:12.229Z</time></trkpt><trkpt lat="45.77417" lon="9.7417033"><ele>868.0</ele><time>2026-04-25T08:11:13.228Z</time></trkpt><trkpt lat="45.7740733" lon="9.7418317"><ele>871.0</ele><time>2026-04-25T08:11:14.228Z</time></trkpt><trkpt lat="45.77397" lon="9.7419383"><ele>874.0</ele><time>2026-04-25T08:11:15.231Z</time></trkpt><trkpt lat="45.773865" lon="9.7420017"><ele>877.0</ele><time>2026-04-25T08:11:16.229Z</time></trkpt><trkpt lat="45.77375" lon="9.7420217"><ele>871.25</ele><time>2026-04-25T08:11:17.228Z</time></trkpt><trkpt lat="45.77364" lon="9.7420067"><ele>865.5</ele><time>2026-04-25T08:11:18.228Z</time></trkpt><trkpt lat="45.773525" lon="9.7419883"><ele>859.75</ele><time>2026-04-25T08:11:19.23Z</time></trkpt><trkpt lat="45.7733983" lon="9.7419933"><ele>854.0</ele><time>2026-04-25T08:11:20.23Z</time></trkpt><trkpt lat="45.7732667" lon="9.742025"><ele>854.0</ele><time>2026-04-25T08:11:21.228Z</time></trkpt><trkpt lat="45.7731317" lon="9.7420667"><ele>854.0</ele><time>2026-04-25T08:11:22.229Z</time></trkpt><trkpt lat="45.7729967" lon="9.7421017"><ele>854.0</ele><time>2026-04-25T08:11:23.229Z</time></trkpt><trkpt lat="45.7728633" lon="9.74212"><ele>854.0</ele><time>2026-04-25T08:11:24.229Z</time></trkpt><trkpt lat="45.7727333" lon="9.7421167"><ele>852.5</ele><time>2026-04-25T08:11:25.228Z</time></trkpt><trkpt lat="45.7726083" lon="9.7421033"><ele>851.0</ele><time>2026-04-25T08:11:26.229Z</time></trkpt><trkpt lat="45.7724833" lon="9.7421"><ele>849.5</ele><time>2026-04-25T08:11:27.229Z</time></trkpt><trkpt lat="45.7723517" lon="9.7421217"><ele>848.0</ele><time>2026-04-25T08:11:28.227Z</time></trkpt><trkpt lat="45.772215" lon="9.7421567"><ele>848.0</ele><time>2026-04-25T08:11:29.229Z</time></trkpt><trkpt lat="45.7720717" lon="9.7422117"><ele>848.0</ele><time>2026-04-25T08:11:30.228Z</time></trkpt><trkpt lat="45.7719283" lon="9.7422817"><ele>848.0</ele><time>2026-04-25T08:11:31.228Z</time></trkpt><trkpt lat="45.7717883" lon="9.7423533"><ele>848.0</ele><time>2026-04-25T08:11:32.229Z</time></trkpt><trkpt lat="45.7716483" lon="9.7424267"><ele>847.5999999999999</ele><time>2026-04-25T08:11:33.229Z</time></trkpt><trkpt lat="45.7715183" lon="9.7424867"><ele>847.1999999999999</ele><time>2026-04-25T08:11:34.227Z</time></trkpt><trkpt lat="45.7714067" lon="9.7425283"><ele>846.8</ele><time>2026-04-25T08:11:35.229Z</time></trkpt><trkpt lat="45.7713067" lon="9.742555"><ele>846.4</ele><time>2026-04-25T08:11:36.228Z</time></trkpt><trkpt lat="45.77122" lon="9.742555"><ele>846.0</ele><time>2026-04-25T08:11:37.228Z</time></trkpt><trkpt lat="45.7711433" lon="9.7425217"><ele>846.0</ele><time>2026-04-25T08:11:38.23Z</time></trkpt><trkpt lat="45.7710783" lon="9.7424583"><ele>846.0</ele><time>2026-04-25T08:11:39.229Z</time></trkpt><trkpt lat="45.7710417" lon="9.7423467"><ele>846.0</ele><time>2026-04-25T08:11:40.23Z</time></trkpt><trkpt lat="45.77103" lon="9.7421983"><ele>846.0</ele><time>2026-04-25T08:11:41.229Z</time></trkpt><trkpt lat="45.77102" lon="9.74203"><ele>846.0</ele><time>2026-04-25T08:11:42.227Z</time></trkpt><trkpt lat="45.7710117" lon="9.741865"><ele>843.0</ele><time>2026-04-25T08:11:43.231Z</time></trkpt><trkpt lat="45.7710117" lon="9.7417083"><ele>840.0</ele><time>2026-04-25T08:11:44.229Z</time></trkpt><trkpt lat="45.7710283" lon="9.7415617"><ele>837.0</ele><time>2026-04-25T08:11:45.23Z</time></trkpt><trkpt lat="45.7710617" lon="9.7414267"><ele>834.0</ele><time>2026-04-25T08:11:46.229Z</time></trkpt><trkpt lat="45.7711083" lon="9.741295"><ele>831.0</ele><time>2026-04-25T08:11:47.229Z</time></trkpt><trkpt lat="45.771165" lon="9.7411667"><ele>835.5999999999999</ele><time>2026-04-25T08:11:48.23Z</time></trkpt><trkpt lat="45.7712283" lon="9.7410367"><ele>840.2</ele><time>2026-04-25T08:11:49.23Z</time></trkpt><trkpt lat="45.77129" lon="9.7409167"><ele>844.8000000000001</ele><time>2026-04-25T08:11:50.23Z</time></trkpt><trkpt lat="45.7713517" lon="9.7408233"><ele>849.4000000000001</ele><time>2026-04-25T08:11:51.231Z</time></trkpt><trkpt lat="45.7714167" lon="9.7407483"><ele>854.0</ele><time>2026-04-25T08:11:52.228Z</time></trkpt><trkpt lat="45.7714667" lon="9.7406867"><ele>854.0</ele><time>2026-04-25T08:11:53.229Z</time></trkpt><trkpt lat="45.7714967" lon="9.7405417"><ele>854.0000000000001</ele><time>2026-04-25T08:11:55.231Z</time></trkpt><trkpt lat="45.77142" lon="9.740525"><ele>854.0000000000001</ele><time>2026-04-25T08:11:57.229Z</time></trkpt><trkpt lat="45.7713067" lon="9.740635"><ele>854.0</ele><time>2026-04-25T08:11:59.231Z</time></trkpt><trkpt lat="45.77124" lon="9.7407317"><ele>854.0</ele><time>2026-04-25T08:12:00.228Z</time></trkpt><trkpt lat="45.7711833" lon="9.740845"><ele>854.0</ele><time>2026-04-25T08:12:01.228Z</time></trkpt><trkpt lat="45.7711183" lon="9.7409667"><ele>854.0</ele><time>2026-04-25T08:12:02.228Z</time></trkpt><trkpt lat="45.7710383" lon="9.7411017"><ele>854.0</ele><time>2026-04-25T08:12:03.228Z</time></trkpt><trkpt lat="45.7709583" lon="9.7412417"><ele>854.0</ele><time>2026-04-25T08:12:04.229Z</time></trkpt><trkpt lat="45.7708967" lon="9.74139"><ele>850.0</ele><time>2026-04-25T08:12:05.229Z</time></trkpt><trkpt lat="45.7708483" lon="9.7415483"><ele>846.0</ele><time>2026-04-25T08:12:06.229Z</time></trkpt><trkpt lat="45.7708267" lon="9.7417083"><ele>842.0</ele><time>2026-04-25T08:12:07.228Z</time></trkpt><trkpt lat="45.7708133" lon="9.741865"><ele>838.0</ele><time>2026-04-25T08:12:08.229Z</time></trkpt><trkpt lat="45.7707933" lon="9.7420133"><ele>838.0</ele><time>2026-04-25T08:12:09.23Z</time></trkpt><trkpt lat="45.7707667" lon="9.7421517"><ele>838.0</ele><time>2026-04-25T08:12:10.23Z</time></trkpt><trkpt lat="45.7707133" lon="9.74228"><ele>838.0</ele><time>2026-04-25T08:12:11.228Z</time></trkpt><trkpt lat="45.7706283" lon="9.7423867"><ele>838.0</ele><time>2026-04-25T08:12:12.227Z</time></trkpt><trkpt lat="45.77053" lon="9.7424667"><ele>838.0</ele><time>2026-04-25T08:12:13.229Z</time></trkpt><trkpt lat="45.770425" lon="9.742525"><ele>837.9999999999999</ele><time>2026-04-25T08:12:14.228Z</time></trkpt><trkpt lat="45.7703383" lon="9.7425733"><ele>838.0</ele><time>2026-04-25T08:12:15.229Z</time></trkpt><trkpt lat="45.7702683" lon="9.7426367"><ele>838.0</ele><time>2026-04-25T08:12:16.229Z</time></trkpt><trkpt lat="45.7702517" lon="9.7427333"><ele>838.0</ele><time>2026-04-25T08:12:17.232Z</time></trkpt><trkpt lat="45.770265" lon="9.74283"><ele>837.9999999999999</ele><time>2026-04-25T08:12:18.229Z</time></trkpt><trkpt lat="45.7702967" lon="9.742925"><ele>838.0</ele><time>2026-04-25T08:12:19.228Z</time></trkpt><trkpt lat="45.770345" lon="9.7430217"><ele>835.3333333333333</ele><time>2026-04-25T08:12:20.229Z</time></trkpt><trkpt lat="45.770395" lon="9.7431183"><ele>832.6666666666666</ele><time>2026-04-25T08:12:21.229Z</time></trkpt><trkpt lat="45.7704467" lon="9.7432117"><ele>830.0</ele><time>2026-04-25T08:12:22.228Z</time></trkpt><trkpt lat="45.7704933" lon="9.7432917"><ele>827.3333333333333</ele><time>2026-04-25T08:12:23.229Z</time></trkpt><trkpt lat="45.77054" lon="9.7433633"><ele>824.6666666666666</ele><time>2026-04-25T08:12:24.228Z</time></trkpt><trkpt lat="45.7706233" lon="9.743475"><ele>822.0</ele><time>2026-04-25T08:12:26.228Z</time></trkpt><trkpt lat="45.7706183" lon="9.743575"><ele>822.0</ele><time>2026-04-25T08:12:29.23Z</time></trkpt><trkpt lat="45.7705567" lon="9.7434967"><ele>822.0</ele><time>2026-04-25T08:12:31.229Z</time></trkpt><trkpt lat="45.77051" lon="9.74341"><ele>822.0</ele><time>2026-04-25T08:12:32.228Z</time></trkpt><trkpt lat="45.7704517" lon="9.7433117"><ele>822.0</ele><time>2026-04-25T08:12:33.229Z</time></trkpt><trkpt lat="45.7703883" lon="9.743215"><ele>822.0</ele><time>2026-04-25T08:12:34.228Z</time></trkpt><trkpt lat="45.77032" lon="9.7431233"><ele>822.0</ele><time>2026-04-25T08:12:35.23Z</time></trkpt><trkpt lat="45.770245" lon="9.7430317"><ele>818.1666666666666</ele><time>2026-04-25T08:12:36.228Z</time></trkpt><trkpt lat="45.7701733" lon="9.7429433"><ele>814.3333333333333</ele><time>2026-04-25T08:12:37.228Z</time></trkpt><trkpt lat="45.7701083" lon="9.7428633"><ele>810.5</ele><time>2026-04-25T08:12:38.228Z</time></trkpt><trkpt lat="45.7700533" lon="9.7427867"><ele>806.6666666666666</ele><time>2026-04-25T08:12:39.228Z</time></trkpt><trkpt lat="45.7700167" lon="9.7427"><ele>802.8333333333333</ele><time>2026-04-25T08:12:40.229Z</time></trkpt><trkpt lat="45.7699983" lon="9.7426117"><ele>799.0</ele><time>2026-04-25T08:12:41.228Z</time></trkpt><trkpt lat="45.77" lon="9.74252"><ele>798.9999999999999</ele><time>2026-04-25T08:12:42.229Z</time></trkpt><trkpt lat="45.77002" lon="9.742425"><ele>799.0</ele><time>2026-04-25T08:12:43.228Z</time></trkpt><trkpt lat="45.7700517" lon="9.7423333"><ele>799.0</ele><time>2026-04-25T08:12:44.23Z</time></trkpt><trkpt lat="45.7701017" lon="9.74225"><ele>799.0</ele><time>2026-04-25T08:12:45.229Z</time></trkpt><trkpt lat="45.77017" lon="9.7421817"><ele>798.9999999999999</ele><time>2026-04-25T08:12:46.229Z</time></trkpt><trkpt lat="45.7702583" lon="9.7421333"><ele>799.0</ele><time>2026-04-25T08:12:47.231Z</time></trkpt><trkpt lat="45.7703333" lon="9.74207"><ele>804.3333333333333</ele><time>2026-04-25T08:12:48.23Z</time></trkpt><trkpt lat="45.7704033" lon="9.742"><ele>809.6666666666666</ele><time>2026-04-25T08:12:49.23Z</time></trkpt><trkpt lat="45.7704583" lon="9.7419167"><ele>815.0</ele><time>2026-04-25T08:12:50.229Z</time></trkpt><trkpt lat="45.77049" lon="9.741825"><ele>820.3333333333333</ele><time>2026-04-25T08:12:51.229Z</time></trkpt><trkpt lat="45.7705117" lon="9.7417067"><ele>825.6666666666666</ele><time>2026-04-25T08:12:52.229Z</time></trkpt><trkpt lat="45.770535" lon="9.7415967"><ele>831.0</ele><time>2026-04-25T08:12:53.229Z</time></trkpt><trkpt lat="45.7705633" lon="9.741485"><ele>831.0</ele><time>2026-04-25T08:12:54.234Z</time></trkpt><trkpt lat="45.7706017" lon="9.7413717"><ele>831.0</ele><time>2026-04-25T08:12:55.23Z</time></trkpt><trkpt lat="45.770645" lon="9.7412533"><ele>831.0</ele><time>2026-04-25T08:12:56.229Z</time></trkpt><trkpt lat="45.7706833" lon="9.74112"><ele>831.0</ele><time>2026-04-25T08:12:57.227Z</time></trkpt><trkpt lat="45.77072" lon="9.7409867"><ele>831.0</ele><time>2026-04-25T08:12:58.227Z</time></trkpt><trkpt lat="45.7707533" lon="9.740865"><ele>827.6666666666666</ele><time>2026-04-25T08:12:59.227Z</time></trkpt><trkpt lat="45.7707867" lon="9.7407367"><ele>824.3333333333333</ele><time>2026-04-25T08:13:00.228Z</time></trkpt><trkpt lat="45.7708233" lon="9.7406167"><ele>821.0</ele><time>2026-04-25T08:13:01.227Z</time></trkpt><trkpt lat="45.7708617" lon="9.7405083"><ele>817.6666666666666</ele><time>2026-04-25T08:13:02.229Z</time></trkpt><trkpt lat="45.7708983" lon="9.740425"><ele>814.3333333333333</ele><time>2026-04-25T08:13:03.229Z</time></trkpt><trkpt lat="45.7709533" lon="9.740295"><ele>811.0</ele><time>2026-04-25T08:13:05.228Z</time></trkpt><trkpt lat="45.7709117" lon="9.7402017"><ele>811.0</ele><time>2026-04-25T08:13:08.227Z</time></trkpt><trkpt lat="45.7708383" lon="9.7402833"><ele>811.0</ele><time>2026-04-25T08:13:10.232Z</time></trkpt><trkpt lat="45.7708017" lon="9.7403833"><ele>811.0</ele><time>2026-04-25T08:13:11.228Z</time></trkpt><trkpt lat="45.7707467" lon="9.740525"><ele>811.0</ele><time>2026-04-25T08:13:12.232Z</time></trkpt><trkpt lat="45.77068" lon="9.7406967"><ele>811.0</ele><time>2026-04-25T08:13:13.227Z</time></trkpt><trkpt lat="45.770615" lon="9.74087"><ele>811.0</ele><time>2026-04-25T08:13:14.227Z</time></trkpt><trkpt lat="45.7705467" lon="9.7410217"><ele>811.0</ele><time>2026-04-25T08:13:15.228Z</time></trkpt><trkpt lat="45.77047" lon="9.741145"><ele>811.0</ele><time>2026-04-25T08:13:16.228Z</time></trkpt><trkpt lat="45.7703867" lon="9.7412533"><ele>811.0</ele><time>2026-04-25T08:13:17.227Z</time></trkpt><trkpt lat="45.7703183" lon="9.7413717"><ele>808.5999999999999</ele><time>2026-04-25T08:13:18.229Z</time></trkpt><trkpt lat="45.77028" lon="9.7415"><ele>806.2</ele><time>2026-04-25T08:13:19.229Z</time></trkpt><trkpt lat="45.7702533" lon="9.7416267"><ele>803.8</ele><time>2026-04-25T08:13:20.229Z</time></trkpt><trkpt lat="45.7702217" lon="9.7417367"><ele>801.4000000000001</ele><time>2026-04-25T08:13:21.229Z</time></trkpt><trkpt lat="45.77017" lon="9.741835"><ele>799.0</ele><time>2026-04-25T08:13:22.229Z</time></trkpt><trkpt lat="45.77006" lon="9.741885"><ele>799.0</ele><time>2026-04-25T08:13:23.229Z</time></trkpt><trkpt lat="45.76994" lon="9.74195"><ele>799.0</ele><time>2026-04-25T08:13:24.229Z</time></trkpt><trkpt lat="45.7698283" lon="9.7420467"><ele>799.0</ele><time>2026-04-25T08:13:25.23Z</time></trkpt><trkpt lat="45.769725" lon="9.742165"><ele>799.0</ele><time>2026-04-25T08:13:26.227Z</time></trkpt><trkpt lat="45.76964" lon="9.7422867"><ele>799.0</ele><time>2026-04-25T08:13:27.228Z</time></trkpt><trkpt lat="45.7695533" lon="9.7424167"><ele>799.0</ele><time>2026-04-25T08:13:28.229Z</time></trkpt><trkpt lat="45.7694917" lon="9.7425633"><ele>799.0</ele><time>2026-04-25T08:13:29.23Z</time></trkpt><trkpt lat="45.769455" lon="9.74272"><ele>799.0</ele><time>2026-04-25T08:13:30.23Z</time></trkpt><trkpt lat="45.7694467" lon="9.7428767"><ele>797.75</ele><time>2026-04-25T08:13:31.229Z</time></trkpt><trkpt lat="45.7694567" lon="9.7430233"><ele>796.5</ele><time>2026-04-25T08:13:32.227Z</time></trkpt><trkpt lat="45.7694933" lon="9.7431633"><ele>795.25</ele><time>2026-04-25T08:13:33.228Z</time></trkpt><trkpt lat="45.76956" lon="9.7433033"><ele>794.0</ele><time>2026-04-25T08:13:34.228Z</time></trkpt><trkpt lat="45.7696517" lon="9.743435"><ele>788.75</ele><time>2026-04-25T08:13:35.228Z</time></trkpt><trkpt lat="45.7697467" lon="9.743565"><ele>783.5</ele><time>2026-04-25T08:13:36.227Z</time></trkpt><trkpt lat="45.76984" lon="9.7436783"><ele>778.25</ele><time>2026-04-25T08:13:37.227Z</time></trkpt><trkpt lat="45.7699233" lon="9.74378"><ele>773.0</ele><time>2026-04-25T08:13:38.227Z</time></trkpt><trkpt lat="45.76999" lon="9.7438817"><ele>773.0</ele><time>2026-04-25T08:13:39.232Z</time></trkpt><trkpt lat="45.770035" lon="9.7439933"><ele>773.0</ele><time>2026-04-25T08:13:40.227Z</time></trkpt><trkpt lat="45.7700517" lon="9.7441233"><ele>773.0</ele><time>2026-04-25T08:13:41.228Z</time></trkpt><trkpt lat="45.7700533" lon="9.7442733"><ele>773.0</ele><time>2026-04-25T08:13:42.228Z</time></trkpt><trkpt lat="45.7700733" lon="9.7444283"><ele>773.0</ele><time>2026-04-25T08:13:43.227Z</time></trkpt><trkpt lat="45.7701217" lon="9.744575"><ele>773.5999999999999</ele><time>2026-04-25T08:13:44.227Z</time></trkpt><trkpt lat="45.770185" lon="9.7447067"><ele>774.1999999999999</ele><time>2026-04-25T08:13:45.23Z</time></trkpt><trkpt lat="45.7702417" lon="9.7448317"><ele>774.8</ele><time>2026-04-25T08:13:46.228Z</time></trkpt><trkpt lat="45.7702783" lon="9.74497"><ele>775.4</ele><time>2026-04-25T08:13:47.229Z</time></trkpt><trkpt lat="45.77028" lon="9.7451233"><ele>776.0</ele><time>2026-04-25T08:13:48.229Z</time></trkpt><trkpt lat="45.7702533" lon="9.74529"><ele>770.25</ele><time>2026-04-25T08:13:49.227Z</time></trkpt><trkpt lat="45.770205" lon="9.7454717"><ele>764.5</ele><time>2026-04-25T08:13:50.229Z</time></trkpt><trkpt lat="45.7701417" lon="9.7456617"><ele>758.75</ele><time>2026-04-25T08:13:51.228Z</time></trkpt><trkpt lat="45.770065" lon="9.7458417"><ele>753.0</ele><time>2026-04-25T08:13:52.227Z</time></trkpt><trkpt lat="45.7699767" lon="9.7459883"><ele>749.5</ele><time>2026-04-25T08:13:53.228Z</time></trkpt><trkpt lat="45.7698767" lon="9.74611"><ele>746.0</ele><time>2026-04-25T08:13:54.227Z</time></trkpt><trkpt lat="45.7697667" lon="9.7462183"><ele>742.5</ele><time>2026-04-25T08:13:55.227Z</time></trkpt><trkpt lat="45.769655" lon="9.7463183"><ele>739.0</ele><time>2026-04-25T08:13:56.227Z</time></trkpt><trkpt lat="45.7695517" lon="9.7464067"><ele>739.0</ele><time>2026-04-25T08:13:57.228Z</time></trkpt><trkpt lat="45.7694617" lon="9.74648"><ele>739.0</ele><time>2026-04-25T08:13:58.227Z</time></trkpt><trkpt lat="45.7693867" lon="9.7465433"><ele>739.0</ele><time>2026-04-25T08:13:59.227Z</time></trkpt><trkpt lat="45.769325" lon="9.7465883"><ele>739.0</ele><time>2026-04-25T08:14:00.229Z</time></trkpt><trkpt lat="45.7692483" lon="9.7465933"><ele>739.0</ele><time>2026-04-25T08:14:02.228Z</time></trkpt><trkpt lat="45.7692667" lon="9.7465"><ele>739.0</ele><time>2026-04-25T08:14:05.229Z</time></trkpt><trkpt lat="45.7693483" lon="9.7464533"><ele>739.0</ele><time>2026-04-25T08:14:06.231Z</time></trkpt><trkpt lat="45.769425" lon="9.7464033"><ele>739.0</ele><time>2026-04-25T08:14:07.228Z</time></trkpt><trkpt lat="45.7695117" lon="9.7463317"><ele>739.0</ele><time>2026-04-25T08:14:08.227Z</time></trkpt><trkpt lat="45.769605" lon="9.7462233"><ele>739.0</ele><time>2026-04-25T08:14:09.23Z</time></trkpt><trkpt lat="45.7696867" lon="9.746095"><ele>739.0</ele><time>2026-04-25T08:14:10.228Z</time></trkpt><trkpt lat="45.7697667" lon="9.74596"><ele>741.8000000000001</ele><time>2026-04-25T08:14:11.227Z</time></trkpt><trkpt lat="45.7698333" lon="9.7458233"><ele>744.6</ele><time>2026-04-25T08:14:12.228Z</time></trkpt><trkpt lat="45.769885" lon="9.7456867"><ele>747.4</ele><time>2026-04-25T08:14:13.228Z</time></trkpt><trkpt lat="45.76992" lon="9.74555"><ele>750.2</ele><time>2026-04-25T08:14:14.227Z</time></trkpt><trkpt lat="45.76994" lon="9.7454067"><ele>753.0</ele><time>2026-04-25T08:14:15.227Z</time></trkpt><trkpt lat="45.7699333" lon="9.7452783"><ele>754.2</ele><time>2026-04-25T08:14:16.227Z</time></trkpt><trkpt lat="45.7699" lon="9.745155"><ele>755.4</ele><time>2026-04-25T08:14:17.229Z</time></trkpt><trkpt lat="45.7698367" lon="9.74504"><ele>756.6</ele><time>2026-04-25T08:14:18.226Z</time></trkpt><trkpt lat="45.7697567" lon="9.744925"><ele>757.8000000000001</ele><time>2026-04-25T08:14:19.228Z</time></trkpt><trkpt lat="45.76968" lon="9.7448067"><ele>759.0</ele><time>2026-04-25T08:14:20.228Z</time></trkpt><trkpt lat="45.7696267" lon="9.7446667"><ele>759.0</ele><time>2026-04-25T08:14:21.228Z</time></trkpt><trkpt lat="45.769585" lon="9.7445167"><ele>759.0</ele><time>2026-04-25T08:14:22.228Z</time></trkpt><trkpt lat="45.7695433" lon="9.7443717"><ele>759.0</ele><time>2026-04-25T08:14:23.231Z</time></trkpt><trkpt lat="45.7694983" lon="9.7442333"><ele>759.0</ele><time>2026-04-25T08:14:24.228Z</time></trkpt><trkpt lat="45.7694433" lon="9.7441067"><ele>759.0</ele><time>2026-04-25T08:14:25.228Z</time></trkpt><trkpt lat="45.7693683" lon="9.7440067"><ele>753.0</ele><time>2026-04-25T08:14:26.227Z</time></trkpt><trkpt lat="45.7692767" lon="9.7439167"><ele>747.0</ele><time>2026-04-25T08:14:27.229Z</time></trkpt><trkpt lat="45.7691783" lon="9.7438233"><ele>741.0</ele><time>2026-04-25T08:14:28.23Z</time></trkpt><trkpt lat="45.769075" lon="9.7437233"><ele>735.0</ele><time>2026-04-25T08:14:29.227Z</time></trkpt><trkpt lat="45.7689733" lon="9.7436133"><ele>738.8</ele><time>2026-04-25T08:14:30.228Z</time></trkpt><trkpt lat="45.768895" lon="9.7434983"><ele>742.6</ele><time>2026-04-25T08:14:31.229Z</time></trkpt><trkpt lat="45.768835" lon="9.7433567"><ele>746.4000000000001</ele><time>2026-04-25T08:14:32.229Z</time></trkpt><trkpt lat="45.7688017" lon="9.7432183"><ele>750.2</ele><time>2026-04-25T08:14:33.227Z</time></trkpt><trkpt lat="45.7687917" lon="9.7430933"><ele>754.0</ele><time>2026-04-25T08:14:34.227Z</time></trkpt><trkpt lat="45.768785" lon="9.74299"><ele>754.0</ele><time>2026-04-25T08:14:35.228Z</time></trkpt><trkpt lat="45.7687383" lon="9.7428867"><ele>754.0</ele><time>2026-04-25T08:14:37.229Z</time></trkpt><trkpt lat="45.768665" lon="9.7429733"><ele>754.0</ele><time>2026-04-25T08:14:39.229Z</time></trkpt><trkpt lat="45.7686617" lon="9.74317"><ele>754.0</ele><time>2026-04-25T08:14:41.227Z</time></trkpt><trkpt lat="45.7686817" lon="9.7433033"><ele>754.0</ele><time>2026-04-25T08:14:42.229Z</time></trkpt><trkpt lat="45.7687083" lon="9.7434467"><ele>750.2</ele><time>2026-04-25T08:14:43.231Z</time></trkpt><trkpt lat="45.7687467" lon="9.7435917"><ele>746.4000000000001</ele><time>2026-04-25T08:14:44.228Z</time></trkpt><trkpt lat="45.7688083" lon="9.7437317"><ele>742.6</ele><time>2026-04-25T08:14:45.228Z</time></trkpt><trkpt lat="45.76888" lon="9.743855"><ele>738.8</ele><time>2026-04-25T08:14:46.231Z</time></trkpt><trkpt lat="45.7689583" lon="9.7439733"><ele>735.0</ele><time>2026-04-25T08:14:47.228Z</time></trkpt><trkpt lat="45.769035" lon="9.7440767"><ele>735.0</ele><time>2026-04-25T08:14:48.228Z</time></trkpt><trkpt lat="45.76911" lon="9.74418"><ele>735.0</ele><time>2026-04-25T08:14:49.227Z</time></trkpt><trkpt lat="45.7691783" lon="9.744285"><ele>735.0</ele><time>2026-04-25T08:14:50.228Z</time></trkpt><trkpt lat="45.76923" lon="9.744395"><ele>735.0</ele><time>2026-04-25T08:14:51.229Z</time></trkpt><trkpt lat="45.769255" lon="9.7445317"><ele>735.0</ele><time>2026-04-25T08:14:52.227Z</time></trkpt><trkpt lat="45.7692667" lon="9.7446867"><ele>733.8</ele><time>2026-04-25T08:14:53.227Z</time></trkpt><trkpt lat="45.7692833" lon="9.74485"><ele>732.6</ele><time>2026-04-25T08:14:54.228Z</time></trkpt><trkpt lat="45.7693033" lon="9.745005"><ele>731.4000000000001</ele><time>2026-04-25T08:14:55.227Z</time></trkpt><trkpt lat="45.7693333" lon="9.745145"><ele>730.2</ele><time>2026-04-25T08:14:56.229Z</time></trkpt><trkpt lat="45.7693583" lon="9.7452717"><ele>729.0</ele><time>2026-04-25T08:14:57.229Z</time></trkpt><trkpt lat="45.7693683" lon="9.74538"><ele>729.0</ele><time>2026-04-25T08:14:58.228Z</time></trkpt><trkpt lat="45.7693583" lon="9.7454817"><ele>729.0</ele><time>2026-04-25T08:14:59.228Z</time></trkpt><trkpt lat="45.769295" lon="9.745555"><ele>729.0</ele><time>2026-04-25T08:15:00.229Z</time></trkpt><trkpt lat="45.7692233" lon="9.7456383"><ele>729.0</ele><time>2026-04-25T08:15:01.229Z</time></trkpt><trkpt lat="45.7691167" lon="9.745725"><ele>729.0</ele><time>2026-04-25T08:15:02.23Z</time></trkpt><trkpt lat="45.7690033" lon="9.7458083"><ele>729.0</ele><time>2026-04-25T08:15:03.227Z</time></trkpt><trkpt lat="45.7688767" lon="9.7458833"><ele>729.0</ele><time>2026-04-25T08:15:04.229Z</time></trkpt><trkpt lat="45.768745" lon="9.7459483"><ele>729.0</ele><time>2026-04-25T08:15:05.229Z</time></trkpt><trkpt lat="45.7686183" lon="9.7460083"><ele>729.0</ele><time>2026-04-25T08:15:06.227Z</time></trkpt><trkpt lat="45.768495" lon="9.746075"><ele>726.4000000000001</ele><time>2026-04-25T08:15:07.227Z</time></trkpt><trkpt lat="45.7683867" lon="9.7461517"><ele>723.8</ele><time>2026-04-25T08:15:08.228Z</time></trkpt><trkpt lat="45.768305" lon="9.74625"><ele>721.2</ele><time>2026-04-25T08:15:09.228Z</time></trkpt><trkpt lat="45.7682467" lon="9.7463733"><ele>718.5999999999999</ele><time>2026-04-25T08:15:10.227Z</time></trkpt><trkpt lat="45.7682067" lon="9.746515"><ele>716.0</ele><time>2026-04-25T08:15:11.227Z</time></trkpt><trkpt lat="45.7681717" lon="9.7466683"><ele>716.0</ele><time>2026-04-25T08:15:12.238Z</time></trkpt><trkpt lat="45.7681367" lon="9.74683"><ele>716.0</ele><time>2026-04-25T08:15:13.227Z</time></trkpt><trkpt lat="45.7681" lon="9.746995"><ele>716.0</ele><time>2026-04-25T08:15:14.227Z</time></trkpt><trkpt lat="45.7680633" lon="9.7471617"><ele>716.0</ele><time>2026-04-25T08:15:15.228Z</time></trkpt><trkpt lat="45.76803" lon="9.7473183"><ele>715.1999999999999</ele><time>2026-04-25T08:15:16.228Z</time></trkpt><trkpt lat="45.7679917" lon="9.7474683"><ele>714.4</ele><time>2026-04-25T08:15:17.227Z</time></trkpt><trkpt lat="45.7679583" lon="9.74761"><ele>713.6</ele><time>2026-04-25T08:15:18.228Z</time></trkpt><trkpt lat="45.7679367" lon="9.7477367"><ele>712.8</ele><time>2026-04-25T08:15:19.23Z</time></trkpt><trkpt lat="45.7679233" lon="9.7478417"><ele>712.0</ele><time>2026-04-25T08:15:20.23Z</time></trkpt><trkpt lat="45.767885" lon="9.7479583"><ele>712.0</ele><time>2026-04-25T08:15:22.229Z</time></trkpt><trkpt lat="45.7678567" lon="9.74783"><ele>712.0</ele><time>2026-04-25T08:15:25.234Z</time></trkpt><trkpt lat="45.7678817" lon="9.7477467"><ele>712.0</ele><time>2026-04-25T08:15:26.232Z</time></trkpt><trkpt lat="45.7679183" lon="9.74763"><ele>712.0</ele><time>2026-04-25T08:15:27.234Z</time></trkpt><trkpt lat="45.767955" lon="9.74749"><ele>712.0</ele><time>2026-04-25T08:15:28.229Z</time></trkpt><trkpt lat="45.7679867" lon="9.7473367"><ele>712.8</ele><time>2026-04-25T08:15:29.23Z</time></trkpt><trkpt lat="45.7680067" lon="9.7471817"><ele>713.6</ele><time>2026-04-25T08:15:30.23Z</time></trkpt><trkpt lat="45.7680083" lon="9.7470367"><ele>714.4</ele><time>2026-04-25T08:15:31.228Z</time></trkpt><trkpt lat="45.7680117" lon="9.7469017"><ele>715.1999999999999</ele><time>2026-04-25T08:15:32.23Z</time></trkpt><trkpt lat="45.7680183" lon="9.74677"><ele>716.0</ele><time>2026-04-25T08:15:33.229Z</time></trkpt><trkpt lat="45.7680317" lon="9.7466383"><ele>716.0</ele><time>2026-04-25T08:15:34.328Z</time></trkpt><trkpt lat="45.7680483" lon="9.746505"><ele>716.0</ele><time>2026-04-25T08:15:35.23Z</time></trkpt><trkpt lat="45.76807" lon="9.7463717"><ele>716.0</ele><time>2026-04-25T08:15:36.229Z</time></trkpt><trkpt lat="45.7681" lon="9.7462283"><ele>716.0</ele><time>2026-04-25T08:15:37.232Z</time></trkpt><trkpt lat="45.7681433" lon="9.74609"><ele>716.0</ele><time>2026-04-25T08:15:38.229Z</time></trkpt><trkpt lat="45.7681983" lon="9.7459467"><ele>718.5999999999999</ele><time>2026-04-25T08:15:39.228Z</time></trkpt><trkpt lat="45.7682717" lon="9.7458283"><ele>721.2</ele><time>2026-04-25T08:15:40.227Z</time></trkpt><trkpt lat="45.7683583" lon="9.7457217"><ele>723.8</ele><time>2026-04-25T08:15:41.227Z</time></trkpt><trkpt lat="45.7684467" lon="9.7456217"><ele>726.4000000000001</ele><time>2026-04-25T08:15:42.228Z</time></trkpt><trkpt lat="45.7685333" lon="9.7455367"><ele>729.0</ele><time>2026-04-25T08:15:43.227Z</time></trkpt><trkpt lat="45.7686167" lon="9.7454667"><ele>729.0</ele><time>2026-04-25T08:15:44.231Z</time></trkpt><trkpt lat="45.7686933" lon="9.7453967"><ele>729.0</ele><time>2026-04-25T08:15:45.229Z</time></trkpt><trkpt lat="45.76875" lon="9.7453283"><ele>729.0</ele><time>2026-04-25T08:15:46.229Z</time></trkpt><trkpt lat="45.7687817" lon="9.7452433"><ele>729.0</ele><time>2026-04-25T08:15:47.227Z</time></trkpt><trkpt lat="45.7687733" lon="9.74515"><ele>729.0</ele><time>2026-04-25T08:15:48.227Z</time></trkpt><trkpt lat="45.7687433" lon="9.74504"><ele>729.0</ele><time>2026-04-25T08:15:49.228Z</time></trkpt><trkpt lat="45.7686867" lon="9.7449183"><ele>726.75</ele><time>2026-04-25T08:15:50.228Z</time></trkpt><trkpt lat="45.768605" lon="9.7447933"><ele>724.5</ele><time>2026-04-25T08:15:51.23Z</time></trkpt><trkpt lat="45.76851" lon="9.7446717"><ele>722.25</ele><time>2026-04-25T08:15:52.23Z</time></trkpt><trkpt lat="45.768405" lon="9.744555"><ele>720.0</ele><time>2026-04-25T08:15:53.229Z</time></trkpt><trkpt lat="45.7683" lon="9.74444"><ele>714.25</ele><time>2026-04-25T08:15:54.229Z</time></trkpt><trkpt lat="45.7682017" lon="9.7443283"><ele>708.5</ele><time>2026-04-25T08:15:55.229Z</time></trkpt><trkpt lat="45.7681083" lon="9.7442183"><ele>702.75</ele><time>2026-04-25T08:15:56.23Z</time></trkpt><trkpt lat="45.7680267" lon="9.744105"><ele>697.0</ele><time>2026-04-25T08:15:57.231Z</time></trkpt><trkpt lat="45.7679567" lon="9.7439933"><ele>697.0</ele><time>2026-04-25T08:15:58.228Z</time></trkpt><trkpt lat="45.7679033" lon="9.74388"><ele>697.0</ele><time>2026-04-25T08:15:59.229Z</time></trkpt><trkpt lat="45.767865" lon="9.74377"><ele>697.0</ele><time>2026-04-25T08:16:00.23Z</time></trkpt><trkpt lat="45.7678533" lon="9.7436683"><ele>697.0</ele><time>2026-04-25T08:16:01.227Z</time></trkpt><trkpt lat="45.7678333" lon="9.743515"><ele>697.0</ele><time>2026-04-25T08:16:03.319Z</time></trkpt><trkpt lat="45.76775" lon="9.7435433"><ele>697.0</ele><time>2026-04-25T08:16:05.228Z</time></trkpt><trkpt lat="45.7677267" lon="9.7437167"><ele>697.0</ele><time>2026-04-25T08:16:07.227Z</time></trkpt><trkpt lat="45.7677433" lon="9.7438233"><ele>697.0</ele><time>2026-04-25T08:16:08.229Z</time></trkpt><trkpt lat="45.7677833" lon="9.7439633"><ele>697.0</ele><time>2026-04-25T08:16:09.23Z</time></trkpt><trkpt lat="45.76784" lon="9.7441167"><ele>697.0</ele><time>2026-04-25T08:16:10.227Z</time></trkpt><trkpt lat="45.7679017" lon="9.7442683"><ele>697.0</ele><time>2026-04-25T08:16:11.229Z</time></trkpt><trkpt lat="45.7679567" lon="9.7444083"><ele>695.0</ele><time>2026-04-25T08:16:12.23Z</time></trkpt><trkpt lat="45.768015" lon="9.7445317"><ele>693.0</ele><time>2026-04-25T08:16:13.228Z</time></trkpt><trkpt lat="45.768075" lon="9.7446417"><ele>691.0</ele><time>2026-04-25T08:16:14.231Z</time></trkpt><trkpt lat="45.768145" lon="9.7447483"><ele>689.0</ele><time>2026-04-25T08:16:15.227Z</time></trkpt><trkpt lat="45.7682083" lon="9.7448483"><ele>687.0</ele><time>2026-04-25T08:16:16.228Z</time></trkpt><trkpt lat="45.76826" lon="9.7449433"><ele>687.0</ele><time>2026-04-25T08:16:17.227Z</time></trkpt><trkpt lat="45.76829" lon="9.7450317"><ele>687.0</ele><time>2026-04-25T08:16:18.228Z</time></trkpt><trkpt lat="45.7682433" lon="9.74517"><ele>687.0</ele><time>2026-04-25T08:16:20.232Z</time></trkpt><trkpt lat="45.768135" lon="9.7452717"><ele>687.0</ele><time>2026-04-25T08:16:22.23Z</time></trkpt><trkpt lat="45.7680483" lon="9.74536"><ele>687.0</ele><time>2026-04-25T08:16:23.229Z</time></trkpt><trkpt lat="45.76796" lon="9.7454667"><ele>690.75</ele><time>2026-04-25T08:16:24.23Z</time></trkpt><trkpt lat="45.7678733" lon="9.7456217"><ele>694.5</ele><time>2026-04-25T08:16:25.274Z</time></trkpt><trkpt lat="45.767795" lon="9.7457733"><ele>698.25</ele><time>2026-04-25T08:16:26.229Z</time></trkpt><trkpt lat="45.7677167" lon="9.7459317"><ele>702.0</ele><time>2026-04-25T08:16:27.23Z</time></trkpt><trkpt lat="45.7676467" lon="9.7460933"><ele>694.25</ele><time>2026-04-25T08:16:28.23Z</time></trkpt><trkpt lat="45.76759" lon="9.7462633"><ele>686.5</ele><time>2026-04-25T08:16:29.23Z</time></trkpt><trkpt lat="45.7675483" lon="9.7464317"><ele>678.75</ele><time>2026-04-25T08:16:30.228Z</time></trkpt><trkpt lat="45.76752" lon="9.746595"><ele>671.0</ele><time>2026-04-25T08:16:31.23Z</time></trkpt><trkpt lat="45.7674967" lon="9.7467533"><ele>672.8</ele><time>2026-04-25T08:16:32.229Z</time></trkpt><trkpt lat="45.7674683" lon="9.7469"><ele>674.5999999999999</ele><time>2026-04-25T08:16:33.229Z</time></trkpt><trkpt lat="45.7674317" lon="9.7470417"><ele>676.4</ele><time>2026-04-25T08:16:34.228Z</time></trkpt><trkpt lat="45.7673783" lon="9.7471867"><ele>678.2</ele><time>2026-04-25T08:16:35.229Z</time></trkpt><trkpt lat="45.7673167" lon="9.747325"><ele>680.0</ele><time>2026-04-25T08:16:36.227Z</time></trkpt><trkpt lat="45.767255" lon="9.7474617"><ele>680.0</ele><time>2026-04-25T08:16:37.227Z</time></trkpt><trkpt lat="45.7671967" lon="9.7475983"><ele>680.0</ele><time>2026-04-25T08:16:38.227Z</time></trkpt><trkpt lat="45.76715" lon="9.7477383"><ele>680.0</ele><time>2026-04-25T08:16:39.227Z</time></trkpt><trkpt lat="45.76712" lon="9.74788"><ele>680.0</ele><time>2026-04-25T08:16:40.228Z</time></trkpt><trkpt lat="45.7671067" lon="9.74802"><ele>680.0</ele><time>2026-04-25T08:16:41.229Z</time></trkpt><trkpt lat="45.767105" lon="9.7481517"><ele>679.2</ele><time>2026-04-25T08:16:42.229Z</time></trkpt><trkpt lat="45.767115" lon="9.7482683"><ele>678.4</ele><time>2026-04-25T08:16:43.228Z</time></trkpt><trkpt lat="45.7671233" lon="9.7483667"><ele>677.5999999999999</ele><time>2026-04-25T08:16:44.23Z</time></trkpt><trkpt lat="45.76711" lon="9.7485383"><ele>676.8</ele><time>2026-04-25T08:16:46.228Z</time></trkpt><trkpt lat="45.767015" lon="9.7484733"><ele>676.0</ele><time>2026-04-25T08:16:48.228Z</time></trkpt><trkpt lat="45.76699" lon="9.7483283"><ele>676.0</ele><time>2026-04-25T08:16:50.232Z</time></trkpt><trkpt lat="45.7669917" lon="9.7482317"><ele>676.0</ele><time>2026-04-25T08:16:51.23Z</time></trkpt><trkpt lat="45.7669967" lon="9.7481133"><ele>676.0</ele><time>2026-04-25T08:16:52.23Z</time></trkpt><trkpt lat="45.7670117" lon="9.7479767"><ele>676.0</ele><time>2026-04-25T08:16:53.229Z</time></trkpt><trkpt lat="45.7670433" lon="9.7478133"><ele>676.0</ele><time>2026-04-25T08:16:54.231Z</time></trkpt><trkpt lat="45.7670767" lon="9.7476517"><ele>677.0</ele><time>2026-04-25T08:16:55.23Z</time></trkpt><trkpt lat="45.7671167" lon="9.7474917"><ele>678.0</ele><time>2026-04-25T08:16:56.231Z</time></trkpt><trkpt lat="45.767155" lon="9.747335"><ele>679.0</ele><time>2026-04-25T08:16:57.231Z</time></trkpt><trkpt lat="45.7671933" lon="9.7471717"><ele>680.0</ele><time>2026-04-25T08:16:58.231Z</time></trkpt><trkpt lat="45.7672283" lon="9.7470083"><ele>677.75</ele><time>2026-04-25T08:16:59.231Z</time></trkpt><trkpt lat="45.7672517" lon="9.7468367"><ele>675.5</ele><time>2026-04-25T08:17:00.23Z</time></trkpt><trkpt lat="45.76726" lon="9.7466533"><ele>673.25</ele><time>2026-04-25T08:17:01.231Z</time></trkpt><trkpt lat="45.767255" lon="9.74647"><ele>671.0</ele><time>2026-04-25T08:17:02.231Z</time></trkpt><trkpt lat="45.76724" lon="9.7462867"><ele>671.0</ele><time>2026-04-25T08:17:03.23Z</time></trkpt><trkpt lat="45.76722" lon="9.7461"><ele>671.0</ele><time>2026-04-25T08:17:04.229Z</time></trkpt><trkpt lat="45.7672017" lon="9.7459083"><ele>671.0</ele><time>2026-04-25T08:17:05.231Z</time></trkpt><trkpt lat="45.76719" lon="9.7457217"><ele>671.0</ele><time>2026-04-25T08:17:06.23Z</time></trkpt><trkpt lat="45.7671783" lon="9.7455433"><ele>669.5999999999999</ele><time>2026-04-25T08:17:07.231Z</time></trkpt><trkpt lat="45.7671633" lon="9.7453717"><ele>668.2</ele><time>2026-04-25T08:17:08.23Z</time></trkpt><trkpt lat="45.7671383" lon="9.7452167"><ele>666.8</ele><time>2026-04-25T08:17:09.229Z</time></trkpt><trkpt lat="45.7671017" lon="9.7450883"><ele>665.4000000000001</ele><time>2026-04-25T08:17:10.23Z</time></trkpt><trkpt lat="45.7670633" lon="9.7449617"><ele>664.0</ele><time>2026-04-25T08:17:11.23Z</time></trkpt><trkpt lat="45.7670317" lon="9.744845"><ele>663.6666666666667</ele><time>2026-04-25T08:17:12.231Z</time></trkpt><trkpt lat="45.767015" lon="9.7447233"><ele>663.3333333333334</ele><time>2026-04-25T08:17:13.23Z</time></trkpt><trkpt lat="45.7670133" lon="9.7446017"><ele>663.0</ele><time>2026-04-25T08:17:14.23Z</time></trkpt><trkpt lat="45.76702" lon="9.7444717"><ele>662.6666666666666</ele><time>2026-04-25T08:17:15.235Z</time></trkpt><trkpt lat="45.7670283" lon="9.744355"><ele>662.3333333333333</ele><time>2026-04-25T08:17:16.232Z</time></trkpt><trkpt lat="45.7670283" lon="9.7442533"><ele>662.0</ele><time>2026-04-25T08:17:17.227Z</time></trkpt><trkpt lat="45.7669817" lon="9.7441133"><ele>662.0</ele><time>2026-04-25T08:17:19.227Z</time></trkpt><trkpt lat="45.7669067" lon="9.7441683"><ele>662.0</ele><time>2026-04-25T08:17:21.231Z</time></trkpt><trkpt lat="45.7668867" lon="9.744255"><ele>662.0</ele><time>2026-04-25T08:17:22.227Z</time></trkpt><trkpt lat="45.7668833" lon="9.7443667"><ele>662.0</ele><time>2026-04-25T08:17:23.228Z</time></trkpt><trkpt lat="45.7668917" lon="9.7445133"><ele>662.0</ele><time>2026-04-25T08:17:24.227Z</time></trkpt><trkpt lat="45.7668967" lon="9.7446617"><ele>662.0</ele><time>2026-04-25T08:17:25.229Z</time></trkpt><trkpt lat="45.7669017" lon="9.7448067"><ele>662.3333333333333</ele><time>2026-04-25T08:17:26.229Z</time></trkpt><trkpt lat="45.7669133" lon="9.744945"><ele>662.6666666666666</ele><time>2026-04-25T08:17:27.229Z</time></trkpt><trkpt lat="45.7669317" lon="9.74507"><ele>663.0</ele><time>2026-04-25T08:17:28.229Z</time></trkpt><trkpt lat="45.766945" lon="9.7451817"><ele>663.3333333333334</ele><time>2026-04-25T08:17:29.23Z</time></trkpt><trkpt lat="45.7669417" lon="9.7452933"><ele>663.6666666666667</ele><time>2026-04-25T08:17:30.229Z</time></trkpt><trkpt lat="45.76692" lon="9.7454"><ele>664.0</ele><time>2026-04-25T08:17:31.229Z</time></trkpt><trkpt lat="45.7668783" lon="9.7455267"><ele>664.0</ele><time>2026-04-25T08:17:32.23Z</time></trkpt><trkpt lat="45.7668617" lon="9.745675"><ele>664.0</ele><time>2026-04-25T08:17:33.229Z</time></trkpt><trkpt lat="45.7668717" lon="9.7458383"><ele>664.0</ele><time>2026-04-25T08:17:34.228Z</time></trkpt><trkpt lat="45.7668817" lon="9.7460067"><ele>664.0</ele><time>2026-04-25T08:17:35.228Z</time></trkpt><trkpt lat="45.7668817" lon="9.7461733"><ele>665.75</ele><time>2026-04-25T08:17:36.227Z</time></trkpt><trkpt lat="45.766865" lon="9.7463433"><ele>667.5</ele><time>2026-04-25T08:17:37.227Z</time></trkpt><trkpt lat="45.7668417" lon="9.7465167"><ele>669.25</ele><time>2026-04-25T08:17:38.228Z</time></trkpt><trkpt lat="45.7668083" lon="9.7467033"><ele>671.0</ele><time>2026-04-25T08:17:39.229Z</time></trkpt><trkpt lat="45.76677" lon="9.746885"><ele>659.5</ele><time>2026-04-25T08:17:40.228Z</time></trkpt><trkpt lat="45.7667283" lon="9.7470667"><ele>648.0</ele><time>2026-04-25T08:17:41.228Z</time></trkpt><trkpt lat="45.7666833" lon="9.7472417"><ele>636.5</ele><time>2026-04-25T08:17:42.227Z</time></trkpt><trkpt lat="45.7666467" lon="9.747415"><ele>625.0</ele><time>2026-04-25T08:17:43.228Z</time></trkpt><trkpt lat="45.766615" lon="9.7475817"><ele>626.0</ele><time>2026-04-25T08:17:44.228Z</time></trkpt><trkpt lat="45.7665933" lon="9.7477483"><ele>627.0</ele><time>2026-04-25T08:17:45.228Z</time></trkpt><trkpt lat="45.7665883" lon="9.7479067"><ele>628.0</ele><time>2026-04-25T08:17:46.227Z</time></trkpt><trkpt lat="45.7665833" lon="9.74806"><ele>629.0</ele><time>2026-04-25T08:17:47.228Z</time></trkpt><trkpt lat="45.7665683" lon="9.7482083"><ele>630.0</ele><time>2026-04-25T08:17:48.227Z</time></trkpt><trkpt lat="45.7665467" lon="9.7483467"><ele>630.0</ele><time>2026-04-25T08:17:49.23Z</time></trkpt><trkpt lat="45.7665333" lon="9.7484833"><ele>630.0</ele><time>2026-04-25T08:17:50.228Z</time></trkpt><trkpt lat="45.7665217" lon="9.74861"><ele>630.0</ele><time>2026-04-25T08:17:51.229Z</time></trkpt><trkpt lat="45.7665267" lon="9.74871"><ele>630.0</ele><time>2026-04-25T08:17:52.229Z</time></trkpt><trkpt lat="45.76653" lon="9.748805"><ele>630.0</ele><time>2026-04-25T08:17:53.227Z</time></trkpt><trkpt lat="45.7664733" lon="9.74886"><ele>630.0</ele><time>2026-04-25T08:17:55.233Z</time></trkpt><trkpt lat="45.7664167" lon="9.7487917"><ele>630.0</ele><time>2026-04-25T08:17:57.229Z</time></trkpt><trkpt lat="45.7664167" lon="9.748605"><ele>630.0</ele><time>2026-04-25T08:17:59.227Z</time></trkpt><trkpt lat="45.7664517" lon="9.748445"><ele>630.0</ele><time>2026-04-25T08:18:00.227Z</time></trkpt><trkpt lat="45.7664833" lon="9.7482717"><ele>630.0</ele><time>2026-04-25T08:18:01.228Z</time></trkpt><trkpt lat="45.7665017" lon="9.7481017"><ele>630.0</ele><time>2026-04-25T08:18:02.229Z</time></trkpt><trkpt lat="45.7665033" lon="9.7479333"><ele>630.0</ele><time>2026-04-25T08:18:03.228Z</time></trkpt><trkpt lat="45.7664917" lon="9.74777"><ele>630.0</ele><time>2026-04-25T08:18:04.229Z</time></trkpt><trkpt lat="45.766475" lon="9.7476133"><ele>630.0</ele><time>2026-04-25T08:18:05.23Z</time></trkpt><trkpt lat="45.7664667" lon="9.7474567"><ele>629.0</ele><time>2026-04-25T08:18:06.228Z</time></trkpt><trkpt lat="45.7664683" lon="9.7473033"><ele>628.0</ele><time>2026-04-25T08:18:07.227Z</time></trkpt><trkpt lat="45.7664817" lon="9.7471583"><ele>627.0</ele><time>2026-04-25T08:18:08.23Z</time></trkpt><trkpt lat="45.7664933" lon="9.7470117"><ele>626.0</ele><time>2026-04-25T08:18:09.231Z</time></trkpt><trkpt lat="45.7665183" lon="9.7468633"><ele>625.0</ele><time>2026-04-25T08:18:10.23Z</time></trkpt><trkpt lat="45.76656" lon="9.7467483"><ele>624.2</ele><time>2026-04-25T08:18:11.23Z</time></trkpt><trkpt lat="45.7665917" lon="9.7466133"><ele>623.4</ele><time>2026-04-25T08:18:12.228Z</time></trkpt><trkpt lat="45.7665817" lon="9.7465033"><ele>622.6</ele><time>2026-04-25T08:18:13.227Z</time></trkpt><trkpt lat="45.7665633" lon="9.74637"><ele>621.8</ele><time>2026-04-25T08:18:14.228Z</time></trkpt><trkpt lat="45.7665333" lon="9.7462183"><ele>621.0</ele><time>2026-04-25T08:18:15.229Z</time></trkpt><trkpt lat="45.7665067" lon="9.7460717"><ele>620.6</ele><time>2026-04-25T08:18:16.229Z</time></trkpt><trkpt lat="45.7664783" lon="9.74593"><ele>620.2</ele><time>2026-04-25T08:18:17.229Z</time></trkpt><trkpt lat="45.7664533" lon="9.7457967"><ele>619.8</ele><time>2026-04-25T08:18:18.23Z</time></trkpt><trkpt lat="45.7664383" lon="9.7456733"><ele>619.4</ele><time>2026-04-25T08:18:19.228Z</time></trkpt><trkpt lat="45.766445" lon="9.7455483"><ele>619.0</ele><time>2026-04-25T08:18:20.228Z</time></trkpt><trkpt lat="45.766455" lon="9.7454333"><ele>619.0</ele><time>2026-04-25T08:18:21.229Z</time></trkpt><trkpt lat="45.7664317" lon="9.7453417"><ele>619.0</ele><time>2026-04-25T08:18:22.23Z</time></trkpt><trkpt lat="45.76642" lon="9.7452183"><ele>619.0</ele><time>2026-04-25T08:18:23.228Z</time></trkpt><trkpt lat="45.7664017" lon="9.7450833"><ele>619.0</ele><time>2026-04-25T08:18:24.227Z</time></trkpt><trkpt lat="45.7663767" lon="9.7449483"><ele>619.0</ele><time>2026-04-25T08:18:25.228Z</time></trkpt><trkpt lat="45.7663567" lon="9.7448217"><ele>619.0</ele><time>2026-04-25T08:18:26.228Z</time></trkpt><trkpt lat="45.7663533" lon="9.7447017"><ele>618.8333333333334</ele><time>2026-04-25T08:18:27.229Z</time></trkpt><trkpt lat="45.76636" lon="9.744595"><ele>618.6666666666667</ele><time>2026-04-25T08:18:28.229Z</time></trkpt><trkpt lat="45.7663533" lon="9.7444917"><ele>618.5</ele><time>2026-04-25T08:18:29.229Z</time></trkpt><trkpt lat="45.7662817" lon="9.744425"><ele>618.3333333333334</ele><time>2026-04-25T08:18:31.227Z</time></trkpt><trkpt lat="45.7662183" lon="9.7445317"><ele>618.1666666666666</ele><time>2026-04-25T08:18:33.228Z</time></trkpt><trkpt lat="45.76622" lon="9.7446617"><ele>618.0</ele><time>2026-04-25T08:18:34.228Z</time></trkpt><trkpt lat="45.7662433" lon="9.7447917"><ele>618.0</ele><time>2026-04-25T08:18:35.227Z</time></trkpt><trkpt lat="45.766285" lon="9.7449167"><ele>618.0</ele><time>2026-04-25T08:18:36.228Z</time></trkpt><trkpt lat="45.7663233" lon="9.745045"><ele>618.0</ele><time>2026-04-25T08:18:37.23Z</time></trkpt><trkpt lat="45.766335" lon="9.7451733"><ele>618.0</ele><time>2026-04-25T08:18:38.229Z</time></trkpt><trkpt lat="45.7663233" lon="9.745305"><ele>618.0</ele><time>2026-04-25T08:18:39.228Z</time></trkpt><trkpt lat="45.766295" lon="9.74545"><ele>618.25</ele><time>2026-04-25T08:18:40.229Z</time></trkpt><trkpt lat="45.766275" lon="9.7456117"><ele>618.5</ele><time>2026-04-25T08:18:41.231Z</time></trkpt><trkpt lat="45.766265" lon="9.7457867"><ele>618.75</ele><time>2026-04-25T08:18:42.231Z</time></trkpt><trkpt lat="45.7662583" lon="9.7459583"><ele>619.0</ele><time>2026-04-25T08:18:43.227Z</time></trkpt><trkpt lat="45.7662533" lon="9.74612"><ele>619.5</ele><time>2026-04-25T08:18:44.229Z</time></trkpt><trkpt lat="45.7662483" lon="9.7462817"><ele>620.0</ele><time>2026-04-25T08:18:45.229Z</time></trkpt><trkpt lat="45.766235" lon="9.7464317"><ele>620.5</ele><time>2026-04-25T08:18:46.228Z</time></trkpt><trkpt lat="45.7661983" lon="9.7465733"><ele>621.0</ele><time>2026-04-25T08:18:47.228Z</time></trkpt><trkpt lat="45.766145" lon="9.7467367"><ele>622.0</ele><time>2026-04-25T08:18:48.227Z</time></trkpt><trkpt lat="45.766095" lon="9.7469167"><ele>623.0</ele><time>2026-04-25T08:18:49.228Z</time></trkpt><trkpt lat="45.766055" lon="9.747095"><ele>624.0</ele><time>2026-04-25T08:18:50.227Z</time></trkpt><trkpt lat="45.7660283" lon="9.747265"><ele>625.0</ele><time>2026-04-25T08:18:51.229Z</time></trkpt><trkpt lat="45.76601" lon="9.7474333"><ele>626.0</ele><time>2026-04-25T08:18:52.227Z</time></trkpt><trkpt lat="45.7660083" lon="9.7475917"><ele>627.0</ele><time>2026-04-25T08:18:53.227Z</time></trkpt><trkpt lat="45.7660233" lon="9.7477483"><ele>628.0</ele><time>2026-04-25T08:18:54.229Z</time></trkpt><trkpt lat="45.766035" lon="9.7478967"><ele>629.0</ele><time>2026-04-25T08:18:55.229Z</time></trkpt><trkpt lat="45.7660233" lon="9.7480483"><ele>630.0</ele><time>2026-04-25T08:18:56.227Z</time></trkpt><trkpt lat="45.766" lon="9.7482183"><ele>615.75</ele><time>2026-04-25T08:18:57.228Z</time></trkpt><trkpt lat="45.7659733" lon="9.748405"><ele>601.5</ele><time>2026-04-25T08:18:58.227Z</time></trkpt><trkpt lat="45.7659583" lon="9.748585"><ele>587.25</ele><time>2026-04-25T08:18:59.227Z</time></trkpt><trkpt lat="45.7659533" lon="9.748765"><ele>573.0</ele><time>2026-04-25T08:19:00.227Z</time></trkpt><trkpt lat="45.7659617" lon="9.74893"><ele>573.0</ele><time>2026-04-25T08:19:01.228Z</time></trkpt><trkpt lat="45.7659767" lon="9.749065"><ele>573.0</ele><time>2026-04-25T08:19:02.229Z</time></trkpt><trkpt lat="45.7660083" lon="9.7491817"><ele>573.0</ele><time>2026-04-25T08:19:03.229Z</time></trkpt><trkpt lat="45.7660467" lon="9.749275"><ele>573.0</ele><time>2026-04-25T08:19:04.229Z</time></trkpt><trkpt lat="45.76608" lon="9.7493883"><ele>573.0</ele><time>2026-04-25T08:19:06.228Z</time></trkpt><trkpt lat="45.7660133" lon="9.7494"><ele>573.0</ele><time>2026-04-25T08:19:08.23Z</time></trkpt><trkpt lat="45.7659467" lon="9.7493133"><ele>571.8</ele><time>2026-04-25T08:19:10.228Z</time></trkpt><trkpt lat="45.765915" lon="9.749225"><ele>570.5999999999999</ele><time>2026-04-25T08:19:11.228Z</time></trkpt><trkpt lat="45.7658967" lon="9.7491067"><ele>569.4000000000001</ele><time>2026-04-25T08:19:12.228Z</time></trkpt><trkpt lat="45.76587" lon="9.7489983"><ele>568.2</ele><time>2026-04-25T08:19:13.23Z</time></trkpt><trkpt lat="45.7658633" lon="9.74885"><ele>567.0</ele><time>2026-04-25T08:19:14.23Z</time></trkpt><trkpt lat="45.765855" lon="9.74868"><ele>568.2</ele><time>2026-04-25T08:19:15.229Z</time></trkpt><trkpt lat="45.7658467" lon="9.7485217"><ele>569.4000000000001</ele><time>2026-04-25T08:19:16.229Z</time></trkpt><trkpt lat="45.7658467" lon="9.7483783"><ele>570.5999999999999</ele><time>2026-04-25T08:19:17.229Z</time></trkpt><trkpt lat="45.7658567" lon="9.748235"><ele>571.8</ele><time>2026-04-25T08:19:18.231Z</time></trkpt><trkpt lat="45.7658617" lon="9.748085"><ele>573.0</ele><time>2026-04-25T08:19:19.228Z</time></trkpt><trkpt lat="45.7658467" lon="9.747925"><ele>573.0</ele><time>2026-04-25T08:19:20.23Z</time></trkpt><trkpt lat="45.765815" lon="9.7477617"><ele>573.0</ele><time>2026-04-25T08:19:21.228Z</time></trkpt><trkpt lat="45.7657867" lon="9.7475983"><ele>573.0</ele><time>2026-04-25T08:19:22.229Z</time></trkpt><trkpt lat="45.7657667" lon="9.74744"><ele>573.0</ele><time>2026-04-25T08:19:23.229Z</time></trkpt><trkpt lat="45.7657517" lon="9.74728"><ele>572.75</ele><time>2026-04-25T08:19:24.23Z</time></trkpt><trkpt lat="45.7657483" lon="9.7471233"><ele>572.5</ele><time>2026-04-25T08:19:25.231Z</time></trkpt><trkpt lat="45.76574" lon="9.746955"><ele>572.25</ele><time>2026-04-25T08:19:26.23Z</time></trkpt><trkpt lat="45.7657367" lon="9.7467617"><ele>572.0</ele><time>2026-04-25T08:19:27.245Z</time></trkpt><trkpt lat="45.7657367" lon="9.7465517"><ele>572.0</ele><time>2026-04-25T08:19:28.227Z</time></trkpt><trkpt lat="45.765725" lon="9.7463383"><ele>572.0</ele><time>2026-04-25T08:19:29.227Z</time></trkpt><trkpt lat="45.7657017" lon="9.746125"><ele>572.0</ele><time>2026-04-25T08:19:30.228Z</time></trkpt><trkpt lat="45.765675" lon="9.7459167"><ele>572.0</ele><time>2026-04-25T08:19:31.229Z</time></trkpt><trkpt lat="45.765645" lon="9.745715"><ele>572.0</ele><time>2026-04-25T08:19:32.231Z</time></trkpt><trkpt lat="45.7656133" lon="9.7455233"><ele>572.0</ele><time>2026-04-25T08:19:33.23Z</time></trkpt><trkpt lat="45.765575" lon="9.7453483"><ele>572.0</ele><time>2026-04-25T08:19:34.23Z</time></trkpt><trkpt lat="45.7655317" lon="9.7451833"><ele>572.0</ele><time>2026-04-25T08:19:35.23Z</time></trkpt><trkpt lat="45.7654783" lon="9.7450467"><ele>573.2</ele><time>2026-04-25T08:19:36.23Z</time></trkpt><trkpt lat="45.7654083" lon="9.7449517"><ele>574.4000000000001</ele><time>2026-04-25T08:19:37.227Z</time></trkpt><trkpt lat="45.76534" lon="9.7449033"><ele>575.5999999999999</ele><time>2026-04-25T08:19:38.229Z</time></trkpt><trkpt lat="45.7652533" lon="9.7448917"><ele>576.8</ele><time>2026-04-25T08:19:39.228Z</time></trkpt><trkpt lat="45.7651567" lon="9.7449133"><ele>578.0</ele><time>2026-04-25T08:19:40.23Z</time></trkpt><trkpt lat="45.76504" lon="9.7449567"><ele>574.0</ele><time>2026-04-25T08:19:41.229Z</time></trkpt><trkpt lat="45.7649367" lon="9.74501"><ele>570.0</ele><time>2026-04-25T08:19:42.232Z</time></trkpt><trkpt lat="45.76485" lon="9.7450867"><ele>566.0</ele><time>2026-04-25T08:19:43.228Z</time></trkpt><trkpt lat="45.7647783" lon="9.7452017"><ele>562.0</ele><time>2026-04-25T08:19:44.232Z</time></trkpt><trkpt lat="45.7647233" lon="9.745335"><ele>558.0</ele><time>2026-04-25T08:19:45.229Z</time></trkpt><trkpt lat="45.7646767" lon="9.7454917"><ele>555.0</ele><time>2026-04-25T08:19:46.227Z</time></trkpt><trkpt lat="45.7646317" lon="9.7456583"><ele>552.0</ele><time>2026-04-25T08:19:47.228Z</time></trkpt><trkpt lat="45.7645833" lon="9.7458117"><ele>549.0</ele><time>2026-04-25T08:19:48.229Z</time></trkpt><trkpt lat="45.7645233" lon="9.7459417"><ele>546.0</ele><time>2026-04-25T08:19:49.228Z</time></trkpt><trkpt lat="45.7644467" lon="9.7460483"><ele>544.25</ele><time>2026-04-25T08:19:50.228Z</time></trkpt><trkpt lat="45.7643483" lon="9.7461433"><ele>542.5</ele><time>2026-04-25T08:19:51.229Z</time></trkpt><trkpt lat="45.7642433" lon="9.7462183"><ele>540.75</ele><time>2026-04-25T08:19:52.229Z</time></trkpt><trkpt lat="45.7641333" lon="9.74629"><ele>539.0</ele><time>2026-04-25T08:19:53.23Z</time></trkpt><trkpt lat="45.76403" lon="9.7463533"><ele>539.0</ele><time>2026-04-25T08:19:54.228Z</time></trkpt><trkpt lat="45.763925" lon="9.746385"><ele>539.0</ele><time>2026-04-25T08:19:55.227Z</time></trkpt><trkpt lat="45.7638067" lon="9.7463917"><ele>539.0</ele><time>2026-04-25T08:19:56.228Z</time></trkpt><trkpt lat="45.7636817" lon="9.7463817"><ele>539.0</ele><time>2026-04-25T08:19:57.231Z</time></trkpt><trkpt lat="45.763545" lon="9.7463667"><ele>538.2</ele><time>2026-04-25T08:19:58.228Z</time></trkpt><trkpt lat="45.763415" lon="9.7463667"><ele>537.4</ele><time>2026-04-25T08:19:59.229Z</time></trkpt><trkpt lat="45.763295" lon="9.7463783"><ele>536.6</ele><time>2026-04-25T08:20:00.228Z</time></trkpt><trkpt lat="45.7631967" lon="9.7464033"><ele>535.8</ele><time>2026-04-25T08:20:01.229Z</time></trkpt><trkpt lat="45.7631283" lon="9.7464233"><ele>535.0</ele><time>2026-04-25T08:20:02.228Z</time></trkpt><trkpt lat="45.763035" lon="9.7464933"><ele>535.0</ele><time>2026-04-25T08:20:04.228Z</time></trkpt><trkpt lat="45.7629717" lon="9.7465983"><ele>535.0</ele><time>2026-04-25T08:20:06.229Z</time></trkpt><trkpt lat="45.7629383" lon="9.74681"><ele>535.0</ele><time>2026-04-25T08:20:08.23Z</time></trkpt><trkpt lat="45.7628917" lon="9.746915"><ele>535.0</ele><time>2026-04-25T08:20:09.229Z</time></trkpt><trkpt lat="45.76283" lon="9.747015"><ele>535.0</ele><time>2026-04-25T08:20:10.231Z</time></trkpt><trkpt lat="45.7627283" lon="9.7471283"><ele>533.75</ele><time>2026-04-25T08:20:11.229Z</time></trkpt><trkpt lat="45.7626217" lon="9.7472417"><ele>532.5</ele><time>2026-04-25T08:20:12.229Z</time></trkpt><trkpt lat="45.7625117" lon="9.7473833"><ele>531.25</ele><time>2026-04-25T08:20:13.231Z</time></trkpt><trkpt lat="45.7624033" lon="9.747545"><ele>530.0</ele><time>2026-04-25T08:20:14.228Z</time></trkpt><trkpt lat="45.7622883" lon="9.747715"><ele>525.0</ele><time>2026-04-25T08:20:15.229Z</time></trkpt><trkpt lat="45.76217" lon="9.747885"><ele>520.0</ele><time>2026-04-25T08:20:16.227Z</time></trkpt><trkpt lat="45.762055" lon="9.7480517"><ele>515.0</ele><time>2026-04-25T08:20:17.231Z</time></trkpt><trkpt lat="45.7619467" lon="9.7482067"><ele>515.0</ele><time>2026-04-25T08:20:18.228Z</time></trkpt><trkpt lat="45.7618367" lon="9.74835"><ele>515.0</ele><time>2026-04-25T08:20:19.23Z</time></trkpt><trkpt lat="45.76173" lon="9.748485"><ele>515.0</ele><time>2026-04-25T08:20:20.228Z</time></trkpt><trkpt lat="45.76163" lon="9.7486167"><ele>515.0</ele><time>2026-04-25T08:20:21.228Z</time></trkpt><trkpt lat="45.7615317" lon="9.74874"><ele>515.0</ele><time>2026-04-25T08:20:22.227Z</time></trkpt><trkpt lat="45.7614317" lon="9.7488717"><ele>515.0</ele><time>2026-04-25T08:20:23.227Z</time></trkpt><trkpt lat="45.76134" lon="9.74902"><ele>515.0</ele><time>2026-04-25T08:20:24.228Z</time></trkpt><trkpt lat="45.76126" lon="9.7491933"><ele>515.0</ele><time>2026-04-25T08:20:25.228Z</time></trkpt><trkpt lat="45.7611867" lon="9.749385"><ele>516.6666666666666</ele><time>2026-04-25T08:20:26.229Z</time></trkpt><trkpt lat="45.7611033" lon="9.7495883"><ele>518.3333333333334</ele><time>2026-04-25T08:20:27.229Z</time></trkpt><trkpt lat="45.7610083" lon="9.7497883"><ele>520.0</ele><time>2026-04-25T08:20:28.228Z</time></trkpt><trkpt lat="45.7609067" lon="9.74998"><ele>520.0</ele><time>2026-04-25T08:20:29.228Z</time></trkpt><trkpt lat="45.7608083" lon="9.7501683"><ele>520.0</ele><time>2026-04-25T08:20:30.228Z</time></trkpt><trkpt lat="45.7607133" lon="9.750355"><ele>520.0</ele><time>2026-04-25T08:20:31.229Z</time></trkpt><trkpt lat="45.760625" lon="9.7505317"><ele>514.0</ele><time>2026-04-25T08:20:32.229Z</time></trkpt><trkpt lat="45.7605417" lon="9.7506933"><ele>508.0</ele><time>2026-04-25T08:20:33.231Z</time></trkpt><trkpt lat="45.7604717" lon="9.750845"><ele>502.0</ele><time>2026-04-25T08:20:34.228Z</time></trkpt><trkpt lat="45.7604033" lon="9.75098"><ele>496.0</ele><time>2026-04-25T08:20:35.228Z</time></trkpt><trkpt lat="45.7603433" lon="9.7510967"><ele>496.6</ele><time>2026-04-25T08:20:36.231Z</time></trkpt><trkpt lat="45.76029" lon="9.75119"><ele>497.20000000000005</ele><time>2026-04-25T08:20:37.228Z</time></trkpt><trkpt lat="45.7602367" lon="9.751265"><ele>497.79999999999995</ele><time>2026-04-25T08:20:38.229Z</time></trkpt><trkpt lat="45.7601883" lon="9.7513283"><ele>498.4</ele><time>2026-04-25T08:20:39.231Z</time></trkpt><trkpt lat="45.760045" lon="9.7513933"><ele>499.0</ele><time>2026-04-25T08:20:41.228Z</time></trkpt><trkpt lat="45.7599583" lon="9.7514433"><ele>499.0</ele><time>2026-04-25T08:20:42.228Z</time></trkpt><trkpt lat="45.7598667" lon="9.751515"><ele>499.0</ele><time>2026-04-25T08:20:43.23Z</time></trkpt><trkpt lat="45.7597767" lon="9.751605"><ele>499.0</ele><time>2026-04-25T08:20:44.228Z</time></trkpt><trkpt lat="45.7596867" lon="9.7516783"><ele>499.0</ele><time>2026-04-25T08:20:45.229Z</time></trkpt><trkpt lat="45.7596017" lon="9.7517317"><ele>499.0</ele><time>2026-04-25T08:20:46.228Z</time></trkpt><trkpt lat="45.7595217" lon="9.7517767"><ele>499.00000000000006</ele><time>2026-04-25T08:20:47.229Z</time></trkpt><trkpt lat="45.7594567" lon="9.751835"><ele>499.0</ele><time>2026-04-25T08:20:48.231Z</time></trkpt><trkpt lat="45.7594367" lon="9.7519667"><ele>499.0</ele><time>2026-04-25T08:20:50.231Z</time></trkpt><trkpt lat="45.75952" lon="9.7520117"><ele>499.0</ele><time>2026-04-25T08:20:52.233Z</time></trkpt><trkpt lat="45.75958" lon="9.7519633"><ele>499.00000000000006</ele><time>2026-04-25T08:20:53.229Z</time></trkpt><trkpt lat="45.7596567" lon="9.75189"><ele>499.0</ele><time>2026-04-25T08:20:54.229Z</time></trkpt><trkpt lat="45.7597367" lon="9.7518083"><ele>499.00000000000006</ele><time>2026-04-25T08:20:55.23Z</time></trkpt><trkpt lat="45.7598133" lon="9.75173"><ele>499.0</ele><time>2026-04-25T08:20:56.23Z</time></trkpt><trkpt lat="45.759885" lon="9.7516633"><ele>499.0</ele><time>2026-04-25T08:20:57.228Z</time></trkpt><trkpt lat="45.75995" lon="9.7516067"><ele>499.0</ele><time>2026-04-25T08:20:58.229Z</time></trkpt><trkpt lat="45.7600083" lon="9.751565"><ele>499.00000000000006</ele><time>2026-04-25T08:20:59.228Z</time></trkpt><trkpt lat="45.76003" lon="9.75166"><ele>499.0</ele><time>2026-04-25T08:21:03.229Z</time></trkpt><trkpt lat="45.7599417" lon="9.75173"><ele>499.0</ele><time>2026-04-25T08:21:05.228Z</time></trkpt><trkpt lat="45.7598733" lon="9.7517833"><ele>499.0</ele><time>2026-04-25T08:21:06.228Z</time></trkpt><trkpt lat="45.759785" lon="9.7518617"><ele>499.0</ele><time>2026-04-25T08:21:07.228Z</time></trkpt><trkpt lat="45.759665" lon="9.7519683"><ele>499.0</ele><time>2026-04-25T08:21:08.228Z</time></trkpt><trkpt lat="45.7595467" lon="9.7520767"><ele>495.25</ele><time>2026-04-25T08:21:09.23Z</time></trkpt><trkpt lat="45.7594267" lon="9.75217"><ele>491.5</ele><time>2026-04-25T08:21:10.229Z</time></trkpt><trkpt lat="45.75931" lon="9.7522567"><ele>487.75</ele><time>2026-04-25T08:21:11.229Z</time></trkpt><trkpt lat="45.7592067" lon="9.7523267"><ele>484.0</ele><time>2026-04-25T08:21:12.229Z</time></trkpt><trkpt lat="45.7591167" lon="9.7523833"><ele>484.00000000000006</ele><time>2026-04-25T08:21:13.23Z</time></trkpt><trkpt lat="45.7590467" lon="9.7524117"><ele>484.0</ele><time>2026-04-25T08:21:14.229Z</time></trkpt><trkpt lat="45.7589767" lon="9.7524217"><ele>484.0</ele><time>2026-04-25T08:21:15.228Z</time></trkpt><trkpt lat="45.7588967" lon="9.7524033"><ele>484.0</ele><time>2026-04-25T08:21:16.228Z</time></trkpt><trkpt lat="45.75882" lon="9.7523733"><ele>484.00000000000006</ele><time>2026-04-25T08:21:17.228Z</time></trkpt><trkpt lat="45.7587433" lon="9.752355"><ele>484.0</ele><time>2026-04-25T08:21:18.228Z</time></trkpt><trkpt lat="45.7586583" lon="9.75238"><ele>484.00000000000006</ele><time>2026-04-25T08:21:19.228Z</time></trkpt><trkpt lat="45.75859" lon="9.7524433"><ele>484.0</ele><time>2026-04-25T08:21:20.228Z</time></trkpt><trkpt lat="45.75854" lon="9.7525233"><ele>484.0</ele><time>2026-04-25T08:21:21.228Z</time></trkpt><trkpt lat="45.7584867" lon="9.75262"><ele>484.0</ele><time>2026-04-25T08:21:22.229Z</time></trkpt><trkpt lat="45.7584267" lon="9.7527183"><ele>484.00000000000006</ele><time>2026-04-25T08:21:23.23Z</time></trkpt><trkpt lat="45.7583667" lon="9.75281"><ele>484.0</ele><time>2026-04-25T08:21:24.228Z</time></trkpt><trkpt lat="45.758315" lon="9.7528933"><ele>483.4</ele><time>2026-04-25T08:21:25.228Z</time></trkpt><trkpt lat="45.7582967" lon="9.75305"><ele>482.79999999999995</ele><time>2026-04-25T08:21:27.228Z</time></trkpt><trkpt lat="45.758385" lon="9.75307"><ele>482.20000000000005</ele><time>2026-04-25T08:21:29.231Z</time></trkpt><trkpt lat="45.758465" lon="9.7529333"><ele>481.6</ele><time>2026-04-25T08:21:31.23Z</time></trkpt><trkpt lat="45.758505" lon="9.7528333"><ele>481.0</ele><time>2026-04-25T08:21:32.229Z</time></trkpt><trkpt lat="45.7585417" lon="9.7527333"><ele>481.50000000000006</ele><time>2026-04-25T08:21:33.231Z</time></trkpt><trkpt lat="45.7585833" lon="9.752645"><ele>482.0</ele><time>2026-04-25T08:21:34.229Z</time></trkpt><trkpt lat="45.7586283" lon="9.75258"><ele>482.5</ele><time>2026-04-25T08:21:35.229Z</time></trkpt><trkpt lat="45.7586967" lon="9.7526217"><ele>483.0</ele><time>2026-04-25T08:21:38.229Z</time></trkpt><trkpt lat="45.7586717" lon="9.7527467"><ele>483.50000000000006</ele><time>2026-04-25T08:21:40.228Z</time></trkpt><trkpt lat="45.7586267" lon="9.75283"><ele>484.0</ele><time>2026-04-25T08:21:41.229Z</time></trkpt><trkpt lat="45.75855" lon="9.7529433"><ele>483.25</ele><time>2026-04-25T08:21:42.228Z</time></trkpt><trkpt lat="45.7584667" lon="9.753075"><ele>482.5</ele><time>2026-04-25T08:21:43.228Z</time></trkpt><trkpt lat="45.75838" lon="9.7532133"><ele>481.75</ele><time>2026-04-25T08:21:44.229Z</time></trkpt><trkpt lat="45.7582933" lon="9.7533583"><ele>481.0</ele><time>2026-04-25T08:21:45.228Z</time></trkpt><trkpt lat="45.7582117" lon="9.7534967"><ele>475.25</ele><time>2026-04-25T08:21:46.228Z</time></trkpt><trkpt lat="45.7581317" lon="9.75364"><ele>469.5</ele><time>2026-04-25T08:21:47.228Z</time></trkpt><trkpt lat="45.758055" lon="9.7537883"><ele>463.75</ele><time>2026-04-25T08:21:48.23Z</time></trkpt><trkpt lat="45.7579817" lon="9.7539433"><ele>458.0</ele><time>2026-04-25T08:21:49.231Z</time></trkpt><trkpt lat="45.7579117" lon="9.7540917"><ele>458.0</ele><time>2026-04-25T08:21:50.231Z</time></trkpt><trkpt lat="45.757835" lon="9.7542367"><ele>458.0</ele><time>2026-04-25T08:21:51.234Z</time></trkpt><trkpt lat="45.7577533" lon="9.7543683"><ele>458.0</ele><time>2026-04-25T08:21:52.231Z</time></trkpt><trkpt lat="45.7576717" lon="9.75448"><ele>458.0</ele><time>2026-04-25T08:21:53.231Z</time></trkpt><trkpt lat="45.7575867" lon="9.7545733"><ele>458.99999999999994</ele><time>2026-04-25T08:21:54.231Z</time></trkpt><trkpt lat="45.7575033" lon="9.7546367"><ele>460.0</ele><time>2026-04-25T08:21:55.229Z</time></trkpt><trkpt lat="45.75743" lon="9.7546817"><ele>461.0</ele><time>2026-04-25T08:21:56.228Z</time></trkpt><trkpt lat="45.7573633" lon="9.754715"><ele>462.0</ele><time>2026-04-25T08:21:57.228Z</time></trkpt><trkpt lat="45.7572783" lon="9.7548067"><ele>462.99999999999994</ele><time>2026-04-25T08:21:59.23Z</time></trkpt><trkpt lat="45.7573033" lon="9.7549267"><ele>464.0</ele><time>2026-04-25T08:22:01.229Z</time></trkpt><trkpt lat="45.75741" lon="9.7548833"><ele>463.99999999999994</ele><time>2026-04-25T08:22:03.228Z</time></trkpt><trkpt lat="45.7574733" lon="9.7548167"><ele>464.0</ele><time>2026-04-25T08:22:04.229Z</time></trkpt><trkpt lat="45.7575433" lon="9.7547467"><ele>464.0</ele><time>2026-04-25T08:22:05.231Z</time></trkpt><trkpt lat="45.757615" lon="9.7546733"><ele>464.0</ele><time>2026-04-25T08:22:06.231Z</time></trkpt><trkpt lat="45.7576783" lon="9.754605"><ele>463.99999999999994</ele><time>2026-04-25T08:22:07.23Z</time></trkpt><trkpt lat="45.7577267" lon="9.7545467"><ele>464.0</ele><time>2026-04-25T08:22:08.229Z</time></trkpt><trkpt lat="45.7578017" lon="9.7544717"><ele>463.99999999999994</ele><time>2026-04-25T08:22:10.23Z</time></trkpt><trkpt lat="45.7578667" lon="9.7544283"><ele>464.0</ele><time>2026-04-25T08:22:13.229Z</time></trkpt><trkpt lat="45.75786" lon="9.7545483"><ele>464.0</ele><time>2026-04-25T08:22:17.229Z</time></trkpt><trkpt lat="45.7578" lon="9.7546333"><ele>464.0</ele><time>2026-04-25T08:22:18.228Z</time></trkpt><trkpt lat="45.757735" lon="9.7547267"><ele>463.99999999999994</ele><time>2026-04-25T08:22:19.231Z</time></trkpt><trkpt lat="45.7576483" lon="9.75484"><ele>464.0</ele><time>2026-04-25T08:22:20.23Z</time></trkpt><trkpt lat="45.7575383" lon="9.7549583"><ele>464.0</ele><time>2026-04-25T08:22:21.229Z</time></trkpt><trkpt lat="45.757415" lon="9.7550867"><ele>464.0</ele><time>2026-04-25T08:22:22.231Z</time></trkpt><trkpt lat="45.7573" lon="9.75521"><ele>464.0</ele><time>2026-04-25T08:22:23.23Z</time></trkpt><trkpt lat="45.757195" lon="9.755325"><ele>464.0</ele><time>2026-04-25T08:22:24.229Z</time></trkpt><trkpt lat="45.757095" lon="9.7554433"><ele>465.25</ele><time>2026-04-25T08:22:25.228Z</time></trkpt><trkpt lat="45.7570033" lon="9.75557"><ele>466.5</ele><time>2026-04-25T08:22:26.228Z</time></trkpt><trkpt lat="45.756905" lon="9.7557233"><ele>467.75</ele><time>2026-04-25T08:22:27.229Z</time></trkpt><trkpt lat="45.7568017" lon="9.7558867"><ele>469.0</ele><time>2026-04-25T08:22:28.229Z</time></trkpt><trkpt lat="45.7567067" lon="9.7560567"><ele>463.25</ele><time>2026-04-25T08:22:29.229Z</time></trkpt><trkpt lat="45.75662" lon="9.7562317"><ele>457.5</ele><time>2026-04-25T08:22:30.228Z</time></trkpt><trkpt lat="45.7565517" lon="9.7564"><ele>451.75</ele><time>2026-04-25T08:22:31.229Z</time></trkpt><trkpt lat="45.75649" lon="9.7565533"><ele>446.0</ele><time>2026-04-25T08:22:32.228Z</time></trkpt><trkpt lat="45.75642" lon="9.7566883"><ele>446.0</ele><time>2026-04-25T08:22:33.229Z</time></trkpt><trkpt lat="45.7563433" lon="9.7568"><ele>446.0</ele><time>2026-04-25T08:22:34.228Z</time></trkpt><trkpt lat="45.7562467" lon="9.7569017"><ele>446.0</ele><time>2026-04-25T08:22:35.229Z</time></trkpt><trkpt lat="45.7561417" lon="9.7569967"><ele>446.0</ele><time>2026-04-25T08:22:36.229Z</time></trkpt><trkpt lat="45.756045" lon="9.7570733"><ele>444.0</ele><time>2026-04-25T08:22:37.229Z</time></trkpt><trkpt lat="45.7559367" lon="9.7571367"><ele>442.0</ele><time>2026-04-25T08:22:38.23Z</time></trkpt><trkpt lat="45.75581" lon="9.7571783"><ele>440.0</ele><time>2026-04-25T08:22:39.23Z</time></trkpt><trkpt lat="45.755675" lon="9.757205"><ele>438.0</ele><time>2026-04-25T08:22:40.228Z</time></trkpt><trkpt lat="45.7555483" lon="9.75722"><ele>438.0</ele><time>2026-04-25T08:22:41.229Z</time></trkpt><trkpt lat="45.7554383" lon="9.75724"><ele>437.99999999999994</ele><time>2026-04-25T08:22:42.23Z</time></trkpt><trkpt lat="45.7553417" lon="9.7572783"><ele>437.99999999999994</ele><time>2026-04-25T08:22:43.23Z</time></trkpt><trkpt lat="45.7552567" lon="9.75735"><ele>438.0</ele><time>2026-04-25T08:22:44.231Z</time></trkpt><trkpt lat="45.7551783" lon="9.7574617"><ele>438.0</ele><time>2026-04-25T08:22:45.228Z</time></trkpt><trkpt lat="45.7551033" lon="9.75761"><ele>435.66666666666663</ele><time>2026-04-25T08:22:46.229Z</time></trkpt><trkpt lat="45.755025" lon="9.757805"><ele>433.3333333333333</ele><time>2026-04-25T08:22:47.228Z</time></trkpt><trkpt lat="45.75493" lon="9.7580167"><ele>431.0</ele><time>2026-04-25T08:22:48.229Z</time></trkpt><trkpt lat="45.7548367" lon="9.7582233"><ele>431.0</ele><time>2026-04-25T08:22:49.229Z</time></trkpt><trkpt lat="45.7547467" lon="9.7584217"><ele>431.0</ele><time>2026-04-25T08:22:50.228Z</time></trkpt><trkpt lat="45.75467" lon="9.75861"><ele>431.0</ele><time>2026-04-25T08:22:51.229Z</time></trkpt><trkpt lat="45.7546" lon="9.758765"><ele>431.0</ele><time>2026-04-25T08:22:52.229Z</time></trkpt><trkpt lat="45.754525" lon="9.7588983"><ele>431.0</ele><time>2026-04-25T08:22:53.229Z</time></trkpt><trkpt lat="45.7544367" lon="9.7590167"><ele>431.0</ele><time>2026-04-25T08:22:54.243Z</time></trkpt><trkpt lat="45.7543417" lon="9.759135"><ele>431.0</ele><time>2026-04-25T08:22:55.228Z</time></trkpt><trkpt lat="45.754245" lon="9.7592433"><ele>431.0</ele><time>2026-04-25T08:22:56.228Z</time></trkpt><trkpt lat="45.7541483" lon="9.7593283"><ele>424.25</ele><time>2026-04-25T08:22:57.227Z</time></trkpt><trkpt lat="45.754045" lon="9.7593883"><ele>417.5</ele><time>2026-04-25T08:22:58.227Z</time></trkpt><trkpt lat="45.7539317" lon="9.759435"><ele>410.75</ele><time>2026-04-25T08:22:59.227Z</time></trkpt><trkpt lat="45.7538" lon="9.75946"><ele>404.0</ele><time>2026-04-25T08:23:00.228Z</time></trkpt><trkpt lat="45.7536683" lon="9.7595"><ele>407.75</ele><time>2026-04-25T08:23:01.227Z</time></trkpt><trkpt lat="45.7535283" lon="9.7595683"><ele>411.5</ele><time>2026-04-25T08:23:02.227Z</time></trkpt><trkpt lat="45.7533983" lon="9.7596483"><ele>415.25</ele><time>2026-04-25T08:23:03.229Z</time></trkpt><trkpt lat="45.75328" lon="9.75974"><ele>419.0</ele><time>2026-04-25T08:23:04.227Z</time></trkpt><trkpt lat="45.7531733" lon="9.75984"><ele>419.0</ele><time>2026-04-25T08:23:05.227Z</time></trkpt><trkpt lat="45.7530733" lon="9.759935"><ele>419.0</ele><time>2026-04-25T08:23:06.227Z</time></trkpt><trkpt lat="45.7529667" lon="9.7600117"><ele>419.0</ele><time>2026-04-25T08:23:07.228Z</time></trkpt><trkpt lat="45.7528517" lon="9.7600633"><ele>419.0</ele><time>2026-04-25T08:23:08.227Z</time></trkpt><trkpt lat="45.7527283" lon="9.7601117"><ele>419.0</ele><time>2026-04-25T08:23:09.227Z</time></trkpt><trkpt lat="45.75261" lon="9.7601717"><ele>419.0</ele><time>2026-04-25T08:23:10.227Z</time></trkpt><trkpt lat="45.7525017" lon="9.7602333"><ele>419.0</ele><time>2026-04-25T08:23:11.228Z</time></trkpt><trkpt lat="45.7523983" lon="9.7602767"><ele>419.0</ele><time>2026-04-25T08:23:12.228Z</time></trkpt><trkpt lat="45.7522833" lon="9.7603017"><ele>413.75</ele><time>2026-04-25T08:23:13.226Z</time></trkpt><trkpt lat="45.7521467" lon="9.7603233"><ele>408.5</ele><time>2026-04-25T08:23:14.227Z</time></trkpt><trkpt lat="45.752" lon="9.7603467"><ele>403.25</ele><time>2026-04-25T08:23:15.229Z</time></trkpt><trkpt lat="45.7518533" lon="9.7603733"><ele>398.0</ele><time>2026-04-25T08:23:16.229Z</time></trkpt><trkpt lat="45.7517067" lon="9.7603967"><ele>395.25</ele><time>2026-04-25T08:23:17.23Z</time></trkpt><trkpt lat="45.751565" lon="9.76043"><ele>392.5</ele><time>2026-04-25T08:23:18.229Z</time></trkpt><trkpt lat="45.7514267" lon="9.7604683"><ele>389.75</ele><time>2026-04-25T08:23:19.229Z</time></trkpt><trkpt lat="45.751295" lon="9.7604933"><ele>387.0</ele><time>2026-04-25T08:23:20.228Z</time></trkpt><trkpt lat="45.7511667" lon="9.7604983"><ele>387.0</ele><time>2026-04-25T08:23:21.229Z</time></trkpt><trkpt lat="45.7510433" lon="9.7604717"><ele>387.0</ele><time>2026-04-25T08:23:22.23Z</time></trkpt><trkpt lat="45.7509217" lon="9.7604117"><ele>387.0</ele><time>2026-04-25T08:23:23.228Z</time></trkpt><trkpt lat="45.75079" lon="9.7603317"><ele>387.0</ele><time>2026-04-25T08:23:24.228Z</time></trkpt><trkpt lat="45.75065" lon="9.76024"><ele>391.66666666666663</ele><time>2026-04-25T08:23:25.229Z</time></trkpt><trkpt lat="45.7505067" lon="9.7601517"><ele>396.3333333333333</ele><time>2026-04-25T08:23:26.227Z</time></trkpt><trkpt lat="45.75037" lon="9.7600667"><ele>401.0</ele><time>2026-04-25T08:23:27.228Z</time></trkpt><trkpt lat="45.7502367" lon="9.7599833"><ele>399.75</ele><time>2026-04-25T08:23:28.228Z</time></trkpt><trkpt lat="45.7501033" lon="9.7598967"><ele>398.5</ele><time>2026-04-25T08:23:29.228Z</time></trkpt><trkpt lat="45.749965" lon="9.7598067"><ele>397.25</ele><time>2026-04-25T08:23:30.228Z</time></trkpt><trkpt lat="45.7498283" lon="9.7597167"><ele>396.0</ele><time>2026-04-25T08:23:31.227Z</time></trkpt><trkpt lat="45.7496983" lon="9.7596283"><ele>396.0</ele><time>2026-04-25T08:23:32.228Z</time></trkpt><trkpt lat="45.7495817" lon="9.7595317"><ele>396.0</ele><time>2026-04-25T08:23:33.227Z</time></trkpt><trkpt lat="45.7494767" lon="9.7594217"><ele>396.0</ele><time>2026-04-25T08:23:34.227Z</time></trkpt><trkpt lat="45.7493783" lon="9.7593067"><ele>396.0</ele><time>2026-04-25T08:23:35.229Z</time></trkpt><trkpt lat="45.7492767" lon="9.75921"><ele>395.25</ele><time>2026-04-25T08:23:36.227Z</time></trkpt><trkpt lat="45.7491733" lon="9.7591333"><ele>394.5</ele><time>2026-04-25T08:23:37.227Z</time></trkpt><trkpt lat="45.7490633" lon="9.7590967"><ele>393.75</ele><time>2026-04-25T08:23:38.23Z</time></trkpt><trkpt lat="45.74894" lon="9.759085"><ele>393.0</ele><time>2026-04-25T08:23:39.23Z</time></trkpt><trkpt lat="45.748805" lon="9.7590833"><ele>393.0</ele><time>2026-04-25T08:23:40.229Z</time></trkpt><trkpt lat="45.7486617" lon="9.7590783"><ele>393.0</ele><time>2026-04-25T08:23:41.227Z</time></trkpt><trkpt lat="45.7485233" lon="9.7590667"><ele>393.0</ele><time>2026-04-25T08:23:42.229Z</time></trkpt><trkpt lat="45.748395" lon="9.759055"><ele>393.0</ele><time>2026-04-25T08:23:43.23Z</time></trkpt><trkpt lat="45.7482883" lon="9.7590217"><ele>391.5</ele><time>2026-04-25T08:23:44.227Z</time></trkpt><trkpt lat="45.748195" lon="9.7589533"><ele>390.0</ele><time>2026-04-25T08:23:45.228Z</time></trkpt><trkpt lat="45.748105" lon="9.7588533"><ele>388.5</ele><time>2026-04-25T08:23:46.227Z</time></trkpt><trkpt lat="45.7480133" lon="9.7587467"><ele>387.0</ele><time>2026-04-25T08:23:47.228Z</time></trkpt><trkpt lat="45.7479217" lon="9.75864"><ele>387.0</ele><time>2026-04-25T08:23:48.228Z</time></trkpt><trkpt lat="45.747815" lon="9.7585483"><ele>387.0</ele><time>2026-04-25T08:23:49.229Z</time></trkpt><trkpt lat="45.7476917" lon="9.7584717"><ele>387.0</ele><time>2026-04-25T08:23:50.228Z</time></trkpt><trkpt lat="45.7475567" lon="9.7584217"><ele>387.0</ele><time>2026-04-25T08:23:51.227Z</time></trkpt><trkpt lat="45.7474183" lon="9.758395"><ele>384.5</ele><time>2026-04-25T08:23:52.228Z</time></trkpt><trkpt lat="45.74728" lon="9.7583933"><ele>382.0</ele><time>2026-04-25T08:23:53.227Z</time></trkpt><trkpt lat="45.7471433" lon="9.7584"><ele>379.5</ele><time>2026-04-25T08:23:54.233Z</time></trkpt><trkpt lat="45.7470083" lon="9.758415"><ele>377.0</ele><time>2026-04-25T08:23:55.228Z</time></trkpt><trkpt lat="45.74688" lon="9.758435"><ele>379.25</ele><time>2026-04-25T08:23:56.228Z</time></trkpt><trkpt lat="45.7467633" lon="9.7584733"><ele>381.5</ele><time>2026-04-25T08:23:57.228Z</time></trkpt><trkpt lat="45.74665" lon="9.7585233"><ele>383.75</ele><time>2026-04-25T08:23:58.228Z</time></trkpt><trkpt lat="45.7465483" lon="9.758585"><ele>386.0</ele><time>2026-04-25T08:23:59.229Z</time></trkpt><trkpt lat="45.746445" lon="9.7586467"><ele>386.0</ele><time>2026-04-25T08:24:00.228Z</time></trkpt><trkpt lat="45.7463483" lon="9.7587033"><ele>386.0</ele><time>2026-04-25T08:24:01.228Z</time></trkpt><trkpt lat="45.7462517" lon="9.7587383"><ele>386.0</ele><time>2026-04-25T08:24:02.227Z</time></trkpt><trkpt lat="45.746165" lon="9.75877"><ele>386.0</ele><time>2026-04-25T08:24:03.228Z</time></trkpt><trkpt lat="45.746085" lon="9.7588117"><ele>386.0</ele><time>2026-04-25T08:24:04.231Z</time></trkpt><trkpt lat="45.7460183" lon="9.7588767"><ele>380.20000000000005</ele><time>2026-04-25T08:24:05.228Z</time></trkpt><trkpt lat="45.7459683" lon="9.75896"><ele>374.40000000000003</ele><time>2026-04-25T08:24:06.227Z</time></trkpt><trkpt lat="45.74596" lon="9.7591167"><ele>368.6</ele><time>2026-04-25T08:24:07.227Z</time></trkpt><trkpt lat="45.7459567" lon="9.7592883"><ele>362.8</ele><time>2026-04-25T08:24:08.227Z</time></trkpt><trkpt lat="45.7459617" lon="9.7594667"><ele>357.0</ele><time>2026-04-25T08:24:09.227Z</time></trkpt><trkpt lat="45.7459717" lon="9.7596267"><ele>355.5</ele><time>2026-04-25T08:24:10.23Z</time></trkpt><trkpt lat="45.746" lon="9.7597733"><ele>354.0</ele><time>2026-04-25T08:24:11.228Z</time></trkpt><trkpt lat="45.7460483" lon="9.7599117"><ele>352.5</ele><time>2026-04-25T08:24:12.229Z</time></trkpt><trkpt lat="45.7461233" lon="9.76005"><ele>351.0</ele><time>2026-04-25T08:24:13.23Z</time></trkpt><trkpt lat="45.7462217" lon="9.7601717"><ele>351.0</ele><time>2026-04-25T08:24:14.227Z</time></trkpt><trkpt lat="45.7463383" lon="9.76028"><ele>351.0</ele><time>2026-04-25T08:24:15.229Z</time></trkpt><trkpt lat="45.7464633" lon="9.7603867"><ele>351.0</ele><time>2026-04-25T08:24:16.23Z</time></trkpt><trkpt lat="45.7465983" lon="9.7604983"><ele>351.0</ele><time>2026-04-25T08:24:17.229Z</time></trkpt><trkpt lat="45.746735" lon="9.7606167"><ele>351.0</ele><time>2026-04-25T08:24:18.229Z</time></trkpt><trkpt lat="45.746865" lon="9.7607333"><ele>351.0</ele><time>2026-04-25T08:24:19.227Z</time></trkpt><trkpt lat="45.7469883" lon="9.7608483"><ele>351.0</ele><time>2026-04-25T08:24:20.227Z</time></trkpt><trkpt lat="45.7471117" lon="9.76097"><ele>348.5</ele><time>2026-04-25T08:24:21.228Z</time></trkpt><trkpt lat="45.7472383" lon="9.761075"><ele>346.0</ele><time>2026-04-25T08:24:22.227Z</time></trkpt><trkpt lat="45.747365" lon="9.7611633"><ele>343.5</ele><time>2026-04-25T08:24:23.227Z</time></trkpt><trkpt lat="45.7474817" lon="9.7612617"><ele>341.0</ele><time>2026-04-25T08:24:24.231Z</time></trkpt><trkpt lat="45.74759" lon="9.7613683"><ele>341.0</ele><time>2026-04-25T08:24:25.228Z</time></trkpt><trkpt lat="45.7476767" lon="9.76147"><ele>341.0</ele><time>2026-04-25T08:24:26.228Z</time></trkpt><trkpt lat="45.7477467" lon="9.761565"><ele>341.0</ele><time>2026-04-25T08:24:27.228Z</time></trkpt><trkpt lat="45.747815" lon="9.7616383"><ele>341.0</ele><time>2026-04-25T08:24:28.229Z</time></trkpt><trkpt lat="45.7478867" lon="9.7616783"><ele>341.0</ele><time>2026-04-25T08:24:29.229Z</time></trkpt><trkpt lat="45.747965" lon="9.7616567"><ele>340.83333333333337</ele><time>2026-04-25T08:24:30.229Z</time></trkpt><trkpt lat="45.7480367" lon="9.7616"><ele>340.6666666666667</ele><time>2026-04-25T08:24:31.227Z</time></trkpt><trkpt lat="45.7481117" lon="9.7615233"><ele>340.5</ele><time>2026-04-25T08:24:32.229Z</time></trkpt><trkpt lat="45.7481833" lon="9.7614467"><ele>340.3333333333333</ele><time>2026-04-25T08:24:33.228Z</time></trkpt><trkpt lat="45.74825" lon="9.76138"><ele>340.16666666666663</ele><time>2026-04-25T08:24:34.229Z</time></trkpt><trkpt lat="45.7483133" lon="9.7613367"><ele>340.0</ele><time>2026-04-25T08:24:35.228Z</time></trkpt><trkpt lat="45.7483883" lon="9.761425"><ele>340.0</ele><time>2026-04-25T08:24:37.229Z</time></trkpt><trkpt lat="45.7483683" lon="9.7615517"><ele>340.0</ele><time>2026-04-25T08:24:39.229Z</time></trkpt><trkpt lat="45.7482517" lon="9.761665"><ele>340.0</ele><time>2026-04-25T08:24:41.228Z</time></trkpt><trkpt lat="45.7481733" lon="9.7617367"><ele>340.0</ele><time>2026-04-25T08:24:42.229Z</time></trkpt><trkpt lat="45.7480867" lon="9.7618067"><ele>340.0</ele><time>2026-04-25T08:24:43.228Z</time></trkpt><trkpt lat="45.7479983" lon="9.76186"><ele>338.2</ele><time>2026-04-25T08:24:44.228Z</time></trkpt><trkpt lat="45.747905" lon="9.7618933"><ele>336.4</ele><time>2026-04-25T08:24:45.228Z</time></trkpt><trkpt lat="45.7478083" lon="9.7619283"><ele>334.6</ele><time>2026-04-25T08:24:46.228Z</time></trkpt><trkpt lat="45.7476983" lon="9.76196"><ele>332.8</ele><time>2026-04-25T08:24:47.23Z</time></trkpt><trkpt lat="45.747585" lon="9.7619783"><ele>331.0</ele><time>2026-04-25T08:24:48.228Z</time></trkpt><trkpt lat="45.7474767" lon="9.7619683"><ele>331.0</ele><time>2026-04-25T08:24:49.228Z</time></trkpt><trkpt lat="45.74737" lon="9.7619317"><ele>331.0</ele><time>2026-04-25T08:24:50.228Z</time></trkpt><trkpt lat="45.747275" lon="9.7618683"><ele>331.0</ele><time>2026-04-25T08:24:51.227Z</time></trkpt><trkpt lat="45.747185" lon="9.7617967"><ele>331.0</ele><time>2026-04-25T08:24:52.229Z</time></trkpt><trkpt lat="45.74709" lon="9.7617267"><ele>331.0</ele><time>2026-04-25T08:24:53.227Z</time></trkpt><trkpt lat="45.7469967" lon="9.7616717"><ele>331.3333333333333</ele><time>2026-04-25T08:24:54.227Z</time></trkpt><trkpt lat="45.7469033" lon="9.761625"><ele>331.66666666666663</ele><time>2026-04-25T08:24:55.229Z</time></trkpt><trkpt lat="45.7468133" lon="9.7615833"><ele>332.0</ele><time>2026-04-25T08:24:56.229Z</time></trkpt><trkpt lat="45.7467283" lon="9.7615483"><ele>332.3333333333333</ele><time>2026-04-25T08:24:57.229Z</time></trkpt><trkpt lat="45.7466467" lon="9.7615217"><ele>332.6666666666667</ele><time>2026-04-25T08:24:58.227Z</time></trkpt><trkpt lat="45.7465667" lon="9.7615133"><ele>333.0</ele><time>2026-04-25T08:24:59.228Z</time></trkpt><trkpt lat="45.7464883" lon="9.7615267"><ele>333.0</ele><time>2026-04-25T08:25:00.227Z</time></trkpt><trkpt lat="45.74644" lon="9.7616017"><ele>333.0</ele><time>2026-04-25T08:25:01.228Z</time></trkpt><trkpt lat="45.7464067" lon="9.761695"><ele>333.0</ele><time>2026-04-25T08:25:02.229Z</time></trkpt><trkpt lat="45.7463767" lon="9.7618"><ele>333.0</ele><time>2026-04-25T08:25:03.23Z</time></trkpt><trkpt lat="45.7463367" lon="9.7618917"><ele>333.0</ele><time>2026-04-25T08:25:04.229Z</time></trkpt><trkpt lat="45.74629" lon="9.7619733"><ele>333.0</ele><time>2026-04-25T08:25:05.228Z</time></trkpt><trkpt lat="45.74622" lon="9.7620367"><ele>332.0</ele><time>2026-04-25T08:25:06.227Z</time></trkpt><trkpt lat="45.7461467" lon="9.7620833"><ele>331.0</ele><time>2026-04-25T08:25:07.228Z</time></trkpt><trkpt lat="45.74608" lon="9.7621333"><ele>330.0</ele><time>2026-04-25T08:25:08.23Z</time></trkpt><trkpt lat="45.74602" lon="9.76218"><ele>329.0</ele><time>2026-04-25T08:25:09.23Z</time></trkpt><trkpt lat="45.7459633" lon="9.7622217"><ele>328.0</ele><time>2026-04-25T08:25:10.229Z</time></trkpt><trkpt lat="45.7459067" lon="9.7622633"><ele>327.0</ele><time>2026-04-25T08:25:11.228Z</time></trkpt><trkpt lat="45.745795" lon="9.76228"><ele>327.0</ele><time>2026-04-25T08:25:13.23Z</time></trkpt><trkpt lat="45.74567" lon="9.7622167"><ele>327.0</ele><time>2026-04-25T08:25:15.228Z</time></trkpt><trkpt lat="45.7456017" lon="9.7621767"><ele>327.0</ele><time>2026-04-25T08:25:16.227Z</time></trkpt><trkpt lat="45.7455417" lon="9.7621367"><ele>327.0</ele><time>2026-04-25T08:25:17.228Z</time></trkpt><trkpt lat="45.745485" lon="9.7620933"><ele>327.0</ele><time>2026-04-25T08:25:18.229Z</time></trkpt><trkpt lat="45.7454283" lon="9.7620483"><ele>327.0</ele><time>2026-04-25T08:25:19.229Z</time></trkpt><trkpt lat="45.7453717" lon="9.7620033"><ele>327.0</ele><time>2026-04-25T08:25:20.229Z</time></trkpt><trkpt lat="45.7453117" lon="9.7619583"><ele>327.0</ele><time>2026-04-25T08:25:21.229Z</time></trkpt><trkpt lat="45.74524" lon="9.7619067"><ele>327.0</ele><time>2026-04-25T08:25:22.229Z</time></trkpt><trkpt lat="45.745155" lon="9.761845"><ele>327.0</ele><time>2026-04-25T08:25:23.23Z</time></trkpt><trkpt lat="45.7450667" lon="9.7617817"><ele>327.0</ele><time>2026-04-25T08:25:24.227Z</time></trkpt><trkpt lat="45.7449717" lon="9.761715"><ele>327.0</ele><time>2026-04-25T08:25:25.229Z</time></trkpt><trkpt lat="45.74487" lon="9.7616467"><ele>326.6</ele><time>2026-04-25T08:25:26.228Z</time></trkpt><trkpt lat="45.7447733" lon="9.7615683"><ele>326.20000000000005</ele><time>2026-04-25T08:25:27.231Z</time></trkpt><trkpt lat="45.74468" lon="9.761485"><ele>325.8</ele><time>2026-04-25T08:25:28.229Z</time></trkpt><trkpt lat="45.7446" lon="9.7614017"><ele>325.4</ele><time>2026-04-25T08:25:29.228Z</time></trkpt><trkpt lat="45.7445333" lon="9.761325"><ele>325.0</ele><time>2026-04-25T08:25:30.228Z</time></trkpt><trkpt lat="45.74448" lon="9.76126"><ele>325.0</ele><time>2026-04-25T08:25:31.227Z</time></trkpt><trkpt lat="45.7444133" lon="9.7611767"><ele>325.0</ele><time>2026-04-25T08:25:33.228Z</time></trkpt><trkpt lat="45.7443567" lon="9.7610783"><ele>325.0</ele><time>2026-04-25T08:25:36.229Z</time></trkpt><trkpt lat="45.74429" lon="9.7609467"><ele>325.0</ele><time>2026-04-25T08:25:38.227Z</time></trkpt><trkpt lat="45.74425" lon="9.7608533"><ele>325.0</ele><time>2026-04-25T08:25:39.23Z</time></trkpt><trkpt lat="45.7442167" lon="9.760755"><ele>325.0</ele><time>2026-04-25T08:25:40.227Z</time></trkpt><trkpt lat="45.74419" lon="9.7606683"><ele>324.3333333333333</ele><time>2026-04-25T08:25:41.228Z</time></trkpt><trkpt lat="45.7441583" lon="9.76058"><ele>323.66666666666663</ele><time>2026-04-25T08:25:42.228Z</time></trkpt><trkpt lat="45.7441267" lon="9.7604833"><ele>323.0</ele><time>2026-04-25T08:25:43.23Z</time></trkpt><trkpt lat="45.7440917" lon="9.76038"><ele>322.3333333333333</ele><time>2026-04-25T08:25:44.229Z</time></trkpt><trkpt lat="45.744055" lon="9.76027"><ele>321.6666666666667</ele><time>2026-04-25T08:25:45.227Z</time></trkpt><trkpt lat="45.7440167" lon="9.7601583"><ele>321.0</ele><time>2026-04-25T08:25:46.228Z</time></trkpt><trkpt lat="45.7439767" lon="9.7600417"><ele>320.6666666666667</ele><time>2026-04-25T08:25:47.23Z</time></trkpt><trkpt lat="45.7439367" lon="9.7599233"><ele>320.3333333333333</ele><time>2026-04-25T08:25:48.231Z</time></trkpt><trkpt lat="45.7439" lon="9.7598217"><ele>320.0</ele><time>2026-04-25T08:25:49.228Z</time></trkpt><trkpt lat="45.74387" lon="9.7597367"><ele>319.66666666666663</ele><time>2026-04-25T08:25:50.229Z</time></trkpt><trkpt lat="45.7438" lon="9.759625"><ele>319.3333333333333</ele><time>2026-04-25T08:25:52.227Z</time></trkpt><trkpt lat="45.7437" lon="9.759635"><ele>319.0</ele><time>2026-04-25T08:25:54.227Z</time></trkpt><trkpt lat="45.7435867" lon="9.7596717"><ele>318.3333333333333</ele><time>2026-04-25T08:25:56.228Z</time></trkpt><trkpt lat="45.7434717" lon="9.7597083"><ele>317.66666666666663</ele><time>2026-04-25T08:25:58.228Z</time></trkpt><trkpt lat="45.7434083" lon="9.7597267"><ele>317.0</ele><time>2026-04-25T08:25:59.227Z</time></trkpt><trkpt lat="45.7433433" lon="9.7597417"><ele>316.3333333333333</ele><time>2026-04-25T08:26:00.228Z</time></trkpt><trkpt lat="45.743235" lon="9.7597533"><ele>315.6666666666667</ele><time>2026-04-25T08:26:02.23Z</time></trkpt><trkpt lat="45.7431683" lon="9.759755"><ele>315.0</ele><time>2026-04-25T08:26:04.23Z</time></trkpt><trkpt lat="45.74304" lon="9.759665"><ele>315.0</ele><time>2026-04-25T08:26:19.23Z</time></trkpt><trkpt lat="45.7429317" lon="9.7596383"><ele>315.0</ele><time>2026-04-25T08:26:20.23Z</time></trkpt><trkpt lat="45.74283" lon="9.7596433"><ele>315.0</ele><time>2026-04-25T08:26:21.231Z</time></trkpt><trkpt lat="45.7427317" lon="9.75964"><ele>315.0</ele><time>2026-04-25T08:26:22.23Z</time></trkpt><trkpt lat="45.74265" lon="9.7596517"><ele>315.0</ele><time>2026-04-25T08:26:23.228Z</time></trkpt><trkpt lat="45.7425633" lon="9.75965"><ele>314.0</ele><time>2026-04-25T08:26:24.23Z</time></trkpt><trkpt lat="45.7424583" lon="9.7596267"><ele>313.0</ele><time>2026-04-25T08:26:25.229Z</time></trkpt><trkpt lat="45.7423433" lon="9.7596"><ele>312.0</ele><time>2026-04-25T08:26:26.231Z</time></trkpt><trkpt lat="45.74222" lon="9.7595833"><ele>311.0</ele><time>2026-04-25T08:26:27.228Z</time></trkpt><trkpt lat="45.7420967" lon="9.75957"><ele>311.0</ele><time>2026-04-25T08:26:28.229Z</time></trkpt><trkpt lat="45.7419833" lon="9.75958"><ele>311.0</ele><time>2026-04-25T08:26:29.229Z</time></trkpt><trkpt lat="45.7418783" lon="9.7595983"><ele>311.0</ele><time>2026-04-25T08:26:30.229Z</time></trkpt><trkpt lat="45.7417783" lon="9.7596283"><ele>311.0</ele><time>2026-04-25T08:26:31.227Z</time></trkpt><trkpt lat="45.741695" lon="9.7596617"><ele>311.0</ele><time>2026-04-25T08:26:32.228Z</time></trkpt><trkpt lat="45.7416267" lon="9.7596967"><ele>310.83333333333337</ele><time>2026-04-25T08:26:33.229Z</time></trkpt><trkpt lat="45.7415633" lon="9.7597267"><ele>310.6666666666667</ele><time>2026-04-25T08:26:34.228Z</time></trkpt><trkpt lat="45.7415017" lon="9.759755"><ele>310.5</ele><time>2026-04-25T08:26:35.229Z</time></trkpt><trkpt lat="45.741425" lon="9.75986"><ele>310.3333333333333</ele><time>2026-04-25T08:26:37.231Z</time></trkpt><trkpt lat="45.741445" lon="9.7600167"><ele>310.16666666666663</ele><time>2026-04-25T08:26:39.231Z</time></trkpt><trkpt lat="45.741475" lon="9.7601183"><ele>310.0</ele><time>2026-04-25T08:26:40.229Z</time></trkpt><trkpt lat="45.7415117" lon="9.7602383"><ele>309.66666666666663</ele><time>2026-04-25T08:26:41.229Z</time></trkpt><trkpt lat="45.7415483" lon="9.7603583"><ele>309.3333333333333</ele><time>2026-04-25T08:26:42.229Z</time></trkpt><trkpt lat="45.74158" lon="9.760465"><ele>309.0</ele><time>2026-04-25T08:26:43.227Z</time></trkpt><trkpt lat="45.741605" lon="9.7605667"><ele>308.6666666666667</ele><time>2026-04-25T08:26:44.227Z</time></trkpt><trkpt lat="45.74163" lon="9.760655"><ele>308.33333333333337</ele><time>2026-04-25T08:26:45.228Z</time></trkpt><trkpt lat="45.7416583" lon="9.7607433"><ele>308.0</ele><time>2026-04-25T08:26:46.227Z</time></trkpt><trkpt lat="45.741695" lon="9.7608483"><ele>308.0</ele><time>2026-04-25T08:26:47.227Z</time></trkpt><trkpt lat="45.741735" lon="9.76097"><ele>308.0</ele><time>2026-04-25T08:26:48.229Z</time></trkpt><trkpt lat="45.741775" lon="9.7611"><ele>308.0</ele><time>2026-04-25T08:26:49.227Z</time></trkpt><trkpt lat="45.741815" lon="9.761225"><ele>308.0</ele><time>2026-04-25T08:26:50.228Z</time></trkpt><trkpt lat="45.7418483" lon="9.7613383"><ele>308.0</ele><time>2026-04-25T08:26:51.229Z</time></trkpt><trkpt lat="45.7418767" lon="9.761435"><ele>308.0</ele><time>2026-04-25T08:26:52.228Z</time></trkpt><trkpt lat="45.7419017" lon="9.7615217"><ele>308.0</ele><time>2026-04-25T08:26:53.228Z</time></trkpt><trkpt lat="45.74193" lon="9.7616867"><ele>308.0</ele><time>2026-04-25T08:26:55.228Z</time></trkpt><trkpt lat="45.741905" lon="9.7618467"><ele>308.0</ele><time>2026-04-25T08:26:57.229Z</time></trkpt><trkpt lat="45.7418067" lon="9.7619483"><ele>308.0</ele><time>2026-04-25T08:26:59.23Z</time></trkpt><trkpt lat="45.7417383" lon="9.7619883"><ele>308.0</ele><time>2026-04-25T08:27:00.228Z</time></trkpt><trkpt lat="45.74166" lon="9.762035"><ele>307.2</ele><time>2026-04-25T08:27:01.229Z</time></trkpt><trkpt lat="45.7415733" lon="9.7620867"><ele>306.4</ele><time>2026-04-25T08:27:02.229Z</time></trkpt><trkpt lat="45.7414817" lon="9.7621383"><ele>305.59999999999997</ele><time>2026-04-25T08:27:03.229Z</time></trkpt><trkpt lat="45.7413933" lon="9.76219"><ele>304.8</ele><time>2026-04-25T08:27:04.227Z</time></trkpt><trkpt lat="45.7413117" lon="9.7622333"><ele>304.0</ele><time>2026-04-25T08:27:05.229Z</time></trkpt><trkpt lat="45.7412333" lon="9.7622633"><ele>304.0</ele><time>2026-04-25T08:27:06.231Z</time></trkpt><trkpt lat="45.741155" lon="9.7622883"><ele>304.0</ele><time>2026-04-25T08:27:07.23Z</time></trkpt><trkpt lat="45.741075" lon="9.7623317"><ele>304.0</ele><time>2026-04-25T08:27:08.229Z</time></trkpt><trkpt lat="45.741005" lon="9.76241"><ele>304.0</ele><time>2026-04-25T08:27:09.229Z</time></trkpt><trkpt lat="45.7409333" lon="9.7625083"><ele>304.0</ele><time>2026-04-25T08:27:10.228Z</time></trkpt><trkpt lat="45.74085" lon="9.76261"><ele>303.75</ele><time>2026-04-25T08:27:11.23Z</time></trkpt><trkpt lat="45.7407417" lon="9.7627083"><ele>303.5</ele><time>2026-04-25T08:27:12.23Z</time></trkpt><trkpt lat="45.7406167" lon="9.7628067"><ele>303.25</ele><time>2026-04-25T08:27:13.228Z</time></trkpt><trkpt lat="45.7404767" lon="9.7629183"><ele>303.0</ele><time>2026-04-25T08:27:14.228Z</time></trkpt><trkpt lat="45.74032" lon="9.76303"><ele>302.3333333333333</ele><time>2026-04-25T08:27:15.229Z</time></trkpt><trkpt lat="45.740165" lon="9.7631417"><ele>301.66666666666663</ele><time>2026-04-25T08:27:16.228Z</time></trkpt><trkpt lat="45.740025" lon="9.76324"><ele>301.0</ele><time>2026-04-25T08:27:17.228Z</time></trkpt><trkpt lat="45.7398983" lon="9.76333"><ele>301.0</ele><time>2026-04-25T08:27:18.227Z</time></trkpt><trkpt lat="45.739785" lon="9.76341"><ele>301.0</ele><time>2026-04-25T08:27:19.228Z</time></trkpt><trkpt lat="45.7396833" lon="9.7634783"><ele>301.0</ele><time>2026-04-25T08:27:20.229Z</time></trkpt><trkpt lat="45.739595" lon="9.7635367"><ele>301.0</ele><time>2026-04-25T08:27:21.23Z</time></trkpt><trkpt lat="45.73952" lon="9.7635883"><ele>301.0</ele><time>2026-04-25T08:27:22.23Z</time></trkpt><trkpt lat="45.7394517" lon="9.7636333"><ele>300.85714285714283</ele><time>2026-04-25T08:27:23.229Z</time></trkpt><trkpt lat="45.7393867" lon="9.7636783"><ele>300.7142857142857</ele><time>2026-04-25T08:27:24.229Z</time></trkpt><trkpt lat="45.73933" lon="9.7637283"><ele>300.57142857142856</ele><time>2026-04-25T08:27:25.229Z</time></trkpt><trkpt lat="45.7392717" lon="9.7637733"><ele>300.42857142857144</ele><time>2026-04-25T08:27:26.229Z</time></trkpt><trkpt lat="45.7392133" lon="9.76382"><ele>300.2857142857143</ele><time>2026-04-25T08:27:27.229Z</time></trkpt><trkpt lat="45.7391133" lon="9.7638917"><ele>300.1428571428571</ele><time>2026-04-25T08:27:29.229Z</time></trkpt><trkpt lat="45.7390517" lon="9.76392"><ele>300.0</ele><time>2026-04-25T08:27:31.23Z</time></trkpt><trkpt lat="45.7389833" lon="9.7639667"><ele>299.5</ele><time>2026-04-25T08:27:43.23Z</time></trkpt><trkpt lat="45.73892" lon="9.764025"><ele>299.0</ele><time>2026-04-25T08:27:44.233Z</time></trkpt><trkpt lat="45.73885" lon="9.7640883"><ele>298.5</ele><time>2026-04-25T08:27:45.232Z</time></trkpt><trkpt lat="45.7387783" lon="9.764155"><ele>298.0</ele><time>2026-04-25T08:27:46.229Z</time></trkpt><trkpt lat="45.7387067" lon="9.7642183"><ele>297.5</ele><time>2026-04-25T08:27:47.227Z</time></trkpt><trkpt lat="45.7386417" lon="9.76428"><ele>297.0</ele><time>2026-04-25T08:27:48.227Z</time></trkpt><trkpt lat="45.7385783" lon="9.7643383"><ele>297.3333333333333</ele><time>2026-04-25T08:27:49.228Z</time></trkpt><trkpt lat="45.7385217" lon="9.7643917"><ele>297.6666666666667</ele><time>2026-04-25T08:27:50.228Z</time></trkpt><trkpt lat="45.7384633" lon="9.76443"><ele>298.0</ele><time>2026-04-25T08:27:51.229Z</time></trkpt><trkpt lat="45.7384" lon="9.7644433"><ele>298.33333333333337</ele><time>2026-04-25T08:27:52.228Z</time></trkpt><trkpt lat="45.7382967" lon="9.7643717"><ele>298.6666666666667</ele><time>2026-04-25T08:27:54.229Z</time></trkpt><trkpt lat="45.73826" lon="9.7642833"><ele>299.0</ele><time>2026-04-25T08:27:55.228Z</time></trkpt><trkpt lat="45.7382167" lon="9.764165"><ele>299.0</ele><time>2026-04-25T08:27:56.23Z</time></trkpt><trkpt lat="45.738165" lon="9.7640183"><ele>299.0</ele><time>2026-04-25T08:27:57.235Z</time></trkpt><trkpt lat="45.7381083" lon="9.76384"><ele>299.0</ele><time>2026-04-25T08:27:58.228Z</time></trkpt><trkpt lat="45.7380517" lon="9.763655"><ele>299.0</ele><time>2026-04-25T08:27:59.23Z</time></trkpt><trkpt lat="45.73799" lon="9.763475"><ele>297.75</ele><time>2026-04-25T08:28:00.229Z</time></trkpt><trkpt lat="45.7379317" lon="9.7632983"><ele>296.5</ele><time>2026-04-25T08:28:01.227Z</time></trkpt><trkpt lat="45.7378767" lon="9.763125"><ele>295.25</ele><time>2026-04-25T08:28:02.227Z</time></trkpt><trkpt lat="45.7378283" lon="9.7629533"><ele>294.0</ele><time>2026-04-25T08:28:03.228Z</time></trkpt><trkpt lat="45.7377917" lon="9.7627833"><ele>293.5</ele><time>2026-04-25T08:28:04.228Z</time></trkpt><trkpt lat="45.73777" lon="9.7626067"><ele>293.0</ele><time>2026-04-25T08:28:05.228Z</time></trkpt><trkpt lat="45.7377567" lon="9.7624233"><ele>292.5</ele><time>2026-04-25T08:28:06.228Z</time></trkpt><trkpt lat="45.7377483" lon="9.7622317"><ele>292.0</ele><time>2026-04-25T08:28:07.228Z</time></trkpt><trkpt lat="45.7377467" lon="9.7620333"><ele>292.0</ele><time>2026-04-25T08:28:08.228Z</time></trkpt><trkpt lat="45.7377467" lon="9.7618233"><ele>292.0</ele><time>2026-04-25T08:28:09.229Z</time></trkpt><trkpt lat="45.7377433" lon="9.7616"><ele>292.0</ele><time>2026-04-25T08:28:10.228Z</time></trkpt><trkpt lat="45.7377333" lon="9.7613667"><ele>294.66666666666663</ele><time>2026-04-25T08:28:11.23Z</time></trkpt><trkpt lat="45.7377117" lon="9.7611417"><ele>297.3333333333333</ele><time>2026-04-25T08:28:12.229Z</time></trkpt><trkpt lat="45.7376817" lon="9.76092"><ele>300.0</ele><time>2026-04-25T08:28:13.228Z</time></trkpt><trkpt lat="45.7376467" lon="9.760695"><ele>300.0</ele><time>2026-04-25T08:28:14.227Z</time></trkpt><trkpt lat="45.7376033" lon="9.7604717"><ele>300.0</ele><time>2026-04-25T08:28:15.229Z</time></trkpt><trkpt lat="45.7375517" lon="9.76025"><ele>300.0</ele><time>2026-04-25T08:28:16.227Z</time></trkpt><trkpt lat="45.7374933" lon="9.76003"><ele>299.0</ele><time>2026-04-25T08:28:17.227Z</time></trkpt><trkpt lat="45.73743" lon="9.7598083"><ele>298.0</ele><time>2026-04-25T08:28:18.228Z</time></trkpt><trkpt lat="45.7373617" lon="9.7595867"><ele>297.0</ele><time>2026-04-25T08:28:19.228Z</time></trkpt><trkpt lat="45.737295" lon="9.7593667"><ele>296.0</ele><time>2026-04-25T08:28:20.23Z</time></trkpt><trkpt lat="45.7372283" lon="9.75915"><ele>295.0</ele><time>2026-04-25T08:28:21.23Z</time></trkpt><trkpt lat="45.7371533" lon="9.7589383"><ele>294.0</ele><time>2026-04-25T08:28:22.229Z</time></trkpt><trkpt lat="45.73707" lon="9.7587367"><ele>294.0</ele><time>2026-04-25T08:28:23.231Z</time></trkpt><trkpt lat="45.736985" lon="9.7585433"><ele>294.0</ele><time>2026-04-25T08:28:24.229Z</time></trkpt><trkpt lat="45.7369033" lon="9.7583633"><ele>294.0</ele><time>2026-04-25T08:28:25.231Z</time></trkpt><trkpt lat="45.7368283" lon="9.7581933"><ele>294.5</ele><time>2026-04-25T08:28:26.231Z</time></trkpt><trkpt lat="45.736755" lon="9.7580417"><ele>295.0</ele><time>2026-04-25T08:28:27.23Z</time></trkpt><trkpt lat="45.7366867" lon="9.7578917"><ele>295.5</ele><time>2026-04-25T08:28:28.23Z</time></trkpt><trkpt lat="45.73662" lon="9.7577567"><ele>296.0</ele><time>2026-04-25T08:28:29.229Z</time></trkpt><trkpt lat="45.7365583" lon="9.7576383"><ele>296.0</ele><time>2026-04-25T08:28:30.229Z</time></trkpt><trkpt lat="45.736505" lon="9.75754"><ele>296.0</ele><time>2026-04-25T08:28:31.228Z</time></trkpt><trkpt lat="45.7364533" lon="9.7574567"><ele>296.0</ele><time>2026-04-25T08:28:32.229Z</time></trkpt><trkpt lat="45.7364017" lon="9.7573783"><ele>296.0</ele><time>2026-04-25T08:28:33.228Z</time></trkpt><trkpt lat="45.7363517" lon="9.7573067"><ele>296.0</ele><time>2026-04-25T08:28:34.228Z</time></trkpt><trkpt lat="45.7362517" lon="9.7572267"><ele>296.0</ele><time>2026-04-25T08:28:36.229Z</time></trkpt><trkpt lat="45.7361883" lon="9.7572283"><ele>296.0</ele><time>2026-04-25T08:28:37.229Z</time></trkpt><trkpt lat="45.73608" lon="9.7572433"><ele>296.0</ele><time>2026-04-25T08:28:39.23Z</time></trkpt><trkpt lat="45.735935" lon="9.757205"><ele>296.0</ele><time>2026-04-25T08:28:41.23Z</time></trkpt><trkpt lat="45.7358233" lon="9.7571833"><ele>296.0</ele><time>2026-04-25T08:28:42.231Z</time></trkpt><trkpt lat="45.73569" lon="9.7571767"><ele>298.0</ele><time>2026-04-25T08:28:43.229Z</time></trkpt><trkpt lat="45.7355433" lon="9.75718"><ele>300.0</ele><time>2026-04-25T08:28:44.229Z</time></trkpt><trkpt lat="45.7353867" lon="9.7571933"><ele>302.0</ele><time>2026-04-25T08:28:45.228Z</time></trkpt><trkpt lat="45.7352233" lon="9.75721"><ele>303.6666666666667</ele><time>2026-04-25T08:28:46.228Z</time></trkpt><trkpt lat="45.7350617" lon="9.7572267"><ele>305.3333333333333</ele><time>2026-04-25T08:28:47.228Z</time></trkpt><trkpt lat="45.7348967" lon="9.7572367"><ele>307.0</ele><time>2026-04-25T08:28:48.229Z</time></trkpt><trkpt lat="45.7347367" lon="9.7572433"><ele>307.0</ele><time>2026-04-25T08:28:49.229Z</time></trkpt><trkpt lat="45.73459" lon="9.757255"><ele>307.0</ele><time>2026-04-25T08:28:50.23Z</time></trkpt><trkpt lat="45.7344533" lon="9.7572717"><ele>307.0</ele><time>2026-04-25T08:28:51.229Z</time></trkpt><trkpt lat="45.7343233" lon="9.7572983"><ele>307.0</ele><time>2026-04-25T08:28:52.228Z</time></trkpt><trkpt lat="45.7341967" lon="9.7573533"><ele>307.0</ele><time>2026-04-25T08:28:53.229Z</time></trkpt><trkpt lat="45.73407" lon="9.757425"><ele>307.0</ele><time>2026-04-25T08:28:54.229Z</time></trkpt><trkpt lat="45.7339417" lon="9.7575083"><ele>307.0</ele><time>2026-04-25T08:28:55.23Z</time></trkpt><trkpt lat="45.73381" lon="9.7575867"><ele>307.0</ele><time>2026-04-25T08:28:56.229Z</time></trkpt><trkpt lat="45.73368" lon="9.7576667"><ele>306.75</ele><time>2026-04-25T08:28:57.229Z</time></trkpt><trkpt lat="45.7335483" lon="9.7577383"><ele>306.5</ele><time>2026-04-25T08:28:58.229Z</time></trkpt><trkpt lat="45.73342" lon="9.7578083"><ele>306.25</ele><time>2026-04-25T08:28:59.228Z</time></trkpt><trkpt lat="45.7332983" lon="9.7578833"><ele>306.0</ele><time>2026-04-25T08:29:00.231Z</time></trkpt><trkpt lat="45.7331783" lon="9.7579583"><ele>306.0</ele><time>2026-04-25T08:29:01.23Z</time></trkpt><trkpt lat="45.7330633" lon="9.7580283"><ele>306.0</ele><time>2026-04-25T08:29:02.228Z</time></trkpt><trkpt lat="45.7329567" lon="9.7581083"><ele>306.0</ele><time>2026-04-25T08:29:03.228Z</time></trkpt><trkpt lat="45.7328467" lon="9.7581917"><ele>306.0</ele><time>2026-04-25T08:29:04.228Z</time></trkpt><trkpt lat="45.7327367" lon="9.7582667"><ele>305.5</ele><time>2026-04-25T08:29:05.228Z</time></trkpt><trkpt lat="45.7326333" lon="9.758345"><ele>305.0</ele><time>2026-04-25T08:29:06.229Z</time></trkpt><trkpt lat="45.7325267" lon="9.75842"><ele>304.5</ele><time>2026-04-25T08:29:07.23Z</time></trkpt><trkpt lat="45.732415" lon="9.7584833"><ele>304.0</ele><time>2026-04-25T08:29:08.228Z</time></trkpt><trkpt lat="45.7322983" lon="9.7585383"><ele>304.75</ele><time>2026-04-25T08:29:09.23Z</time></trkpt><trkpt lat="45.73218" lon="9.7585867"><ele>305.5</ele><time>2026-04-25T08:29:10.231Z</time></trkpt><trkpt lat="45.7320533" lon="9.758635"><ele>306.25</ele><time>2026-04-25T08:29:11.228Z</time></trkpt><trkpt lat="45.7319283" lon="9.75868"><ele>307.0</ele><time>2026-04-25T08:29:12.228Z</time></trkpt><trkpt lat="45.7318" lon="9.7587183"><ele>307.0</ele><time>2026-04-25T08:29:13.228Z</time></trkpt><trkpt lat="45.7316683" lon="9.7587567"><ele>307.0</ele><time>2026-04-25T08:29:14.23Z</time></trkpt><trkpt lat="45.73153" lon="9.7587883"><ele>307.0</ele><time>2026-04-25T08:29:15.228Z</time></trkpt><trkpt lat="45.7313933" lon="9.7588117"><ele>307.0</ele><time>2026-04-25T08:29:16.227Z</time></trkpt><trkpt lat="45.7312717" lon="9.75883"><ele>307.0</ele><time>2026-04-25T08:29:17.227Z</time></trkpt><trkpt lat="45.7311517" lon="9.758865"><ele>307.0</ele><time>2026-04-25T08:29:18.228Z</time></trkpt><trkpt lat="45.731035" lon="9.75892"><ele>307.0</ele><time>2026-04-25T08:29:19.229Z</time></trkpt><trkpt lat="45.7309267" lon="9.7589783"><ele>307.0</ele><time>2026-04-25T08:29:20.229Z</time></trkpt><trkpt lat="45.7308333" lon="9.7590417"><ele>306.8</ele><time>2026-04-25T08:29:21.228Z</time></trkpt><trkpt lat="45.7307367" lon="9.7591067"><ele>306.6</ele><time>2026-04-25T08:29:22.229Z</time></trkpt><trkpt lat="45.7306383" lon="9.75916"><ele>306.40000000000003</ele><time>2026-04-25T08:29:23.228Z</time></trkpt><trkpt lat="45.7305283" lon="9.7591983"><ele>306.2</ele><time>2026-04-25T08:29:24.228Z</time></trkpt><trkpt lat="45.7304167" lon="9.75923"><ele>306.0</ele><time>2026-04-25T08:29:25.23Z</time></trkpt><trkpt lat="45.7303017" lon="9.75925"><ele>306.0</ele><time>2026-04-25T08:29:26.228Z</time></trkpt><trkpt lat="45.73018" lon="9.7592633"><ele>306.0</ele><time>2026-04-25T08:29:27.23Z</time></trkpt><trkpt lat="45.7300617" lon="9.7592767"><ele>306.0</ele><time>2026-04-25T08:29:28.228Z</time></trkpt><trkpt lat="45.7299483" lon="9.7592883"><ele>306.0</ele><time>2026-04-25T08:29:29.229Z</time></trkpt><trkpt lat="45.72984" lon="9.7593"><ele>306.0</ele><time>2026-04-25T08:29:30.229Z</time></trkpt><trkpt lat="45.7297367" lon="9.759305"><ele>306.0</ele><time>2026-04-25T08:29:31.231Z</time></trkpt><trkpt lat="45.7296333" lon="9.7593083"><ele>306.0</ele><time>2026-04-25T08:29:32.23Z</time></trkpt><trkpt lat="45.7295267" lon="9.75931"><ele>306.0</ele><time>2026-04-25T08:29:33.231Z</time></trkpt><trkpt lat="45.729415" lon="9.7593133"><ele>306.0</ele><time>2026-04-25T08:29:34.23Z</time></trkpt><trkpt lat="45.729305" lon="9.75932"><ele>305.75</ele><time>2026-04-25T08:29:35.232Z</time></trkpt><trkpt lat="45.729195" lon="9.759335"><ele>305.5</ele><time>2026-04-25T08:29:36.23Z</time></trkpt><trkpt lat="45.7290867" lon="9.7593583"><ele>305.25</ele><time>2026-04-25T08:29:37.23Z</time></trkpt><trkpt lat="45.7289683" lon="9.7593933"><ele>305.0</ele><time>2026-04-25T08:29:38.232Z</time></trkpt><trkpt lat="45.7288483" lon="9.7594483"><ele>306.25</ele><time>2026-04-25T08:29:39.23Z</time></trkpt><trkpt lat="45.7287217" lon="9.75951"><ele>307.5</ele><time>2026-04-25T08:29:40.229Z</time></trkpt><trkpt lat="45.7285883" lon="9.759575"><ele>308.75</ele><time>2026-04-25T08:29:41.231Z</time></trkpt><trkpt lat="45.72846" lon="9.7596383"><ele>310.0</ele><time>2026-04-25T08:29:42.23Z</time></trkpt><trkpt lat="45.7283317" lon="9.7597017"><ele>310.0</ele><time>2026-04-25T08:29:43.229Z</time></trkpt><trkpt lat="45.7282083" lon="9.759765"><ele>310.0</ele><time>2026-04-25T08:29:44.23Z</time></trkpt><trkpt lat="45.7280883" lon="9.7598283"><ele>310.0</ele><time>2026-04-25T08:29:45.229Z</time></trkpt><trkpt lat="45.7279733" lon="9.7598933"><ele>310.0</ele><time>2026-04-25T08:29:46.228Z</time></trkpt><trkpt lat="45.7278533" lon="9.7599567"><ele>310.0</ele><time>2026-04-25T08:29:47.228Z</time></trkpt><trkpt lat="45.72773" lon="9.7600183"><ele>310.0</ele><time>2026-04-25T08:29:48.23Z</time></trkpt><trkpt lat="45.7276067" lon="9.7600767"><ele>310.0</ele><time>2026-04-25T08:29:49.234Z</time></trkpt><trkpt lat="45.7274883" lon="9.76013"><ele>310.0</ele><time>2026-04-25T08:29:50.233Z</time></trkpt><trkpt lat="45.72737" lon="9.76018"><ele>310.75</ele><time>2026-04-25T08:29:51.23Z</time></trkpt><trkpt lat="45.72725" lon="9.7602217"><ele>311.5</ele><time>2026-04-25T08:29:52.232Z</time></trkpt><trkpt lat="45.72713" lon="9.76026"><ele>312.25</ele><time>2026-04-25T08:29:53.23Z</time></trkpt><trkpt lat="45.7270067" lon="9.7602983"><ele>313.0</ele><time>2026-04-25T08:29:54.231Z</time></trkpt><trkpt lat="45.7268733" lon="9.7603433"><ele>313.0</ele><time>2026-04-25T08:29:55.23Z</time></trkpt><trkpt lat="45.7267267" lon="9.7604017"><ele>313.0</ele><time>2026-04-25T08:29:56.231Z</time></trkpt><trkpt lat="45.7265617" lon="9.760475"><ele>313.0</ele><time>2026-04-25T08:29:57.23Z</time></trkpt><trkpt lat="45.7263883" lon="9.76055"><ele>313.0</ele><time>2026-04-25T08:29:58.231Z</time></trkpt><trkpt lat="45.72621" lon="9.7606183"><ele>313.0</ele><time>2026-04-25T08:29:59.231Z</time></trkpt><trkpt lat="45.7260333" lon="9.7606833"><ele>313.0</ele><time>2026-04-25T08:30:00.233Z</time></trkpt><trkpt lat="45.7258583" lon="9.76075"><ele>312.0</ele><time>2026-04-25T08:30:01.23Z</time></trkpt><trkpt lat="45.72568" lon="9.7608167"><ele>311.0</ele><time>2026-04-25T08:30:02.231Z</time></trkpt><trkpt lat="45.7255083" lon="9.7608867"><ele>310.0</ele><time>2026-04-25T08:30:03.232Z</time></trkpt><trkpt lat="45.7253483" lon="9.7609617"><ele>311.66666666666663</ele><time>2026-04-25T08:30:04.23Z</time></trkpt><trkpt lat="45.7251933" lon="9.7610433"><ele>313.3333333333333</ele><time>2026-04-25T08:30:05.23Z</time></trkpt><trkpt lat="45.725045" lon="9.7611383"><ele>315.0</ele><time>2026-04-25T08:30:06.231Z</time></trkpt><trkpt lat="45.7249067" lon="9.76125"><ele>315.0</ele><time>2026-04-25T08:30:07.23Z</time></trkpt><trkpt lat="45.724785" lon="9.76138"><ele>315.0</ele><time>2026-04-25T08:30:08.231Z</time></trkpt><trkpt lat="45.7246833" lon="9.7615217"><ele>315.0</ele><time>2026-04-25T08:30:09.23Z</time></trkpt><trkpt lat="45.7245967" lon="9.761675"><ele>315.0</ele><time>2026-04-25T08:30:10.23Z</time></trkpt><trkpt lat="45.7245217" lon="9.76183"><ele>314.8</ele><time>2026-04-25T08:30:11.232Z</time></trkpt><trkpt lat="45.7244567" lon="9.7619767"><ele>314.6</ele><time>2026-04-25T08:30:12.228Z</time></trkpt><trkpt lat="45.7243983" lon="9.7621117"><ele>314.4</ele><time>2026-04-25T08:30:13.228Z</time></trkpt><trkpt lat="45.72434" lon="9.7622383"><ele>314.2</ele><time>2026-04-25T08:30:14.227Z</time></trkpt><trkpt lat="45.72428" lon="9.762355"><ele>314.0</ele><time>2026-04-25T08:30:15.228Z</time></trkpt><trkpt lat="45.7242133" lon="9.76248"><ele>314.0</ele><time>2026-04-25T08:30:16.228Z</time></trkpt><trkpt lat="45.7241367" lon="9.7626167"><ele>314.0</ele><time>2026-04-25T08:30:17.228Z</time></trkpt><trkpt lat="45.724035" lon="9.7627517"><ele>314.0</ele><time>2026-04-25T08:30:18.228Z</time></trkpt><trkpt lat="45.7239167" lon="9.7628833"><ele>314.0</ele><time>2026-04-25T08:30:19.228Z</time></trkpt><trkpt lat="45.7237883" lon="9.763025"><ele>314.0</ele><time>2026-04-25T08:30:20.228Z</time></trkpt><trkpt lat="45.7236583" lon="9.7631817"><ele>314.0</ele><time>2026-04-25T08:30:21.228Z</time></trkpt><trkpt lat="45.7235233" lon="9.7633583"><ele>314.0</ele><time>2026-04-25T08:30:22.23Z</time></trkpt><trkpt lat="45.7233917" lon="9.76354"><ele>314.0</ele><time>2026-04-25T08:30:23.228Z</time></trkpt><trkpt lat="45.7232633" lon="9.7637183"><ele>314.0</ele><time>2026-04-25T08:30:24.228Z</time></trkpt><trkpt lat="45.72313" lon="9.763895"><ele>314.0</ele><time>2026-04-25T08:30:25.23Z</time></trkpt><trkpt lat="45.7229883" lon="9.7640583"><ele>314.0</ele><time>2026-04-25T08:30:26.23Z</time></trkpt><trkpt lat="45.7228433" lon="9.764215"><ele>314.0</ele><time>2026-04-25T08:30:27.233Z</time></trkpt><trkpt lat="45.7226967" lon="9.7643667"><ele>314.0</ele><time>2026-04-25T08:30:28.232Z</time></trkpt><trkpt lat="45.72255" lon="9.7645033"><ele>315.6666666666667</ele><time>2026-04-25T08:30:29.23Z</time></trkpt><trkpt lat="45.7224083" lon="9.7646367"><ele>317.3333333333333</ele><time>2026-04-25T08:30:30.23Z</time></trkpt><trkpt lat="45.7222733" lon="9.764765"><ele>319.0</ele><time>2026-04-25T08:30:31.23Z</time></trkpt><trkpt lat="45.7221383" lon="9.764895"><ele>319.0</ele><time>2026-04-25T08:30:32.231Z</time></trkpt><trkpt lat="45.7220017" lon="9.7650217"><ele>319.0</ele><time>2026-04-25T08:30:33.231Z</time></trkpt><trkpt lat="45.721865" lon="9.7651533"><ele>319.0</ele><time>2026-04-25T08:30:34.229Z</time></trkpt><trkpt lat="45.721725" lon="9.76528"><ele>319.0</ele><time>2026-04-25T08:30:35.23Z</time></trkpt><trkpt lat="45.7215867" lon="9.76542"><ele>319.0</ele><time>2026-04-25T08:30:36.231Z</time></trkpt><trkpt lat="45.7214483" lon="9.76557"><ele>319.0</ele><time>2026-04-25T08:30:37.23Z</time></trkpt><trkpt lat="45.7213117" lon="9.7657267"><ele>319.0</ele><time>2026-04-25T08:30:38.23Z</time></trkpt><trkpt lat="45.7211733" lon="9.7658867"><ele>319.0</ele><time>2026-04-25T08:30:39.23Z</time></trkpt><trkpt lat="45.72104" lon="9.76605"><ele>319.0</ele><time>2026-04-25T08:30:40.23Z</time></trkpt><trkpt lat="45.72091" lon="9.766215"><ele>320.0</ele><time>2026-04-25T08:30:41.232Z</time></trkpt><trkpt lat="45.720785" lon="9.7663817"><ele>321.0</ele><time>2026-04-25T08:30:42.23Z</time></trkpt><trkpt lat="45.72066" lon="9.7665417"><ele>322.0</ele><time>2026-04-25T08:30:43.23Z</time></trkpt><trkpt lat="45.7205283" lon="9.7666933"><ele>322.0</ele><time>2026-04-25T08:30:44.231Z</time></trkpt><trkpt lat="45.7203917" lon="9.766835"><ele>322.0</ele><time>2026-04-25T08:30:45.23Z</time></trkpt><trkpt lat="45.7202567" lon="9.76697"><ele>322.0</ele><time>2026-04-25T08:30:46.229Z</time></trkpt><trkpt lat="45.7201217" lon="9.7671033"><ele>323.3333333333333</ele><time>2026-04-25T08:30:47.231Z</time></trkpt><trkpt lat="45.7199883" lon="9.7672333"><ele>324.6666666666667</ele><time>2026-04-25T08:30:48.228Z</time></trkpt><trkpt lat="45.7198617" lon="9.7673633"><ele>326.0</ele><time>2026-04-25T08:30:49.228Z</time></trkpt><trkpt lat="45.7197367" lon="9.7674867"><ele>326.0</ele><time>2026-04-25T08:30:50.227Z</time></trkpt><trkpt lat="45.7196133" lon="9.7676133"><ele>326.0</ele><time>2026-04-25T08:30:51.229Z</time></trkpt><trkpt lat="45.7194867" lon="9.7677383"><ele>326.0</ele><time>2026-04-25T08:30:52.229Z</time></trkpt><trkpt lat="45.71936" lon="9.767865"><ele>325.0</ele><time>2026-04-25T08:30:53.228Z</time></trkpt><trkpt lat="45.719235" lon="9.76799"><ele>324.0</ele><time>2026-04-25T08:30:54.228Z</time></trkpt><trkpt lat="45.71911" lon="9.7681133"><ele>323.0</ele><time>2026-04-25T08:30:55.229Z</time></trkpt><trkpt lat="45.718985" lon="9.7682367"><ele>323.0</ele><time>2026-04-25T08:30:56.23Z</time></trkpt><trkpt lat="45.7188617" lon="9.7683567"><ele>323.0</ele><time>2026-04-25T08:30:57.228Z</time></trkpt><trkpt lat="45.7187367" lon="9.7684783"><ele>323.0</ele><time>2026-04-25T08:30:58.23Z</time></trkpt><trkpt lat="45.7186133" lon="9.7685983"><ele>323.0</ele><time>2026-04-25T08:30:59.229Z</time></trkpt><trkpt lat="45.7184933" lon="9.7687117"><ele>322.75</ele><time>2026-04-25T08:31:00.231Z</time></trkpt><trkpt lat="45.7183783" lon="9.76883"><ele>322.5</ele><time>2026-04-25T08:31:01.231Z</time></trkpt><trkpt lat="45.718265" lon="9.768955"><ele>322.25</ele><time>2026-04-25T08:31:02.231Z</time></trkpt><trkpt lat="45.7181567" lon="9.7690883"><ele>322.0</ele><time>2026-04-25T08:31:03.23Z</time></trkpt><trkpt lat="45.7180517" lon="9.769235"><ele>324.0</ele><time>2026-04-25T08:31:04.229Z</time></trkpt><trkpt lat="45.7179467" lon="9.7693933"><ele>326.0</ele><time>2026-04-25T08:31:05.231Z</time></trkpt><trkpt lat="45.7178433" lon="9.7695567"><ele>328.0</ele><time>2026-04-25T08:31:06.23Z</time></trkpt><trkpt lat="45.7177433" lon="9.7697183"><ele>327.3333333333333</ele><time>2026-04-25T08:31:07.229Z</time></trkpt><trkpt lat="45.71764" lon="9.7698833"><ele>326.6666666666667</ele><time>2026-04-25T08:31:08.231Z</time></trkpt><trkpt lat="45.7175383" lon="9.770045"><ele>326.0</ele><time>2026-04-25T08:31:09.228Z</time></trkpt><trkpt lat="45.7174367" lon="9.770205"><ele>326.0</ele><time>2026-04-25T08:31:10.228Z</time></trkpt><trkpt lat="45.717335" lon="9.7703667"><ele>326.0</ele><time>2026-04-25T08:31:11.229Z</time></trkpt><trkpt lat="45.717235" lon="9.770525"><ele>326.0</ele><time>2026-04-25T08:31:12.228Z</time></trkpt><trkpt lat="45.717135" lon="9.77068"><ele>326.0</ele><time>2026-04-25T08:31:13.229Z</time></trkpt><trkpt lat="45.7170367" lon="9.770835"><ele>326.0</ele><time>2026-04-25T08:31:14.229Z</time></trkpt><trkpt lat="45.71694" lon="9.77099"><ele>326.0</ele><time>2026-04-25T08:31:15.232Z</time></trkpt><trkpt lat="45.7168483" lon="9.7711433"><ele>326.0</ele><time>2026-04-25T08:31:16.228Z</time></trkpt><trkpt lat="45.7167617" lon="9.771285"><ele>326.0</ele><time>2026-04-25T08:31:17.23Z</time></trkpt><trkpt lat="45.7166783" lon="9.7714133"><ele>325.75</ele><time>2026-04-25T08:31:18.228Z</time></trkpt><trkpt lat="45.7165917" lon="9.7715317"><ele>325.5</ele><time>2026-04-25T08:31:19.228Z</time></trkpt><trkpt lat="45.7164967" lon="9.7716483"><ele>325.25</ele><time>2026-04-25T08:31:20.229Z</time></trkpt><trkpt lat="45.716395" lon="9.7717683"><ele>325.0</ele><time>2026-04-25T08:31:21.229Z</time></trkpt><trkpt lat="45.7162883" lon="9.7718967"><ele>325.0</ele><time>2026-04-25T08:31:22.232Z</time></trkpt><trkpt lat="45.7161817" lon="9.7720333"><ele>325.0</ele><time>2026-04-25T08:31:23.229Z</time></trkpt><trkpt lat="45.7160783" lon="9.77217"><ele>325.0</ele><time>2026-04-25T08:31:24.229Z</time></trkpt><trkpt lat="45.71597" lon="9.7723067"><ele>325.0</ele><time>2026-04-25T08:31:25.231Z</time></trkpt><trkpt lat="45.7158633" lon="9.77244"><ele>326.0</ele><time>2026-04-25T08:31:26.23Z</time></trkpt><trkpt lat="45.7157733" lon="9.7725583"><ele>327.0</ele><time>2026-04-25T08:31:27.231Z</time></trkpt><trkpt lat="45.7156967" lon="9.7726633"><ele>328.0</ele><time>2026-04-25T08:31:28.23Z</time></trkpt><trkpt lat="45.7156267" lon="9.7727533"><ele>329.0</ele><time>2026-04-25T08:31:29.231Z</time></trkpt><trkpt lat="45.7155683" lon="9.77283"><ele>330.0</ele><time>2026-04-25T08:31:30.231Z</time></trkpt><trkpt lat="45.7155167" lon="9.7728967"><ele>330.0</ele><time>2026-04-25T08:31:31.231Z</time></trkpt><trkpt lat="45.7154467" lon="9.77299"><ele>330.0</ele><time>2026-04-25T08:31:33.229Z</time></trkpt><trkpt lat="45.7153917" lon="9.7730533"><ele>330.0</ele><time>2026-04-25T08:31:35.229Z</time></trkpt><trkpt lat="45.715305" lon="9.77308"><ele>330.0</ele><time>2026-04-25T08:31:37.231Z</time></trkpt><trkpt lat="45.7152117" lon="9.77315"><ele>330.0</ele><time>2026-04-25T08:31:39.229Z</time></trkpt><trkpt lat="45.715185" lon="9.773315"><ele>330.0</ele><time>2026-04-25T08:31:41.228Z</time></trkpt><trkpt lat="45.715175" lon="9.773415"><ele>330.0</ele><time>2026-04-25T08:31:42.228Z</time></trkpt><trkpt lat="45.7151633" lon="9.7735267"><ele>330.0</ele><time>2026-04-25T08:31:43.228Z</time></trkpt><trkpt lat="45.715145" lon="9.7736417"><ele>330.0</ele><time>2026-04-25T08:31:44.234Z</time></trkpt><trkpt lat="45.7151267" lon="9.77376"><ele>330.0</ele><time>2026-04-25T08:31:45.23Z</time></trkpt><trkpt lat="45.7151167" lon="9.7738833"><ele>330.0</ele><time>2026-04-25T08:31:46.228Z</time></trkpt><trkpt lat="45.7151217" lon="9.7740217"><ele>331.25</ele><time>2026-04-25T08:31:47.228Z</time></trkpt><trkpt lat="45.7151317" lon="9.7741667"><ele>332.5</ele><time>2026-04-25T08:31:48.23Z</time></trkpt><trkpt lat="45.71514" lon="9.7744533"><ele>333.75</ele><time>2026-04-25T08:31:50.229Z</time></trkpt><trkpt lat="45.7151317" lon="9.7745967"><ele>335.0</ele><time>2026-04-25T08:31:51.23Z</time></trkpt><trkpt lat="45.7151083" lon="9.7747433"><ele>336.4</ele><time>2026-04-25T08:31:52.229Z</time></trkpt><trkpt lat="45.71508" lon="9.7748967"><ele>337.8</ele><time>2026-04-25T08:31:53.229Z</time></trkpt><trkpt lat="45.7150517" lon="9.7750467"><ele>339.20000000000005</ele><time>2026-04-25T08:31:54.229Z</time></trkpt><trkpt lat="45.7150233" lon="9.7751883"><ele>340.6</ele><time>2026-04-25T08:31:55.23Z</time></trkpt><trkpt lat="45.71498" lon="9.7753217"><ele>342.0</ele><time>2026-04-25T08:31:56.23Z</time></trkpt><trkpt lat="45.7149167" lon="9.7754333"><ele>342.25</ele><time>2026-04-25T08:31:57.234Z</time></trkpt><trkpt lat="45.7148367" lon="9.7755333"><ele>342.5</ele><time>2026-04-25T08:31:58.229Z</time></trkpt><trkpt lat="45.7147417" lon="9.775645"><ele>342.75</ele><time>2026-04-25T08:31:59.228Z</time></trkpt><trkpt lat="45.71466" lon="9.7757767"><ele>343.0</ele><time>2026-04-25T08:32:00.228Z</time></trkpt><trkpt lat="45.7145917" lon="9.7759217"><ele>343.25</ele><time>2026-04-25T08:32:01.228Z</time></trkpt><trkpt lat="45.71454" lon="9.7760867"><ele>343.5</ele><time>2026-04-25T08:32:02.228Z</time></trkpt><trkpt lat="45.7145067" lon="9.7762583"><ele>343.75</ele><time>2026-04-25T08:32:03.229Z</time></trkpt><trkpt lat="45.7144917" lon="9.776435"><ele>344.0</ele><time>2026-04-25T08:32:04.227Z</time></trkpt><trkpt lat="45.7145017" lon="9.7765967"><ele>344.0</ele><time>2026-04-25T08:32:05.229Z</time></trkpt><trkpt lat="45.7145217" lon="9.7767467"><ele>344.0</ele><time>2026-04-25T08:32:06.23Z</time></trkpt><trkpt lat="45.7145633" lon="9.7768767"><ele>344.0</ele><time>2026-04-25T08:32:07.229Z</time></trkpt><trkpt lat="45.7146167" lon="9.7770067"><ele>344.0</ele><time>2026-04-25T08:32:08.228Z</time></trkpt><trkpt lat="45.714685" lon="9.777135"><ele>344.0</ele><time>2026-04-25T08:32:09.23Z</time></trkpt><trkpt lat="45.7147617" lon="9.7772717"><ele>345.25</ele><time>2026-04-25T08:32:10.229Z</time></trkpt><trkpt lat="45.714835" lon="9.7774067"><ele>346.5</ele><time>2026-04-25T08:32:11.231Z</time></trkpt><trkpt lat="45.71489" lon="9.7775417"><ele>347.75</ele><time>2026-04-25T08:32:12.23Z</time></trkpt><trkpt lat="45.7149267" lon="9.7776883"><ele>349.0</ele><time>2026-04-25T08:32:13.229Z</time></trkpt><trkpt lat="45.714945" lon="9.77785"><ele>350.0</ele><time>2026-04-25T08:32:14.23Z</time></trkpt><trkpt lat="45.7149567" lon="9.7780317"><ele>351.0</ele><time>2026-04-25T08:32:15.232Z</time></trkpt><trkpt lat="45.7149667" lon="9.77823"><ele>352.0</ele><time>2026-04-25T08:32:16.228Z</time></trkpt><trkpt lat="45.7149767" lon="9.7784283"><ele>353.0</ele><time>2026-04-25T08:32:17.229Z</time></trkpt><trkpt lat="45.714985" lon="9.7786167"><ele>353.0</ele><time>2026-04-25T08:32:18.228Z</time></trkpt><trkpt lat="45.7149833" lon="9.7787883"><ele>353.0</ele><time>2026-04-25T08:32:19.229Z</time></trkpt><trkpt lat="45.7149617" lon="9.7789433"><ele>353.0</ele><time>2026-04-25T08:32:20.229Z</time></trkpt><trkpt lat="45.714915" lon="9.7790967"><ele>353.0</ele><time>2026-04-25T08:32:21.23Z</time></trkpt><trkpt lat="45.714855" lon="9.7792483"><ele>351.0</ele><time>2026-04-25T08:32:22.228Z</time></trkpt><trkpt lat="45.7147867" lon="9.7794033"><ele>349.0</ele><time>2026-04-25T08:32:23.229Z</time></trkpt><trkpt lat="45.7147067" lon="9.7795467"><ele>347.0</ele><time>2026-04-25T08:32:24.23Z</time></trkpt><trkpt lat="45.7146167" lon="9.7796883"><ele>345.0</ele><time>2026-04-25T08:32:25.228Z</time></trkpt><trkpt lat="45.7145167" lon="9.7798217"><ele>345.0</ele><time>2026-04-25T08:32:26.228Z</time></trkpt><trkpt lat="45.71441" lon="9.77995"><ele>345.0</ele><time>2026-04-25T08:32:27.23Z</time></trkpt><trkpt lat="45.71432" lon="9.7800967"><ele>345.0</ele><time>2026-04-25T08:32:28.23Z</time></trkpt><trkpt lat="45.7142583" lon="9.780265"><ele>345.0</ele><time>2026-04-25T08:32:29.229Z</time></trkpt><trkpt lat="45.714215" lon="9.7804533"><ele>348.5</ele><time>2026-04-25T08:32:30.229Z</time></trkpt><trkpt lat="45.7141867" lon="9.780655"><ele>352.0</ele><time>2026-04-25T08:32:31.228Z</time></trkpt><trkpt lat="45.714165" lon="9.78086"><ele>355.5</ele><time>2026-04-25T08:32:32.23Z</time></trkpt><trkpt lat="45.7141467" lon="9.7810733"><ele>359.0</ele><time>2026-04-25T08:32:33.229Z</time></trkpt><trkpt lat="45.7141333" lon="9.7812867"><ele>359.75</ele><time>2026-04-25T08:32:34.229Z</time></trkpt><trkpt lat="45.714115" lon="9.7814817"><ele>360.5</ele><time>2026-04-25T08:32:35.228Z</time></trkpt><trkpt lat="45.7140933" lon="9.7816517"><ele>361.25</ele><time>2026-04-25T08:32:36.23Z</time></trkpt><trkpt lat="45.7140667" lon="9.781805"><ele>362.0</ele><time>2026-04-25T08:32:37.231Z</time></trkpt><trkpt lat="45.714025" lon="9.781955"><ele>362.0</ele><time>2026-04-25T08:32:38.23Z</time></trkpt><trkpt lat="45.7139817" lon="9.7821083"><ele>362.0</ele><time>2026-04-25T08:32:39.231Z</time></trkpt><trkpt lat="45.7139383" lon="9.7822583"><ele>362.0</ele><time>2026-04-25T08:32:40.23Z</time></trkpt><trkpt lat="45.7138967" lon="9.7824117"><ele>362.0</ele><time>2026-04-25T08:32:41.23Z</time></trkpt><trkpt lat="45.71385" lon="9.7825833"><ele>361.75</ele><time>2026-04-25T08:32:42.234Z</time></trkpt><trkpt lat="45.71383" lon="9.7827717"><ele>361.5</ele><time>2026-04-25T08:32:43.228Z</time></trkpt><trkpt lat="45.7138333" lon="9.7829817"><ele>361.25</ele><time>2026-04-25T08:32:44.227Z</time></trkpt><trkpt lat="45.7138467" lon="9.7832067"><ele>361.0</ele><time>2026-04-25T08:32:45.231Z</time></trkpt><trkpt lat="45.7138617" lon="9.7834567"><ele>362.0</ele><time>2026-04-25T08:32:46.227Z</time></trkpt><trkpt lat="45.713875" lon="9.7837183"><ele>363.0</ele><time>2026-04-25T08:32:47.23Z</time></trkpt><trkpt lat="45.7138833" lon="9.78399"><ele>364.0</ele><time>2026-04-25T08:32:48.227Z</time></trkpt><trkpt lat="45.713885" lon="9.7842817"><ele>366.0</ele><time>2026-04-25T08:32:49.228Z</time></trkpt><trkpt lat="45.71387" lon="9.784585"><ele>368.0</ele><time>2026-04-25T08:32:50.228Z</time></trkpt><trkpt lat="45.713845" lon="9.78489"><ele>370.0</ele><time>2026-04-25T08:32:51.229Z</time></trkpt><trkpt lat="45.7138167" lon="9.7851883"><ele>371.3333333333333</ele><time>2026-04-25T08:32:52.227Z</time></trkpt><trkpt lat="45.7137783" lon="9.7854967"><ele>372.6666666666667</ele><time>2026-04-25T08:32:53.227Z</time></trkpt><trkpt lat="45.71374" lon="9.7858"><ele>374.0</ele><time>2026-04-25T08:32:54.227Z</time></trkpt><trkpt lat="45.7137033" lon="9.78608"><ele>374.6666666666667</ele><time>2026-04-25T08:32:55.23Z</time></trkpt><trkpt lat="45.713675" lon="9.7863283"><ele>375.3333333333333</ele><time>2026-04-25T08:32:56.23Z</time></trkpt><trkpt lat="45.7136567" lon="9.786555"><ele>376.0</ele><time>2026-04-25T08:32:57.231Z</time></trkpt><trkpt lat="45.713645" lon="9.7867567"><ele>377.0</ele><time>2026-04-25T08:32:58.228Z</time></trkpt><trkpt lat="45.713645" lon="9.7869583"><ele>378.0</ele><time>2026-04-25T08:32:59.228Z</time></trkpt><trkpt lat="45.7136733" lon="9.787165"><ele>379.0</ele><time>2026-04-25T08:33:00.227Z</time></trkpt><trkpt lat="45.7137283" lon="9.7873683"><ele>380.0</ele><time>2026-04-25T08:33:01.227Z</time></trkpt><trkpt lat="45.713795" lon="9.7875633"><ele>380.75</ele><time>2026-04-25T08:33:02.227Z</time></trkpt><trkpt lat="45.7138533" lon="9.78775"><ele>381.5</ele><time>2026-04-25T08:33:03.228Z</time></trkpt><trkpt lat="45.7138833" lon="9.7879283"><ele>382.25</ele><time>2026-04-25T08:33:04.228Z</time></trkpt><trkpt lat="45.7138883" lon="9.7881083"><ele>383.0</ele><time>2026-04-25T08:33:05.23Z</time></trkpt><trkpt lat="45.71387" lon="9.788285"><ele>383.0</ele><time>2026-04-25T08:33:06.229Z</time></trkpt><trkpt lat="45.7138217" lon="9.7884617"><ele>383.0</ele><time>2026-04-25T08:33:07.229Z</time></trkpt><trkpt lat="45.713755" lon="9.7886433"><ele>383.0</ele><time>2026-04-25T08:33:08.23Z</time></trkpt><trkpt lat="45.7136817" lon="9.788825"><ele>383.0</ele><time>2026-04-25T08:33:09.228Z</time></trkpt><trkpt lat="45.7136117" lon="9.7889933"><ele>383.25</ele><time>2026-04-25T08:33:10.227Z</time></trkpt><trkpt lat="45.7135417" lon="9.7891417"><ele>383.5</ele><time>2026-04-25T08:33:11.227Z</time></trkpt><trkpt lat="45.7134567" lon="9.789275"><ele>383.75</ele><time>2026-04-25T08:33:12.228Z</time></trkpt><trkpt lat="45.71335" lon="9.78939"><ele>384.0</ele><time>2026-04-25T08:33:13.231Z</time></trkpt><trkpt lat="45.7132233" lon="9.7894883"><ele>384.0</ele><time>2026-04-25T08:33:14.227Z</time></trkpt><trkpt lat="45.7130817" lon="9.7895783"><ele>384.0</ele><time>2026-04-25T08:33:15.229Z</time></trkpt><trkpt lat="45.7129383" lon="9.7896517"><ele>384.0</ele><time>2026-04-25T08:33:16.227Z</time></trkpt><trkpt lat="45.7128083" lon="9.7897233"><ele>384.0</ele><time>2026-04-25T08:33:17.227Z</time></trkpt><trkpt lat="45.712685" lon="9.7898233"><ele>385.0</ele><time>2026-04-25T08:33:18.227Z</time></trkpt><trkpt lat="45.7125667" lon="9.789965"><ele>386.0</ele><time>2026-04-25T08:33:19.227Z</time></trkpt><trkpt lat="45.7124467" lon="9.7901317"><ele>387.0</ele><time>2026-04-25T08:33:20.227Z</time></trkpt><trkpt lat="45.71232" lon="9.7903117"><ele>387.0</ele><time>2026-04-25T08:33:21.229Z</time></trkpt><trkpt lat="45.7121917" lon="9.7904967"><ele>387.0</ele><time>2026-04-25T08:33:22.228Z</time></trkpt><trkpt lat="45.712065" lon="9.79068"><ele>387.0</ele><time>2026-04-25T08:33:23.228Z</time></trkpt><trkpt lat="45.7119467" lon="9.7908583"><ele>391.33333333333337</ele><time>2026-04-25T08:33:24.227Z</time></trkpt><trkpt lat="45.71184" lon="9.7910333"><ele>395.6666666666667</ele><time>2026-04-25T08:33:25.227Z</time></trkpt><trkpt lat="45.71175" lon="9.7912083"><ele>400.0</ele><time>2026-04-25T08:33:26.227Z</time></trkpt><trkpt lat="45.711675" lon="9.7914017"><ele>400.0</ele><time>2026-04-25T08:33:27.227Z</time></trkpt><trkpt lat="45.7116167" lon="9.7916083"><ele>400.0</ele><time>2026-04-25T08:33:28.228Z</time></trkpt><trkpt lat="45.7115617" lon="9.79181"><ele>400.0</ele><time>2026-04-25T08:33:29.229Z</time></trkpt><trkpt lat="45.7114967" lon="9.792005"><ele>400.25</ele><time>2026-04-25T08:33:30.229Z</time></trkpt><trkpt lat="45.7114317" lon="9.7921733"><ele>400.5</ele><time>2026-04-25T08:33:31.228Z</time></trkpt><trkpt lat="45.7113667" lon="9.792325"><ele>400.75</ele><time>2026-04-25T08:33:32.228Z</time></trkpt><trkpt lat="45.7113083" lon="9.7924667"><ele>401.0</ele><time>2026-04-25T08:33:33.228Z</time></trkpt><trkpt lat="45.7112533" lon="9.7925917"><ele>400.75</ele><time>2026-04-25T08:33:34.229Z</time></trkpt><trkpt lat="45.7111933" lon="9.7927083"><ele>400.5</ele><time>2026-04-25T08:33:35.228Z</time></trkpt><trkpt lat="45.71112" lon="9.7928217"><ele>400.25</ele><time>2026-04-25T08:33:36.227Z</time></trkpt><trkpt lat="45.7110267" lon="9.7929333"><ele>400.0</ele><time>2026-04-25T08:33:37.236Z</time></trkpt><trkpt lat="45.7109217" lon="9.7930417"><ele>402.5</ele><time>2026-04-25T08:33:38.227Z</time></trkpt><trkpt lat="45.710805" lon="9.7931517"><ele>405.0</ele><time>2026-04-25T08:33:39.228Z</time></trkpt><trkpt lat="45.7106867" lon="9.7932617"><ele>407.5</ele><time>2026-04-25T08:33:40.228Z</time></trkpt><trkpt lat="45.7105533" lon="9.7933733"><ele>410.0</ele><time>2026-04-25T08:33:41.227Z</time></trkpt><trkpt lat="45.7104167" lon="9.793485"><ele>412.5</ele><time>2026-04-25T08:33:42.324Z</time></trkpt><trkpt lat="45.7102867" lon="9.793595"><ele>415.0</ele><time>2026-04-25T08:33:43.227Z</time></trkpt><trkpt lat="45.7101733" lon="9.793685"><ele>417.5</ele><time>2026-04-25T08:33:44.231Z</time></trkpt><trkpt lat="45.7100683" lon="9.79375"><ele>420.0</ele><time>2026-04-25T08:33:45.23Z</time></trkpt><trkpt lat="45.7099617" lon="9.7937767"><ele>420.0</ele><time>2026-04-25T08:33:46.227Z</time></trkpt><trkpt lat="45.70984" lon="9.7937717"><ele>420.0</ele><time>2026-04-25T08:33:47.228Z</time></trkpt><trkpt lat="45.7097183" lon="9.7937617"><ele>420.0</ele><time>2026-04-25T08:33:48.228Z</time></trkpt><trkpt lat="45.70961" lon="9.7937717"><ele>420.0</ele><time>2026-04-25T08:33:49.227Z</time></trkpt><trkpt lat="45.7095067" lon="9.7938167"><ele>417.0</ele><time>2026-04-25T08:33:50.238Z</time></trkpt><trkpt lat="45.7094083" lon="9.7938967"><ele>414.0</ele><time>2026-04-25T08:33:51.227Z</time></trkpt><trkpt lat="45.7093" lon="9.7940067"><ele>411.0</ele><time>2026-04-25T08:33:52.229Z</time></trkpt><trkpt lat="45.7091783" lon="9.7941"><ele>408.0</ele><time>2026-04-25T08:33:53.228Z</time></trkpt><trkpt lat="45.7090467" lon="9.79417"><ele>408.0</ele><time>2026-04-25T08:33:54.228Z</time></trkpt><trkpt lat="45.70892" lon="9.794225"><ele>408.0</ele><time>2026-04-25T08:33:55.228Z</time></trkpt><trkpt lat="45.7087983" lon="9.7942733"><ele>408.0</ele><time>2026-04-25T08:33:56.227Z</time></trkpt><trkpt lat="45.70867" lon="9.7942917"><ele>408.0</ele><time>2026-04-25T08:33:57.227Z</time></trkpt><trkpt lat="45.70853" lon="9.794285"><ele>405.66666666666663</ele><time>2026-04-25T08:33:58.228Z</time></trkpt><trkpt lat="45.7083817" lon="9.79426"><ele>403.3333333333333</ele><time>2026-04-25T08:33:59.227Z</time></trkpt><trkpt lat="45.7082233" lon="9.7942317"><ele>401.0</ele><time>2026-04-25T08:34:00.228Z</time></trkpt><trkpt lat="45.7080733" lon="9.7942167"><ele>401.0</ele><time>2026-04-25T08:34:01.228Z</time></trkpt><trkpt lat="45.7079333" lon="9.7941967"><ele>401.0</ele><time>2026-04-25T08:34:02.227Z</time></trkpt><trkpt lat="45.707805" lon="9.79418"><ele>401.0</ele><time>2026-04-25T08:34:03.229Z</time></trkpt><trkpt lat="45.7076917" lon="9.7941583"><ele>401.0</ele><time>2026-04-25T08:34:04.227Z</time></trkpt><trkpt lat="45.7075933" lon="9.7941317"><ele>401.66666666666663</ele><time>2026-04-25T08:34:05.227Z</time></trkpt><trkpt lat="45.7075117" lon="9.7941133"><ele>402.3333333333333</ele><time>2026-04-25T08:34:06.23Z</time></trkpt><trkpt lat="45.7074467" lon="9.7940933"><ele>403.0</ele><time>2026-04-25T08:34:07.23Z</time></trkpt><trkpt lat="45.707365" lon="9.7940633"><ele>403.66666666666663</ele><time>2026-04-25T08:34:09.229Z</time></trkpt><trkpt lat="45.7072833" lon="9.79406"><ele>404.3333333333333</ele><time>2026-04-25T08:34:12.228Z</time></trkpt><trkpt lat="45.7072317" lon="9.79413"><ele>405.0</ele><time>2026-04-25T08:34:14.227Z</time></trkpt><trkpt lat="45.70717" lon="9.7942467"><ele>404.4</ele><time>2026-04-25T08:34:16.227Z</time></trkpt><trkpt lat="45.7071133" lon="9.79439"><ele>403.8</ele><time>2026-04-25T08:34:18.229Z</time></trkpt><trkpt lat="45.70715" lon="9.7945617"><ele>403.20000000000005</ele><time>2026-04-25T08:34:20.227Z</time></trkpt><trkpt lat="45.707195" lon="9.7946667"><ele>402.6</ele><time>2026-04-25T08:34:21.23Z</time></trkpt><trkpt lat="45.70724" lon="9.7947867"><ele>402.0</ele><time>2026-04-25T08:34:22.228Z</time></trkpt><trkpt lat="45.7072867" lon="9.7949133"><ele>402.0</ele><time>2026-04-25T08:34:23.228Z</time></trkpt><trkpt lat="45.7073367" lon="9.7950517"><ele>402.0</ele><time>2026-04-25T08:34:24.227Z</time></trkpt><trkpt lat="45.7073933" lon="9.7952017"><ele>402.0</ele><time>2026-04-25T08:34:25.23Z</time></trkpt><trkpt lat="45.7074483" lon="9.7953533"><ele>402.0</ele><time>2026-04-25T08:34:26.227Z</time></trkpt><trkpt lat="45.7075067" lon="9.7955133"><ele>399.25</ele><time>2026-04-25T08:34:27.228Z</time></trkpt><trkpt lat="45.7075683" lon="9.79569"><ele>396.5</ele><time>2026-04-25T08:34:28.231Z</time></trkpt><trkpt lat="45.7076233" lon="9.79588"><ele>393.75</ele><time>2026-04-25T08:34:29.228Z</time></trkpt><trkpt lat="45.70767" lon="9.79607"><ele>391.0</ele><time>2026-04-25T08:34:30.228Z</time></trkpt><trkpt lat="45.7077117" lon="9.7962533"><ele>393.0</ele><time>2026-04-25T08:34:31.229Z</time></trkpt><trkpt lat="45.70775" lon="9.796425"><ele>395.0</ele><time>2026-04-25T08:34:32.228Z</time></trkpt><trkpt lat="45.7077883" lon="9.7965983"><ele>397.0</ele><time>2026-04-25T08:34:33.228Z</time></trkpt><trkpt lat="45.7078367" lon="9.7967783"><ele>399.0</ele><time>2026-04-25T08:34:34.228Z</time></trkpt><trkpt lat="45.7078883" lon="9.7969683"><ele>399.0</ele><time>2026-04-25T08:34:35.229Z</time></trkpt><trkpt lat="45.7079317" lon="9.7971667"><ele>399.0</ele><time>2026-04-25T08:34:36.228Z</time></trkpt><trkpt lat="45.7079667" lon="9.79737"><ele>399.0</ele><time>2026-04-25T08:34:37.229Z</time></trkpt><trkpt lat="45.708" lon="9.7975533"><ele>399.0</ele><time>2026-04-25T08:34:38.23Z</time></trkpt><trkpt lat="45.7080383" lon="9.7977033"><ele>397.0</ele><time>2026-04-25T08:34:39.228Z</time></trkpt><trkpt lat="45.708095" lon="9.7978233"><ele>395.0</ele><time>2026-04-25T08:34:40.228Z</time></trkpt><trkpt lat="45.708175" lon="9.7979383"><ele>393.0</ele><time>2026-04-25T08:34:41.228Z</time></trkpt><trkpt lat="45.7082717" lon="9.79805"><ele>391.0</ele><time>2026-04-25T08:34:42.233Z</time></trkpt><trkpt lat="45.70838" lon="9.7981667"><ele>391.0</ele><time>2026-04-25T08:34:43.228Z</time></trkpt><trkpt lat="45.7084983" lon="9.7982917"><ele>391.0</ele><time>2026-04-25T08:34:44.23Z</time></trkpt><trkpt lat="45.7086267" lon="9.7984217"><ele>391.0</ele><time>2026-04-25T08:34:45.229Z</time></trkpt><trkpt lat="45.7087567" lon="9.7985467"><ele>390.5</ele><time>2026-04-25T08:34:46.227Z</time></trkpt><trkpt lat="45.7088817" lon="9.798665"><ele>390.0</ele><time>2026-04-25T08:34:47.229Z</time></trkpt><trkpt lat="45.7089917" lon="9.7987783"><ele>389.5</ele><time>2026-04-25T08:34:48.23Z</time></trkpt><trkpt lat="45.7090817" lon="9.79888"><ele>389.0</ele><time>2026-04-25T08:34:49.233Z</time></trkpt><trkpt lat="45.7091517" lon="9.798975"><ele>388.99999999999994</ele><time>2026-04-25T08:34:50.229Z</time></trkpt><trkpt lat="45.7092033" lon="9.7990683"><ele>389.0</ele><time>2026-04-25T08:34:51.23Z</time></trkpt><trkpt lat="45.709235" lon="9.7991667"><ele>389.0</ele><time>2026-04-25T08:34:52.229Z</time></trkpt><trkpt lat="45.7092317" lon="9.7992817"><ele>389.0</ele><time>2026-04-25T08:34:53.23Z</time></trkpt><trkpt lat="45.7092017" lon="9.799405"><ele>388.99999999999994</ele><time>2026-04-25T08:34:54.23Z</time></trkpt><trkpt lat="45.7091533" lon="9.79953"><ele>389.0</ele><time>2026-04-25T08:34:55.229Z</time></trkpt><trkpt lat="45.7091183" lon="9.7996383"><ele>387.4</ele><time>2026-04-25T08:34:56.23Z</time></trkpt><trkpt lat="45.7091083" lon="9.79974"><ele>385.79999999999995</ele><time>2026-04-25T08:34:57.229Z</time></trkpt><trkpt lat="45.70912" lon="9.7998533"><ele>384.20000000000005</ele><time>2026-04-25T08:34:58.227Z</time></trkpt><trkpt lat="45.7091767" lon="9.7999767"><ele>382.6</ele><time>2026-04-25T08:34:59.227Z</time></trkpt><trkpt lat="45.70926" lon="9.8001167"><ele>381.0</ele><time>2026-04-25T08:35:00.228Z</time></trkpt><trkpt lat="45.7093517" lon="9.8002767"><ele>383.75</ele><time>2026-04-25T08:35:01.228Z</time></trkpt><trkpt lat="45.70944" lon="9.8004467"><ele>386.5</ele><time>2026-04-25T08:35:02.231Z</time></trkpt><trkpt lat="45.70952" lon="9.800615"><ele>389.25</ele><time>2026-04-25T08:35:03.234Z</time></trkpt><trkpt lat="45.70959" lon="9.8007817"><ele>392.0</ele><time>2026-04-25T08:35:04.23Z</time></trkpt><trkpt lat="45.7096533" lon="9.8009433"><ele>390.0</ele><time>2026-04-25T08:35:05.228Z</time></trkpt><trkpt lat="45.70971" lon="9.8010983"><ele>388.0</ele><time>2026-04-25T08:35:06.229Z</time></trkpt><trkpt lat="45.7097583" lon="9.801245"><ele>386.0</ele><time>2026-04-25T08:35:07.227Z</time></trkpt><trkpt lat="45.70979" lon="9.801395"><ele>384.0</ele><time>2026-04-25T08:35:08.227Z</time></trkpt><trkpt lat="45.7097983" lon="9.8015483"><ele>384.0</ele><time>2026-04-25T08:35:09.228Z</time></trkpt><trkpt lat="45.7097883" lon="9.8017067"><ele>384.0</ele><time>2026-04-25T08:35:10.228Z</time></trkpt><trkpt lat="45.7097633" lon="9.801875"><ele>384.0</ele><time>2026-04-25T08:35:11.229Z</time></trkpt><trkpt lat="45.7097333" lon="9.8020517"><ele>384.0</ele><time>2026-04-25T08:35:12.229Z</time></trkpt><trkpt lat="45.7096917" lon="9.8022333"><ele>384.0</ele><time>2026-04-25T08:35:13.228Z</time></trkpt><trkpt lat="45.70964" lon="9.8024083"><ele>384.0</ele><time>2026-04-25T08:35:14.23Z</time></trkpt><trkpt lat="45.7095883" lon="9.8025767"><ele>384.0</ele><time>2026-04-25T08:35:15.229Z</time></trkpt><trkpt lat="45.70954" lon="9.8027383"><ele>384.0</ele><time>2026-04-25T08:35:16.227Z</time></trkpt><trkpt lat="45.70949" lon="9.8028867"><ele>384.2</ele><time>2026-04-25T08:35:17.228Z</time></trkpt><trkpt lat="45.7094417" lon="9.8030167"><ele>384.4</ele><time>2026-04-25T08:35:18.227Z</time></trkpt><trkpt lat="45.7093967" lon="9.80314"><ele>384.6</ele><time>2026-04-25T08:35:19.227Z</time></trkpt><trkpt lat="45.70935" lon="9.8032617"><ele>384.8</ele><time>2026-04-25T08:35:20.228Z</time></trkpt><trkpt lat="45.7092867" lon="9.8033683"><ele>385.0</ele><time>2026-04-25T08:35:21.228Z</time></trkpt><trkpt lat="45.70921" lon="9.8034667"><ele>381.6</ele><time>2026-04-25T08:35:22.228Z</time></trkpt><trkpt lat="45.709125" lon="9.803555"><ele>378.2</ele><time>2026-04-25T08:35:23.228Z</time></trkpt><trkpt lat="45.7090417" lon="9.803645"><ele>374.79999999999995</ele><time>2026-04-25T08:35:24.231Z</time></trkpt><trkpt lat="45.7089617" lon="9.80374"><ele>371.4</ele><time>2026-04-25T08:35:25.229Z</time></trkpt><trkpt lat="45.7088867" lon="9.8038467"><ele>368.0</ele><time>2026-04-25T08:35:26.227Z</time></trkpt><trkpt lat="45.708815" lon="9.80396"><ele>368.0</ele><time>2026-04-25T08:35:27.23Z</time></trkpt><trkpt lat="45.7087567" lon="9.8040783"><ele>368.0</ele><time>2026-04-25T08:35:28.227Z</time></trkpt><trkpt lat="45.7087133" lon="9.8041867"><ele>368.0</ele><time>2026-04-25T08:35:29.228Z</time></trkpt><trkpt lat="45.7086867" lon="9.8042883"><ele>368.0</ele><time>2026-04-25T08:35:30.228Z</time></trkpt><trkpt lat="45.708685" lon="9.8044017"><ele>368.0</ele><time>2026-04-25T08:35:31.229Z</time></trkpt><trkpt lat="45.7087067" lon="9.8045317"><ele>368.0</ele><time>2026-04-25T08:35:32.227Z</time></trkpt><trkpt lat="45.7087467" lon="9.80468"><ele>367.25</ele><time>2026-04-25T08:35:33.228Z</time></trkpt><trkpt lat="45.708785" lon="9.8048417"><ele>366.5</ele><time>2026-04-25T08:35:34.227Z</time></trkpt><trkpt lat="45.7088233" lon="9.8050133"><ele>365.75</ele><time>2026-04-25T08:35:35.229Z</time></trkpt><trkpt lat="45.708855" lon="9.8051883"><ele>365.0</ele><time>2026-04-25T08:35:36.229Z</time></trkpt><trkpt lat="45.7088733" lon="9.805355"><ele>363.6</ele><time>2026-04-25T08:35:37.227Z</time></trkpt><trkpt lat="45.7088883" lon="9.8055167"><ele>362.2</ele><time>2026-04-25T08:35:38.228Z</time></trkpt><trkpt lat="45.7089" lon="9.8056733"><ele>360.79999999999995</ele><time>2026-04-25T08:35:39.23Z</time></trkpt><trkpt lat="45.7089083" lon="9.8058233"><ele>359.4</ele><time>2026-04-25T08:35:40.229Z</time></trkpt><trkpt lat="45.7089167" lon="9.8059717"><ele>358.0</ele><time>2026-04-25T08:35:41.228Z</time></trkpt><trkpt lat="45.7089333" lon="9.8061217"><ele>357.0</ele><time>2026-04-25T08:35:42.228Z</time></trkpt><trkpt lat="45.70896" lon="9.8062667"><ele>356.0</ele><time>2026-04-25T08:35:43.228Z</time></trkpt><trkpt lat="45.7089967" lon="9.8064017"><ele>355.0</ele><time>2026-04-25T08:35:44.228Z</time></trkpt><trkpt lat="45.7090283" lon="9.8065367"><ele>354.0</ele><time>2026-04-25T08:35:45.227Z</time></trkpt><trkpt lat="45.7090433" lon="9.8066717"><ele>353.0</ele><time>2026-04-25T08:35:46.228Z</time></trkpt><trkpt lat="45.709035" lon="9.8068033"><ele>353.0</ele><time>2026-04-25T08:35:47.228Z</time></trkpt><trkpt lat="45.7090083" lon="9.80693"><ele>353.0</ele><time>2026-04-25T08:35:48.23Z</time></trkpt><trkpt lat="45.7089533" lon="9.80705"><ele>353.0</ele><time>2026-04-25T08:35:49.228Z</time></trkpt><trkpt lat="45.7088783" lon="9.8071667"><ele>353.0</ele><time>2026-04-25T08:35:50.232Z</time></trkpt><trkpt lat="45.7087983" lon="9.8072717"><ele>353.0</ele><time>2026-04-25T08:35:51.229Z</time></trkpt><trkpt lat="45.7087167" lon="9.8073617"><ele>353.0</ele><time>2026-04-25T08:35:52.229Z</time></trkpt><trkpt lat="45.708635" lon="9.807445"><ele>353.0</ele><time>2026-04-25T08:35:53.229Z</time></trkpt><trkpt lat="45.7085583" lon="9.807525"><ele>353.0</ele><time>2026-04-25T08:35:54.23Z</time></trkpt><trkpt lat="45.708475" lon="9.8076067"><ele>353.0</ele><time>2026-04-25T08:35:55.229Z</time></trkpt><trkpt lat="45.7083867" lon="9.8076867"><ele>353.0</ele><time>2026-04-25T08:35:56.229Z</time></trkpt><trkpt lat="45.7082983" lon="9.80776"><ele>352.4</ele><time>2026-04-25T08:35:57.229Z</time></trkpt><trkpt lat="45.70821" lon="9.80782"><ele>351.79999999999995</ele><time>2026-04-25T08:35:58.23Z</time></trkpt><trkpt lat="45.7081217" lon="9.8078733"><ele>351.2</ele><time>2026-04-25T08:35:59.227Z</time></trkpt><trkpt lat="45.7080333" lon="9.8079217"><ele>350.6</ele><time>2026-04-25T08:36:00.228Z</time></trkpt><trkpt lat="45.7079417" lon="9.8079817"><ele>350.0</ele><time>2026-04-25T08:36:01.227Z</time></trkpt><trkpt lat="45.7078617" lon="9.8080417"><ele>350.0</ele><time>2026-04-25T08:36:02.228Z</time></trkpt><trkpt lat="45.707785" lon="9.8081067"><ele>350.0</ele><time>2026-04-25T08:36:03.228Z</time></trkpt><trkpt lat="45.7077017" lon="9.80818"><ele>350.0</ele><time>2026-04-25T08:36:04.227Z</time></trkpt><trkpt lat="45.7076117" lon="9.8082617"><ele>350.0</ele><time>2026-04-25T08:36:05.228Z</time></trkpt><trkpt lat="45.707525" lon="9.8083417"><ele>350.0</ele><time>2026-04-25T08:36:06.229Z</time></trkpt><trkpt lat="45.7074433" lon="9.8084183"><ele>349.0</ele><time>2026-04-25T08:36:07.229Z</time></trkpt><trkpt lat="45.707365" lon="9.8084933"><ele>348.0</ele><time>2026-04-25T08:36:08.229Z</time></trkpt><trkpt lat="45.70729" lon="9.80856"><ele>347.0</ele><time>2026-04-25T08:36:09.228Z</time></trkpt><trkpt lat="45.7072133" lon="9.808615"><ele>346.0</ele><time>2026-04-25T08:36:10.227Z</time></trkpt><trkpt lat="45.7071367" lon="9.8086717"><ele>345.0</ele><time>2026-04-25T08:36:11.229Z</time></trkpt><trkpt lat="45.707055" lon="9.8087483"><ele>345.0</ele><time>2026-04-25T08:36:12.229Z</time></trkpt><trkpt lat="45.706985" lon="9.8088583"><ele>345.0</ele><time>2026-04-25T08:36:13.233Z</time></trkpt><trkpt lat="45.7069283" lon="9.80899"><ele>345.0</ele><time>2026-04-25T08:36:14.227Z</time></trkpt><trkpt lat="45.70688" lon="9.809135"><ele>345.0</ele><time>2026-04-25T08:36:15.232Z</time></trkpt><trkpt lat="45.706835" lon="9.809285"><ele>345.0</ele><time>2026-04-25T08:36:16.227Z</time></trkpt><trkpt lat="45.7067867" lon="9.8094367"><ele>342.4</ele><time>2026-04-25T08:36:17.229Z</time></trkpt><trkpt lat="45.70673" lon="9.809575"><ele>339.8</ele><time>2026-04-25T08:36:18.228Z</time></trkpt><trkpt lat="45.7066717" lon="9.8097017"><ele>337.20000000000005</ele><time>2026-04-25T08:36:19.23Z</time></trkpt><trkpt lat="45.7066133" lon="9.80982"><ele>334.6</ele><time>2026-04-25T08:36:20.227Z</time></trkpt><trkpt lat="45.7065567" lon="9.8099333"><ele>332.0</ele><time>2026-04-25T08:36:21.23Z</time></trkpt><trkpt lat="45.706495" lon="9.8100283"><ele>332.0</ele><time>2026-04-25T08:36:22.228Z</time></trkpt><trkpt lat="45.706425" lon="9.8101117"><ele>332.0</ele><time>2026-04-25T08:36:23.228Z</time></trkpt><trkpt lat="45.7063533" lon="9.8101833"><ele>332.0</ele><time>2026-04-25T08:36:24.227Z</time></trkpt><trkpt lat="45.7062817" lon="9.8102533"><ele>332.0</ele><time>2026-04-25T08:36:25.227Z</time></trkpt><trkpt lat="45.70622" lon="9.8103233"><ele>332.0</ele><time>2026-04-25T08:36:26.228Z</time></trkpt><trkpt lat="45.7061567" lon="9.8103983"><ele>332.0</ele><time>2026-04-25T08:36:27.229Z</time></trkpt><trkpt lat="45.70609" lon="9.81048"><ele>331.40000000000003</ele><time>2026-04-25T08:36:28.228Z</time></trkpt><trkpt lat="45.706035" lon="9.8105767"><ele>330.8</ele><time>2026-04-25T08:36:29.228Z</time></trkpt><trkpt lat="45.7059833" lon="9.81069"><ele>330.2</ele><time>2026-04-25T08:36:30.229Z</time></trkpt><trkpt lat="45.705945" lon="9.8108133"><ele>329.6</ele><time>2026-04-25T08:36:31.227Z</time></trkpt><trkpt lat="45.70591" lon="9.8109517"><ele>329.0</ele><time>2026-04-25T08:36:32.229Z</time></trkpt><trkpt lat="45.705875" lon="9.81109"><ele>329.0</ele><time>2026-04-25T08:36:33.23Z</time></trkpt><trkpt lat="45.7058417" lon="9.8112217"><ele>329.0</ele><time>2026-04-25T08:36:34.228Z</time></trkpt><trkpt lat="45.7058167" lon="9.8113533"><ele>329.0</ele><time>2026-04-25T08:36:35.229Z</time></trkpt><trkpt lat="45.7057883" lon="9.811475"><ele>329.0</ele><time>2026-04-25T08:36:36.229Z</time></trkpt><trkpt lat="45.7057617" lon="9.8115783"><ele>329.0</ele><time>2026-04-25T08:36:37.228Z</time></trkpt><trkpt lat="45.7057383" lon="9.811665"><ele>329.0</ele><time>2026-04-25T08:36:38.229Z</time></trkpt><trkpt lat="45.7056983" lon="9.8117967"><ele>329.0</ele><time>2026-04-25T08:36:40.228Z</time></trkpt><trkpt lat="45.705625" lon="9.8118583"><ele>329.0</ele><time>2026-04-25T08:36:42.229Z</time></trkpt><trkpt lat="45.7055017" lon="9.8118433"><ele>329.0</ele><time>2026-04-25T08:36:44.229Z</time></trkpt><trkpt lat="45.7054167" lon="9.8117967"><ele>329.0</ele><time>2026-04-25T08:36:45.229Z</time></trkpt><trkpt lat="45.7053233" lon="9.811735"><ele>329.0</ele><time>2026-04-25T08:36:46.227Z</time></trkpt><trkpt lat="45.705235" lon="9.8116817"><ele>326.8</ele><time>2026-04-25T08:36:47.227Z</time></trkpt><trkpt lat="45.7051483" lon="9.8116167"><ele>324.59999999999997</ele><time>2026-04-25T08:36:48.231Z</time></trkpt><trkpt lat="45.7050517" lon="9.8115417"><ele>322.4</ele><time>2026-04-25T08:36:49.228Z</time></trkpt><trkpt lat="45.70496" lon="9.81147"><ele>320.2</ele><time>2026-04-25T08:36:50.228Z</time></trkpt><trkpt lat="45.70487" lon="9.811385"><ele>318.0</ele><time>2026-04-25T08:36:51.231Z</time></trkpt><trkpt lat="45.7047867" lon="9.811315"><ele>318.0</ele><time>2026-04-25T08:36:52.229Z</time></trkpt><trkpt lat="45.70471" lon="9.8112717"><ele>318.0</ele><time>2026-04-25T08:36:53.227Z</time></trkpt><trkpt lat="45.7046383" lon="9.81125"><ele>318.0</ele><time>2026-04-25T08:36:54.23Z</time></trkpt><trkpt lat="45.70457" lon="9.8112433"><ele>318.0</ele><time>2026-04-25T08:36:55.23Z</time></trkpt><trkpt lat="45.70451" lon="9.8112783"><ele>318.0</ele><time>2026-04-25T08:36:56.229Z</time></trkpt><trkpt lat="45.7044433" lon="9.8113433"><ele>318.0</ele><time>2026-04-25T08:36:57.228Z</time></trkpt><trkpt lat="45.7043867" lon="9.81143"><ele>316.8333333333333</ele><time>2026-04-25T08:36:58.227Z</time></trkpt><trkpt lat="45.7043283" lon="9.8115367"><ele>315.6666666666667</ele><time>2026-04-25T08:36:59.228Z</time></trkpt><trkpt lat="45.704275" lon="9.8116383"><ele>314.5</ele><time>2026-04-25T08:37:00.227Z</time></trkpt><trkpt lat="45.7042217" lon="9.8117267"><ele>313.33333333333337</ele><time>2026-04-25T08:37:01.228Z</time></trkpt><trkpt lat="45.7041617" lon="9.8117983"><ele>312.1666666666667</ele><time>2026-04-25T08:37:02.23Z</time></trkpt><trkpt lat="45.7040833" lon="9.811835"><ele>311.0</ele><time>2026-04-25T08:37:03.228Z</time></trkpt><trkpt lat="45.70399" lon="9.8118683"><ele>312.2</ele><time>2026-04-25T08:37:04.228Z</time></trkpt><trkpt lat="45.7038883" lon="9.8118967"><ele>313.40000000000003</ele><time>2026-04-25T08:37:05.229Z</time></trkpt><trkpt lat="45.703785" lon="9.8119217"><ele>314.6</ele><time>2026-04-25T08:37:06.231Z</time></trkpt><trkpt lat="45.703685" lon="9.811935"><ele>315.8</ele><time>2026-04-25T08:37:07.228Z</time></trkpt><trkpt lat="45.70359" lon="9.8119467"><ele>317.0</ele><time>2026-04-25T08:37:08.229Z</time></trkpt><trkpt lat="45.7035017" lon="9.81196"><ele>317.0</ele><time>2026-04-25T08:37:09.229Z</time></trkpt><trkpt lat="45.70342" lon="9.8119667"><ele>317.0</ele><time>2026-04-25T08:37:10.229Z</time></trkpt><trkpt lat="45.70334" lon="9.8119733"><ele>317.0</ele><time>2026-04-25T08:37:11.228Z</time></trkpt><trkpt lat="45.7032667" lon="9.8119783"><ele>317.0</ele><time>2026-04-25T08:37:12.227Z</time></trkpt><trkpt lat="45.703195" lon="9.8119917"><ele>317.0</ele><time>2026-04-25T08:37:13.227Z</time></trkpt><trkpt lat="45.7031317" lon="9.8120033"><ele>317.0</ele><time>2026-04-25T08:37:14.228Z</time></trkpt><trkpt lat="45.7030683" lon="9.8120083"><ele>317.0</ele><time>2026-04-25T08:37:15.229Z</time></trkpt><trkpt lat="45.7030017" lon="9.81201"><ele>317.0</ele><time>2026-04-25T08:37:16.228Z</time></trkpt><trkpt lat="45.702935" lon="9.8120067"><ele>317.0</ele><time>2026-04-25T08:37:17.228Z</time></trkpt><trkpt lat="45.702865" lon="9.8119917"><ele>317.0</ele><time>2026-04-25T08:37:18.229Z</time></trkpt><trkpt lat="45.702795" lon="9.8119583"><ele>317.0</ele><time>2026-04-25T08:37:19.229Z</time></trkpt><trkpt lat="45.7027283" lon="9.811915"><ele>317.0</ele><time>2026-04-25T08:37:20.228Z</time></trkpt><trkpt lat="45.7026567" lon="9.8118567"><ele>317.0</ele><time>2026-04-25T08:37:21.228Z</time></trkpt><trkpt lat="45.70259" lon="9.8118"><ele>317.0</ele><time>2026-04-25T08:37:22.228Z</time></trkpt><trkpt lat="45.7025233" lon="9.811745"><ele>314.6666666666667</ele><time>2026-04-25T08:37:23.227Z</time></trkpt><trkpt lat="45.70245" lon="9.8117317"><ele>312.33333333333337</ele><time>2026-04-25T08:37:24.229Z</time></trkpt><trkpt lat="45.7023767" lon="9.8117733"><ele>310.0</ele><time>2026-04-25T08:37:25.229Z</time></trkpt><trkpt lat="45.7023083" lon="9.8118367"><ele>307.6666666666667</ele><time>2026-04-25T08:37:26.228Z</time></trkpt><trkpt lat="45.702245" lon="9.811905"><ele>305.3333333333333</ele><time>2026-04-25T08:37:27.231Z</time></trkpt><trkpt lat="45.702185" lon="9.81198"><ele>303.0</ele><time>2026-04-25T08:37:28.228Z</time></trkpt><trkpt lat="45.702145" lon="9.8120633"><ele>303.0</ele><time>2026-04-25T08:37:29.227Z</time></trkpt><trkpt lat="45.7021117" lon="9.81216"><ele>303.0</ele><time>2026-04-25T08:37:30.23Z</time></trkpt><trkpt lat="45.7020833" lon="9.8122683"><ele>303.0</ele><time>2026-04-25T08:37:31.228Z</time></trkpt><trkpt lat="45.7020683" lon="9.8123883"><ele>303.0</ele><time>2026-04-25T08:37:32.229Z</time></trkpt><trkpt lat="45.7020567" lon="9.8125183"><ele>303.0</ele><time>2026-04-25T08:37:33.229Z</time></trkpt><trkpt lat="45.7020617" lon="9.812645"><ele>303.0</ele><time>2026-04-25T08:37:34.229Z</time></trkpt><trkpt lat="45.7020733" lon="9.81277"><ele>302.2</ele><time>2026-04-25T08:37:35.23Z</time></trkpt><trkpt lat="45.7020867" lon="9.8129017"><ele>301.4</ele><time>2026-04-25T08:37:36.228Z</time></trkpt><trkpt lat="45.7021117" lon="9.8130417"><ele>300.59999999999997</ele><time>2026-04-25T08:37:37.229Z</time></trkpt><trkpt lat="45.7021367" lon="9.8131867"><ele>299.8</ele><time>2026-04-25T08:37:38.227Z</time></trkpt><trkpt lat="45.7021617" lon="9.8133367"><ele>299.0</ele><time>2026-04-25T08:37:39.23Z</time></trkpt><trkpt lat="45.702185" lon="9.8134867"><ele>297.59999999999997</ele><time>2026-04-25T08:37:40.227Z</time></trkpt><trkpt lat="45.7022083" lon="9.81364"><ele>296.2</ele><time>2026-04-25T08:37:41.228Z</time></trkpt><trkpt lat="45.7022333" lon="9.8137883"><ele>294.79999999999995</ele><time>2026-04-25T08:37:42.228Z</time></trkpt><trkpt lat="45.7022533" lon="9.8139283"><ele>293.4</ele><time>2026-04-25T08:37:43.228Z</time></trkpt><trkpt lat="45.70227" lon="9.8140467"><ele>292.0</ele><time>2026-04-25T08:37:44.227Z</time></trkpt><trkpt lat="45.70227" lon="9.81415"><ele>292.0</ele><time>2026-04-25T08:37:45.23Z</time></trkpt><trkpt lat="45.7022533" lon="9.8142433"><ele>292.0</ele><time>2026-04-25T08:37:46.227Z</time></trkpt><trkpt lat="45.70222" lon="9.8143333"><ele>292.0</ele><time>2026-04-25T08:37:47.227Z</time></trkpt><trkpt lat="45.7021583" lon="9.8144133"><ele>292.0</ele><time>2026-04-25T08:37:48.233Z</time></trkpt><trkpt lat="45.7020883" lon="9.8144883"><ele>292.0</ele><time>2026-04-25T08:37:49.229Z</time></trkpt><trkpt lat="45.7020017" lon="9.81456"><ele>292.0</ele><time>2026-04-25T08:37:50.231Z</time></trkpt><trkpt lat="45.7019133" lon="9.81462"><ele>290.4</ele><time>2026-04-25T08:37:51.231Z</time></trkpt><trkpt lat="45.7018167" lon="9.8146767"><ele>288.79999999999995</ele><time>2026-04-25T08:37:52.229Z</time></trkpt><trkpt lat="45.7017167" lon="9.8147217"><ele>287.2</ele><time>2026-04-25T08:37:53.229Z</time></trkpt><trkpt lat="45.7016067" lon="9.814755"><ele>285.59999999999997</ele><time>2026-04-25T08:37:54.228Z</time></trkpt><trkpt lat="45.7014867" lon="9.8147867"><ele>284.0</ele><time>2026-04-25T08:37:55.228Z</time></trkpt><trkpt lat="45.7013717" lon="9.8148283"><ele>284.0</ele><time>2026-04-25T08:37:56.228Z</time></trkpt><trkpt lat="45.701265" lon="9.8148833"><ele>284.0</ele><time>2026-04-25T08:37:57.23Z</time></trkpt><trkpt lat="45.7011617" lon="9.8149483"><ele>284.0</ele><time>2026-04-25T08:37:58.228Z</time></trkpt><trkpt lat="45.7010617" lon="9.8150183"><ele>284.0</ele><time>2026-04-25T08:37:59.228Z</time></trkpt><trkpt lat="45.7009617" lon="9.8150933"><ele>288.25</ele><time>2026-04-25T08:38:00.231Z</time></trkpt><trkpt lat="45.7008617" lon="9.81517"><ele>292.5</ele><time>2026-04-25T08:38:01.229Z</time></trkpt><trkpt lat="45.7007633" lon="9.8152517"><ele>296.75</ele><time>2026-04-25T08:38:02.228Z</time></trkpt><trkpt lat="45.70067" lon="9.8153433"><ele>301.0</ele><time>2026-04-25T08:38:03.228Z</time></trkpt><trkpt lat="45.7005833" lon="9.815445"><ele>301.0</ele><time>2026-04-25T08:38:04.229Z</time></trkpt><trkpt lat="45.7004983" lon="9.815545"><ele>301.0</ele><time>2026-04-25T08:38:05.228Z</time></trkpt><trkpt lat="45.70042" lon="9.8156333"><ele>301.0</ele><time>2026-04-25T08:38:06.227Z</time></trkpt><trkpt lat="45.7003483" lon="9.8157217"><ele>301.0</ele><time>2026-04-25T08:38:07.228Z</time></trkpt><trkpt lat="45.70028" lon="9.8158033"><ele>301.0</ele><time>2026-04-25T08:38:08.229Z</time></trkpt><trkpt lat="45.700215" lon="9.8158783"><ele>298.3333333333333</ele><time>2026-04-25T08:38:09.229Z</time></trkpt><trkpt lat="45.700155" lon="9.8159567"><ele>295.66666666666663</ele><time>2026-04-25T08:38:10.228Z</time></trkpt><trkpt lat="45.7001067" lon="9.8160483"><ele>293.0</ele><time>2026-04-25T08:38:11.229Z</time></trkpt><trkpt lat="45.7000733" lon="9.8161533"><ele>290.3333333333333</ele><time>2026-04-25T08:38:12.228Z</time></trkpt><trkpt lat="45.70005" lon="9.8162733"><ele>287.6666666666667</ele><time>2026-04-25T08:38:13.227Z</time></trkpt><trkpt lat="45.700045" lon="9.8164"><ele>285.0</ele><time>2026-04-25T08:38:14.228Z</time></trkpt><trkpt lat="45.7000483" lon="9.816525"><ele>285.0</ele><time>2026-04-25T08:38:15.23Z</time></trkpt><trkpt lat="45.7000533" lon="9.8166467"><ele>285.0</ele><time>2026-04-25T08:38:16.228Z</time></trkpt><trkpt lat="45.7000583" lon="9.816765"><ele>285.0</ele><time>2026-04-25T08:38:17.23Z</time></trkpt><trkpt lat="45.7000517" lon="9.81687"><ele>285.0</ele><time>2026-04-25T08:38:18.229Z</time></trkpt><trkpt lat="45.7000383" lon="9.8169633"><ele>285.0</ele><time>2026-04-25T08:38:19.228Z</time></trkpt><trkpt lat="45.7000033" lon="9.8171433"><ele>285.0</ele><time>2026-04-25T08:38:21.229Z</time></trkpt><trkpt lat="45.6999883" lon="9.8172383"><ele>284.5</ele><time>2026-04-25T08:38:22.228Z</time></trkpt><trkpt lat="45.6999717" lon="9.8173333"><ele>284.0</ele><time>2026-04-25T08:38:23.23Z</time></trkpt><trkpt lat="45.6999483" lon="9.8174233"><ele>283.5</ele><time>2026-04-25T08:38:24.23Z</time></trkpt><trkpt lat="45.69991" lon="9.8175983"><ele>283.0</ele><time>2026-04-25T08:38:26.229Z</time></trkpt><trkpt lat="45.699895" lon="9.8176967"><ele>282.5</ele><time>2026-04-25T08:38:27.23Z</time></trkpt><trkpt lat="45.6998683" lon="9.8178083"><ele>282.0</ele><time>2026-04-25T08:38:28.228Z</time></trkpt><trkpt lat="45.6998367" lon="9.8179283"><ele>282.0</ele><time>2026-04-25T08:38:29.227Z</time></trkpt><trkpt lat="45.699795" lon="9.8180533"><ele>282.0</ele><time>2026-04-25T08:38:30.229Z</time></trkpt><trkpt lat="45.6997483" lon="9.8181833"><ele>282.0</ele><time>2026-04-25T08:38:31.228Z</time></trkpt><trkpt lat="45.6996933" lon="9.818315"><ele>282.0</ele><time>2026-04-25T08:38:32.228Z</time></trkpt><trkpt lat="45.699635" lon="9.8184383"><ele>282.0</ele><time>2026-04-25T08:38:33.229Z</time></trkpt><trkpt lat="45.699585" lon="9.8185583"><ele>281.6</ele><time>2026-04-25T08:38:34.23Z</time></trkpt><trkpt lat="45.699545" lon="9.8186683"><ele>281.2</ele><time>2026-04-25T08:38:35.228Z</time></trkpt><trkpt lat="45.6995183" lon="9.8187883"><ele>280.8</ele><time>2026-04-25T08:38:36.23Z</time></trkpt><trkpt lat="45.6994933" lon="9.8189483"><ele>280.4</ele><time>2026-04-25T08:38:37.231Z</time></trkpt><trkpt lat="45.69947" lon="9.8191433"><ele>280.0</ele><time>2026-04-25T08:38:38.231Z</time></trkpt><trkpt lat="45.699445" lon="9.8193583"><ele>279.0</ele><time>2026-04-25T08:38:39.23Z</time></trkpt><trkpt lat="45.699425" lon="9.8195683"><ele>278.0</ele><time>2026-04-25T08:38:40.23Z</time></trkpt><trkpt lat="45.6994083" lon="9.819775"><ele>277.0</ele><time>2026-04-25T08:38:41.229Z</time></trkpt><trkpt lat="45.6993933" lon="9.81996"><ele>276.0</ele><time>2026-04-25T08:38:42.231Z</time></trkpt><trkpt lat="45.6993833" lon="9.8201067"><ele>274.42857142857144</ele><time>2026-04-25T08:38:43.229Z</time></trkpt><trkpt lat="45.699375" lon="9.8202167"><ele>272.8571428571429</ele><time>2026-04-25T08:38:44.231Z</time></trkpt><trkpt lat="45.6993567" lon="9.820345"><ele>271.2857142857143</ele><time>2026-04-25T08:38:46.229Z</time></trkpt><trkpt lat="45.6993167" lon="9.8204183"><ele>269.7142857142857</ele><time>2026-04-25T08:38:49.229Z</time></trkpt><trkpt lat="45.6992567" lon="9.8204617"><ele>268.1428571428571</ele><time>2026-04-25T08:38:51.228Z</time></trkpt><trkpt lat="45.6991933" lon="9.8204717"><ele>266.57142857142856</ele><time>2026-04-25T08:38:52.228Z</time></trkpt><trkpt lat="45.699115" lon="9.8204533"><ele>265.0</ele><time>2026-04-25T08:38:53.229Z</time></trkpt><trkpt lat="45.699025" lon="9.8204217"><ele>265.0</ele><time>2026-04-25T08:38:54.227Z</time></trkpt><trkpt lat="45.698925" lon="9.8203767"><ele>265.0</ele><time>2026-04-25T08:38:55.228Z</time></trkpt><trkpt lat="45.69882" lon="9.8203233"><ele>265.0</ele><time>2026-04-25T08:38:56.229Z</time></trkpt><trkpt lat="45.6987" lon="9.8202633"><ele>265.0</ele><time>2026-04-25T08:38:57.229Z</time></trkpt><trkpt lat="45.69857" lon="9.8201933"><ele>264.25</ele><time>2026-04-25T08:38:58.229Z</time></trkpt><trkpt lat="45.6984433" lon="9.820125"><ele>263.5</ele><time>2026-04-25T08:38:59.228Z</time></trkpt><trkpt lat="45.6983217" lon="9.8200567"><ele>262.75</ele><time>2026-04-25T08:39:00.231Z</time></trkpt><trkpt lat="45.698205" lon="9.8199917"><ele>262.0</ele><time>2026-04-25T08:39:01.229Z</time></trkpt><trkpt lat="45.6980883" lon="9.8199333"><ele>262.0</ele><time>2026-04-25T08:39:02.229Z</time></trkpt><trkpt lat="45.6979583" lon="9.819885"><ele>262.0</ele><time>2026-04-25T08:39:03.229Z</time></trkpt><trkpt lat="45.6978133" lon="9.8198467"><ele>262.0</ele><time>2026-04-25T08:39:04.228Z</time></trkpt><trkpt lat="45.6976683" lon="9.819825"><ele>262.0</ele><time>2026-04-25T08:39:05.23Z</time></trkpt><trkpt lat="45.6975267" lon="9.819825"><ele>260.5</ele><time>2026-04-25T08:39:06.23Z</time></trkpt><trkpt lat="45.6973933" lon="9.8198417"><ele>259.0</ele><time>2026-04-25T08:39:07.23Z</time></trkpt><trkpt lat="45.6972683" lon="9.81987"><ele>257.5</ele><time>2026-04-25T08:39:08.229Z</time></trkpt><trkpt lat="45.6971483" lon="9.8199083"><ele>256.0</ele><time>2026-04-25T08:39:09.228Z</time></trkpt><trkpt lat="45.697035" lon="9.8199467"><ele>256.0</ele><time>2026-04-25T08:39:10.229Z</time></trkpt><trkpt lat="45.6969283" lon="9.8199817"><ele>256.0</ele><time>2026-04-25T08:39:11.228Z</time></trkpt><trkpt lat="45.69683" lon="9.8200183"><ele>256.0</ele><time>2026-04-25T08:39:12.227Z</time></trkpt><trkpt lat="45.696735" lon="9.8200533"><ele>256.0</ele><time>2026-04-25T08:39:13.227Z</time></trkpt><trkpt lat="45.6966467" lon="9.8200867"><ele>256.0</ele><time>2026-04-25T08:39:14.229Z</time></trkpt><trkpt lat="45.69657" lon="9.8201167"><ele>255.83333333333331</ele><time>2026-04-25T08:39:15.228Z</time></trkpt><trkpt lat="45.6965017" lon="9.8201417"><ele>255.66666666666666</ele><time>2026-04-25T08:39:16.228Z</time></trkpt><trkpt lat="45.6964383" lon="9.8201583"><ele>255.5</ele><time>2026-04-25T08:39:17.228Z</time></trkpt><trkpt lat="45.69631" lon="9.8201367"><ele>255.33333333333331</ele><time>2026-04-25T08:39:19.23Z</time></trkpt><trkpt lat="45.6962383" lon="9.8201383"><ele>255.16666666666666</ele><time>2026-04-25T08:39:20.23Z</time></trkpt><trkpt lat="45.6961683" lon="9.8201667"><ele>255.0</ele><time>2026-04-25T08:39:21.229Z</time></trkpt><trkpt lat="45.69608" lon="9.8202183"><ele>254.66666666666669</ele><time>2026-04-25T08:39:22.228Z</time></trkpt><trkpt lat="45.6959617" lon="9.8202833"><ele>254.33333333333334</ele><time>2026-04-25T08:39:23.228Z</time></trkpt><trkpt lat="45.6958133" lon="9.820345"><ele>254.0</ele><time>2026-04-25T08:39:24.228Z</time></trkpt><trkpt lat="45.695645" lon="9.8204017"><ele>254.0</ele><time>2026-04-25T08:39:25.228Z</time></trkpt><trkpt lat="45.6954667" lon="9.8204567"><ele>254.0</ele><time>2026-04-25T08:39:26.228Z</time></trkpt><trkpt lat="45.6952833" lon="9.8205133"><ele>254.0</ele><time>2026-04-25T08:39:27.228Z</time></trkpt><trkpt lat="45.6951117" lon="9.8205583"><ele>254.0</ele><time>2026-04-25T08:39:28.228Z</time></trkpt><trkpt lat="45.69495" lon="9.8206"><ele>254.0</ele><time>2026-04-25T08:39:29.229Z</time></trkpt><trkpt lat="45.69479" lon="9.820645"><ele>254.0</ele><time>2026-04-25T08:39:30.228Z</time></trkpt><trkpt lat="45.6946233" lon="9.8206933"><ele>254.0</ele><time>2026-04-25T08:39:31.228Z</time></trkpt><trkpt lat="45.694445" lon="9.8207467"><ele>254.0</ele><time>2026-04-25T08:39:32.232Z</time></trkpt><trkpt lat="45.694265" lon="9.8208017"><ele>254.0</ele><time>2026-04-25T08:39:33.229Z</time></trkpt><trkpt lat="45.6940983" lon="9.820855"><ele>253.75</ele><time>2026-04-25T08:39:34.228Z</time></trkpt><trkpt lat="45.6939417" lon="9.8209017"><ele>253.5</ele><time>2026-04-25T08:39:35.229Z</time></trkpt><trkpt lat="45.693795" lon="9.820945"><ele>253.25</ele><time>2026-04-25T08:39:36.233Z</time></trkpt><trkpt lat="45.6936633" lon="9.8209867"><ele>253.0</ele><time>2026-04-25T08:39:37.227Z</time></trkpt><trkpt lat="45.69354" lon="9.8210283"><ele>252.66666666666666</ele><time>2026-04-25T08:39:38.231Z</time></trkpt><trkpt lat="45.6934067" lon="9.8210817"><ele>252.33333333333331</ele><time>2026-04-25T08:39:39.23Z</time></trkpt><trkpt lat="45.693255" lon="9.8211367"><ele>252.0</ele><time>2026-04-25T08:39:40.227Z</time></trkpt><trkpt lat="45.6931033" lon="9.821185"><ele>252.0</ele><time>2026-04-25T08:39:41.227Z</time></trkpt><trkpt lat="45.69296" lon="9.8212383"><ele>252.0</ele><time>2026-04-25T08:39:42.228Z</time></trkpt><trkpt lat="45.69283" lon="9.8212833"><ele>252.0</ele><time>2026-04-25T08:39:43.228Z</time></trkpt><trkpt lat="45.6927017" lon="9.821315"><ele>252.0</ele><time>2026-04-25T08:39:44.227Z</time></trkpt><trkpt lat="45.6925633" lon="9.82132"><ele>252.33333333333331</ele><time>2026-04-25T08:39:45.228Z</time></trkpt><trkpt lat="45.6924067" lon="9.8213217"><ele>252.66666666666666</ele><time>2026-04-25T08:39:46.228Z</time></trkpt><trkpt lat="45.6922333" lon="9.8213233"><ele>253.0</ele><time>2026-04-25T08:39:47.228Z</time></trkpt><trkpt lat="45.69206" lon="9.8213167"><ele>253.66666666666666</ele><time>2026-04-25T08:39:48.229Z</time></trkpt><trkpt lat="45.6919" lon="9.8212933"><ele>254.33333333333331</ele><time>2026-04-25T08:39:49.228Z</time></trkpt><trkpt lat="45.6917383" lon="9.82125"><ele>255.0</ele><time>2026-04-25T08:39:50.239Z</time></trkpt><trkpt lat="45.6915767" lon="9.8211867"><ele>255.0</ele><time>2026-04-25T08:39:51.23Z</time></trkpt><trkpt lat="45.6914133" lon="9.8211117"><ele>255.0</ele><time>2026-04-25T08:39:52.231Z</time></trkpt><trkpt lat="45.6912467" lon="9.821035"><ele>255.0</ele><time>2026-04-25T08:39:53.232Z</time></trkpt><trkpt lat="45.6910717" lon="9.8209533"><ele>253.66666666666669</ele><time>2026-04-25T08:39:54.23Z</time></trkpt><trkpt lat="45.6909" lon="9.82087"><ele>252.33333333333334</ele><time>2026-04-25T08:39:55.231Z</time></trkpt><trkpt lat="45.6907383" lon="9.8207883"><ele>251.0</ele><time>2026-04-25T08:39:56.231Z</time></trkpt><trkpt lat="45.6905767" lon="9.8207083"><ele>251.0</ele><time>2026-04-25T08:39:57.231Z</time></trkpt><trkpt lat="45.6904167" lon="9.8206283"><ele>251.0</ele><time>2026-04-25T08:39:58.23Z</time></trkpt><trkpt lat="45.69026" lon="9.8205483"><ele>251.0</ele><time>2026-04-25T08:39:59.23Z</time></trkpt><trkpt lat="45.6901033" lon="9.8204717"><ele>251.0</ele><time>2026-04-25T08:40:00.231Z</time></trkpt><trkpt lat="45.6899533" lon="9.8203983"><ele>251.0</ele><time>2026-04-25T08:40:01.227Z</time></trkpt><trkpt lat="45.6898117" lon="9.82033"><ele>251.0</ele><time>2026-04-25T08:40:02.229Z</time></trkpt><trkpt lat="45.6896833" lon="9.8202767"><ele>251.0</ele><time>2026-04-25T08:40:03.231Z</time></trkpt><trkpt lat="45.6895633" lon="9.82025"><ele>251.0</ele><time>2026-04-25T08:40:04.231Z</time></trkpt><trkpt lat="45.6894483" lon="9.8202567"><ele>251.0</ele><time>2026-04-25T08:40:05.228Z</time></trkpt><trkpt lat="45.6893267" lon="9.8202817"><ele>251.0</ele><time>2026-04-25T08:40:06.229Z</time></trkpt><trkpt lat="45.6892067" lon="9.8203"><ele>251.0</ele><time>2026-04-25T08:40:07.229Z</time></trkpt><trkpt lat="45.6890967" lon="9.8202917"><ele>251.0</ele><time>2026-04-25T08:40:08.228Z</time></trkpt><trkpt lat="45.6889983" lon="9.8202533"><ele>251.0</ele><time>2026-04-25T08:40:09.229Z</time></trkpt><trkpt lat="45.6889083" lon="9.8201717"><ele>251.0</ele><time>2026-04-25T08:40:10.228Z</time></trkpt><trkpt lat="45.68882" lon="9.8200583"><ele>251.0</ele><time>2026-04-25T08:40:11.229Z</time></trkpt><trkpt lat="45.6887267" lon="9.8199117"><ele>251.0</ele><time>2026-04-25T08:40:12.229Z</time></trkpt><trkpt lat="45.6886317" lon="9.81974"><ele>251.0</ele><time>2026-04-25T08:40:13.228Z</time></trkpt><trkpt lat="45.6885283" lon="9.8195467"><ele>251.0</ele><time>2026-04-25T08:40:14.232Z</time></trkpt><trkpt lat="45.6884183" lon="9.8193383"><ele>250.0</ele><time>2026-04-25T08:40:15.228Z</time></trkpt><trkpt lat="45.6883033" lon="9.8191317"><ele>249.0</ele><time>2026-04-25T08:40:16.229Z</time></trkpt><trkpt lat="45.68819" lon="9.8189283"><ele>248.0</ele><time>2026-04-25T08:40:17.228Z</time></trkpt><trkpt lat="45.6880833" lon="9.81874"><ele>248.0</ele><time>2026-04-25T08:40:18.231Z</time></trkpt><trkpt lat="45.68797" lon="9.8185517"><ele>248.0</ele><time>2026-04-25T08:40:19.229Z</time></trkpt><trkpt lat="45.687855" lon="9.8183617"><ele>248.0</ele><time>2026-04-25T08:40:20.229Z</time></trkpt><trkpt lat="45.68774" lon="9.818165"><ele>248.0</ele><time>2026-04-25T08:40:21.229Z</time></trkpt><trkpt lat="45.68763" lon="9.8179733"><ele>248.0</ele><time>2026-04-25T08:40:22.229Z</time></trkpt><trkpt lat="45.687525" lon="9.8177883"><ele>248.0</ele><time>2026-04-25T08:40:23.228Z</time></trkpt><trkpt lat="45.6874233" lon="9.8176083"><ele>247.66666666666669</ele><time>2026-04-25T08:40:24.229Z</time></trkpt><trkpt lat="45.6873217" lon="9.8174317"><ele>247.33333333333331</ele><time>2026-04-25T08:40:25.229Z</time></trkpt><trkpt lat="45.6872233" lon="9.81725"><ele>247.0</ele><time>2026-04-25T08:40:26.228Z</time></trkpt><trkpt lat="45.6871217" lon="9.8170617"><ele>247.0</ele><time>2026-04-25T08:40:27.229Z</time></trkpt><trkpt lat="45.6870233" lon="9.8168733"><ele>247.0</ele><time>2026-04-25T08:40:28.229Z</time></trkpt><trkpt lat="45.686925" lon="9.816685"><ele>247.0</ele><time>2026-04-25T08:40:29.231Z</time></trkpt><trkpt lat="45.686835" lon="9.8165067"><ele>246.75</ele><time>2026-04-25T08:40:30.228Z</time></trkpt><trkpt lat="45.68675" lon="9.816335"><ele>246.5</ele><time>2026-04-25T08:40:31.23Z</time></trkpt><trkpt lat="45.6866717" lon="9.8161683"><ele>246.25</ele><time>2026-04-25T08:40:32.228Z</time></trkpt><trkpt lat="45.6866033" lon="9.8160083"><ele>246.0</ele><time>2026-04-25T08:40:33.229Z</time></trkpt><trkpt lat="45.68655" lon="9.815875"><ele>245.83333333333334</ele><time>2026-04-25T08:40:34.228Z</time></trkpt><trkpt lat="45.6865083" lon="9.8157583"><ele>245.66666666666669</ele><time>2026-04-25T08:40:35.228Z</time></trkpt><trkpt lat="45.68648" lon="9.815645"><ele>245.5</ele><time>2026-04-25T08:40:36.228Z</time></trkpt><trkpt lat="45.6864767" lon="9.8155283"><ele>245.33333333333334</ele><time>2026-04-25T08:40:37.228Z</time></trkpt><trkpt lat="45.68648" lon="9.8154233"><ele>245.16666666666669</ele><time>2026-04-25T08:40:38.23Z</time></trkpt><trkpt lat="45.6864717" lon="9.8153217"><ele>245.0</ele><time>2026-04-25T08:40:39.23Z</time></trkpt><trkpt lat="45.686445" lon="9.8152367"><ele>245.0</ele><time>2026-04-25T08:40:40.229Z</time></trkpt><trkpt lat="45.686325" lon="9.8151867"><ele>245.0</ele><time>2026-04-25T08:40:42.229Z</time></trkpt><trkpt lat="45.68625" lon="9.8152533"><ele>245.0</ele><time>2026-04-25T08:40:43.229Z</time></trkpt><trkpt lat="45.6861717" lon="9.8153183"><ele>245.0</ele><time>2026-04-25T08:40:44.231Z</time></trkpt><trkpt lat="45.68608" lon="9.81536"><ele>245.0</ele><time>2026-04-25T08:40:45.228Z</time></trkpt><trkpt lat="45.685975" lon="9.8153667"><ele>244.75</ele><time>2026-04-25T08:40:46.228Z</time></trkpt><trkpt lat="45.6858517" lon="9.815335"><ele>244.5</ele><time>2026-04-25T08:40:47.228Z</time></trkpt><trkpt lat="45.6857267" lon="9.8153"><ele>244.25</ele><time>2026-04-25T08:40:48.229Z</time></trkpt><trkpt lat="45.68559" lon="9.8152633"><ele>244.0</ele><time>2026-04-25T08:40:49.229Z</time></trkpt><trkpt lat="45.6854467" lon="9.815225"><ele>244.0</ele><time>2026-04-25T08:40:50.229Z</time></trkpt><trkpt lat="45.6853083" lon="9.8151917"><ele>244.0</ele><time>2026-04-25T08:40:51.229Z</time></trkpt><trkpt lat="45.685175" lon="9.8151567"><ele>244.0</ele><time>2026-04-25T08:40:52.229Z</time></trkpt><trkpt lat="45.68506" lon="9.8151283"><ele>244.0</ele><time>2026-04-25T08:40:53.229Z</time></trkpt><trkpt lat="45.684965" lon="9.8151017"><ele>243.83333333333331</ele><time>2026-04-25T08:40:54.229Z</time></trkpt><trkpt lat="45.68488" lon="9.8150767"><ele>243.66666666666666</ele><time>2026-04-25T08:40:55.229Z</time></trkpt><trkpt lat="45.6847967" lon="9.8150567"><ele>243.5</ele><time>2026-04-25T08:40:56.231Z</time></trkpt><trkpt lat="45.6847167" lon="9.8150383"><ele>243.33333333333331</ele><time>2026-04-25T08:40:57.23Z</time></trkpt><trkpt lat="45.6846417" lon="9.8150217"><ele>243.16666666666666</ele><time>2026-04-25T08:40:58.229Z</time></trkpt><trkpt lat="45.6845633" lon="9.8149983"><ele>243.0</ele><time>2026-04-25T08:40:59.228Z</time></trkpt><trkpt lat="45.6844767" lon="9.81497"><ele>243.0</ele><time>2026-04-25T08:41:00.23Z</time></trkpt><trkpt lat="45.6843733" lon="9.8149483"><ele>243.0</ele><time>2026-04-25T08:41:01.227Z</time></trkpt><trkpt lat="45.6842533" lon="9.8149233"><ele>243.0</ele><time>2026-04-25T08:41:02.227Z</time></trkpt><trkpt lat="45.684125" lon="9.8149"><ele>243.0</ele><time>2026-04-25T08:41:03.229Z</time></trkpt><trkpt lat="45.683995" lon="9.8148817"><ele>243.0</ele><time>2026-04-25T08:41:04.228Z</time></trkpt><trkpt lat="45.68386" lon="9.814865"><ele>243.0</ele><time>2026-04-25T08:41:05.229Z</time></trkpt><trkpt lat="45.6837233" lon="9.814835"><ele>243.0</ele><time>2026-04-25T08:41:06.228Z</time></trkpt><trkpt lat="45.6835933" lon="9.814805"><ele>243.0</ele><time>2026-04-25T08:41:07.228Z</time></trkpt><trkpt lat="45.6834717" lon="9.814775"><ele>242.5</ele><time>2026-04-25T08:41:08.229Z</time></trkpt><trkpt lat="45.6833533" lon="9.814745"><ele>242.0</ele><time>2026-04-25T08:41:09.229Z</time></trkpt><trkpt lat="45.6832367" lon="9.814715"><ele>241.5</ele><time>2026-04-25T08:41:10.228Z</time></trkpt><trkpt lat="45.6831183" lon="9.81469"><ele>241.0</ele><time>2026-04-25T08:41:11.23Z</time></trkpt><trkpt lat="45.683005" lon="9.814665"><ele>241.0</ele><time>2026-04-25T08:41:12.228Z</time></trkpt><trkpt lat="45.682895" lon="9.8146433"><ele>241.0</ele><time>2026-04-25T08:41:13.23Z</time></trkpt><trkpt lat="45.6827833" lon="9.81462"><ele>241.0</ele><time>2026-04-25T08:41:14.227Z</time></trkpt><trkpt lat="45.6826683" lon="9.814595"><ele>241.0</ele><time>2026-04-25T08:41:15.23Z</time></trkpt><trkpt lat="45.6825483" lon="9.81457"><ele>240.5</ele><time>2026-04-25T08:41:16.228Z</time></trkpt><trkpt lat="45.682425" lon="9.8145433"><ele>240.0</ele><time>2026-04-25T08:41:17.229Z</time></trkpt><trkpt lat="45.6822983" lon="9.8145133"><ele>239.5</ele><time>2026-04-25T08:41:18.231Z</time></trkpt><trkpt lat="45.6821767" lon="9.81448"><ele>239.0</ele><time>2026-04-25T08:41:19.23Z</time></trkpt><trkpt lat="45.68207" lon="9.814445"><ele>239.00000000000003</ele><time>2026-04-25T08:41:20.23Z</time></trkpt><trkpt lat="45.681975" lon="9.8144067"><ele>239.0</ele><time>2026-04-25T08:41:21.231Z</time></trkpt><trkpt lat="45.6818933" lon="9.8143567"><ele>239.0</ele><time>2026-04-25T08:41:22.23Z</time></trkpt><trkpt lat="45.6818283" lon="9.8142833"><ele>239.0</ele><time>2026-04-25T08:41:23.231Z</time></trkpt><trkpt lat="45.6817767" lon="9.8141917"><ele>239.00000000000003</ele><time>2026-04-25T08:41:24.233Z</time></trkpt><trkpt lat="45.6817333" lon="9.81409"><ele>239.0</ele><time>2026-04-25T08:41:25.229Z</time></trkpt><trkpt lat="45.6816917" lon="9.8140033"><ele>239.16666666666669</ele><time>2026-04-25T08:41:26.229Z</time></trkpt><trkpt lat="45.6816367" lon="9.81394"><ele>239.33333333333334</ele><time>2026-04-25T08:41:27.229Z</time></trkpt><trkpt lat="45.68157" lon="9.813925"><ele>239.5</ele><time>2026-04-25T08:41:28.23Z</time></trkpt><trkpt lat="45.6814983" lon="9.8139433"><ele>239.66666666666669</ele><time>2026-04-25T08:41:29.228Z</time></trkpt><trkpt lat="45.6814117" lon="9.81399"><ele>239.83333333333334</ele><time>2026-04-25T08:41:30.229Z</time></trkpt><trkpt lat="45.6813283" lon="9.8140483"><ele>240.0</ele><time>2026-04-25T08:41:31.228Z</time></trkpt><trkpt lat="45.6812667" lon="9.81411"><ele>240.0</ele><time>2026-04-25T08:41:32.228Z</time></trkpt><trkpt lat="45.6812267" lon="9.81419"><ele>240.0</ele><time>2026-04-25T08:41:33.229Z</time></trkpt><trkpt lat="45.6812117" lon="9.8142867"><ele>240.0</ele><time>2026-04-25T08:41:34.229Z</time></trkpt><trkpt lat="45.6812233" lon="9.814385"><ele>240.0</ele><time>2026-04-25T08:41:35.229Z</time></trkpt><trkpt lat="45.6812533" lon="9.8144783"><ele>240.0</ele><time>2026-04-25T08:41:36.229Z</time></trkpt><trkpt lat="45.681305" lon="9.8145633"><ele>240.0</ele><time>2026-04-25T08:41:37.23Z</time></trkpt><trkpt lat="45.681365" lon="9.81465"><ele>240.0</ele><time>2026-04-25T08:41:38.229Z</time></trkpt><trkpt lat="45.6814133" lon="9.8147417"><ele>240.0</ele><time>2026-04-25T08:41:39.228Z</time></trkpt><trkpt lat="45.6814467" lon="9.8148267"><ele>240.0</ele><time>2026-04-25T08:41:40.228Z</time></trkpt><trkpt lat="45.681475" lon="9.8149117"><ele>240.0</ele><time>2026-04-25T08:41:41.228Z</time></trkpt><trkpt lat="45.6815033" lon="9.8149967"><ele>240.0</ele><time>2026-04-25T08:41:42.229Z</time></trkpt><trkpt lat="45.6815317" lon="9.8150883"><ele>240.0</ele><time>2026-04-25T08:41:43.229Z</time></trkpt><trkpt lat="45.68156" lon="9.8151967"><ele>240.0</ele><time>2026-04-25T08:41:44.228Z</time></trkpt><trkpt lat="45.6815883" lon="9.815305"><ele>240.0</ele><time>2026-04-25T08:41:45.23Z</time></trkpt><trkpt lat="45.6816133" lon="9.8154083"><ele>240.0</ele><time>2026-04-25T08:41:46.232Z</time></trkpt><trkpt lat="45.6816333" lon="9.815505"><ele>240.0</ele><time>2026-04-25T08:41:47.229Z</time></trkpt><trkpt lat="45.6816583" lon="9.815605"><ele>240.0</ele><time>2026-04-25T08:41:48.229Z</time></trkpt><trkpt lat="45.681685" lon="9.8157117"><ele>240.0</ele><time>2026-04-25T08:41:49.229Z</time></trkpt><trkpt lat="45.6817133" lon="9.8158083"><ele>240.0</ele><time>2026-04-25T08:41:50.229Z</time></trkpt><trkpt lat="45.6817367" lon="9.8158933"><ele>240.0</ele><time>2026-04-25T08:41:51.229Z</time></trkpt><trkpt lat="45.681775" lon="9.8160367"><ele>240.0</ele><time>2026-04-25T08:41:53.23Z</time></trkpt><trkpt lat="45.6818133" lon="9.8161783"><ele>240.0</ele><time>2026-04-25T08:41:55.231Z</time></trkpt><trkpt lat="45.68184" lon="9.8162717"><ele>240.0</ele><time>2026-04-25T08:41:56.228Z</time></trkpt><trkpt lat="45.6818733" lon="9.8163883"><ele>240.0</ele><time>2026-04-25T08:41:57.228Z</time></trkpt><trkpt lat="45.6819117" lon="9.8165283"><ele>240.0</ele><time>2026-04-25T08:41:58.229Z</time></trkpt><trkpt lat="45.6819517" lon="9.8166833"><ele>240.75</ele><time>2026-04-25T08:41:59.23Z</time></trkpt><trkpt lat="45.6819917" lon="9.8168483"><ele>241.5</ele><time>2026-04-25T08:42:00.231Z</time></trkpt><trkpt lat="45.682035" lon="9.8170267"><ele>242.25</ele><time>2026-04-25T08:42:01.23Z</time></trkpt><trkpt lat="45.6820817" lon="9.817215"><ele>243.0</ele><time>2026-04-25T08:42:02.232Z</time></trkpt><trkpt lat="45.6821333" lon="9.8174133"><ele>243.0</ele><time>2026-04-25T08:42:03.231Z</time></trkpt><trkpt lat="45.682185" lon="9.81761"><ele>243.0</ele><time>2026-04-25T08:42:04.231Z</time></trkpt><trkpt lat="45.682235" lon="9.8177933"><ele>243.0</ele><time>2026-04-25T08:42:05.232Z</time></trkpt><trkpt lat="45.68228" lon="9.8179617"><ele>243.0</ele><time>2026-04-25T08:42:06.233Z</time></trkpt><trkpt lat="45.68232" lon="9.8181117"><ele>243.2</ele><time>2026-04-25T08:42:07.23Z</time></trkpt><trkpt lat="45.6823467" lon="9.8182467"><ele>243.4</ele><time>2026-04-25T08:42:08.23Z</time></trkpt><trkpt lat="45.6823583" lon="9.81838"><ele>243.59999999999997</ele><time>2026-04-25T08:42:09.233Z</time></trkpt><trkpt lat="45.6823583" lon="9.8185183"><ele>243.79999999999998</ele><time>2026-04-25T08:42:10.231Z</time></trkpt><trkpt lat="45.6823483" lon="9.8186717"><ele>244.0</ele><time>2026-04-25T08:42:11.232Z</time></trkpt><trkpt lat="45.682335" lon="9.81884"><ele>244.0</ele><time>2026-04-25T08:42:12.232Z</time></trkpt><trkpt lat="45.68232" lon="9.8190217"><ele>244.0</ele><time>2026-04-25T08:42:13.233Z</time></trkpt><trkpt lat="45.6823017" lon="9.8192117"><ele>244.0</ele><time>2026-04-25T08:42:14.233Z</time></trkpt><trkpt lat="45.6822817" lon="9.8194"><ele>244.0</ele><time>2026-04-25T08:42:15.232Z</time></trkpt><trkpt lat="45.6822633" lon="9.8195767"><ele>244.0</ele><time>2026-04-25T08:42:16.229Z</time></trkpt><trkpt lat="45.6822483" lon="9.8197367"><ele>243.99999999999997</ele><time>2026-04-25T08:42:17.23Z</time></trkpt><trkpt lat="45.6822367" lon="9.819875"><ele>243.99999999999997</ele><time>2026-04-25T08:42:18.229Z</time></trkpt><trkpt lat="45.6822233" lon="9.8199983"><ele>244.0</ele><time>2026-04-25T08:42:19.229Z</time></trkpt><trkpt lat="45.6822117" lon="9.8201017"><ele>244.0</ele><time>2026-04-25T08:42:20.229Z</time></trkpt><trkpt lat="45.6821983" lon="9.8202517"><ele>244.0</ele><time>2026-04-25T08:42:22.228Z</time></trkpt><trkpt lat="45.6822" lon="9.8203467"><ele>243.99999999999997</ele><time>2026-04-25T08:42:24.228Z</time></trkpt><trkpt lat="45.6822133" lon="9.8205117"><ele>243.99999999999997</ele><time>2026-04-25T08:42:44.228Z</time></trkpt><trkpt lat="45.6822017" lon="9.8206117"><ele>244.0</ele><time>2026-04-25T08:42:45.231Z</time></trkpt><trkpt lat="45.682175" lon="9.8207967"><ele>244.0</ele><time>2026-04-25T08:42:47.231Z</time></trkpt><trkpt lat="45.682155" lon="9.8209033"><ele>244.0</ele><time>2026-04-25T08:42:48.228Z</time></trkpt><trkpt lat="45.6821333" lon="9.8210117"><ele>243.99999999999997</ele><time>2026-04-25T08:42:49.23Z</time></trkpt><trkpt lat="45.6821183" lon="9.821105"><ele>243.99999999999997</ele><time>2026-04-25T08:42:50.228Z</time></trkpt><trkpt lat="45.6820933" lon="9.82126"><ele>244.0</ele><time>2026-04-25T08:42:52.228Z</time></trkpt><trkpt lat="45.6820533" lon="9.82138"><ele>244.0</ele><time>2026-04-25T08:42:54.228Z</time></trkpt><trkpt lat="45.681975" lon="9.8214833"><ele>244.2</ele><time>2026-04-25T08:42:56.227Z</time></trkpt><trkpt lat="45.68187" lon="9.8215367"><ele>244.39999999999998</ele><time>2026-04-25T08:42:58.227Z</time></trkpt><trkpt lat="45.6817683" lon="9.821535"><ele>244.6</ele><time>2026-04-25T08:43:00.23Z</time></trkpt><trkpt lat="45.6816467" lon="9.8215483"><ele>244.8</ele><time>2026-04-25T08:43:02.228Z</time></trkpt><trkpt lat="45.6815417" lon="9.8216"><ele>245.0</ele><time>2026-04-25T08:43:04.229Z</time></trkpt><trkpt lat="45.6814783" lon="9.8217183"><ele>245.2</ele><time>2026-04-25T08:43:06.23Z</time></trkpt><trkpt lat="45.6814533" lon="9.8218783"><ele>245.4</ele><time>2026-04-25T08:43:08.227Z</time></trkpt><trkpt lat="45.6814483" lon="9.8219683"><ele>245.60000000000002</ele><time>2026-04-25T08:43:09.229Z</time></trkpt><trkpt lat="45.681435" lon="9.8221367"><ele>245.8</ele><time>2026-04-25T08:43:11.228Z</time></trkpt><trkpt lat="45.68143" lon="9.8222867"><ele>246.0</ele><time>2026-04-25T08:43:13.227Z</time></trkpt><trkpt lat="45.68145" lon="9.822415"><ele>246.0</ele><time>2026-04-25T08:43:15.229Z</time></trkpt><trkpt lat="45.6814967" lon="9.8225283"><ele>246.00000000000003</ele><time>2026-04-25T08:43:17.229Z</time></trkpt><trkpt lat="45.6815333" lon="9.8226483"><ele>246.00000000000003</ele><time>2026-04-25T08:43:19.231Z</time></trkpt><trkpt lat="45.681535" lon="9.8228"><ele>246.0</ele><time>2026-04-25T08:43:21.23Z</time></trkpt><trkpt lat="45.6815233" lon="9.822965"><ele>246.0</ele><time>2026-04-25T08:43:23.228Z</time></trkpt><trkpt lat="45.6815117" lon="9.823055"><ele>246.66666666666666</ele><time>2026-04-25T08:43:24.229Z</time></trkpt><trkpt lat="45.6815033" lon="9.823145"><ele>247.33333333333331</ele><time>2026-04-25T08:43:25.228Z</time></trkpt><trkpt lat="45.68148" lon="9.8233133"><ele>248.0</ele><time>2026-04-25T08:43:27.229Z</time></trkpt><trkpt lat="45.6814617" lon="9.823445"><ele>248.66666666666666</ele><time>2026-04-25T08:43:29.227Z</time></trkpt><trkpt lat="45.6814567" lon="9.8235367"><ele>249.33333333333331</ele><time>2026-04-25T08:43:31.227Z</time></trkpt><trkpt lat="45.6814517" lon="9.823655"><ele>250.0</ele><time>2026-04-25T08:43:33.227Z</time></trkpt><trkpt lat="45.6814433" lon="9.82375"><ele>250.16666666666666</ele><time>2026-04-25T08:43:34.228Z</time></trkpt><trkpt lat="45.6814333" lon="9.8238617"><ele>250.33333333333331</ele><time>2026-04-25T08:43:35.228Z</time></trkpt><trkpt lat="45.6814217" lon="9.823985"><ele>250.5</ele><time>2026-04-25T08:43:36.228Z</time></trkpt><trkpt lat="45.6814017" lon="9.824105"><ele>250.66666666666669</ele><time>2026-04-25T08:43:37.227Z</time></trkpt><trkpt lat="45.68138" lon="9.824215"><ele>250.83333333333334</ele><time>2026-04-25T08:43:38.227Z</time></trkpt><trkpt lat="45.6813617" lon="9.8243067"><ele>251.0</ele><time>2026-04-25T08:43:39.229Z</time></trkpt><trkpt lat="45.6813117" lon="9.8244617"><ele>250.66666666666669</ele><time>2026-04-25T08:43:41.229Z</time></trkpt><trkpt lat="45.6812533" lon="9.824545"><ele>250.33333333333334</ele><time>2026-04-25T08:43:43.231Z</time></trkpt><trkpt lat="45.6811517" lon="9.8245617"><ele>250.0</ele><time>2026-04-25T08:43:45.228Z</time></trkpt><trkpt lat="45.6810417" lon="9.8246083"><ele>249.66666666666669</ele><time>2026-04-25T08:43:47.228Z</time></trkpt><trkpt lat="45.681" lon="9.8246867"><ele>249.33333333333334</ele><time>2026-04-25T08:43:48.228Z</time></trkpt><trkpt lat="45.6809567" lon="9.824785"><ele>249.0</ele><time>2026-04-25T08:43:49.228Z</time></trkpt><trkpt lat="45.6809083" lon="9.8249"><ele>249.0</ele><time>2026-04-25T08:43:50.227Z</time></trkpt><trkpt lat="45.6808583" lon="9.8250167"><ele>248.99999999999997</ele><time>2026-04-25T08:43:51.228Z</time></trkpt><trkpt lat="45.6808" lon="9.8251283"><ele>248.99999999999997</ele><time>2026-04-25T08:43:52.228Z</time></trkpt><trkpt lat="45.6807417" lon="9.8252383"><ele>249.0</ele><time>2026-04-25T08:43:53.227Z</time></trkpt><trkpt lat="45.680685" lon="9.8253467"><ele>249.0</ele><time>2026-04-25T08:43:54.229Z</time></trkpt><trkpt lat="45.6806317" lon="9.8254483"><ele>248.5</ele><time>2026-04-25T08:43:55.228Z</time></trkpt><trkpt lat="45.68058" lon="9.8255417"><ele>248.0</ele><time>2026-04-25T08:43:56.23Z</time></trkpt><trkpt lat="45.6805383" lon="9.8256283"><ele>247.5</ele><time>2026-04-25T08:43:57.228Z</time></trkpt><trkpt lat="45.6804917" lon="9.8257067"><ele>247.0</ele><time>2026-04-25T08:43:58.228Z</time></trkpt><trkpt lat="45.6804383" lon="9.8257817"><ele>246.5</ele><time>2026-04-25T08:43:59.227Z</time></trkpt><trkpt lat="45.6803833" lon="9.8258517"><ele>246.0</ele><time>2026-04-25T08:44:00.229Z</time></trkpt><trkpt lat="45.680325" lon="9.8259183"><ele>246.16666666666666</ele><time>2026-04-25T08:44:01.227Z</time></trkpt><trkpt lat="45.6802617" lon="9.825985"><ele>246.33333333333331</ele><time>2026-04-25T08:44:02.228Z</time></trkpt><trkpt lat="45.6802017" lon="9.8260517"><ele>246.5</ele><time>2026-04-25T08:44:03.227Z</time></trkpt><trkpt lat="45.680145" lon="9.8261167"><ele>246.66666666666666</ele><time>2026-04-25T08:44:04.227Z</time></trkpt><trkpt lat="45.6800883" lon="9.82618"><ele>246.83333333333331</ele><time>2026-04-25T08:44:05.227Z</time></trkpt><trkpt lat="45.6800283" lon="9.8262483"><ele>247.0</ele><time>2026-04-25T08:44:06.227Z</time></trkpt><trkpt lat="45.6799667" lon="9.82632"><ele>246.99999999999997</ele><time>2026-04-25T08:44:07.228Z</time></trkpt><trkpt lat="45.6799033" lon="9.8263933"><ele>247.0</ele><time>2026-04-25T08:44:08.228Z</time></trkpt><trkpt lat="45.67984" lon="9.8264667"><ele>247.0</ele><time>2026-04-25T08:44:09.227Z</time></trkpt><trkpt lat="45.6797783" lon="9.826535"><ele>247.0</ele><time>2026-04-25T08:44:10.228Z</time></trkpt><trkpt lat="45.6797183" lon="9.8266"><ele>246.99999999999997</ele><time>2026-04-25T08:44:11.227Z</time></trkpt><trkpt lat="45.67966" lon="9.8266633"><ele>247.0</ele><time>2026-04-25T08:44:12.228Z</time></trkpt><trkpt lat="45.6796" lon="9.8267283"><ele>247.0</ele><time>2026-04-25T08:44:13.23Z</time></trkpt><trkpt lat="45.6795383" lon="9.826795"><ele>247.0</ele><time>2026-04-25T08:44:14.228Z</time></trkpt><trkpt lat="45.6794767" lon="9.8268617"><ele>247.0</ele><time>2026-04-25T08:44:15.227Z</time></trkpt><trkpt lat="45.6794217" lon="9.8269217"><ele>247.0</ele><time>2026-04-25T08:44:16.228Z</time></trkpt><trkpt lat="45.6793267" lon="9.827025"><ele>247.0</ele><time>2026-04-25T08:44:18.227Z</time></trkpt><trkpt lat="45.6792433" lon="9.82712"><ele>247.0</ele><time>2026-04-25T08:44:20.227Z</time></trkpt><trkpt lat="45.6791583" lon="9.8272117"><ele>247.0</ele><time>2026-04-25T08:44:22.228Z</time></trkpt><trkpt lat="45.679085" lon="9.8273083"><ele>247.0</ele><time>2026-04-25T08:44:24.227Z</time></trkpt><trkpt lat="45.6790217" lon="9.827385"><ele>247.0</ele><time>2026-04-25T08:44:26.229Z</time></trkpt><trkpt lat="45.678925" lon="9.8274867"><ele>247.0</ele><time>2026-04-25T08:45:28.227Z</time></trkpt><trkpt lat="45.67887" lon="9.8275633"><ele>246.83333333333331</ele><time>2026-04-25T08:45:46.228Z</time></trkpt><trkpt lat="45.6789067" lon="9.82771"><ele>246.66666666666666</ele><time>2026-04-25T08:45:48.229Z</time></trkpt><trkpt lat="45.6789483" lon="9.8278083"><ele>246.5</ele><time>2026-04-25T08:45:49.228Z</time></trkpt><trkpt lat="45.6789883" lon="9.827905"><ele>246.33333333333331</ele><time>2026-04-25T08:45:50.229Z</time></trkpt><trkpt lat="45.6790317" lon="9.8280067"><ele>246.16666666666666</ele><time>2026-04-25T08:45:51.23Z</time></trkpt><trkpt lat="45.6790817" lon="9.8281117"><ele>246.0</ele><time>2026-04-25T08:45:52.229Z</time></trkpt><trkpt lat="45.6791383" lon="9.82823"><ele>246.0</ele><time>2026-04-25T08:45:53.231Z</time></trkpt><trkpt lat="45.6792033" lon="9.8283617"><ele>246.0</ele><time>2026-04-25T08:45:54.227Z</time></trkpt><trkpt lat="45.679275" lon="9.82851"><ele>246.0</ele><time>2026-04-25T08:45:55.227Z</time></trkpt><trkpt lat="45.6793467" lon="9.8286633"><ele>246.0</ele><time>2026-04-25T08:45:56.227Z</time></trkpt><trkpt lat="45.67942" lon="9.8288183"><ele>246.75</ele><time>2026-04-25T08:45:57.229Z</time></trkpt><trkpt lat="45.6794983" lon="9.8289817"><ele>247.5</ele><time>2026-04-25T08:45:58.227Z</time></trkpt><trkpt lat="45.6795783" lon="9.829155"><ele>248.25</ele><time>2026-04-25T08:45:59.227Z</time></trkpt><trkpt lat="45.6796667" lon="9.8293317"><ele>249.0</ele><time>2026-04-25T08:46:00.228Z</time></trkpt><trkpt lat="45.67976" lon="9.8295233"><ele>249.0</ele><time>2026-04-25T08:46:01.228Z</time></trkpt><trkpt lat="45.6798517" lon="9.8297167"><ele>249.0</ele><time>2026-04-25T08:46:02.228Z</time></trkpt><trkpt lat="45.679945" lon="9.8299167"><ele>249.0</ele><time>2026-04-25T08:46:03.23Z</time></trkpt><trkpt lat="45.6800367" lon="9.8301083"><ele>249.0</ele><time>2026-04-25T08:46:04.228Z</time></trkpt><trkpt lat="45.68013" lon="9.8302933"><ele>249.0</ele><time>2026-04-25T08:46:05.228Z</time></trkpt><trkpt lat="45.680225" lon="9.8304783"><ele>249.0</ele><time>2026-04-25T08:46:06.228Z</time></trkpt><trkpt lat="45.6803133" lon="9.8306617"><ele>249.0</ele><time>2026-04-25T08:46:07.228Z</time></trkpt><trkpt lat="45.6803967" lon="9.8308383"><ele>249.0</ele><time>2026-04-25T08:46:08.228Z</time></trkpt><trkpt lat="45.68048" lon="9.8310133"><ele>249.0</ele><time>2026-04-25T08:46:09.228Z</time></trkpt><trkpt lat="45.68056" lon="9.8311867"><ele>249.0</ele><time>2026-04-25T08:46:10.229Z</time></trkpt><trkpt lat="45.6806433" lon="9.8313583"><ele>249.0</ele><time>2026-04-25T08:46:11.229Z</time></trkpt><trkpt lat="45.680725" lon="9.8315317"><ele>249.0</ele><time>2026-04-25T08:46:12.228Z</time></trkpt><trkpt lat="45.680815" lon="9.8317067"><ele>249.0</ele><time>2026-04-25T08:46:13.228Z</time></trkpt><trkpt lat="45.680905" lon="9.8318867"><ele>248.33333333333331</ele><time>2026-04-25T08:46:14.227Z</time></trkpt><trkpt lat="45.680995" lon="9.8320717"><ele>247.66666666666666</ele><time>2026-04-25T08:46:15.23Z</time></trkpt><trkpt lat="45.68108" lon="9.8322533"><ele>247.0</ele><time>2026-04-25T08:46:16.228Z</time></trkpt><trkpt lat="45.6811617" lon="9.8324283"><ele>247.25</ele><time>2026-04-25T08:46:17.227Z</time></trkpt><trkpt lat="45.6812417" lon="9.8326017"><ele>247.5</ele><time>2026-04-25T08:46:18.228Z</time></trkpt><trkpt lat="45.6813233" lon="9.8327733"><ele>247.75</ele><time>2026-04-25T08:46:19.227Z</time></trkpt><trkpt lat="45.681405" lon="9.832935"><ele>248.0</ele><time>2026-04-25T08:46:20.228Z</time></trkpt><trkpt lat="45.6814817" lon="9.8330917"><ele>248.0</ele><time>2026-04-25T08:46:21.229Z</time></trkpt><trkpt lat="45.6815517" lon="9.8332333"><ele>248.0</ele><time>2026-04-25T08:46:22.227Z</time></trkpt><trkpt lat="45.6816133" lon="9.83336"><ele>248.0</ele><time>2026-04-25T08:46:23.23Z</time></trkpt><trkpt lat="45.6816633" lon="9.833485"><ele>248.0</ele><time>2026-04-25T08:46:24.23Z</time></trkpt><trkpt lat="45.6816967" lon="9.8336167"><ele>248.0</ele><time>2026-04-25T08:46:25.229Z</time></trkpt><trkpt lat="45.6817133" lon="9.833775"><ele>247.75</ele><time>2026-04-25T08:46:26.229Z</time></trkpt><trkpt lat="45.6817183" lon="9.83396"><ele>247.5</ele><time>2026-04-25T08:46:27.23Z</time></trkpt><trkpt lat="45.68172" lon="9.83416"><ele>247.25</ele><time>2026-04-25T08:46:28.227Z</time></trkpt><trkpt lat="45.6817183" lon="9.8343783"><ele>247.0</ele><time>2026-04-25T08:46:29.231Z</time></trkpt><trkpt lat="45.6817167" lon="9.8346"><ele>246.66666666666666</ele><time>2026-04-25T08:46:30.228Z</time></trkpt><trkpt lat="45.6817183" lon="9.8348267"><ele>246.33333333333331</ele><time>2026-04-25T08:46:31.228Z</time></trkpt><trkpt lat="45.6817217" lon="9.8350467"><ele>246.0</ele><time>2026-04-25T08:46:32.232Z</time></trkpt><trkpt lat="45.6817267" lon="9.83526"><ele>245.75</ele><time>2026-04-25T08:46:33.229Z</time></trkpt><trkpt lat="45.681735" lon="9.8354633"><ele>245.5</ele><time>2026-04-25T08:46:34.23Z</time></trkpt><trkpt lat="45.6817583" lon="9.8356533"><ele>245.25</ele><time>2026-04-25T08:46:35.229Z</time></trkpt><trkpt lat="45.6818" lon="9.8358233"><ele>245.0</ele><time>2026-04-25T08:46:36.227Z</time></trkpt><trkpt lat="45.681865" lon="9.8359783"><ele>244.8</ele><time>2026-04-25T08:46:37.227Z</time></trkpt><trkpt lat="45.6819467" lon="9.8361117"><ele>244.6</ele><time>2026-04-25T08:46:38.228Z</time></trkpt><trkpt lat="45.682035" lon="9.8362167"><ele>244.39999999999998</ele><time>2026-04-25T08:46:39.229Z</time></trkpt><trkpt lat="45.6821183" lon="9.8362833"><ele>244.2</ele><time>2026-04-25T08:46:40.228Z</time></trkpt><trkpt lat="45.6821883" lon="9.8363233"><ele>244.0</ele><time>2026-04-25T08:46:41.228Z</time></trkpt><trkpt lat="45.6822567" lon="9.8363583"><ele>243.99999999999997</ele><time>2026-04-25T08:46:43.228Z</time></trkpt><trkpt lat="45.6823217" lon="9.8363867"><ele>244.0</ele><time>2026-04-25T08:46:46.228Z</time></trkpt><trkpt lat="45.6823933" lon="9.836425"><ele>244.0</ele><time>2026-04-25T08:46:49.229Z</time></trkpt><trkpt lat="45.6824483" lon="9.8364783"><ele>244.0</ele><time>2026-04-25T08:46:52.229Z</time></trkpt><trkpt lat="45.6824917" lon="9.8365817"><ele>243.99999999999997</ele><time>2026-04-25T08:46:55.229Z</time></trkpt><trkpt lat="45.6825467" lon="9.8366967"><ele>244.0</ele><time>2026-04-25T08:47:39.231Z</time></trkpt><trkpt lat="45.6826483" lon="9.8368183"><ele>244.16666666666666</ele><time>2026-04-25T08:47:41.231Z</time></trkpt><trkpt lat="45.6827183" lon="9.8368683"><ele>244.33333333333331</ele><time>2026-04-25T08:47:42.229Z</time></trkpt><trkpt lat="45.6827983" lon="9.83689"><ele>244.5</ele><time>2026-04-25T08:47:43.228Z</time></trkpt><trkpt lat="45.6828917" lon="9.8368733"><ele>244.66666666666669</ele><time>2026-04-25T08:47:44.229Z</time></trkpt><trkpt lat="45.6829783" lon="9.8368117"><ele>244.83333333333334</ele><time>2026-04-25T08:47:45.228Z</time></trkpt><trkpt lat="45.6830467" lon="9.836725"><ele>245.0</ele><time>2026-04-25T08:47:46.227Z</time></trkpt><trkpt lat="45.6831117" lon="9.8366217"><ele>245.4</ele><time>2026-04-25T08:47:47.23Z</time></trkpt><trkpt lat="45.6831783" lon="9.836515"><ele>245.8</ele><time>2026-04-25T08:47:48.23Z</time></trkpt><trkpt lat="45.6832517" lon="9.83642"><ele>246.2</ele><time>2026-04-25T08:47:49.229Z</time></trkpt><trkpt lat="45.6833333" lon="9.8363533"><ele>246.6</ele><time>2026-04-25T08:47:50.229Z</time></trkpt><trkpt lat="45.6834267" lon="9.8363217"><ele>247.0</ele><time>2026-04-25T08:47:51.232Z</time></trkpt><trkpt lat="45.683515" lon="9.8363267"><ele>247.39999999999998</ele><time>2026-04-25T08:47:52.234Z</time></trkpt><trkpt lat="45.6836" lon="9.8363533"><ele>247.79999999999998</ele><time>2026-04-25T08:47:53.229Z</time></trkpt><trkpt lat="45.6836783" lon="9.8363967"><ele>248.2</ele><time>2026-04-25T08:47:54.231Z</time></trkpt><trkpt lat="45.68375" lon="9.8364633"><ele>248.6</ele><time>2026-04-25T08:47:55.23Z</time></trkpt><trkpt lat="45.6838217" lon="9.8365567"><ele>249.0</ele><time>2026-04-25T08:47:56.235Z</time></trkpt><trkpt lat="45.6839017" lon="9.8366567"><ele>249.0</ele><time>2026-04-25T08:47:57.229Z</time></trkpt><trkpt lat="45.6839817" lon="9.8367567"><ele>248.99999999999997</ele><time>2026-04-25T08:47:58.231Z</time></trkpt><trkpt lat="45.6840567" lon="9.8368517"><ele>248.99999999999997</ele><time>2026-04-25T08:47:59.229Z</time></trkpt><trkpt lat="45.684125" lon="9.83694"><ele>249.0</ele><time>2026-04-25T08:48:00.23Z</time></trkpt><trkpt lat="45.6841917" lon="9.8370267"><ele>249.0</ele><time>2026-04-25T08:48:01.23Z</time></trkpt><trkpt lat="45.6842583" lon="9.83711"><ele>248.79999999999998</ele><time>2026-04-25T08:48:02.227Z</time></trkpt><trkpt lat="45.6843267" lon="9.8371917"><ele>248.59999999999997</ele><time>2026-04-25T08:48:03.23Z</time></trkpt><trkpt lat="45.6843983" lon="9.8372767"><ele>248.4</ele><time>2026-04-25T08:48:04.228Z</time></trkpt><trkpt lat="45.6844683" lon="9.83736"><ele>248.2</ele><time>2026-04-25T08:48:05.231Z</time></trkpt><trkpt lat="45.6845383" lon="9.83745"><ele>248.0</ele><time>2026-04-25T08:48:06.229Z</time></trkpt><trkpt lat="45.68461" lon="9.8375433"><ele>247.60000000000002</ele><time>2026-04-25T08:48:07.229Z</time></trkpt><trkpt lat="45.684685" lon="9.8376417"><ele>247.20000000000002</ele><time>2026-04-25T08:48:08.227Z</time></trkpt><trkpt lat="45.6847583" lon="9.8377433"><ele>246.8</ele><time>2026-04-25T08:48:09.23Z</time></trkpt><trkpt lat="45.6848317" lon="9.83785"><ele>246.4</ele><time>2026-04-25T08:48:10.229Z</time></trkpt><trkpt lat="45.6849" lon="9.8379583"><ele>246.0</ele><time>2026-04-25T08:48:11.23Z</time></trkpt><trkpt lat="45.68496" lon="9.8380617"><ele>246.0</ele><time>2026-04-25T08:48:12.228Z</time></trkpt><trkpt lat="45.68501" lon="9.8381533"><ele>246.0</ele><time>2026-04-25T08:48:13.228Z</time></trkpt><trkpt lat="45.685055" lon="9.8382383"><ele>246.0</ele><time>2026-04-25T08:48:14.232Z</time></trkpt><trkpt lat="45.6850967" lon="9.8383217"><ele>246.0</ele><time>2026-04-25T08:48:15.228Z</time></trkpt><trkpt lat="45.685135" lon="9.8384"><ele>246.0</ele><time>2026-04-25T08:48:16.228Z</time></trkpt><trkpt lat="45.6851717" lon="9.8384767"><ele>246.0</ele><time>2026-04-25T08:48:17.229Z</time></trkpt><trkpt lat="45.6852367" lon="9.8386283"><ele>247.0</ele><time>2026-04-25T08:48:19.23Z</time></trkpt><trkpt lat="45.6852717" lon="9.838715"><ele>248.0</ele><time>2026-04-25T08:48:20.228Z</time></trkpt><trkpt lat="45.6853067" lon="9.8388017"><ele>249.0</ele><time>2026-04-25T08:48:21.231Z</time></trkpt><trkpt lat="45.6853417" lon="9.8388867"><ele>250.0</ele><time>2026-04-25T08:48:22.229Z</time></trkpt><trkpt lat="45.68538" lon="9.8389817"><ele>251.0</ele><time>2026-04-25T08:48:23.229Z</time></trkpt><trkpt lat="45.68542" lon="9.8390833"><ele>252.0</ele><time>2026-04-25T08:48:24.228Z</time></trkpt><trkpt lat="45.6854617" lon="9.8391883"><ele>252.0</ele><time>2026-04-25T08:48:25.228Z</time></trkpt><trkpt lat="45.6855017" lon="9.8392933"><ele>252.0</ele><time>2026-04-25T08:48:26.231Z</time></trkpt><trkpt lat="45.685545" lon="9.8394017"><ele>252.0</ele><time>2026-04-25T08:48:27.232Z</time></trkpt><trkpt lat="45.68559" lon="9.8395183"><ele>252.0</ele><time>2026-04-25T08:48:28.229Z</time></trkpt><trkpt lat="45.6856383" lon="9.8396383"><ele>252.0</ele><time>2026-04-25T08:48:29.227Z</time></trkpt><trkpt lat="45.6856867" lon="9.8397583"><ele>252.0</ele><time>2026-04-25T08:48:30.228Z</time></trkpt><trkpt lat="45.6857333" lon="9.8398767"><ele>252.0</ele><time>2026-04-25T08:48:31.229Z</time></trkpt><trkpt lat="45.6857833" lon="9.8399967"><ele>252.0</ele><time>2026-04-25T08:48:32.23Z</time></trkpt><trkpt lat="45.685835" lon="9.84012"><ele>252.0</ele><time>2026-04-25T08:48:33.228Z</time></trkpt><trkpt lat="45.685885" lon="9.84025"><ele>252.0</ele><time>2026-04-25T08:48:34.228Z</time></trkpt><trkpt lat="45.6859383" lon="9.8403867"><ele>252.5</ele><time>2026-04-25T08:48:35.231Z</time></trkpt><trkpt lat="45.6859933" lon="9.8405267"><ele>253.0</ele><time>2026-04-25T08:48:36.231Z</time></trkpt><trkpt lat="45.6860517" lon="9.84067"><ele>253.5</ele><time>2026-04-25T08:48:37.233Z</time></trkpt><trkpt lat="45.6861083" lon="9.840815"><ele>254.0</ele><time>2026-04-25T08:48:38.23Z</time></trkpt><trkpt lat="45.6861683" lon="9.840965"><ele>253.75</ele><time>2026-04-25T08:48:39.23Z</time></trkpt><trkpt lat="45.6862283" lon="9.8411167"><ele>253.5</ele><time>2026-04-25T08:48:40.23Z</time></trkpt><trkpt lat="45.68629" lon="9.8412667"><ele>253.25</ele><time>2026-04-25T08:48:41.229Z</time></trkpt><trkpt lat="45.6863533" lon="9.8414183"><ele>253.0</ele><time>2026-04-25T08:48:42.23Z</time></trkpt><trkpt lat="45.6864217" lon="9.8415717"><ele>253.0</ele><time>2026-04-25T08:48:43.23Z</time></trkpt><trkpt lat="45.68649" lon="9.841725"><ele>253.0</ele><time>2026-04-25T08:48:44.23Z</time></trkpt><trkpt lat="45.6865617" lon="9.8418717"><ele>253.0</ele><time>2026-04-25T08:48:45.23Z</time></trkpt><trkpt lat="45.6866333" lon="9.8420167"><ele>253.0</ele><time>2026-04-25T08:48:46.229Z</time></trkpt><trkpt lat="45.68671" lon="9.8421617"><ele>252.75</ele><time>2026-04-25T08:48:47.231Z</time></trkpt><trkpt lat="45.68679" lon="9.8423117"><ele>252.5</ele><time>2026-04-25T08:48:48.231Z</time></trkpt><trkpt lat="45.6868733" lon="9.8424633"><ele>252.25</ele><time>2026-04-25T08:48:49.229Z</time></trkpt><trkpt lat="45.6869617" lon="9.8426133"><ele>252.0</ele><time>2026-04-25T08:48:50.23Z</time></trkpt><trkpt lat="45.68705" lon="9.84276"><ele>251.5</ele><time>2026-04-25T08:48:51.236Z</time></trkpt><trkpt lat="45.6871417" lon="9.842905"><ele>251.0</ele><time>2026-04-25T08:48:52.228Z</time></trkpt><trkpt lat="45.687225" lon="9.8430417"><ele>250.5</ele><time>2026-04-25T08:48:53.23Z</time></trkpt><trkpt lat="45.687295" lon="9.8431567"><ele>250.0</ele><time>2026-04-25T08:48:54.231Z</time></trkpt><trkpt lat="45.6873483" lon="9.8432467"><ele>249.99999999999997</ele><time>2026-04-25T08:48:55.229Z</time></trkpt><trkpt lat="45.6873917" lon="9.8433167"><ele>250.0</ele><time>2026-04-25T08:48:56.228Z</time></trkpt><trkpt lat="45.6874367" lon="9.8433933"><ele>250.0</ele><time>2026-04-25T08:48:58.229Z</time></trkpt><trkpt lat="45.6874833" lon="9.84347"><ele>250.0</ele><time>2026-04-25T08:49:01.229Z</time></trkpt><trkpt lat="45.6875333" lon="9.8435483"><ele>249.99999999999997</ele><time>2026-04-25T08:49:05.229Z</time></trkpt><trkpt lat="45.68759" lon="9.84364"><ele>250.0</ele><time>2026-04-25T08:49:08.229Z</time></trkpt><trkpt lat="45.6876517" lon="9.8437417"><ele>250.16666666666666</ele><time>2026-04-25T08:49:10.228Z</time></trkpt><trkpt lat="45.6876933" lon="9.8438117"><ele>250.33333333333331</ele><time>2026-04-25T08:49:11.228Z</time></trkpt><trkpt lat="45.687745" lon="9.843895"><ele>250.5</ele><time>2026-04-25T08:49:12.23Z</time></trkpt><trkpt lat="45.6878" lon="9.8439867"><ele>250.66666666666669</ele><time>2026-04-25T08:49:13.229Z</time></trkpt><trkpt lat="45.6878533" lon="9.8440783"><ele>250.83333333333334</ele><time>2026-04-25T08:49:14.228Z</time></trkpt><trkpt lat="45.6879117" lon="9.8441767"><ele>251.0</ele><time>2026-04-25T08:49:15.229Z</time></trkpt><trkpt lat="45.6879767" lon="9.84429"><ele>250.25</ele><time>2026-04-25T08:49:16.228Z</time></trkpt><trkpt lat="45.6880483" lon="9.8444167"><ele>249.5</ele><time>2026-04-25T08:49:17.228Z</time></trkpt><trkpt lat="45.6881167" lon="9.8445433"><ele>248.75</ele><time>2026-04-25T08:49:18.228Z</time></trkpt><trkpt lat="45.6881867" lon="9.8446767"><ele>248.0</ele><time>2026-04-25T08:49:19.228Z</time></trkpt><trkpt lat="45.688255" lon="9.8448133"><ele>248.0</ele><time>2026-04-25T08:49:20.228Z</time></trkpt><trkpt lat="45.6883233" lon="9.84495"><ele>248.0</ele><time>2026-04-25T08:49:21.228Z</time></trkpt><trkpt lat="45.6883867" lon="9.8450833"><ele>248.0</ele><time>2026-04-25T08:49:22.228Z</time></trkpt><trkpt lat="45.6884433" lon="9.8452067"><ele>248.0</ele><time>2026-04-25T08:49:23.229Z</time></trkpt><trkpt lat="45.6885" lon="9.845335"><ele>248.0</ele><time>2026-04-25T08:49:24.229Z</time></trkpt><trkpt lat="45.6885567" lon="9.8454617"><ele>248.2</ele><time>2026-04-25T08:49:25.228Z</time></trkpt><trkpt lat="45.68861" lon="9.84559"><ele>248.4</ele><time>2026-04-25T08:49:26.229Z</time></trkpt><trkpt lat="45.6886633" lon="9.845715"><ele>248.59999999999997</ele><time>2026-04-25T08:49:27.23Z</time></trkpt><trkpt lat="45.6887167" lon="9.84583"><ele>248.79999999999998</ele><time>2026-04-25T08:49:28.228Z</time></trkpt><trkpt lat="45.688765" lon="9.8459417"><ele>249.0</ele><time>2026-04-25T08:49:29.23Z</time></trkpt><trkpt lat="45.68881" lon="9.84604"><ele>249.0</ele><time>2026-04-25T08:49:30.229Z</time></trkpt><trkpt lat="45.6888433" lon="9.8461167"><ele>248.99999999999997</ele><time>2026-04-25T08:49:31.228Z</time></trkpt><trkpt lat="45.6888933" lon="9.8462317"><ele>249.0</ele><time>2026-04-25T08:49:33.231Z</time></trkpt><trkpt lat="45.688925" lon="9.84631"><ele>249.0</ele><time>2026-04-25T08:49:35.229Z</time></trkpt><trkpt lat="45.68896" lon="9.8463917"><ele>248.99999999999997</ele><time>2026-04-25T08:49:37.228Z</time></trkpt><trkpt lat="45.6889983" lon="9.84648"><ele>249.0</ele><time>2026-04-25T08:49:40.229Z</time></trkpt><trkpt lat="45.689035" lon="9.8465767"><ele>249.0</ele><time>2026-04-25T08:50:05.229Z</time></trkpt><trkpt lat="45.6890733" lon="9.8466633"><ele>248.79999999999998</ele><time>2026-04-25T08:50:07.23Z</time></trkpt><trkpt lat="45.6891333" lon="9.8467983"><ele>248.59999999999997</ele><time>2026-04-25T08:50:09.231Z</time></trkpt><trkpt lat="45.68919" lon="9.8469183"><ele>248.4</ele><time>2026-04-25T08:50:11.228Z</time></trkpt><trkpt lat="45.6892533" lon="9.8470567"><ele>248.2</ele><time>2026-04-25T08:50:13.227Z</time></trkpt><trkpt lat="45.6892917" lon="9.84715"><ele>248.0</ele><time>2026-04-25T08:50:14.227Z</time></trkpt><trkpt lat="45.6893317" lon="9.8472483"><ele>248.00000000000003</ele><time>2026-04-25T08:50:15.228Z</time></trkpt><trkpt lat="45.6893683" lon="9.8473467"><ele>248.0</ele><time>2026-04-25T08:50:16.229Z</time></trkpt><trkpt lat="45.6894067" lon="9.84744"><ele>248.0</ele><time>2026-04-25T08:50:17.227Z</time></trkpt><trkpt lat="45.68945" lon="9.8475367"><ele>248.0</ele><time>2026-04-25T08:50:18.228Z</time></trkpt><trkpt lat="45.6895017" lon="9.8476517"><ele>248.00000000000003</ele><time>2026-04-25T08:50:19.228Z</time></trkpt><trkpt lat="45.68956" lon="9.8477767"><ele>248.0</ele><time>2026-04-25T08:50:20.229Z</time></trkpt><trkpt lat="45.68962" lon="9.8479"><ele>248.00000000000003</ele><time>2026-04-25T08:50:21.23Z</time></trkpt><trkpt lat="45.6896767" lon="9.84801"><ele>248.0</ele><time>2026-04-25T08:50:22.229Z</time></trkpt><trkpt lat="45.689735" lon="9.8481083"><ele>248.0</ele><time>2026-04-25T08:50:23.228Z</time></trkpt><trkpt lat="45.6897933" lon="9.8481933"><ele>248.0</ele><time>2026-04-25T08:50:24.227Z</time></trkpt><trkpt lat="45.6898483" lon="9.848265"><ele>248.00000000000003</ele><time>2026-04-25T08:50:25.228Z</time></trkpt><trkpt lat="45.6899083" lon="9.8483317"><ele>248.0</ele><time>2026-04-25T08:50:26.229Z</time></trkpt><trkpt lat="45.6899617" lon="9.848395"><ele>248.2</ele><time>2026-04-25T08:50:27.228Z</time></trkpt><trkpt lat="45.6900467" lon="9.8484933"><ele>248.4</ele><time>2026-04-25T08:50:29.228Z</time></trkpt><trkpt lat="45.6901133" lon="9.8485467"><ele>248.59999999999997</ele><time>2026-04-25T08:50:31.229Z</time></trkpt><trkpt lat="45.6901833" lon="9.84859"><ele>248.79999999999998</ele><time>2026-04-25T08:51:10.228Z</time></trkpt><trkpt lat="45.6902733" lon="9.84865"><ele>249.0</ele><time>2026-04-25T08:51:12.228Z</time></trkpt><trkpt lat="45.6903733" lon="9.8487517"><ele>249.0</ele><time>2026-04-25T08:51:14.228Z</time></trkpt><trkpt lat="45.6904167" lon="9.8488283"><ele>249.0</ele><time>2026-04-25T08:51:15.231Z</time></trkpt><trkpt lat="45.6904283" lon="9.8489233"><ele>249.0</ele><time>2026-04-25T08:51:16.23Z</time></trkpt><trkpt lat="45.6904033" lon="9.8490483"><ele>249.0</ele><time>2026-04-25T08:51:17.228Z</time></trkpt><trkpt lat="45.690375" lon="9.84917"><ele>249.0</ele><time>2026-04-25T08:51:18.229Z</time></trkpt><trkpt lat="45.69035" lon="9.8492917"><ele>249.0</ele><time>2026-04-25T08:51:19.229Z</time></trkpt><trkpt lat="45.6903283" lon="9.8494"><ele>249.16666666666666</ele><time>2026-04-25T08:51:20.231Z</time></trkpt><trkpt lat="45.6903083" lon="9.8494983"><ele>249.33333333333331</ele><time>2026-04-25T08:51:21.229Z</time></trkpt><trkpt lat="45.6902933" lon="9.84959"><ele>249.5</ele><time>2026-04-25T08:51:22.229Z</time></trkpt><trkpt lat="45.690275" lon="9.8496817"><ele>249.66666666666666</ele><time>2026-04-25T08:51:23.23Z</time></trkpt><trkpt lat="45.6902533" lon="9.84977"><ele>249.83333333333331</ele><time>2026-04-25T08:51:24.232Z</time></trkpt><trkpt lat="45.6902067" lon="9.8499267"><ele>250.0</ele><time>2026-04-25T08:51:26.23Z</time></trkpt><trkpt lat="45.6901767" lon="9.8500433"><ele>250.0</ele><time>2026-04-25T08:51:28.23Z</time></trkpt><trkpt lat="45.6902133" lon="9.8501433"><ele>250.0</ele><time>2026-04-25T08:51:31.228Z</time></trkpt><trkpt lat="45.6902433" lon="9.85002"><ele>250.0</ele><time>2026-04-25T08:51:54.229Z</time></trkpt><trkpt lat="45.690255" lon="9.8498867"><ele>250.0</ele><time>2026-04-25T08:51:56.233Z</time></trkpt><trkpt lat="45.6902783" lon="9.8497117"><ele>250.0</ele><time>2026-04-25T08:51:58.231Z</time></trkpt><trkpt lat="45.6902967" lon="9.8496117"><ele>249.99999999999997</ele><time>2026-04-25T08:51:59.228Z</time></trkpt><trkpt lat="45.6903217" lon="9.8495083"><ele>250.0</ele><time>2026-04-25T08:52:00.23Z</time></trkpt><trkpt lat="45.6903383" lon="9.8494133"><ele>250.0</ele><time>2026-04-25T08:52:01.234Z</time></trkpt><trkpt lat="45.6903533" lon="9.8492833"><ele>250.0</ele><time>2026-04-25T08:52:03.228Z</time></trkpt><trkpt lat="45.6903083" lon="9.849205"><ele>249.99999999999997</ele><time>2026-04-25T08:52:07.229Z</time></trkpt><trkpt lat="45.6903783" lon="9.849215"><ele>250.0</ele><time>2026-04-25T08:55:59.229Z</time></trkpt><trkpt lat="45.690395" lon="9.8491083"><ele>250.0</ele><time>2026-04-25T08:56:43.228Z</time></trkpt><trkpt lat="45.6904167" lon="9.8488783"><ele>250.0</ele><time>2026-04-25T08:56:46.23Z</time></trkpt><trkpt lat="45.6903717" lon="9.848705"><ele>250.0</ele><time>2026-04-25T08:56:48.231Z</time></trkpt><trkpt lat="45.6903083" lon="9.8486217"><ele>250.0</ele><time>2026-04-25T08:56:49.23Z</time></trkpt><trkpt lat="45.6902133" lon="9.84855"><ele>250.0</ele><time>2026-04-25T08:56:50.229Z</time></trkpt><trkpt lat="45.6901033" lon="9.8484683"><ele>250.0</ele><time>2026-04-25T08:56:51.231Z</time></trkpt><trkpt lat="45.689995" lon="9.8483617"><ele>250.0</ele><time>2026-04-25T08:56:52.23Z</time></trkpt><trkpt lat="45.6898867" lon="9.84823"><ele>250.0</ele><time>2026-04-25T08:56:53.231Z</time></trkpt><trkpt lat="45.6897833" lon="9.848075"><ele>249.66666666666666</ele><time>2026-04-25T08:56:54.231Z</time></trkpt><trkpt lat="45.689685" lon="9.8479"><ele>249.33333333333331</ele><time>2026-04-25T08:56:55.23Z</time></trkpt><trkpt lat="45.6895883" lon="9.8477033"><ele>249.0</ele><time>2026-04-25T08:56:56.233Z</time></trkpt><trkpt lat="45.68949" lon="9.8474933"><ele>248.66666666666669</ele><time>2026-04-25T08:56:57.228Z</time></trkpt><trkpt lat="45.6893933" lon="9.8472783"><ele>248.33333333333334</ele><time>2026-04-25T08:56:58.229Z</time></trkpt><trkpt lat="45.6893" lon="9.8470667"><ele>248.0</ele><time>2026-04-25T08:56:59.229Z</time></trkpt><trkpt lat="45.6892083" lon="9.8468517"><ele>248.33333333333334</ele><time>2026-04-25T08:57:00.233Z</time></trkpt><trkpt lat="45.6891117" lon="9.8466317"><ele>248.66666666666669</ele><time>2026-04-25T08:57:01.228Z</time></trkpt><trkpt lat="45.6890133" lon="9.8464067"><ele>249.0</ele><time>2026-04-25T08:57:02.227Z</time></trkpt><trkpt lat="45.6889167" lon="9.8461883"><ele>249.0</ele><time>2026-04-25T08:57:03.231Z</time></trkpt><trkpt lat="45.6888183" lon="9.84597"><ele>249.0</ele><time>2026-04-25T08:57:04.23Z</time></trkpt><trkpt lat="45.68872" lon="9.8457517"><ele>249.0</ele><time>2026-04-25T08:57:05.229Z</time></trkpt><trkpt lat="45.6886267" lon="9.84554"><ele>248.66666666666669</ele><time>2026-04-25T08:57:06.23Z</time></trkpt><trkpt lat="45.6885367" lon="9.845335"><ele>248.33333333333334</ele><time>2026-04-25T08:57:07.228Z</time></trkpt><trkpt lat="45.6884483" lon="9.8451283"><ele>248.0</ele><time>2026-04-25T08:57:08.229Z</time></trkpt><trkpt lat="45.6883583" lon="9.84492"><ele>248.0</ele><time>2026-04-25T08:57:09.23Z</time></trkpt><trkpt lat="45.6882583" lon="9.8447217"><ele>248.0</ele><time>2026-04-25T08:57:10.228Z</time></trkpt><trkpt lat="45.6881517" lon="9.8445283"><ele>248.0</ele><time>2026-04-25T08:57:11.231Z</time></trkpt><trkpt lat="45.68804" lon="9.8443417"><ele>248.0</ele><time>2026-04-25T08:57:12.23Z</time></trkpt><trkpt lat="45.6879233" lon="9.844155"><ele>248.0</ele><time>2026-04-25T08:57:13.23Z</time></trkpt><trkpt lat="45.6878067" lon="9.84397"><ele>248.0</ele><time>2026-04-25T08:57:14.23Z</time></trkpt><trkpt lat="45.6876883" lon="9.8437817"><ele>248.0</ele><time>2026-04-25T08:57:15.228Z</time></trkpt><trkpt lat="45.68757" lon="9.84359"><ele>248.0</ele><time>2026-04-25T08:57:16.228Z</time></trkpt><trkpt lat="45.687455" lon="9.8434"><ele>248.0</ele><time>2026-04-25T08:57:17.229Z</time></trkpt><trkpt lat="45.6873383" lon="9.84321"><ele>248.66666666666669</ele><time>2026-04-25T08:57:18.229Z</time></trkpt><trkpt lat="45.6872267" lon="9.843025"><ele>249.33333333333331</ele><time>2026-04-25T08:57:19.229Z</time></trkpt><trkpt lat="45.6871233" lon="9.84285"><ele>250.0</ele><time>2026-04-25T08:57:20.229Z</time></trkpt><trkpt lat="45.68703" lon="9.8426883"><ele>249.75</ele><time>2026-04-25T08:57:21.229Z</time></trkpt><trkpt lat="45.686945" lon="9.8425383"><ele>249.5</ele><time>2026-04-25T08:57:22.227Z</time></trkpt><trkpt lat="45.6868583" lon="9.8423867"><ele>249.25</ele><time>2026-04-25T08:57:23.229Z</time></trkpt><trkpt lat="45.68677" lon="9.8422317"><ele>249.0</ele><time>2026-04-25T08:57:24.23Z</time></trkpt><trkpt lat="45.686685" lon="9.842075"><ele>249.0</ele><time>2026-04-25T08:57:25.229Z</time></trkpt><trkpt lat="45.6866067" lon="9.8419233"><ele>249.0</ele><time>2026-04-25T08:57:26.229Z</time></trkpt><trkpt lat="45.68654" lon="9.8417767"><ele>249.0</ele><time>2026-04-25T08:57:27.231Z</time></trkpt><trkpt lat="45.6864767" lon="9.8416367"><ele>249.0</ele><time>2026-04-25T08:57:28.229Z</time></trkpt><trkpt lat="45.6864167" lon="9.841495"><ele>250.0</ele><time>2026-04-25T08:57:29.23Z</time></trkpt><trkpt lat="45.6863567" lon="9.84135"><ele>251.0</ele><time>2026-04-25T08:57:30.233Z</time></trkpt><trkpt lat="45.6863" lon="9.8412083"><ele>252.0</ele><time>2026-04-25T08:57:31.23Z</time></trkpt><trkpt lat="45.6862417" lon="9.841065"><ele>253.0</ele><time>2026-04-25T08:57:32.229Z</time></trkpt><trkpt lat="45.6861833" lon="9.840925"><ele>253.25</ele><time>2026-04-25T08:57:33.228Z</time></trkpt><trkpt lat="45.6861283" lon="9.840785"><ele>253.5</ele><time>2026-04-25T08:57:34.228Z</time></trkpt><trkpt lat="45.686075" lon="9.840645"><ele>253.75</ele><time>2026-04-25T08:57:35.229Z</time></trkpt><trkpt lat="45.6860183" lon="9.8404967"><ele>254.0</ele><time>2026-04-25T08:57:36.229Z</time></trkpt><trkpt lat="45.6859567" lon="9.84034"><ele>253.5</ele><time>2026-04-25T08:57:37.229Z</time></trkpt><trkpt lat="45.685895" lon="9.840185"><ele>253.0</ele><time>2026-04-25T08:57:38.228Z</time></trkpt><trkpt lat="45.6858333" lon="9.8400367"><ele>252.5</ele><time>2026-04-25T08:57:39.228Z</time></trkpt><trkpt lat="45.685775" lon="9.8398967"><ele>252.0</ele><time>2026-04-25T08:57:40.228Z</time></trkpt><trkpt lat="45.6857217" lon="9.8397633"><ele>252.0</ele><time>2026-04-25T08:57:41.23Z</time></trkpt><trkpt lat="45.6856683" lon="9.839635"><ele>252.0</ele><time>2026-04-25T08:57:42.231Z</time></trkpt><trkpt lat="45.6856133" lon="9.839505"><ele>252.0</ele><time>2026-04-25T08:57:43.23Z</time></trkpt><trkpt lat="45.68556" lon="9.8393683"><ele>252.0</ele><time>2026-04-25T08:57:44.229Z</time></trkpt><trkpt lat="45.6854967" lon="9.8392167"><ele>252.0</ele><time>2026-04-25T08:57:45.229Z</time></trkpt><trkpt lat="45.685435" lon="9.8390583"><ele>252.0</ele><time>2026-04-25T08:57:46.23Z</time></trkpt><trkpt lat="45.6853733" lon="9.8389067"><ele>252.0</ele><time>2026-04-25T08:57:47.228Z</time></trkpt><trkpt lat="45.6853267" lon="9.8387833"><ele>252.0</ele><time>2026-04-25T08:57:48.228Z</time></trkpt><trkpt lat="45.6852867" lon="9.8386917"><ele>252.0</ele><time>2026-04-25T08:57:49.229Z</time></trkpt><trkpt lat="45.6852317" lon="9.8385517"><ele>252.0</ele><time>2026-04-25T08:57:51.338Z</time></trkpt><trkpt lat="45.6851783" lon="9.838425"><ele>251.0</ele><time>2026-04-25T08:57:53.228Z</time></trkpt><trkpt lat="45.6851133" lon="9.8382783"><ele>250.0</ele><time>2026-04-25T08:57:55.229Z</time></trkpt><trkpt lat="45.6850733" lon="9.838195"><ele>249.0</ele><time>2026-04-25T08:57:56.228Z</time></trkpt><trkpt lat="45.6850267" lon="9.8381067"><ele>248.0</ele><time>2026-04-25T08:57:57.229Z</time></trkpt><trkpt lat="45.684975" lon="9.8380167"><ele>247.0</ele><time>2026-04-25T08:57:58.229Z</time></trkpt><trkpt lat="45.6849217" lon="9.8379283"><ele>246.0</ele><time>2026-04-25T08:57:59.228Z</time></trkpt><trkpt lat="45.6848633" lon="9.8378383"><ele>246.0</ele><time>2026-04-25T08:58:00.231Z</time></trkpt><trkpt lat="45.6847967" lon="9.8377433"><ele>246.00000000000003</ele><time>2026-04-25T08:58:01.228Z</time></trkpt><trkpt lat="45.6847267" lon="9.8376517"><ele>246.00000000000003</ele><time>2026-04-25T08:58:02.231Z</time></trkpt><trkpt lat="45.6846533" lon="9.8375583"><ele>246.0</ele><time>2026-04-25T08:58:03.231Z</time></trkpt><trkpt lat="45.68458" lon="9.8374633"><ele>246.0</ele><time>2026-04-25T08:58:04.234Z</time></trkpt><trkpt lat="45.6845017" lon="9.8373617"><ele>246.4</ele><time>2026-04-25T08:58:05.231Z</time></trkpt><trkpt lat="45.6844217" lon="9.83726"><ele>246.8</ele><time>2026-04-25T08:58:06.231Z</time></trkpt><trkpt lat="45.68434" lon="9.83716"><ele>247.20000000000002</ele><time>2026-04-25T08:58:07.234Z</time></trkpt><trkpt lat="45.6842617" lon="9.837065"><ele>247.60000000000002</ele><time>2026-04-25T08:58:08.229Z</time></trkpt><trkpt lat="45.6841867" lon="9.8369733"><ele>248.0</ele><time>2026-04-25T08:58:09.23Z</time></trkpt><trkpt lat="45.6841167" lon="9.8368883"><ele>248.0</ele><time>2026-04-25T08:58:10.228Z</time></trkpt><trkpt lat="45.6840483" lon="9.8368033"><ele>248.0</ele><time>2026-04-25T08:58:11.23Z</time></trkpt><trkpt lat="45.6839817" lon="9.836715"><ele>248.0</ele><time>2026-04-25T08:58:12.23Z</time></trkpt><trkpt lat="45.6839133" lon="9.8366217"><ele>248.0</ele><time>2026-04-25T08:58:13.229Z</time></trkpt><trkpt lat="45.6838433" lon="9.836525"><ele>248.0</ele><time>2026-04-25T08:58:14.229Z</time></trkpt><trkpt lat="45.6837733" lon="9.8364283"><ele>248.2</ele><time>2026-04-25T08:58:15.229Z</time></trkpt><trkpt lat="45.6836983" lon="9.8363433"><ele>248.4</ele><time>2026-04-25T08:58:16.229Z</time></trkpt><trkpt lat="45.6836167" lon="9.8362783"><ele>248.59999999999997</ele><time>2026-04-25T08:58:17.229Z</time></trkpt><trkpt lat="45.683525" lon="9.8362417"><ele>248.79999999999998</ele><time>2026-04-25T08:58:18.228Z</time></trkpt><trkpt lat="45.68343" lon="9.8362317"><ele>249.0</ele><time>2026-04-25T08:58:19.232Z</time></trkpt><trkpt lat="45.68334" lon="9.836235"><ele>248.6</ele><time>2026-04-25T08:58:20.229Z</time></trkpt><trkpt lat="45.683255" lon="9.83624"><ele>248.2</ele><time>2026-04-25T08:58:21.229Z</time></trkpt><trkpt lat="45.6831717" lon="9.8362233"><ele>247.79999999999998</ele><time>2026-04-25T08:58:22.23Z</time></trkpt><trkpt lat="45.68309" lon="9.836175"><ele>247.39999999999998</ele><time>2026-04-25T08:58:23.232Z</time></trkpt><trkpt lat="45.6830033" lon="9.83611"><ele>247.0</ele><time>2026-04-25T08:58:24.229Z</time></trkpt><trkpt lat="45.682915" lon="9.8360567"><ele>247.0</ele><time>2026-04-25T08:58:25.229Z</time></trkpt><trkpt lat="45.6828183" lon="9.836035"><ele>247.0</ele><time>2026-04-25T08:58:26.233Z</time></trkpt><trkpt lat="45.6827233" lon="9.8360567"><ele>247.0</ele><time>2026-04-25T08:58:27.229Z</time></trkpt><trkpt lat="45.6826367" lon="9.83611"><ele>247.0</ele><time>2026-04-25T08:58:28.228Z</time></trkpt><trkpt lat="45.6825483" lon="9.8361767"><ele>247.0</ele><time>2026-04-25T08:58:29.229Z</time></trkpt><trkpt lat="45.6824533" lon="9.8362383"><ele>246.39999999999998</ele><time>2026-04-25T08:58:30.234Z</time></trkpt><trkpt lat="45.682355" lon="9.8362717"><ele>245.79999999999998</ele><time>2026-04-25T08:58:31.23Z</time></trkpt><trkpt lat="45.6822517" lon="9.836265"><ele>245.2</ele><time>2026-04-25T08:58:32.228Z</time></trkpt><trkpt lat="45.682145" lon="9.8362217"><ele>244.6</ele><time>2026-04-25T08:58:33.228Z</time></trkpt><trkpt lat="45.6820417" lon="9.836145"><ele>244.0</ele><time>2026-04-25T08:58:34.227Z</time></trkpt><trkpt lat="45.68195" lon="9.8360417"><ele>244.25</ele><time>2026-04-25T08:58:35.228Z</time></trkpt><trkpt lat="45.68188" lon="9.8359067"><ele>244.5</ele><time>2026-04-25T08:58:36.229Z</time></trkpt><trkpt lat="45.6818233" lon="9.8357517"><ele>244.75</ele><time>2026-04-25T08:58:37.228Z</time></trkpt><trkpt lat="45.6817883" lon="9.8355767"><ele>245.0</ele><time>2026-04-25T08:58:38.228Z</time></trkpt><trkpt lat="45.6817667" lon="9.835385"><ele>245.0</ele><time>2026-04-25T08:58:39.229Z</time></trkpt><trkpt lat="45.6817567" lon="9.8351717"><ele>245.0</ele><time>2026-04-25T08:58:40.23Z</time></trkpt><trkpt lat="45.68175" lon="9.8349467"><ele>245.0</ele><time>2026-04-25T08:58:41.23Z</time></trkpt><trkpt lat="45.681745" lon="9.83471"><ele>245.25</ele><time>2026-04-25T08:58:42.229Z</time></trkpt><trkpt lat="45.6817467" lon="9.8344817"><ele>245.5</ele><time>2026-04-25T08:58:43.228Z</time></trkpt><trkpt lat="45.6817483" lon="9.8342667"><ele>245.75</ele><time>2026-04-25T08:58:44.232Z</time></trkpt><trkpt lat="45.68175" lon="9.8340667"><ele>246.0</ele><time>2026-04-25T08:58:45.231Z</time></trkpt><trkpt lat="45.6817483" lon="9.83388"><ele>246.20000000000002</ele><time>2026-04-25T08:58:46.228Z</time></trkpt><trkpt lat="45.6817433" lon="9.833705"><ele>246.40000000000003</ele><time>2026-04-25T08:58:47.228Z</time></trkpt><trkpt lat="45.68172" lon="9.8335583"><ele>246.6</ele><time>2026-04-25T08:58:48.229Z</time></trkpt><trkpt lat="45.6816833" lon="9.8334333"><ele>246.8</ele><time>2026-04-25T08:58:49.229Z</time></trkpt><trkpt lat="45.681635" lon="9.8333217"><ele>247.0</ele><time>2026-04-25T08:58:50.23Z</time></trkpt><trkpt lat="45.681585" lon="9.83323"><ele>247.16666666666666</ele><time>2026-04-25T08:58:51.23Z</time></trkpt><trkpt lat="45.6815383" lon="9.8331433"><ele>247.33333333333331</ele><time>2026-04-25T08:58:52.228Z</time></trkpt><trkpt lat="45.681495" lon="9.8330583"><ele>247.5</ele><time>2026-04-25T08:58:53.23Z</time></trkpt><trkpt lat="45.681455" lon="9.832975"><ele>247.66666666666669</ele><time>2026-04-25T08:58:54.228Z</time></trkpt><trkpt lat="45.6814183" lon="9.8328967"><ele>247.83333333333334</ele><time>2026-04-25T08:58:55.228Z</time></trkpt><trkpt lat="45.681345" lon="9.8327583"><ele>248.0</ele><time>2026-04-25T08:58:57.23Z</time></trkpt><trkpt lat="45.6812783" lon="9.832625"><ele>247.8</ele><time>2026-04-25T08:58:59.229Z</time></trkpt><trkpt lat="45.681225" lon="9.83251"><ele>247.60000000000002</ele><time>2026-04-25T08:59:01.23Z</time></trkpt><trkpt lat="45.6811767" lon="9.832415"><ele>247.39999999999998</ele><time>2026-04-25T08:59:03.229Z</time></trkpt><trkpt lat="45.6811183" lon="9.8323217"><ele>247.2</ele><time>2026-04-25T08:59:05.229Z</time></trkpt><trkpt lat="45.68104" lon="9.832185"><ele>247.0</ele><time>2026-04-25T08:59:07.229Z</time></trkpt><trkpt lat="45.6810017" lon="9.8321067"><ele>247.0</ele><time>2026-04-25T08:59:08.228Z</time></trkpt><trkpt lat="45.6809467" lon="9.8319983"><ele>247.0</ele><time>2026-04-25T08:59:10.227Z</time></trkpt><trkpt lat="45.6809267" lon="9.8318783"><ele>247.0</ele><time>2026-04-25T08:59:33.227Z</time></trkpt><trkpt lat="45.68089" lon="9.831795"><ele>247.0</ele><time>2026-04-25T08:59:34.229Z</time></trkpt><trkpt lat="45.6808383" lon="9.8316767"><ele>247.0</ele><time>2026-04-25T08:59:35.227Z</time></trkpt><trkpt lat="45.6807783" lon="9.83154"><ele>247.5</ele><time>2026-04-25T08:59:36.228Z</time></trkpt><trkpt lat="45.680705" lon="9.83139"><ele>248.0</ele><time>2026-04-25T08:59:37.226Z</time></trkpt><trkpt lat="45.6806267" lon="9.83123"><ele>248.5</ele><time>2026-04-25T08:59:38.228Z</time></trkpt><trkpt lat="45.680545" lon="9.831065"><ele>249.0</ele><time>2026-04-25T08:59:39.227Z</time></trkpt><trkpt lat="45.6804633" lon="9.8308983"><ele>249.0</ele><time>2026-04-25T08:59:40.227Z</time></trkpt><trkpt lat="45.6803783" lon="9.8307217"><ele>249.0</ele><time>2026-04-25T08:59:41.228Z</time></trkpt><trkpt lat="45.68029" lon="9.8305417"><ele>249.0</ele><time>2026-04-25T08:59:42.227Z</time></trkpt><trkpt lat="45.6801933" lon="9.8303517"><ele>249.0</ele><time>2026-04-25T08:59:43.228Z</time></trkpt><trkpt lat="45.6801067" lon="9.8301683"><ele>249.0</ele><time>2026-04-25T08:59:44.227Z</time></trkpt><trkpt lat="45.6800233" lon="9.8299883"><ele>249.0</ele><time>2026-04-25T08:59:45.227Z</time></trkpt><trkpt lat="45.67994" lon="9.8298067"><ele>249.0</ele><time>2026-04-25T08:59:46.227Z</time></trkpt><trkpt lat="45.6798533" lon="9.8296267"><ele>249.0</ele><time>2026-04-25T08:59:47.227Z</time></trkpt><trkpt lat="45.679765" lon="9.8294383"><ele>249.0</ele><time>2026-04-25T08:59:48.229Z</time></trkpt><trkpt lat="45.6796733" lon="9.8292483"><ele>249.33333333333331</ele><time>2026-04-25T08:59:49.227Z</time></trkpt><trkpt lat="45.6795817" lon="9.8290567"><ele>249.66666666666666</ele><time>2026-04-25T08:59:50.228Z</time></trkpt><trkpt lat="45.67949" lon="9.8288617"><ele>250.0</ele><time>2026-04-25T08:59:51.229Z</time></trkpt><trkpt lat="45.6793967" lon="9.8286683"><ele>249.0</ele><time>2026-04-25T08:59:52.228Z</time></trkpt><trkpt lat="45.6793033" lon="9.82848"><ele>248.0</ele><time>2026-04-25T08:59:53.229Z</time></trkpt><trkpt lat="45.6792117" lon="9.8282933"><ele>247.0</ele><time>2026-04-25T08:59:54.231Z</time></trkpt><trkpt lat="45.67912" lon="9.8281083"><ele>247.0</ele><time>2026-04-25T08:59:55.227Z</time></trkpt><trkpt lat="45.6790283" lon="9.8279217"><ele>247.0</ele><time>2026-04-25T08:59:56.229Z</time></trkpt><trkpt lat="45.6789383" lon="9.827735"><ele>247.0</ele><time>2026-04-25T08:59:57.231Z</time></trkpt><trkpt lat="45.6788483" lon="9.8275467"><ele>247.0</ele><time>2026-04-25T08:59:58.227Z</time></trkpt><trkpt lat="45.6787583" lon="9.8273583"><ele>247.0</ele><time>2026-04-25T08:59:59.232Z</time></trkpt><trkpt lat="45.6786667" lon="9.82717"><ele>247.0</ele><time>2026-04-25T09:00:00.229Z</time></trkpt><trkpt lat="45.678575" lon="9.8269817"><ele>246.33333333333331</ele><time>2026-04-25T09:00:01.229Z</time></trkpt><trkpt lat="45.678485" lon="9.8267933"><ele>245.66666666666669</ele><time>2026-04-25T09:00:02.231Z</time></trkpt><trkpt lat="45.6783917" lon="9.8266033"><ele>245.0</ele><time>2026-04-25T09:00:03.23Z</time></trkpt><trkpt lat="45.6783" lon="9.8264183"><ele>245.0</ele><time>2026-04-25T09:00:04.228Z</time></trkpt><trkpt lat="45.6782167" lon="9.8262467"><ele>245.0</ele><time>2026-04-25T09:00:05.228Z</time></trkpt><trkpt lat="45.67814" lon="9.8260917"><ele>245.0</ele><time>2026-04-25T09:00:06.229Z</time></trkpt><trkpt lat="45.6780733" lon="9.82595"><ele>245.0</ele><time>2026-04-25T09:00:07.229Z</time></trkpt><trkpt lat="45.6780117" lon="9.8258217"><ele>245.16666666666669</ele><time>2026-04-25T09:00:08.23Z</time></trkpt><trkpt lat="45.677955" lon="9.8257083"><ele>245.33333333333334</ele><time>2026-04-25T09:00:09.229Z</time></trkpt><trkpt lat="45.677905" lon="9.8256083"><ele>245.5</ele><time>2026-04-25T09:00:10.229Z</time></trkpt><trkpt lat="45.67786" lon="9.8255217"><ele>245.66666666666669</ele><time>2026-04-25T09:00:11.229Z</time></trkpt><trkpt lat="45.6778217" lon="9.8254433"><ele>245.83333333333334</ele><time>2026-04-25T09:00:12.229Z</time></trkpt><trkpt lat="45.6777567" lon="9.8253083"><ele>246.0</ele><time>2026-04-25T09:00:14.229Z</time></trkpt><trkpt lat="45.6777133" lon="9.8252167"><ele>245.25</ele><time>2026-04-25T09:00:16.229Z</time></trkpt><trkpt lat="45.6776367" lon="9.82508"><ele>244.5</ele><time>2026-04-25T09:00:51.23Z</time></trkpt><trkpt lat="45.6775683" lon="9.8249433"><ele>243.75</ele><time>2026-04-25T09:00:53.23Z</time></trkpt><trkpt lat="45.67751" lon="9.8248233"><ele>243.0</ele><time>2026-04-25T09:00:54.23Z</time></trkpt><trkpt lat="45.6774417" lon="9.82469"><ele>243.0</ele><time>2026-04-25T09:00:55.232Z</time></trkpt><trkpt lat="45.677365" lon="9.8245367"><ele>243.0</ele><time>2026-04-25T09:00:56.23Z</time></trkpt><trkpt lat="45.6772783" lon="9.8243617"><ele>243.0</ele><time>2026-04-25T09:00:57.228Z</time></trkpt><trkpt lat="45.677185" lon="9.82417"><ele>243.0</ele><time>2026-04-25T09:00:58.227Z</time></trkpt><trkpt lat="45.6770867" lon="9.8239717"><ele>243.0</ele><time>2026-04-25T09:00:59.228Z</time></trkpt><trkpt lat="45.676985" lon="9.82377"><ele>243.0</ele><time>2026-04-25T09:01:00.23Z</time></trkpt><trkpt lat="45.6768883" lon="9.82357"><ele>243.0</ele><time>2026-04-25T09:01:01.227Z</time></trkpt><trkpt lat="45.676795" lon="9.8233833"><ele>243.0</ele><time>2026-04-25T09:01:02.229Z</time></trkpt><trkpt lat="45.6767" lon="9.823195"><ele>243.0</ele><time>2026-04-25T09:01:03.228Z</time></trkpt><trkpt lat="45.6766083" lon="9.8230083"><ele>243.0</ele><time>2026-04-25T09:01:04.227Z</time></trkpt><trkpt lat="45.6765183" lon="9.82282"><ele>242.66666666666669</ele><time>2026-04-25T09:01:05.227Z</time></trkpt><trkpt lat="45.6764283" lon="9.822635"><ele>242.33333333333334</ele><time>2026-04-25T09:01:06.229Z</time></trkpt><trkpt lat="45.6763417" lon="9.8224567"><ele>242.0</ele><time>2026-04-25T09:01:07.231Z</time></trkpt><trkpt lat="45.67626" lon="9.82229"><ele>242.0</ele><time>2026-04-25T09:01:08.228Z</time></trkpt><trkpt lat="45.6761867" lon="9.82214"><ele>242.0</ele><time>2026-04-25T09:01:09.23Z</time></trkpt><trkpt lat="45.6761217" lon="9.8220067"><ele>242.0</ele><time>2026-04-25T09:01:10.228Z</time></trkpt><trkpt lat="45.6760683" lon="9.821885"><ele>242.0</ele><time>2026-04-25T09:01:11.228Z</time></trkpt><trkpt lat="45.6760333" lon="9.8217667"><ele>242.0</ele><time>2026-04-25T09:01:12.228Z</time></trkpt><trkpt lat="45.676005" lon="9.8216483"><ele>241.6</ele><time>2026-04-25T09:01:13.227Z</time></trkpt><trkpt lat="45.6759717" lon="9.82154"><ele>241.2</ele><time>2026-04-25T09:01:14.227Z</time></trkpt><trkpt lat="45.675915" lon="9.8214433"><ele>240.8</ele><time>2026-04-25T09:01:15.23Z</time></trkpt><trkpt lat="45.6758317" lon="9.8213417"><ele>240.4</ele><time>2026-04-25T09:01:16.228Z</time></trkpt><trkpt lat="45.67574" lon="9.8212117"><ele>240.0</ele><time>2026-04-25T09:01:17.227Z</time></trkpt><trkpt lat="45.675645" lon="9.8210517"><ele>240.33333333333331</ele><time>2026-04-25T09:01:18.228Z</time></trkpt><trkpt lat="45.6755517" lon="9.8208767"><ele>240.66666666666666</ele><time>2026-04-25T09:01:19.227Z</time></trkpt><trkpt lat="45.6754533" lon="9.82069"><ele>241.0</ele><time>2026-04-25T09:01:20.231Z</time></trkpt><trkpt lat="45.675345" lon="9.8204933"><ele>240.0</ele><time>2026-04-25T09:01:21.228Z</time></trkpt><trkpt lat="45.6752333" lon="9.820295"><ele>239.0</ele><time>2026-04-25T09:01:22.229Z</time></trkpt><trkpt lat="45.6751133" lon="9.8200917"><ele>238.0</ele><time>2026-04-25T09:01:23.23Z</time></trkpt><trkpt lat="45.6749867" lon="9.8198883"><ele>238.0</ele><time>2026-04-25T09:01:24.23Z</time></trkpt><trkpt lat="45.674855" lon="9.8196883"><ele>238.0</ele><time>2026-04-25T09:01:25.229Z</time></trkpt><trkpt lat="45.67472" lon="9.8194917"><ele>238.0</ele><time>2026-04-25T09:01:26.229Z</time></trkpt><trkpt lat="45.674585" lon="9.8192967"><ele>237.66666666666666</ele><time>2026-04-25T09:01:27.228Z</time></trkpt><trkpt lat="45.674445" lon="9.8191017"><ele>237.33333333333331</ele><time>2026-04-25T09:01:28.227Z</time></trkpt><trkpt lat="45.6743017" lon="9.8189033"><ele>237.0</ele><time>2026-04-25T09:01:29.228Z</time></trkpt><trkpt lat="45.67416" lon="9.8187033"><ele>237.0</ele><time>2026-04-25T09:01:30.228Z</time></trkpt><trkpt lat="45.6740233" lon="9.8185117"><ele>237.0</ele><time>2026-04-25T09:01:31.229Z</time></trkpt><trkpt lat="45.6738917" lon="9.81833"><ele>237.0</ele><time>2026-04-25T09:01:32.228Z</time></trkpt><trkpt lat="45.6737683" lon="9.81816"><ele>237.0</ele><time>2026-04-25T09:01:33.23Z</time></trkpt><trkpt lat="45.6736517" lon="9.8179983"><ele>237.0</ele><time>2026-04-25T09:01:34.228Z</time></trkpt><trkpt lat="45.6735417" lon="9.8178483"><ele>237.0</ele><time>2026-04-25T09:01:35.229Z</time></trkpt><trkpt lat="45.673435" lon="9.8177067"><ele>236.0</ele><time>2026-04-25T09:01:36.229Z</time></trkpt><trkpt lat="45.673335" lon="9.81757"><ele>235.0</ele><time>2026-04-25T09:01:37.228Z</time></trkpt><trkpt lat="45.6732383" lon="9.817435"><ele>234.0</ele><time>2026-04-25T09:01:38.228Z</time></trkpt><trkpt lat="45.6731417" lon="9.8173"><ele>233.0</ele><time>2026-04-25T09:01:39.23Z</time></trkpt><trkpt lat="45.6730433" lon="9.81716"><ele>233.0</ele><time>2026-04-25T09:01:40.227Z</time></trkpt><trkpt lat="45.6729433" lon="9.817015"><ele>233.0</ele><time>2026-04-25T09:01:41.228Z</time></trkpt><trkpt lat="45.6728367" lon="9.8168683"><ele>233.0</ele><time>2026-04-25T09:01:42.227Z</time></trkpt><trkpt lat="45.6727267" lon="9.8167167"><ele>233.0</ele><time>2026-04-25T09:01:43.227Z</time></trkpt><trkpt lat="45.67262" lon="9.81657"><ele>233.25</ele><time>2026-04-25T09:01:44.228Z</time></trkpt><trkpt lat="45.6725167" lon="9.8164283"><ele>233.5</ele><time>2026-04-25T09:01:45.23Z</time></trkpt><trkpt lat="45.67242" lon="9.816295"><ele>233.75</ele><time>2026-04-25T09:01:46.227Z</time></trkpt><trkpt lat="45.67233" lon="9.8161633"><ele>234.0</ele><time>2026-04-25T09:01:47.229Z</time></trkpt><trkpt lat="45.672245" lon="9.8160383"><ele>234.0</ele><time>2026-04-25T09:01:48.229Z</time></trkpt><trkpt lat="45.6721683" lon="9.8159283"><ele>233.99999999999997</ele><time>2026-04-25T09:01:49.228Z</time></trkpt><trkpt lat="45.6721" lon="9.81583"><ele>233.99999999999997</ele><time>2026-04-25T09:01:50.228Z</time></trkpt><trkpt lat="45.6720333" lon="9.8157383"><ele>234.0</ele><time>2026-04-25T09:01:51.229Z</time></trkpt><trkpt lat="45.6719717" lon="9.815655"><ele>234.0</ele><time>2026-04-25T09:01:52.228Z</time></trkpt><trkpt lat="45.6719167" lon="9.8155833"><ele>234.0</ele><time>2026-04-25T09:01:53.228Z</time></trkpt><trkpt lat="45.6718583" lon="9.8155283"><ele>234.00000000000003</ele><time>2026-04-25T09:01:54.228Z</time></trkpt><trkpt lat="45.6718033" lon="9.8154783"><ele>234.0</ele><time>2026-04-25T09:01:55.227Z</time></trkpt><trkpt lat="45.6717483" lon="9.81542"><ele>234.0</ele><time>2026-04-25T09:01:56.228Z</time></trkpt><trkpt lat="45.6716933" lon="9.8153433"><ele>234.00000000000003</ele><time>2026-04-25T09:01:57.229Z</time></trkpt><trkpt lat="45.6716433" lon="9.8152533"><ele>234.0</ele><time>2026-04-25T09:01:58.228Z</time></trkpt><trkpt lat="45.671605" lon="9.8151567"><ele>234.0</ele><time>2026-04-25T09:01:59.228Z</time></trkpt><trkpt lat="45.6715767" lon="9.81505"><ele>233.79999999999998</ele><time>2026-04-25T09:02:00.229Z</time></trkpt><trkpt lat="45.6715517" lon="9.8149333"><ele>233.59999999999997</ele><time>2026-04-25T09:02:01.228Z</time></trkpt><trkpt lat="45.671525" lon="9.8148067"><ele>233.4</ele><time>2026-04-25T09:02:02.231Z</time></trkpt><trkpt lat="45.6714967" lon="9.814665"><ele>233.2</ele><time>2026-04-25T09:02:03.229Z</time></trkpt><trkpt lat="45.6714667" lon="9.814515"><ele>233.0</ele><time>2026-04-25T09:02:04.228Z</time></trkpt><trkpt lat="45.6714367" lon="9.814355"><ele>233.25</ele><time>2026-04-25T09:02:05.227Z</time></trkpt><trkpt lat="45.6714083" lon="9.8141933"><ele>233.5</ele><time>2026-04-25T09:02:06.228Z</time></trkpt><trkpt lat="45.6713783" lon="9.814035"><ele>233.75</ele><time>2026-04-25T09:02:07.232Z</time></trkpt><trkpt lat="45.6713467" lon="9.8138667"><ele>234.0</ele><time>2026-04-25T09:02:08.228Z</time></trkpt><trkpt lat="45.671315" lon="9.8136933"><ele>234.0</ele><time>2026-04-25T09:02:09.229Z</time></trkpt><trkpt lat="45.67128" lon="9.81352"><ele>234.0</ele><time>2026-04-25T09:02:10.229Z</time></trkpt><trkpt lat="45.671245" lon="9.8133417"><ele>234.0</ele><time>2026-04-25T09:02:11.228Z</time></trkpt><trkpt lat="45.6712017" lon="9.813165"><ele>234.0</ele><time>2026-04-25T09:02:12.228Z</time></trkpt><trkpt lat="45.6711517" lon="9.812995"><ele>233.0</ele><time>2026-04-25T09:02:13.227Z</time></trkpt><trkpt lat="45.671095" lon="9.8128317"><ele>232.0</ele><time>2026-04-25T09:02:14.228Z</time></trkpt><trkpt lat="45.6710367" lon="9.812675"><ele>231.0</ele><time>2026-04-25T09:02:15.229Z</time></trkpt><trkpt lat="45.6709883" lon="9.8125117"><ele>230.0</ele><time>2026-04-25T09:02:16.227Z</time></trkpt><trkpt lat="45.6709533" lon="9.8123467"><ele>230.0</ele><time>2026-04-25T09:02:17.23Z</time></trkpt><trkpt lat="45.6709283" lon="9.8121867"><ele>230.0</ele><time>2026-04-25T09:02:18.228Z</time></trkpt><trkpt lat="45.6709117" lon="9.8120417"><ele>230.0</ele><time>2026-04-25T09:02:19.229Z</time></trkpt><trkpt lat="45.6709" lon="9.81192"><ele>230.0</ele><time>2026-04-25T09:02:20.229Z</time></trkpt><trkpt lat="45.67089" lon="9.8118233"><ele>230.0</ele><time>2026-04-25T09:02:21.228Z</time></trkpt><trkpt lat="45.6708733" lon="9.811665"><ele>230.0</ele><time>2026-04-25T09:02:23.231Z</time></trkpt><trkpt lat="45.6708583" lon="9.8115567"><ele>230.0</ele><time>2026-04-25T09:02:25.23Z</time></trkpt><trkpt lat="45.670805" lon="9.811385"><ele>230.0</ele><time>2026-04-25T09:03:55.229Z</time></trkpt><trkpt lat="45.670715" lon="9.811375"><ele>230.0</ele><time>2026-04-25T09:03:57.232Z</time></trkpt><trkpt lat="45.6706567" lon="9.81142"><ele>230.0</ele><time>2026-04-25T09:03:58.228Z</time></trkpt><trkpt lat="45.6705833" lon="9.8115117"><ele>230.0</ele><time>2026-04-25T09:03:59.229Z</time></trkpt><trkpt lat="45.6705033" lon="9.811625"><ele>230.0</ele><time>2026-04-25T09:04:00.228Z</time></trkpt><trkpt lat="45.6704167" lon="9.8117517"><ele>230.0</ele><time>2026-04-25T09:04:01.23Z</time></trkpt><trkpt lat="45.6703133" lon="9.8118967"><ele>230.0</ele><time>2026-04-25T09:04:02.228Z</time></trkpt><trkpt lat="45.670195" lon="9.812055"><ele>229.33333333333334</ele><time>2026-04-25T09:04:03.229Z</time></trkpt><trkpt lat="45.6700717" lon="9.8122217"><ele>228.66666666666669</ele><time>2026-04-25T09:04:04.229Z</time></trkpt><trkpt lat="45.6699467" lon="9.8123933"><ele>228.0</ele><time>2026-04-25T09:04:05.227Z</time></trkpt><trkpt lat="45.66981" lon="9.8125667"><ele>227.33333333333331</ele><time>2026-04-25T09:04:06.229Z</time></trkpt><trkpt lat="45.66967" lon="9.8127417"><ele>226.66666666666666</ele><time>2026-04-25T09:04:07.227Z</time></trkpt><trkpt lat="45.6695283" lon="9.812925"><ele>226.0</ele><time>2026-04-25T09:04:08.227Z</time></trkpt><trkpt lat="45.669385" lon="9.8131117"><ele>225.66666666666666</ele><time>2026-04-25T09:04:09.229Z</time></trkpt><trkpt lat="45.66924" lon="9.8133117"><ele>225.33333333333331</ele><time>2026-04-25T09:04:10.228Z</time></trkpt><trkpt lat="45.66909" lon="9.8135117"><ele>225.0</ele><time>2026-04-25T09:04:11.23Z</time></trkpt><trkpt lat="45.6689483" lon="9.8137067"><ele>225.0</ele><time>2026-04-25T09:04:12.227Z</time></trkpt><trkpt lat="45.6688167" lon="9.8138933"><ele>225.0</ele><time>2026-04-25T09:04:13.228Z</time></trkpt><trkpt lat="45.668695" lon="9.8140683"><ele>225.0</ele><time>2026-04-25T09:04:14.229Z</time></trkpt><trkpt lat="45.6685817" lon="9.814235"><ele>225.0</ele><time>2026-04-25T09:04:15.228Z</time></trkpt><trkpt lat="45.6684767" lon="9.81439"><ele>225.0</ele><time>2026-04-25T09:04:16.229Z</time></trkpt><trkpt lat="45.6683833" lon="9.8145383"><ele>225.0</ele><time>2026-04-25T09:04:17.23Z</time></trkpt><trkpt lat="45.6683017" lon="9.814675"><ele>225.0</ele><time>2026-04-25T09:04:18.229Z</time></trkpt><trkpt lat="45.6682333" lon="9.8147917"><ele>225.0</ele><time>2026-04-25T09:04:19.231Z</time></trkpt><trkpt lat="45.66817" lon="9.814895"><ele>225.0</ele><time>2026-04-25T09:04:20.229Z</time></trkpt><trkpt lat="45.6681017" lon="9.8149867"><ele>225.0</ele><time>2026-04-25T09:04:21.229Z</time></trkpt><trkpt lat="45.66802" lon="9.8150617"><ele>225.0</ele><time>2026-04-25T09:04:22.228Z</time></trkpt><trkpt lat="45.6679367" lon="9.8151367"><ele>225.0</ele><time>2026-04-25T09:04:23.231Z</time></trkpt><trkpt lat="45.667865" lon="9.815225"><ele>225.0</ele><time>2026-04-25T09:04:24.229Z</time></trkpt><trkpt lat="45.6678133" lon="9.8153367"><ele>225.0</ele><time>2026-04-25T09:04:25.229Z</time></trkpt><trkpt lat="45.6677683" lon="9.81547"><ele>225.0</ele><time>2026-04-25T09:04:26.23Z</time></trkpt><trkpt lat="45.667715" lon="9.8156033"><ele>225.0</ele><time>2026-04-25T09:04:27.228Z</time></trkpt><trkpt lat="45.6676433" lon="9.81573"><ele>225.0</ele><time>2026-04-25T09:04:28.23Z</time></trkpt><trkpt lat="45.6675517" lon="9.81586"><ele>225.5</ele><time>2026-04-25T09:04:29.229Z</time></trkpt><trkpt lat="45.667455" lon="9.815995"><ele>226.0</ele><time>2026-04-25T09:04:30.231Z</time></trkpt><trkpt lat="45.6673533" lon="9.8161383"><ele>226.5</ele><time>2026-04-25T09:04:31.228Z</time></trkpt><trkpt lat="45.6672483" lon="9.8163"><ele>227.0</ele><time>2026-04-25T09:04:32.229Z</time></trkpt><trkpt lat="45.6671483" lon="9.8164733"><ele>227.0</ele><time>2026-04-25T09:04:33.229Z</time></trkpt><trkpt lat="45.6670433" lon="9.816655"><ele>227.0</ele><time>2026-04-25T09:04:34.229Z</time></trkpt><trkpt lat="45.6669317" lon="9.8168367"><ele>227.0</ele><time>2026-04-25T09:04:35.229Z</time></trkpt><trkpt lat="45.666815" lon="9.817015"><ele>225.66666666666669</ele><time>2026-04-25T09:04:36.228Z</time></trkpt><trkpt lat="45.6667067" lon="9.8171817"><ele>224.33333333333331</ele><time>2026-04-25T09:04:37.229Z</time></trkpt><trkpt lat="45.666605" lon="9.81734"><ele>223.0</ele><time>2026-04-25T09:04:38.228Z</time></trkpt><trkpt lat="45.66651" lon="9.8174983"><ele>223.75</ele><time>2026-04-25T09:04:39.228Z</time></trkpt><trkpt lat="45.6664167" lon="9.8176567"><ele>224.5</ele><time>2026-04-25T09:04:40.227Z</time></trkpt><trkpt lat="45.6663217" lon="9.8178067"><ele>225.25</ele><time>2026-04-25T09:04:41.227Z</time></trkpt><trkpt lat="45.6662333" lon="9.8179417"><ele>226.0</ele><time>2026-04-25T09:04:42.231Z</time></trkpt><trkpt lat="45.6661567" lon="9.8180633"><ele>225.8</ele><time>2026-04-25T09:04:43.228Z</time></trkpt><trkpt lat="45.6660883" lon="9.8181717"><ele>225.60000000000002</ele><time>2026-04-25T09:04:44.228Z</time></trkpt><trkpt lat="45.6660233" lon="9.8182733"><ele>225.4</ele><time>2026-04-25T09:04:45.229Z</time></trkpt><trkpt lat="45.66596" lon="9.8183717"><ele>225.2</ele><time>2026-04-25T09:04:46.229Z</time></trkpt><trkpt lat="45.6659017" lon="9.8184683"><ele>225.0</ele><time>2026-04-25T09:04:47.228Z</time></trkpt><trkpt lat="45.665845" lon="9.818565"><ele>225.0</ele><time>2026-04-25T09:04:48.228Z</time></trkpt><trkpt lat="45.6657867" lon="9.8186667"><ele>225.0</ele><time>2026-04-25T09:04:49.23Z</time></trkpt><trkpt lat="45.6657183" lon="9.8187817"><ele>225.0</ele><time>2026-04-25T09:04:50.233Z</time></trkpt><trkpt lat="45.6656433" lon="9.8188933"><ele>225.0</ele><time>2026-04-25T09:04:51.229Z</time></trkpt><trkpt lat="45.665575" lon="9.8189983"><ele>225.0</ele><time>2026-04-25T09:04:52.228Z</time></trkpt><trkpt lat="45.6655117" lon="9.8190983"><ele>225.0</ele><time>2026-04-25T09:04:53.229Z</time></trkpt><trkpt lat="45.6654567" lon="9.8191867"><ele>225.0</ele><time>2026-04-25T09:04:54.228Z</time></trkpt><trkpt lat="45.66541" lon="9.8192667"><ele>225.0</ele><time>2026-04-25T09:04:55.231Z</time></trkpt><trkpt lat="45.6653633" lon="9.81934"><ele>225.0</ele><time>2026-04-25T09:04:56.23Z</time></trkpt><trkpt lat="45.6653183" lon="9.8194167"><ele>225.0</ele><time>2026-04-25T09:04:57.228Z</time></trkpt><trkpt lat="45.66527" lon="9.8194967"><ele>225.0</ele><time>2026-04-25T09:04:58.233Z</time></trkpt><trkpt lat="45.6652133" lon="9.8195833"><ele>224.8</ele><time>2026-04-25T09:04:59.229Z</time></trkpt><trkpt lat="45.6651517" lon="9.8196817"><ele>224.6</ele><time>2026-04-25T09:05:00.228Z</time></trkpt><trkpt lat="45.6650933" lon="9.8197783"><ele>224.39999999999998</ele><time>2026-04-25T09:05:01.228Z</time></trkpt><trkpt lat="45.665035" lon="9.8198767"><ele>224.2</ele><time>2026-04-25T09:05:02.228Z</time></trkpt><trkpt lat="45.6649733" lon="9.819975"><ele>224.0</ele><time>2026-04-25T09:05:03.228Z</time></trkpt><trkpt lat="45.6649083" lon="9.8200833"><ele>224.0</ele><time>2026-04-25T09:05:04.228Z</time></trkpt><trkpt lat="45.6648367" lon="9.8202083"><ele>224.0</ele><time>2026-04-25T09:05:05.23Z</time></trkpt><trkpt lat="45.6647517" lon="9.820355"><ele>224.0</ele><time>2026-04-25T09:05:06.229Z</time></trkpt><trkpt lat="45.6646583" lon="9.8205067"><ele>224.0</ele><time>2026-04-25T09:05:07.231Z</time></trkpt><trkpt lat="45.6645667" lon="9.8206433"><ele>224.0</ele><time>2026-04-25T09:05:08.228Z</time></trkpt><trkpt lat="45.664485" lon="9.8207767"><ele>224.0</ele><time>2026-04-25T09:05:09.23Z</time></trkpt><trkpt lat="45.6644033" lon="9.8209033"><ele>224.0</ele><time>2026-04-25T09:05:10.229Z</time></trkpt><trkpt lat="45.664325" lon="9.821025"><ele>224.0</ele><time>2026-04-25T09:05:11.228Z</time></trkpt><trkpt lat="45.664245" lon="9.8211483"><ele>224.0</ele><time>2026-04-25T09:05:12.228Z</time></trkpt><trkpt lat="45.6641667" lon="9.8212717"><ele>224.0</ele><time>2026-04-25T09:05:13.229Z</time></trkpt><trkpt lat="45.6640833" lon="9.8214017"><ele>224.0</ele><time>2026-04-25T09:05:14.23Z</time></trkpt><trkpt lat="45.6639983" lon="9.8215533"><ele>224.0</ele><time>2026-04-25T09:05:15.229Z</time></trkpt><trkpt lat="45.6639" lon="9.8217333"><ele>223.33333333333334</ele><time>2026-04-25T09:05:16.23Z</time></trkpt><trkpt lat="45.66378" lon="9.82193"><ele>222.66666666666669</ele><time>2026-04-25T09:05:17.23Z</time></trkpt><trkpt lat="45.66365" lon="9.822135"><ele>222.0</ele><time>2026-04-25T09:05:18.228Z</time></trkpt><trkpt lat="45.663515" lon="9.822345"><ele>221.66666666666669</ele><time>2026-04-25T09:05:19.229Z</time></trkpt><trkpt lat="45.663375" lon="9.8225617"><ele>221.33333333333334</ele><time>2026-04-25T09:05:20.229Z</time></trkpt><trkpt lat="45.6632267" lon="9.8227833"><ele>221.0</ele><time>2026-04-25T09:05:21.229Z</time></trkpt><trkpt lat="45.66308" lon="9.8230117"><ele>221.66666666666669</ele><time>2026-04-25T09:05:22.228Z</time></trkpt><trkpt lat="45.66293" lon="9.82324"><ele>222.33333333333331</ele><time>2026-04-25T09:05:23.228Z</time></trkpt><trkpt lat="45.66278" lon="9.8234717"><ele>223.0</ele><time>2026-04-25T09:05:24.229Z</time></trkpt><trkpt lat="45.6626267" lon="9.8237033"><ele>224.66666666666666</ele><time>2026-04-25T09:05:25.229Z</time></trkpt><trkpt lat="45.6624717" lon="9.8239317"><ele>226.33333333333331</ele><time>2026-04-25T09:05:26.229Z</time></trkpt><trkpt lat="45.662315" lon="9.8241583"><ele>228.0</ele><time>2026-04-25T09:05:27.23Z</time></trkpt><trkpt lat="45.6621583" lon="9.824385"><ele>228.33333333333331</ele><time>2026-04-25T09:05:28.229Z</time></trkpt><trkpt lat="45.6620017" lon="9.8246083"><ele>228.66666666666666</ele><time>2026-04-25T09:05:29.23Z</time></trkpt><trkpt lat="45.661845" lon="9.82483"><ele>229.0</ele><time>2026-04-25T09:05:30.23Z</time></trkpt><trkpt lat="45.66169" lon="9.8250467"><ele>229.33333333333331</ele><time>2026-04-25T09:05:31.228Z</time></trkpt><trkpt lat="45.6615467" lon="9.8252467"><ele>229.66666666666669</ele><time>2026-04-25T09:05:32.232Z</time></trkpt><trkpt lat="45.6614117" lon="9.8254367"><ele>230.0</ele><time>2026-04-25T09:05:33.231Z</time></trkpt><trkpt lat="45.6612817" lon="9.825625"><ele>230.0</ele><time>2026-04-25T09:05:34.229Z</time></trkpt><trkpt lat="45.6611467" lon="9.8258167"><ele>230.0</ele><time>2026-04-25T09:05:35.229Z</time></trkpt><trkpt lat="45.6610083" lon="9.82601"><ele>230.0</ele><time>2026-04-25T09:05:36.23Z</time></trkpt><trkpt lat="45.6608683" lon="9.8262017"><ele>229.66666666666669</ele><time>2026-04-25T09:05:37.229Z</time></trkpt><trkpt lat="45.660725" lon="9.8263983"><ele>229.33333333333331</ele><time>2026-04-25T09:05:38.23Z</time></trkpt><trkpt lat="45.66058" lon="9.8265967"><ele>229.0</ele><time>2026-04-25T09:05:39.229Z</time></trkpt><trkpt lat="45.66044" lon="9.8267933"><ele>229.0</ele><time>2026-04-25T09:05:40.229Z</time></trkpt><trkpt lat="45.660305" lon="9.82698"><ele>229.0</ele><time>2026-04-25T09:05:41.231Z</time></trkpt><trkpt lat="45.6601767" lon="9.8271583"><ele>229.0</ele><time>2026-04-25T09:05:42.23Z</time></trkpt><trkpt lat="45.66005" lon="9.8273367"><ele>229.0</ele><time>2026-04-25T09:05:43.229Z</time></trkpt><trkpt lat="45.6599217" lon="9.8275183"><ele>229.0</ele><time>2026-04-25T09:05:44.23Z</time></trkpt><trkpt lat="45.659795" lon="9.827695"><ele>229.0</ele><time>2026-04-25T09:05:45.229Z</time></trkpt><trkpt lat="45.6596667" lon="9.8278667"><ele>228.66666666666666</ele><time>2026-04-25T09:05:46.229Z</time></trkpt><trkpt lat="45.65954" lon="9.828035"><ele>228.33333333333331</ele><time>2026-04-25T09:05:47.262Z</time></trkpt><trkpt lat="45.659415" lon="9.8282"><ele>228.0</ele><time>2026-04-25T09:05:48.232Z</time></trkpt><trkpt lat="45.6592967" lon="9.82836"><ele>227.75</ele><time>2026-04-25T09:05:49.229Z</time></trkpt><trkpt lat="45.65919" lon="9.8285117"><ele>227.5</ele><time>2026-04-25T09:05:50.23Z</time></trkpt><trkpt lat="45.659095" lon="9.828645"><ele>227.25</ele><time>2026-04-25T09:05:51.229Z</time></trkpt><trkpt lat="45.6590083" lon="9.8287667"><ele>227.0</ele><time>2026-04-25T09:05:52.23Z</time></trkpt><trkpt lat="45.658925" lon="9.8288817"><ele>227.0</ele><time>2026-04-25T09:05:53.228Z</time></trkpt><trkpt lat="45.6588417" lon="9.829"><ele>227.0</ele><time>2026-04-25T09:05:54.23Z</time></trkpt><trkpt lat="45.6587483" lon="9.8291233"><ele>227.0</ele><time>2026-04-25T09:05:55.231Z</time></trkpt><trkpt lat="45.6586533" lon="9.829255"><ele>227.0</ele><time>2026-04-25T09:05:56.229Z</time></trkpt><trkpt lat="45.6585533" lon="9.8293933"><ele>227.25</ele><time>2026-04-25T09:05:57.228Z</time></trkpt><trkpt lat="45.65845" lon="9.8295367"><ele>227.5</ele><time>2026-04-25T09:05:58.229Z</time></trkpt><trkpt lat="45.6583467" lon="9.8296767"><ele>227.75</ele><time>2026-04-25T09:05:59.228Z</time></trkpt><trkpt lat="45.6582417" lon="9.829815"><ele>228.0</ele><time>2026-04-25T09:06:00.231Z</time></trkpt><trkpt lat="45.6581333" lon="9.8299533"><ele>228.0</ele><time>2026-04-25T09:06:01.229Z</time></trkpt><trkpt lat="45.6580317" lon="9.8300933"><ele>228.0</ele><time>2026-04-25T09:06:02.23Z</time></trkpt><trkpt lat="45.657925" lon="9.8302383"><ele>228.0</ele><time>2026-04-25T09:06:03.229Z</time></trkpt><trkpt lat="45.6578167" lon="9.8303917"><ele>228.0</ele><time>2026-04-25T09:06:04.232Z</time></trkpt><trkpt lat="45.6577117" lon="9.8305417"><ele>228.0</ele><time>2026-04-25T09:06:05.23Z</time></trkpt><trkpt lat="45.6576067" lon="9.83069"><ele>228.0</ele><time>2026-04-25T09:06:06.229Z</time></trkpt><trkpt lat="45.6575017" lon="9.830835"><ele>228.0</ele><time>2026-04-25T09:06:07.229Z</time></trkpt><trkpt lat="45.6574033" lon="9.8309717"><ele>228.0</ele><time>2026-04-25T09:06:08.228Z</time></trkpt><trkpt lat="45.657305" lon="9.8311033"><ele>228.0</ele><time>2026-04-25T09:06:09.229Z</time></trkpt><trkpt lat="45.6572083" lon="9.831235"><ele>228.0</ele><time>2026-04-25T09:06:10.227Z</time></trkpt><trkpt lat="45.65711" lon="9.8313717"><ele>228.0</ele><time>2026-04-25T09:06:11.229Z</time></trkpt><trkpt lat="45.6570133" lon="9.8315083"><ele>228.0</ele><time>2026-04-25T09:06:12.227Z</time></trkpt><trkpt lat="45.656925" lon="9.831635"><ele>227.5</ele><time>2026-04-25T09:06:13.228Z</time></trkpt><trkpt lat="45.6568433" lon="9.83175"><ele>227.0</ele><time>2026-04-25T09:06:14.228Z</time></trkpt><trkpt lat="45.6567617" lon="9.8318617"><ele>226.5</ele><time>2026-04-25T09:06:15.23Z</time></trkpt><trkpt lat="45.6566733" lon="9.8319833"><ele>226.0</ele><time>2026-04-25T09:06:16.228Z</time></trkpt><trkpt lat="45.6565733" lon="9.8321133"><ele>226.0</ele><time>2026-04-25T09:06:17.227Z</time></trkpt><trkpt lat="45.65647" lon="9.8322483"><ele>226.0</ele><time>2026-04-25T09:06:18.229Z</time></trkpt><trkpt lat="45.65637" lon="9.8323883"><ele>226.0</ele><time>2026-04-25T09:06:19.228Z</time></trkpt><trkpt lat="45.65627" lon="9.83253"><ele>226.0</ele><time>2026-04-25T09:06:20.227Z</time></trkpt><trkpt lat="45.656175" lon="9.83267"><ele>225.5</ele><time>2026-04-25T09:06:21.228Z</time></trkpt><trkpt lat="45.65608" lon="9.83281"><ele>225.0</ele><time>2026-04-25T09:06:22.228Z</time></trkpt><trkpt lat="45.6559917" lon="9.8329433"><ele>224.5</ele><time>2026-04-25T09:06:23.228Z</time></trkpt><trkpt lat="45.655915" lon="9.8330667"><ele>224.0</ele><time>2026-04-25T09:06:24.229Z</time></trkpt><trkpt lat="45.6558483" lon="9.83318"><ele>224.0</ele><time>2026-04-25T09:06:25.228Z</time></trkpt><trkpt lat="45.655785" lon="9.8332867"><ele>223.99999999999997</ele><time>2026-04-25T09:06:26.228Z</time></trkpt><trkpt lat="45.655725" lon="9.8334"><ele>223.99999999999997</ele><time>2026-04-25T09:06:27.229Z</time></trkpt><trkpt lat="45.65566" lon="9.833525"><ele>224.0</ele><time>2026-04-25T09:06:28.229Z</time></trkpt><trkpt lat="45.655595" lon="9.83367"><ele>224.0</ele><time>2026-04-25T09:06:29.227Z</time></trkpt><trkpt lat="45.6555283" lon="9.83384"><ele>224.66666666666669</ele><time>2026-04-25T09:06:30.228Z</time></trkpt><trkpt lat="45.65545" lon="9.83404"><ele>225.33333333333331</ele><time>2026-04-25T09:06:31.227Z</time></trkpt><trkpt lat="45.655365" lon="9.8342617"><ele>226.0</ele><time>2026-04-25T09:06:32.231Z</time></trkpt><trkpt lat="45.6552683" lon="9.8345033"><ele>224.66666666666666</ele><time>2026-04-25T09:06:33.228Z</time></trkpt><trkpt lat="45.65517" lon="9.83475"><ele>223.33333333333331</ele><time>2026-04-25T09:06:34.228Z</time></trkpt><trkpt lat="45.6550767" lon="9.8349817"><ele>222.0</ele><time>2026-04-25T09:06:35.227Z</time></trkpt><trkpt lat="45.6549867" lon="9.8352"><ele>221.66666666666669</ele><time>2026-04-25T09:06:36.228Z</time></trkpt><trkpt lat="45.654905" lon="9.8354067"><ele>221.33333333333334</ele><time>2026-04-25T09:06:37.23Z</time></trkpt><trkpt lat="45.65483" lon="9.8356083"><ele>221.0</ele><time>2026-04-25T09:06:38.227Z</time></trkpt><trkpt lat="45.65475" lon="9.8358267"><ele>220.66666666666669</ele><time>2026-04-25T09:06:39.23Z</time></trkpt><trkpt lat="45.65466" lon="9.8360667"><ele>220.33333333333331</ele><time>2026-04-25T09:06:40.227Z</time></trkpt><trkpt lat="45.654565" lon="9.8363217"><ele>220.0</ele><time>2026-04-25T09:06:41.228Z</time></trkpt><trkpt lat="45.6544683" lon="9.8365817"><ele>220.33333333333331</ele><time>2026-04-25T09:06:42.228Z</time></trkpt><trkpt lat="45.6543683" lon="9.8368517"><ele>220.66666666666669</ele><time>2026-04-25T09:06:43.228Z</time></trkpt><trkpt lat="45.6542633" lon="9.8371317"><ele>221.0</ele><time>2026-04-25T09:06:44.231Z</time></trkpt><trkpt lat="45.654155" lon="9.8374183"><ele>222.0</ele><time>2026-04-25T09:06:45.229Z</time></trkpt><trkpt lat="45.6540467" lon="9.8377067"><ele>223.0</ele><time>2026-04-25T09:06:46.231Z</time></trkpt><trkpt lat="45.6539417" lon="9.8379983"><ele>223.0</ele><time>2026-04-25T09:06:47.227Z</time></trkpt><trkpt lat="45.6538383" lon="9.8382933"><ele>223.0</ele><time>2026-04-25T09:06:48.233Z</time></trkpt><trkpt lat="45.653735" lon="9.83859"><ele>223.0</ele><time>2026-04-25T09:06:49.228Z</time></trkpt><trkpt lat="45.653625" lon="9.8388917"><ele>223.0</ele><time>2026-04-25T09:06:50.228Z</time></trkpt><trkpt lat="45.6535083" lon="9.839195"><ele>222.5</ele><time>2026-04-25T09:06:51.228Z</time></trkpt><trkpt lat="45.65339" lon="9.8394917"><ele>222.0</ele><time>2026-04-25T09:06:52.227Z</time></trkpt><trkpt lat="45.6532667" lon="9.839795"><ele>222.0</ele><time>2026-04-25T09:06:53.227Z</time></trkpt><trkpt lat="45.653145" lon="9.8401017"><ele>222.0</ele><time>2026-04-25T09:06:54.229Z</time></trkpt><trkpt lat="45.6530367" lon="9.840405"><ele>221.5</ele><time>2026-04-25T09:06:55.227Z</time></trkpt><trkpt lat="45.6529333" lon="9.8407117"><ele>221.0</ele><time>2026-04-25T09:06:56.227Z</time></trkpt><trkpt lat="45.6528417" lon="9.8410217"><ele>220.0</ele><time>2026-04-25T09:06:57.228Z</time></trkpt><trkpt lat="45.652755" lon="9.8413333"><ele>219.0</ele><time>2026-04-25T09:06:58.232Z</time></trkpt><trkpt lat="45.6526717" lon="9.8416483"><ele>219.0</ele><time>2026-04-25T09:06:59.23Z</time></trkpt><trkpt lat="45.6526" lon="9.8419667"><ele>219.0</ele><time>2026-04-25T09:07:00.23Z</time></trkpt><trkpt lat="45.6525383" lon="9.842285"><ele>219.0</ele><time>2026-04-25T09:07:01.231Z</time></trkpt><trkpt lat="45.6524817" lon="9.8426033"><ele>219.0</ele><time>2026-04-25T09:07:02.231Z</time></trkpt><trkpt lat="45.6524283" lon="9.84292"><ele>219.0</ele><time>2026-04-25T09:07:03.231Z</time></trkpt><trkpt lat="45.652375" lon="9.8432217"><ele>219.0</ele><time>2026-04-25T09:07:04.229Z</time></trkpt><trkpt lat="45.6523233" lon="9.8435067"><ele>219.0</ele><time>2026-04-25T09:07:05.229Z</time></trkpt><trkpt lat="45.652275" lon="9.8437767"><ele>219.33333333333331</ele><time>2026-04-25T09:07:06.229Z</time></trkpt><trkpt lat="45.652225" lon="9.844035"><ele>219.66666666666666</ele><time>2026-04-25T09:07:07.231Z</time></trkpt><trkpt lat="45.6521783" lon="9.8442817"><ele>220.0</ele><time>2026-04-25T09:07:08.231Z</time></trkpt><trkpt lat="45.6521333" lon="9.844515"><ele>220.66666666666666</ele><time>2026-04-25T09:07:09.229Z</time></trkpt><trkpt lat="45.6520933" lon="9.8447367"><ele>221.33333333333331</ele><time>2026-04-25T09:07:10.229Z</time></trkpt><trkpt lat="45.652055" lon="9.8449517"><ele>222.0</ele><time>2026-04-25T09:07:11.231Z</time></trkpt><trkpt lat="45.6520183" lon="9.8451717"><ele>223.33333333333331</ele><time>2026-04-25T09:07:12.23Z</time></trkpt><trkpt lat="45.65198" lon="9.8454017"><ele>224.66666666666666</ele><time>2026-04-25T09:07:13.23Z</time></trkpt><trkpt lat="45.6519367" lon="9.8456383"><ele>226.0</ele><time>2026-04-25T09:07:14.229Z</time></trkpt><trkpt lat="45.6518917" lon="9.8458683"><ele>224.0</ele><time>2026-04-25T09:07:15.23Z</time></trkpt><trkpt lat="45.6518433" lon="9.84609"><ele>222.0</ele><time>2026-04-25T09:07:16.228Z</time></trkpt><trkpt lat="45.651795" lon="9.8463033"><ele>220.0</ele><time>2026-04-25T09:07:17.229Z</time></trkpt><trkpt lat="45.6517483" lon="9.8464933"><ele>220.0</ele><time>2026-04-25T09:07:18.228Z</time></trkpt><trkpt lat="45.6517067" lon="9.84666"><ele>220.0</ele><time>2026-04-25T09:07:19.229Z</time></trkpt><trkpt lat="45.6516683" lon="9.846805"><ele>220.0</ele><time>2026-04-25T09:07:20.228Z</time></trkpt><trkpt lat="45.6516383" lon="9.8469233"><ele>220.0</ele><time>2026-04-25T09:07:21.23Z</time></trkpt><trkpt lat="45.651605" lon="9.8470217"><ele>220.0</ele><time>2026-04-25T09:07:22.23Z</time></trkpt><trkpt lat="45.65157" lon="9.847135"><ele>220.16666666666666</ele><time>2026-04-25T09:07:24.231Z</time></trkpt><trkpt lat="45.6515417" lon="9.8472217"><ele>220.33333333333331</ele><time>2026-04-25T09:07:48.227Z</time></trkpt><trkpt lat="45.6515217" lon="9.847315"><ele>220.5</ele><time>2026-04-25T09:07:50.227Z</time></trkpt><trkpt lat="45.6514917" lon="9.8474467"><ele>220.66666666666669</ele><time>2026-04-25T09:07:52.228Z</time></trkpt><trkpt lat="45.651465" lon="9.847535"><ele>220.83333333333334</ele><time>2026-04-25T09:07:53.228Z</time></trkpt><trkpt lat="45.6514367" lon="9.8476333"><ele>221.0</ele><time>2026-04-25T09:07:54.229Z</time></trkpt><trkpt lat="45.6514033" lon="9.847735"><ele>220.60000000000002</ele><time>2026-04-25T09:07:55.228Z</time></trkpt><trkpt lat="45.6513717" lon="9.8478367"><ele>220.20000000000002</ele><time>2026-04-25T09:07:56.227Z</time></trkpt><trkpt lat="45.651335" lon="9.84795"><ele>219.79999999999998</ele><time>2026-04-25T09:07:57.231Z</time></trkpt><trkpt lat="45.651295" lon="9.848075"><ele>219.39999999999998</ele><time>2026-04-25T09:07:58.229Z</time></trkpt><trkpt lat="45.6512533" lon="9.8482083"><ele>219.0</ele><time>2026-04-25T09:07:59.231Z</time></trkpt><trkpt lat="45.6512167" lon="9.8483433"><ele>219.0</ele><time>2026-04-25T09:08:00.23Z</time></trkpt><trkpt lat="45.6511817" lon="9.8484833"><ele>219.0</ele><time>2026-04-25T09:08:01.231Z</time></trkpt><trkpt lat="45.6511417" lon="9.84864"><ele>219.0</ele><time>2026-04-25T09:08:02.23Z</time></trkpt><trkpt lat="45.65109" lon="9.84881"><ele>219.0</ele><time>2026-04-25T09:08:03.231Z</time></trkpt><trkpt lat="45.6510333" lon="9.84899"><ele>218.25</ele><time>2026-04-25T09:08:04.23Z</time></trkpt><trkpt lat="45.650975" lon="9.8491633"><ele>217.5</ele><time>2026-04-25T09:08:05.23Z</time></trkpt><trkpt lat="45.6509267" lon="9.8493217"><ele>216.75</ele><time>2026-04-25T09:08:06.231Z</time></trkpt><trkpt lat="45.6508833" lon="9.8494633"><ele>216.0</ele><time>2026-04-25T09:08:07.229Z</time></trkpt><trkpt lat="45.650855" lon="9.84961"><ele>216.0</ele><time>2026-04-25T09:08:08.227Z</time></trkpt><trkpt lat="45.6508317" lon="9.8497667"><ele>216.00000000000003</ele><time>2026-04-25T09:08:09.23Z</time></trkpt><trkpt lat="45.6508133" lon="9.8499317"><ele>216.00000000000003</ele><time>2026-04-25T09:08:10.228Z</time></trkpt><trkpt lat="45.6507917" lon="9.8500867"><ele>216.0</ele><time>2026-04-25T09:08:11.229Z</time></trkpt><trkpt lat="45.6507767" lon="9.850225"><ele>216.0</ele><time>2026-04-25T09:08:12.228Z</time></trkpt><trkpt lat="45.65076" lon="9.8503417"><ele>216.20000000000002</ele><time>2026-04-25T09:08:13.229Z</time></trkpt><trkpt lat="45.6507333" lon="9.85048"><ele>216.40000000000003</ele><time>2026-04-25T09:08:15.23Z</time></trkpt><trkpt lat="45.6507233" lon="9.85058"><ele>216.6</ele><time>2026-04-25T09:08:17.228Z</time></trkpt><trkpt lat="45.650695" lon="9.8507583"><ele>216.8</ele><time>2026-04-25T09:08:19.228Z</time></trkpt><trkpt lat="45.6506717" lon="9.85089"><ele>217.0</ele><time>2026-04-25T09:08:20.229Z</time></trkpt><trkpt lat="45.6506483" lon="9.8510433"><ele>217.0</ele><time>2026-04-25T09:08:21.228Z</time></trkpt><trkpt lat="45.6506233" lon="9.85121"><ele>217.0</ele><time>2026-04-25T09:08:22.229Z</time></trkpt><trkpt lat="45.6505933" lon="9.8513817"><ele>217.0</ele><time>2026-04-25T09:08:23.227Z</time></trkpt><trkpt lat="45.6505567" lon="9.8515583"><ele>217.0</ele><time>2026-04-25T09:08:24.23Z</time></trkpt><trkpt lat="45.6505083" lon="9.8517367"><ele>216.5</ele><time>2026-04-25T09:08:25.228Z</time></trkpt><trkpt lat="45.65045" lon="9.851915"><ele>216.0</ele><time>2026-04-25T09:08:26.227Z</time></trkpt><trkpt lat="45.65038" lon="9.852095"><ele>215.5</ele><time>2026-04-25T09:08:27.228Z</time></trkpt><trkpt lat="45.6503033" lon="9.8522717"><ele>215.0</ele><time>2026-04-25T09:08:28.23Z</time></trkpt><trkpt lat="45.65022" lon="9.852445"><ele>214.25</ele><time>2026-04-25T09:08:29.231Z</time></trkpt><trkpt lat="45.6501333" lon="9.8526133"><ele>213.5</ele><time>2026-04-25T09:08:30.227Z</time></trkpt><trkpt lat="45.65004" lon="9.8527733"><ele>212.75</ele><time>2026-04-25T09:08:31.23Z</time></trkpt><trkpt lat="45.6499383" lon="9.8529183"><ele>212.0</ele><time>2026-04-25T09:08:32.229Z</time></trkpt><trkpt lat="45.649835" lon="9.8530433"><ele>212.0</ele><time>2026-04-25T09:08:33.229Z</time></trkpt><trkpt lat="45.6497367" lon="9.8531433"><ele>212.0</ele><time>2026-04-25T09:08:34.228Z</time></trkpt><trkpt lat="45.6496417" lon="9.8532283"><ele>212.0</ele><time>2026-04-25T09:08:35.228Z</time></trkpt><trkpt lat="45.64955" lon="9.8533033"><ele>212.0</ele><time>2026-04-25T09:08:36.228Z</time></trkpt><trkpt lat="45.6494583" lon="9.8533683"><ele>212.0</ele><time>2026-04-25T09:08:37.227Z</time></trkpt><trkpt lat="45.6493683" lon="9.8534267"><ele>211.8</ele><time>2026-04-25T09:08:38.23Z</time></trkpt><trkpt lat="45.6492817" lon="9.8534833"><ele>211.6</ele><time>2026-04-25T09:08:39.228Z</time></trkpt><trkpt lat="45.6491933" lon="9.853535"><ele>211.4</ele><time>2026-04-25T09:08:40.229Z</time></trkpt><trkpt lat="45.649105" lon="9.8535883"><ele>211.20000000000002</ele><time>2026-04-25T09:08:41.229Z</time></trkpt><trkpt lat="45.6490117" lon="9.8536433"><ele>211.0</ele><time>2026-04-25T09:08:42.229Z</time></trkpt><trkpt lat="45.6489167" lon="9.8537033"><ele>211.0</ele><time>2026-04-25T09:08:43.229Z</time></trkpt><trkpt lat="45.6488183" lon="9.8537667"><ele>211.0</ele><time>2026-04-25T09:08:44.229Z</time></trkpt><trkpt lat="45.6487117" lon="9.853835"><ele>211.0</ele><time>2026-04-25T09:08:45.229Z</time></trkpt><trkpt lat="45.6486" lon="9.8539017"><ele>211.0</ele><time>2026-04-25T09:08:46.228Z</time></trkpt><trkpt lat="45.6484867" lon="9.8539733"><ele>210.25</ele><time>2026-04-25T09:08:47.229Z</time></trkpt><trkpt lat="45.6483717" lon="9.85404"><ele>209.5</ele><time>2026-04-25T09:08:48.228Z</time></trkpt><trkpt lat="45.6482583" lon="9.854105"><ele>208.75</ele><time>2026-04-25T09:08:49.23Z</time></trkpt><trkpt lat="45.6481467" lon="9.8541717"><ele>208.0</ele><time>2026-04-25T09:08:50.227Z</time></trkpt><trkpt lat="45.6480383" lon="9.85424"><ele>207.5</ele><time>2026-04-25T09:08:51.229Z</time></trkpt><trkpt lat="45.64792" lon="9.8543067"><ele>207.0</ele><time>2026-04-25T09:08:52.228Z</time></trkpt><trkpt lat="45.6478017" lon="9.85438"><ele>206.5</ele><time>2026-04-25T09:08:53.227Z</time></trkpt><trkpt lat="45.6476717" lon="9.8544567"><ele>206.0</ele><time>2026-04-25T09:08:54.229Z</time></trkpt><trkpt lat="45.6475417" lon="9.85453"><ele>205.8</ele><time>2026-04-25T09:08:55.231Z</time></trkpt><trkpt lat="45.6474233" lon="9.8546"><ele>205.60000000000002</ele><time>2026-04-25T09:08:56.232Z</time></trkpt><trkpt lat="45.6473183" lon="9.8546667"><ele>205.4</ele><time>2026-04-25T09:08:57.228Z</time></trkpt><trkpt lat="45.64722" lon="9.8547267"><ele>205.2</ele><time>2026-04-25T09:08:58.227Z</time></trkpt><trkpt lat="45.64713" lon="9.8547817"><ele>205.0</ele><time>2026-04-25T09:08:59.227Z</time></trkpt><trkpt lat="45.64705" lon="9.8548317"><ele>205.0</ele><time>2026-04-25T09:09:00.23Z</time></trkpt><trkpt lat="45.6469767" lon="9.854875"><ele>205.0</ele><time>2026-04-25T09:09:01.231Z</time></trkpt><trkpt lat="45.6469167" lon="9.85491"><ele>205.0</ele><time>2026-04-25T09:09:02.23Z</time></trkpt><trkpt lat="45.6468383" lon="9.8549567"><ele>205.0</ele><time>2026-04-25T09:09:04.228Z</time></trkpt><trkpt lat="45.6467483" lon="9.85501"><ele>205.0</ele><time>2026-04-25T09:09:22.228Z</time></trkpt><trkpt lat="45.6466217" lon="9.8550867"><ele>205.0</ele><time>2026-04-25T09:09:24.227Z</time></trkpt><trkpt lat="45.6465383" lon="9.8551383"><ele>205.0</ele><time>2026-04-25T09:09:25.228Z</time></trkpt><trkpt lat="45.6464483" lon="9.8551983"><ele>205.0</ele><time>2026-04-25T09:09:26.228Z</time></trkpt><trkpt lat="45.6463467" lon="9.8552733"><ele>205.0</ele><time>2026-04-25T09:09:27.23Z</time></trkpt><trkpt lat="45.646235" lon="9.8553683"><ele>205.0</ele><time>2026-04-25T09:09:28.229Z</time></trkpt><trkpt lat="45.646115" lon="9.8554733"><ele>205.0</ele><time>2026-04-25T09:09:29.23Z</time></trkpt><trkpt lat="45.645995" lon="9.8555833"><ele>205.0</ele><time>2026-04-25T09:09:30.228Z</time></trkpt><trkpt lat="45.6458817" lon="9.8557"><ele>205.0</ele><time>2026-04-25T09:09:31.228Z</time></trkpt><trkpt lat="45.6457783" lon="9.85581"><ele>205.0</ele><time>2026-04-25T09:09:32.23Z</time></trkpt><trkpt lat="45.6456883" lon="9.8559167"><ele>204.4</ele><time>2026-04-25T09:09:33.228Z</time></trkpt><trkpt lat="45.6456033" lon="9.8560183"><ele>203.8</ele><time>2026-04-25T09:09:34.227Z</time></trkpt><trkpt lat="45.645525" lon="9.856115"><ele>203.2</ele><time>2026-04-25T09:09:35.229Z</time></trkpt><trkpt lat="45.64545" lon="9.8562033"><ele>202.6</ele><time>2026-04-25T09:09:36.227Z</time></trkpt><trkpt lat="45.6453767" lon="9.8562867"><ele>202.0</ele><time>2026-04-25T09:09:37.228Z</time></trkpt><trkpt lat="45.6453" lon="9.856355"><ele>202.2</ele><time>2026-04-25T09:09:38.229Z</time></trkpt><trkpt lat="45.6452233" lon="9.8564067"><ele>202.39999999999998</ele><time>2026-04-25T09:09:39.228Z</time></trkpt><trkpt lat="45.6451367" lon="9.8564417"><ele>202.60000000000002</ele><time>2026-04-25T09:09:40.23Z</time></trkpt><trkpt lat="45.645045" lon="9.8564567"><ele>202.8</ele><time>2026-04-25T09:09:41.228Z</time></trkpt><trkpt lat="45.6449483" lon="9.8564517"><ele>203.0</ele><time>2026-04-25T09:09:42.227Z</time></trkpt><trkpt lat="45.6448533" lon="9.8564283"><ele>203.0</ele><time>2026-04-25T09:09:43.229Z</time></trkpt><trkpt lat="45.6447583" lon="9.8563867"><ele>203.0</ele><time>2026-04-25T09:09:44.229Z</time></trkpt><trkpt lat="45.6446583" lon="9.8563233"><ele>203.0</ele><time>2026-04-25T09:09:45.23Z</time></trkpt><trkpt lat="45.6445517" lon="9.85624"><ele>203.0</ele><time>2026-04-25T09:09:46.228Z</time></trkpt><trkpt lat="45.64444" lon="9.8561483"><ele>202.75</ele><time>2026-04-25T09:09:47.227Z</time></trkpt><trkpt lat="45.644325" lon="9.8560533"><ele>202.5</ele><time>2026-04-25T09:09:48.231Z</time></trkpt><trkpt lat="45.6442067" lon="9.8559567"><ele>202.25</ele><time>2026-04-25T09:09:49.231Z</time></trkpt><trkpt lat="45.6440817" lon="9.8558583"><ele>202.0</ele><time>2026-04-25T09:09:50.228Z</time></trkpt><trkpt lat="45.6439517" lon="9.8557567"><ele>201.75</ele><time>2026-04-25T09:09:51.229Z</time></trkpt><trkpt lat="45.6438233" lon="9.8556517"><ele>201.5</ele><time>2026-04-25T09:09:52.228Z</time></trkpt><trkpt lat="45.6436983" lon="9.85555"><ele>201.25</ele><time>2026-04-25T09:09:53.228Z</time></trkpt><trkpt lat="45.6435767" lon="9.8554517"><ele>201.0</ele><time>2026-04-25T09:09:54.229Z</time></trkpt><trkpt lat="45.64344" lon="9.855355"><ele>200.66666666666669</ele><time>2026-04-25T09:09:55.229Z</time></trkpt><trkpt lat="45.6433033" lon="9.855245"><ele>200.33333333333334</ele><time>2026-04-25T09:09:56.23Z</time></trkpt><trkpt lat="45.6431683" lon="9.85513"><ele>200.0</ele><time>2026-04-25T09:09:57.23Z</time></trkpt><trkpt lat="45.64303" lon="9.8550117"><ele>199.66666666666669</ele><time>2026-04-25T09:09:58.229Z</time></trkpt><trkpt lat="45.6428867" lon="9.8548983"><ele>199.33333333333331</ele><time>2026-04-25T09:09:59.228Z</time></trkpt><trkpt lat="45.6427417" lon="9.8547833"><ele>199.0</ele><time>2026-04-25T09:10:00.228Z</time></trkpt><trkpt lat="45.6425933" lon="9.8546717"><ele>199.0</ele><time>2026-04-25T09:10:01.228Z</time></trkpt><trkpt lat="45.6424467" lon="9.8545633"><ele>199.0</ele><time>2026-04-25T09:10:02.228Z</time></trkpt><trkpt lat="45.6422983" lon="9.8544667"><ele>199.0</ele><time>2026-04-25T09:10:03.228Z</time></trkpt><trkpt lat="45.6421467" lon="9.854375"><ele>199.33333333333331</ele><time>2026-04-25T09:10:04.228Z</time></trkpt><trkpt lat="45.6419917" lon="9.8542833"><ele>199.66666666666669</ele><time>2026-04-25T09:10:05.23Z</time></trkpt><trkpt lat="45.6418317" lon="9.8541917"><ele>200.0</ele><time>2026-04-25T09:10:06.228Z</time></trkpt><trkpt lat="45.6416733" lon="9.8541"><ele>200.0</ele><time>2026-04-25T09:10:07.228Z</time></trkpt><trkpt lat="45.641515" lon="9.854015"><ele>200.0</ele><time>2026-04-25T09:10:08.228Z</time></trkpt><trkpt lat="45.6413583" lon="9.853935"><ele>200.0</ele><time>2026-04-25T09:10:09.228Z</time></trkpt><trkpt lat="45.6412083" lon="9.853865"><ele>199.5</ele><time>2026-04-25T09:10:10.23Z</time></trkpt><trkpt lat="45.6410717" lon="9.853805"><ele>199.0</ele><time>2026-04-25T09:10:11.228Z</time></trkpt><trkpt lat="45.6409483" lon="9.853755"><ele>198.5</ele><time>2026-04-25T09:10:12.232Z</time></trkpt><trkpt lat="45.64083" lon="9.8537167"><ele>198.0</ele><time>2026-04-25T09:10:13.227Z</time></trkpt><trkpt lat="45.6407117" lon="9.8536917"><ele>198.0</ele><time>2026-04-25T09:10:14.227Z</time></trkpt><trkpt lat="45.6406017" lon="9.8536717"><ele>198.0</ele><time>2026-04-25T09:10:15.228Z</time></trkpt><trkpt lat="45.640495" lon="9.8536383"><ele>198.0</ele><time>2026-04-25T09:10:16.228Z</time></trkpt><trkpt lat="45.6403867" lon="9.8535933"><ele>198.0</ele><time>2026-04-25T09:10:17.228Z</time></trkpt><trkpt lat="45.6402717" lon="9.853545"><ele>198.25</ele><time>2026-04-25T09:10:18.229Z</time></trkpt><trkpt lat="45.640145" lon="9.8534883"><ele>198.5</ele><time>2026-04-25T09:10:19.227Z</time></trkpt><trkpt lat="45.6400083" lon="9.8534217"><ele>198.75</ele><time>2026-04-25T09:10:20.228Z</time></trkpt><trkpt lat="45.6398633" lon="9.8533667"><ele>199.0</ele><time>2026-04-25T09:10:21.229Z</time></trkpt><trkpt lat="45.6397067" lon="9.8533233"><ele>198.33333333333331</ele><time>2026-04-25T09:10:22.229Z</time></trkpt><trkpt lat="45.63954" lon="9.853285"><ele>197.66666666666669</ele><time>2026-04-25T09:10:23.228Z</time></trkpt><trkpt lat="45.6393767" lon="9.8532533"><ele>197.0</ele><time>2026-04-25T09:10:24.227Z</time></trkpt><trkpt lat="45.6392133" lon="9.85322"><ele>197.0</ele><time>2026-04-25T09:10:25.228Z</time></trkpt><trkpt lat="45.6390467" lon="9.8531817"><ele>197.0</ele><time>2026-04-25T09:10:26.23Z</time></trkpt><trkpt lat="45.6388833" lon="9.8531417"><ele>197.0</ele><time>2026-04-25T09:10:27.23Z</time></trkpt><trkpt lat="45.6387233" lon="9.853105"><ele>197.0</ele><time>2026-04-25T09:10:28.231Z</time></trkpt><trkpt lat="45.6385717" lon="9.8530717"><ele>197.0</ele><time>2026-04-25T09:10:29.227Z</time></trkpt><trkpt lat="45.638425" lon="9.8530383"><ele>197.0</ele><time>2026-04-25T09:10:30.227Z</time></trkpt><trkpt lat="45.6382767" lon="9.853005"><ele>197.0</ele><time>2026-04-25T09:10:31.229Z</time></trkpt><trkpt lat="45.6381317" lon="9.852975"><ele>197.0</ele><time>2026-04-25T09:10:32.228Z</time></trkpt><trkpt lat="45.6379983" lon="9.85294"><ele>197.0</ele><time>2026-04-25T09:10:33.228Z</time></trkpt><trkpt lat="45.637885" lon="9.8528983"><ele>197.0</ele><time>2026-04-25T09:10:34.228Z</time></trkpt><trkpt lat="45.637785" lon="9.8528417"><ele>196.6</ele><time>2026-04-25T09:10:35.227Z</time></trkpt><trkpt lat="45.6376917" lon="9.8527583"><ele>196.2</ele><time>2026-04-25T09:10:36.229Z</time></trkpt><trkpt lat="45.6376" lon="9.852665"><ele>195.8</ele><time>2026-04-25T09:10:37.228Z</time></trkpt><trkpt lat="45.63751" lon="9.8525867"><ele>195.4</ele><time>2026-04-25T09:10:38.229Z</time></trkpt><trkpt lat="45.637415" lon="9.8525317"><ele>195.0</ele><time>2026-04-25T09:10:39.229Z</time></trkpt><trkpt lat="45.6373183" lon="9.852525"><ele>195.0</ele><time>2026-04-25T09:10:40.229Z</time></trkpt><trkpt lat="45.6372283" lon="9.85257"><ele>195.0</ele><time>2026-04-25T09:10:41.229Z</time></trkpt><trkpt lat="45.6371617" lon="9.8526617"><ele>195.0</ele><time>2026-04-25T09:10:42.229Z</time></trkpt><trkpt lat="45.6371267" lon="9.85278"><ele>195.0</ele><time>2026-04-25T09:10:43.231Z</time></trkpt><trkpt lat="45.6371183" lon="9.8529067"><ele>195.0</ele><time>2026-04-25T09:10:44.23Z</time></trkpt><trkpt lat="45.637145" lon="9.8530483"><ele>195.0</ele><time>2026-04-25T09:10:45.229Z</time></trkpt><trkpt lat="45.6371783" lon="9.8532083"><ele>195.0</ele><time>2026-04-25T09:10:46.228Z</time></trkpt><trkpt lat="45.6372067" lon="9.853385"><ele>195.0</ele><time>2026-04-25T09:10:47.23Z</time></trkpt><trkpt lat="45.63722" lon="9.85358"><ele>195.0</ele><time>2026-04-25T09:10:48.232Z</time></trkpt><trkpt lat="45.63721" lon="9.853775"><ele>194.75</ele><time>2026-04-25T09:10:49.231Z</time></trkpt><trkpt lat="45.6371833" lon="9.8539733"><ele>194.5</ele><time>2026-04-25T09:10:50.233Z</time></trkpt><trkpt lat="45.637145" lon="9.854175"><ele>194.25</ele><time>2026-04-25T09:10:51.231Z</time></trkpt><trkpt lat="45.6370967" lon="9.8543867"><ele>194.0</ele><time>2026-04-25T09:10:52.231Z</time></trkpt><trkpt lat="45.6370417" lon="9.85461"><ele>194.0</ele><time>2026-04-25T09:10:53.23Z</time></trkpt><trkpt lat="45.63698" lon="9.854835"><ele>194.0</ele><time>2026-04-25T09:10:54.232Z</time></trkpt><trkpt lat="45.6369117" lon="9.85506"><ele>194.0</ele><time>2026-04-25T09:10:55.229Z</time></trkpt><trkpt lat="45.6368367" lon="9.8552867"><ele>194.66666666666669</ele><time>2026-04-25T09:10:56.228Z</time></trkpt><trkpt lat="45.636755" lon="9.8555183"><ele>195.33333333333331</ele><time>2026-04-25T09:10:57.229Z</time></trkpt><trkpt lat="45.6366683" lon="9.85575"><ele>196.0</ele><time>2026-04-25T09:10:58.229Z</time></trkpt><trkpt lat="45.6365717" lon="9.855985"><ele>196.33333333333331</ele><time>2026-04-25T09:10:59.229Z</time></trkpt><trkpt lat="45.636475" lon="9.8562167"><ele>196.66666666666669</ele><time>2026-04-25T09:11:00.232Z</time></trkpt><trkpt lat="45.6363767" lon="9.8564467"><ele>197.0</ele><time>2026-04-25T09:11:01.229Z</time></trkpt><trkpt lat="45.636275" lon="9.8566717"><ele>197.0</ele><time>2026-04-25T09:11:02.23Z</time></trkpt><trkpt lat="45.6361733" lon="9.8568867"><ele>197.0</ele><time>2026-04-25T09:11:03.228Z</time></trkpt><trkpt lat="45.6360733" lon="9.857085"><ele>197.0</ele><time>2026-04-25T09:11:04.228Z</time></trkpt><trkpt lat="45.6359717" lon="9.8572667"><ele>197.0</ele><time>2026-04-25T09:11:05.229Z</time></trkpt><trkpt lat="45.6358633" lon="9.8574433"><ele>197.0</ele><time>2026-04-25T09:11:06.227Z</time></trkpt><trkpt lat="45.6357467" lon="9.8576217"><ele>197.0</ele><time>2026-04-25T09:11:07.229Z</time></trkpt><trkpt lat="45.6356183" lon="9.8578017"><ele>197.0</ele><time>2026-04-25T09:11:08.231Z</time></trkpt><trkpt lat="45.6354883" lon="9.857975"><ele>197.0</ele><time>2026-04-25T09:11:09.228Z</time></trkpt><trkpt lat="45.6353483" lon="9.8581433"><ele>197.0</ele><time>2026-04-25T09:11:10.228Z</time></trkpt><trkpt lat="45.6352017" lon="9.8583017"><ele>197.66666666666669</ele><time>2026-04-25T09:11:11.229Z</time></trkpt><trkpt lat="45.6350533" lon="9.8584533"><ele>198.33333333333331</ele><time>2026-04-25T09:11:12.229Z</time></trkpt><trkpt lat="45.634895" lon="9.858605"><ele>199.0</ele><time>2026-04-25T09:11:13.23Z</time></trkpt><trkpt lat="45.6347217" lon="9.8587683"><ele>199.0</ele><time>2026-04-25T09:11:14.23Z</time></trkpt><trkpt lat="45.6345267" lon="9.8589417"><ele>199.0</ele><time>2026-04-25T09:11:15.23Z</time></trkpt><trkpt lat="45.6343217" lon="9.8591267"><ele>198.5</ele><time>2026-04-25T09:11:16.23Z</time></trkpt><trkpt lat="45.6341083" lon="9.859315"><ele>198.0</ele><time>2026-04-25T09:11:17.229Z</time></trkpt><trkpt lat="45.6339" lon="9.8594983"><ele>198.0</ele><time>2026-04-25T09:11:18.228Z</time></trkpt><trkpt lat="45.633705" lon="9.859675"><ele>198.0</ele><time>2026-04-25T09:11:19.228Z</time></trkpt><trkpt lat="45.633525" lon="9.8598433"><ele>198.0</ele><time>2026-04-25T09:11:20.229Z</time></trkpt><trkpt lat="45.6333667" lon="9.860015"><ele>197.33333333333331</ele><time>2026-04-25T09:11:21.23Z</time></trkpt><trkpt lat="45.633225" lon="9.860195"><ele>196.66666666666666</ele><time>2026-04-25T09:11:22.229Z</time></trkpt><trkpt lat="45.6331" lon="9.8603867"><ele>196.0</ele><time>2026-04-25T09:11:23.235Z</time></trkpt><trkpt lat="45.6329867" lon="9.86058"><ele>196.0</ele><time>2026-04-25T09:11:24.228Z</time></trkpt><trkpt lat="45.6328867" lon="9.8607683"><ele>196.0</ele><time>2026-04-25T09:11:25.229Z</time></trkpt><trkpt lat="45.632805" lon="9.8609483"><ele>196.0</ele><time>2026-04-25T09:11:26.228Z</time></trkpt><trkpt lat="45.6327383" lon="9.8611133"><ele>196.0</ele><time>2026-04-25T09:11:27.23Z</time></trkpt><trkpt lat="45.6326817" lon="9.8612517"><ele>195.99999999999997</ele><time>2026-04-25T09:11:28.228Z</time></trkpt><trkpt lat="45.6326317" lon="9.8613667"><ele>196.0</ele><time>2026-04-25T09:11:29.228Z</time></trkpt><trkpt lat="45.6325833" lon="9.8614583"><ele>196.0</ele><time>2026-04-25T09:11:30.228Z</time></trkpt><trkpt lat="45.6325333" lon="9.86153"><ele>196.0</ele><time>2026-04-25T09:11:31.229Z</time></trkpt><trkpt lat="45.6324733" lon="9.8615933"><ele>195.99999999999997</ele><time>2026-04-25T09:11:32.229Z</time></trkpt><trkpt lat="45.6324117" lon="9.861655"><ele>196.0</ele><time>2026-04-25T09:11:33.23Z</time></trkpt><trkpt lat="45.6323433" lon="9.8617367"><ele>196.4</ele><time>2026-04-25T09:11:34.228Z</time></trkpt><trkpt lat="45.63229" lon="9.8618383"><ele>196.8</ele><time>2026-04-25T09:11:35.227Z</time></trkpt><trkpt lat="45.6322583" lon="9.8619533"><ele>197.20000000000002</ele><time>2026-04-25T09:11:36.228Z</time></trkpt><trkpt lat="45.632255" lon="9.8620783"><ele>197.60000000000002</ele><time>2026-04-25T09:11:37.23Z</time></trkpt><trkpt lat="45.6322533" lon="9.8622167"><ele>198.0</ele><time>2026-04-25T09:11:38.228Z</time></trkpt><trkpt lat="45.63224" lon="9.8623633"><ele>198.0</ele><time>2026-04-25T09:11:39.229Z</time></trkpt><trkpt lat="45.6322" lon="9.8625117"><ele>198.0</ele><time>2026-04-25T09:11:40.229Z</time></trkpt><trkpt lat="45.6321333" lon="9.8626433"><ele>198.0</ele><time>2026-04-25T09:11:41.232Z</time></trkpt><trkpt lat="45.632045" lon="9.862775"><ele>198.0</ele><time>2026-04-25T09:11:42.229Z</time></trkpt><trkpt lat="45.6319533" lon="9.86291"><ele>198.5</ele><time>2026-04-25T09:11:43.23Z</time></trkpt><trkpt lat="45.631855" lon="9.863055"><ele>199.0</ele><time>2026-04-25T09:11:44.228Z</time></trkpt><trkpt lat="45.6317617" lon="9.8632167"><ele>199.5</ele><time>2026-04-25T09:11:45.229Z</time></trkpt><trkpt lat="45.6316733" lon="9.8633883"><ele>200.0</ele><time>2026-04-25T09:11:46.229Z</time></trkpt><trkpt lat="45.631585" lon="9.8635767"><ele>200.0</ele><time>2026-04-25T09:11:47.229Z</time></trkpt><trkpt lat="45.6315017" lon="9.8637783"><ele>200.0</ele><time>2026-04-25T09:11:48.23Z</time></trkpt><trkpt lat="45.631425" lon="9.8639933"><ele>200.0</ele><time>2026-04-25T09:11:49.229Z</time></trkpt><trkpt lat="45.6313533" lon="9.8642217"><ele>200.0</ele><time>2026-04-25T09:11:50.228Z</time></trkpt><trkpt lat="45.6312883" lon="9.8644583"><ele>200.0</ele><time>2026-04-25T09:11:51.228Z</time></trkpt><trkpt lat="45.63123" lon="9.8646917"><ele>200.0</ele><time>2026-04-25T09:11:52.228Z</time></trkpt><trkpt lat="45.6311733" lon="9.8649267"><ele>200.66666666666669</ele><time>2026-04-25T09:11:53.229Z</time></trkpt><trkpt lat="45.6311167" lon="9.86517"><ele>201.33333333333331</ele><time>2026-04-25T09:11:54.229Z</time></trkpt><trkpt lat="45.6310617" lon="9.86542"><ele>202.0</ele><time>2026-04-25T09:11:55.23Z</time></trkpt><trkpt lat="45.631005" lon="9.8656783"><ele>202.0</ele><time>2026-04-25T09:11:56.227Z</time></trkpt><trkpt lat="45.6309483" lon="9.865945"><ele>202.0</ele><time>2026-04-25T09:11:57.228Z</time></trkpt><trkpt lat="45.6308917" lon="9.86622"><ele>202.0</ele><time>2026-04-25T09:11:58.228Z</time></trkpt><trkpt lat="45.6308333" lon="9.8665017"><ele>202.33333333333331</ele><time>2026-04-25T09:11:59.23Z</time></trkpt><trkpt lat="45.6307717" lon="9.8667917"><ele>202.66666666666669</ele><time>2026-04-25T09:12:00.228Z</time></trkpt><trkpt lat="45.6307117" lon="9.867075"><ele>203.0</ele><time>2026-04-25T09:12:01.229Z</time></trkpt><trkpt lat="45.6306533" lon="9.8673467"><ele>203.0</ele><time>2026-04-25T09:12:02.228Z</time></trkpt><trkpt lat="45.6305983" lon="9.8676067"><ele>203.0</ele><time>2026-04-25T09:12:03.231Z</time></trkpt><trkpt lat="45.6305433" lon="9.867855"><ele>203.0</ele><time>2026-04-25T09:12:04.229Z</time></trkpt><trkpt lat="45.6304917" lon="9.8681"><ele>203.0</ele><time>2026-04-25T09:12:05.229Z</time></trkpt><trkpt lat="45.630435" lon="9.8683483"><ele>203.0</ele><time>2026-04-25T09:12:06.228Z</time></trkpt><trkpt lat="45.63038" lon="9.8686"><ele>203.0</ele><time>2026-04-25T09:12:07.228Z</time></trkpt><trkpt lat="45.6303317" lon="9.86886"><ele>202.66666666666669</ele><time>2026-04-25T09:12:08.229Z</time></trkpt><trkpt lat="45.6302883" lon="9.8691283"><ele>202.33333333333331</ele><time>2026-04-25T09:12:09.228Z</time></trkpt><trkpt lat="45.6302483" lon="9.8694033"><ele>202.0</ele><time>2026-04-25T09:12:10.229Z</time></trkpt><trkpt lat="45.6302117" lon="9.86968"><ele>202.0</ele><time>2026-04-25T09:12:11.23Z</time></trkpt><trkpt lat="45.630175" lon="9.86996"><ele>202.0</ele><time>2026-04-25T09:12:12.228Z</time></trkpt><trkpt lat="45.630135" lon="9.8702417"><ele>202.0</ele><time>2026-04-25T09:12:13.228Z</time></trkpt><trkpt lat="45.630095" lon="9.87052"><ele>201.66666666666666</ele><time>2026-04-25T09:12:14.232Z</time></trkpt><trkpt lat="45.6300567" lon="9.8707933"><ele>201.33333333333331</ele><time>2026-04-25T09:12:15.229Z</time></trkpt><trkpt lat="45.6300183" lon="9.8710633"><ele>201.0</ele><time>2026-04-25T09:12:16.228Z</time></trkpt><trkpt lat="45.6299817" lon="9.8713283"><ele>201.0</ele><time>2026-04-25T09:12:17.228Z</time></trkpt><trkpt lat="45.6299467" lon="9.87159"><ele>201.0</ele><time>2026-04-25T09:12:18.229Z</time></trkpt><trkpt lat="45.62991" lon="9.87185"><ele>201.0</ele><time>2026-04-25T09:12:19.229Z</time></trkpt><trkpt lat="45.6298767" lon="9.8721033"><ele>201.0</ele><time>2026-04-25T09:12:20.23Z</time></trkpt><trkpt lat="45.6298417" lon="9.872355"><ele>201.0</ele><time>2026-04-25T09:12:21.229Z</time></trkpt><trkpt lat="45.6298083" lon="9.8726"><ele>201.0</ele><time>2026-04-25T09:12:22.228Z</time></trkpt><trkpt lat="45.6297717" lon="9.8728483"><ele>201.66666666666669</ele><time>2026-04-25T09:12:23.229Z</time></trkpt><trkpt lat="45.6297333" lon="9.8731"><ele>202.33333333333334</ele><time>2026-04-25T09:12:24.228Z</time></trkpt><trkpt lat="45.629695" lon="9.8733533"><ele>203.0</ele><time>2026-04-25T09:12:25.232Z</time></trkpt><trkpt lat="45.6296583" lon="9.87361"><ele>203.33333333333334</ele><time>2026-04-25T09:12:26.227Z</time></trkpt><trkpt lat="45.629625" lon="9.873865"><ele>203.66666666666669</ele><time>2026-04-25T09:12:27.229Z</time></trkpt><trkpt lat="45.6295933" lon="9.8741267"><ele>204.0</ele><time>2026-04-25T09:12:28.228Z</time></trkpt><trkpt lat="45.629565" lon="9.8743933"><ele>204.0</ele><time>2026-04-25T09:12:29.227Z</time></trkpt><trkpt lat="45.62954" lon="9.8746683"><ele>204.0</ele><time>2026-04-25T09:12:30.228Z</time></trkpt><trkpt lat="45.6295183" lon="9.87494"><ele>204.0</ele><time>2026-04-25T09:12:31.228Z</time></trkpt><trkpt lat="45.6295033" lon="9.8752167"><ele>204.33333333333331</ele><time>2026-04-25T09:12:32.228Z</time></trkpt><trkpt lat="45.6294967" lon="9.875495"><ele>204.66666666666666</ele><time>2026-04-25T09:12:33.227Z</time></trkpt><trkpt lat="45.62949" lon="9.875775"><ele>205.0</ele><time>2026-04-25T09:12:34.228Z</time></trkpt><trkpt lat="45.6294833" lon="9.8760583"><ele>205.0</ele><time>2026-04-25T09:12:35.226Z</time></trkpt><trkpt lat="45.62948" lon="9.876345"><ele>205.0</ele><time>2026-04-25T09:12:36.227Z</time></trkpt><trkpt lat="45.629485" lon="9.8766267"><ele>205.0</ele><time>2026-04-25T09:12:37.227Z</time></trkpt><trkpt lat="45.6294933" lon="9.8769017"><ele>205.0</ele><time>2026-04-25T09:12:38.228Z</time></trkpt><trkpt lat="45.6295067" lon="9.8771733"><ele>205.0</ele><time>2026-04-25T09:12:39.23Z</time></trkpt><trkpt lat="45.6295233" lon="9.8774333"><ele>205.0</ele><time>2026-04-25T09:12:40.227Z</time></trkpt><trkpt lat="45.62954" lon="9.87768"><ele>205.33333333333331</ele><time>2026-04-25T09:12:41.229Z</time></trkpt><trkpt lat="45.6295583" lon="9.8779117"><ele>205.66666666666669</ele><time>2026-04-25T09:12:42.228Z</time></trkpt><trkpt lat="45.6295733" lon="9.878135"><ele>206.0</ele><time>2026-04-25T09:12:43.227Z</time></trkpt><trkpt lat="45.6295917" lon="9.8783433"><ele>206.25</ele><time>2026-04-25T09:12:44.227Z</time></trkpt><trkpt lat="45.6296067" lon="9.8785383"><ele>206.5</ele><time>2026-04-25T09:12:45.232Z</time></trkpt><trkpt lat="45.6296217" lon="9.8787083"><ele>206.75</ele><time>2026-04-25T09:12:46.227Z</time></trkpt><trkpt lat="45.629635" lon="9.8788533"><ele>207.0</ele><time>2026-04-25T09:12:47.228Z</time></trkpt><trkpt lat="45.629645" lon="9.878985"><ele>207.0</ele><time>2026-04-25T09:12:48.23Z</time></trkpt><trkpt lat="45.6296517" lon="9.8791067"><ele>207.0</ele><time>2026-04-25T09:12:49.23Z</time></trkpt><trkpt lat="45.6296583" lon="9.879225"><ele>207.0</ele><time>2026-04-25T09:12:50.229Z</time></trkpt><trkpt lat="45.62966" lon="9.8793367"><ele>207.0</ele><time>2026-04-25T09:12:51.236Z</time></trkpt><trkpt lat="45.62965" lon="9.879445"><ele>207.0</ele><time>2026-04-25T09:12:52.229Z</time></trkpt><trkpt lat="45.6296267" lon="9.8795417"><ele>207.0</ele><time>2026-04-25T09:12:53.229Z</time></trkpt><trkpt lat="45.6295917" lon="9.87964"><ele>207.16666666666666</ele><time>2026-04-25T09:12:54.229Z</time></trkpt><trkpt lat="45.6295517" lon="9.87975"><ele>207.33333333333331</ele><time>2026-04-25T09:12:55.229Z</time></trkpt><trkpt lat="45.6295133" lon="9.879875"><ele>207.5</ele><time>2026-04-25T09:12:56.227Z</time></trkpt><trkpt lat="45.6294933" lon="9.8800083"><ele>207.66666666666666</ele><time>2026-04-25T09:12:57.228Z</time></trkpt><trkpt lat="45.6295067" lon="9.8801283"><ele>207.83333333333331</ele><time>2026-04-25T09:12:58.227Z</time></trkpt><trkpt lat="45.62954" lon="9.88024"><ele>208.0</ele><time>2026-04-25T09:12:59.232Z</time></trkpt><trkpt lat="45.6295917" lon="9.8803367"><ele>208.0</ele><time>2026-04-25T09:13:00.229Z</time></trkpt><trkpt lat="45.6296517" lon="9.8804333"><ele>208.0</ele><time>2026-04-25T09:13:01.228Z</time></trkpt><trkpt lat="45.6297067" lon="9.880545"><ele>208.0</ele><time>2026-04-25T09:13:02.227Z</time></trkpt><trkpt lat="45.629745" lon="9.8806733"><ele>208.0</ele><time>2026-04-25T09:13:03.228Z</time></trkpt><trkpt lat="45.6297733" lon="9.88081"><ele>208.0</ele><time>2026-04-25T09:13:04.228Z</time></trkpt><trkpt lat="45.6297883" lon="9.880955"><ele>207.5</ele><time>2026-04-25T09:13:05.227Z</time></trkpt><trkpt lat="45.629815" lon="9.8811033"><ele>207.0</ele><time>2026-04-25T09:13:06.228Z</time></trkpt><trkpt lat="45.6298617" lon="9.881255"><ele>206.5</ele><time>2026-04-25T09:13:07.227Z</time></trkpt><trkpt lat="45.62993" lon="9.8814117"><ele>206.0</ele><time>2026-04-25T09:13:08.23Z</time></trkpt><trkpt lat="45.63002" lon="9.8815667"><ele>206.0</ele><time>2026-04-25T09:13:09.228Z</time></trkpt><trkpt lat="45.63013" lon="9.8817233"><ele>206.0</ele><time>2026-04-25T09:13:10.227Z</time></trkpt><trkpt lat="45.6302467" lon="9.8818733"><ele>206.0</ele><time>2026-04-25T09:13:11.228Z</time></trkpt><trkpt lat="45.6303667" lon="9.8820133"><ele>206.33333333333334</ele><time>2026-04-25T09:13:12.23Z</time></trkpt><trkpt lat="45.6304917" lon="9.8821483"><ele>206.66666666666669</ele><time>2026-04-25T09:13:13.227Z</time></trkpt><trkpt lat="45.6306183" lon="9.8822783"><ele>207.0</ele><time>2026-04-25T09:13:14.229Z</time></trkpt><trkpt lat="45.6307433" lon="9.8824067"><ele>207.0</ele><time>2026-04-25T09:13:15.23Z</time></trkpt><trkpt lat="45.6308717" lon="9.882535"><ele>207.0</ele><time>2026-04-25T09:13:16.227Z</time></trkpt><trkpt lat="45.6310033" lon="9.8826567"><ele>207.0</ele><time>2026-04-25T09:13:17.227Z</time></trkpt><trkpt lat="45.6311383" lon="9.8827767"><ele>207.66666666666669</ele><time>2026-04-25T09:13:18.229Z</time></trkpt><trkpt lat="45.6312767" lon="9.8828983"><ele>208.33333333333334</ele><time>2026-04-25T09:13:19.228Z</time></trkpt><trkpt lat="45.6314183" lon="9.883025"><ele>209.0</ele><time>2026-04-25T09:13:20.229Z</time></trkpt><trkpt lat="45.6315633" lon="9.8831483"><ele>209.0</ele><time>2026-04-25T09:13:21.23Z</time></trkpt><trkpt lat="45.63171" lon="9.8832783"><ele>209.0</ele><time>2026-04-25T09:13:22.229Z</time></trkpt><trkpt lat="45.63186" lon="9.8834083"><ele>209.0</ele><time>2026-04-25T09:13:23.228Z</time></trkpt><trkpt lat="45.6320133" lon="9.883535"><ele>209.0</ele><time>2026-04-25T09:13:24.231Z</time></trkpt><trkpt lat="45.6321733" lon="9.88366"><ele>209.0</ele><time>2026-04-25T09:13:25.23Z</time></trkpt><trkpt lat="45.6323367" lon="9.8837817"><ele>209.0</ele><time>2026-04-25T09:13:26.228Z</time></trkpt><trkpt lat="45.6325017" lon="9.8839"><ele>209.0</ele><time>2026-04-25T09:13:27.229Z</time></trkpt><trkpt lat="45.632675" lon="9.88402"><ele>209.0</ele><time>2026-04-25T09:13:28.229Z</time></trkpt><trkpt lat="45.6328483" lon="9.88414"><ele>209.0</ele><time>2026-04-25T09:13:29.228Z</time></trkpt><trkpt lat="45.633025" lon="9.8842517"><ele>210.0</ele><time>2026-04-25T09:13:30.231Z</time></trkpt><trkpt lat="45.6332017" lon="9.8843567"><ele>211.0</ele><time>2026-04-25T09:13:31.23Z</time></trkpt><trkpt lat="45.6333717" lon="9.8844517"><ele>212.0</ele><time>2026-04-25T09:13:32.227Z</time></trkpt><trkpt lat="45.6335333" lon="9.884545"><ele>212.0</ele><time>2026-04-25T09:13:33.228Z</time></trkpt><trkpt lat="45.6336867" lon="9.884635"><ele>212.0</ele><time>2026-04-25T09:13:34.227Z</time></trkpt><trkpt lat="45.6338383" lon="9.88472"><ele>212.0</ele><time>2026-04-25T09:13:35.229Z</time></trkpt><trkpt lat="45.6339883" lon="9.884795"><ele>212.0</ele><time>2026-04-25T09:13:36.23Z</time></trkpt><trkpt lat="45.6341417" lon="9.884865"><ele>212.0</ele><time>2026-04-25T09:13:37.229Z</time></trkpt><trkpt lat="45.6342967" lon="9.8849333"><ele>212.0</ele><time>2026-04-25T09:13:38.229Z</time></trkpt><trkpt lat="45.63445" lon="9.885"><ele>212.0</ele><time>2026-04-25T09:13:39.23Z</time></trkpt><trkpt lat="45.6346017" lon="9.8850617"><ele>212.0</ele><time>2026-04-25T09:13:40.23Z</time></trkpt><trkpt lat="45.6347533" lon="9.8851167"><ele>212.0</ele><time>2026-04-25T09:13:41.229Z</time></trkpt><trkpt lat="45.6349017" lon="9.8851717"><ele>212.0</ele><time>2026-04-25T09:13:42.23Z</time></trkpt><trkpt lat="45.6350483" lon="9.885225"><ele>212.0</ele><time>2026-04-25T09:13:43.229Z</time></trkpt><trkpt lat="45.6351933" lon="9.8852733"><ele>212.0</ele><time>2026-04-25T09:13:44.228Z</time></trkpt><trkpt lat="45.6353367" lon="9.8853167"><ele>212.0</ele><time>2026-04-25T09:13:45.23Z</time></trkpt><trkpt lat="45.6354817" lon="9.8853583"><ele>212.33333333333334</ele><time>2026-04-25T09:13:46.228Z</time></trkpt><trkpt lat="45.6356283" lon="9.8853983"><ele>212.66666666666669</ele><time>2026-04-25T09:13:47.227Z</time></trkpt><trkpt lat="45.6357783" lon="9.8854333"><ele>213.0</ele><time>2026-04-25T09:13:48.231Z</time></trkpt><trkpt lat="45.6359283" lon="9.8854717"><ele>213.0</ele><time>2026-04-25T09:13:49.228Z</time></trkpt><trkpt lat="45.6360767" lon="9.8855033"><ele>213.0</ele><time>2026-04-25T09:13:50.229Z</time></trkpt><trkpt lat="45.6362267" lon="9.8855333"><ele>213.0</ele><time>2026-04-25T09:13:51.228Z</time></trkpt><trkpt lat="45.636365" lon="9.8855583"><ele>213.0</ele><time>2026-04-25T09:13:52.228Z</time></trkpt><trkpt lat="45.6364917" lon="9.8855783"><ele>213.0</ele><time>2026-04-25T09:13:53.227Z</time></trkpt><trkpt lat="45.6366167" lon="9.8855967"><ele>213.0</ele><time>2026-04-25T09:13:54.228Z</time></trkpt><trkpt lat="45.6367333" lon="9.88561"><ele>213.0</ele><time>2026-04-25T09:13:55.227Z</time></trkpt><trkpt lat="45.6368383" lon="9.8856183"><ele>213.0</ele><time>2026-04-25T09:13:56.228Z</time></trkpt><trkpt lat="45.636945" lon="9.8856283"><ele>213.16666666666666</ele><time>2026-04-25T09:13:57.231Z</time></trkpt><trkpt lat="45.637045" lon="9.8856367"><ele>213.33333333333331</ele><time>2026-04-25T09:13:58.227Z</time></trkpt><trkpt lat="45.6371317" lon="9.8856417"><ele>213.5</ele><time>2026-04-25T09:13:59.227Z</time></trkpt><trkpt lat="45.637205" lon="9.8856483"><ele>213.66666666666666</ele><time>2026-04-25T09:14:00.229Z</time></trkpt><trkpt lat="45.6373167" lon="9.8856683"><ele>213.83333333333331</ele><time>2026-04-25T09:14:02.227Z</time></trkpt><trkpt lat="45.6373767" lon="9.8856967"><ele>214.0</ele><time>2026-04-25T09:14:04.228Z</time></trkpt><trkpt lat="45.6374383" lon="9.88576"><ele>213.99999999999997</ele><time>2026-04-25T09:14:10.227Z</time></trkpt><trkpt lat="45.6375033" lon="9.885855"><ele>214.0</ele><time>2026-04-25T09:14:13.228Z</time></trkpt><trkpt lat="45.63755" lon="9.8859167"><ele>214.0</ele><time>2026-04-25T09:14:14.229Z</time></trkpt><trkpt lat="45.637615" lon="9.885985"><ele>214.0</ele><time>2026-04-25T09:14:15.228Z</time></trkpt><trkpt lat="45.6376817" lon="9.8860417"><ele>213.99999999999997</ele><time>2026-04-25T09:14:16.229Z</time></trkpt><trkpt lat="45.6377467" lon="9.886105"><ele>214.0</ele><time>2026-04-25T09:14:17.229Z</time></trkpt><trkpt lat="45.6378017" lon="9.886195"><ele>214.6</ele><time>2026-04-25T09:14:18.228Z</time></trkpt><trkpt lat="45.637845" lon="9.8863133"><ele>215.2</ele><time>2026-04-25T09:14:19.227Z</time></trkpt><trkpt lat="45.6378733" lon="9.886445"><ele>215.79999999999998</ele><time>2026-04-25T09:14:20.229Z</time></trkpt><trkpt lat="45.6378983" lon="9.886575"><ele>216.39999999999998</ele><time>2026-04-25T09:14:21.228Z</time></trkpt><trkpt lat="45.6379183" lon="9.8867017"><ele>217.0</ele><time>2026-04-25T09:14:22.227Z</time></trkpt><trkpt lat="45.6379417" lon="9.88684"><ele>217.2</ele><time>2026-04-25T09:14:23.231Z</time></trkpt><trkpt lat="45.63796" lon="9.88698"><ele>217.39999999999998</ele><time>2026-04-25T09:14:24.23Z</time></trkpt><trkpt lat="45.6379767" lon="9.887105"><ele>217.60000000000002</ele><time>2026-04-25T09:14:25.229Z</time></trkpt><trkpt lat="45.6379917" lon="9.887225"><ele>217.8</ele><time>2026-04-25T09:14:26.228Z</time></trkpt><trkpt lat="45.6380083" lon="9.8873517"><ele>218.0</ele><time>2026-04-25T09:14:27.228Z</time></trkpt><trkpt lat="45.638025" lon="9.88748"><ele>217.83333333333334</ele><time>2026-04-25T09:14:28.227Z</time></trkpt><trkpt lat="45.63804" lon="9.887605"><ele>217.66666666666669</ele><time>2026-04-25T09:14:29.228Z</time></trkpt><trkpt lat="45.6380583" lon="9.88773"><ele>217.5</ele><time>2026-04-25T09:14:30.227Z</time></trkpt><trkpt lat="45.6380783" lon="9.8878533"><ele>217.33333333333331</ele><time>2026-04-25T09:14:31.228Z</time></trkpt><trkpt lat="45.6380983" lon="9.8879783"><ele>217.16666666666666</ele><time>2026-04-25T09:14:32.227Z</time></trkpt><trkpt lat="45.6381167" lon="9.8881033"><ele>217.0</ele><time>2026-04-25T09:14:33.228Z</time></trkpt><trkpt lat="45.6381367" lon="9.8882267"><ele>217.0</ele><time>2026-04-25T09:14:34.228Z</time></trkpt><trkpt lat="45.6381533" lon="9.88835"><ele>217.0</ele><time>2026-04-25T09:14:35.228Z</time></trkpt><trkpt lat="45.6381667" lon="9.8884683"><ele>217.0</ele><time>2026-04-25T09:14:36.229Z</time></trkpt><trkpt lat="45.6381783" lon="9.8885667"><ele>217.0</ele><time>2026-04-25T09:14:37.228Z</time></trkpt><trkpt lat="45.6382" lon="9.8887383"><ele>217.0</ele><time>2026-04-25T09:14:39.229Z</time></trkpt><trkpt lat="45.6382083" lon="9.8889"><ele>216.99999999999997</ele><time>2026-04-25T09:14:41.228Z</time></trkpt><trkpt lat="45.63818" lon="9.8890567"><ele>217.0</ele><time>2026-04-25T09:14:43.229Z</time></trkpt><trkpt lat="45.6381633" lon="9.8891483"><ele>217.0</ele><time>2026-04-25T09:14:44.228Z</time></trkpt><trkpt lat="45.6381633" lon="9.889245"><ele>217.0</ele><time>2026-04-25T09:14:45.23Z</time></trkpt><trkpt lat="45.6381817" lon="9.8893517"><ele>216.99999999999997</ele><time>2026-04-25T09:14:46.228Z</time></trkpt><trkpt lat="45.638225" lon="9.8894633"><ele>217.0</ele><time>2026-04-25T09:14:47.227Z</time></trkpt><trkpt lat="45.638265" lon="9.8895883"><ele>217.25</ele><time>2026-04-25T09:14:48.227Z</time></trkpt><trkpt lat="45.6383" lon="9.8897283"><ele>217.5</ele><time>2026-04-25T09:14:49.227Z</time></trkpt><trkpt lat="45.63833" lon="9.889885"><ele>217.75</ele><time>2026-04-25T09:14:50.227Z</time></trkpt><trkpt lat="45.63836" lon="9.89006"><ele>218.0</ele><time>2026-04-25T09:14:51.228Z</time></trkpt><trkpt lat="45.6383867" lon="9.8902417"><ele>218.25</ele><time>2026-04-25T09:14:52.227Z</time></trkpt><trkpt lat="45.6384167" lon="9.89043"><ele>218.5</ele><time>2026-04-25T09:14:53.228Z</time></trkpt><trkpt lat="45.6384467" lon="9.8906317"><ele>218.75</ele><time>2026-04-25T09:14:54.227Z</time></trkpt><trkpt lat="45.6384783" lon="9.8908417"><ele>219.0</ele><time>2026-04-25T09:14:55.228Z</time></trkpt><trkpt lat="45.6385117" lon="9.8910617"><ele>219.33333333333331</ele><time>2026-04-25T09:14:56.228Z</time></trkpt><trkpt lat="45.6385467" lon="9.89129"><ele>219.66666666666666</ele><time>2026-04-25T09:14:57.228Z</time></trkpt><trkpt lat="45.6385833" lon="9.8915133"><ele>220.0</ele><time>2026-04-25T09:14:58.23Z</time></trkpt><trkpt lat="45.638615" lon="9.89174"><ele>220.66666666666666</ele><time>2026-04-25T09:14:59.231Z</time></trkpt><trkpt lat="45.63865" lon="9.891965"><ele>221.33333333333331</ele><time>2026-04-25T09:15:00.235Z</time></trkpt><trkpt lat="45.638685" lon="9.892185"><ele>222.0</ele><time>2026-04-25T09:15:01.227Z</time></trkpt><trkpt lat="45.6387167" lon="9.8923917"><ele>222.25</ele><time>2026-04-25T09:15:02.229Z</time></trkpt><trkpt lat="45.6387483" lon="9.8925917"><ele>222.5</ele><time>2026-04-25T09:15:03.228Z</time></trkpt><trkpt lat="45.6387783" lon="9.8927783"><ele>222.75</ele><time>2026-04-25T09:15:04.227Z</time></trkpt><trkpt lat="45.638805" lon="9.8929617"><ele>223.0</ele><time>2026-04-25T09:15:05.228Z</time></trkpt><trkpt lat="45.6388333" lon="9.8931433"><ele>223.0</ele><time>2026-04-25T09:15:06.228Z</time></trkpt><trkpt lat="45.6388667" lon="9.8933217"><ele>223.0</ele><time>2026-04-25T09:15:07.228Z</time></trkpt><trkpt lat="45.638895" lon="9.8934967"><ele>223.0</ele><time>2026-04-25T09:15:08.228Z</time></trkpt><trkpt lat="45.6389233" lon="9.8936717"><ele>223.0</ele><time>2026-04-25T09:15:09.228Z</time></trkpt><trkpt lat="45.6389517" lon="9.8938433"><ele>222.75</ele><time>2026-04-25T09:15:10.228Z</time></trkpt><trkpt lat="45.6389783" lon="9.894015"><ele>222.5</ele><time>2026-04-25T09:15:11.229Z</time></trkpt><trkpt lat="45.6390067" lon="9.8941833"><ele>222.25</ele><time>2026-04-25T09:15:12.227Z</time></trkpt><trkpt lat="45.6390333" lon="9.89435"><ele>222.0</ele><time>2026-04-25T09:15:13.227Z</time></trkpt><trkpt lat="45.6390583" lon="9.8945183"><ele>222.0</ele><time>2026-04-25T09:15:14.228Z</time></trkpt><trkpt lat="45.6390817" lon="9.8946867"><ele>222.0</ele><time>2026-04-25T09:15:15.229Z</time></trkpt><trkpt lat="45.6391067" lon="9.89485"><ele>222.0</ele><time>2026-04-25T09:15:16.227Z</time></trkpt><trkpt lat="45.63913" lon="9.8950167"><ele>222.0</ele><time>2026-04-25T09:15:17.228Z</time></trkpt><trkpt lat="45.6391533" lon="9.8951817"><ele>222.16666666666666</ele><time>2026-04-25T09:15:18.228Z</time></trkpt><trkpt lat="45.63918" lon="9.8953367"><ele>222.33333333333331</ele><time>2026-04-25T09:15:19.227Z</time></trkpt><trkpt lat="45.6392017" lon="9.8954667"><ele>222.5</ele><time>2026-04-25T09:15:20.231Z</time></trkpt><trkpt lat="45.6392183" lon="9.8955633"><ele>222.66666666666666</ele><time>2026-04-25T09:15:21.228Z</time></trkpt><trkpt lat="45.6392433" lon="9.8956867"><ele>222.83333333333331</ele><time>2026-04-25T09:15:23.228Z</time></trkpt><trkpt lat="45.6392633" lon="9.8957983"><ele>223.0</ele><time>2026-04-25T09:15:26.229Z</time></trkpt><trkpt lat="45.6392817" lon="9.8959367"><ele>223.0</ele><time>2026-04-25T09:15:29.229Z</time></trkpt><trkpt lat="45.6393117" lon="9.8960983"><ele>223.0</ele><time>2026-04-25T09:15:31.229Z</time></trkpt><trkpt lat="45.6393383" lon="9.8962633"><ele>223.0</ele><time>2026-04-25T09:15:33.23Z</time></trkpt><trkpt lat="45.6393617" lon="9.8963883"><ele>223.0</ele><time>2026-04-25T09:15:35.23Z</time></trkpt><trkpt lat="45.6393783" lon="9.8965083"><ele>223.0</ele><time>2026-04-25T09:15:37.229Z</time></trkpt><trkpt lat="45.639405" lon="9.8966783"><ele>223.0</ele><time>2026-04-25T09:15:39.228Z</time></trkpt><trkpt lat="45.63943" lon="9.89679"><ele>223.0</ele><time>2026-04-25T09:15:40.229Z</time></trkpt><trkpt lat="45.6394567" lon="9.896915"><ele>223.0</ele><time>2026-04-25T09:15:41.23Z</time></trkpt><trkpt lat="45.6394783" lon="9.8970483"><ele>223.0</ele><time>2026-04-25T09:15:42.239Z</time></trkpt><trkpt lat="45.6395" lon="9.89719"><ele>223.0</ele><time>2026-04-25T09:15:43.229Z</time></trkpt><trkpt lat="45.6395233" lon="9.89733"><ele>223.2</ele><time>2026-04-25T09:15:44.228Z</time></trkpt><trkpt lat="45.6395483" lon="9.89747"><ele>223.4</ele><time>2026-04-25T09:15:45.228Z</time></trkpt><trkpt lat="45.639575" lon="9.8976117"><ele>223.59999999999997</ele><time>2026-04-25T09:15:46.229Z</time></trkpt><trkpt lat="45.6396" lon="9.8977583"><ele>223.79999999999998</ele><time>2026-04-25T09:15:47.228Z</time></trkpt><trkpt lat="45.639625" lon="9.8979067"><ele>224.0</ele><time>2026-04-25T09:15:48.228Z</time></trkpt><trkpt lat="45.63965" lon="9.8980533"><ele>224.2</ele><time>2026-04-25T09:15:49.228Z</time></trkpt><trkpt lat="45.639675" lon="9.8982033"><ele>224.39999999999998</ele><time>2026-04-25T09:15:50.228Z</time></trkpt><trkpt lat="45.6397017" lon="9.898355"><ele>224.6</ele><time>2026-04-25T09:15:51.228Z</time></trkpt><trkpt lat="45.6397267" lon="9.898505"><ele>224.8</ele><time>2026-04-25T09:15:52.23Z</time></trkpt><trkpt lat="45.6397567" lon="9.8986567"><ele>225.0</ele><time>2026-04-25T09:15:53.229Z</time></trkpt><trkpt lat="45.6397817" lon="9.89881"><ele>225.4</ele><time>2026-04-25T09:15:54.23Z</time></trkpt><trkpt lat="45.6398083" lon="9.89896"><ele>225.8</ele><time>2026-04-25T09:15:55.229Z</time></trkpt><trkpt lat="45.6398383" lon="9.89911"><ele>226.2</ele><time>2026-04-25T09:15:56.232Z</time></trkpt><trkpt lat="45.639865" lon="9.8992533"><ele>226.6</ele><time>2026-04-25T09:15:57.229Z</time></trkpt><trkpt lat="45.6398917" lon="9.899385"><ele>227.0</ele><time>2026-04-25T09:15:58.228Z</time></trkpt><trkpt lat="45.6399117" lon="9.89952"><ele>227.0</ele><time>2026-04-25T09:15:59.229Z</time></trkpt><trkpt lat="45.6399333" lon="9.899655"><ele>227.0</ele><time>2026-04-25T09:16:00.23Z</time></trkpt><trkpt lat="45.6399567" lon="9.8997967"><ele>227.0</ele><time>2026-04-25T09:16:01.228Z</time></trkpt><trkpt lat="45.6399767" lon="9.8999317"><ele>227.0</ele><time>2026-04-25T09:16:02.228Z</time></trkpt><trkpt lat="45.639995" lon="9.9000683"><ele>227.0</ele><time>2026-04-25T09:16:03.229Z</time></trkpt><trkpt lat="45.640015" lon="9.9002033"><ele>227.0</ele><time>2026-04-25T09:16:04.227Z</time></trkpt><trkpt lat="45.640035" lon="9.9003383"><ele>227.0</ele><time>2026-04-25T09:16:05.229Z</time></trkpt><trkpt lat="45.6400567" lon="9.9004783"><ele>227.0</ele><time>2026-04-25T09:16:06.231Z</time></trkpt><trkpt lat="45.64008" lon="9.9006217"><ele>227.0</ele><time>2026-04-25T09:16:07.229Z</time></trkpt><trkpt lat="45.6401017" lon="9.9007683"><ele>227.0</ele><time>2026-04-25T09:16:08.229Z</time></trkpt><trkpt lat="45.6401233" lon="9.90091"><ele>227.16666666666669</ele><time>2026-04-25T09:16:09.228Z</time></trkpt><trkpt lat="45.6401433" lon="9.9010383"><ele>227.33333333333334</ele><time>2026-04-25T09:16:10.229Z</time></trkpt><trkpt lat="45.6401633" lon="9.9011483"><ele>227.5</ele><time>2026-04-25T09:16:11.227Z</time></trkpt><trkpt lat="45.64018" lon="9.9012467"><ele>227.66666666666669</ele><time>2026-04-25T09:16:12.227Z</time></trkpt><trkpt lat="45.6401967" lon="9.901335"><ele>227.83333333333334</ele><time>2026-04-25T09:16:13.229Z</time></trkpt><trkpt lat="45.6402283" lon="9.90149"><ele>228.0</ele><time>2026-04-25T09:16:15.23Z</time></trkpt><trkpt lat="45.6402533" lon="9.901625"><ele>228.0</ele><time>2026-04-25T09:16:17.231Z</time></trkpt><trkpt lat="45.6402733" lon="9.90175"><ele>228.0</ele><time>2026-04-25T09:16:19.228Z</time></trkpt><trkpt lat="45.64029" lon="9.9018567"><ele>228.0</ele><time>2026-04-25T09:16:21.229Z</time></trkpt><trkpt lat="45.640305" lon="9.90195"><ele>228.0</ele><time>2026-04-25T09:16:23.229Z</time></trkpt><trkpt lat="45.64032" lon="9.9020467"><ele>228.0</ele><time>2026-04-25T09:16:25.23Z</time></trkpt><trkpt lat="45.64034" lon="9.9021617"><ele>228.0</ele><time>2026-04-25T09:16:27.229Z</time></trkpt><trkpt lat="45.6403617" lon="9.90227"><ele>228.0</ele><time>2026-04-25T09:16:29.229Z</time></trkpt><trkpt lat="45.640385" lon="9.9024"><ele>228.0</ele><time>2026-04-25T09:16:31.229Z</time></trkpt><trkpt lat="45.640405" lon="9.902525"><ele>228.0</ele><time>2026-04-25T09:16:33.229Z</time></trkpt><trkpt lat="45.6404283" lon="9.90267"><ele>228.0</ele><time>2026-04-25T09:16:35.228Z</time></trkpt><trkpt lat="45.64046" lon="9.9028467"><ele>228.0</ele><time>2026-04-25T09:16:37.229Z</time></trkpt><trkpt lat="45.6404783" lon="9.9029467"><ele>228.0</ele><time>2026-04-25T09:16:38.228Z</time></trkpt><trkpt lat="45.6404967" lon="9.90305"><ele>227.99999999999997</ele><time>2026-04-25T09:16:39.229Z</time></trkpt><trkpt lat="45.6405183" lon="9.9031517"><ele>228.0</ele><time>2026-04-25T09:16:40.228Z</time></trkpt><trkpt lat="45.6405383" lon="9.9032483"><ele>228.0</ele><time>2026-04-25T09:16:41.229Z</time></trkpt><trkpt lat="45.6405583" lon="9.9033433"><ele>227.99999999999997</ele><time>2026-04-25T09:16:42.228Z</time></trkpt><trkpt lat="45.640575" lon="9.9034367"><ele>228.0</ele><time>2026-04-25T09:16:43.229Z</time></trkpt><trkpt lat="45.640595" lon="9.9035317"><ele>228.0</ele><time>2026-04-25T09:16:44.228Z</time></trkpt><trkpt lat="45.6406167" lon="9.9036317"><ele>228.0</ele><time>2026-04-25T09:16:45.235Z</time></trkpt><trkpt lat="45.64064" lon="9.9037383"><ele>228.0</ele><time>2026-04-25T09:16:46.229Z</time></trkpt><trkpt lat="45.640665" lon="9.9038483"><ele>228.0</ele><time>2026-04-25T09:16:47.229Z</time></trkpt><trkpt lat="45.64069" lon="9.90396"><ele>228.0</ele><time>2026-04-25T09:16:48.23Z</time></trkpt><trkpt lat="45.640715" lon="9.904065"><ele>228.0</ele><time>2026-04-25T09:16:49.228Z</time></trkpt><trkpt lat="45.6407383" lon="9.90416"><ele>228.0</ele><time>2026-04-25T09:16:50.229Z</time></trkpt><trkpt lat="45.6407583" lon="9.9042483"><ele>228.0</ele><time>2026-04-25T09:16:51.232Z</time></trkpt><trkpt lat="45.6407917" lon="9.904395"><ele>228.0</ele><time>2026-04-25T09:16:53.228Z</time></trkpt><trkpt lat="45.6408167" lon="9.9045067"><ele>228.0</ele><time>2026-04-25T09:16:56.23Z</time></trkpt><trkpt lat="45.6408567" lon="9.90461"><ele>228.0</ele><time>2026-04-25T09:17:01.227Z</time></trkpt><trkpt lat="45.6408917" lon="9.904715"><ele>228.0</ele><time>2026-04-25T09:17:04.229Z</time></trkpt><trkpt lat="45.640925" lon="9.90485"><ele>228.0</ele><time>2026-04-25T09:17:07.229Z</time></trkpt><trkpt lat="45.64095" lon="9.9050267"><ele>228.0</ele><time>2026-04-25T09:17:09.232Z</time></trkpt><trkpt lat="45.6409683" lon="9.9051483"><ele>228.0</ele><time>2026-04-25T09:17:10.229Z</time></trkpt><trkpt lat="45.640995" lon="9.9052917"><ele>228.0</ele><time>2026-04-25T09:17:11.229Z</time></trkpt><trkpt lat="45.641025" lon="9.90546"><ele>228.0</ele><time>2026-04-25T09:17:12.23Z</time></trkpt><trkpt lat="45.6410583" lon="9.9056367"><ele>228.0</ele><time>2026-04-25T09:17:13.228Z</time></trkpt><trkpt lat="45.6410867" lon="9.905815"><ele>228.0</ele><time>2026-04-25T09:17:14.229Z</time></trkpt><trkpt lat="45.64112" lon="9.9059917"><ele>228.0</ele><time>2026-04-25T09:17:15.232Z</time></trkpt><trkpt lat="45.6411533" lon="9.9061583"><ele>228.0</ele><time>2026-04-25T09:17:16.228Z</time></trkpt><trkpt lat="45.6411883" lon="9.906315"><ele>228.0</ele><time>2026-04-25T09:17:17.229Z</time></trkpt><trkpt lat="45.64122" lon="9.906465"><ele>228.0</ele><time>2026-04-25T09:17:18.228Z</time></trkpt><trkpt lat="45.6412533" lon="9.9066117"><ele>228.0</ele><time>2026-04-25T09:17:19.228Z</time></trkpt><trkpt lat="45.6412867" lon="9.9067533"><ele>228.0</ele><time>2026-04-25T09:17:20.229Z</time></trkpt><trkpt lat="45.6413217" lon="9.90689"><ele>228.0</ele><time>2026-04-25T09:17:21.231Z</time></trkpt><trkpt lat="45.6413517" lon="9.9070183"><ele>227.83333333333334</ele><time>2026-04-25T09:17:22.228Z</time></trkpt><trkpt lat="45.6413783" lon="9.90714"><ele>227.66666666666669</ele><time>2026-04-25T09:17:23.228Z</time></trkpt><trkpt lat="45.6414067" lon="9.9072567"><ele>227.5</ele><time>2026-04-25T09:17:24.229Z</time></trkpt><trkpt lat="45.6414317" lon="9.9073683"><ele>227.33333333333334</ele><time>2026-04-25T09:17:25.229Z</time></trkpt><trkpt lat="45.64146" lon="9.9074767"><ele>227.16666666666669</ele><time>2026-04-25T09:17:26.228Z</time></trkpt><trkpt lat="45.6414883" lon="9.90759"><ele>227.0</ele><time>2026-04-25T09:17:27.23Z</time></trkpt><trkpt lat="45.6415117" lon="9.9077067"><ele>227.33333333333334</ele><time>2026-04-25T09:17:28.229Z</time></trkpt><trkpt lat="45.6415367" lon="9.9078183"><ele>227.66666666666669</ele><time>2026-04-25T09:17:29.229Z</time></trkpt><trkpt lat="45.64156" lon="9.907925"><ele>228.0</ele><time>2026-04-25T09:17:30.228Z</time></trkpt><trkpt lat="45.6415867" lon="9.9080217"><ele>228.33333333333331</ele><time>2026-04-25T09:17:31.238Z</time></trkpt><trkpt lat="45.64162" lon="9.9081067"><ele>228.66666666666666</ele><time>2026-04-25T09:17:32.232Z</time></trkpt><trkpt lat="45.641665" lon="9.90817"><ele>229.0</ele><time>2026-04-25T09:17:33.229Z</time></trkpt><trkpt lat="45.64175" lon="9.9082633"><ele>229.0</ele><time>2026-04-25T09:17:35.229Z</time></trkpt><trkpt lat="45.6418617" lon="9.9083667"><ele>228.99999999999997</ele><time>2026-04-25T09:17:37.23Z</time></trkpt><trkpt lat="45.6419317" lon="9.908405"><ele>228.99999999999997</ele><time>2026-04-25T09:17:38.228Z</time></trkpt><trkpt lat="45.64201" lon="9.908415"><ele>229.0</ele><time>2026-04-25T09:17:39.229Z</time></trkpt><trkpt lat="45.6420933" lon="9.9084133"><ele>229.0</ele><time>2026-04-25T09:17:40.227Z</time></trkpt><trkpt lat="45.642175" lon="9.9084217"><ele>228.99999999999997</ele><time>2026-04-25T09:17:41.229Z</time></trkpt><trkpt lat="45.6422567" lon="9.9084483"><ele>229.0</ele><time>2026-04-25T09:17:42.231Z</time></trkpt><trkpt lat="45.6423383" lon="9.9084867"><ele>229.0</ele><time>2026-04-25T09:17:43.228Z</time></trkpt><trkpt lat="45.642405" lon="9.908525"><ele>229.0</ele><time>2026-04-25T09:17:44.229Z</time></trkpt><trkpt lat="45.6425017" lon="9.9085733"><ele>228.99999999999997</ele><time>2026-04-25T09:17:46.23Z</time></trkpt><trkpt lat="45.6426" lon="9.9085433"><ele>229.0</ele><time>2026-04-25T09:22:12.227Z</time></trkpt><trkpt lat="45.6426767" lon="9.9085317"><ele>229.2</ele><time>2026-04-25T09:22:28.228Z</time></trkpt><trkpt lat="45.6428167" lon="9.908565"><ele>229.39999999999998</ele><time>2026-04-25T09:22:30.228Z</time></trkpt><trkpt lat="45.642905" lon="9.9085933"><ele>229.6</ele><time>2026-04-25T09:22:31.227Z</time></trkpt><trkpt lat="45.6430033" lon="9.90863"><ele>229.8</ele><time>2026-04-25T09:22:32.228Z</time></trkpt><trkpt lat="45.6431033" lon="9.9086667"><ele>230.0</ele><time>2026-04-25T09:22:33.228Z</time></trkpt><trkpt lat="45.64321" lon="9.908705"><ele>230.0</ele><time>2026-04-25T09:22:34.227Z</time></trkpt><trkpt lat="45.6433183" lon="9.908745"><ele>230.0</ele><time>2026-04-25T09:22:35.23Z</time></trkpt><trkpt lat="45.6434283" lon="9.90878"><ele>230.0</ele><time>2026-04-25T09:22:36.228Z</time></trkpt><trkpt lat="45.64354" lon="9.9088183"><ele>230.0</ele><time>2026-04-25T09:22:37.227Z</time></trkpt><trkpt lat="45.6436467" lon="9.908855"><ele>230.0</ele><time>2026-04-25T09:22:38.229Z</time></trkpt><trkpt lat="45.6437567" lon="9.90889"><ele>230.5</ele><time>2026-04-25T09:22:39.229Z</time></trkpt><trkpt lat="45.643875" lon="9.9089267"><ele>231.0</ele><time>2026-04-25T09:22:40.23Z</time></trkpt><trkpt lat="45.6439967" lon="9.9089617"><ele>231.5</ele><time>2026-04-25T09:22:41.228Z</time></trkpt><trkpt lat="45.6441117" lon="9.908995"><ele>232.0</ele><time>2026-04-25T09:22:42.228Z</time></trkpt><trkpt lat="45.64422" lon="9.9090283"><ele>232.0</ele><time>2026-04-25T09:22:43.229Z</time></trkpt><trkpt lat="45.6443217" lon="9.9090617"><ele>232.0</ele><time>2026-04-25T09:22:44.228Z</time></trkpt><trkpt lat="45.6444117" lon="9.90909"><ele>232.0</ele><time>2026-04-25T09:22:45.229Z</time></trkpt><trkpt lat="45.6445033" lon="9.909115"><ele>232.0</ele><time>2026-04-25T09:22:46.228Z</time></trkpt><trkpt lat="45.6446017" lon="9.909145"><ele>232.0</ele><time>2026-04-25T09:22:47.228Z</time></trkpt><trkpt lat="45.6447033" lon="9.9091733"><ele>232.0</ele><time>2026-04-25T09:22:48.228Z</time></trkpt><trkpt lat="45.64481" lon="9.9092033"><ele>232.0</ele><time>2026-04-25T09:22:49.228Z</time></trkpt><trkpt lat="45.64492" lon="9.9092317"><ele>232.0</ele><time>2026-04-25T09:22:50.229Z</time></trkpt><trkpt lat="45.6450283" lon="9.9092617"><ele>232.0</ele><time>2026-04-25T09:22:51.228Z</time></trkpt><trkpt lat="45.6451333" lon="9.909295"><ele>232.0</ele><time>2026-04-25T09:22:52.228Z</time></trkpt><trkpt lat="45.645225" lon="9.9093217"><ele>231.66666666666666</ele><time>2026-04-25T09:22:53.228Z</time></trkpt><trkpt lat="45.645295" lon="9.909345"><ele>231.33333333333331</ele><time>2026-04-25T09:22:54.228Z</time></trkpt><trkpt lat="45.6453733" lon="9.90938"><ele>231.0</ele><time>2026-04-25T09:22:56.236Z</time></trkpt><trkpt lat="45.6454417" lon="9.9093983"><ele>230.66666666666669</ele><time>2026-04-25T09:23:52.232Z</time></trkpt><trkpt lat="45.645575" lon="9.909425"><ele>230.33333333333334</ele><time>2026-04-25T09:23:54.23Z</time></trkpt><trkpt lat="45.64566" lon="9.909445"><ele>230.0</ele><time>2026-04-25T09:23:55.228Z</time></trkpt><trkpt lat="45.6457533" lon="9.9094683"><ele>231.0</ele><time>2026-04-25T09:23:56.229Z</time></trkpt><trkpt lat="45.6458567" lon="9.9094967"><ele>232.0</ele><time>2026-04-25T09:23:57.23Z</time></trkpt><trkpt lat="45.6459717" lon="9.90953"><ele>233.0</ele><time>2026-04-25T09:23:58.228Z</time></trkpt><trkpt lat="45.6460983" lon="9.9095667"><ele>234.0</ele><time>2026-04-25T09:23:59.228Z</time></trkpt><trkpt lat="45.646225" lon="9.9096067"><ele>234.5</ele><time>2026-04-25T09:24:00.229Z</time></trkpt><trkpt lat="45.6463467" lon="9.9096433"><ele>235.0</ele><time>2026-04-25T09:24:01.228Z</time></trkpt><trkpt lat="45.6464683" lon="9.90968"><ele>235.5</ele><time>2026-04-25T09:24:02.228Z</time></trkpt><trkpt lat="45.6465867" lon="9.9097117"><ele>236.0</ele><time>2026-04-25T09:24:03.23Z</time></trkpt><trkpt lat="45.6467033" lon="9.9097267"><ele>236.0</ele><time>2026-04-25T09:24:04.229Z</time></trkpt><trkpt lat="45.6468183" lon="9.9097267"><ele>236.0</ele><time>2026-04-25T09:24:05.228Z</time></trkpt><trkpt lat="45.6469383" lon="9.9097183"><ele>236.0</ele><time>2026-04-25T09:24:06.229Z</time></trkpt><trkpt lat="45.6470583" lon="9.909705"><ele>236.0</ele><time>2026-04-25T09:24:07.23Z</time></trkpt><trkpt lat="45.6471817" lon="9.909685"><ele>236.0</ele><time>2026-04-25T09:24:08.228Z</time></trkpt><trkpt lat="45.6473033" lon="9.9096617"><ele>236.0</ele><time>2026-04-25T09:24:09.231Z</time></trkpt><trkpt lat="45.6474267" lon="9.9096433"><ele>236.0</ele><time>2026-04-25T09:24:10.228Z</time></trkpt><trkpt lat="45.6475517" lon="9.90962"><ele>236.0</ele><time>2026-04-25T09:24:11.228Z</time></trkpt><trkpt lat="45.647685" lon="9.9095967"><ele>236.75</ele><time>2026-04-25T09:24:12.229Z</time></trkpt><trkpt lat="45.64782" lon="9.909565"><ele>237.5</ele><time>2026-04-25T09:24:13.228Z</time></trkpt><trkpt lat="45.647955" lon="9.9095367"><ele>238.25</ele><time>2026-04-25T09:24:14.227Z</time></trkpt><trkpt lat="45.64809" lon="9.909505"><ele>239.0</ele><time>2026-04-25T09:24:15.228Z</time></trkpt><trkpt lat="45.6482333" lon="9.909475"><ele>239.0</ele><time>2026-04-25T09:24:16.227Z</time></trkpt><trkpt lat="45.64838" lon="9.9094383"><ele>239.0</ele><time>2026-04-25T09:24:17.226Z</time></trkpt><trkpt lat="45.6485283" lon="9.9094017"><ele>239.0</ele><time>2026-04-25T09:24:18.228Z</time></trkpt><trkpt lat="45.6486767" lon="9.9093667"><ele>239.5</ele><time>2026-04-25T09:24:19.229Z</time></trkpt><trkpt lat="45.648815" lon="9.9093333"><ele>240.0</ele><time>2026-04-25T09:24:20.229Z</time></trkpt><trkpt lat="45.6489433" lon="9.9093033"><ele>240.5</ele><time>2026-04-25T09:24:21.229Z</time></trkpt><trkpt lat="45.6490633" lon="9.909275"><ele>241.0</ele><time>2026-04-25T09:24:22.228Z</time></trkpt><trkpt lat="45.64918" lon="9.90925"><ele>241.0</ele><time>2026-04-25T09:24:23.232Z</time></trkpt><trkpt lat="45.6492967" lon="9.90924"><ele>241.0</ele><time>2026-04-25T09:24:24.229Z</time></trkpt><trkpt lat="45.64941" lon="9.90925"><ele>241.0</ele><time>2026-04-25T09:24:25.227Z</time></trkpt><trkpt lat="45.6495217" lon="9.9092867"><ele>241.0</ele><time>2026-04-25T09:24:26.227Z</time></trkpt><trkpt lat="45.6496267" lon="9.9093533"><ele>242.8</ele><time>2026-04-25T09:24:27.228Z</time></trkpt><trkpt lat="45.64971" lon="9.9094517"><ele>244.60000000000002</ele><time>2026-04-25T09:24:28.228Z</time></trkpt><trkpt lat="45.6497683" lon="9.9095683"><ele>246.4</ele><time>2026-04-25T09:24:29.228Z</time></trkpt><trkpt lat="45.6498067" lon="9.909695"><ele>248.2</ele><time>2026-04-25T09:24:30.228Z</time></trkpt><trkpt lat="45.6498167" lon="9.909825"><ele>250.0</ele><time>2026-04-25T09:24:31.228Z</time></trkpt><trkpt lat="45.6498117" lon="9.90996"><ele>249.0</ele><time>2026-04-25T09:24:32.228Z</time></trkpt><trkpt lat="45.649795" lon="9.9100967"><ele>248.0</ele><time>2026-04-25T09:24:33.239Z</time></trkpt><trkpt lat="45.6497817" lon="9.9102317"><ele>247.0</ele><time>2026-04-25T09:24:34.227Z</time></trkpt><trkpt lat="45.6497883" lon="9.910355"><ele>246.0</ele><time>2026-04-25T09:24:35.227Z</time></trkpt><trkpt lat="45.6498133" lon="9.9104783"><ele>245.0</ele><time>2026-04-25T09:24:36.227Z</time></trkpt><trkpt lat="45.6498467" lon="9.910595"><ele>245.0</ele><time>2026-04-25T09:24:37.227Z</time></trkpt><trkpt lat="45.64988" lon="9.910695"><ele>245.0</ele><time>2026-04-25T09:24:38.229Z</time></trkpt><trkpt lat="45.649935" lon="9.9107983"><ele>245.0</ele><time>2026-04-25T09:24:39.227Z</time></trkpt><trkpt lat="45.650005" lon="9.9109"><ele>245.0</ele><time>2026-04-25T09:24:40.228Z</time></trkpt><trkpt lat="45.65009" lon="9.9109967"><ele>245.0</ele><time>2026-04-25T09:24:41.227Z</time></trkpt><trkpt lat="45.65018" lon="9.9110883"><ele>246.0</ele><time>2026-04-25T09:24:42.228Z</time></trkpt><trkpt lat="45.65028" lon="9.9111717"><ele>247.0</ele><time>2026-04-25T09:24:43.227Z</time></trkpt><trkpt lat="45.6503833" lon="9.91126"><ele>248.0</ele><time>2026-04-25T09:24:44.229Z</time></trkpt><trkpt lat="45.6504867" lon="9.9113467"><ele>249.0</ele><time>2026-04-25T09:24:45.229Z</time></trkpt><trkpt lat="45.6505883" lon="9.91143"><ele>249.0</ele><time>2026-04-25T09:24:46.229Z</time></trkpt><trkpt lat="45.65069" lon="9.91151"><ele>249.0</ele><time>2026-04-25T09:24:47.229Z</time></trkpt><trkpt lat="45.6507883" lon="9.91159"><ele>249.0</ele><time>2026-04-25T09:24:48.231Z</time></trkpt><trkpt lat="45.6508833" lon="9.9116717"><ele>249.0</ele><time>2026-04-25T09:24:49.231Z</time></trkpt><trkpt lat="45.6509833" lon="9.9117583"><ele>249.25</ele><time>2026-04-25T09:24:50.231Z</time></trkpt><trkpt lat="45.651085" lon="9.91185"><ele>249.5</ele><time>2026-04-25T09:24:51.23Z</time></trkpt><trkpt lat="45.651185" lon="9.9119483"><ele>249.75</ele><time>2026-04-25T09:24:52.23Z</time></trkpt><trkpt lat="45.6512783" lon="9.9120567"><ele>250.0</ele><time>2026-04-25T09:24:53.229Z</time></trkpt><trkpt lat="45.651365" lon="9.91217"><ele>250.0</ele><time>2026-04-25T09:24:54.233Z</time></trkpt><trkpt lat="45.6514533" lon="9.9122817"><ele>250.0</ele><time>2026-04-25T09:24:55.229Z</time></trkpt><trkpt lat="45.6515433" lon="9.9123933"><ele>250.0</ele><time>2026-04-25T09:24:56.229Z</time></trkpt><trkpt lat="45.65163" lon="9.9125033"><ele>250.0</ele><time>2026-04-25T09:24:57.229Z</time></trkpt><trkpt lat="45.6517167" lon="9.9126083"><ele>247.4</ele><time>2026-04-25T09:24:58.229Z</time></trkpt><trkpt lat="45.6518017" lon="9.91271"><ele>244.8</ele><time>2026-04-25T09:24:59.23Z</time></trkpt><trkpt lat="45.651885" lon="9.912815"><ele>242.2</ele><time>2026-04-25T09:25:00.229Z</time></trkpt><trkpt lat="45.6519617" lon="9.91293"><ele>239.6</ele><time>2026-04-25T09:25:01.229Z</time></trkpt><trkpt lat="45.6520233" lon="9.9130583"><ele>237.0</ele><time>2026-04-25T09:25:02.227Z</time></trkpt><trkpt lat="45.6520633" lon="9.9131833"><ele>239.83333333333334</ele><time>2026-04-25T09:25:03.229Z</time></trkpt><trkpt lat="45.6520867" lon="9.913285"><ele>242.66666666666669</ele><time>2026-04-25T09:25:04.228Z</time></trkpt><trkpt lat="45.6521233" lon="9.9134317"><ele>245.5</ele><time>2026-04-25T09:25:06.227Z</time></trkpt><trkpt lat="45.65217" lon="9.9135667"><ele>248.33333333333334</ele><time>2026-04-25T09:25:08.229Z</time></trkpt><trkpt lat="45.6522" lon="9.9136583"><ele>251.16666666666669</ele><time>2026-04-25T09:25:09.229Z</time></trkpt><trkpt lat="45.6522333" lon="9.9137633"><ele>254.0</ele><time>2026-04-25T09:25:10.229Z</time></trkpt><trkpt lat="45.6522583" lon="9.9138517"><ele>254.00000000000003</ele><time>2026-04-25T09:25:11.227Z</time></trkpt><trkpt lat="45.6523067" lon="9.9139683"><ele>254.0</ele><time>2026-04-25T09:25:13.228Z</time></trkpt><trkpt lat="45.6523417" lon="9.9140467"><ele>254.0</ele><time>2026-04-25T09:25:14.229Z</time></trkpt><trkpt lat="45.6523817" lon="9.9141467"><ele>254.0</ele><time>2026-04-25T09:25:15.228Z</time></trkpt><trkpt lat="45.652435" lon="9.9142617"><ele>254.00000000000003</ele><time>2026-04-25T09:25:16.228Z</time></trkpt><trkpt lat="45.6524967" lon="9.9143883"><ele>254.0</ele><time>2026-04-25T09:25:17.229Z</time></trkpt><trkpt lat="45.6525583" lon="9.9145283"><ele>253.0</ele><time>2026-04-25T09:25:18.23Z</time></trkpt><trkpt lat="45.6526167" lon="9.91467"><ele>251.99999999999997</ele><time>2026-04-25T09:25:19.23Z</time></trkpt><trkpt lat="45.6526767" lon="9.9148083"><ele>250.99999999999997</ele><time>2026-04-25T09:25:20.229Z</time></trkpt><trkpt lat="45.652735" lon="9.914945"><ele>250.0</ele><time>2026-04-25T09:25:21.229Z</time></trkpt><trkpt lat="45.6527867" lon="9.9150717"><ele>249.0</ele><time>2026-04-25T09:25:22.228Z</time></trkpt><trkpt lat="45.652835" lon="9.9151883"><ele>249.0</ele><time>2026-04-25T09:25:23.228Z</time></trkpt><trkpt lat="45.65288" lon="9.9152883"><ele>249.0</ele><time>2026-04-25T09:25:24.228Z</time></trkpt><trkpt lat="45.65292" lon="9.91538"><ele>249.0</ele><time>2026-04-25T09:25:25.229Z</time></trkpt><trkpt lat="45.6529533" lon="9.9154617"><ele>249.0</ele><time>2026-04-25T09:25:26.227Z</time></trkpt><trkpt lat="45.65301" lon="9.9155783"><ele>249.0</ele><time>2026-04-25T09:25:28.229Z</time></trkpt><trkpt lat="45.6530617" lon="9.915665"><ele>249.0</ele><time>2026-04-25T09:25:30.23Z</time></trkpt><trkpt lat="45.6531183" lon="9.915765"><ele>249.0</ele><time>2026-04-25T09:25:32.229Z</time></trkpt><trkpt lat="45.653205" lon="9.9159017"><ele>249.0</ele><time>2026-04-25T09:25:34.23Z</time></trkpt><trkpt lat="45.6532533" lon="9.9159717"><ele>249.0</ele><time>2026-04-25T09:25:35.228Z</time></trkpt><trkpt lat="45.653305" lon="9.91604"><ele>249.0</ele><time>2026-04-25T09:25:36.228Z</time></trkpt><trkpt lat="45.6533567" lon="9.916105"><ele>249.0</ele><time>2026-04-25T09:25:37.23Z</time></trkpt><trkpt lat="45.6534367" lon="9.9161983"><ele>249.0</ele><time>2026-04-25T09:25:39.229Z</time></trkpt><trkpt lat="45.653495" lon="9.9162633"><ele>247.83333333333334</ele><time>2026-04-25T09:25:41.228Z</time></trkpt><trkpt lat="45.6535783" lon="9.91636"><ele>246.66666666666669</ele><time>2026-04-25T09:25:43.229Z</time></trkpt><trkpt lat="45.6536283" lon="9.9164283"><ele>245.5</ele><time>2026-04-25T09:25:44.231Z</time></trkpt><trkpt lat="45.6536717" lon="9.9165067"><ele>244.33333333333334</ele><time>2026-04-25T09:25:45.229Z</time></trkpt><trkpt lat="45.6537083" lon="9.9165917"><ele>243.16666666666669</ele><time>2026-04-25T09:25:46.229Z</time></trkpt><trkpt lat="45.6537367" lon="9.91668"><ele>242.0</ele><time>2026-04-25T09:25:47.23Z</time></trkpt><trkpt lat="45.65376" lon="9.91677"><ele>245.50000000000003</ele><time>2026-04-25T09:25:48.228Z</time></trkpt><trkpt lat="45.6537767" lon="9.91686"><ele>249.0</ele><time>2026-04-25T09:25:49.231Z</time></trkpt><trkpt lat="45.6537817" lon="9.9169533"><ele>252.5</ele><time>2026-04-25T09:25:50.227Z</time></trkpt><trkpt lat="45.6537767" lon="9.9171"><ele>256.0</ele><time>2026-04-25T09:25:52.227Z</time></trkpt><trkpt lat="45.6537733" lon="9.91722"><ele>259.5</ele><time>2026-04-25T09:25:54.228Z</time></trkpt><trkpt lat="45.65378" lon="9.9173517"><ele>263.0</ele><time>2026-04-25T09:25:56.228Z</time></trkpt><trkpt lat="45.65378" lon="9.9175217"><ele>261.5</ele><time>2026-04-25T09:25:58.228Z</time></trkpt><trkpt lat="45.6537783" lon="9.91762"><ele>260.0</ele><time>2026-04-25T09:25:59.228Z</time></trkpt><trkpt lat="45.6537783" lon="9.9177233"><ele>258.5</ele><time>2026-04-25T09:26:00.23Z</time></trkpt><trkpt lat="45.65378" lon="9.91783"><ele>257.0</ele><time>2026-04-25T09:26:01.228Z</time></trkpt><trkpt lat="45.6537817" lon="9.9179417"><ele>255.50000000000003</ele><time>2026-04-25T09:26:02.227Z</time></trkpt><trkpt lat="45.6537883" lon="9.918055"><ele>254.0</ele><time>2026-04-25T09:26:03.228Z</time></trkpt><trkpt lat="45.6537917" lon="9.918175"><ele>254.00000000000003</ele><time>2026-04-25T09:26:04.229Z</time></trkpt><trkpt lat="45.6537933" lon="9.9182917"><ele>254.0</ele><time>2026-04-25T09:26:05.228Z</time></trkpt><trkpt lat="45.653795" lon="9.9184083"><ele>254.0</ele><time>2026-04-25T09:26:06.228Z</time></trkpt><trkpt lat="45.6537983" lon="9.9185283"><ele>254.0</ele><time>2026-04-25T09:26:07.232Z</time></trkpt><trkpt lat="45.6538017" lon="9.918635"><ele>254.00000000000003</ele><time>2026-04-25T09:26:08.229Z</time></trkpt><trkpt lat="45.65382" lon="9.9187917"><ele>254.0</ele><time>2026-04-25T09:26:10.228Z</time></trkpt><trkpt lat="45.653855" lon="9.9189333"><ele>252.39999999999998</ele><time>2026-04-25T09:26:12.228Z</time></trkpt><trkpt lat="45.6539017" lon="9.9190633"><ele>250.79999999999998</ele><time>2026-04-25T09:26:14.228Z</time></trkpt><trkpt lat="45.65396" lon="9.919185"><ele>249.20000000000002</ele><time>2026-04-25T09:26:16.227Z</time></trkpt><trkpt lat="45.6540167" lon="9.91929"><ele>247.60000000000002</ele><time>2026-04-25T09:26:18.229Z</time></trkpt><trkpt lat="45.6540633" lon="9.9193717"><ele>246.0</ele><time>2026-04-25T09:26:21.231Z</time></trkpt><trkpt lat="45.654125" lon="9.91947"><ele>246.5</ele><time>2026-04-25T09:26:24.227Z</time></trkpt><trkpt lat="45.6542067" lon="9.9195917"><ele>247.0</ele><time>2026-04-25T09:26:26.227Z</time></trkpt><trkpt lat="45.654255" lon="9.9196617"><ele>247.5</ele><time>2026-04-25T09:26:27.228Z</time></trkpt><trkpt lat="45.654305" lon="9.91973"><ele>248.0</ele><time>2026-04-25T09:26:28.228Z</time></trkpt><trkpt lat="45.6543683" lon="9.9198067"><ele>248.5</ele><time>2026-04-25T09:26:29.23Z</time></trkpt><trkpt lat="45.6544483" lon="9.9198867"><ele>249.0</ele><time>2026-04-25T09:26:30.227Z</time></trkpt><trkpt lat="45.654545" lon="9.9199867"><ele>245.66666666666666</ele><time>2026-04-25T09:26:31.229Z</time></trkpt><trkpt lat="45.6546367" lon="9.9200883"><ele>242.33333333333331</ele><time>2026-04-25T09:26:32.228Z</time></trkpt><trkpt lat="45.6547067" lon="9.9201717"><ele>239.0</ele><time>2026-04-25T09:26:33.229Z</time></trkpt><trkpt lat="45.654755" lon="9.920235"><ele>235.66666666666666</ele><time>2026-04-25T09:26:34.227Z</time></trkpt><trkpt lat="45.6548133" lon="9.9203"><ele>232.33333333333331</ele><time>2026-04-25T09:26:37.228Z</time></trkpt><trkpt lat="45.6548717" lon="9.92037"><ele>229.0</ele><time>2026-04-25T09:26:41.228Z</time></trkpt><trkpt lat="45.65495" lon="9.9204967"><ele>228.99999999999997</ele><time>2026-04-25T09:26:43.228Z</time></trkpt><trkpt lat="45.6549967" lon="9.92058"><ele>229.0</ele><time>2026-04-25T09:26:44.228Z</time></trkpt><trkpt lat="45.6550333" lon="9.9206533"><ele>229.0</ele><time>2026-04-25T09:26:45.228Z</time></trkpt><trkpt lat="45.6551" lon="9.9207483"><ele>229.0</ele><time>2026-04-25T09:27:39.231Z</time></trkpt><trkpt lat="45.655175" lon="9.920875"><ele>228.99999999999997</ele><time>2026-04-25T09:27:41.228Z</time></trkpt><trkpt lat="45.6552117" lon="9.9209617"><ele>229.0</ele><time>2026-04-25T09:27:42.227Z</time></trkpt><trkpt lat="45.6552683" lon="9.921085"><ele>231.2</ele><time>2026-04-25T09:27:44.228Z</time></trkpt><trkpt lat="45.6553217" lon="9.9211633"><ele>233.39999999999998</ele><time>2026-04-25T09:27:47.23Z</time></trkpt><trkpt lat="45.6553767" lon="9.9212317"><ele>235.6</ele><time>2026-04-25T09:27:49.229Z</time></trkpt><trkpt lat="45.6554417" lon="9.9213417"><ele>237.8</ele><time>2026-04-25T09:27:51.229Z</time></trkpt><trkpt lat="45.6555033" lon="9.9214483"><ele>240.0</ele><time>2026-04-25T09:27:53.23Z</time></trkpt><trkpt lat="45.6555717" lon="9.9215667"><ele>240.0</ele><time>2026-04-25T09:28:04.228Z</time></trkpt><trkpt lat="45.6556433" lon="9.9217033"><ele>240.0</ele><time>2026-04-25T09:28:06.228Z</time></trkpt><trkpt lat="45.6556867" lon="9.9217933"><ele>240.0</ele><time>2026-04-25T09:28:08.23Z</time></trkpt><trkpt lat="45.6557517" lon="9.92189"><ele>240.0</ele><time>2026-04-25T09:28:21.228Z</time></trkpt><trkpt lat="45.655825" lon="9.9220367"><ele>240.0</ele><time>2026-04-25T09:28:23.229Z</time></trkpt><trkpt lat="45.6558833" lon="9.9221583"><ele>238.33333333333334</ele><time>2026-04-25T09:28:25.23Z</time></trkpt><trkpt lat="45.6559217" lon="9.922235"><ele>236.66666666666669</ele><time>2026-04-25T09:28:28.228Z</time></trkpt><trkpt lat="45.65597" lon="9.9223283"><ele>235.0</ele><time>2026-04-25T09:28:31.228Z</time></trkpt><trkpt lat="45.6560083" lon="9.9224133"><ele>233.33333333333334</ele><time>2026-04-25T09:28:33.229Z</time></trkpt><trkpt lat="45.6560467" lon="9.922485"><ele>231.66666666666669</ele><time>2026-04-25T09:28:36.228Z</time></trkpt><trkpt lat="45.6561017" lon="9.9225633"><ele>230.0</ele><time>2026-04-25T09:28:38.228Z</time></trkpt><trkpt lat="45.656175" lon="9.922685"><ele>230.0</ele><time>2026-04-25T09:28:40.227Z</time></trkpt><trkpt lat="45.6562283" lon="9.9227683"><ele>230.0</ele><time>2026-04-25T09:28:42.227Z</time></trkpt><trkpt lat="45.6562883" lon="9.9228767"><ele>230.0</ele><time>2026-04-25T09:28:45.229Z</time></trkpt><trkpt lat="45.656325" lon="9.9229933"><ele>230.0</ele><time>2026-04-25T09:28:47.228Z</time></trkpt><trkpt lat="45.6563667" lon="9.923125"><ele>230.0</ele><time>2026-04-25T09:28:49.23Z</time></trkpt><trkpt lat="45.6564383" lon="9.9232233"><ele>230.0</ele><time>2026-04-25T09:28:51.228Z</time></trkpt><trkpt lat="45.6565233" lon="9.9232917"><ele>230.0</ele><time>2026-04-25T09:28:53.229Z</time></trkpt><trkpt lat="45.6565983" lon="9.9233517"><ele>230.0</ele><time>2026-04-25T09:28:55.228Z</time></trkpt><trkpt lat="45.6566667" lon="9.923425"><ele>230.0</ele><time>2026-04-25T09:28:57.23Z</time></trkpt><trkpt lat="45.656735" lon="9.9235183"><ele>230.0</ele><time>2026-04-25T09:28:59.228Z</time></trkpt><trkpt lat="45.6568067" lon="9.9236317"><ele>230.66666666666669</ele><time>2026-04-25T09:29:01.229Z</time></trkpt><trkpt lat="45.6568683" lon="9.9237167"><ele>231.33333333333334</ele><time>2026-04-25T09:29:03.228Z</time></trkpt><trkpt lat="45.656935" lon="9.92381"><ele>232.0</ele><time>2026-04-25T09:29:05.228Z</time></trkpt><trkpt lat="45.6569917" lon="9.9238883"><ele>232.66666666666669</ele><time>2026-04-25T09:29:07.229Z</time></trkpt><trkpt lat="45.657045" lon="9.9239667"><ele>233.33333333333334</ele><time>2026-04-25T09:29:11.231Z</time></trkpt><trkpt lat="45.6570933" lon="9.9240367"><ele>234.0</ele><time>2026-04-25T09:29:17.228Z</time></trkpt><trkpt lat="45.6571533" lon="9.92413"><ele>234.0</ele><time>2026-04-25T09:29:29.229Z</time></trkpt></trkseg><trkseg><trkpt lat="45.6714367" lon="9.94769"><ele>210.0</ele><time>2026-04-25T09:35:34.229Z</time></trkpt><trkpt lat="45.6715083" lon="9.9476417"><ele>210.0</ele><time>2026-04-25T09:35:37.229Z</time></trkpt><trkpt lat="45.6714283" lon="9.9476467"><ele>210.0</ele><time>2026-04-25T09:36:03.228Z</time></trkpt><trkpt lat="45.6714283" lon="9.9477433"><ele>210.0</ele><time>2026-04-25T09:37:53.227Z</time></trkpt><trkpt lat="45.67139" lon="9.9479267"><ele>210.0</ele><time>2026-04-25T09:37:55.229Z</time></trkpt><trkpt lat="45.67136" lon="9.9480483"><ele>210.0</ele><time>2026-04-25T09:37:56.234Z</time></trkpt><trkpt lat="45.67133" lon="9.9481583"><ele>210.0</ele><time>2026-04-25T09:37:57.229Z</time></trkpt><trkpt lat="45.6713117" lon="9.948255"><ele>210.0</ele><time>2026-04-25T09:37:58.228Z</time></trkpt><trkpt lat="45.6712933" lon="9.948345"><ele>210.0</ele><time>2026-04-25T09:37:59.227Z</time></trkpt><trkpt lat="45.671265" lon="9.948505"><ele>210.0</ele><time>2026-04-25T09:38:01.228Z</time></trkpt><trkpt lat="45.6712417" lon="9.9486283"><ele>210.0</ele><time>2026-04-25T09:38:03.229Z</time></trkpt><trkpt lat="45.67122" lon="9.94875"><ele>209.5</ele><time>2026-04-25T09:38:06.24Z</time></trkpt><trkpt lat="45.67119" lon="9.9488667"><ele>209.0</ele><time>2026-04-25T09:38:09.234Z</time></trkpt><trkpt lat="45.6711717" lon="9.9489767"><ele>208.5</ele><time>2026-04-25T09:38:11.231Z</time></trkpt><trkpt lat="45.6711583" lon="9.9491"><ele>208.0</ele><time>2026-04-25T09:38:13.228Z</time></trkpt><trkpt lat="45.671145" lon="9.9492367"><ele>207.5</ele><time>2026-04-25T09:38:15.232Z</time></trkpt><trkpt lat="45.671135" lon="9.94937"><ele>207.0</ele><time>2026-04-25T09:38:17.228Z</time></trkpt><trkpt lat="45.67113" lon="9.9495017"><ele>207.0</ele><time>2026-04-25T09:38:19.228Z</time></trkpt><trkpt lat="45.6711217" lon="9.94963"><ele>207.0</ele><time>2026-04-25T09:38:21.229Z</time></trkpt><trkpt lat="45.6711183" lon="9.949775"><ele>207.0</ele><time>2026-04-25T09:38:23.229Z</time></trkpt><trkpt lat="45.67112" lon="9.9498767"><ele>207.0</ele><time>2026-04-25T09:38:24.228Z</time></trkpt><trkpt lat="45.671125" lon="9.95"><ele>207.0</ele><time>2026-04-25T09:38:25.227Z</time></trkpt><trkpt lat="45.6711267" lon="9.95014"><ele>207.0</ele><time>2026-04-25T09:38:26.228Z</time></trkpt><trkpt lat="45.671125" lon="9.950285"><ele>206.8</ele><time>2026-04-25T09:38:27.228Z</time></trkpt><trkpt lat="45.6711233" lon="9.95044"><ele>206.6</ele><time>2026-04-25T09:38:28.229Z</time></trkpt><trkpt lat="45.6711183" lon="9.9505983"><ele>206.4</ele><time>2026-04-25T09:38:29.23Z</time></trkpt><trkpt lat="45.671115" lon="9.950755"><ele>206.20000000000002</ele><time>2026-04-25T09:38:30.232Z</time></trkpt><trkpt lat="45.6711117" lon="9.9509017"><ele>206.0</ele><time>2026-04-25T09:38:31.231Z</time></trkpt><trkpt lat="45.6711067" lon="9.9510467"><ele>206.00000000000003</ele><time>2026-04-25T09:38:32.23Z</time></trkpt><trkpt lat="45.6711033" lon="9.9511817"><ele>206.0</ele><time>2026-04-25T09:38:33.23Z</time></trkpt><trkpt lat="45.6711017" lon="9.9513033"><ele>206.0</ele><time>2026-04-25T09:38:34.232Z</time></trkpt><trkpt lat="45.6711017" lon="9.9514133"><ele>206.0</ele><time>2026-04-25T09:38:35.23Z</time></trkpt><trkpt lat="45.671105" lon="9.95151"><ele>206.00000000000003</ele><time>2026-04-25T09:38:36.23Z</time></trkpt><trkpt lat="45.6711017" lon="9.9516683"><ele>206.0</ele><time>2026-04-25T09:38:38.23Z</time></trkpt><trkpt lat="45.6710933" lon="9.9517933"><ele>206.0</ele><time>2026-04-25T09:38:40.23Z</time></trkpt><trkpt lat="45.6710733" lon="9.9518983"><ele>206.0</ele><time>2026-04-25T09:38:42.229Z</time></trkpt><trkpt lat="45.6710333" lon="9.9519917"><ele>206.0</ele><time>2026-04-25T09:38:44.229Z</time></trkpt><trkpt lat="45.67096" lon="9.9520867"><ele>206.0</ele><time>2026-04-25T09:38:46.229Z</time></trkpt><trkpt lat="45.6709067" lon="9.9522017"><ele>206.0</ele><time>2026-04-25T09:38:48.229Z</time></trkpt><trkpt lat="45.6709217" lon="9.9523467"><ele>206.0</ele><time>2026-04-25T09:38:50.232Z</time></trkpt><trkpt lat="45.6710083" lon="9.9524817"><ele>206.0</ele><time>2026-04-25T09:38:52.228Z</time></trkpt><trkpt lat="45.6710467" lon="9.9525667"><ele>206.0</ele><time>2026-04-25T09:38:53.23Z</time></trkpt><trkpt lat="45.671065" lon="9.9526717"><ele>206.0</ele><time>2026-04-25T09:38:54.229Z</time></trkpt><trkpt lat="45.67107" lon="9.95279"><ele>206.0</ele><time>2026-04-25T09:38:55.228Z</time></trkpt><trkpt lat="45.6710717" lon="9.952925"><ele>205.4</ele><time>2026-04-25T09:38:56.228Z</time></trkpt><trkpt lat="45.67107" lon="9.9530733"><ele>204.8</ele><time>2026-04-25T09:38:57.231Z</time></trkpt><trkpt lat="45.6710667" lon="9.9532283"><ele>204.20000000000002</ele><time>2026-04-25T09:38:58.228Z</time></trkpt><trkpt lat="45.67106" lon="9.9533867"><ele>203.60000000000002</ele><time>2026-04-25T09:38:59.231Z</time></trkpt><trkpt lat="45.67105" lon="9.95354"><ele>203.0</ele><time>2026-04-25T09:39:00.228Z</time></trkpt><trkpt lat="45.6710383" lon="9.9536867"><ele>202.83333333333334</ele><time>2026-04-25T09:39:01.229Z</time></trkpt><trkpt lat="45.6710233" lon="9.9538133"><ele>202.66666666666669</ele><time>2026-04-25T09:39:02.23Z</time></trkpt><trkpt lat="45.6710133" lon="9.953915"><ele>202.5</ele><time>2026-04-25T09:39:03.231Z</time></trkpt><trkpt lat="45.6710033" lon="9.9540067"><ele>202.33333333333331</ele><time>2026-04-25T09:39:04.228Z</time></trkpt><trkpt lat="45.6709967" lon="9.95419"><ele>202.16666666666666</ele><time>2026-04-25T09:39:06.231Z</time></trkpt><trkpt lat="45.6709883" lon="9.9543133"><ele>202.0</ele><time>2026-04-25T09:39:07.229Z</time></trkpt><trkpt lat="45.6709717" lon="9.9544567"><ele>202.0</ele><time>2026-04-25T09:39:08.231Z</time></trkpt><trkpt lat="45.67095" lon="9.9546"><ele>202.0</ele><time>2026-04-25T09:39:09.23Z</time></trkpt><trkpt lat="45.6709167" lon="9.95473"><ele>202.0</ele><time>2026-04-25T09:39:10.229Z</time></trkpt><trkpt lat="45.670865" lon="9.954845"><ele>202.0</ele><time>2026-04-25T09:39:11.229Z</time></trkpt><trkpt lat="45.670805" lon="9.9549433"><ele>202.0</ele><time>2026-04-25T09:39:12.228Z</time></trkpt><trkpt lat="45.670745" lon="9.9550233"><ele>202.0</ele><time>2026-04-25T09:39:13.229Z</time></trkpt><trkpt lat="45.6706617" lon="9.9550867"><ele>202.0</ele><time>2026-04-25T09:39:14.231Z</time></trkpt><trkpt lat="45.6705717" lon="9.9551317"><ele>202.0</ele><time>2026-04-25T09:39:15.228Z</time></trkpt><trkpt lat="45.6704733" lon="9.9551633"><ele>202.0</ele><time>2026-04-25T09:39:16.228Z</time></trkpt><trkpt lat="45.6703733" lon="9.9551883"><ele>202.0</ele><time>2026-04-25T09:39:17.228Z</time></trkpt><trkpt lat="45.6702683" lon="9.9552067"><ele>201.6</ele><time>2026-04-25T09:39:18.228Z</time></trkpt><trkpt lat="45.67016" lon="9.955225"><ele>201.2</ele><time>2026-04-25T09:39:19.228Z</time></trkpt><trkpt lat="45.670045" lon="9.95524"><ele>200.8</ele><time>2026-04-25T09:39:20.229Z</time></trkpt><trkpt lat="45.6699317" lon="9.9552567"><ele>200.4</ele><time>2026-04-25T09:39:21.23Z</time></trkpt><trkpt lat="45.6698267" lon="9.95528"><ele>200.0</ele><time>2026-04-25T09:39:22.229Z</time></trkpt><trkpt lat="45.6697383" lon="9.9553167"><ele>200.00000000000003</ele><time>2026-04-25T09:39:23.228Z</time></trkpt><trkpt lat="45.6696617" lon="9.9553633"><ele>200.0</ele><time>2026-04-25T09:39:24.23Z</time></trkpt><trkpt lat="45.6696" lon="9.9554167"><ele>200.0</ele><time>2026-04-25T09:39:25.228Z</time></trkpt><trkpt lat="45.6695467" lon="9.95547"><ele>200.0</ele><time>2026-04-25T09:39:26.231Z</time></trkpt><trkpt lat="45.6694583" lon="9.9555617"><ele>200.00000000000003</ele><time>2026-04-25T09:39:28.229Z</time></trkpt><trkpt lat="45.66939" lon="9.95563"><ele>200.0</ele><time>2026-04-25T09:39:30.23Z</time></trkpt><trkpt lat="45.6693267" lon="9.9556967"><ele>199.71428571428572</ele><time>2026-04-25T09:39:32.229Z</time></trkpt><trkpt lat="45.6692633" lon="9.9557633"><ele>199.42857142857144</ele><time>2026-04-25T09:39:34.23Z</time></trkpt><trkpt lat="45.6692033" lon="9.9558333"><ele>199.14285714285717</ele><time>2026-04-25T09:39:36.228Z</time></trkpt><trkpt lat="45.66915" lon="9.9559"><ele>198.85714285714286</ele><time>2026-04-25T09:39:38.229Z</time></trkpt><trkpt lat="45.6690983" lon="9.95596"><ele>198.57142857142856</ele><time>2026-04-25T09:39:40.228Z</time></trkpt><trkpt lat="45.669045" lon="9.95602"><ele>198.2857142857143</ele><time>2026-04-25T09:39:42.231Z</time></trkpt><trkpt lat="45.668985" lon="9.9560883"><ele>198.0</ele><time>2026-04-25T09:39:44.229Z</time></trkpt><trkpt lat="45.6689133" lon="9.9561667"><ele>198.0</ele><time>2026-04-25T09:39:46.229Z</time></trkpt><trkpt lat="45.6688383" lon="9.9562583"><ele>198.0</ele><time>2026-04-25T09:39:48.232Z</time></trkpt><trkpt lat="45.6687617" lon="9.95635"><ele>198.0</ele><time>2026-04-25T09:39:50.23Z</time></trkpt><trkpt lat="45.6686817" lon="9.95644"><ele>198.0</ele><time>2026-04-25T09:39:52.229Z</time></trkpt><trkpt lat="45.6685933" lon="9.9565367"><ele>198.0</ele><time>2026-04-25T09:39:54.23Z</time></trkpt><trkpt lat="45.6685" lon="9.956635"><ele>198.0</ele><time>2026-04-25T09:39:56.231Z</time></trkpt><trkpt lat="45.6684217" lon="9.9567167"><ele>198.0</ele><time>2026-04-25T09:39:58.229Z</time></trkpt><trkpt lat="45.6683617" lon="9.9567867"><ele>198.0</ele><time>2026-04-25T09:40:00.231Z</time></trkpt><trkpt lat="45.6683083" lon="9.956855"><ele>198.0</ele><time>2026-04-25T09:40:02.231Z</time></trkpt><trkpt lat="45.6682533" lon="9.9569133"><ele>198.0</ele><time>2026-04-25T09:40:05.227Z</time></trkpt><trkpt lat="45.6682033" lon="9.9569767"><ele>198.0</ele><time>2026-04-25T09:40:07.227Z</time></trkpt><trkpt lat="45.668125" lon="9.9570667"><ele>198.0</ele><time>2026-04-25T09:40:09.228Z</time></trkpt><trkpt lat="45.6680367" lon="9.9571933"><ele>198.0</ele><time>2026-04-25T09:40:11.229Z</time></trkpt><trkpt lat="45.66797" lon="9.957335"><ele>198.0</ele><time>2026-04-25T09:40:13.23Z</time></trkpt><trkpt lat="45.667925" lon="9.9574883"><ele>198.0</ele><time>2026-04-25T09:40:15.23Z</time></trkpt><trkpt lat="45.6678967" lon="9.9576083"><ele>198.0</ele><time>2026-04-25T09:40:17.227Z</time></trkpt><trkpt lat="45.667885" lon="9.9577083"><ele>197.8</ele><time>2026-04-25T09:40:27.227Z</time></trkpt><trkpt lat="45.66786" lon="9.9578517"><ele>197.60000000000002</ele><time>2026-04-25T09:40:30.227Z</time></trkpt><trkpt lat="45.6678367" lon="9.957945"><ele>197.39999999999998</ele><time>2026-04-25T09:40:32.228Z</time></trkpt><trkpt lat="45.6678067" lon="9.95804"><ele>197.2</ele><time>2026-04-25T09:40:36.229Z</time></trkpt><trkpt lat="45.66776" lon="9.9581433"><ele>197.0</ele><time>2026-04-25T09:40:38.227Z</time></trkpt><trkpt lat="45.6676733" lon="9.9582683"><ele>196.6</ele><time>2026-04-25T09:40:40.23Z</time></trkpt><trkpt lat="45.6675933" lon="9.9583733"><ele>196.2</ele><time>2026-04-25T09:40:42.228Z</time></trkpt><trkpt lat="45.667525" lon="9.9584683"><ele>195.8</ele><time>2026-04-25T09:40:49.227Z</time></trkpt><trkpt lat="45.66746" lon="9.9585467"><ele>195.4</ele><time>2026-04-25T09:40:52.227Z</time></trkpt><trkpt lat="45.6673883" lon="9.958635"><ele>195.0</ele><time>2026-04-25T09:40:55.229Z</time></trkpt><trkpt lat="45.667325" lon="9.9587"><ele>195.0</ele><time>2026-04-25T09:40:57.23Z</time></trkpt><trkpt lat="45.66725" lon="9.9587667"><ele>195.0</ele><time>2026-04-25T09:40:59.23Z</time></trkpt><trkpt lat="45.6671567" lon="9.958865"><ele>195.0</ele><time>2026-04-25T09:41:01.23Z</time></trkpt><trkpt lat="45.66706" lon="9.9589683"><ele>195.0</ele><time>2026-04-25T09:41:03.229Z</time></trkpt><trkpt lat="45.6670083" lon="9.95902"><ele>195.0</ele><time>2026-04-25T09:41:04.229Z</time></trkpt><trkpt lat="45.6669533" lon="9.9590783"><ele>194.71428571428572</ele><time>2026-04-25T09:41:05.229Z</time></trkpt><trkpt lat="45.6668983" lon="9.959135"><ele>194.42857142857142</ele><time>2026-04-25T09:41:06.231Z</time></trkpt><trkpt lat="45.666845" lon="9.9591867"><ele>194.14285714285717</ele><time>2026-04-25T09:41:07.228Z</time></trkpt><trkpt lat="45.6667833" lon="9.9592333"><ele>193.85714285714286</ele><time>2026-04-25T09:41:08.227Z</time></trkpt><trkpt lat="45.6667217" lon="9.9592783"><ele>193.57142857142858</ele><time>2026-04-25T09:41:09.231Z</time></trkpt><trkpt lat="45.6666567" lon="9.9593133"><ele>193.2857142857143</ele><time>2026-04-25T09:41:10.229Z</time></trkpt><trkpt lat="45.6665883" lon="9.9593467"><ele>193.0</ele><time>2026-04-25T09:41:11.227Z</time></trkpt><trkpt lat="45.6665233" lon="9.9593733"><ele>192.85714285714286</ele><time>2026-04-25T09:41:12.227Z</time></trkpt><trkpt lat="45.6664583" lon="9.9593883"><ele>192.71428571428572</ele><time>2026-04-25T09:41:13.227Z</time></trkpt><trkpt lat="45.6663933" lon="9.9593917"><ele>192.57142857142856</ele><time>2026-04-25T09:41:14.227Z</time></trkpt><trkpt lat="45.66633" lon="9.959385"><ele>192.42857142857144</ele><time>2026-04-25T09:41:15.229Z</time></trkpt><trkpt lat="45.6662683" lon="9.9593667"><ele>192.28571428571428</ele><time>2026-04-25T09:41:16.227Z</time></trkpt><trkpt lat="45.66615" lon="9.95933"><ele>192.14285714285714</ele><time>2026-04-25T09:41:18.229Z</time></trkpt><trkpt lat="45.6660867" lon="9.9593133"><ele>192.0</ele><time>2026-04-25T09:41:19.228Z</time></trkpt><trkpt lat="45.6659817" lon="9.959285"><ele>192.0</ele><time>2026-04-25T09:41:21.228Z</time></trkpt><trkpt lat="45.665895" lon="9.9592483"><ele>192.0</ele><time>2026-04-25T09:41:23.228Z</time></trkpt><trkpt lat="45.6658267" lon="9.9592133"><ele>192.0</ele><time>2026-04-25T09:41:25.228Z</time></trkpt><trkpt lat="45.6657533" lon="9.95915"><ele>192.0</ele><time>2026-04-25T09:41:27.228Z</time></trkpt><trkpt lat="45.6656717" lon="9.95913"><ele>192.0</ele><time>2026-04-25T09:41:29.227Z</time></trkpt><trkpt lat="45.6656267" lon="9.9592117"><ele>192.0</ele><time>2026-04-25T09:41:32.229Z</time></trkpt><trkpt lat="45.6656117" lon="9.9593217"><ele>192.0</ele><time>2026-04-25T09:41:40.229Z</time></trkpt><trkpt lat="45.6656083" lon="9.9594517"><ele>192.0</ele><time>2026-04-25T09:41:42.228Z</time></trkpt><trkpt lat="45.6656133" lon="9.9596167"><ele>192.0</ele><time>2026-04-25T09:41:44.229Z</time></trkpt><trkpt lat="45.6656167" lon="9.9597117"><ele>192.0</ele><time>2026-04-25T09:41:45.234Z</time></trkpt><trkpt lat="45.6656233" lon="9.9598133"><ele>192.0</ele><time>2026-04-25T09:41:46.228Z</time></trkpt><trkpt lat="45.6656283" lon="9.9599033"><ele>192.0</ele><time>2026-04-25T09:41:47.229Z</time></trkpt><trkpt lat="45.6656333" lon="9.96004"><ele>191.66666666666666</ele><time>2026-04-25T09:41:49.229Z</time></trkpt><trkpt lat="45.6656333" lon="9.960155"><ele>191.33333333333334</ele><time>2026-04-25T09:41:52.231Z</time></trkpt><trkpt lat="45.665635" lon="9.9602483"><ele>191.0</ele><time>2026-04-25T09:41:57.229Z</time></trkpt><trkpt lat="45.6656583" lon="9.960335"><ele>190.66666666666669</ele><time>2026-04-25T09:42:00.229Z</time></trkpt><trkpt lat="45.66571" lon="9.96043"><ele>190.33333333333334</ele><time>2026-04-25T09:42:03.23Z</time></trkpt><trkpt lat="45.6657617" lon="9.9605367"><ele>190.0</ele><time>2026-04-25T09:42:05.229Z</time></trkpt><trkpt lat="45.665825" lon="9.9606683"><ele>190.0</ele><time>2026-04-25T09:42:07.231Z</time></trkpt><trkpt lat="45.6658867" lon="9.9608133"><ele>190.0</ele><time>2026-04-25T09:42:09.231Z</time></trkpt><trkpt lat="45.6659317" lon="9.9609217"><ele>190.0</ele><time>2026-04-25T09:42:11.229Z</time></trkpt><trkpt lat="45.6659667" lon="9.9610117"><ele>190.0</ele><time>2026-04-25T09:42:13.229Z</time></trkpt><trkpt lat="45.66602" lon="9.9611367"><ele>190.0</ele><time>2026-04-25T09:42:15.23Z</time></trkpt><trkpt lat="45.6660567" lon="9.9612117"><ele>190.0</ele><time>2026-04-25T09:42:16.228Z</time></trkpt><trkpt lat="45.6660983" lon="9.9612933"><ele>190.0</ele><time>2026-04-25T09:42:17.227Z</time></trkpt><trkpt lat="45.66614" lon="9.961375"><ele>190.0</ele><time>2026-04-25T09:42:18.229Z</time></trkpt><trkpt lat="45.66618" lon="9.9614517"><ele>190.0</ele><time>2026-04-25T09:42:19.23Z</time></trkpt><trkpt lat="45.6662217" lon="9.9615283"><ele>190.0</ele><time>2026-04-25T09:42:20.228Z</time></trkpt><trkpt lat="45.6662617" lon="9.9616033"><ele>190.0</ele><time>2026-04-25T09:42:21.228Z</time></trkpt><trkpt lat="45.6663267" lon="9.9617333"><ele>190.0</ele><time>2026-04-25T09:42:23.229Z</time></trkpt><trkpt lat="45.6663717" lon="9.9618283"><ele>190.0</ele><time>2026-04-25T09:42:25.228Z</time></trkpt><trkpt lat="45.6664183" lon="9.9619417"><ele>190.0</ele><time>2026-04-25T09:42:28.227Z</time></trkpt><trkpt lat="45.666465" lon="9.962055"><ele>190.0</ele><time>2026-04-25T09:42:30.232Z</time></trkpt><trkpt lat="45.6665033" lon="9.9621383"><ele>190.0</ele><time>2026-04-25T09:42:31.228Z</time></trkpt><trkpt lat="45.6665483" lon="9.962235"><ele>190.0</ele><time>2026-04-25T09:42:32.229Z</time></trkpt><trkpt lat="45.6665967" lon="9.96234"><ele>190.0</ele><time>2026-04-25T09:42:33.229Z</time></trkpt><trkpt lat="45.666645" lon="9.9624483"><ele>189.5</ele><time>2026-04-25T09:42:34.23Z</time></trkpt><trkpt lat="45.6666967" lon="9.96256"><ele>189.0</ele><time>2026-04-25T09:42:35.23Z</time></trkpt><trkpt lat="45.6667417" lon="9.9626633"><ele>188.5</ele><time>2026-04-25T09:42:36.229Z</time></trkpt><trkpt lat="45.66678" lon="9.9627533"><ele>188.0</ele><time>2026-04-25T09:42:37.228Z</time></trkpt><trkpt lat="45.66683" lon="9.96287"><ele>187.5</ele><time>2026-04-25T09:42:39.228Z</time></trkpt><trkpt lat="45.666885" lon="9.9629783"><ele>187.0</ele><time>2026-04-25T09:42:42.229Z</time></trkpt><trkpt lat="45.6669367" lon="9.9630783"><ele>187.5</ele><time>2026-04-25T09:42:44.228Z</time></trkpt><trkpt lat="45.667" lon="9.9631483"><ele>188.0</ele><time>2026-04-25T09:42:46.23Z</time></trkpt><trkpt lat="45.667085" lon="9.9631217"><ele>188.5</ele><time>2026-04-25T09:42:48.23Z</time></trkpt><trkpt lat="45.6671617" lon="9.9631083"><ele>189.0</ele><time>2026-04-25T09:42:50.231Z</time></trkpt><trkpt lat="45.667225" lon="9.9631383"><ele>189.5</ele><time>2026-04-25T09:42:52.232Z</time></trkpt><trkpt lat="45.6672883" lon="9.963235"><ele>190.0</ele><time>2026-04-25T09:42:54.227Z</time></trkpt><trkpt lat="45.6673433" lon="9.963345"><ele>190.0</ele><time>2026-04-25T09:42:56.227Z</time></trkpt><trkpt lat="45.6674217" lon="9.9634183"><ele>190.0</ele><time>2026-04-25T09:42:58.23Z</time></trkpt><trkpt lat="45.6675383" lon="9.963405"><ele>190.0</ele><time>2026-04-25T09:43:00.23Z</time></trkpt><trkpt lat="45.66761" lon="9.9633783"><ele>190.0</ele><time>2026-04-25T09:43:01.228Z</time></trkpt><trkpt lat="45.6676833" lon="9.96335"><ele>190.0</ele><time>2026-04-25T09:43:02.228Z</time></trkpt><trkpt lat="45.66776" lon="9.9633183"><ele>190.0</ele><time>2026-04-25T09:43:03.229Z</time></trkpt><trkpt lat="45.66784" lon="9.9632933"><ele>190.16666666666669</ele><time>2026-04-25T09:43:04.227Z</time></trkpt><trkpt lat="45.6679233" lon="9.96327"><ele>190.33333333333334</ele><time>2026-04-25T09:43:05.228Z</time></trkpt><trkpt lat="45.6679983" lon="9.9632517"><ele>190.5</ele><time>2026-04-25T09:43:06.229Z</time></trkpt><trkpt lat="45.6680633" lon="9.9632467"><ele>190.66666666666666</ele><time>2026-04-25T09:43:07.228Z</time></trkpt><trkpt lat="45.668145" lon="9.9633183"><ele>190.83333333333331</ele><time>2026-04-25T09:43:09.228Z</time></trkpt><trkpt lat="45.6681867" lon="9.9634533"><ele>191.0</ele><time>2026-04-25T09:43:11.229Z</time></trkpt><trkpt lat="45.6682517" lon="9.9635317"><ele>191.0</ele><time>2026-04-25T09:43:13.23Z</time></trkpt><trkpt lat="45.6683583" lon="9.963505"><ele>191.0</ele><time>2026-04-25T09:43:15.229Z</time></trkpt><trkpt lat="45.6684267" lon="9.9634783"><ele>191.0</ele><time>2026-04-25T09:43:16.228Z</time></trkpt><trkpt lat="45.6685017" lon="9.9634483"><ele>191.0</ele><time>2026-04-25T09:43:17.228Z</time></trkpt><trkpt lat="45.6685783" lon="9.963415"><ele>191.0</ele><time>2026-04-25T09:43:18.23Z</time></trkpt><trkpt lat="45.668655" lon="9.9633767"><ele>191.0</ele><time>2026-04-25T09:43:19.228Z</time></trkpt><trkpt lat="45.6687317" lon="9.96334"><ele>191.20000000000002</ele><time>2026-04-25T09:43:20.229Z</time></trkpt><trkpt lat="45.6687983" lon="9.9633233"><ele>191.4</ele><time>2026-04-25T09:43:21.23Z</time></trkpt><trkpt lat="45.6688983" lon="9.9633833"><ele>191.6</ele><time>2026-04-25T09:43:23.228Z</time></trkpt><trkpt lat="45.668945" lon="9.9635183"><ele>191.8</ele><time>2026-04-25T09:43:25.229Z</time></trkpt><trkpt lat="45.6689917" lon="9.9636967"><ele>192.0</ele><time>2026-04-25T09:43:27.229Z</time></trkpt><trkpt lat="45.6690217" lon="9.963795"><ele>192.0</ele><time>2026-04-25T09:43:28.23Z</time></trkpt><trkpt lat="45.669055" lon="9.9638917"><ele>192.0</ele><time>2026-04-25T09:43:29.23Z</time></trkpt><trkpt lat="45.6690917" lon="9.9639867"><ele>192.0</ele><time>2026-04-25T09:43:30.23Z</time></trkpt><trkpt lat="45.6691333" lon="9.9640733"><ele>192.0</ele><time>2026-04-25T09:43:31.232Z</time></trkpt><trkpt lat="45.6691783" lon="9.96414"><ele>192.0</ele><time>2026-04-25T09:43:32.229Z</time></trkpt><trkpt lat="45.6692683" lon="9.9641867"><ele>192.0</ele><time>2026-04-25T09:43:34.228Z</time></trkpt><trkpt lat="45.66934" lon="9.964245"><ele>192.39999999999998</ele><time>2026-04-25T09:43:36.228Z</time></trkpt><trkpt lat="45.6694217" lon="9.964375"><ele>192.79999999999998</ele><time>2026-04-25T09:43:38.229Z</time></trkpt><trkpt lat="45.6694767" lon="9.9644617"><ele>193.2</ele><time>2026-04-25T09:43:39.229Z</time></trkpt><trkpt lat="45.6695433" lon="9.96456"><ele>193.6</ele><time>2026-04-25T09:43:40.228Z</time></trkpt><trkpt lat="45.669625" lon="9.964675"><ele>194.0</ele><time>2026-04-25T09:43:41.228Z</time></trkpt><trkpt lat="45.66971" lon="9.9648033"><ele>194.25</ele><time>2026-04-25T09:43:42.229Z</time></trkpt><trkpt lat="45.6697933" lon="9.9649417"><ele>194.5</ele><time>2026-04-25T09:43:43.228Z</time></trkpt><trkpt lat="45.6698667" lon="9.9650883"><ele>194.75</ele><time>2026-04-25T09:43:44.228Z</time></trkpt><trkpt lat="45.6699333" lon="9.9652467"><ele>195.0</ele><time>2026-04-25T09:43:45.229Z</time></trkpt><trkpt lat="45.6699883" lon="9.9654167"><ele>195.0</ele><time>2026-04-25T09:43:46.228Z</time></trkpt><trkpt lat="45.67004" lon="9.9655983"><ele>195.0</ele><time>2026-04-25T09:43:47.228Z</time></trkpt><trkpt lat="45.6700817" lon="9.9657883"><ele>195.0</ele><time>2026-04-25T09:43:48.23Z</time></trkpt><trkpt lat="45.67011" lon="9.9659817"><ele>195.0</ele><time>2026-04-25T09:43:49.23Z</time></trkpt><trkpt lat="45.6701333" lon="9.96617"><ele>194.75</ele><time>2026-04-25T09:43:50.231Z</time></trkpt><trkpt lat="45.6701583" lon="9.966365"><ele>194.5</ele><time>2026-04-25T09:43:51.229Z</time></trkpt><trkpt lat="45.6701917" lon="9.9665583"><ele>194.25</ele><time>2026-04-25T09:43:52.227Z</time></trkpt><trkpt lat="45.6702333" lon="9.9667517"><ele>194.0</ele><time>2026-04-25T09:43:53.227Z</time></trkpt><trkpt lat="45.67028" lon="9.96694"><ele>194.0</ele><time>2026-04-25T09:43:54.228Z</time></trkpt><trkpt lat="45.670335" lon="9.9671183"><ele>194.0</ele><time>2026-04-25T09:43:55.228Z</time></trkpt><trkpt lat="45.6704017" lon="9.9672817"><ele>194.0</ele><time>2026-04-25T09:43:56.228Z</time></trkpt><trkpt lat="45.6704717" lon="9.9674433"><ele>194.0</ele><time>2026-04-25T09:43:57.228Z</time></trkpt><trkpt lat="45.6705467" lon="9.9676083"><ele>194.0</ele><time>2026-04-25T09:43:58.231Z</time></trkpt><trkpt lat="45.6706283" lon="9.9677717"><ele>194.0</ele><time>2026-04-25T09:43:59.23Z</time></trkpt><trkpt lat="45.67071" lon="9.967935"><ele>194.0</ele><time>2026-04-25T09:44:00.231Z</time></trkpt><trkpt lat="45.67079" lon="9.9680883"><ele>194.0</ele><time>2026-04-25T09:44:01.228Z</time></trkpt><trkpt lat="45.6708733" lon="9.96823"><ele>193.5</ele><time>2026-04-25T09:44:02.231Z</time></trkpt><trkpt lat="45.670955" lon="9.9683683"><ele>193.0</ele><time>2026-04-25T09:44:03.235Z</time></trkpt><trkpt lat="45.6710417" lon="9.9685017"><ele>192.5</ele><time>2026-04-25T09:44:04.227Z</time></trkpt><trkpt lat="45.671135" lon="9.9686267"><ele>192.0</ele><time>2026-04-25T09:44:05.228Z</time></trkpt><trkpt lat="45.67124" lon="9.9687417"><ele>193.0</ele><time>2026-04-25T09:44:06.229Z</time></trkpt><trkpt lat="45.67136" lon="9.96884"><ele>194.0</ele><time>2026-04-25T09:44:07.229Z</time></trkpt><trkpt lat="45.67148" lon="9.9689083"><ele>195.0</ele><time>2026-04-25T09:44:08.228Z</time></trkpt><trkpt lat="45.6715883" lon="9.9689583"><ele>196.0</ele><time>2026-04-25T09:44:09.229Z</time></trkpt><trkpt lat="45.6716817" lon="9.968985"><ele>195.99999999999997</ele><time>2026-04-25T09:44:10.229Z</time></trkpt><trkpt lat="45.6717617" lon="9.96901"><ele>196.0</ele><time>2026-04-25T09:44:11.228Z</time></trkpt><trkpt lat="45.6718283" lon="9.969035"><ele>196.0</ele><time>2026-04-25T09:44:12.228Z</time></trkpt><trkpt lat="45.6719133" lon="9.969095"><ele>196.0</ele><time>2026-04-25T09:44:14.228Z</time></trkpt><trkpt lat="45.67198" lon="9.96918"><ele>195.99999999999997</ele><time>2026-04-25T09:44:16.229Z</time></trkpt><trkpt lat="45.6720233" lon="9.9692583"><ele>196.0</ele><time>2026-04-25T09:44:17.228Z</time></trkpt><trkpt lat="45.672075" lon="9.9693717"><ele>196.75</ele><time>2026-04-25T09:44:18.229Z</time></trkpt><trkpt lat="45.6721317" lon="9.969515"><ele>197.5</ele><time>2026-04-25T09:44:19.229Z</time></trkpt><trkpt lat="45.6721933" lon="9.9696833"><ele>198.25</ele><time>2026-04-25T09:44:20.229Z</time></trkpt><trkpt lat="45.6722617" lon="9.9698683"><ele>199.0</ele><time>2026-04-25T09:44:21.23Z</time></trkpt><trkpt lat="45.6723317" lon="9.970065"><ele>196.0</ele><time>2026-04-25T09:44:22.229Z</time></trkpt><trkpt lat="45.6724017" lon="9.9702783"><ele>193.0</ele><time>2026-04-25T09:44:23.229Z</time></trkpt><trkpt lat="45.672475" lon="9.9704967"><ele>190.0</ele><time>2026-04-25T09:44:24.229Z</time></trkpt><trkpt lat="45.672545" lon="9.9707117"><ele>189.25</ele><time>2026-04-25T09:44:25.229Z</time></trkpt><trkpt lat="45.6726083" lon="9.9709133"><ele>188.5</ele><time>2026-04-25T09:44:26.231Z</time></trkpt><trkpt lat="45.672665" lon="9.97111"><ele>187.75</ele><time>2026-04-25T09:44:27.229Z</time></trkpt><trkpt lat="45.6727183" lon="9.9713"><ele>187.0</ele><time>2026-04-25T09:44:28.23Z</time></trkpt><trkpt lat="45.6727733" lon="9.9714917"><ele>189.25</ele><time>2026-04-25T09:44:29.23Z</time></trkpt><trkpt lat="45.672825" lon="9.971685"><ele>191.5</ele><time>2026-04-25T09:44:30.23Z</time></trkpt><trkpt lat="45.6728733" lon="9.9718767"><ele>193.75</ele><time>2026-04-25T09:44:31.23Z</time></trkpt><trkpt lat="45.6729167" lon="9.9720667"><ele>196.0</ele><time>2026-04-25T09:44:32.23Z</time></trkpt><trkpt lat="45.672955" lon="9.9722567"><ele>196.0</ele><time>2026-04-25T09:44:33.249Z</time></trkpt><trkpt lat="45.6729833" lon="9.9724317"><ele>196.0</ele><time>2026-04-25T09:44:34.23Z</time></trkpt><trkpt lat="45.6730033" lon="9.9725867"><ele>196.0</ele><time>2026-04-25T09:44:35.23Z</time></trkpt><trkpt lat="45.6730167" lon="9.9727117"><ele>196.0</ele><time>2026-04-25T09:44:36.231Z</time></trkpt><trkpt lat="45.673025" lon="9.97281"><ele>196.0</ele><time>2026-04-25T09:44:37.23Z</time></trkpt><trkpt lat="45.6730317" lon="9.9729367"><ele>195.33333333333331</ele><time>2026-04-25T09:44:39.23Z</time></trkpt><trkpt lat="45.6730383" lon="9.9730867"><ele>194.66666666666666</ele><time>2026-04-25T09:44:42.23Z</time></trkpt><trkpt lat="45.6730467" lon="9.9731767"><ele>194.0</ele><time>2026-04-25T09:44:43.23Z</time></trkpt><trkpt lat="45.6730633" lon="9.973285"><ele>193.33333333333331</ele><time>2026-04-25T09:44:44.232Z</time></trkpt><trkpt lat="45.673085" lon="9.9734067"><ele>192.66666666666666</ele><time>2026-04-25T09:44:45.233Z</time></trkpt><trkpt lat="45.6731183" lon="9.9735383"><ele>192.0</ele><time>2026-04-25T09:44:46.23Z</time></trkpt><trkpt lat="45.67316" lon="9.97368"><ele>191.75</ele><time>2026-04-25T09:44:47.228Z</time></trkpt><trkpt lat="45.673205" lon="9.973825"><ele>191.5</ele><time>2026-04-25T09:44:48.229Z</time></trkpt><trkpt lat="45.6732517" lon="9.9739717"><ele>191.25</ele><time>2026-04-25T09:44:49.228Z</time></trkpt><trkpt lat="45.6733" lon="9.9741283"><ele>191.0</ele><time>2026-04-25T09:44:50.228Z</time></trkpt><trkpt lat="45.673355" lon="9.9742917"><ele>190.25</ele><time>2026-04-25T09:44:51.228Z</time></trkpt><trkpt lat="45.6734133" lon="9.9744633"><ele>189.5</ele><time>2026-04-25T09:44:52.228Z</time></trkpt><trkpt lat="45.673475" lon="9.9746333"><ele>188.75</ele><time>2026-04-25T09:44:53.228Z</time></trkpt><trkpt lat="45.67354" lon="9.9748067"><ele>188.0</ele><time>2026-04-25T09:44:54.228Z</time></trkpt><trkpt lat="45.673605" lon="9.97498"><ele>188.75</ele><time>2026-04-25T09:44:55.228Z</time></trkpt><trkpt lat="45.67367" lon="9.9751517"><ele>189.5</ele><time>2026-04-25T09:44:56.23Z</time></trkpt><trkpt lat="45.6737383" lon="9.9753183"><ele>190.25</ele><time>2026-04-25T09:44:57.231Z</time></trkpt><trkpt lat="45.673815" lon="9.9754833"><ele>191.0</ele><time>2026-04-25T09:44:58.228Z</time></trkpt><trkpt lat="45.6739" lon="9.9756467"><ele>191.0</ele><time>2026-04-25T09:44:59.228Z</time></trkpt><trkpt lat="45.6739917" lon="9.9758033"><ele>191.0</ele><time>2026-04-25T09:45:00.23Z</time></trkpt><trkpt lat="45.6740883" lon="9.97595"><ele>191.0</ele><time>2026-04-25T09:45:01.231Z</time></trkpt><trkpt lat="45.6741883" lon="9.9761017"><ele>191.0</ele><time>2026-04-25T09:45:02.228Z</time></trkpt><trkpt lat="45.6742883" lon="9.976245"><ele>190.5</ele><time>2026-04-25T09:45:03.23Z</time></trkpt><trkpt lat="45.674385" lon="9.97638"><ele>190.0</ele><time>2026-04-25T09:45:04.229Z</time></trkpt><trkpt lat="45.6744717" lon="9.9765033"><ele>189.5</ele><time>2026-04-25T09:45:05.229Z</time></trkpt><trkpt lat="45.6745517" lon="9.976615"><ele>189.0</ele><time>2026-04-25T09:45:06.231Z</time></trkpt><trkpt lat="45.6746283" lon="9.976725"><ele>188.6</ele><time>2026-04-25T09:45:07.23Z</time></trkpt><trkpt lat="45.67471" lon="9.97684"><ele>188.2</ele><time>2026-04-25T09:45:08.232Z</time></trkpt><trkpt lat="45.6747883" lon="9.9769517"><ele>187.79999999999998</ele><time>2026-04-25T09:45:09.23Z</time></trkpt><trkpt lat="45.67485" lon="9.97704"><ele>187.39999999999998</ele><time>2026-04-25T09:45:10.23Z</time></trkpt><trkpt lat="45.6749233" lon="9.9771367"><ele>187.0</ele><time>2026-04-25T09:45:12.228Z</time></trkpt><trkpt lat="45.6749917" lon="9.9772167"><ele>187.0</ele><time>2026-04-25T09:45:15.229Z</time></trkpt><trkpt lat="45.6750767" lon="9.9773433"><ele>187.0</ele><time>2026-04-25T09:45:17.228Z</time></trkpt><trkpt lat="45.6751367" lon="9.9774633"><ele>187.0</ele><time>2026-04-25T09:45:18.228Z</time></trkpt><trkpt lat="45.67522" lon="9.9776333"><ele>187.0</ele><time>2026-04-25T09:45:19.227Z</time></trkpt><trkpt lat="45.675305" lon="9.9778233"><ele>187.66666666666669</ele><time>2026-04-25T09:45:20.227Z</time></trkpt><trkpt lat="45.6753867" lon="9.9780367"><ele>188.33333333333334</ele><time>2026-04-25T09:45:21.228Z</time></trkpt><trkpt lat="45.6754617" lon="9.97827"><ele>189.0</ele><time>2026-04-25T09:45:22.228Z</time></trkpt><trkpt lat="45.6755367" lon="9.9785167"><ele>189.0</ele><time>2026-04-25T09:45:23.227Z</time></trkpt><trkpt lat="45.67561" lon="9.9787733"><ele>189.0</ele><time>2026-04-25T09:45:24.227Z</time></trkpt><trkpt lat="45.67569" lon="9.9790283"><ele>189.0</ele><time>2026-04-25T09:45:25.227Z</time></trkpt><trkpt lat="45.675765" lon="9.97927"><ele>188.0</ele><time>2026-04-25T09:45:26.228Z</time></trkpt><trkpt lat="45.6758333" lon="9.9794833"><ele>187.0</ele><time>2026-04-25T09:45:27.228Z</time></trkpt><trkpt lat="45.6758883" lon="9.9796717"><ele>186.0</ele><time>2026-04-25T09:45:28.228Z</time></trkpt><trkpt lat="45.6759417" lon="9.9798517"><ele>185.0</ele><time>2026-04-25T09:45:29.229Z</time></trkpt><trkpt lat="45.675995" lon="9.9800217"><ele>184.75</ele><time>2026-04-25T09:45:30.236Z</time></trkpt><trkpt lat="45.6760433" lon="9.9801817"><ele>184.5</ele><time>2026-04-25T09:45:31.229Z</time></trkpt><trkpt lat="45.6760867" lon="9.9803467"><ele>184.25</ele><time>2026-04-25T09:45:32.228Z</time></trkpt><trkpt lat="45.676125" lon="9.9805217"><ele>184.0</ele><time>2026-04-25T09:45:33.229Z</time></trkpt><trkpt lat="45.6761533" lon="9.98071"><ele>186.0</ele><time>2026-04-25T09:45:34.228Z</time></trkpt><trkpt lat="45.6761667" lon="9.9809"><ele>188.0</ele><time>2026-04-25T09:45:35.232Z</time></trkpt><trkpt lat="45.6761683" lon="9.9810883"><ele>190.0</ele><time>2026-04-25T09:45:36.23Z</time></trkpt><trkpt lat="45.6761617" lon="9.9812783"><ele>192.0</ele><time>2026-04-25T09:45:37.23Z</time></trkpt><trkpt lat="45.6761533" lon="9.9814717"><ele>192.0</ele><time>2026-04-25T09:45:38.228Z</time></trkpt><trkpt lat="45.6761433" lon="9.9816717"><ele>192.0</ele><time>2026-04-25T09:45:39.23Z</time></trkpt><trkpt lat="45.6761283" lon="9.9818833"><ele>192.0</ele><time>2026-04-25T09:45:40.228Z</time></trkpt><trkpt lat="45.6761167" lon="9.9821117"><ele>192.0</ele><time>2026-04-25T09:45:41.228Z</time></trkpt><trkpt lat="45.676105" lon="9.982345"><ele>191.33333333333334</ele><time>2026-04-25T09:45:42.227Z</time></trkpt><trkpt lat="45.676095" lon="9.982575"><ele>190.66666666666669</ele><time>2026-04-25T09:45:43.229Z</time></trkpt><trkpt lat="45.6761" lon="9.9828067"><ele>190.0</ele><time>2026-04-25T09:45:44.227Z</time></trkpt><trkpt lat="45.6761167" lon="9.9830433"><ele>190.66666666666669</ele><time>2026-04-25T09:45:45.228Z</time></trkpt><trkpt lat="45.6761467" lon="9.98328"><ele>191.33333333333334</ele><time>2026-04-25T09:45:46.229Z</time></trkpt><trkpt lat="45.6761917" lon="9.98352"><ele>192.0</ele><time>2026-04-25T09:45:47.23Z</time></trkpt><trkpt lat="45.6762433" lon="9.983765"><ele>192.0</ele><time>2026-04-25T09:45:48.23Z</time></trkpt><trkpt lat="45.6763033" lon="9.9840133"><ele>192.0</ele><time>2026-04-25T09:45:49.229Z</time></trkpt><trkpt lat="45.6763683" lon="9.984265"><ele>192.0</ele><time>2026-04-25T09:45:50.229Z</time></trkpt><trkpt lat="45.6764333" lon="9.984525"><ele>192.33333333333331</ele><time>2026-04-25T09:45:51.228Z</time></trkpt><trkpt lat="45.6765" lon="9.9847867"><ele>192.66666666666666</ele><time>2026-04-25T09:45:52.23Z</time></trkpt><trkpt lat="45.6765683" lon="9.985045"><ele>193.0</ele><time>2026-04-25T09:45:53.229Z</time></trkpt><trkpt lat="45.676635" lon="9.985305"><ele>193.66666666666666</ele><time>2026-04-25T09:45:54.227Z</time></trkpt><trkpt lat="45.6767033" lon="9.9855617"><ele>194.33333333333331</ele><time>2026-04-25T09:45:55.227Z</time></trkpt><trkpt lat="45.6767667" lon="9.985805"><ele>195.0</ele><time>2026-04-25T09:45:56.228Z</time></trkpt><trkpt lat="45.6768267" lon="9.986035"><ele>193.66666666666666</ele><time>2026-04-25T09:45:57.228Z</time></trkpt><trkpt lat="45.6768833" lon="9.9862517"><ele>192.33333333333331</ele><time>2026-04-25T09:45:58.229Z</time></trkpt><trkpt lat="45.676935" lon="9.9864633"><ele>191.0</ele><time>2026-04-25T09:45:59.229Z</time></trkpt><trkpt lat="45.67699" lon="9.9866767"><ele>197.0</ele><time>2026-04-25T09:46:00.227Z</time></trkpt><trkpt lat="45.677045" lon="9.9868917"><ele>203.0</ele><time>2026-04-25T09:46:01.227Z</time></trkpt><trkpt lat="45.6771" lon="9.98711"><ele>209.0</ele><time>2026-04-25T09:46:02.229Z</time></trkpt><trkpt lat="45.6771533" lon="9.98733"><ele>207.66666666666669</ele><time>2026-04-25T09:46:03.227Z</time></trkpt><trkpt lat="45.677205" lon="9.987555"><ele>206.33333333333331</ele><time>2026-04-25T09:46:04.228Z</time></trkpt><trkpt lat="45.6772433" lon="9.9877833"><ele>205.0</ele><time>2026-04-25T09:46:05.229Z</time></trkpt><trkpt lat="45.6772633" lon="9.9880167"><ele>205.0</ele><time>2026-04-25T09:46:06.23Z</time></trkpt><trkpt lat="45.6772683" lon="9.9882517"><ele>205.0</ele><time>2026-04-25T09:46:07.228Z</time></trkpt><trkpt lat="45.6772533" lon="9.9884883"><ele>205.0</ele><time>2026-04-25T09:46:08.227Z</time></trkpt><trkpt lat="45.67722" lon="9.98873"><ele>204.66666666666666</ele><time>2026-04-25T09:46:09.227Z</time></trkpt><trkpt lat="45.6771733" lon="9.9889683"><ele>204.33333333333331</ele><time>2026-04-25T09:46:10.227Z</time></trkpt><trkpt lat="45.6771133" lon="9.9891967"><ele>204.0</ele><time>2026-04-25T09:46:11.228Z</time></trkpt><trkpt lat="45.6770533" lon="9.9894217"><ele>204.0</ele><time>2026-04-25T09:46:12.229Z</time></trkpt><trkpt lat="45.6769983" lon="9.9896367"><ele>204.0</ele><time>2026-04-25T09:46:13.23Z</time></trkpt><trkpt lat="45.676945" lon="9.9898433"><ele>204.0</ele><time>2026-04-25T09:46:14.228Z</time></trkpt><trkpt lat="45.67689" lon="9.9900417"><ele>200.0</ele><time>2026-04-25T09:46:15.228Z</time></trkpt><trkpt lat="45.6768433" lon="9.9902283"><ele>196.0</ele><time>2026-04-25T09:46:16.227Z</time></trkpt><trkpt lat="45.6767967" lon="9.9904083"><ele>192.0</ele><time>2026-04-25T09:46:17.228Z</time></trkpt><trkpt lat="45.6767483" lon="9.9905883"><ele>188.0</ele><time>2026-04-25T09:46:18.227Z</time></trkpt><trkpt lat="45.67671" lon="9.99077"><ele>188.0</ele><time>2026-04-25T09:46:19.228Z</time></trkpt><trkpt lat="45.6766833" lon="9.99095"><ele>188.0</ele><time>2026-04-25T09:46:20.227Z</time></trkpt><trkpt lat="45.6766783" lon="9.99114"><ele>188.0</ele><time>2026-04-25T09:46:21.227Z</time></trkpt><trkpt lat="45.6767" lon="9.9913367"><ele>188.0</ele><time>2026-04-25T09:46:22.228Z</time></trkpt><trkpt lat="45.6767467" lon="9.991525"><ele>186.75</ele><time>2026-04-25T09:46:23.228Z</time></trkpt><trkpt lat="45.6768" lon="9.9917083"><ele>185.5</ele><time>2026-04-25T09:46:24.228Z</time></trkpt><trkpt lat="45.6768533" lon="9.991885"><ele>184.25</ele><time>2026-04-25T09:46:25.228Z</time></trkpt><trkpt lat="45.6769033" lon="9.992055"><ele>183.0</ele><time>2026-04-25T09:46:26.227Z</time></trkpt><trkpt lat="45.6769517" lon="9.99222"><ele>186.75</ele><time>2026-04-25T09:46:27.227Z</time></trkpt><trkpt lat="45.6770017" lon="9.9923883"><ele>190.5</ele><time>2026-04-25T09:46:28.227Z</time></trkpt><trkpt lat="45.677055" lon="9.9925633"><ele>194.25</ele><time>2026-04-25T09:46:29.227Z</time></trkpt><trkpt lat="45.6771067" lon="9.9927383"><ele>198.0</ele><time>2026-04-25T09:46:30.228Z</time></trkpt><trkpt lat="45.6771533" lon="9.9929183"><ele>198.0</ele><time>2026-04-25T09:46:31.228Z</time></trkpt><trkpt lat="45.6772" lon="9.9930983"><ele>198.0</ele><time>2026-04-25T09:46:32.229Z</time></trkpt><trkpt lat="45.677245" lon="9.9932883"><ele>198.0</ele><time>2026-04-25T09:46:33.228Z</time></trkpt><trkpt lat="45.6772967" lon="9.99349"><ele>198.0</ele><time>2026-04-25T09:46:34.227Z</time></trkpt><trkpt lat="45.67735" lon="9.9937067"><ele>196.0</ele><time>2026-04-25T09:46:35.229Z</time></trkpt><trkpt lat="45.6774117" lon="9.9939467"><ele>194.0</ele><time>2026-04-25T09:46:36.228Z</time></trkpt><trkpt lat="45.6774783" lon="9.9942033"><ele>192.0</ele><time>2026-04-25T09:46:37.229Z</time></trkpt><trkpt lat="45.6775367" lon="9.994465"><ele>190.0</ele><time>2026-04-25T09:46:38.228Z</time></trkpt><trkpt lat="45.67759" lon="9.994725"><ele>188.0</ele><time>2026-04-25T09:46:39.228Z</time></trkpt><trkpt lat="45.6776417" lon="9.99499"><ele>186.0</ele><time>2026-04-25T09:46:40.227Z</time></trkpt><trkpt lat="45.677695" lon="9.9952533"><ele>185.66666666666666</ele><time>2026-04-25T09:46:41.227Z</time></trkpt><trkpt lat="45.6777483" lon="9.9955133"><ele>185.33333333333331</ele><time>2026-04-25T09:46:42.227Z</time></trkpt><trkpt lat="45.6778017" lon="9.9957683"><ele>185.0</ele><time>2026-04-25T09:46:43.23Z</time></trkpt><trkpt lat="45.6778533" lon="9.99601"><ele>189.33333333333331</ele><time>2026-04-25T09:46:44.228Z</time></trkpt><trkpt lat="45.6779" lon="9.99624"><ele>193.66666666666666</ele><time>2026-04-25T09:46:45.229Z</time></trkpt><trkpt lat="45.6779433" lon="9.9964517"><ele>198.0</ele><time>2026-04-25T09:46:46.228Z</time></trkpt><trkpt lat="45.67798" lon="9.99665"><ele>196.25</ele><time>2026-04-25T09:46:47.233Z</time></trkpt><trkpt lat="45.67802" lon="9.9968367"><ele>194.5</ele><time>2026-04-25T09:46:48.239Z</time></trkpt><trkpt lat="45.6780567" lon="9.9970117"><ele>192.75</ele><time>2026-04-25T09:46:49.23Z</time></trkpt><trkpt lat="45.6780967" lon="9.9971933"><ele>191.0</ele><time>2026-04-25T09:46:50.227Z</time></trkpt><trkpt lat="45.6781433" lon="9.99738"><ele>190.75</ele><time>2026-04-25T09:46:51.229Z</time></trkpt><trkpt lat="45.6781917" lon="9.9975633"><ele>190.5</ele><time>2026-04-25T09:46:52.23Z</time></trkpt><trkpt lat="45.6782467" lon="9.9977533"><ele>190.25</ele><time>2026-04-25T09:46:53.227Z</time></trkpt><trkpt lat="45.6783033" lon="9.9979467"><ele>190.0</ele><time>2026-04-25T09:46:54.23Z</time></trkpt><trkpt lat="45.6783583" lon="9.9981467"><ele>189.66666666666669</ele><time>2026-04-25T09:46:55.228Z</time></trkpt><trkpt lat="45.6784133" lon="9.9983467"><ele>189.33333333333334</ele><time>2026-04-25T09:46:56.228Z</time></trkpt><trkpt lat="45.6784717" lon="9.9985533"><ele>189.0</ele><time>2026-04-25T09:46:57.228Z</time></trkpt><trkpt lat="45.67853" lon="9.99876"><ele>189.0</ele><time>2026-04-25T09:46:58.229Z</time></trkpt><trkpt lat="45.6785867" lon="9.9989733"><ele>189.0</ele><time>2026-04-25T09:46:59.228Z</time></trkpt><trkpt lat="45.678645" lon="9.9991883"><ele>189.0</ele><time>2026-04-25T09:47:00.228Z</time></trkpt><trkpt lat="45.6787067" lon="9.99941"><ele>191.0</ele><time>2026-04-25T09:47:01.228Z</time></trkpt><trkpt lat="45.678765" lon="9.999635"><ele>193.0</ele><time>2026-04-25T09:47:02.227Z</time></trkpt><trkpt lat="45.6788217" lon="9.99986"><ele>195.0</ele><time>2026-04-25T09:47:03.227Z</time></trkpt><trkpt lat="45.6788783" lon="10.0000817"><ele>195.0</ele><time>2026-04-25T09:47:04.229Z</time></trkpt><trkpt lat="45.678935" lon="10.0003083"><ele>195.0</ele><time>2026-04-25T09:47:05.228Z</time></trkpt><trkpt lat="45.67899" lon="10.00054"><ele>195.0</ele><time>2026-04-25T09:47:06.228Z</time></trkpt><trkpt lat="45.6790367" lon="10.0007733"><ele>193.66666666666666</ele><time>2026-04-25T09:47:07.228Z</time></trkpt><trkpt lat="45.6790717" lon="10.0010083"><ele>192.33333333333331</ele><time>2026-04-25T09:47:08.227Z</time></trkpt><trkpt lat="45.6791" lon="10.0012517"><ele>191.0</ele><time>2026-04-25T09:47:09.227Z</time></trkpt><trkpt lat="45.6791167" lon="10.0014983"><ele>190.66666666666666</ele><time>2026-04-25T09:47:10.227Z</time></trkpt><trkpt lat="45.6791233" lon="10.0017483"><ele>190.33333333333334</ele><time>2026-04-25T09:47:11.228Z</time></trkpt><trkpt lat="45.6791233" lon="10.002005"><ele>190.0</ele><time>2026-04-25T09:47:12.229Z</time></trkpt><trkpt lat="45.6791183" lon="10.0022667"><ele>189.0</ele><time>2026-04-25T09:47:13.227Z</time></trkpt><trkpt lat="45.679115" lon="10.0025233"><ele>188.0</ele><time>2026-04-25T09:47:14.228Z</time></trkpt><trkpt lat="45.6791117" lon="10.00278"><ele>187.0</ele><time>2026-04-25T09:47:15.229Z</time></trkpt><trkpt lat="45.6791117" lon="10.0030383"><ele>187.0</ele><time>2026-04-25T09:47:16.227Z</time></trkpt><trkpt lat="45.6791133" lon="10.003295"><ele>187.0</ele><time>2026-04-25T09:47:17.227Z</time></trkpt><trkpt lat="45.6791217" lon="10.0035533"><ele>187.0</ele><time>2026-04-25T09:47:18.228Z</time></trkpt><trkpt lat="45.6791333" lon="10.0038133"><ele>186.66666666666669</ele><time>2026-04-25T09:47:19.229Z</time></trkpt><trkpt lat="45.6791533" lon="10.0040733"><ele>186.33333333333334</ele><time>2026-04-25T09:47:20.231Z</time></trkpt><trkpt lat="45.6791833" lon="10.00434"><ele>186.0</ele><time>2026-04-25T09:47:21.23Z</time></trkpt><trkpt lat="45.6792167" lon="10.004605"><ele>186.0</ele><time>2026-04-25T09:47:22.229Z</time></trkpt><trkpt lat="45.6792567" lon="10.004865"><ele>186.0</ele><time>2026-04-25T09:47:23.229Z</time></trkpt><trkpt lat="45.6793" lon="10.0051217"><ele>186.0</ele><time>2026-04-25T09:47:24.231Z</time></trkpt><trkpt lat="45.679345" lon="10.005375"><ele>185.66666666666666</ele><time>2026-04-25T09:47:25.228Z</time></trkpt><trkpt lat="45.6793933" lon="10.00563"><ele>185.33333333333331</ele><time>2026-04-25T09:47:26.227Z</time></trkpt><trkpt lat="45.6794433" lon="10.0058833"><ele>185.0</ele><time>2026-04-25T09:47:27.228Z</time></trkpt><trkpt lat="45.6794933" lon="10.006135"><ele>187.66666666666666</ele><time>2026-04-25T09:47:28.227Z</time></trkpt><trkpt lat="45.6795433" lon="10.00639"><ele>190.33333333333331</ele><time>2026-04-25T09:47:29.228Z</time></trkpt><trkpt lat="45.6795967" lon="10.006645"><ele>193.0</ele><time>2026-04-25T09:47:30.228Z</time></trkpt><trkpt lat="45.6796533" lon="10.0069"><ele>193.33333333333331</ele><time>2026-04-25T09:47:31.227Z</time></trkpt><trkpt lat="45.6797083" lon="10.0071433"><ele>193.66666666666669</ele><time>2026-04-25T09:47:32.227Z</time></trkpt><trkpt lat="45.6797633" lon="10.0073767"><ele>194.0</ele><time>2026-04-25T09:47:33.229Z</time></trkpt><trkpt lat="45.679815" lon="10.007605"><ele>193.0</ele><time>2026-04-25T09:47:34.229Z</time></trkpt><trkpt lat="45.6798617" lon="10.0078317"><ele>192.0</ele><time>2026-04-25T09:47:35.228Z</time></trkpt><trkpt lat="45.6799017" lon="10.0080633"><ele>191.0</ele><time>2026-04-25T09:47:36.228Z</time></trkpt><trkpt lat="45.6799367" lon="10.0082983"><ele>189.33333333333331</ele><time>2026-04-25T09:47:37.23Z</time></trkpt><trkpt lat="45.6799667" lon="10.0085383"><ele>187.66666666666666</ele><time>2026-04-25T09:47:38.229Z</time></trkpt><trkpt lat="45.67999" lon="10.0087767"><ele>186.0</ele><time>2026-04-25T09:47:39.228Z</time></trkpt><trkpt lat="45.6800083" lon="10.00901"><ele>186.33333333333334</ele><time>2026-04-25T09:47:40.231Z</time></trkpt><trkpt lat="45.6800217" lon="10.0092383"><ele>186.66666666666669</ele><time>2026-04-25T09:47:41.228Z</time></trkpt><trkpt lat="45.6800333" lon="10.0094567"><ele>187.0</ele><time>2026-04-25T09:47:42.228Z</time></trkpt><trkpt lat="45.6800417" lon="10.0096633"><ele>187.0</ele><time>2026-04-25T09:47:43.228Z</time></trkpt><trkpt lat="45.6800483" lon="10.0098683"><ele>187.0</ele><time>2026-04-25T09:47:44.227Z</time></trkpt><trkpt lat="45.6800567" lon="10.0100733"><ele>187.0</ele><time>2026-04-25T09:47:45.228Z</time></trkpt><trkpt lat="45.680065" lon="10.0102833"><ele>187.0</ele><time>2026-04-25T09:47:46.229Z</time></trkpt><trkpt lat="45.6800783" lon="10.0104967"><ele>187.66666666666669</ele><time>2026-04-25T09:47:47.228Z</time></trkpt><trkpt lat="45.6801017" lon="10.0107133"><ele>188.33333333333334</ele><time>2026-04-25T09:47:48.23Z</time></trkpt><trkpt lat="45.6801317" lon="10.0109333"><ele>189.0</ele><time>2026-04-25T09:47:49.229Z</time></trkpt><trkpt lat="45.6801667" lon="10.0111517"><ele>189.0</ele><time>2026-04-25T09:47:50.23Z</time></trkpt><trkpt lat="45.6802083" lon="10.0113683"><ele>189.0</ele><time>2026-04-25T09:47:51.23Z</time></trkpt><trkpt lat="45.68026" lon="10.0115833"><ele>189.0</ele><time>2026-04-25T09:47:52.229Z</time></trkpt><trkpt lat="45.68032" lon="10.0117783"><ele>190.25</ele><time>2026-04-25T09:47:53.229Z</time></trkpt><trkpt lat="45.6803817" lon="10.0119583"><ele>191.5</ele><time>2026-04-25T09:47:54.23Z</time></trkpt><trkpt lat="45.6804383" lon="10.0121333"><ele>192.75</ele><time>2026-04-25T09:47:55.229Z</time></trkpt><trkpt lat="45.6804817" lon="10.0123183"><ele>194.0</ele><time>2026-04-25T09:47:56.228Z</time></trkpt><trkpt lat="45.6805083" lon="10.0125133"><ele>194.0</ele><time>2026-04-25T09:47:57.229Z</time></trkpt><trkpt lat="45.6805283" lon="10.012705"><ele>194.0</ele><time>2026-04-25T09:47:58.228Z</time></trkpt><trkpt lat="45.68055" lon="10.0128817"><ele>194.0</ele><time>2026-04-25T09:47:59.23Z</time></trkpt><trkpt lat="45.6805633" lon="10.01305"><ele>194.0</ele><time>2026-04-25T09:48:00.229Z</time></trkpt><trkpt lat="45.6805767" lon="10.01321"><ele>194.0</ele><time>2026-04-25T09:48:01.228Z</time></trkpt><trkpt lat="45.6805883" lon="10.01337"><ele>194.0</ele><time>2026-04-25T09:48:02.228Z</time></trkpt><trkpt lat="45.6805933" lon="10.0135267"><ele>194.0</ele><time>2026-04-25T09:48:03.228Z</time></trkpt><trkpt lat="45.680595" lon="10.0136867"><ele>194.0</ele><time>2026-04-25T09:48:04.228Z</time></trkpt><trkpt lat="45.680595" lon="10.0138567"><ele>194.0</ele><time>2026-04-25T09:48:05.228Z</time></trkpt><trkpt lat="45.680595" lon="10.0140333"><ele>194.0</ele><time>2026-04-25T09:48:06.228Z</time></trkpt><trkpt lat="45.680595" lon="10.0142167"><ele>194.0</ele><time>2026-04-25T09:48:07.227Z</time></trkpt><trkpt lat="45.6805933" lon="10.0143917"><ele>194.0</ele><time>2026-04-25T09:48:08.229Z</time></trkpt><trkpt lat="45.6805883" lon="10.014565"><ele>193.79999999999998</ele><time>2026-04-25T09:48:09.228Z</time></trkpt><trkpt lat="45.680585" lon="10.01473"><ele>193.6</ele><time>2026-04-25T09:48:10.227Z</time></trkpt><trkpt lat="45.680585" lon="10.0148867"><ele>193.4</ele><time>2026-04-25T09:48:11.229Z</time></trkpt><trkpt lat="45.6805867" lon="10.01504"><ele>193.2</ele><time>2026-04-25T09:48:12.228Z</time></trkpt><trkpt lat="45.6805883" lon="10.0151883"><ele>193.0</ele><time>2026-04-25T09:48:13.227Z</time></trkpt><trkpt lat="45.680585" lon="10.0153367"><ele>192.8</ele><time>2026-04-25T09:48:14.228Z</time></trkpt><trkpt lat="45.68058" lon="10.0154817"><ele>192.60000000000002</ele><time>2026-04-25T09:48:15.229Z</time></trkpt><trkpt lat="45.6805767" lon="10.0156233"><ele>192.39999999999998</ele><time>2026-04-25T09:48:16.228Z</time></trkpt><trkpt lat="45.6805767" lon="10.0157633"><ele>192.2</ele><time>2026-04-25T09:48:17.228Z</time></trkpt><trkpt lat="45.6805733" lon="10.0159067"><ele>192.0</ele><time>2026-04-25T09:48:18.229Z</time></trkpt><trkpt lat="45.6805683" lon="10.0160483"><ele>192.0</ele><time>2026-04-25T09:48:19.23Z</time></trkpt><trkpt lat="45.680565" lon="10.01618"><ele>192.0</ele><time>2026-04-25T09:48:20.229Z</time></trkpt><trkpt lat="45.6805617" lon="10.0162917"><ele>192.0</ele><time>2026-04-25T09:48:21.232Z</time></trkpt><trkpt lat="45.68056" lon="10.0163933"><ele>192.0</ele><time>2026-04-25T09:48:22.229Z</time></trkpt><trkpt lat="45.6805583" lon="10.0164917"><ele>192.0</ele><time>2026-04-25T09:48:23.23Z</time></trkpt><trkpt lat="45.680555" lon="10.0165883"><ele>192.0</ele><time>2026-04-25T09:48:24.23Z</time></trkpt><trkpt lat="45.6805467" lon="10.0167633"><ele>192.2</ele><time>2026-04-25T09:48:26.228Z</time></trkpt><trkpt lat="45.68054" lon="10.0169267"><ele>192.39999999999998</ele><time>2026-04-25T09:48:28.227Z</time></trkpt><trkpt lat="45.6805317" lon="10.0170683"><ele>192.60000000000002</ele><time>2026-04-25T09:48:30.229Z</time></trkpt><trkpt lat="45.6805233" lon="10.0172"><ele>192.8</ele><time>2026-04-25T09:48:32.227Z</time></trkpt><trkpt lat="45.6805117" lon="10.01735"><ele>193.0</ele><time>2026-04-25T09:48:34.229Z</time></trkpt><trkpt lat="45.6805033" lon="10.0174417"><ele>193.49999999999997</ele><time>2026-04-25T09:48:35.227Z</time></trkpt><trkpt lat="45.6804967" lon="10.0175383"><ele>194.0</ele><time>2026-04-25T09:48:36.228Z</time></trkpt><trkpt lat="45.6804883" lon="10.0176417"><ele>194.5</ele><time>2026-04-25T09:48:37.228Z</time></trkpt><trkpt lat="45.6804783" lon="10.0177567"><ele>195.0</ele><time>2026-04-25T09:48:38.229Z</time></trkpt><trkpt lat="45.6804667" lon="10.0178833"><ele>195.49999999999997</ele><time>2026-04-25T09:48:39.228Z</time></trkpt><trkpt lat="45.6804567" lon="10.018015"><ele>196.0</ele><time>2026-04-25T09:48:40.229Z</time></trkpt><trkpt lat="45.6804483" lon="10.0181417"><ele>195.99999999999997</ele><time>2026-04-25T09:48:41.228Z</time></trkpt><trkpt lat="45.68044" lon="10.0182717"><ele>196.0</ele><time>2026-04-25T09:48:42.229Z</time></trkpt><trkpt lat="45.6804317" lon="10.0184067"><ele>196.0</ele><time>2026-04-25T09:48:43.228Z</time></trkpt><trkpt lat="45.680425" lon="10.0185417"><ele>196.0</ele><time>2026-04-25T09:48:44.227Z</time></trkpt><trkpt lat="45.6804217" lon="10.0186683"><ele>195.99999999999997</ele><time>2026-04-25T09:48:45.228Z</time></trkpt><trkpt lat="45.6804233" lon="10.0187833"><ele>196.0</ele><time>2026-04-25T09:48:46.229Z</time></trkpt><trkpt lat="45.6804283" lon="10.0188767"><ele>196.0</ele><time>2026-04-25T09:48:47.227Z</time></trkpt><trkpt lat="45.68045" lon="10.019065"><ele>196.0</ele><time>2026-04-25T09:48:49.231Z</time></trkpt><trkpt lat="45.6804633" lon="10.0191817"><ele>196.0</ele><time>2026-04-25T09:48:50.231Z</time></trkpt><trkpt lat="45.6804783" lon="10.0193067"><ele>196.0</ele><time>2026-04-25T09:48:51.23Z</time></trkpt><trkpt lat="45.680495" lon="10.019435"><ele>196.0</ele><time>2026-04-25T09:48:52.23Z</time></trkpt><trkpt lat="45.6805117" lon="10.0195717"><ele>195.8</ele><time>2026-04-25T09:48:53.23Z</time></trkpt><trkpt lat="45.68053" lon="10.0197133"><ele>195.60000000000002</ele><time>2026-04-25T09:48:54.229Z</time></trkpt><trkpt lat="45.68055" lon="10.01986"><ele>195.4</ele><time>2026-04-25T09:48:55.228Z</time></trkpt><trkpt lat="45.6805733" lon="10.02001"><ele>195.2</ele><time>2026-04-25T09:48:56.227Z</time></trkpt><trkpt lat="45.6805933" lon="10.0201667"><ele>195.0</ele><time>2026-04-25T09:48:57.229Z</time></trkpt><trkpt lat="45.6806133" lon="10.0203217"><ele>195.0</ele><time>2026-04-25T09:48:58.228Z</time></trkpt><trkpt lat="45.680635" lon="10.0204817"><ele>195.0</ele><time>2026-04-25T09:48:59.228Z</time></trkpt><trkpt lat="45.6806567" lon="10.020635"><ele>195.0</ele><time>2026-04-25T09:49:00.228Z</time></trkpt><trkpt lat="45.6806833" lon="10.0207767"><ele>195.0</ele><time>2026-04-25T09:49:01.229Z</time></trkpt><trkpt lat="45.680725" lon="10.0209083"><ele>195.0</ele><time>2026-04-25T09:49:02.228Z</time></trkpt><trkpt lat="45.6807667" lon="10.0210483"><ele>194.75</ele><time>2026-04-25T09:49:03.228Z</time></trkpt><trkpt lat="45.68081" lon="10.02119"><ele>194.5</ele><time>2026-04-25T09:49:04.228Z</time></trkpt><trkpt lat="45.6808533" lon="10.02134"><ele>194.25</ele><time>2026-04-25T09:49:05.231Z</time></trkpt><trkpt lat="45.6808983" lon="10.021495"><ele>194.0</ele><time>2026-04-25T09:49:06.229Z</time></trkpt><trkpt lat="45.6809467" lon="10.0216467"><ele>193.25</ele><time>2026-04-25T09:49:07.228Z</time></trkpt><trkpt lat="45.6809967" lon="10.0217983"><ele>192.5</ele><time>2026-04-25T09:49:08.229Z</time></trkpt><trkpt lat="45.6810417" lon="10.0219517"><ele>191.75</ele><time>2026-04-25T09:49:09.229Z</time></trkpt><trkpt lat="45.6810817" lon="10.0221033"><ele>191.0</ele><time>2026-04-25T09:49:10.229Z</time></trkpt><trkpt lat="45.6811233" lon="10.02225"><ele>192.20000000000002</ele><time>2026-04-25T09:49:11.229Z</time></trkpt><trkpt lat="45.6811633" lon="10.02239"><ele>193.4</ele><time>2026-04-25T09:49:12.229Z</time></trkpt><trkpt lat="45.6812067" lon="10.0225333"><ele>194.6</ele><time>2026-04-25T09:49:13.227Z</time></trkpt><trkpt lat="45.6812533" lon="10.0226783"><ele>195.8</ele><time>2026-04-25T09:49:14.23Z</time></trkpt><trkpt lat="45.6813" lon="10.0228283"><ele>197.0</ele><time>2026-04-25T09:49:15.228Z</time></trkpt><trkpt lat="45.6813467" lon="10.0229817"><ele>197.0</ele><time>2026-04-25T09:49:16.23Z</time></trkpt><trkpt lat="45.6813917" lon="10.0231383"><ele>197.0</ele><time>2026-04-25T09:49:17.227Z</time></trkpt><trkpt lat="45.6814383" lon="10.0232967"><ele>197.0</ele><time>2026-04-25T09:49:18.229Z</time></trkpt><trkpt lat="45.6814883" lon="10.0234583"><ele>197.0</ele><time>2026-04-25T09:49:19.229Z</time></trkpt><trkpt lat="45.68154" lon="10.0236217"><ele>196.0</ele><time>2026-04-25T09:49:20.228Z</time></trkpt><trkpt lat="45.6815933" lon="10.0237833"><ele>195.0</ele><time>2026-04-25T09:49:21.228Z</time></trkpt><trkpt lat="45.681645" lon="10.02394"><ele>194.0</ele><time>2026-04-25T09:49:22.228Z</time></trkpt><trkpt lat="45.681695" lon="10.0240967"><ele>193.0</ele><time>2026-04-25T09:49:23.229Z</time></trkpt><trkpt lat="45.6817417" lon="10.024255"><ele>192.25</ele><time>2026-04-25T09:49:24.228Z</time></trkpt><trkpt lat="45.681785" lon="10.0244117"><ele>191.5</ele><time>2026-04-25T09:49:25.229Z</time></trkpt><trkpt lat="45.6818283" lon="10.02457"><ele>190.75</ele><time>2026-04-25T09:49:26.229Z</time></trkpt><trkpt lat="45.68187" lon="10.02473"><ele>190.0</ele><time>2026-04-25T09:49:27.229Z</time></trkpt><trkpt lat="45.6819083" lon="10.0248933"><ele>191.8</ele><time>2026-04-25T09:49:28.23Z</time></trkpt><trkpt lat="45.6819383" lon="10.025055"><ele>193.6</ele><time>2026-04-25T09:49:29.237Z</time></trkpt><trkpt lat="45.6819533" lon="10.0252133"><ele>195.39999999999998</ele><time>2026-04-25T09:49:30.228Z</time></trkpt><trkpt lat="45.681965" lon="10.02536"><ele>197.2</ele><time>2026-04-25T09:49:31.229Z</time></trkpt><trkpt lat="45.681975" lon="10.0255033"><ele>199.0</ele><time>2026-04-25T09:49:32.228Z</time></trkpt><trkpt lat="45.6819833" lon="10.0256483"><ele>199.0</ele><time>2026-04-25T09:49:33.228Z</time></trkpt><trkpt lat="45.6819933" lon="10.0258067"><ele>199.0</ele><time>2026-04-25T09:49:34.23Z</time></trkpt><trkpt lat="45.6820033" lon="10.0259683"><ele>199.0</ele><time>2026-04-25T09:49:35.228Z</time></trkpt><trkpt lat="45.6820133" lon="10.0261283"><ele>199.0</ele><time>2026-04-25T09:49:36.23Z</time></trkpt><trkpt lat="45.682015" lon="10.0262817"><ele>199.0</ele><time>2026-04-25T09:49:37.23Z</time></trkpt><trkpt lat="45.6820117" lon="10.0264317"><ele>198.66666666666666</ele><time>2026-04-25T09:49:38.229Z</time></trkpt><trkpt lat="45.682005" lon="10.026565"><ele>198.33333333333331</ele><time>2026-04-25T09:49:39.229Z</time></trkpt><trkpt lat="45.681995" lon="10.0266833"><ele>198.0</ele><time>2026-04-25T09:49:40.229Z</time></trkpt><trkpt lat="45.681985" lon="10.026795"><ele>197.66666666666669</ele><time>2026-04-25T09:49:41.228Z</time></trkpt><trkpt lat="45.6819683" lon="10.026895"><ele>197.33333333333334</ele><time>2026-04-25T09:49:42.228Z</time></trkpt><trkpt lat="45.68195" lon="10.0270033"><ele>197.0</ele><time>2026-04-25T09:49:43.228Z</time></trkpt><trkpt lat="45.68193" lon="10.0271283"><ele>194.8</ele><time>2026-04-25T09:49:44.228Z</time></trkpt><trkpt lat="45.6819133" lon="10.02727"><ele>192.6</ele><time>2026-04-25T09:49:45.228Z</time></trkpt><trkpt lat="45.6819033" lon="10.0274183"><ele>190.4</ele><time>2026-04-25T09:49:46.228Z</time></trkpt><trkpt lat="45.6819033" lon="10.027575"><ele>188.20000000000002</ele><time>2026-04-25T09:49:47.228Z</time></trkpt><trkpt lat="45.6819133" lon="10.027735"><ele>186.0</ele><time>2026-04-25T09:49:48.23Z</time></trkpt><trkpt lat="45.6819283" lon="10.0279"><ele>190.0</ele><time>2026-04-25T09:49:49.228Z</time></trkpt><trkpt lat="45.68195" lon="10.0280667"><ele>194.0</ele><time>2026-04-25T09:49:50.229Z</time></trkpt><trkpt lat="45.681975" lon="10.0282383"><ele>198.0</ele><time>2026-04-25T09:49:51.229Z</time></trkpt><trkpt lat="45.6820067" lon="10.0284133"><ele>202.0</ele><time>2026-04-25T09:49:52.229Z</time></trkpt><trkpt lat="45.6820433" lon="10.0285883"><ele>202.0</ele><time>2026-04-25T09:49:53.231Z</time></trkpt><trkpt lat="45.6820817" lon="10.0287633"><ele>202.0</ele><time>2026-04-25T09:49:54.228Z</time></trkpt><trkpt lat="45.6821167" lon="10.0289333"><ele>202.0</ele><time>2026-04-25T09:49:55.229Z</time></trkpt><trkpt lat="45.68215" lon="10.0291017"><ele>202.0</ele><time>2026-04-25T09:49:56.23Z</time></trkpt><trkpt lat="45.6821833" lon="10.02928"><ele>202.0</ele><time>2026-04-25T09:49:57.229Z</time></trkpt><trkpt lat="45.6822183" lon="10.0294683"><ele>202.0</ele><time>2026-04-25T09:49:58.229Z</time></trkpt><trkpt lat="45.6822483" lon="10.0296583"><ele>202.0</ele><time>2026-04-25T09:49:59.23Z</time></trkpt><trkpt lat="45.68228" lon="10.0298467"><ele>202.0</ele><time>2026-04-25T09:50:00.23Z</time></trkpt><trkpt lat="45.68231" lon="10.0300417"><ele>201.25</ele><time>2026-04-25T09:50:01.228Z</time></trkpt><trkpt lat="45.68234" lon="10.0302367"><ele>200.5</ele><time>2026-04-25T09:50:02.228Z</time></trkpt><trkpt lat="45.6823717" lon="10.03043"><ele>199.75</ele><time>2026-04-25T09:50:03.228Z</time></trkpt><trkpt lat="45.6824033" lon="10.03062"><ele>199.0</ele><time>2026-04-25T09:50:04.227Z</time></trkpt><trkpt lat="45.6824283" lon="10.0308133"><ele>198.0</ele><time>2026-04-25T09:50:05.228Z</time></trkpt><trkpt lat="45.6824483" lon="10.031005"><ele>197.0</ele><time>2026-04-25T09:50:06.231Z</time></trkpt><trkpt lat="45.682455" lon="10.0312"><ele>196.0</ele><time>2026-04-25T09:50:07.228Z</time></trkpt><trkpt lat="45.682455" lon="10.0314017"><ele>195.0</ele><time>2026-04-25T09:50:08.231Z</time></trkpt><trkpt lat="45.68245" lon="10.0316067"><ele>195.25</ele><time>2026-04-25T09:50:09.228Z</time></trkpt><trkpt lat="45.682445" lon="10.031805"><ele>195.5</ele><time>2026-04-25T09:50:10.229Z</time></trkpt><trkpt lat="45.682435" lon="10.032"><ele>195.75</ele><time>2026-04-25T09:50:11.229Z</time></trkpt><trkpt lat="45.6824267" lon="10.0321917"><ele>196.0</ele><time>2026-04-25T09:50:12.228Z</time></trkpt><trkpt lat="45.682425" lon="10.0323833"><ele>195.0</ele><time>2026-04-25T09:50:13.229Z</time></trkpt><trkpt lat="45.68244" lon="10.0325683"><ele>194.0</ele><time>2026-04-25T09:50:14.23Z</time></trkpt><trkpt lat="45.682475" lon="10.0327467"><ele>193.0</ele><time>2026-04-25T09:50:15.228Z</time></trkpt><trkpt lat="45.6825167" lon="10.0329217"><ele>192.0</ele><time>2026-04-25T09:50:16.227Z</time></trkpt><trkpt lat="45.682565" lon="10.0330933"><ele>192.0</ele><time>2026-04-25T09:50:17.229Z</time></trkpt><trkpt lat="45.6826083" lon="10.0332583"><ele>192.0</ele><time>2026-04-25T09:50:18.228Z</time></trkpt><trkpt lat="45.6826517" lon="10.03342"><ele>192.0</ele><time>2026-04-25T09:50:19.228Z</time></trkpt><trkpt lat="45.6826833" lon="10.03359"><ele>192.0</ele><time>2026-04-25T09:50:20.227Z</time></trkpt><trkpt lat="45.6827017" lon="10.033765"><ele>191.75</ele><time>2026-04-25T09:50:21.229Z</time></trkpt><trkpt lat="45.6827083" lon="10.0339467"><ele>191.5</ele><time>2026-04-25T09:50:22.228Z</time></trkpt><trkpt lat="45.6827017" lon="10.0341133"><ele>191.25</ele><time>2026-04-25T09:50:23.229Z</time></trkpt><trkpt lat="45.6826833" lon="10.034265"><ele>191.0</ele><time>2026-04-25T09:50:24.229Z</time></trkpt><trkpt lat="45.6826583" lon="10.0344033"><ele>190.8</ele><time>2026-04-25T09:50:25.229Z</time></trkpt><trkpt lat="45.6826367" lon="10.0345317"><ele>190.60000000000002</ele><time>2026-04-25T09:50:26.228Z</time></trkpt><trkpt lat="45.68262" lon="10.0346633"><ele>190.4</ele><time>2026-04-25T09:50:27.228Z</time></trkpt><trkpt lat="45.6826117" lon="10.0347917"><ele>190.2</ele><time>2026-04-25T09:50:28.228Z</time></trkpt><trkpt lat="45.6826133" lon="10.0349183"><ele>190.0</ele><time>2026-04-25T09:50:29.23Z</time></trkpt><trkpt lat="45.6826267" lon="10.03504"><ele>190.0</ele><time>2026-04-25T09:50:30.229Z</time></trkpt><trkpt lat="45.682645" lon="10.03516"><ele>190.0</ele><time>2026-04-25T09:50:31.23Z</time></trkpt><trkpt lat="45.6826667" lon="10.0352767"><ele>190.0</ele><time>2026-04-25T09:50:32.23Z</time></trkpt><trkpt lat="45.6826967" lon="10.0353833"><ele>190.0</ele><time>2026-04-25T09:50:33.228Z</time></trkpt><trkpt lat="45.6827333" lon="10.035485"><ele>190.0</ele><time>2026-04-25T09:50:34.228Z</time></trkpt><trkpt lat="45.6827717" lon="10.035595"><ele>190.0</ele><time>2026-04-25T09:50:35.228Z</time></trkpt><trkpt lat="45.68281" lon="10.035715"><ele>191.8</ele><time>2026-04-25T09:50:36.228Z</time></trkpt><trkpt lat="45.6828467" lon="10.035835"><ele>193.6</ele><time>2026-04-25T09:50:37.229Z</time></trkpt><trkpt lat="45.6828717" lon="10.0359667"><ele>195.39999999999998</ele><time>2026-04-25T09:50:38.229Z</time></trkpt><trkpt lat="45.6828867" lon="10.0360983"><ele>197.2</ele><time>2026-04-25T09:50:39.229Z</time></trkpt><trkpt lat="45.682895" lon="10.0362383"><ele>199.0</ele><time>2026-04-25T09:50:40.228Z</time></trkpt><trkpt lat="45.6829017" lon="10.03639"><ele>199.0</ele><time>2026-04-25T09:50:41.228Z</time></trkpt><trkpt lat="45.6829067" lon="10.03655"><ele>199.0</ele><time>2026-04-25T09:50:42.229Z</time></trkpt><trkpt lat="45.6829083" lon="10.0367117"><ele>199.0</ele><time>2026-04-25T09:50:43.229Z</time></trkpt><trkpt lat="45.6829117" lon="10.0368733"><ele>199.0</ele><time>2026-04-25T09:50:44.228Z</time></trkpt><trkpt lat="45.682915" lon="10.037035"><ele>199.75</ele><time>2026-04-25T09:50:45.227Z</time></trkpt><trkpt lat="45.68292" lon="10.0372017"><ele>200.5</ele><time>2026-04-25T09:50:46.227Z</time></trkpt><trkpt lat="45.682925" lon="10.0373683"><ele>201.25</ele><time>2026-04-25T09:50:47.227Z</time></trkpt><trkpt lat="45.68293" lon="10.03754"><ele>202.0</ele><time>2026-04-25T09:50:48.228Z</time></trkpt><trkpt lat="45.682935" lon="10.0377067"><ele>202.0</ele><time>2026-04-25T09:50:49.228Z</time></trkpt><trkpt lat="45.682935" lon="10.037875"><ele>202.0</ele><time>2026-04-25T09:50:50.232Z</time></trkpt><trkpt lat="45.6829317" lon="10.038045"><ele>202.0</ele><time>2026-04-25T09:50:51.228Z</time></trkpt><trkpt lat="45.6829167" lon="10.0382083"><ele>202.0</ele><time>2026-04-25T09:50:52.228Z</time></trkpt><trkpt lat="45.6828983" lon="10.038365"><ele>202.0</ele><time>2026-04-25T09:50:53.229Z</time></trkpt><trkpt lat="45.6828783" lon="10.0385183"><ele>202.0</ele><time>2026-04-25T09:50:54.228Z</time></trkpt><trkpt lat="45.6828633" lon="10.03867"><ele>202.0</ele><time>2026-04-25T09:50:55.227Z</time></trkpt><trkpt lat="45.6828617" lon="10.0388183"><ele>202.0</ele><time>2026-04-25T09:50:56.227Z</time></trkpt><trkpt lat="45.6828717" lon="10.0389617"><ele>202.0</ele><time>2026-04-25T09:50:57.23Z</time></trkpt><trkpt lat="45.682885" lon="10.0391067"><ele>202.6</ele><time>2026-04-25T09:50:58.227Z</time></trkpt><trkpt lat="45.6829067" lon="10.03925"><ele>203.2</ele><time>2026-04-25T09:50:59.227Z</time></trkpt><trkpt lat="45.6829367" lon="10.039395"><ele>203.8</ele><time>2026-04-25T09:51:00.228Z</time></trkpt><trkpt lat="45.68297" lon="10.039545"><ele>204.4</ele><time>2026-04-25T09:51:01.228Z</time></trkpt><trkpt lat="45.6830083" lon="10.0396983"><ele>205.0</ele><time>2026-04-25T09:51:02.228Z</time></trkpt><trkpt lat="45.6830483" lon="10.0398583"><ele>204.25</ele><time>2026-04-25T09:51:03.228Z</time></trkpt><trkpt lat="45.6830817" lon="10.0400233"><ele>203.5</ele><time>2026-04-25T09:51:04.228Z</time></trkpt><trkpt lat="45.6831067" lon="10.0401883"><ele>202.75</ele><time>2026-04-25T09:51:05.227Z</time></trkpt><trkpt lat="45.6831217" lon="10.04036"><ele>202.0</ele><time>2026-04-25T09:51:06.228Z</time></trkpt><trkpt lat="45.6831283" lon="10.04053"><ele>202.0</ele><time>2026-04-25T09:51:07.228Z</time></trkpt><trkpt lat="45.6831367" lon="10.0406967"><ele>202.0</ele><time>2026-04-25T09:51:08.227Z</time></trkpt><trkpt lat="45.6831517" lon="10.04086"><ele>202.0</ele><time>2026-04-25T09:51:09.228Z</time></trkpt><trkpt lat="45.6831767" lon="10.041025"><ele>202.0</ele><time>2026-04-25T09:51:10.227Z</time></trkpt><trkpt lat="45.6832083" lon="10.04118"><ele>202.2</ele><time>2026-04-25T09:51:11.228Z</time></trkpt><trkpt lat="45.6832467" lon="10.0413267"><ele>202.39999999999998</ele><time>2026-04-25T09:51:12.228Z</time></trkpt><trkpt lat="45.6832833" lon="10.041465"><ele>202.60000000000002</ele><time>2026-04-25T09:51:13.228Z</time></trkpt><trkpt lat="45.6833117" lon="10.0416033"><ele>202.8</ele><time>2026-04-25T09:51:14.227Z</time></trkpt><trkpt lat="45.6833317" lon="10.0417433"><ele>203.0</ele><time>2026-04-25T09:51:15.228Z</time></trkpt><trkpt lat="45.6833467" lon="10.041875"><ele>198.8</ele><time>2026-04-25T09:51:16.229Z</time></trkpt><trkpt lat="45.6833583" lon="10.0420067"><ele>194.60000000000002</ele><time>2026-04-25T09:51:17.228Z</time></trkpt><trkpt lat="45.68337" lon="10.04214"><ele>190.39999999999998</ele><time>2026-04-25T09:51:18.227Z</time></trkpt><trkpt lat="45.6833833" lon="10.0422667"><ele>186.2</ele><time>2026-04-25T09:51:19.227Z</time></trkpt><trkpt lat="45.6834" lon="10.0423933"><ele>182.0</ele><time>2026-04-25T09:51:20.227Z</time></trkpt><trkpt lat="45.6834183" lon="10.0425217"><ele>182.0</ele><time>2026-04-25T09:51:21.228Z</time></trkpt><trkpt lat="45.6834383" lon="10.042645"><ele>182.0</ele><time>2026-04-25T09:51:22.227Z</time></trkpt><trkpt lat="45.6834617" lon="10.0427633"><ele>182.0</ele><time>2026-04-25T09:51:23.227Z</time></trkpt><trkpt lat="45.6834883" lon="10.0428733"><ele>182.0</ele><time>2026-04-25T09:51:24.227Z</time></trkpt><trkpt lat="45.68351" lon="10.0429783"><ele>182.0</ele><time>2026-04-25T09:51:25.23Z</time></trkpt><trkpt lat="45.6835267" lon="10.0430833"><ele>182.0</ele><time>2026-04-25T09:51:26.228Z</time></trkpt><trkpt lat="45.683535" lon="10.0431983"><ele>182.0</ele><time>2026-04-25T09:51:27.229Z</time></trkpt><trkpt lat="45.683555" lon="10.0432917"><ele>182.0</ele><time>2026-04-25T09:51:28.227Z</time></trkpt><trkpt lat="45.6835467" lon="10.0434233"><ele>182.0</ele><time>2026-04-25T09:51:29.229Z</time></trkpt><trkpt lat="45.6835367" lon="10.04357"><ele>182.0</ele><time>2026-04-25T09:51:30.227Z</time></trkpt><trkpt lat="45.683535" lon="10.043725"><ele>182.0</ele><time>2026-04-25T09:51:31.227Z</time></trkpt><trkpt lat="45.68355" lon="10.0438733"><ele>182.0</ele><time>2026-04-25T09:51:32.228Z</time></trkpt><trkpt lat="45.6835783" lon="10.04402"><ele>182.0</ele><time>2026-04-25T09:51:33.227Z</time></trkpt><trkpt lat="45.6836167" lon="10.044175"><ele>182.0</ele><time>2026-04-25T09:51:34.227Z</time></trkpt><trkpt lat="45.68366" lon="10.04433"><ele>182.0</ele><time>2026-04-25T09:51:35.227Z</time></trkpt><trkpt lat="45.6837117" lon="10.0444833"><ele>182.0</ele><time>2026-04-25T09:51:36.228Z</time></trkpt><trkpt lat="45.68376" lon="10.0446367"><ele>182.0</ele><time>2026-04-25T09:51:37.227Z</time></trkpt><trkpt lat="45.6837983" lon="10.044795"><ele>182.0</ele><time>2026-04-25T09:51:38.227Z</time></trkpt><trkpt lat="45.6838267" lon="10.0449567"><ele>182.0</ele><time>2026-04-25T09:51:39.228Z</time></trkpt><trkpt lat="45.6838467" lon="10.045125"><ele>182.0</ele><time>2026-04-25T09:51:40.228Z</time></trkpt><trkpt lat="45.6838567" lon="10.0452917"><ele>182.0</ele><time>2026-04-25T09:51:41.229Z</time></trkpt><trkpt lat="45.68386" lon="10.04545"><ele>182.0</ele><time>2026-04-25T09:51:42.228Z</time></trkpt><trkpt lat="45.6838667" lon="10.0456083"><ele>182.0</ele><time>2026-04-25T09:51:43.229Z</time></trkpt><trkpt lat="45.6838833" lon="10.04576"><ele>182.0</ele><time>2026-04-25T09:51:44.227Z</time></trkpt><trkpt lat="45.68391" lon="10.0459067"><ele>182.0</ele><time>2026-04-25T09:51:45.229Z</time></trkpt><trkpt lat="45.6839433" lon="10.04605"><ele>182.0</ele><time>2026-04-25T09:51:46.227Z</time></trkpt><trkpt lat="45.683975" lon="10.0461967"><ele>182.0</ele><time>2026-04-25T09:51:47.228Z</time></trkpt><trkpt lat="45.68401" lon="10.0463467"><ele>182.0</ele><time>2026-04-25T09:51:48.23Z</time></trkpt><trkpt lat="45.6840467" lon="10.0465"><ele>182.0</ele><time>2026-04-25T09:51:49.23Z</time></trkpt><trkpt lat="45.6840883" lon="10.04665"><ele>182.0</ele><time>2026-04-25T09:51:50.23Z</time></trkpt><trkpt lat="45.68413" lon="10.0468017"><ele>182.0</ele><time>2026-04-25T09:51:51.23Z</time></trkpt><trkpt lat="45.6841667" lon="10.0469467"><ele>182.0</ele><time>2026-04-25T09:51:52.231Z</time></trkpt><trkpt lat="45.6842083" lon="10.0470867"><ele>182.0</ele><time>2026-04-25T09:51:53.229Z</time></trkpt><trkpt lat="45.6842533" lon="10.047225"><ele>182.0</ele><time>2026-04-25T09:51:54.23Z</time></trkpt><trkpt lat="45.6843083" lon="10.047355"><ele>182.0</ele><time>2026-04-25T09:51:55.23Z</time></trkpt><trkpt lat="45.684365" lon="10.0474867"><ele>182.0</ele><time>2026-04-25T09:51:56.23Z</time></trkpt><trkpt lat="45.68442" lon="10.0476183"><ele>182.0</ele><time>2026-04-25T09:51:57.23Z</time></trkpt><trkpt lat="45.6844683" lon="10.047745"><ele>182.0</ele><time>2026-04-25T09:51:58.229Z</time></trkpt><trkpt lat="45.68451" lon="10.04787"><ele>182.0</ele><time>2026-04-25T09:51:59.228Z</time></trkpt><trkpt lat="45.684545" lon="10.047995"><ele>182.0</ele><time>2026-04-25T09:52:00.228Z</time></trkpt><trkpt lat="45.6845717" lon="10.048125"><ele>182.0</ele><time>2026-04-25T09:52:01.228Z</time></trkpt><trkpt lat="45.6846033" lon="10.04825"><ele>182.0</ele><time>2026-04-25T09:52:02.228Z</time></trkpt><trkpt lat="45.6846417" lon="10.048365"><ele>182.0</ele><time>2026-04-25T09:52:03.228Z</time></trkpt><trkpt lat="45.6846817" lon="10.04848"><ele>182.0</ele><time>2026-04-25T09:52:04.227Z</time></trkpt><trkpt lat="45.6847267" lon="10.0485867"><ele>182.0</ele><time>2026-04-25T09:52:05.227Z</time></trkpt><trkpt lat="45.6847767" lon="10.0486867"><ele>182.0</ele><time>2026-04-25T09:52:06.231Z</time></trkpt><trkpt lat="45.6848283" lon="10.04879"><ele>182.0</ele><time>2026-04-25T09:52:07.229Z</time></trkpt><trkpt lat="45.6848817" lon="10.0488983"><ele>182.0</ele><time>2026-04-25T09:52:08.227Z</time></trkpt><trkpt lat="45.684935" lon="10.0490117"><ele>182.0</ele><time>2026-04-25T09:52:09.229Z</time></trkpt><trkpt lat="45.6849917" lon="10.0491233"><ele>182.0</ele><time>2026-04-25T09:52:10.227Z</time></trkpt><trkpt lat="45.68504" lon="10.0492283"><ele>182.0</ele><time>2026-04-25T09:52:11.227Z</time></trkpt><trkpt lat="45.6850833" lon="10.0493367"><ele>182.0</ele><time>2026-04-25T09:52:12.23Z</time></trkpt><trkpt lat="45.68513" lon="10.049435"><ele>182.0</ele><time>2026-04-25T09:52:13.229Z</time></trkpt><trkpt lat="45.685195" lon="10.0495533"><ele>182.0</ele><time>2026-04-25T09:52:14.23Z</time></trkpt><trkpt lat="45.6852883" lon="10.04965"><ele>182.0</ele><time>2026-04-25T09:52:15.229Z</time></trkpt><trkpt lat="45.6853717" lon="10.0497717"><ele>182.0</ele><time>2026-04-25T09:52:16.228Z</time></trkpt><trkpt lat="45.685455" lon="10.0499033"><ele>182.0</ele><time>2026-04-25T09:52:17.229Z</time></trkpt><trkpt lat="45.68559" lon="10.0500217"><ele>182.0</ele><time>2026-04-25T09:52:18.229Z</time></trkpt><trkpt lat="45.685715" lon="10.0501567"><ele>182.0</ele><time>2026-04-25T09:52:19.228Z</time></trkpt><trkpt lat="45.6858583" lon="10.050275"><ele>182.0</ele><time>2026-04-25T09:52:20.228Z</time></trkpt><trkpt lat="45.6859667" lon="10.0504133"><ele>182.0</ele><time>2026-04-25T09:52:21.23Z</time></trkpt><trkpt lat="45.68607" lon="10.0505533"><ele>195.33333333333331</ele><time>2026-04-25T09:52:22.231Z</time></trkpt><trkpt lat="45.6861733" lon="10.0506867"><ele>208.66666666666666</ele><time>2026-04-25T09:52:23.227Z</time></trkpt><trkpt lat="45.6862817" lon="10.0508183"><ele>222.0</ele><time>2026-04-25T09:52:24.228Z</time></trkpt><trkpt lat="45.69037" lon="10.05567"><ele>222.0</ele><time>2026-04-25T09:53:24.231Z</time></trkpt><trkpt lat="45.6904567" lon="10.0556567"><ele>222.0</ele><time>2026-04-25T09:53:25.231Z</time></trkpt><trkpt lat="45.69054" lon="10.0556317"><ele>222.0</ele><time>2026-04-25T09:53:26.231Z</time></trkpt><trkpt lat="45.6906217" lon="10.0555917"><ele>222.0</ele><time>2026-04-25T09:53:27.231Z</time></trkpt><trkpt lat="45.690695" lon="10.0555617"><ele>222.0</ele><time>2026-04-25T09:53:28.229Z</time></trkpt><trkpt lat="45.6907667" lon="10.055515"><ele>222.0</ele><time>2026-04-25T09:53:29.227Z</time></trkpt><trkpt lat="45.69083" lon="10.05546"><ele>222.0</ele><time>2026-04-25T09:53:30.227Z</time></trkpt><trkpt lat="45.69089" lon="10.0554067"><ele>222.0</ele><time>2026-04-25T09:53:31.227Z</time></trkpt><trkpt lat="45.690945" lon="10.05535"><ele>222.0</ele><time>2026-04-25T09:53:32.229Z</time></trkpt><trkpt lat="45.6909967" lon="10.0552933"><ele>222.0</ele><time>2026-04-25T09:53:33.228Z</time></trkpt><trkpt lat="45.69106" lon="10.0552317"><ele>222.0</ele><time>2026-04-25T09:53:34.227Z</time></trkpt><trkpt lat="45.6911383" lon="10.0551633"><ele>222.0</ele><time>2026-04-25T09:53:35.228Z</time></trkpt><trkpt lat="45.6912383" lon="10.0551"><ele>218.0</ele><time>2026-04-25T09:53:36.229Z</time></trkpt><trkpt lat="45.6913533" lon="10.0550517"><ele>214.0</ele><time>2026-04-25T09:53:37.229Z</time></trkpt><trkpt lat="45.691485" lon="10.0550133"><ele>210.0</ele><time>2026-04-25T09:53:38.228Z</time></trkpt><trkpt lat="45.691625" lon="10.054995"><ele>206.0</ele><time>2026-04-25T09:53:39.229Z</time></trkpt><trkpt lat="45.69176" lon="10.0549983"><ele>206.0</ele><time>2026-04-25T09:53:40.23Z</time></trkpt><trkpt lat="45.69189" lon="10.0550317"><ele>206.0</ele><time>2026-04-25T09:53:41.229Z</time></trkpt><trkpt lat="45.6920167" lon="10.0550833"><ele>206.0</ele><time>2026-04-25T09:53:42.228Z</time></trkpt><trkpt lat="45.69215" lon="10.0551433"><ele>206.0</ele><time>2026-04-25T09:53:43.228Z</time></trkpt><trkpt lat="45.6922683" lon="10.0551983"><ele>205.66666666666669</ele><time>2026-04-25T09:53:44.228Z</time></trkpt><trkpt lat="45.6923633" lon="10.0552433"><ele>205.33333333333334</ele><time>2026-04-25T09:53:45.228Z</time></trkpt><trkpt lat="45.6924433" lon="10.0552733"><ele>205.0</ele><time>2026-04-25T09:53:46.228Z</time></trkpt><trkpt lat="45.6925217" lon="10.055295"><ele>204.66666666666669</ele><time>2026-04-25T09:53:47.227Z</time></trkpt><trkpt lat="45.6926017" lon="10.0553033"><ele>204.33333333333334</ele><time>2026-04-25T09:53:48.228Z</time></trkpt><trkpt lat="45.6926867" lon="10.0553"><ele>204.0</ele><time>2026-04-25T09:53:49.229Z</time></trkpt><trkpt lat="45.69278" lon="10.0552783"><ele>200.75</ele><time>2026-04-25T09:53:50.228Z</time></trkpt><trkpt lat="45.69289" lon="10.05523"><ele>197.5</ele><time>2026-04-25T09:53:51.228Z</time></trkpt><trkpt lat="45.693025" lon="10.0551517"><ele>194.25</ele><time>2026-04-25T09:53:52.228Z</time></trkpt><trkpt lat="45.69318" lon="10.0550483"><ele>191.0</ele><time>2026-04-25T09:53:53.23Z</time></trkpt><trkpt lat="45.6933517" lon="10.0549367"><ele>195.33333333333331</ele><time>2026-04-25T09:53:54.228Z</time></trkpt><trkpt lat="45.69354" lon="10.05484"><ele>199.66666666666666</ele><time>2026-04-25T09:53:55.229Z</time></trkpt><trkpt lat="45.6937367" lon="10.0547333"><ele>204.0</ele><time>2026-04-25T09:53:56.229Z</time></trkpt><trkpt lat="45.6939267" lon="10.0546283"><ele>204.0</ele><time>2026-04-25T09:53:57.228Z</time></trkpt><trkpt lat="45.6941033" lon="10.0545333"><ele>204.0</ele><time>2026-04-25T09:53:58.228Z</time></trkpt><trkpt lat="45.69427" lon="10.05448"><ele>204.0</ele><time>2026-04-25T09:53:59.229Z</time></trkpt><trkpt lat="45.694435" lon="10.0544583"><ele>201.0</ele><time>2026-04-25T09:54:00.227Z</time></trkpt><trkpt lat="45.6946" lon="10.0544683"><ele>198.0</ele><time>2026-04-25T09:54:01.228Z</time></trkpt><trkpt lat="45.694775" lon="10.0544983"><ele>195.0</ele><time>2026-04-25T09:54:02.228Z</time></trkpt><trkpt lat="45.69495" lon="10.05454"><ele>195.0</ele><time>2026-04-25T09:54:03.229Z</time></trkpt><trkpt lat="45.69511" lon="10.0545867"><ele>195.0</ele><time>2026-04-25T09:54:04.227Z</time></trkpt><trkpt lat="45.6952567" lon="10.0546433"><ele>195.0</ele><time>2026-04-25T09:54:05.227Z</time></trkpt><trkpt lat="45.6953883" lon="10.0546983"><ele>195.0</ele><time>2026-04-25T09:54:06.228Z</time></trkpt><trkpt lat="45.695515" lon="10.0547383"><ele>195.0</ele><time>2026-04-25T09:54:07.227Z</time></trkpt><trkpt lat="45.69564" lon="10.0547367"><ele>195.0</ele><time>2026-04-25T09:54:08.227Z</time></trkpt><trkpt lat="45.6957667" lon="10.0546917"><ele>195.0</ele><time>2026-04-25T09:54:09.228Z</time></trkpt><trkpt lat="45.695895" lon="10.0546117"><ele>195.0</ele><time>2026-04-25T09:54:10.228Z</time></trkpt><trkpt lat="45.69602" lon="10.0544967"><ele>195.0</ele><time>2026-04-25T09:54:11.227Z</time></trkpt><trkpt lat="45.69615" lon="10.0543633"><ele>195.0</ele><time>2026-04-25T09:54:12.229Z</time></trkpt><trkpt lat="45.696285" lon="10.0542267"><ele>200.0</ele><time>2026-04-25T09:54:13.229Z</time></trkpt><trkpt lat="45.6964183" lon="10.05409"><ele>205.0</ele><time>2026-04-25T09:54:14.228Z</time></trkpt><trkpt lat="45.696545" lon="10.0539633"><ele>210.0</ele><time>2026-04-25T09:54:15.228Z</time></trkpt><trkpt lat="45.6966683" lon="10.0538467"><ele>210.0</ele><time>2026-04-25T09:54:16.228Z</time></trkpt><trkpt lat="45.696795" lon="10.0537383"><ele>210.0</ele><time>2026-04-25T09:54:17.227Z</time></trkpt><trkpt lat="45.6969267" lon="10.0536367"><ele>210.0</ele><time>2026-04-25T09:54:18.228Z</time></trkpt><trkpt lat="45.697065" lon="10.0535367"><ele>207.0</ele><time>2026-04-25T09:54:19.23Z</time></trkpt><trkpt lat="45.69721" lon="10.0534333"><ele>204.0</ele><time>2026-04-25T09:54:20.227Z</time></trkpt><trkpt lat="45.6973533" lon="10.0533267"><ele>201.0</ele><time>2026-04-25T09:54:21.228Z</time></trkpt><trkpt lat="45.6974983" lon="10.0532217"><ele>201.0</ele><time>2026-04-25T09:54:22.229Z</time></trkpt><trkpt lat="45.6976417" lon="10.0531167"><ele>201.0</ele><time>2026-04-25T09:54:23.228Z</time></trkpt><trkpt lat="45.6977833" lon="10.053015"><ele>201.0</ele><time>2026-04-25T09:54:24.232Z</time></trkpt><trkpt lat="45.697925" lon="10.0529133"><ele>198.66666666666669</ele><time>2026-04-25T09:54:25.228Z</time></trkpt><trkpt lat="45.6980683" lon="10.0528133"><ele>196.33333333333334</ele><time>2026-04-25T09:54:26.228Z</time></trkpt><trkpt lat="45.6982117" lon="10.05272"><ele>194.0</ele><time>2026-04-25T09:54:27.229Z</time></trkpt><trkpt lat="45.6983617" lon="10.052645"><ele>194.0</ele><time>2026-04-25T09:54:28.228Z</time></trkpt><trkpt lat="45.6985167" lon="10.0526067"><ele>194.0</ele><time>2026-04-25T09:54:29.228Z</time></trkpt><trkpt lat="45.698675" lon="10.0525917"><ele>194.0</ele><time>2026-04-25T09:54:30.23Z</time></trkpt><trkpt lat="45.6988333" lon="10.0525833"><ele>192.0</ele><time>2026-04-25T09:54:31.228Z</time></trkpt><trkpt lat="45.6989917" lon="10.0525717"><ele>190.0</ele><time>2026-04-25T09:54:32.229Z</time></trkpt><trkpt lat="45.699155" lon="10.0525383"><ele>188.0</ele><time>2026-04-25T09:54:33.228Z</time></trkpt><trkpt lat="45.6993167" lon="10.0524783"><ele>192.0</ele><time>2026-04-25T09:54:34.228Z</time></trkpt><trkpt lat="45.699475" lon="10.0524033"><ele>196.0</ele><time>2026-04-25T09:54:35.229Z</time></trkpt><trkpt lat="45.6996233" lon="10.052325"><ele>200.0</ele><time>2026-04-25T09:54:36.23Z</time></trkpt><trkpt lat="45.69976" lon="10.05225"><ele>200.0</ele><time>2026-04-25T09:54:37.227Z</time></trkpt><trkpt lat="45.69989" lon="10.0521817"><ele>200.0</ele><time>2026-04-25T09:54:38.228Z</time></trkpt><trkpt lat="45.7000167" lon="10.0521133"><ele>200.0</ele><time>2026-04-25T09:54:39.227Z</time></trkpt><trkpt lat="45.7001433" lon="10.0520467"><ele>200.0</ele><time>2026-04-25T09:54:40.228Z</time></trkpt><trkpt lat="45.7002717" lon="10.0519867"><ele>198.0</ele><time>2026-04-25T09:54:41.229Z</time></trkpt><trkpt lat="45.7004033" lon="10.0519417"><ele>196.0</ele><time>2026-04-25T09:54:42.228Z</time></trkpt><trkpt lat="45.7005383" lon="10.051905"><ele>194.0</ele><time>2026-04-25T09:54:43.228Z</time></trkpt><trkpt lat="45.7006783" lon="10.051875"><ele>192.0</ele><time>2026-04-25T09:54:44.229Z</time></trkpt><trkpt lat="45.700825" lon="10.0518483"><ele>192.0</ele><time>2026-04-25T09:54:45.233Z</time></trkpt><trkpt lat="45.7009767" lon="10.0518267"><ele>192.0</ele><time>2026-04-25T09:54:46.229Z</time></trkpt><trkpt lat="45.7011317" lon="10.0518067"><ele>192.0</ele><time>2026-04-25T09:54:47.227Z</time></trkpt><trkpt lat="45.7012833" lon="10.05178"><ele>190.5</ele><time>2026-04-25T09:54:48.227Z</time></trkpt><trkpt lat="45.7014233" lon="10.0517283"><ele>189.0</ele><time>2026-04-25T09:54:49.228Z</time></trkpt><trkpt lat="45.7015517" lon="10.0516567"><ele>187.5</ele><time>2026-04-25T09:54:50.228Z</time></trkpt><trkpt lat="45.7016667" lon="10.0515583"><ele>186.0</ele><time>2026-04-25T09:54:51.228Z</time></trkpt><trkpt lat="45.70178" lon="10.0514483"><ele>186.0</ele><time>2026-04-25T09:54:52.228Z</time></trkpt><trkpt lat="45.701895" lon="10.051335"><ele>186.0</ele><time>2026-04-25T09:54:53.229Z</time></trkpt><trkpt lat="45.702015" lon="10.0512167"><ele>186.0</ele><time>2026-04-25T09:54:54.228Z</time></trkpt><trkpt lat="45.7021383" lon="10.051095"><ele>186.0</ele><time>2026-04-25T09:54:55.227Z</time></trkpt><trkpt lat="45.70226" lon="10.0509667"><ele>186.0</ele><time>2026-04-25T09:54:56.228Z</time></trkpt><trkpt lat="45.702385" lon="10.0508367"><ele>186.0</ele><time>2026-04-25T09:54:57.232Z</time></trkpt><trkpt lat="45.70251" lon="10.0506917"><ele>186.0</ele><time>2026-04-25T09:54:58.227Z</time></trkpt><trkpt lat="45.70263" lon="10.050545"><ele>186.33333333333334</ele><time>2026-04-25T09:54:59.228Z</time></trkpt><trkpt lat="45.7027467" lon="10.0504"><ele>186.66666666666669</ele><time>2026-04-25T09:55:00.229Z</time></trkpt><trkpt lat="45.7028617" lon="10.0502467"><ele>187.0</ele><time>2026-04-25T09:55:01.23Z</time></trkpt><trkpt lat="45.7029733" lon="10.0500867"><ele>191.5</ele><time>2026-04-25T09:55:02.228Z</time></trkpt><trkpt lat="45.7030833" lon="10.0499367"><ele>196.0</ele><time>2026-04-25T09:55:03.229Z</time></trkpt><trkpt lat="45.7031917" lon="10.0497917"><ele>200.5</ele><time>2026-04-25T09:55:04.228Z</time></trkpt><trkpt lat="45.7033" lon="10.04965"><ele>205.0</ele><time>2026-04-25T09:55:05.228Z</time></trkpt><trkpt lat="45.7034067" lon="10.0495117"><ele>205.0</ele><time>2026-04-25T09:55:06.229Z</time></trkpt><trkpt lat="45.7035167" lon="10.0493817"><ele>205.0</ele><time>2026-04-25T09:55:07.229Z</time></trkpt><trkpt lat="45.7036333" lon="10.0492583"><ele>205.0</ele><time>2026-04-25T09:55:08.228Z</time></trkpt><trkpt lat="45.703755" lon="10.049145"><ele>205.0</ele><time>2026-04-25T09:55:09.228Z</time></trkpt><trkpt lat="45.703885" lon="10.0490467"><ele>211.0</ele><time>2026-04-25T09:55:10.227Z</time></trkpt><trkpt lat="45.704025" lon="10.0489633"><ele>217.0</ele><time>2026-04-25T09:55:11.23Z</time></trkpt><trkpt lat="45.7041667" lon="10.0488717"><ele>223.0</ele><time>2026-04-25T09:55:12.228Z</time></trkpt><trkpt lat="45.7043133" lon="10.0487883"><ele>215.0</ele><time>2026-04-25T09:55:13.227Z</time></trkpt><trkpt lat="45.7044633" lon="10.0487017"><ele>207.0</ele><time>2026-04-25T09:55:14.228Z</time></trkpt><trkpt lat="45.7046183" lon="10.048615"><ele>199.0</ele><time>2026-04-25T09:55:15.229Z</time></trkpt><trkpt lat="45.7047733" lon="10.0485267"><ele>199.0</ele><time>2026-04-25T09:55:16.228Z</time></trkpt><trkpt lat="45.70493" lon="10.0484367"><ele>199.0</ele><time>2026-04-25T09:55:17.23Z</time></trkpt><trkpt lat="45.7050883" lon="10.0483467"><ele>199.0</ele><time>2026-04-25T09:55:18.229Z</time></trkpt><trkpt lat="45.7052483" lon="10.048255"><ele>202.0</ele><time>2026-04-25T09:55:19.227Z</time></trkpt><trkpt lat="45.7054083" lon="10.048165"><ele>205.0</ele><time>2026-04-25T09:55:20.229Z</time></trkpt><trkpt lat="45.7055667" lon="10.0480783"><ele>208.0</ele><time>2026-04-25T09:55:21.229Z</time></trkpt><trkpt lat="45.7057217" lon="10.0479917"><ele>208.0</ele><time>2026-04-25T09:55:22.228Z</time></trkpt><trkpt lat="45.705875" lon="10.047905"><ele>208.0</ele><time>2026-04-25T09:55:23.229Z</time></trkpt><trkpt lat="45.7060267" lon="10.0478233"><ele>208.0</ele><time>2026-04-25T09:55:24.229Z</time></trkpt><trkpt lat="45.7061733" lon="10.0477517"><ele>203.25</ele><time>2026-04-25T09:55:25.228Z</time></trkpt><trkpt lat="45.706315" lon="10.04769"><ele>198.5</ele><time>2026-04-25T09:55:26.228Z</time></trkpt><trkpt lat="45.706455" lon="10.0476333"><ele>193.75</ele><time>2026-04-25T09:55:27.232Z</time></trkpt><trkpt lat="45.706595" lon="10.0475783"><ele>189.0</ele><time>2026-04-25T09:55:28.228Z</time></trkpt><trkpt lat="45.70673" lon="10.0475317"><ele>189.0</ele><time>2026-04-25T09:55:29.229Z</time></trkpt><trkpt lat="45.706865" lon="10.0474833"><ele>189.0</ele><time>2026-04-25T09:55:30.228Z</time></trkpt><trkpt lat="45.706995" lon="10.0474317"><ele>189.0</ele><time>2026-04-25T09:55:31.229Z</time></trkpt><trkpt lat="45.7071267" lon="10.0473633"><ele>189.0</ele><time>2026-04-25T09:55:32.228Z</time></trkpt><trkpt lat="45.7072533" lon="10.047295"><ele>189.5</ele><time>2026-04-25T09:55:33.23Z</time></trkpt><trkpt lat="45.70738" lon="10.0472317"><ele>190.0</ele><time>2026-04-25T09:55:34.228Z</time></trkpt><trkpt lat="45.7075117" lon="10.047155"><ele>190.5</ele><time>2026-04-25T09:55:35.229Z</time></trkpt><trkpt lat="45.7076483" lon="10.047085"><ele>191.0</ele><time>2026-04-25T09:55:36.228Z</time></trkpt><trkpt lat="45.7077833" lon="10.0470233"><ele>191.0</ele><time>2026-04-25T09:55:37.23Z</time></trkpt><trkpt lat="45.7079167" lon="10.0469683"><ele>191.0</ele><time>2026-04-25T09:55:38.23Z</time></trkpt><trkpt lat="45.70805" lon="10.0469117"><ele>191.0</ele><time>2026-04-25T09:55:39.229Z</time></trkpt><trkpt lat="45.7081833" lon="10.0468583"><ele>191.0</ele><time>2026-04-25T09:55:40.228Z</time></trkpt><trkpt lat="45.7083183" lon="10.046815"><ele>191.0</ele><time>2026-04-25T09:55:41.228Z</time></trkpt><trkpt lat="45.7084483" lon="10.0467867"><ele>191.0</ele><time>2026-04-25T09:55:42.228Z</time></trkpt><trkpt lat="45.70857" lon="10.0467667"><ele>191.0</ele><time>2026-04-25T09:55:43.229Z</time></trkpt><trkpt lat="45.7086883" lon="10.0467683"><ele>191.0</ele><time>2026-04-25T09:55:44.229Z</time></trkpt><trkpt lat="45.7088033" lon="10.0467933"><ele>192.5</ele><time>2026-04-25T09:55:45.229Z</time></trkpt><trkpt lat="45.70892" lon="10.0468417"><ele>194.0</ele><time>2026-04-25T09:55:46.229Z</time></trkpt><trkpt lat="45.70904" lon="10.0469033"><ele>195.5</ele><time>2026-04-25T09:55:47.229Z</time></trkpt><trkpt lat="45.70916" lon="10.0469667"><ele>197.0</ele><time>2026-04-25T09:55:48.228Z</time></trkpt><trkpt lat="45.709275" lon="10.0470367"><ele>197.0</ele><time>2026-04-25T09:55:49.229Z</time></trkpt><trkpt lat="45.7093783" lon="10.0471167"><ele>197.0</ele><time>2026-04-25T09:55:50.229Z</time></trkpt><trkpt lat="45.70947" lon="10.0472133"><ele>197.0</ele><time>2026-04-25T09:55:51.229Z</time></trkpt><trkpt lat="45.7095533" lon="10.047325"><ele>197.0</ele><time>2026-04-25T09:55:52.23Z</time></trkpt><trkpt lat="45.70963" lon="10.0474567"><ele>195.5</ele><time>2026-04-25T09:55:53.228Z</time></trkpt><trkpt lat="45.7097033" lon="10.0475983"><ele>194.0</ele><time>2026-04-25T09:55:54.229Z</time></trkpt><trkpt lat="45.7097767" lon="10.0477283"><ele>192.5</ele><time>2026-04-25T09:55:55.227Z</time></trkpt><trkpt lat="45.7098583" lon="10.0478283"><ele>191.0</ele><time>2026-04-25T09:55:56.228Z</time></trkpt><trkpt lat="45.7099517" lon="10.0478933"><ele>191.0</ele><time>2026-04-25T09:55:57.229Z</time></trkpt><trkpt lat="45.7100533" lon="10.0479383"><ele>191.0</ele><time>2026-04-25T09:55:58.228Z</time></trkpt><trkpt lat="45.71016" lon="10.047975"><ele>191.0</ele><time>2026-04-25T09:55:59.229Z</time></trkpt><trkpt lat="45.71027" lon="10.0480083"><ele>191.0</ele><time>2026-04-25T09:56:00.228Z</time></trkpt><trkpt lat="45.7103883" lon="10.048045"><ele>191.75</ele><time>2026-04-25T09:56:01.229Z</time></trkpt><trkpt lat="45.7105067" lon="10.0480783"><ele>192.5</ele><time>2026-04-25T09:56:02.228Z</time></trkpt><trkpt lat="45.7106317" lon="10.0481017"><ele>193.25</ele><time>2026-04-25T09:56:03.229Z</time></trkpt><trkpt lat="45.71076" lon="10.048105"><ele>194.0</ele><time>2026-04-25T09:56:04.228Z</time></trkpt><trkpt lat="45.710885" lon="10.048075"><ele>194.0</ele><time>2026-04-25T09:56:05.228Z</time></trkpt><trkpt lat="45.7110033" lon="10.048015"><ele>194.0</ele><time>2026-04-25T09:56:06.229Z</time></trkpt><trkpt lat="45.7111217" lon="10.0479383"><ele>194.0</ele><time>2026-04-25T09:56:07.23Z</time></trkpt><trkpt lat="45.7112283" lon="10.0478383"><ele>194.0</ele><time>2026-04-25T09:56:08.23Z</time></trkpt><trkpt lat="45.7113267" lon="10.0477183"><ele>194.0</ele><time>2026-04-25T09:56:09.232Z</time></trkpt><trkpt lat="45.711415" lon="10.0475783"><ele>194.0</ele><time>2026-04-25T09:56:10.228Z</time></trkpt><trkpt lat="45.7114967" lon="10.04742"><ele>194.0</ele><time>2026-04-25T09:56:11.228Z</time></trkpt><trkpt lat="45.7115817" lon="10.0472517"><ele>194.0</ele><time>2026-04-25T09:56:12.228Z</time></trkpt><trkpt lat="45.711665" lon="10.047085"><ele>194.0</ele><time>2026-04-25T09:56:13.227Z</time></trkpt><trkpt lat="45.711745" lon="10.0469317"><ele>194.0</ele><time>2026-04-25T09:56:14.228Z</time></trkpt><trkpt lat="45.7118133" lon="10.0468017"><ele>194.0</ele><time>2026-04-25T09:56:15.229Z</time></trkpt><trkpt lat="45.7118883" lon="10.0466967"><ele>194.0</ele><time>2026-04-25T09:56:16.229Z</time></trkpt><trkpt lat="45.711975" lon="10.0466283"><ele>195.79999999999998</ele><time>2026-04-25T09:56:17.228Z</time></trkpt><trkpt lat="45.7120717" lon="10.0466133"><ele>197.6</ele><time>2026-04-25T09:56:18.229Z</time></trkpt><trkpt lat="45.712175" lon="10.0466333"><ele>199.4</ele><time>2026-04-25T09:56:19.227Z</time></trkpt><trkpt lat="45.7122833" lon="10.0466833"><ele>201.2</ele><time>2026-04-25T09:56:20.228Z</time></trkpt><trkpt lat="45.7123983" lon="10.0467433"><ele>203.0</ele><time>2026-04-25T09:56:21.227Z</time></trkpt><trkpt lat="45.7125183" lon="10.04681"><ele>203.0</ele><time>2026-04-25T09:56:22.227Z</time></trkpt><trkpt lat="45.7126433" lon="10.0468767"><ele>203.0</ele><time>2026-04-25T09:56:23.229Z</time></trkpt><trkpt lat="45.7127717" lon="10.046945"><ele>203.0</ele><time>2026-04-25T09:56:24.227Z</time></trkpt><trkpt lat="45.7129033" lon="10.0470117"><ele>203.0</ele><time>2026-04-25T09:56:25.228Z</time></trkpt><trkpt lat="45.7130367" lon="10.0470717"><ele>206.66666666666669</ele><time>2026-04-25T09:56:26.228Z</time></trkpt><trkpt lat="45.7131883" lon="10.0471067"><ele>210.33333333333331</ele><time>2026-04-25T09:56:27.227Z</time></trkpt><trkpt lat="45.713345" lon="10.047135"><ele>214.0</ele><time>2026-04-25T09:56:28.227Z</time></trkpt><trkpt lat="45.7135033" lon="10.0471583"><ele>213.5</ele><time>2026-04-25T09:56:29.228Z</time></trkpt><trkpt lat="45.7136533" lon="10.0471883"><ele>213.0</ele><time>2026-04-25T09:56:30.228Z</time></trkpt><trkpt lat="45.7137967" lon="10.0472233"><ele>212.5</ele><time>2026-04-25T09:56:31.227Z</time></trkpt><trkpt lat="45.7139333" lon="10.047255"><ele>212.0</ele><time>2026-04-25T09:56:32.227Z</time></trkpt><trkpt lat="45.7140667" lon="10.047285"><ele>212.0</ele><time>2026-04-25T09:56:33.228Z</time></trkpt><trkpt lat="45.7142017" lon="10.0473233"><ele>212.0</ele><time>2026-04-25T09:56:34.228Z</time></trkpt><trkpt lat="45.7143333" lon="10.0473633"><ele>212.0</ele><time>2026-04-25T09:56:35.229Z</time></trkpt><trkpt lat="45.7144683" lon="10.0474017"><ele>212.0</ele><time>2026-04-25T09:56:36.229Z</time></trkpt><trkpt lat="45.714605" lon="10.0474367"><ele>207.0</ele><time>2026-04-25T09:56:37.227Z</time></trkpt><trkpt lat="45.7147417" lon="10.047465"><ele>202.0</ele><time>2026-04-25T09:56:38.227Z</time></trkpt><trkpt lat="45.71488" lon="10.0474867"><ele>197.0</ele><time>2026-04-25T09:56:39.228Z</time></trkpt><trkpt lat="45.71502" lon="10.0475067"><ele>192.0</ele><time>2026-04-25T09:56:40.227Z</time></trkpt><trkpt lat="45.715165" lon="10.047515"><ele>193.25</ele><time>2026-04-25T09:56:41.227Z</time></trkpt><trkpt lat="45.7153067" lon="10.0475183"><ele>194.5</ele><time>2026-04-25T09:56:42.227Z</time></trkpt><trkpt lat="45.7154483" lon="10.0475267"><ele>195.75</ele><time>2026-04-25T09:56:43.227Z</time></trkpt><trkpt lat="45.71559" lon="10.04754"><ele>197.0</ele><time>2026-04-25T09:56:44.228Z</time></trkpt><trkpt lat="45.7157283" lon="10.0475583"><ele>197.0</ele><time>2026-04-25T09:56:45.229Z</time></trkpt><trkpt lat="45.715865" lon="10.04758"><ele>197.0</ele><time>2026-04-25T09:56:46.227Z</time></trkpt><trkpt lat="45.7159967" lon="10.0476083"><ele>197.0</ele><time>2026-04-25T09:56:47.227Z</time></trkpt><trkpt lat="45.716125" lon="10.0476383"><ele>197.0</ele><time>2026-04-25T09:56:48.228Z</time></trkpt><trkpt lat="45.7162533" lon="10.04767"><ele>198.25</ele><time>2026-04-25T09:56:49.227Z</time></trkpt><trkpt lat="45.71638" lon="10.0477033"><ele>199.5</ele><time>2026-04-25T09:56:50.227Z</time></trkpt><trkpt lat="45.7165033" lon="10.0477483"><ele>200.75</ele><time>2026-04-25T09:56:51.228Z</time></trkpt><trkpt lat="45.7166233" lon="10.0478017"><ele>202.0</ele><time>2026-04-25T09:56:52.227Z</time></trkpt><trkpt lat="45.7167417" lon="10.047855"><ele>202.0</ele><time>2026-04-25T09:56:53.227Z</time></trkpt><trkpt lat="45.7168617" lon="10.0479"><ele>202.0</ele><time>2026-04-25T09:56:54.228Z</time></trkpt><trkpt lat="45.716985" lon="10.047925"><ele>202.0</ele><time>2026-04-25T09:56:55.228Z</time></trkpt><trkpt lat="45.7171083" lon="10.0479317"><ele>202.0</ele><time>2026-04-25T09:56:56.228Z</time></trkpt><trkpt lat="45.717225" lon="10.0479167"><ele>201.2</ele><time>2026-04-25T09:56:57.228Z</time></trkpt><trkpt lat="45.7173317" lon="10.0478883"><ele>200.39999999999998</ele><time>2026-04-25T09:56:58.227Z</time></trkpt><trkpt lat="45.7174333" lon="10.0478617"><ele>199.60000000000002</ele><time>2026-04-25T09:56:59.228Z</time></trkpt><trkpt lat="45.7175333" lon="10.04785"><ele>198.8</ele><time>2026-04-25T09:57:00.23Z</time></trkpt><trkpt lat="45.7176367" lon="10.0478533"><ele>198.0</ele><time>2026-04-25T09:57:01.23Z</time></trkpt><trkpt lat="45.7177517" lon="10.047865"><ele>197.75</ele><time>2026-04-25T09:57:02.23Z</time></trkpt><trkpt lat="45.7178767" lon="10.0478833"><ele>197.5</ele><time>2026-04-25T09:57:03.23Z</time></trkpt><trkpt lat="45.7180083" lon="10.0479083"><ele>197.25</ele><time>2026-04-25T09:57:04.23Z</time></trkpt><trkpt lat="45.718145" lon="10.0479383"><ele>197.0</ele><time>2026-04-25T09:57:05.23Z</time></trkpt><trkpt lat="45.7182833" lon="10.047975"><ele>197.0</ele><time>2026-04-25T09:57:06.228Z</time></trkpt><trkpt lat="45.7184233" lon="10.0480233"><ele>197.0</ele><time>2026-04-25T09:57:07.229Z</time></trkpt><trkpt lat="45.71856" lon="10.0480783"><ele>197.0</ele><time>2026-04-25T09:57:08.229Z</time></trkpt><trkpt lat="45.7186983" lon="10.0481317"><ele>197.0</ele><time>2026-04-25T09:57:09.23Z</time></trkpt><trkpt lat="45.7188417" lon="10.0481833"><ele>195.25</ele><time>2026-04-25T09:57:10.229Z</time></trkpt><trkpt lat="45.7189883" lon="10.0482367"><ele>193.5</ele><time>2026-04-25T09:57:11.228Z</time></trkpt><trkpt lat="45.7191317" lon="10.0482867"><ele>191.75</ele><time>2026-04-25T09:57:12.23Z</time></trkpt><trkpt lat="45.7192667" lon="10.04832"><ele>190.0</ele><time>2026-04-25T09:57:13.229Z</time></trkpt><trkpt lat="45.7193917" lon="10.0483383"><ele>193.5</ele><time>2026-04-25T09:57:14.23Z</time></trkpt><trkpt lat="45.7195117" lon="10.0483467"><ele>197.0</ele><time>2026-04-25T09:57:15.229Z</time></trkpt><trkpt lat="45.7196317" lon="10.0483483"><ele>200.5</ele><time>2026-04-25T09:57:16.228Z</time></trkpt><trkpt lat="45.7197517" lon="10.0483567"><ele>204.0</ele><time>2026-04-25T09:57:17.227Z</time></trkpt><trkpt lat="45.719875" lon="10.04837"><ele>204.0</ele><time>2026-04-25T09:57:18.228Z</time></trkpt><trkpt lat="45.720005" lon="10.0483867"><ele>204.0</ele><time>2026-04-25T09:57:19.228Z</time></trkpt><trkpt lat="45.7201383" lon="10.048415"><ele>204.0</ele><time>2026-04-25T09:57:20.228Z</time></trkpt><trkpt lat="45.7202767" lon="10.0484533"><ele>204.0</ele><time>2026-04-25T09:57:21.227Z</time></trkpt><trkpt lat="45.720415" lon="10.048495"><ele>207.0</ele><time>2026-04-25T09:57:22.227Z</time></trkpt><trkpt lat="45.7205467" lon="10.0485483"><ele>210.0</ele><time>2026-04-25T09:57:23.227Z</time></trkpt><trkpt lat="45.7206683" lon="10.048615"><ele>213.0</ele><time>2026-04-25T09:57:24.227Z</time></trkpt><trkpt lat="45.7207817" lon="10.0486783"><ele>216.0</ele><time>2026-04-25T09:57:25.228Z</time></trkpt><trkpt lat="45.720885" lon="10.048735"><ele>216.0</ele><time>2026-04-25T09:57:26.227Z</time></trkpt><trkpt lat="45.7209883" lon="10.04878"><ele>216.0</ele><time>2026-04-25T09:57:27.227Z</time></trkpt><trkpt lat="45.7211" lon="10.04882"><ele>216.0</ele><time>2026-04-25T09:57:28.228Z</time></trkpt><trkpt lat="45.7212183" lon="10.0488567"><ele>216.0</ele><time>2026-04-25T09:57:29.228Z</time></trkpt><trkpt lat="45.7213467" lon="10.0488867"><ele>220.0</ele><time>2026-04-25T09:57:30.229Z</time></trkpt><trkpt lat="45.7214883" lon="10.0489133"><ele>224.0</ele><time>2026-04-25T09:57:31.229Z</time></trkpt><trkpt lat="45.7216367" lon="10.0489483"><ele>228.0</ele><time>2026-04-25T09:57:32.228Z</time></trkpt><trkpt lat="45.7217883" lon="10.0489867"><ele>232.0</ele><time>2026-04-25T09:57:33.227Z</time></trkpt><trkpt lat="45.7219417" lon="10.0490233"><ele>234.66666666666666</ele><time>2026-04-25T09:57:34.227Z</time></trkpt><trkpt lat="45.7220983" lon="10.0490533"><ele>237.33333333333331</ele><time>2026-04-25T09:57:35.228Z</time></trkpt><trkpt lat="45.7222533" lon="10.0490883"><ele>240.0</ele><time>2026-04-25T09:57:36.231Z</time></trkpt><trkpt lat="45.7224067" lon="10.0491133"><ele>224.66666666666669</ele><time>2026-04-25T09:57:37.229Z</time></trkpt><trkpt lat="45.7225683" lon="10.04913"><ele>209.33333333333334</ele><time>2026-04-25T09:57:38.227Z</time></trkpt><trkpt lat="45.7227317" lon="10.0491367"><ele>194.0</ele><time>2026-04-25T09:57:39.228Z</time></trkpt><trkpt lat="45.722895" lon="10.0491467"><ele>194.0</ele><time>2026-04-25T09:57:40.227Z</time></trkpt><trkpt lat="45.72306" lon="10.0491567"><ele>194.0</ele><time>2026-04-25T09:57:41.227Z</time></trkpt><trkpt lat="45.72322" lon="10.0491633"><ele>194.0</ele><time>2026-04-25T09:57:42.227Z</time></trkpt><trkpt lat="45.723385" lon="10.0491633"><ele>194.0</ele><time>2026-04-25T09:57:43.228Z</time></trkpt><trkpt lat="45.7235567" lon="10.0491717"><ele>194.0</ele><time>2026-04-25T09:57:44.227Z</time></trkpt><trkpt lat="45.72373" lon="10.0491867"><ele>194.0</ele><time>2026-04-25T09:57:45.228Z</time></trkpt><trkpt lat="45.7239017" lon="10.0492133"><ele>196.0</ele><time>2026-04-25T09:57:46.228Z</time></trkpt><trkpt lat="45.7240717" lon="10.0492583"><ele>198.0</ele><time>2026-04-25T09:57:47.227Z</time></trkpt><trkpt lat="45.7242433" lon="10.0493067"><ele>200.0</ele><time>2026-04-25T09:57:48.227Z</time></trkpt><trkpt lat="45.72441" lon="10.0493517"><ele>203.33333333333334</ele><time>2026-04-25T09:57:49.227Z</time></trkpt><trkpt lat="45.724575" lon="10.0493933"><ele>206.66666666666669</ele><time>2026-04-25T09:57:50.227Z</time></trkpt><trkpt lat="45.724735" lon="10.049425"><ele>210.0</ele><time>2026-04-25T09:57:51.229Z</time></trkpt><trkpt lat="45.7248983" lon="10.0494483"><ele>210.0</ele><time>2026-04-25T09:57:52.228Z</time></trkpt><trkpt lat="45.7250617" lon="10.0494567"><ele>210.0</ele><time>2026-04-25T09:57:53.229Z</time></trkpt><trkpt lat="45.72523" lon="10.04946"><ele>210.0</ele><time>2026-04-25T09:57:54.228Z</time></trkpt><trkpt lat="45.7254" lon="10.0494667"><ele>210.33333333333331</ele><time>2026-04-25T09:57:55.228Z</time></trkpt><trkpt lat="45.7255717" lon="10.0494767"><ele>210.66666666666666</ele><time>2026-04-25T09:57:56.229Z</time></trkpt><trkpt lat="45.72574" lon="10.04949"><ele>211.0</ele><time>2026-04-25T09:57:57.228Z</time></trkpt><trkpt lat="45.7259083" lon="10.0495033"><ele>211.0</ele><time>2026-04-25T09:57:58.228Z</time></trkpt><trkpt lat="45.72608" lon="10.04951"><ele>211.0</ele><time>2026-04-25T09:57:59.229Z</time></trkpt><trkpt lat="45.7262533" lon="10.0495233"><ele>211.0</ele><time>2026-04-25T09:58:00.228Z</time></trkpt><trkpt lat="45.726425" lon="10.0495283"><ele>211.0</ele><time>2026-04-25T09:58:01.228Z</time></trkpt><trkpt lat="45.7265967" lon="10.0495333"><ele>211.0</ele><time>2026-04-25T09:58:02.229Z</time></trkpt><trkpt lat="45.7267667" lon="10.0495317"><ele>211.0</ele><time>2026-04-25T09:58:03.228Z</time></trkpt><trkpt lat="45.7269367" lon="10.0495317"><ele>213.33333333333331</ele><time>2026-04-25T09:58:04.228Z</time></trkpt><trkpt lat="45.7271033" lon="10.0495417"><ele>215.66666666666669</ele><time>2026-04-25T09:58:05.228Z</time></trkpt><trkpt lat="45.7272633" lon="10.0495767"><ele>218.0</ele><time>2026-04-25T09:58:06.229Z</time></trkpt><trkpt lat="45.7274183" lon="10.049625"><ele>218.0</ele><time>2026-04-25T09:58:07.228Z</time></trkpt><trkpt lat="45.7275717" lon="10.04968"><ele>218.0</ele><time>2026-04-25T09:58:08.228Z</time></trkpt><trkpt lat="45.727725" lon="10.04974"><ele>218.0</ele><time>2026-04-25T09:58:09.231Z</time></trkpt><trkpt lat="45.72788" lon="10.04981"><ele>211.0</ele><time>2026-04-25T09:58:10.229Z</time></trkpt><trkpt lat="45.7280367" lon="10.0498833"><ele>204.0</ele><time>2026-04-25T09:58:11.23Z</time></trkpt><trkpt lat="45.7281983" lon="10.0499567"><ele>197.0</ele><time>2026-04-25T09:58:12.228Z</time></trkpt><trkpt lat="45.7283567" lon="10.0500367"><ele>197.0</ele><time>2026-04-25T09:58:13.227Z</time></trkpt><trkpt lat="45.728515" lon="10.0501217"><ele>197.0</ele><time>2026-04-25T09:58:14.228Z</time></trkpt><trkpt lat="45.7286733" lon="10.0502067"><ele>197.0</ele><time>2026-04-25T09:58:15.227Z</time></trkpt><trkpt lat="45.7288283" lon="10.0502917"><ele>204.33333333333334</ele><time>2026-04-25T09:58:16.228Z</time></trkpt><trkpt lat="45.72898" lon="10.0503683"><ele>211.66666666666669</ele><time>2026-04-25T09:58:17.229Z</time></trkpt><trkpt lat="45.7291283" lon="10.0504467"><ele>219.0</ele><time>2026-04-25T09:58:18.227Z</time></trkpt><trkpt lat="45.7292767" lon="10.050515"><ele>223.25</ele><time>2026-04-25T09:58:19.228Z</time></trkpt><trkpt lat="45.72942" lon="10.0505667"><ele>227.5</ele><time>2026-04-25T09:58:20.227Z</time></trkpt><trkpt lat="45.7295567" lon="10.0506083"><ele>231.75</ele><time>2026-04-25T09:58:21.228Z</time></trkpt><trkpt lat="45.7296883" lon="10.050635"><ele>236.0</ele><time>2026-04-25T09:58:22.227Z</time></trkpt><trkpt lat="45.7298117" lon="10.05065"><ele>236.0</ele><time>2026-04-25T09:58:23.227Z</time></trkpt><trkpt lat="45.729925" lon="10.0506667"><ele>236.0</ele><time>2026-04-25T09:58:24.229Z</time></trkpt><trkpt lat="45.7300333" lon="10.0506833"><ele>236.0</ele><time>2026-04-25T09:58:25.227Z</time></trkpt><trkpt lat="45.7301417" lon="10.050715"><ele>236.0</ele><time>2026-04-25T09:58:26.228Z</time></trkpt><trkpt lat="45.7302483" lon="10.0507833"><ele>233.0</ele><time>2026-04-25T09:58:27.233Z</time></trkpt><trkpt lat="45.730345" lon="10.0508817"><ele>230.0</ele><time>2026-04-25T09:58:28.228Z</time></trkpt><trkpt lat="45.73044" lon="10.051"><ele>227.0</ele><time>2026-04-25T09:58:29.227Z</time></trkpt><trkpt lat="45.730535" lon="10.0511267"><ele>224.0</ele><time>2026-04-25T09:58:30.23Z</time></trkpt><trkpt lat="45.7306333" lon="10.05126"><ele>224.0</ele><time>2026-04-25T09:58:31.228Z</time></trkpt><trkpt lat="45.730745" lon="10.0513817"><ele>224.0</ele><time>2026-04-25T09:58:32.229Z</time></trkpt><trkpt lat="45.7308667" lon="10.0514833"><ele>224.0</ele><time>2026-04-25T09:58:33.228Z</time></trkpt><trkpt lat="45.7309967" lon="10.05158"><ele>224.0</ele><time>2026-04-25T09:58:34.227Z</time></trkpt><trkpt lat="45.731125" lon="10.0516867"><ele>224.33333333333334</ele><time>2026-04-25T09:58:35.228Z</time></trkpt><trkpt lat="45.7312517" lon="10.0518067"><ele>224.66666666666669</ele><time>2026-04-25T09:58:36.23Z</time></trkpt><trkpt lat="45.73138" lon="10.051935"><ele>225.0</ele><time>2026-04-25T09:58:37.227Z</time></trkpt><trkpt lat="45.7315183" lon="10.0520533"><ele>225.0</ele><time>2026-04-25T09:58:38.227Z</time></trkpt><trkpt lat="45.73166" lon="10.0521533"><ele>225.0</ele><time>2026-04-25T09:58:39.229Z</time></trkpt><trkpt lat="45.7317983" lon="10.0522333"><ele>225.0</ele><time>2026-04-25T09:58:40.228Z</time></trkpt><trkpt lat="45.731935" lon="10.05231"><ele>221.5</ele><time>2026-04-25T09:58:41.228Z</time></trkpt><trkpt lat="45.732075" lon="10.0523833"><ele>218.0</ele><time>2026-04-25T09:58:42.228Z</time></trkpt><trkpt lat="45.7322167" lon="10.05245"><ele>214.5</ele><time>2026-04-25T09:58:43.227Z</time></trkpt><trkpt lat="45.7323617" lon="10.0525017"><ele>211.0</ele><time>2026-04-25T09:58:44.227Z</time></trkpt><trkpt lat="45.7325083" lon="10.0525567"><ele>211.0</ele><time>2026-04-25T09:58:45.227Z</time></trkpt><trkpt lat="45.7326517" lon="10.0526067"><ele>211.0</ele><time>2026-04-25T09:58:46.227Z</time></trkpt><trkpt lat="45.7327967" lon="10.05266"><ele>211.0</ele><time>2026-04-25T09:58:47.23Z</time></trkpt><trkpt lat="45.7329417" lon="10.0527217"><ele>211.0</ele><time>2026-04-25T09:58:48.231Z</time></trkpt><trkpt lat="45.73309" lon="10.052785"><ele>224.33333333333331</ele><time>2026-04-25T09:58:49.23Z</time></trkpt><trkpt lat="45.73324" lon="10.0528567"><ele>237.66666666666669</ele><time>2026-04-25T09:58:50.23Z</time></trkpt><trkpt lat="45.7333917" lon="10.0529283"><ele>251.0</ele><time>2026-04-25T09:58:51.229Z</time></trkpt><trkpt lat="45.7335417" lon="10.0529983"><ele>197.0</ele><time>2026-04-25T09:58:52.23Z</time></trkpt><trkpt lat="45.7429583" lon="10.0493933"><ele>197.0</ele><time>2026-04-25T09:59:58.23Z</time></trkpt><trkpt lat="45.7431017" lon="10.049285"><ele>197.0</ele><time>2026-04-25T09:59:59.232Z</time></trkpt><trkpt lat="45.7432333" lon="10.04914"><ele>197.0</ele><time>2026-04-25T10:00:00.231Z</time></trkpt><trkpt lat="45.74338" lon="10.048985"><ele>198.0</ele><time>2026-04-25T10:00:01.23Z</time></trkpt><trkpt lat="45.7435167" lon="10.0488417"><ele>199.0</ele><time>2026-04-25T10:00:02.23Z</time></trkpt><trkpt lat="45.7436517" lon="10.0487117"><ele>200.0</ele><time>2026-04-25T10:00:03.229Z</time></trkpt><trkpt lat="45.7437883" lon="10.0485983"><ele>200.0</ele><time>2026-04-25T10:00:04.229Z</time></trkpt><trkpt lat="45.7439267" lon="10.0484983"><ele>200.0</ele><time>2026-04-25T10:00:05.229Z</time></trkpt><trkpt lat="45.7440667" lon="10.048395"><ele>200.0</ele><time>2026-04-25T10:00:06.229Z</time></trkpt><trkpt lat="45.7442033" lon="10.0482817"><ele>202.66666666666669</ele><time>2026-04-25T10:00:07.23Z</time></trkpt><trkpt lat="45.7443317" lon="10.048155"><ele>205.33333333333331</ele><time>2026-04-25T10:00:08.23Z</time></trkpt><trkpt lat="45.7444517" lon="10.0480167"><ele>208.0</ele><time>2026-04-25T10:00:09.229Z</time></trkpt><trkpt lat="45.7445783" lon="10.0478933"><ele>208.0</ele><time>2026-04-25T10:00:10.227Z</time></trkpt><trkpt lat="45.7447117" lon="10.0477783"><ele>208.0</ele><time>2026-04-25T10:00:11.228Z</time></trkpt><trkpt lat="45.7448467" lon="10.047675"><ele>208.0</ele><time>2026-04-25T10:00:12.227Z</time></trkpt><trkpt lat="45.7449867" lon="10.0475983"><ele>208.0</ele><time>2026-04-25T10:00:13.229Z</time></trkpt><trkpt lat="45.7451317" lon="10.0475483"><ele>208.0</ele><time>2026-04-25T10:00:14.227Z</time></trkpt><trkpt lat="45.745275" lon="10.0475067"><ele>208.0</ele><time>2026-04-25T10:00:15.228Z</time></trkpt><trkpt lat="45.7454217" lon="10.04746"><ele>208.0</ele><time>2026-04-25T10:00:16.227Z</time></trkpt><trkpt lat="45.7455683" lon="10.0474067"><ele>203.75</ele><time>2026-04-25T10:00:17.228Z</time></trkpt><trkpt lat="45.7457133" lon="10.0473417"><ele>199.5</ele><time>2026-04-25T10:00:18.23Z</time></trkpt><trkpt lat="45.7458517" lon="10.0472717"><ele>195.25</ele><time>2026-04-25T10:00:19.228Z</time></trkpt><trkpt lat="45.7459867" lon="10.047195"><ele>191.0</ele><time>2026-04-25T10:00:20.23Z</time></trkpt><trkpt lat="45.7461083" lon="10.047105"><ele>191.0</ele><time>2026-04-25T10:00:21.229Z</time></trkpt><trkpt lat="45.7462217" lon="10.0469917"><ele>191.0</ele><time>2026-04-25T10:00:22.229Z</time></trkpt><trkpt lat="45.7463217" lon="10.0468567"><ele>191.0</ele><time>2026-04-25T10:00:23.228Z</time></trkpt><trkpt lat="45.74642" lon="10.0467083"><ele>191.0</ele><time>2026-04-25T10:00:24.228Z</time></trkpt><trkpt lat="45.7465233" lon="10.04656"><ele>189.0</ele><time>2026-04-25T10:00:25.228Z</time></trkpt><trkpt lat="45.7466267" lon="10.04641"><ele>187.0</ele><time>2026-04-25T10:00:26.228Z</time></trkpt><trkpt lat="45.7467233" lon="10.046265"><ele>185.0</ele><time>2026-04-25T10:00:27.23Z</time></trkpt><trkpt lat="45.7468083" lon="10.04612"><ele>183.0</ele><time>2026-04-25T10:00:28.227Z</time></trkpt><trkpt lat="45.7468783" lon="10.04596"><ele>183.75</ele><time>2026-04-25T10:00:29.227Z</time></trkpt><trkpt lat="45.7469367" lon="10.0457833"><ele>184.5</ele><time>2026-04-25T10:00:30.229Z</time></trkpt><trkpt lat="45.74699" lon="10.045595"><ele>185.25</ele><time>2026-04-25T10:00:31.229Z</time></trkpt><trkpt lat="45.74704" lon="10.0453967"><ele>186.0</ele><time>2026-04-25T10:00:32.23Z</time></trkpt><trkpt lat="45.74709" lon="10.0451917"><ele>186.0</ele><time>2026-04-25T10:00:33.23Z</time></trkpt><trkpt lat="45.7471417" lon="10.0449833"><ele>186.0</ele><time>2026-04-25T10:00:34.23Z</time></trkpt><trkpt lat="45.7471933" lon="10.044775"><ele>186.0</ele><time>2026-04-25T10:00:35.232Z</time></trkpt><trkpt lat="45.7472467" lon="10.0445717"><ele>188.25</ele><time>2026-04-25T10:00:36.229Z</time></trkpt><trkpt lat="45.7473167" lon="10.044385"><ele>190.5</ele><time>2026-04-25T10:00:37.23Z</time></trkpt><trkpt lat="45.747405" lon="10.04422"><ele>192.75</ele><time>2026-04-25T10:00:38.23Z</time></trkpt><trkpt lat="45.7475017" lon="10.0440633"><ele>195.0</ele><time>2026-04-25T10:00:39.23Z</time></trkpt><trkpt lat="45.7475967" lon="10.0439117"><ele>194.75</ele><time>2026-04-25T10:00:40.231Z</time></trkpt><trkpt lat="45.7476933" lon="10.0437633"><ele>194.5</ele><time>2026-04-25T10:00:41.229Z</time></trkpt><trkpt lat="45.7477933" lon="10.0436183"><ele>194.25</ele><time>2026-04-25T10:00:42.229Z</time></trkpt><trkpt lat="45.7478917" lon="10.0434683"><ele>194.0</ele><time>2026-04-25T10:00:43.23Z</time></trkpt><trkpt lat="45.74799" lon="10.0433167"><ele>200.25</ele><time>2026-04-25T10:00:44.23Z</time></trkpt><trkpt lat="45.7480883" lon="10.043165"><ele>206.5</ele><time>2026-04-25T10:00:45.232Z</time></trkpt><trkpt lat="45.7481867" lon="10.0430233"><ele>212.75</ele><time>2026-04-25T10:00:46.229Z</time></trkpt><trkpt lat="45.7482917" lon="10.0429067"><ele>219.0</ele><time>2026-04-25T10:00:47.228Z</time></trkpt><trkpt lat="45.7484133" lon="10.0428183"><ele>213.25</ele><time>2026-04-25T10:00:48.229Z</time></trkpt><trkpt lat="45.7485483" lon="10.0427517"><ele>207.5</ele><time>2026-04-25T10:00:49.229Z</time></trkpt><trkpt lat="45.7486817" lon="10.0426967"><ele>201.75</ele><time>2026-04-25T10:00:50.229Z</time></trkpt><trkpt lat="45.7488133" lon="10.0426417"><ele>196.0</ele><time>2026-04-25T10:00:51.23Z</time></trkpt><trkpt lat="45.74894" lon="10.0425633"><ele>194.25</ele><time>2026-04-25T10:00:52.23Z</time></trkpt><trkpt lat="45.74906" lon="10.0424567"><ele>192.5</ele><time>2026-04-25T10:00:53.228Z</time></trkpt><trkpt lat="45.7491717" lon="10.04232"><ele>190.75</ele><time>2026-04-25T10:00:54.231Z</time></trkpt><trkpt lat="45.749275" lon="10.0421633"><ele>189.0</ele><time>2026-04-25T10:00:55.228Z</time></trkpt><trkpt lat="45.7493783" lon="10.041995"><ele>189.0</ele><time>2026-04-25T10:00:56.229Z</time></trkpt><trkpt lat="45.7494783" lon="10.0418233"><ele>189.0</ele><time>2026-04-25T10:00:57.228Z</time></trkpt><trkpt lat="45.7495783" lon="10.0416633"><ele>189.0</ele><time>2026-04-25T10:00:58.227Z</time></trkpt><trkpt lat="45.7496833" lon="10.0415333"><ele>189.0</ele><time>2026-04-25T10:00:59.229Z</time></trkpt><trkpt lat="45.7498" lon="10.0414433"><ele>190.0</ele><time>2026-04-25T10:01:00.229Z</time></trkpt><trkpt lat="45.749925" lon="10.041375"><ele>191.0</ele><time>2026-04-25T10:01:01.229Z</time></trkpt><trkpt lat="45.7500583" lon="10.0413133"><ele>192.0</ele><time>2026-04-25T10:01:02.23Z</time></trkpt><trkpt lat="45.7501917" lon="10.0412533"><ele>193.0</ele><time>2026-04-25T10:01:03.23Z</time></trkpt><trkpt lat="45.75032" lon="10.0411867"><ele>193.0</ele><time>2026-04-25T10:01:04.231Z</time></trkpt><trkpt lat="45.750435" lon="10.0410983"><ele>193.0</ele><time>2026-04-25T10:01:05.23Z</time></trkpt><trkpt lat="45.7505417" lon="10.0409883"><ele>193.0</ele><time>2026-04-25T10:01:06.231Z</time></trkpt><trkpt lat="45.7506517" lon="10.0408783"><ele>193.0</ele><time>2026-04-25T10:01:07.23Z</time></trkpt><trkpt lat="45.75077" lon="10.040755"><ele>196.66666666666666</ele><time>2026-04-25T10:01:08.229Z</time></trkpt><trkpt lat="45.7508917" lon="10.040625"><ele>200.33333333333331</ele><time>2026-04-25T10:01:09.23Z</time></trkpt><trkpt lat="45.7510183" lon="10.0405"><ele>204.0</ele><time>2026-04-25T10:01:10.229Z</time></trkpt><trkpt lat="45.75115" lon="10.0403733"><ele>204.0</ele><time>2026-04-25T10:01:11.231Z</time></trkpt><trkpt lat="45.751285" lon="10.0402567"><ele>204.0</ele><time>2026-04-25T10:01:12.229Z</time></trkpt><trkpt lat="45.7514317" lon="10.04015"><ele>204.0</ele><time>2026-04-25T10:01:13.229Z</time></trkpt><trkpt lat="45.7515733" lon="10.04006"><ele>204.0</ele><time>2026-04-25T10:01:14.229Z</time></trkpt><trkpt lat="45.7517233" lon="10.0399817"><ele>204.0</ele><time>2026-04-25T10:01:15.231Z</time></trkpt><trkpt lat="45.751885" lon="10.0399283"><ele>204.0</ele><time>2026-04-25T10:01:16.229Z</time></trkpt><trkpt lat="45.752045" lon="10.0398983"><ele>221.0</ele><time>2026-04-25T10:01:17.23Z</time></trkpt><trkpt lat="45.7522" lon="10.039885"><ele>238.0</ele><time>2026-04-25T10:01:18.23Z</time></trkpt><trkpt lat="45.7523533" lon="10.03987"><ele>255.0</ele><time>2026-04-25T10:01:19.23Z</time></trkpt><trkpt lat="45.7525033" lon="10.03984"><ele>255.0</ele><time>2026-04-25T10:01:20.23Z</time></trkpt><trkpt lat="45.7526517" lon="10.0398"><ele>255.0</ele><time>2026-04-25T10:01:21.231Z</time></trkpt><trkpt lat="45.7527967" lon="10.0397417"><ele>255.0</ele><time>2026-04-25T10:01:22.23Z</time></trkpt><trkpt lat="45.752945" lon="10.0396917"><ele>243.0</ele><time>2026-04-25T10:01:23.229Z</time></trkpt><trkpt lat="45.75309" lon="10.0396283"><ele>231.0</ele><time>2026-04-25T10:01:24.229Z</time></trkpt><trkpt lat="45.7532383" lon="10.0395733"><ele>219.0</ele><time>2026-04-25T10:01:25.229Z</time></trkpt><trkpt lat="45.7533783" lon="10.0394817"><ele>219.0</ele><time>2026-04-25T10:01:26.229Z</time></trkpt><trkpt lat="45.753515" lon="10.0393767"><ele>219.0</ele><time>2026-04-25T10:01:27.23Z</time></trkpt><trkpt lat="45.7536467" lon="10.0392667"><ele>219.0</ele><time>2026-04-25T10:01:28.228Z</time></trkpt><trkpt lat="45.7537783" lon="10.0391633"><ele>217.33333333333331</ele><time>2026-04-25T10:01:29.229Z</time></trkpt><trkpt lat="45.753915" lon="10.039065"><ele>215.66666666666666</ele><time>2026-04-25T10:01:30.229Z</time></trkpt><trkpt lat="45.7540517" lon="10.03897"><ele>214.0</ele><time>2026-04-25T10:01:31.229Z</time></trkpt><trkpt lat="45.7541933" lon="10.0388767"><ele>214.0</ele><time>2026-04-25T10:01:32.231Z</time></trkpt><trkpt lat="45.7543433" lon="10.038785"><ele>214.0</ele><time>2026-04-25T10:01:33.231Z</time></trkpt><trkpt lat="45.7544933" lon="10.0386967"><ele>214.0</ele><time>2026-04-25T10:01:34.232Z</time></trkpt><trkpt lat="45.754645" lon="10.0386083"><ele>210.33333333333331</ele><time>2026-04-25T10:01:35.231Z</time></trkpt><trkpt lat="45.7548033" lon="10.03852"><ele>206.66666666666669</ele><time>2026-04-25T10:01:36.23Z</time></trkpt><trkpt lat="45.7549667" lon="10.0384333"><ele>203.0</ele><time>2026-04-25T10:01:37.231Z</time></trkpt><trkpt lat="45.755135" lon="10.03835"><ele>217.33333333333334</ele><time>2026-04-25T10:01:38.231Z</time></trkpt><trkpt lat="45.75531" lon="10.0382817"><ele>231.66666666666669</ele><time>2026-04-25T10:01:39.228Z</time></trkpt><trkpt lat="45.75549" lon="10.0382333"><ele>246.0</ele><time>2026-04-25T10:01:40.229Z</time></trkpt><trkpt lat="45.75567" lon="10.0382017"><ele>246.0</ele><time>2026-04-25T10:01:41.229Z</time></trkpt><trkpt lat="45.7558483" lon="10.0381733"><ele>246.0</ele><time>2026-04-25T10:01:42.228Z</time></trkpt><trkpt lat="45.75603" lon="10.0381417"><ele>246.0</ele><time>2026-04-25T10:01:43.228Z</time></trkpt><trkpt lat="45.7562133" lon="10.03812"><ele>245.0</ele><time>2026-04-25T10:01:44.231Z</time></trkpt><trkpt lat="45.7563967" lon="10.0380917"><ele>244.0</ele><time>2026-04-25T10:01:45.228Z</time></trkpt><trkpt lat="45.7565717" lon="10.03807"><ele>243.0</ele><time>2026-04-25T10:01:46.228Z</time></trkpt><trkpt lat="45.7567367" lon="10.0380483"><ele>237.75</ele><time>2026-04-25T10:01:47.228Z</time></trkpt><trkpt lat="45.7568883" lon="10.0380267"><ele>232.5</ele><time>2026-04-25T10:01:48.229Z</time></trkpt><trkpt lat="45.7570317" lon="10.0379883"><ele>227.25</ele><time>2026-04-25T10:01:49.228Z</time></trkpt><trkpt lat="45.7571617" lon="10.037935"><ele>222.0</ele><time>2026-04-25T10:01:50.229Z</time></trkpt><trkpt lat="45.75729" lon="10.0378433"><ele>222.0</ele><time>2026-04-25T10:01:51.229Z</time></trkpt><trkpt lat="45.7574233" lon="10.037745"><ele>222.0</ele><time>2026-04-25T10:01:52.228Z</time></trkpt><trkpt lat="45.7575617" lon="10.0376433"><ele>222.0</ele><time>2026-04-25T10:01:53.228Z</time></trkpt><trkpt lat="45.757705" lon="10.0375483"><ele>238.33333333333331</ele><time>2026-04-25T10:01:54.229Z</time></trkpt><trkpt lat="45.7578567" lon="10.0374683"><ele>254.66666666666666</ele><time>2026-04-25T10:01:55.228Z</time></trkpt><trkpt lat="45.7580067" lon="10.037395"><ele>271.0</ele><time>2026-04-25T10:01:56.228Z</time></trkpt><trkpt lat="45.7581617" lon="10.0373467"><ele>271.0</ele><time>2026-04-25T10:01:57.229Z</time></trkpt><trkpt lat="45.7583217" lon="10.0373233"><ele>271.0</ele><time>2026-04-25T10:01:58.228Z</time></trkpt><trkpt lat="45.75848" lon="10.0373233"><ele>271.0</ele><time>2026-04-25T10:01:59.231Z</time></trkpt><trkpt lat="45.7586383" lon="10.037335"><ele>270.3333333333333</ele><time>2026-04-25T10:02:00.228Z</time></trkpt><trkpt lat="45.7587967" lon="10.0373433"><ele>269.6666666666667</ele><time>2026-04-25T10:02:01.228Z</time></trkpt><trkpt lat="45.758955" lon="10.0373517"><ele>269.0</ele><time>2026-04-25T10:02:02.228Z</time></trkpt><trkpt lat="45.7591117" lon="10.0373483"><ele>269.0</ele><time>2026-04-25T10:02:03.23Z</time></trkpt><trkpt lat="45.7592683" lon="10.0373483"><ele>269.0</ele><time>2026-04-25T10:02:04.228Z</time></trkpt><trkpt lat="45.7594217" lon="10.0373433"><ele>269.0</ele><time>2026-04-25T10:02:05.23Z</time></trkpt><trkpt lat="45.7595717" lon="10.0373467"><ele>266.0</ele><time>2026-04-25T10:02:06.23Z</time></trkpt><trkpt lat="45.759725" lon="10.0373467"><ele>263.0</ele><time>2026-04-25T10:02:07.228Z</time></trkpt><trkpt lat="45.7598717" lon="10.0373483"><ele>260.0</ele><time>2026-04-25T10:02:08.229Z</time></trkpt><trkpt lat="45.7600117" lon="10.037345"><ele>257.0</ele><time>2026-04-25T10:02:09.229Z</time></trkpt><trkpt lat="45.7601383" lon="10.0373417"><ele>250.2</ele><time>2026-04-25T10:02:10.228Z</time></trkpt><trkpt lat="45.7602517" lon="10.0373267"><ele>243.39999999999998</ele><time>2026-04-25T10:02:11.228Z</time></trkpt><trkpt lat="45.76036" lon="10.0372783"><ele>236.60000000000002</ele><time>2026-04-25T10:02:12.229Z</time></trkpt><trkpt lat="45.7604533" lon="10.0371967"><ele>229.8</ele><time>2026-04-25T10:02:13.229Z</time></trkpt><trkpt lat="45.76053" lon="10.0370917"><ele>223.0</ele><time>2026-04-25T10:02:14.228Z</time></trkpt><trkpt lat="45.7605933" lon="10.0369817"><ele>223.0</ele><time>2026-04-25T10:02:15.23Z</time></trkpt><trkpt lat="45.7606483" lon="10.0368883"><ele>223.0</ele><time>2026-04-25T10:02:16.23Z</time></trkpt><trkpt lat="45.7607" lon="10.0368117"><ele>223.0</ele><time>2026-04-25T10:02:17.228Z</time></trkpt><trkpt lat="45.76078" lon="10.0367867"><ele>223.0</ele><time>2026-04-25T10:02:18.23Z</time></trkpt><trkpt lat="45.7608783" lon="10.03679"><ele>223.0</ele><time>2026-04-25T10:02:19.229Z</time></trkpt><trkpt lat="45.7609883" lon="10.036815"><ele>227.0</ele><time>2026-04-25T10:02:20.229Z</time></trkpt><trkpt lat="45.7610967" lon="10.0368633"><ele>231.0</ele><time>2026-04-25T10:02:21.228Z</time></trkpt><trkpt lat="45.76121" lon="10.0369267"><ele>235.0</ele><time>2026-04-25T10:02:22.229Z</time></trkpt><trkpt lat="45.76133" lon="10.036985"><ele>239.0</ele><time>2026-04-25T10:02:23.228Z</time></trkpt><trkpt lat="45.761465" lon="10.0370267"><ele>239.0</ele><time>2026-04-25T10:02:24.227Z</time></trkpt><trkpt lat="45.7616067" lon="10.0370517"><ele>239.0</ele><time>2026-04-25T10:02:25.228Z</time></trkpt><trkpt lat="45.7617533" lon="10.0370633"><ele>239.0</ele><time>2026-04-25T10:02:26.228Z</time></trkpt><trkpt lat="45.7619" lon="10.0370667"><ele>239.0</ele><time>2026-04-25T10:02:27.227Z</time></trkpt><trkpt lat="45.7620383" lon="10.0370683"><ele>240.25</ele><time>2026-04-25T10:02:28.227Z</time></trkpt><trkpt lat="45.7621733" lon="10.0370717"><ele>241.5</ele><time>2026-04-25T10:02:29.229Z</time></trkpt><trkpt lat="45.7623117" lon="10.0370717"><ele>242.75</ele><time>2026-04-25T10:02:30.23Z</time></trkpt><trkpt lat="45.7624533" lon="10.0370733"><ele>244.0</ele><time>2026-04-25T10:02:31.227Z</time></trkpt><trkpt lat="45.7625967" lon="10.03708"><ele>240.5</ele><time>2026-04-25T10:02:32.229Z</time></trkpt><trkpt lat="45.7627433" lon="10.0370833"><ele>237.0</ele><time>2026-04-25T10:02:33.229Z</time></trkpt><trkpt lat="45.7628917" lon="10.0370833"><ele>233.5</ele><time>2026-04-25T10:02:34.23Z</time></trkpt><trkpt lat="45.7630383" lon="10.03708"><ele>230.0</ele><time>2026-04-25T10:02:35.23Z</time></trkpt><trkpt lat="45.76318" lon="10.03707"><ele>230.0</ele><time>2026-04-25T10:02:36.229Z</time></trkpt><trkpt lat="45.7633133" lon="10.037035"><ele>230.0</ele><time>2026-04-25T10:02:37.23Z</time></trkpt><trkpt lat="45.7634383" lon="10.0369783"><ele>230.0</ele><time>2026-04-25T10:02:38.231Z</time></trkpt><trkpt lat="45.7635667" lon="10.0368983"><ele>230.0</ele><time>2026-04-25T10:02:39.232Z</time></trkpt><trkpt lat="45.7637" lon="10.0368017"><ele>231.25</ele><time>2026-04-25T10:02:40.23Z</time></trkpt><trkpt lat="45.76383" lon="10.0367083"><ele>232.5</ele><time>2026-04-25T10:02:41.229Z</time></trkpt><trkpt lat="45.7639533" lon="10.036625"><ele>233.75</ele><time>2026-04-25T10:02:42.23Z</time></trkpt><trkpt lat="45.76407" lon="10.03654"><ele>235.0</ele><time>2026-04-25T10:02:43.229Z</time></trkpt><trkpt lat="45.7641767" lon="10.0364617"><ele>235.0</ele><time>2026-04-25T10:02:44.228Z</time></trkpt><trkpt lat="45.7642783" lon="10.03639"><ele>235.0</ele><time>2026-04-25T10:02:45.228Z</time></trkpt><trkpt lat="45.7643783" lon="10.0363217"><ele>235.0</ele><time>2026-04-25T10:02:46.23Z</time></trkpt><trkpt lat="45.7644783" lon="10.0362383"><ele>235.0</ele><time>2026-04-25T10:02:47.229Z</time></trkpt><trkpt lat="45.764575" lon="10.03615"><ele>236.75</ele><time>2026-04-25T10:02:48.229Z</time></trkpt><trkpt lat="45.7646767" lon="10.0360467"><ele>238.5</ele><time>2026-04-25T10:02:49.229Z</time></trkpt><trkpt lat="45.7647817" lon="10.0359383"><ele>240.25</ele><time>2026-04-25T10:02:50.229Z</time></trkpt><trkpt lat="45.7648783" lon="10.0358317"><ele>242.0</ele><time>2026-04-25T10:02:51.228Z</time></trkpt><trkpt lat="45.7649767" lon="10.0357483"><ele>242.0</ele><time>2026-04-25T10:02:52.229Z</time></trkpt><trkpt lat="45.765085" lon="10.0357117"><ele>242.0</ele><time>2026-04-25T10:02:53.227Z</time></trkpt><trkpt lat="45.7652" lon="10.0357117"><ele>242.0</ele><time>2026-04-25T10:02:54.227Z</time></trkpt><trkpt lat="45.765315" lon="10.035735"><ele>242.0</ele><time>2026-04-25T10:02:55.228Z</time></trkpt><trkpt lat="45.7654383" lon="10.0357633"><ele>240.25</ele><time>2026-04-25T10:02:56.23Z</time></trkpt><trkpt lat="45.76556" lon="10.0357783"><ele>238.5</ele><time>2026-04-25T10:02:57.229Z</time></trkpt><trkpt lat="45.7656817" lon="10.0357733"><ele>236.75</ele><time>2026-04-25T10:02:58.229Z</time></trkpt><trkpt lat="45.765795" lon="10.03575"><ele>235.0</ele><time>2026-04-25T10:02:59.229Z</time></trkpt><trkpt lat="45.765905" lon="10.035715"><ele>235.0</ele><time>2026-04-25T10:03:00.231Z</time></trkpt><trkpt lat="45.7660167" lon="10.035675"><ele>235.0</ele><time>2026-04-25T10:03:01.23Z</time></trkpt><trkpt lat="45.7661283" lon="10.0356383"><ele>235.0</ele><time>2026-04-25T10:03:02.23Z</time></trkpt><trkpt lat="45.766245" lon="10.03561"><ele>235.0</ele><time>2026-04-25T10:03:03.23Z</time></trkpt><trkpt lat="45.766365" lon="10.035595"><ele>233.75</ele><time>2026-04-25T10:03:04.229Z</time></trkpt><trkpt lat="45.7664867" lon="10.035605"><ele>232.5</ele><time>2026-04-25T10:03:05.23Z</time></trkpt><trkpt lat="45.7666083" lon="10.0356333"><ele>231.25</ele><time>2026-04-25T10:03:06.23Z</time></trkpt><trkpt lat="45.76673" lon="10.0356567"><ele>230.0</ele><time>2026-04-25T10:03:07.228Z</time></trkpt><trkpt lat="45.7668517" lon="10.03568"><ele>227.75</ele><time>2026-04-25T10:03:08.227Z</time></trkpt><trkpt lat="45.766975" lon="10.0357067"><ele>225.5</ele><time>2026-04-25T10:03:09.229Z</time></trkpt><trkpt lat="45.7670983" lon="10.0357383"><ele>223.25</ele><time>2026-04-25T10:03:10.227Z</time></trkpt><trkpt lat="45.7672217" lon="10.0357567"><ele>221.0</ele><time>2026-04-25T10:03:11.228Z</time></trkpt><trkpt lat="45.7673433" lon="10.035755"><ele>221.0</ele><time>2026-04-25T10:03:12.227Z</time></trkpt><trkpt lat="45.76746" lon="10.03572"><ele>221.0</ele><time>2026-04-25T10:03:13.227Z</time></trkpt><trkpt lat="45.7675767" lon="10.035645"><ele>221.0</ele><time>2026-04-25T10:03:14.228Z</time></trkpt><trkpt lat="45.7676783" lon="10.0355633"><ele>221.0</ele><time>2026-04-25T10:03:15.23Z</time></trkpt><trkpt lat="45.7677733" lon="10.03548"><ele>216.75</ele><time>2026-04-25T10:03:16.228Z</time></trkpt><trkpt lat="45.7678717" lon="10.03539"><ele>212.5</ele><time>2026-04-25T10:03:17.228Z</time></trkpt><trkpt lat="45.7679817" lon="10.0353"><ele>208.25</ele><time>2026-04-25T10:03:18.227Z</time></trkpt><trkpt lat="45.7680933" lon="10.0352033"><ele>204.0</ele><time>2026-04-25T10:03:19.23Z</time></trkpt><trkpt lat="45.7682017" lon="10.03512"><ele>204.0</ele><time>2026-04-25T10:03:20.229Z</time></trkpt><trkpt lat="45.7683117" lon="10.0350467"><ele>204.0</ele><time>2026-04-25T10:03:21.23Z</time></trkpt><trkpt lat="45.7684183" lon="10.0349867"><ele>204.0</ele><time>2026-04-25T10:03:22.23Z</time></trkpt><trkpt lat="45.7685283" lon="10.0349483"><ele>204.0</ele><time>2026-04-25T10:03:23.229Z</time></trkpt><trkpt lat="45.768645" lon="10.034925"><ele>209.79999999999998</ele><time>2026-04-25T10:03:24.229Z</time></trkpt><trkpt lat="45.7687617" lon="10.0349183"><ele>215.6</ele><time>2026-04-25T10:03:25.228Z</time></trkpt><trkpt lat="45.768875" lon="10.0349217"><ele>221.4</ele><time>2026-04-25T10:03:26.234Z</time></trkpt><trkpt lat="45.7689817" lon="10.0349283"><ele>227.2</ele><time>2026-04-25T10:03:27.23Z</time></trkpt><trkpt lat="45.76908" lon="10.03494"><ele>233.0</ele><time>2026-04-25T10:03:28.228Z</time></trkpt><trkpt lat="45.769175" lon="10.0349533"><ele>227.60000000000002</ele><time>2026-04-25T10:03:29.228Z</time></trkpt><trkpt lat="45.769265" lon="10.0349717"><ele>222.20000000000002</ele><time>2026-04-25T10:03:30.227Z</time></trkpt><trkpt lat="45.769355" lon="10.0349933"><ele>216.8</ele><time>2026-04-25T10:03:31.227Z</time></trkpt><trkpt lat="45.7694383" lon="10.0350383"><ele>211.4</ele><time>2026-04-25T10:03:32.227Z</time></trkpt><trkpt lat="45.76952" lon="10.03509"><ele>206.0</ele><time>2026-04-25T10:03:33.227Z</time></trkpt><trkpt lat="45.7696" lon="10.0351517"><ele>206.0</ele><time>2026-04-25T10:03:34.227Z</time></trkpt><trkpt lat="45.769675" lon="10.0352083"><ele>206.0</ele><time>2026-04-25T10:03:35.228Z</time></trkpt><trkpt lat="45.7697483" lon="10.0352617"><ele>206.0</ele><time>2026-04-25T10:03:36.23Z</time></trkpt><trkpt lat="45.7698283" lon="10.03531"><ele>206.0</ele><time>2026-04-25T10:03:37.228Z</time></trkpt><trkpt lat="45.7699183" lon="10.0353533"><ele>206.0</ele><time>2026-04-25T10:03:38.228Z</time></trkpt><trkpt lat="45.7700233" lon="10.0353833"><ele>206.0</ele><time>2026-04-25T10:03:39.228Z</time></trkpt><trkpt lat="45.7701417" lon="10.0354067"><ele>206.0</ele><time>2026-04-25T10:03:40.231Z</time></trkpt><trkpt lat="45.7702633" lon="10.0354233"><ele>206.0</ele><time>2026-04-25T10:03:41.228Z</time></trkpt><trkpt lat="45.7703833" lon="10.0354317"><ele>206.0</ele><time>2026-04-25T10:03:42.228Z</time></trkpt><trkpt lat="45.7704967" lon="10.03544"><ele>207.60000000000002</ele><time>2026-04-25T10:03:43.228Z</time></trkpt><trkpt lat="45.7706067" lon="10.0354467"><ele>209.2</ele><time>2026-04-25T10:03:44.228Z</time></trkpt><trkpt lat="45.7707117" lon="10.0354567"><ele>210.79999999999998</ele><time>2026-04-25T10:03:45.227Z</time></trkpt><trkpt lat="45.7708083" lon="10.0354733"><ele>212.39999999999998</ele><time>2026-04-25T10:03:46.228Z</time></trkpt><trkpt lat="45.7708983" lon="10.03549"><ele>214.0</ele><time>2026-04-25T10:03:47.228Z</time></trkpt><trkpt lat="45.7709817" lon="10.0355117"><ele>212.83333333333331</ele><time>2026-04-25T10:03:48.227Z</time></trkpt><trkpt lat="45.77105" lon="10.0355383"><ele>211.66666666666666</ele><time>2026-04-25T10:03:49.229Z</time></trkpt><trkpt lat="45.77115" lon="10.03558"><ele>210.5</ele><time>2026-04-25T10:03:51.23Z</time></trkpt><trkpt lat="45.7712183" lon="10.0356133"><ele>209.33333333333331</ele><time>2026-04-25T10:03:53.23Z</time></trkpt><trkpt lat="45.7712783" lon="10.0356433"><ele>208.16666666666666</ele><time>2026-04-25T10:03:55.229Z</time></trkpt><trkpt lat="45.7713583" lon="10.0356683"><ele>207.0</ele><time>2026-04-25T10:03:58.228Z</time></trkpt><trkpt lat="45.7714567" lon="10.0357083"><ele>207.0</ele><time>2026-04-25T10:04:00.229Z</time></trkpt><trkpt lat="45.7715517" lon="10.0357617"><ele>207.0</ele><time>2026-04-25T10:04:02.23Z</time></trkpt><trkpt lat="45.7716283" lon="10.0358033"><ele>207.0</ele><time>2026-04-25T10:04:05.23Z</time></trkpt><trkpt lat="45.7717067" lon="10.03584"><ele>207.0</ele><time>2026-04-25T10:04:07.23Z</time></trkpt><trkpt lat="45.7717717" lon="10.0358667"><ele>207.0</ele><time>2026-04-25T10:04:08.23Z</time></trkpt><trkpt lat="45.771855" lon="10.0359017"><ele>207.0</ele><time>2026-04-25T10:04:09.23Z</time></trkpt><trkpt lat="45.7719583" lon="10.0359533"><ele>205.25</ele><time>2026-04-25T10:04:10.227Z</time></trkpt><trkpt lat="45.7720783" lon="10.036015"><ele>203.5</ele><time>2026-04-25T10:04:11.228Z</time></trkpt><trkpt lat="45.772205" lon="10.036085"><ele>201.75</ele><time>2026-04-25T10:04:12.227Z</time></trkpt><trkpt lat="45.7723283" lon="10.0361583"><ele>200.0</ele><time>2026-04-25T10:04:13.229Z</time></trkpt><trkpt lat="45.7724467" lon="10.0362367"><ele>200.0</ele><time>2026-04-25T10:04:14.228Z</time></trkpt><trkpt lat="45.7725517" lon="10.03632"><ele>200.0</ele><time>2026-04-25T10:04:15.229Z</time></trkpt><trkpt lat="45.7726517" lon="10.0364167"><ele>200.0</ele><time>2026-04-25T10:04:16.228Z</time></trkpt><trkpt lat="45.7727517" lon="10.03653"><ele>200.0</ele><time>2026-04-25T10:04:17.227Z</time></trkpt><trkpt lat="45.7728517" lon="10.0366667"><ele>203.33333333333334</ele><time>2026-04-25T10:04:18.227Z</time></trkpt><trkpt lat="45.7729567" lon="10.0368167"><ele>206.66666666666669</ele><time>2026-04-25T10:04:19.227Z</time></trkpt><trkpt lat="45.77307" lon="10.03698"><ele>210.0</ele><time>2026-04-25T10:04:20.229Z</time></trkpt><trkpt lat="45.77319" lon="10.0371567"><ele>210.0</ele><time>2026-04-25T10:04:21.23Z</time></trkpt><trkpt lat="45.7733183" lon="10.0373517"><ele>210.0</ele><time>2026-04-25T10:04:22.229Z</time></trkpt><trkpt lat="45.7734517" lon="10.0375567"><ele>210.0</ele><time>2026-04-25T10:04:23.231Z</time></trkpt><trkpt lat="45.7735817" lon="10.0377617"><ele>208.33333333333331</ele><time>2026-04-25T10:04:24.229Z</time></trkpt><trkpt lat="45.773705" lon="10.03796"><ele>206.66666666666666</ele><time>2026-04-25T10:04:25.227Z</time></trkpt><trkpt lat="45.7738283" lon="10.0381467"><ele>205.0</ele><time>2026-04-25T10:04:26.228Z</time></trkpt><trkpt lat="45.7739533" lon="10.03833"><ele>205.0</ele><time>2026-04-25T10:04:27.229Z</time></trkpt><trkpt lat="45.77408" lon="10.0385117"><ele>205.0</ele><time>2026-04-25T10:04:28.228Z</time></trkpt><trkpt lat="45.774205" lon="10.038695"><ele>205.0</ele><time>2026-04-25T10:04:29.228Z</time></trkpt><trkpt lat="45.7743267" lon="10.0388717"><ele>207.66666666666666</ele><time>2026-04-25T10:04:30.228Z</time></trkpt><trkpt lat="45.7744383" lon="10.0390433"><ele>210.33333333333331</ele><time>2026-04-25T10:04:31.227Z</time></trkpt><trkpt lat="45.7745417" lon="10.0392083"><ele>213.0</ele><time>2026-04-25T10:04:32.227Z</time></trkpt><trkpt lat="45.77463" lon="10.03936"><ele>213.0</ele><time>2026-04-25T10:04:33.228Z</time></trkpt><trkpt lat="45.774705" lon="10.0395"><ele>213.0</ele><time>2026-04-25T10:04:34.226Z</time></trkpt><trkpt lat="45.7747667" lon="10.0396383"><ele>213.0</ele><time>2026-04-25T10:04:35.227Z</time></trkpt><trkpt lat="45.77481" lon="10.0397783"><ele>213.0</ele><time>2026-04-25T10:04:36.228Z</time></trkpt><trkpt lat="45.7748383" lon="10.0399167"><ele>213.0</ele><time>2026-04-25T10:04:37.227Z</time></trkpt><trkpt lat="45.77485" lon="10.04005"><ele>211.2</ele><time>2026-04-25T10:04:38.227Z</time></trkpt><trkpt lat="45.7748517" lon="10.04018"><ele>209.4</ele><time>2026-04-25T10:04:39.228Z</time></trkpt><trkpt lat="45.7748483" lon="10.04031"><ele>207.6</ele><time>2026-04-25T10:04:40.229Z</time></trkpt><trkpt lat="45.77484" lon="10.04044"><ele>205.79999999999998</ele><time>2026-04-25T10:04:41.228Z</time></trkpt><trkpt lat="45.7748267" lon="10.0405767"><ele>204.0</ele><time>2026-04-25T10:04:42.229Z</time></trkpt><trkpt lat="45.774815" lon="10.0407217"><ele>204.2</ele><time>2026-04-25T10:04:43.228Z</time></trkpt><trkpt lat="45.7748" lon="10.0408717"><ele>204.39999999999998</ele><time>2026-04-25T10:04:44.227Z</time></trkpt><trkpt lat="45.77479" lon="10.0410167"><ele>204.6</ele><time>2026-04-25T10:04:45.228Z</time></trkpt><trkpt lat="45.77478" lon="10.0411583"><ele>204.8</ele><time>2026-04-25T10:04:46.229Z</time></trkpt><trkpt lat="45.7747767" lon="10.0412967"><ele>205.0</ele><time>2026-04-25T10:04:47.227Z</time></trkpt><trkpt lat="45.774785" lon="10.041435"><ele>205.0</ele><time>2026-04-25T10:04:48.23Z</time></trkpt><trkpt lat="45.7748" lon="10.0415867"><ele>205.0</ele><time>2026-04-25T10:04:49.227Z</time></trkpt><trkpt lat="45.77482" lon="10.0417417"><ele>205.0</ele><time>2026-04-25T10:04:50.227Z</time></trkpt><trkpt lat="45.7748433" lon="10.0419"><ele>205.0</ele><time>2026-04-25T10:04:51.23Z</time></trkpt><trkpt lat="45.7748667" lon="10.0420567"><ele>205.0</ele><time>2026-04-25T10:04:52.228Z</time></trkpt><trkpt lat="45.7748883" lon="10.042215"><ele>204.5</ele><time>2026-04-25T10:04:53.229Z</time></trkpt><trkpt lat="45.7749117" lon="10.0423717"><ele>204.0</ele><time>2026-04-25T10:04:54.229Z</time></trkpt><trkpt lat="45.7749167" lon="10.042495"><ele>203.5</ele><time>2026-04-25T10:04:55.23Z</time></trkpt><trkpt lat="45.7749533" lon="10.04269"><ele>203.0</ele><time>2026-04-25T10:04:56.229Z</time></trkpt><trkpt lat="45.77513" lon="10.042785"><ele>206.5</ele><time>2026-04-25T10:04:57.231Z</time></trkpt><trkpt lat="45.7752183" lon="10.0429283"><ele>210.0</ele><time>2026-04-25T10:04:58.229Z</time></trkpt><trkpt lat="45.7753167" lon="10.0430567"><ele>213.5</ele><time>2026-04-25T10:04:59.23Z</time></trkpt><trkpt lat="45.77541" lon="10.0431767"><ele>217.0</ele><time>2026-04-25T10:05:00.229Z</time></trkpt><trkpt lat="45.7754833" lon="10.0433"><ele>217.0</ele><time>2026-04-25T10:05:01.229Z</time></trkpt><trkpt lat="45.7755533" lon="10.0434067"><ele>217.0</ele><time>2026-04-25T10:05:02.229Z</time></trkpt><trkpt lat="45.7756183" lon="10.0435033"><ele>217.0</ele><time>2026-04-25T10:05:03.229Z</time></trkpt><trkpt lat="45.7756683" lon="10.0435967"><ele>217.0</ele><time>2026-04-25T10:05:04.23Z</time></trkpt><trkpt lat="45.7757067" lon="10.043675"><ele>217.0</ele><time>2026-04-25T10:05:05.229Z</time></trkpt><trkpt lat="45.7757583" lon="10.043815"><ele>217.0</ele><time>2026-04-25T10:05:07.229Z</time></trkpt><trkpt lat="45.7757833" lon="10.0439"><ele>217.0</ele><time>2026-04-25T10:05:08.229Z</time></trkpt><trkpt lat="45.775825" lon="10.0440133"><ele>217.0</ele><time>2026-04-25T10:05:09.23Z</time></trkpt><trkpt lat="45.7758867" lon="10.04415"><ele>217.0</ele><time>2026-04-25T10:05:10.23Z</time></trkpt><trkpt lat="45.77597" lon="10.044305"><ele>217.0</ele><time>2026-04-25T10:05:11.229Z</time></trkpt><trkpt lat="45.7760633" lon="10.0444567"><ele>217.33333333333331</ele><time>2026-04-25T10:05:12.229Z</time></trkpt><trkpt lat="45.7761667" lon="10.0446067"><ele>217.66666666666669</ele><time>2026-04-25T10:05:13.229Z</time></trkpt><trkpt lat="45.77628" lon="10.044765"><ele>218.0</ele><time>2026-04-25T10:05:14.23Z</time></trkpt><trkpt lat="45.7764067" lon="10.0449267"><ele>211.33333333333334</ele><time>2026-04-25T10:05:15.23Z</time></trkpt><trkpt lat="45.776545" lon="10.0450817"><ele>204.66666666666669</ele><time>2026-04-25T10:05:16.229Z</time></trkpt><trkpt lat="45.7766917" lon="10.045225"><ele>198.0</ele><time>2026-04-25T10:05:17.229Z</time></trkpt><trkpt lat="45.77685" lon="10.04536"><ele>204.33333333333331</ele><time>2026-04-25T10:05:18.229Z</time></trkpt><trkpt lat="45.7770167" lon="10.0454967"><ele>210.66666666666666</ele><time>2026-04-25T10:05:19.228Z</time></trkpt><trkpt lat="45.77719" lon="10.0456317"><ele>217.0</ele><time>2026-04-25T10:05:20.229Z</time></trkpt><trkpt lat="45.777355" lon="10.045775"><ele>219.33333333333331</ele><time>2026-04-25T10:05:21.23Z</time></trkpt><trkpt lat="45.7775083" lon="10.0459333"><ele>221.66666666666669</ele><time>2026-04-25T10:05:22.231Z</time></trkpt><trkpt lat="45.7776533" lon="10.0461117"><ele>224.0</ele><time>2026-04-25T10:05:23.229Z</time></trkpt><trkpt lat="45.77779" lon="10.0463083"><ele>224.0</ele><time>2026-04-25T10:05:24.229Z</time></trkpt><trkpt lat="45.777915" lon="10.04651"><ele>224.0</ele><time>2026-04-25T10:05:25.229Z</time></trkpt><trkpt lat="45.7780317" lon="10.0467017"><ele>224.0</ele><time>2026-04-25T10:05:26.231Z</time></trkpt><trkpt lat="45.7781317" lon="10.04688"><ele>219.25</ele><time>2026-04-25T10:05:27.229Z</time></trkpt><trkpt lat="45.7782167" lon="10.04704"><ele>214.5</ele><time>2026-04-25T10:05:28.229Z</time></trkpt><trkpt lat="45.7782867" lon="10.047185"><ele>209.75</ele><time>2026-04-25T10:05:29.231Z</time></trkpt><trkpt lat="45.7783467" lon="10.0473133"><ele>205.0</ele><time>2026-04-25T10:05:30.23Z</time></trkpt><trkpt lat="45.7784017" lon="10.04743"><ele>202.83333333333331</ele><time>2026-04-25T10:05:31.228Z</time></trkpt><trkpt lat="45.778455" lon="10.0475367"><ele>200.66666666666666</ele><time>2026-04-25T10:05:32.228Z</time></trkpt><trkpt lat="45.778505" lon="10.0476383"><ele>198.5</ele><time>2026-04-25T10:05:33.228Z</time></trkpt><trkpt lat="45.778555" lon="10.0477317"><ele>196.33333333333331</ele><time>2026-04-25T10:05:34.231Z</time></trkpt><trkpt lat="45.77861" lon="10.047815"><ele>194.16666666666666</ele><time>2026-04-25T10:05:35.229Z</time></trkpt><trkpt lat="45.7786633" lon="10.0478933"><ele>192.0</ele><time>2026-04-25T10:05:36.227Z</time></trkpt><trkpt lat="45.77872" lon="10.0479667"><ele>194.5</ele><time>2026-04-25T10:05:37.229Z</time></trkpt><trkpt lat="45.7787817" lon="10.0480383"><ele>197.0</ele><time>2026-04-25T10:05:38.229Z</time></trkpt><trkpt lat="45.7788567" lon="10.0481117"><ele>199.5</ele><time>2026-04-25T10:05:39.229Z</time></trkpt><trkpt lat="45.7789383" lon="10.04818"><ele>202.0</ele><time>2026-04-25T10:05:40.229Z</time></trkpt><trkpt lat="45.7790183" lon="10.0482467"><ele>204.5</ele><time>2026-04-25T10:05:41.228Z</time></trkpt><trkpt lat="45.7791" lon="10.0483017"><ele>207.0</ele><time>2026-04-25T10:05:42.229Z</time></trkpt><trkpt lat="45.7791817" lon="10.0483633"><ele>207.0</ele><time>2026-04-25T10:05:43.229Z</time></trkpt><trkpt lat="45.7792633" lon="10.0484267"><ele>207.0</ele><time>2026-04-25T10:05:44.23Z</time></trkpt><trkpt lat="45.7793483" lon="10.04849"><ele>207.0</ele><time>2026-04-25T10:05:45.235Z</time></trkpt><trkpt lat="45.7794417" lon="10.0485633"><ele>207.0</ele><time>2026-04-25T10:05:46.231Z</time></trkpt><trkpt lat="45.7795267" lon="10.0486267"><ele>207.0</ele><time>2026-04-25T10:05:47.229Z</time></trkpt><trkpt lat="45.7796117" lon="10.04869"><ele>217.0</ele><time>2026-04-25T10:05:48.327Z</time></trkpt><trkpt lat="45.7796967" lon="10.0487533"><ele>227.0</ele><time>2026-04-25T10:05:49.23Z</time></trkpt><trkpt lat="45.7797833" lon="10.0488167"><ele>237.0</ele><time>2026-04-25T10:05:50.23Z</time></trkpt><trkpt lat="45.77987" lon="10.04888"><ele>247.0</ele><time>2026-04-25T10:05:51.229Z</time></trkpt><trkpt lat="45.7828383" lon="10.048765"><ele>247.0</ele><time>2026-04-25T10:06:19.23Z</time></trkpt><trkpt lat="45.782905" lon="10.0488767"><ele>247.0</ele><time>2026-04-25T10:06:20.229Z</time></trkpt><trkpt lat="45.7829283" lon="10.04905"><ele>247.0</ele><time>2026-04-25T10:06:22.229Z</time></trkpt><trkpt lat="45.7829017" lon="10.0491333"><ele>247.0</ele><time>2026-04-25T10:06:23.229Z</time></trkpt><trkpt lat="45.78283" lon="10.0492883"><ele>247.0</ele><time>2026-04-25T10:06:25.228Z</time></trkpt><trkpt lat="45.7827933" lon="10.0493683"><ele>243.99999999999997</ele><time>2026-04-25T10:06:26.23Z</time></trkpt><trkpt lat="45.7827617" lon="10.0494467"><ele>241.0</ele><time>2026-04-25T10:06:27.23Z</time></trkpt><trkpt lat="45.7827117" lon="10.0495683"><ele>238.0</ele><time>2026-04-25T10:06:29.229Z</time></trkpt><trkpt lat="45.782685" lon="10.0496533"><ele>235.0</ele><time>2026-04-25T10:06:31.228Z</time></trkpt><trkpt lat="45.7826617" lon="10.0497433"><ele>231.99999999999997</ele><time>2026-04-25T10:06:33.228Z</time></trkpt><trkpt lat="45.7826117" lon="10.0498533"><ele>229.0</ele><time>2026-04-25T10:06:35.227Z</time></trkpt><trkpt lat="45.7825583" lon="10.0500167"><ele>223.39999999999998</ele><time>2026-04-25T10:06:37.229Z</time></trkpt><trkpt lat="45.7825317" lon="10.0501"><ele>217.79999999999998</ele><time>2026-04-25T10:06:38.228Z</time></trkpt><trkpt lat="45.78248" lon="10.0502483"><ele>212.2</ele><time>2026-04-25T10:06:40.229Z</time></trkpt><trkpt lat="45.78242" lon="10.0504067"><ele>206.60000000000002</ele><time>2026-04-25T10:06:42.228Z</time></trkpt><trkpt lat="45.782355" lon="10.0505283"><ele>201.0</ele><time>2026-04-25T10:06:44.229Z</time></trkpt><trkpt lat="45.7823083" lon="10.0506333"><ele>201.0</ele><time>2026-04-25T10:06:46.228Z</time></trkpt><trkpt lat="45.782305" lon="10.0507533"><ele>201.0</ele><time>2026-04-25T10:06:48.231Z</time></trkpt><trkpt lat="45.7823367" lon="10.0509"><ele>201.0</ele><time>2026-04-25T10:06:50.228Z</time></trkpt><trkpt lat="45.78239" lon="10.0510533"><ele>201.0</ele><time>2026-04-25T10:06:52.228Z</time></trkpt><trkpt lat="45.7824217" lon="10.0511933"><ele>201.0</ele><time>2026-04-25T10:06:54.228Z</time></trkpt><trkpt lat="45.7823983" lon="10.05132"><ele>201.0</ele><time>2026-04-25T10:06:56.229Z</time></trkpt><trkpt lat="45.7823167" lon="10.0514683"><ele>201.0</ele><time>2026-04-25T10:06:58.229Z</time></trkpt><trkpt lat="45.78227" lon="10.05156"><ele>201.0</ele><time>2026-04-25T10:06:59.228Z</time></trkpt><trkpt lat="45.7822233" lon="10.051645"><ele>201.0</ele><time>2026-04-25T10:07:00.227Z</time></trkpt><trkpt lat="45.7821667" lon="10.0517833"><ele>201.0</ele><time>2026-04-25T10:07:02.227Z</time></trkpt><trkpt lat="45.7821567" lon="10.0519433"><ele>197.83333333333334</ele><time>2026-04-25T10:07:04.228Z</time></trkpt><trkpt lat="45.7821617" lon="10.0520383"><ele>194.66666666666666</ele><time>2026-04-25T10:07:05.228Z</time></trkpt><trkpt lat="45.7821717" lon="10.052145"><ele>191.5</ele><time>2026-04-25T10:07:06.227Z</time></trkpt><trkpt lat="45.782185" lon="10.0522583"><ele>188.33333333333331</ele><time>2026-04-25T10:07:07.227Z</time></trkpt><trkpt lat="45.7822117" lon="10.0523733"><ele>185.16666666666666</ele><time>2026-04-25T10:07:08.229Z</time></trkpt><trkpt lat="45.7822483" lon="10.05249"><ele>182.0</ele><time>2026-04-25T10:07:09.228Z</time></trkpt><trkpt lat="45.7822883" lon="10.0526083"><ele>182.0</ele><time>2026-04-25T10:07:10.231Z</time></trkpt><trkpt lat="45.7823283" lon="10.0527267"><ele>182.0</ele><time>2026-04-25T10:07:11.229Z</time></trkpt><trkpt lat="45.782375" lon="10.0528417"><ele>182.0</ele><time>2026-04-25T10:07:12.23Z</time></trkpt><trkpt lat="45.782425" lon="10.0529517"><ele>182.0</ele><time>2026-04-25T10:07:13.23Z</time></trkpt><trkpt lat="45.7824683" lon="10.0530483"><ele>182.0</ele><time>2026-04-25T10:07:14.229Z</time></trkpt><trkpt lat="45.7825" lon="10.05314"><ele>182.0</ele><time>2026-04-25T10:07:15.228Z</time></trkpt><trkpt lat="45.7825517" lon="10.0532883"><ele>185.16666666666666</ele><time>2026-04-25T10:07:17.228Z</time></trkpt><trkpt lat="45.78263" lon="10.0533933"><ele>188.33333333333331</ele><time>2026-04-25T10:07:19.227Z</time></trkpt><trkpt lat="45.78273" lon="10.0534933"><ele>191.5</ele><time>2026-04-25T10:07:21.228Z</time></trkpt><trkpt lat="45.7827883" lon="10.053545"><ele>194.66666666666666</ele><time>2026-04-25T10:07:22.227Z</time></trkpt><trkpt lat="45.7828467" lon="10.0536083"><ele>197.83333333333334</ele><time>2026-04-25T10:07:23.228Z</time></trkpt><trkpt lat="45.7829" lon="10.053685"><ele>201.0</ele><time>2026-04-25T10:07:24.23Z</time></trkpt><trkpt lat="45.78294" lon="10.05377"><ele>203.28571428571428</ele><time>2026-04-25T10:07:25.227Z</time></trkpt><trkpt lat="45.7829567" lon="10.0538667"><ele>205.57142857142858</ele><time>2026-04-25T10:07:26.227Z</time></trkpt><trkpt lat="45.78295" lon="10.0539617"><ele>207.85714285714286</ele><time>2026-04-25T10:07:27.229Z</time></trkpt><trkpt lat="45.782925" lon="10.0540483"><ele>210.14285714285714</ele><time>2026-04-25T10:07:28.228Z</time></trkpt><trkpt lat="45.7829" lon="10.0541317"><ele>212.42857142857144</ele><time>2026-04-25T10:07:29.229Z</time></trkpt><trkpt lat="45.7828717" lon="10.054215"><ele>214.71428571428572</ele><time>2026-04-25T10:07:30.228Z</time></trkpt><trkpt lat="45.7828333" lon="10.0543733"><ele>217.0</ele><time>2026-04-25T10:07:32.229Z</time></trkpt><trkpt lat="45.782835" lon="10.0545233"><ele>217.0</ele><time>2026-04-25T10:07:34.228Z</time></trkpt><trkpt lat="45.7828483" lon="10.05467"><ele>217.0</ele><time>2026-04-25T10:07:36.227Z</time></trkpt><trkpt lat="45.7828783" lon="10.0548117"><ele>217.0</ele><time>2026-04-25T10:07:38.228Z</time></trkpt><trkpt lat="45.782945" lon="10.05495"><ele>217.0</ele><time>2026-04-25T10:07:40.228Z</time></trkpt><trkpt lat="45.783005" lon="10.0550017"><ele>217.0</ele><time>2026-04-25T10:07:41.228Z</time></trkpt><trkpt lat="45.783095" lon="10.055035"><ele>216.99999999999997</ele><time>2026-04-25T10:07:42.228Z</time></trkpt><trkpt lat="45.78318" lon="10.05505"><ele>217.0</ele><time>2026-04-25T10:07:43.228Z</time></trkpt><trkpt lat="45.7832667" lon="10.055045"><ele>217.0</ele><time>2026-04-25T10:07:44.228Z</time></trkpt><trkpt lat="45.7833467" lon="10.05503"><ele>217.0</ele><time>2026-04-25T10:07:45.23Z</time></trkpt><trkpt lat="45.7834383" lon="10.054975"><ele>216.99999999999997</ele><time>2026-04-25T10:07:47.229Z</time></trkpt><trkpt lat="45.7835" lon="10.05493"><ele>217.0</ele><time>2026-04-25T10:07:50.228Z</time></trkpt><trkpt lat="45.78355" lon="10.0548583"><ele>216.99999999999997</ele><time>2026-04-25T10:07:53.227Z</time></trkpt><trkpt lat="45.783615" lon="10.054775"><ele>217.0</ele><time>2026-04-25T10:07:55.228Z</time></trkpt><trkpt lat="45.7836917" lon="10.0546567"><ele>217.0</ele><time>2026-04-25T10:07:57.228Z</time></trkpt><trkpt lat="45.7837333" lon="10.05458"><ele>217.0</ele><time>2026-04-25T10:07:58.229Z</time></trkpt><trkpt lat="45.78378" lon="10.054505"><ele>216.99999999999997</ele><time>2026-04-25T10:07:59.228Z</time></trkpt><trkpt lat="45.7838233" lon="10.05443"><ele>217.0</ele><time>2026-04-25T10:08:00.228Z</time></trkpt><trkpt lat="45.7838683" lon="10.054355"><ele>216.99999999999997</ele><time>2026-04-25T10:08:01.228Z</time></trkpt><trkpt lat="45.783915" lon="10.0542767"><ele>217.0</ele><time>2026-04-25T10:08:02.228Z</time></trkpt><trkpt lat="45.7839633" lon="10.0541917"><ele>217.0</ele><time>2026-04-25T10:08:03.229Z</time></trkpt><trkpt lat="45.7840167" lon="10.054105"><ele>217.0</ele><time>2026-04-25T10:08:04.229Z</time></trkpt><trkpt lat="45.7840683" lon="10.0540117"><ele>216.99999999999997</ele><time>2026-04-25T10:08:05.228Z</time></trkpt><trkpt lat="45.7841217" lon="10.053915"><ele>217.0</ele><time>2026-04-25T10:08:06.228Z</time></trkpt><trkpt lat="45.7841767" lon="10.0538183"><ele>217.16666666666666</ele><time>2026-04-25T10:08:07.229Z</time></trkpt><trkpt lat="45.78423" lon="10.0537283"><ele>217.33333333333331</ele><time>2026-04-25T10:08:08.229Z</time></trkpt><trkpt lat="45.7842833" lon="10.0536417"><ele>217.5</ele><time>2026-04-25T10:08:09.229Z</time></trkpt><trkpt lat="45.7843367" lon="10.0535567"><ele>217.66666666666669</ele><time>2026-04-25T10:08:10.228Z</time></trkpt><trkpt lat="45.7843933" lon="10.0534767"><ele>217.83333333333334</ele><time>2026-04-25T10:08:11.229Z</time></trkpt><trkpt lat="45.7844483" lon="10.0534083"><ele>218.0</ele><time>2026-04-25T10:08:12.229Z</time></trkpt><trkpt lat="45.7845033" lon="10.05335"><ele>218.0</ele><time>2026-04-25T10:08:13.228Z</time></trkpt><trkpt lat="45.7846067" lon="10.05331"><ele>218.0</ele><time>2026-04-25T10:08:15.23Z</time></trkpt><trkpt lat="45.784685" lon="10.0533467"><ele>218.0</ele><time>2026-04-25T10:08:18.231Z</time></trkpt><trkpt lat="45.7847783" lon="10.0533717"><ele>218.0</ele><time>2026-04-25T10:08:21.228Z</time></trkpt><trkpt lat="45.784865" lon="10.053345"><ele>218.0</ele><time>2026-04-25T10:08:23.229Z</time></trkpt><trkpt lat="45.7849817" lon="10.05329"><ele>221.00000000000003</ele><time>2026-04-25T10:08:25.231Z</time></trkpt><trkpt lat="45.7850467" lon="10.05326"><ele>224.0</ele><time>2026-04-25T10:08:26.23Z</time></trkpt><trkpt lat="45.785115" lon="10.0532267"><ele>227.0</ele><time>2026-04-25T10:08:27.229Z</time></trkpt><trkpt lat="45.785185" lon="10.0531917"><ele>230.0</ele><time>2026-04-25T10:08:28.229Z</time></trkpt><trkpt lat="45.78526" lon="10.0531533"><ele>233.00000000000003</ele><time>2026-04-25T10:08:29.229Z</time></trkpt><trkpt lat="45.7853383" lon="10.053115"><ele>236.0</ele><time>2026-04-25T10:08:30.23Z</time></trkpt><trkpt lat="45.7854167" lon="10.0530683"><ele>236.00000000000003</ele><time>2026-04-25T10:08:31.23Z</time></trkpt><trkpt lat="45.7854933" lon="10.0530183"><ele>236.0</ele><time>2026-04-25T10:08:32.229Z</time></trkpt><trkpt lat="45.7855667" lon="10.05296"><ele>236.0</ele><time>2026-04-25T10:08:33.229Z</time></trkpt><trkpt lat="45.785635" lon="10.0528883"><ele>236.0</ele><time>2026-04-25T10:08:34.229Z</time></trkpt><trkpt lat="45.7857067" lon="10.0528333"><ele>236.00000000000003</ele><time>2026-04-25T10:08:35.229Z</time></trkpt><trkpt lat="45.785775" lon="10.0528033"><ele>236.0</ele><time>2026-04-25T10:08:36.229Z</time></trkpt><trkpt lat="45.78585" lon="10.05279"><ele>236.0</ele><time>2026-04-25T10:08:37.23Z</time></trkpt><trkpt lat="45.7859267" lon="10.05279"><ele>236.00000000000003</ele><time>2026-04-25T10:08:38.231Z</time></trkpt><trkpt lat="45.78601" lon="10.0528017"><ele>236.00000000000003</ele><time>2026-04-25T10:08:39.228Z</time></trkpt><trkpt lat="45.7861" lon="10.052835"><ele>236.0</ele><time>2026-04-25T10:08:40.229Z</time></trkpt><trkpt lat="45.7861967" lon="10.0528817"><ele>236.0</ele><time>2026-04-25T10:08:41.229Z</time></trkpt><trkpt lat="45.786295" lon="10.052945"><ele>236.16666666666669</ele><time>2026-04-25T10:08:42.23Z</time></trkpt><trkpt lat="45.7863867" lon="10.0530067"><ele>236.33333333333334</ele><time>2026-04-25T10:08:43.229Z</time></trkpt><trkpt lat="45.786465" lon="10.0530633"><ele>236.5</ele><time>2026-04-25T10:08:44.231Z</time></trkpt><trkpt lat="45.7865233" lon="10.05311"><ele>236.66666666666669</ele><time>2026-04-25T10:08:45.229Z</time></trkpt><trkpt lat="45.7866083" lon="10.053175"><ele>236.83333333333334</ele><time>2026-04-25T10:08:47.229Z</time></trkpt><trkpt lat="45.78669" lon="10.053205"><ele>237.0</ele><time>2026-04-25T10:08:49.23Z</time></trkpt><trkpt lat="45.7867717" lon="10.0532267"><ele>240.8</ele><time>2026-04-25T10:08:51.227Z</time></trkpt><trkpt lat="45.786875" lon="10.053245"><ele>244.6</ele><time>2026-04-25T10:08:53.23Z</time></trkpt><trkpt lat="45.7869983" lon="10.0532467"><ele>248.40000000000003</ele><time>2026-04-25T10:08:55.227Z</time></trkpt><trkpt lat="45.7870667" lon="10.05324"><ele>252.20000000000002</ele><time>2026-04-25T10:08:56.227Z</time></trkpt><trkpt lat="45.7871433" lon="10.0532417"><ele>256.0</ele><time>2026-04-25T10:08:57.229Z</time></trkpt><trkpt lat="45.7872217" lon="10.0532617"><ele>255.99999999999997</ele><time>2026-04-25T10:08:58.229Z</time></trkpt><trkpt lat="45.7873033" lon="10.0532817"><ele>256.0</ele><time>2026-04-25T10:08:59.229Z</time></trkpt><trkpt lat="45.7873817" lon="10.0532867"><ele>256.0</ele><time>2026-04-25T10:09:00.23Z</time></trkpt><trkpt lat="45.7874583" lon="10.0532883"><ele>256.0</ele><time>2026-04-25T10:09:01.229Z</time></trkpt><trkpt lat="45.7875317" lon="10.0532867"><ele>255.99999999999997</ele><time>2026-04-25T10:09:02.228Z</time></trkpt><trkpt lat="45.7876067" lon="10.0532933"><ele>256.0</ele><time>2026-04-25T10:09:03.229Z</time></trkpt><trkpt lat="45.7876867" lon="10.0533033"><ele>251.16666666666666</ele><time>2026-04-25T10:09:04.228Z</time></trkpt><trkpt lat="45.7877667" lon="10.0533167"><ele>246.33333333333331</ele><time>2026-04-25T10:09:05.23Z</time></trkpt><trkpt lat="45.7878417" lon="10.0533383"><ele>241.5</ele><time>2026-04-25T10:09:06.229Z</time></trkpt><trkpt lat="45.7879067" lon="10.0533683"><ele>236.66666666666669</ele><time>2026-04-25T10:09:07.23Z</time></trkpt><trkpt lat="45.7879833" lon="10.0534533"><ele>231.83333333333334</ele><time>2026-04-25T10:09:09.228Z</time></trkpt><trkpt lat="45.78803" lon="10.0535483"><ele>227.0</ele><time>2026-04-25T10:09:24.227Z</time></trkpt><trkpt lat="45.7881083" lon="10.0536133"><ele>227.00000000000003</ele><time>2026-04-25T10:09:26.228Z</time></trkpt><trkpt lat="45.7882067" lon="10.0537083"><ele>227.0</ele><time>2026-04-25T10:09:28.227Z</time></trkpt><trkpt lat="45.788265" lon="10.0537567"><ele>227.0</ele><time>2026-04-25T10:09:29.228Z</time></trkpt><trkpt lat="45.7883283" lon="10.0538017"><ele>227.0</ele><time>2026-04-25T10:09:30.229Z</time></trkpt><trkpt lat="45.7884017" lon="10.0538533"><ele>227.00000000000003</ele><time>2026-04-25T10:09:31.227Z</time></trkpt><trkpt lat="45.7884783" lon="10.0539033"><ele>227.0</ele><time>2026-04-25T10:09:32.233Z</time></trkpt><trkpt lat="45.78858" lon="10.0539633"><ele>221.75</ele><time>2026-04-25T10:09:33.228Z</time></trkpt><trkpt lat="45.788685" lon="10.05403"><ele>216.5</ele><time>2026-04-25T10:09:34.227Z</time></trkpt><trkpt lat="45.7887867" lon="10.0540867"><ele>211.25</ele><time>2026-04-25T10:09:35.229Z</time></trkpt><trkpt lat="45.788895" lon="10.0541417"><ele>206.0</ele><time>2026-04-25T10:09:36.227Z</time></trkpt><trkpt lat="45.7890067" lon="10.0541917"><ele>206.0</ele><time>2026-04-25T10:09:37.229Z</time></trkpt><trkpt lat="45.7891183" lon="10.0542367"><ele>206.0</ele><time>2026-04-25T10:09:38.227Z</time></trkpt><trkpt lat="45.7892217" lon="10.0542767"><ele>206.0</ele><time>2026-04-25T10:09:39.227Z</time></trkpt><trkpt lat="45.7893233" lon="10.0543183"><ele>206.0</ele><time>2026-04-25T10:09:40.227Z</time></trkpt><trkpt lat="45.789425" lon="10.0543617"><ele>206.0</ele><time>2026-04-25T10:09:41.228Z</time></trkpt><trkpt lat="45.7895283" lon="10.054415"><ele>213.0</ele><time>2026-04-25T10:09:42.228Z</time></trkpt><trkpt lat="45.7896317" lon="10.05449"><ele>220.0</ele><time>2026-04-25T10:09:43.227Z</time></trkpt><trkpt lat="45.7897317" lon="10.054585"><ele>227.0</ele><time>2026-04-25T10:09:44.227Z</time></trkpt><trkpt lat="45.789825" lon="10.0546833"><ele>234.0</ele><time>2026-04-25T10:09:45.228Z</time></trkpt><trkpt lat="45.7899083" lon="10.0547867"><ele>234.0</ele><time>2026-04-25T10:09:46.227Z</time></trkpt><trkpt lat="45.7899867" lon="10.054885"><ele>233.99999999999997</ele><time>2026-04-25T10:09:47.228Z</time></trkpt><trkpt lat="45.790065" lon="10.0549683"><ele>233.99999999999997</ele><time>2026-04-25T10:09:48.228Z</time></trkpt><trkpt lat="45.7901467" lon="10.0550233"><ele>234.0</ele><time>2026-04-25T10:09:49.227Z</time></trkpt><trkpt lat="45.7902333" lon="10.0550683"><ele>234.0</ele><time>2026-04-25T10:09:50.23Z</time></trkpt><trkpt lat="45.7903217" lon="10.0551117"><ele>227.79999999999998</ele><time>2026-04-25T10:09:51.231Z</time></trkpt><trkpt lat="45.7904117" lon="10.0551583"><ele>221.59999999999997</ele><time>2026-04-25T10:09:52.227Z</time></trkpt><trkpt lat="45.7905067" lon="10.0552117"><ele>215.4</ele><time>2026-04-25T10:09:53.229Z</time></trkpt><trkpt lat="45.7906067" lon="10.0552667"><ele>209.2</ele><time>2026-04-25T10:09:54.229Z</time></trkpt><trkpt lat="45.79071" lon="10.0553283"><ele>203.0</ele><time>2026-04-25T10:09:55.231Z</time></trkpt><trkpt lat="45.790815" lon="10.055395"><ele>203.0</ele><time>2026-04-25T10:09:56.23Z</time></trkpt><trkpt lat="45.79092" lon="10.0554617"><ele>203.0</ele><time>2026-04-25T10:09:57.23Z</time></trkpt><trkpt lat="45.7910217" lon="10.0555183"><ele>203.0</ele><time>2026-04-25T10:09:58.23Z</time></trkpt><trkpt lat="45.791115" lon="10.0555667"><ele>203.0</ele><time>2026-04-25T10:09:59.23Z</time></trkpt><trkpt lat="45.7911967" lon="10.0556067"><ele>203.0</ele><time>2026-04-25T10:10:00.229Z</time></trkpt><trkpt lat="45.7912733" lon="10.0556333"><ele>204.66666666666669</ele><time>2026-04-25T10:10:01.231Z</time></trkpt><trkpt lat="45.7913483" lon="10.05565"><ele>206.33333333333334</ele><time>2026-04-25T10:10:02.23Z</time></trkpt><trkpt lat="45.7914233" lon="10.0556617"><ele>208.0</ele><time>2026-04-25T10:10:03.228Z</time></trkpt><trkpt lat="45.7914983" lon="10.0556683"><ele>209.66666666666669</ele><time>2026-04-25T10:10:04.228Z</time></trkpt><trkpt lat="45.7915733" lon="10.0556683"><ele>211.33333333333334</ele><time>2026-04-25T10:10:05.233Z</time></trkpt><trkpt lat="45.7916483" lon="10.0556633"><ele>213.0</ele><time>2026-04-25T10:10:06.229Z</time></trkpt><trkpt lat="45.791725" lon="10.055655"><ele>213.0</ele><time>2026-04-25T10:10:07.228Z</time></trkpt><trkpt lat="45.7918083" lon="10.05565"><ele>213.0</ele><time>2026-04-25T10:10:08.228Z</time></trkpt><trkpt lat="45.7918967" lon="10.0556483"><ele>213.0</ele><time>2026-04-25T10:10:09.228Z</time></trkpt><trkpt lat="45.7919867" lon="10.0556467"><ele>213.0</ele><time>2026-04-25T10:10:10.227Z</time></trkpt><trkpt lat="45.7920733" lon="10.0556433"><ele>213.0</ele><time>2026-04-25T10:10:11.227Z</time></trkpt><trkpt lat="45.792165" lon="10.0556417"><ele>213.0</ele><time>2026-04-25T10:10:12.232Z</time></trkpt><trkpt lat="45.7922633" lon="10.0556417"><ele>213.60000000000002</ele><time>2026-04-25T10:10:13.228Z</time></trkpt><trkpt lat="45.792365" lon="10.0556517"><ele>214.20000000000002</ele><time>2026-04-25T10:10:14.227Z</time></trkpt><trkpt lat="45.7924667" lon="10.0556717"><ele>214.8</ele><time>2026-04-25T10:10:15.23Z</time></trkpt><trkpt lat="45.7925683" lon="10.0557033"><ele>215.4</ele><time>2026-04-25T10:10:16.229Z</time></trkpt><trkpt lat="45.792665" lon="10.0557533"><ele>216.0</ele><time>2026-04-25T10:10:17.229Z</time></trkpt><trkpt lat="45.7927717" lon="10.05583"><ele>216.0</ele><time>2026-04-25T10:10:18.228Z</time></trkpt><trkpt lat="45.7928683" lon="10.05593"><ele>216.0</ele><time>2026-04-25T10:10:19.228Z</time></trkpt><trkpt lat="45.79296" lon="10.056045"><ele>216.0</ele><time>2026-04-25T10:10:20.228Z</time></trkpt><trkpt lat="45.7930467" lon="10.056165"><ele>216.0</ele><time>2026-04-25T10:10:21.229Z</time></trkpt><trkpt lat="45.7931383" lon="10.0562917"><ele>216.0</ele><time>2026-04-25T10:10:22.227Z</time></trkpt><trkpt lat="45.793225" lon="10.05642"><ele>216.0</ele><time>2026-04-25T10:10:23.227Z</time></trkpt><trkpt lat="45.7933117" lon="10.0565433"><ele>216.0</ele><time>2026-04-25T10:10:24.228Z</time></trkpt><trkpt lat="45.7933917" lon="10.0566617"><ele>216.0</ele><time>2026-04-25T10:10:25.227Z</time></trkpt><trkpt lat="45.79347" lon="10.05678"><ele>221.75</ele><time>2026-04-25T10:10:26.228Z</time></trkpt><trkpt lat="45.7935433" lon="10.05691"><ele>227.5</ele><time>2026-04-25T10:10:27.229Z</time></trkpt><trkpt lat="45.7936167" lon="10.0570417"><ele>233.25</ele><time>2026-04-25T10:10:28.227Z</time></trkpt><trkpt lat="45.79369" lon="10.0571783"><ele>239.0</ele><time>2026-04-25T10:10:29.227Z</time></trkpt><trkpt lat="45.793765" lon="10.0573217"><ele>233.5</ele><time>2026-04-25T10:10:30.229Z</time></trkpt><trkpt lat="45.793835" lon="10.0574717"><ele>228.0</ele><time>2026-04-25T10:10:31.228Z</time></trkpt><trkpt lat="45.7939017" lon="10.0576217"><ele>222.5</ele><time>2026-04-25T10:10:32.228Z</time></trkpt><trkpt lat="45.7939683" lon="10.0577683"><ele>217.0</ele><time>2026-04-25T10:10:33.231Z</time></trkpt><trkpt lat="45.79404" lon="10.0579167"><ele>217.0</ele><time>2026-04-25T10:10:34.229Z</time></trkpt><trkpt lat="45.7941117" lon="10.0580617"><ele>217.0</ele><time>2026-04-25T10:10:35.227Z</time></trkpt><trkpt lat="45.79419" lon="10.0582017"><ele>217.0</ele><time>2026-04-25T10:10:36.229Z</time></trkpt><trkpt lat="45.7942717" lon="10.0583317"><ele>217.0</ele><time>2026-04-25T10:10:37.228Z</time></trkpt><trkpt lat="45.79435" lon="10.0584417"><ele>216.99999999999997</ele><time>2026-04-25T10:10:38.227Z</time></trkpt><trkpt lat="45.7944183" lon="10.0585233"><ele>217.0</ele><time>2026-04-25T10:10:39.227Z</time></trkpt><trkpt lat="45.7944833" lon="10.0585783"><ele>217.0</ele><time>2026-04-25T10:10:40.23Z</time></trkpt><trkpt lat="45.7945483" lon="10.0585983"><ele>217.0</ele><time>2026-04-25T10:10:41.23Z</time></trkpt><trkpt lat="45.7946233" lon="10.0585833"><ele>216.99999999999997</ele><time>2026-04-25T10:10:42.227Z</time></trkpt><trkpt lat="45.794705" lon="10.0585617"><ele>217.0</ele><time>2026-04-25T10:10:43.227Z</time></trkpt><trkpt lat="45.7947883" lon="10.0585433"><ele>216.99999999999997</ele><time>2026-04-25T10:10:44.228Z</time></trkpt><trkpt lat="45.794875" lon="10.0585267"><ele>217.0</ele><time>2026-04-25T10:10:45.227Z</time></trkpt><trkpt lat="45.794955" lon="10.058495"><ele>217.0</ele><time>2026-04-25T10:10:46.228Z</time></trkpt><trkpt lat="45.7950267" lon="10.05845"><ele>217.0</ele><time>2026-04-25T10:10:47.228Z</time></trkpt><trkpt lat="45.795095" lon="10.0583933"><ele>216.99999999999997</ele><time>2026-04-25T10:10:48.227Z</time></trkpt><trkpt lat="45.795165" lon="10.0583433"><ele>217.0</ele><time>2026-04-25T10:10:49.229Z</time></trkpt><trkpt lat="45.795235" lon="10.0583117"><ele>219.33333333333331</ele><time>2026-04-25T10:10:50.23Z</time></trkpt><trkpt lat="45.795315" lon="10.0583017"><ele>221.66666666666666</ele><time>2026-04-25T10:10:51.231Z</time></trkpt><trkpt lat="45.79539" lon="10.0583083"><ele>224.0</ele><time>2026-04-25T10:10:52.229Z</time></trkpt><trkpt lat="45.795455" lon="10.0583267"><ele>226.33333333333331</ele><time>2026-04-25T10:10:53.23Z</time></trkpt><trkpt lat="45.7955483" lon="10.0583917"><ele>228.66666666666666</ele><time>2026-04-25T10:10:55.228Z</time></trkpt><trkpt lat="45.7956217" lon="10.0584717"><ele>231.0</ele><time>2026-04-25T10:10:57.228Z</time></trkpt><trkpt lat="45.79573" lon="10.05854"><ele>231.0</ele><time>2026-04-25T10:10:59.227Z</time></trkpt><trkpt lat="45.7957967" lon="10.05857"><ele>231.0</ele><time>2026-04-25T10:11:00.227Z</time></trkpt><trkpt lat="45.795865" lon="10.058595"><ele>231.0</ele><time>2026-04-25T10:11:01.228Z</time></trkpt><trkpt lat="45.7959333" lon="10.05861"><ele>231.0</ele><time>2026-04-25T10:11:02.228Z</time></trkpt><trkpt lat="45.7959983" lon="10.0586283"><ele>231.0</ele><time>2026-04-25T10:11:03.228Z</time></trkpt><trkpt lat="45.7960783" lon="10.0586317"><ele>231.0</ele><time>2026-04-25T10:11:04.228Z</time></trkpt><trkpt lat="45.79619" lon="10.0586483"><ele>237.5</ele><time>2026-04-25T10:11:05.228Z</time></trkpt><trkpt lat="45.79632" lon="10.0586883"><ele>244.0</ele><time>2026-04-25T10:11:06.227Z</time></trkpt><trkpt lat="45.7964433" lon="10.058715"><ele>250.5</ele><time>2026-04-25T10:11:07.228Z</time></trkpt><trkpt lat="45.7965633" lon="10.058745"><ele>257.0</ele><time>2026-04-25T10:11:08.229Z</time></trkpt><trkpt lat="45.79668" lon="10.0587767"><ele>257.0</ele><time>2026-04-25T10:11:09.228Z</time></trkpt><trkpt lat="45.7967867" lon="10.0588067"><ele>257.0</ele><time>2026-04-25T10:11:10.228Z</time></trkpt><trkpt lat="45.7968767" lon="10.0588317"><ele>257.0</ele><time>2026-04-25T10:11:11.228Z</time></trkpt><trkpt lat="45.7969567" lon="10.0588667"><ele>257.0</ele><time>2026-04-25T10:11:12.227Z</time></trkpt><trkpt lat="45.7970233" lon="10.0588967"><ele>257.0</ele><time>2026-04-25T10:11:13.228Z</time></trkpt><trkpt lat="45.797135" lon="10.0589333"><ele>262.1666666666667</ele><time>2026-04-25T10:11:15.229Z</time></trkpt><trkpt lat="45.7972233" lon="10.058845"><ele>267.33333333333337</ele><time>2026-04-25T10:11:17.228Z</time></trkpt><trkpt lat="45.79728" lon="10.05875"><ele>272.5</ele><time>2026-04-25T10:11:18.23Z</time></trkpt><trkpt lat="45.79734" lon="10.05867"><ele>277.6666666666667</ele><time>2026-04-25T10:11:19.23Z</time></trkpt><trkpt lat="45.7974067" lon="10.0586083"><ele>282.8333333333333</ele><time>2026-04-25T10:11:20.23Z</time></trkpt><trkpt lat="45.79747" lon="10.058545"><ele>288.0</ele><time>2026-04-25T10:11:21.23Z</time></trkpt><trkpt lat="45.7975383" lon="10.0584883"><ele>288.00000000000006</ele><time>2026-04-25T10:11:22.228Z</time></trkpt><trkpt lat="45.7976083" lon="10.0584317"><ele>288.0</ele><time>2026-04-25T10:11:23.228Z</time></trkpt><trkpt lat="45.797675" lon="10.05837"><ele>288.0</ele><time>2026-04-25T10:11:24.229Z</time></trkpt><trkpt lat="45.7977283" lon="10.0582967"><ele>288.0</ele><time>2026-04-25T10:11:25.229Z</time></trkpt><trkpt lat="45.7977717" lon="10.0582167"><ele>288.0</ele><time>2026-04-25T10:11:26.23Z</time></trkpt><trkpt lat="45.7978117" lon="10.0581317"><ele>288.00000000000006</ele><time>2026-04-25T10:11:27.229Z</time></trkpt><trkpt lat="45.7978533" lon="10.0580567"><ele>288.0</ele><time>2026-04-25T10:11:28.228Z</time></trkpt><trkpt lat="45.7979833" lon="10.057985"><ele>303.6</ele><time>2026-04-25T10:11:30.229Z</time></trkpt><trkpt lat="45.7980633" lon="10.0579533"><ele>319.20000000000005</ele><time>2026-04-25T10:11:31.229Z</time></trkpt><trkpt lat="45.7981517" lon="10.0579167"><ele>334.8</ele><time>2026-04-25T10:11:32.229Z</time></trkpt><trkpt lat="45.7982433" lon="10.05788"><ele>350.40000000000003</ele><time>2026-04-25T10:11:33.23Z</time></trkpt><trkpt lat="45.7983333" lon="10.0578483"><ele>366.0</ele><time>2026-04-25T10:11:34.227Z</time></trkpt><trkpt lat="45.79842" lon="10.0578183"><ele>366.0</ele><time>2026-04-25T10:11:35.228Z</time></trkpt><trkpt lat="45.7985033" lon="10.0577867"><ele>366.0</ele><time>2026-04-25T10:11:36.229Z</time></trkpt><trkpt lat="45.79858" lon="10.0577367"><ele>366.0</ele><time>2026-04-25T10:11:37.229Z</time></trkpt><trkpt lat="45.798655" lon="10.0576917"><ele>366.0</ele><time>2026-04-25T10:11:38.23Z</time></trkpt><trkpt lat="45.79873" lon="10.05762"><ele>366.0</ele><time>2026-04-25T10:11:39.232Z</time></trkpt><trkpt lat="45.7988083" lon="10.0575617"><ele>366.0</ele><time>2026-04-25T10:11:40.227Z</time></trkpt><trkpt lat="45.7988867" lon="10.0575083"><ele>370.6666666666667</ele><time>2026-04-25T10:11:41.228Z</time></trkpt><trkpt lat="45.7989633" lon="10.0574383"><ele>375.33333333333337</ele><time>2026-04-25T10:11:42.23Z</time></trkpt><trkpt lat="45.7990417" lon="10.0573867"><ele>380.0</ele><time>2026-04-25T10:11:43.228Z</time></trkpt><trkpt lat="45.79912" lon="10.05734"><ele>384.6666666666667</ele><time>2026-04-25T10:11:44.228Z</time></trkpt><trkpt lat="45.7992017" lon="10.0572883"><ele>389.33333333333337</ele><time>2026-04-25T10:11:45.23Z</time></trkpt><trkpt lat="45.7992733" lon="10.0572367"><ele>394.0</ele><time>2026-04-25T10:11:46.228Z</time></trkpt><trkpt lat="45.7993383" lon="10.05718"><ele>394.00000000000006</ele><time>2026-04-25T10:11:47.229Z</time></trkpt><trkpt lat="45.799405" lon="10.0571267"><ele>394.0</ele><time>2026-04-25T10:11:48.23Z</time></trkpt><trkpt lat="45.7994683" lon="10.057075"><ele>394.0</ele><time>2026-04-25T10:11:49.229Z</time></trkpt><trkpt lat="45.799535" lon="10.057025"><ele>394.0</ele><time>2026-04-25T10:11:50.23Z</time></trkpt><trkpt lat="45.7996067" lon="10.0569733"><ele>394.00000000000006</ele><time>2026-04-25T10:11:51.229Z</time></trkpt><trkpt lat="45.7996767" lon="10.0569133"><ele>394.0</ele><time>2026-04-25T10:11:52.229Z</time></trkpt><trkpt lat="45.799755" lon="10.05684"><ele>394.0</ele><time>2026-04-25T10:11:53.227Z</time></trkpt><trkpt lat="45.7998417" lon="10.056775"><ele>394.0</ele><time>2026-04-25T10:11:54.23Z</time></trkpt><trkpt lat="45.7999367" lon="10.056725"><ele>394.0</ele><time>2026-04-25T10:11:55.23Z</time></trkpt><trkpt lat="45.8000317" lon="10.0566867"><ele>394.0</ele><time>2026-04-25T10:11:56.229Z</time></trkpt><trkpt lat="45.8001283" lon="10.05666"><ele>394.0</ele><time>2026-04-25T10:11:57.229Z</time></trkpt><trkpt lat="45.8002267" lon="10.0566517"><ele>390.0</ele><time>2026-04-25T10:11:58.228Z</time></trkpt><trkpt lat="45.8003267" lon="10.0566533"><ele>386.0</ele><time>2026-04-25T10:11:59.228Z</time></trkpt><trkpt lat="45.8004233" lon="10.0566417"><ele>382.0</ele><time>2026-04-25T10:12:00.229Z</time></trkpt><trkpt lat="45.8005183" lon="10.0566333"><ele>378.0</ele><time>2026-04-25T10:12:01.23Z</time></trkpt><trkpt lat="45.8006183" lon="10.0566367"><ele>374.0</ele><time>2026-04-25T10:12:02.23Z</time></trkpt><trkpt lat="45.80072" lon="10.0566483"><ele>374.0</ele><time>2026-04-25T10:12:03.23Z</time></trkpt><trkpt lat="45.80082" lon="10.0566733"><ele>374.0</ele><time>2026-04-25T10:12:04.23Z</time></trkpt><trkpt lat="45.8009167" lon="10.0567133"><ele>374.0</ele><time>2026-04-25T10:12:05.229Z</time></trkpt><trkpt lat="45.801015" lon="10.05676"><ele>374.0</ele><time>2026-04-25T10:12:06.227Z</time></trkpt><trkpt lat="45.8011083" lon="10.056815"><ele>374.0</ele><time>2026-04-25T10:12:07.228Z</time></trkpt><trkpt lat="45.8011967" lon="10.0568733"><ele>374.0</ele><time>2026-04-25T10:12:08.229Z</time></trkpt><trkpt lat="45.8012767" lon="10.0569367"><ele>374.0</ele><time>2026-04-25T10:12:09.228Z</time></trkpt><trkpt lat="45.8013483" lon="10.0570133"><ele>374.0</ele><time>2026-04-25T10:12:10.228Z</time></trkpt><trkpt lat="45.8014117" lon="10.0571167"><ele>374.0</ele><time>2026-04-25T10:12:11.228Z</time></trkpt><trkpt lat="45.8014767" lon="10.05723"><ele>374.0</ele><time>2026-04-25T10:12:12.228Z</time></trkpt><trkpt lat="45.8015483" lon="10.05733"><ele>374.0</ele><time>2026-04-25T10:12:13.228Z</time></trkpt><trkpt lat="45.8016267" lon="10.057425"><ele>374.0</ele><time>2026-04-25T10:12:14.23Z</time></trkpt><trkpt lat="45.8017033" lon="10.05752"><ele>374.0</ele><time>2026-04-25T10:12:15.231Z</time></trkpt><trkpt lat="45.8017817" lon="10.057615"><ele>374.0</ele><time>2026-04-25T10:12:16.231Z</time></trkpt><trkpt lat="45.8018583" lon="10.05771"><ele>374.0</ele><time>2026-04-25T10:12:17.231Z</time></trkpt><trkpt lat="45.801935" lon="10.057805"><ele>352.5</ele><time>2026-04-25T10:12:18.231Z</time></trkpt><trkpt lat="45.8022433" lon="10.0581817"><ele>331.0</ele><time>2026-04-25T10:12:22.23Z</time></trkpt><trkpt lat="45.8022933" lon="10.0583"><ele>264.0</ele><time>2026-04-25T10:12:23.229Z</time></trkpt><trkpt lat="45.8024267" lon="10.0591883"><ele>264.0</ele><time>2026-04-25T10:12:28.23Z</time></trkpt><trkpt lat="45.8023033" lon="10.059325"><ele>264.0</ele><time>2026-04-25T10:12:29.229Z</time></trkpt><trkpt lat="45.8022683" lon="10.059605"><ele>264.0</ele><time>2026-04-25T10:12:30.229Z</time></trkpt><trkpt lat="45.80228" lon="10.05972"><ele>264.0</ele><time>2026-04-25T10:12:31.229Z</time></trkpt><trkpt lat="45.8021983" lon="10.0599817"><ele>254.33333333333331</ele><time>2026-04-25T10:12:32.229Z</time></trkpt><trkpt lat="45.8020667" lon="10.06029"><ele>244.66666666666666</ele><time>2026-04-25T10:12:33.231Z</time></trkpt><trkpt lat="45.8020067" lon="10.060475"><ele>235.0</ele><time>2026-04-25T10:12:34.229Z</time></trkpt><trkpt lat="45.8020133" lon="10.0606167"><ele>235.0</ele><time>2026-04-25T10:12:35.229Z</time></trkpt><trkpt lat="45.802005" lon="10.0607667"><ele>235.0</ele><time>2026-04-25T10:12:36.229Z</time></trkpt><trkpt lat="45.8019717" lon="10.060895"><ele>235.0</ele><time>2026-04-25T10:12:37.23Z</time></trkpt><trkpt lat="45.8019233" lon="10.0610133"><ele>235.0</ele><time>2026-04-25T10:12:38.23Z</time></trkpt><trkpt lat="45.80186" lon="10.0611233"><ele>235.0</ele><time>2026-04-25T10:12:39.228Z</time></trkpt><trkpt lat="45.8018133" lon="10.061255"><ele>229.16666666666666</ele><time>2026-04-25T10:12:40.228Z</time></trkpt><trkpt lat="45.801785" lon="10.0613783"><ele>223.33333333333331</ele><time>2026-04-25T10:12:41.229Z</time></trkpt><trkpt lat="45.8017583" lon="10.0615"><ele>217.5</ele><time>2026-04-25T10:12:42.229Z</time></trkpt><trkpt lat="45.80174" lon="10.0616217"><ele>211.66666666666669</ele><time>2026-04-25T10:12:43.229Z</time></trkpt><trkpt lat="45.8017267" lon="10.06174"><ele>205.83333333333334</ele><time>2026-04-25T10:12:44.228Z</time></trkpt><trkpt lat="45.80173" lon="10.0618617"><ele>200.0</ele><time>2026-04-25T10:12:45.229Z</time></trkpt><trkpt lat="45.8017417" lon="10.061985"><ele>200.00000000000003</ele><time>2026-04-25T10:12:46.228Z</time></trkpt><trkpt lat="45.80176" lon="10.062105"><ele>200.0</ele><time>2026-04-25T10:12:47.228Z</time></trkpt><trkpt lat="45.8017833" lon="10.062215"><ele>200.0</ele><time>2026-04-25T10:12:48.23Z</time></trkpt><trkpt lat="45.8018133" lon="10.06232"><ele>200.0</ele><time>2026-04-25T10:12:49.229Z</time></trkpt><trkpt lat="45.8018467" lon="10.0624267"><ele>200.00000000000003</ele><time>2026-04-25T10:12:50.23Z</time></trkpt><trkpt lat="45.8018833" lon="10.0625367"><ele>200.0</ele><time>2026-04-25T10:12:51.229Z</time></trkpt><trkpt lat="45.80192" lon="10.062655"><ele>199.6</ele><time>2026-04-25T10:12:52.229Z</time></trkpt><trkpt lat="45.801955" lon="10.0627817"><ele>199.2</ele><time>2026-04-25T10:12:53.23Z</time></trkpt><trkpt lat="45.8019883" lon="10.0629167"><ele>198.8</ele><time>2026-04-25T10:12:54.229Z</time></trkpt><trkpt lat="45.8020133" lon="10.063055"><ele>198.4</ele><time>2026-04-25T10:12:55.23Z</time></trkpt><trkpt lat="45.8020333" lon="10.0631917"><ele>198.0</ele><time>2026-04-25T10:12:56.228Z</time></trkpt><trkpt lat="45.8020533" lon="10.0633283"><ele>198.0</ele><time>2026-04-25T10:12:57.23Z</time></trkpt><trkpt lat="45.80207" lon="10.0634683"><ele>198.0</ele><time>2026-04-25T10:12:58.23Z</time></trkpt><trkpt lat="45.80208" lon="10.0636117"><ele>198.0</ele><time>2026-04-25T10:12:59.23Z</time></trkpt><trkpt lat="45.80208" lon="10.063765"><ele>198.0</ele><time>2026-04-25T10:13:00.228Z</time></trkpt><trkpt lat="45.8020783" lon="10.063925"><ele>198.0</ele><time>2026-04-25T10:13:01.228Z</time></trkpt><trkpt lat="45.8020783" lon="10.0640867"><ele>197.8</ele><time>2026-04-25T10:13:02.227Z</time></trkpt><trkpt lat="45.80208" lon="10.0642467"><ele>197.60000000000002</ele><time>2026-04-25T10:13:03.23Z</time></trkpt><trkpt lat="45.802085" lon="10.064395"><ele>197.39999999999998</ele><time>2026-04-25T10:13:04.229Z</time></trkpt><trkpt lat="45.8020967" lon="10.0645333"><ele>197.2</ele><time>2026-04-25T10:13:05.229Z</time></trkpt><trkpt lat="45.8021133" lon="10.0646667"><ele>197.0</ele><time>2026-04-25T10:13:06.229Z</time></trkpt><trkpt lat="45.8021417" lon="10.0647967"><ele>197.0</ele><time>2026-04-25T10:13:07.227Z</time></trkpt><trkpt lat="45.8021783" lon="10.06493"><ele>197.0</ele><time>2026-04-25T10:13:08.228Z</time></trkpt><trkpt lat="45.8022167" lon="10.065065"><ele>197.0</ele><time>2026-04-25T10:13:09.229Z</time></trkpt><trkpt lat="45.8022617" lon="10.0651917"><ele>197.0</ele><time>2026-04-25T10:13:10.228Z</time></trkpt><trkpt lat="45.8023067" lon="10.06531"><ele>197.0</ele><time>2026-04-25T10:13:11.228Z</time></trkpt><trkpt lat="45.802345" lon="10.0654217"><ele>196.6</ele><time>2026-04-25T10:13:12.229Z</time></trkpt><trkpt lat="45.8023733" lon="10.06554"><ele>196.2</ele><time>2026-04-25T10:13:13.229Z</time></trkpt><trkpt lat="45.8023933" lon="10.0656667"><ele>195.8</ele><time>2026-04-25T10:13:14.231Z</time></trkpt><trkpt lat="45.8024033" lon="10.065805"><ele>195.4</ele><time>2026-04-25T10:13:15.229Z</time></trkpt><trkpt lat="45.802405" lon="10.0659417"><ele>195.0</ele><time>2026-04-25T10:13:16.229Z</time></trkpt><trkpt lat="45.8024017" lon="10.06608"><ele>194.66666666666666</ele><time>2026-04-25T10:13:17.231Z</time></trkpt><trkpt lat="45.8023933" lon="10.0662133"><ele>194.33333333333331</ele><time>2026-04-25T10:13:18.233Z</time></trkpt><trkpt lat="45.8023817" lon="10.0663417"><ele>194.0</ele><time>2026-04-25T10:13:19.228Z</time></trkpt><trkpt lat="45.802365" lon="10.0664583"><ele>193.66666666666666</ele><time>2026-04-25T10:13:20.23Z</time></trkpt><trkpt lat="45.802345" lon="10.06657"><ele>193.33333333333331</ele><time>2026-04-25T10:13:21.228Z</time></trkpt><trkpt lat="45.8023333" lon="10.06668"><ele>193.0</ele><time>2026-04-25T10:13:22.231Z</time></trkpt><trkpt lat="45.8023117" lon="10.0667867"><ele>192.66666666666666</ele><time>2026-04-25T10:13:23.231Z</time></trkpt><trkpt lat="45.8022917" lon="10.0669017"><ele>192.33333333333331</ele><time>2026-04-25T10:13:24.229Z</time></trkpt><trkpt lat="45.8022733" lon="10.0670217"><ele>192.0</ele><time>2026-04-25T10:13:25.229Z</time></trkpt><trkpt lat="45.8022683" lon="10.067145"><ele>191.66666666666666</ele><time>2026-04-25T10:13:26.23Z</time></trkpt><trkpt lat="45.8022717" lon="10.0672683"><ele>191.33333333333331</ele><time>2026-04-25T10:13:27.228Z</time></trkpt><trkpt lat="45.802275" lon="10.06737"><ele>191.0</ele><time>2026-04-25T10:13:28.23Z</time></trkpt><trkpt lat="45.8022883" lon="10.0675167"><ele>190.8</ele><time>2026-04-25T10:13:30.228Z</time></trkpt><trkpt lat="45.802295" lon="10.0676467"><ele>190.60000000000002</ele><time>2026-04-25T10:13:32.228Z</time></trkpt><trkpt lat="45.80228" lon="10.067775"><ele>190.4</ele><time>2026-04-25T10:13:34.229Z</time></trkpt><trkpt lat="45.8023017" lon="10.067915"><ele>190.2</ele><time>2026-04-25T10:13:36.227Z</time></trkpt><trkpt lat="45.8023817" lon="10.0679483"><ele>190.0</ele><time>2026-04-25T10:13:38.23Z</time></trkpt><trkpt lat="45.802465" lon="10.0678633"><ele>190.0</ele><time>2026-04-25T10:13:40.232Z</time></trkpt><trkpt lat="45.802525" lon="10.0678183"><ele>190.0</ele><time>2026-04-25T10:13:41.23Z</time></trkpt><trkpt lat="45.802595" lon="10.067785"><ele>190.0</ele><time>2026-04-25T10:13:42.229Z</time></trkpt><trkpt lat="45.8026767" lon="10.0677583"><ele>190.0</ele><time>2026-04-25T10:13:43.228Z</time></trkpt><trkpt lat="45.8027583" lon="10.067745"><ele>190.0</ele><time>2026-04-25T10:13:44.228Z</time></trkpt><trkpt lat="45.8028667" lon="10.067705"><ele>190.0</ele><time>2026-04-25T10:13:45.228Z</time></trkpt><trkpt lat="45.8029833" lon="10.0676633"><ele>190.25</ele><time>2026-04-25T10:13:46.229Z</time></trkpt><trkpt lat="45.80311" lon="10.0676167"><ele>190.5</ele><time>2026-04-25T10:13:47.229Z</time></trkpt><trkpt lat="45.80324" lon="10.06757"><ele>190.75</ele><time>2026-04-25T10:13:48.23Z</time></trkpt><trkpt lat="45.8033767" lon="10.0675233"><ele>191.0</ele><time>2026-04-25T10:13:49.228Z</time></trkpt><trkpt lat="45.803525" lon="10.0674783"><ele>192.33333333333331</ele><time>2026-04-25T10:13:50.228Z</time></trkpt><trkpt lat="45.8036833" lon="10.0674383"><ele>193.66666666666666</ele><time>2026-04-25T10:13:51.23Z</time></trkpt><trkpt lat="45.8038417" lon="10.0674133"><ele>195.0</ele><time>2026-04-25T10:13:52.228Z</time></trkpt><trkpt lat="45.803995" lon="10.0673983"><ele>195.0</ele><time>2026-04-25T10:13:53.228Z</time></trkpt><trkpt lat="45.8041417" lon="10.0673833"><ele>195.0</ele><time>2026-04-25T10:13:54.23Z</time></trkpt><trkpt lat="45.8042883" lon="10.06737"><ele>195.0</ele><time>2026-04-25T10:13:55.229Z</time></trkpt><trkpt lat="45.8044267" lon="10.0673567"><ele>195.0</ele><time>2026-04-25T10:13:56.229Z</time></trkpt><trkpt lat="45.8045617" lon="10.0673467"><ele>195.25</ele><time>2026-04-25T10:13:57.23Z</time></trkpt><trkpt lat="45.8046867" lon="10.0673383"><ele>195.5</ele><time>2026-04-25T10:13:58.23Z</time></trkpt><trkpt lat="45.8048067" lon="10.06733"><ele>195.75</ele><time>2026-04-25T10:13:59.23Z</time></trkpt><trkpt lat="45.804915" lon="10.0673117"><ele>196.0</ele><time>2026-04-25T10:14:00.228Z</time></trkpt><trkpt lat="45.805015" lon="10.0672883"><ele>196.0</ele><time>2026-04-25T10:14:01.23Z</time></trkpt><trkpt lat="45.8051233" lon="10.0672667"><ele>196.0</ele><time>2026-04-25T10:14:02.229Z</time></trkpt><trkpt lat="45.805235" lon="10.0672617"><ele>196.0</ele><time>2026-04-25T10:14:03.229Z</time></trkpt><trkpt lat="45.80535" lon="10.0672733"><ele>196.0</ele><time>2026-04-25T10:14:04.228Z</time></trkpt><trkpt lat="45.80547" lon="10.0672983"><ele>196.75</ele><time>2026-04-25T10:14:05.229Z</time></trkpt><trkpt lat="45.805595" lon="10.0673267"><ele>197.5</ele><time>2026-04-25T10:14:06.228Z</time></trkpt><trkpt lat="45.8057183" lon="10.0673583"><ele>198.25</ele><time>2026-04-25T10:14:07.23Z</time></trkpt><trkpt lat="45.8058383" lon="10.06739"><ele>199.0</ele><time>2026-04-25T10:14:08.228Z</time></trkpt><trkpt lat="45.8059567" lon="10.067425"><ele>198.6</ele><time>2026-04-25T10:14:09.229Z</time></trkpt><trkpt lat="45.8060617" lon="10.0674533"><ele>198.2</ele><time>2026-04-25T10:14:10.229Z</time></trkpt><trkpt lat="45.8061617" lon="10.06748"><ele>197.79999999999998</ele><time>2026-04-25T10:14:11.23Z</time></trkpt><trkpt lat="45.8062533" lon="10.0675033"><ele>197.39999999999998</ele><time>2026-04-25T10:14:12.23Z</time></trkpt><trkpt lat="45.8063433" lon="10.067525"><ele>197.0</ele><time>2026-04-25T10:14:13.23Z</time></trkpt><trkpt lat="45.8064317" lon="10.0675467"><ele>197.0</ele><time>2026-04-25T10:14:14.23Z</time></trkpt><trkpt lat="45.8065233" lon="10.0675717"><ele>197.0</ele><time>2026-04-25T10:14:15.23Z</time></trkpt><trkpt lat="45.806615" lon="10.0675983"><ele>197.0</ele><time>2026-04-25T10:14:16.227Z</time></trkpt><trkpt lat="45.8067133" lon="10.0676267"><ele>197.0</ele><time>2026-04-25T10:14:17.227Z</time></trkpt><trkpt lat="45.8068133" lon="10.0676533"><ele>197.0</ele><time>2026-04-25T10:14:18.228Z</time></trkpt><trkpt lat="45.8069083" lon="10.0676783"><ele>198.2</ele><time>2026-04-25T10:14:19.228Z</time></trkpt><trkpt lat="45.8069983" lon="10.0677017"><ele>199.39999999999998</ele><time>2026-04-25T10:14:20.229Z</time></trkpt><trkpt lat="45.8070883" lon="10.06773"><ele>200.60000000000002</ele><time>2026-04-25T10:14:21.228Z</time></trkpt><trkpt lat="45.80718" lon="10.067755"><ele>201.8</ele><time>2026-04-25T10:14:22.227Z</time></trkpt><trkpt lat="45.8072767" lon="10.06778"><ele>203.0</ele><time>2026-04-25T10:14:23.23Z</time></trkpt><trkpt lat="45.8073783" lon="10.06781"><ele>203.0</ele><time>2026-04-25T10:14:24.229Z</time></trkpt><trkpt lat="45.8074783" lon="10.0678383"><ele>203.0</ele><time>2026-04-25T10:14:25.227Z</time></trkpt><trkpt lat="45.8075783" lon="10.0678683"><ele>203.0</ele><time>2026-04-25T10:14:26.228Z</time></trkpt><trkpt lat="45.80768" lon="10.0678917"><ele>203.0</ele><time>2026-04-25T10:14:27.229Z</time></trkpt><trkpt lat="45.8077783" lon="10.0679217"><ele>203.0</ele><time>2026-04-25T10:14:28.228Z</time></trkpt><trkpt lat="45.80788" lon="10.0679567"><ele>204.8</ele><time>2026-04-25T10:14:29.23Z</time></trkpt><trkpt lat="45.8079867" lon="10.06799"><ele>206.60000000000002</ele><time>2026-04-25T10:14:30.228Z</time></trkpt><trkpt lat="45.8080967" lon="10.0680233"><ele>208.39999999999998</ele><time>2026-04-25T10:14:31.229Z</time></trkpt><trkpt lat="45.8082083" lon="10.0680483"><ele>210.2</ele><time>2026-04-25T10:14:32.229Z</time></trkpt><trkpt lat="45.8083167" lon="10.0680767"><ele>212.0</ele><time>2026-04-25T10:14:33.23Z</time></trkpt><trkpt lat="45.8084217" lon="10.0681"><ele>213.83333333333334</ele><time>2026-04-25T10:14:34.23Z</time></trkpt><trkpt lat="45.8085283" lon="10.0681283"><ele>215.66666666666669</ele><time>2026-04-25T10:14:35.229Z</time></trkpt><trkpt lat="45.8086217" lon="10.0681583"><ele>217.5</ele><time>2026-04-25T10:14:36.23Z</time></trkpt><trkpt lat="45.8087017" lon="10.0681883"><ele>219.33333333333331</ele><time>2026-04-25T10:14:37.234Z</time></trkpt><trkpt lat="45.8087717" lon="10.0682133"><ele>221.16666666666666</ele><time>2026-04-25T10:14:38.23Z</time></trkpt><trkpt lat="45.8088333" lon="10.0682367"><ele>223.0</ele><time>2026-04-25T10:14:39.23Z</time></trkpt><trkpt lat="45.8089483" lon="10.06829"><ele>220.4</ele><time>2026-04-25T10:14:41.227Z</time></trkpt><trkpt lat="45.8090167" lon="10.0683267"><ele>217.8</ele><time>2026-04-25T10:14:42.227Z</time></trkpt><trkpt lat="45.8090933" lon="10.068365"><ele>215.2</ele><time>2026-04-25T10:14:43.228Z</time></trkpt><trkpt lat="45.8091883" lon="10.0683967"><ele>212.6</ele><time>2026-04-25T10:14:44.228Z</time></trkpt><trkpt lat="45.80929" lon="10.068425"><ele>210.0</ele><time>2026-04-25T10:14:45.228Z</time></trkpt><trkpt lat="45.809395" lon="10.068455"><ele>210.0</ele><time>2026-04-25T10:14:46.228Z</time></trkpt><trkpt lat="45.809505" lon="10.06848"><ele>210.0</ele><time>2026-04-25T10:14:47.228Z</time></trkpt><trkpt lat="45.8096167" lon="10.0685133"><ele>210.0</ele><time>2026-04-25T10:14:48.229Z</time></trkpt><trkpt lat="45.8097267" lon="10.0685567"><ele>210.0</ele><time>2026-04-25T10:14:49.229Z</time></trkpt><trkpt lat="45.809825" lon="10.0686117"><ele>210.0</ele><time>2026-04-25T10:14:50.227Z</time></trkpt><trkpt lat="45.8099083" lon="10.06868"><ele>210.0</ele><time>2026-04-25T10:14:51.228Z</time></trkpt><trkpt lat="45.80998" lon="10.0687633"><ele>210.0</ele><time>2026-04-25T10:14:52.227Z</time></trkpt><trkpt lat="45.810045" lon="10.0688733"><ele>210.0</ele><time>2026-04-25T10:14:53.228Z</time></trkpt><trkpt lat="45.8101033" lon="10.069005"><ele>210.0</ele><time>2026-04-25T10:14:54.228Z</time></trkpt><trkpt lat="45.8101633" lon="10.0691483"><ele>210.0</ele><time>2026-04-25T10:14:55.229Z</time></trkpt><trkpt lat="45.8102267" lon="10.0692867"><ele>207.75</ele><time>2026-04-25T10:14:56.228Z</time></trkpt><trkpt lat="45.81028" lon="10.069435"><ele>205.5</ele><time>2026-04-25T10:14:57.227Z</time></trkpt><trkpt lat="45.81032" lon="10.0695883"><ele>203.25</ele><time>2026-04-25T10:14:58.229Z</time></trkpt><trkpt lat="45.8103483" lon="10.06975"><ele>201.0</ele><time>2026-04-25T10:14:59.229Z</time></trkpt><trkpt lat="45.8103733" lon="10.0699083"><ele>199.60000000000002</ele><time>2026-04-25T10:15:00.231Z</time></trkpt><trkpt lat="45.8104017" lon="10.0700667"><ele>198.2</ele><time>2026-04-25T10:15:01.229Z</time></trkpt><trkpt lat="45.81045" lon="10.0702067"><ele>196.8</ele><time>2026-04-25T10:15:02.227Z</time></trkpt><trkpt lat="45.8105217" lon="10.0703167"><ele>195.39999999999998</ele><time>2026-04-25T10:15:03.228Z</time></trkpt><trkpt lat="45.810615" lon="10.0704083"><ele>194.0</ele><time>2026-04-25T10:15:04.228Z</time></trkpt><trkpt lat="45.810725" lon="10.07047"><ele>194.0</ele><time>2026-04-25T10:15:05.23Z</time></trkpt><trkpt lat="45.810845" lon="10.0705167"><ele>194.0</ele><time>2026-04-25T10:15:06.228Z</time></trkpt><trkpt lat="45.81097" lon="10.0705633"><ele>194.0</ele><time>2026-04-25T10:15:07.228Z</time></trkpt><trkpt lat="45.8110967" lon="10.0706217"><ele>194.0</ele><time>2026-04-25T10:15:08.229Z</time></trkpt><trkpt lat="45.8112233" lon="10.0706867"><ele>195.0</ele><time>2026-04-25T10:15:09.229Z</time></trkpt><trkpt lat="45.811345" lon="10.0707533"><ele>196.0</ele><time>2026-04-25T10:15:10.227Z</time></trkpt><trkpt lat="45.8114633" lon="10.070825"><ele>197.0</ele><time>2026-04-25T10:15:11.228Z</time></trkpt><trkpt lat="45.8115733" lon="10.070895"><ele>198.0</ele><time>2026-04-25T10:15:12.231Z</time></trkpt><trkpt lat="45.811675" lon="10.0709617"><ele>197.8</ele><time>2026-04-25T10:15:13.231Z</time></trkpt><trkpt lat="45.8117683" lon="10.07103"><ele>197.60000000000002</ele><time>2026-04-25T10:15:14.229Z</time></trkpt><trkpt lat="45.811855" lon="10.07109"><ele>197.39999999999998</ele><time>2026-04-25T10:15:15.229Z</time></trkpt><trkpt lat="45.8119333" lon="10.0711433"><ele>197.2</ele><time>2026-04-25T10:15:16.229Z</time></trkpt><trkpt lat="45.812" lon="10.0711833"><ele>197.0</ele><time>2026-04-25T10:15:17.229Z</time></trkpt><trkpt lat="45.8120917" lon="10.071235"><ele>197.00000000000003</ele><time>2026-04-25T10:15:19.229Z</time></trkpt><trkpt lat="45.8121583" lon="10.0712683"><ele>197.0</ele><time>2026-04-25T10:15:21.229Z</time></trkpt><trkpt lat="45.81223" lon="10.0712933"><ele>197.0</ele><time>2026-04-25T10:15:24.232Z</time></trkpt><trkpt lat="45.8122883" lon="10.0713383"><ele>197.0</ele><time>2026-04-25T10:15:30.231Z</time></trkpt><trkpt lat="45.812355" lon="10.0713817"><ele>197.00000000000003</ele><time>2026-04-25T10:15:32.23Z</time></trkpt><trkpt lat="45.8124533" lon="10.071445"><ele>197.0</ele><time>2026-04-25T10:15:34.228Z</time></trkpt><trkpt lat="45.8125117" lon="10.0714817"><ele>197.0</ele><time>2026-04-25T10:15:35.228Z</time></trkpt><trkpt lat="45.8125733" lon="10.0715167"><ele>197.0</ele><time>2026-04-25T10:15:36.227Z</time></trkpt><trkpt lat="45.8126383" lon="10.0715533"><ele>197.0</ele><time>2026-04-25T10:15:37.228Z</time></trkpt><trkpt lat="45.8127083" lon="10.0715933"><ele>197.0</ele><time>2026-04-25T10:15:38.229Z</time></trkpt><trkpt lat="45.8127817" lon="10.0716367"><ele>197.0</ele><time>2026-04-25T10:15:39.23Z</time></trkpt><trkpt lat="45.8128533" lon="10.0716817"><ele>197.0</ele><time>2026-04-25T10:15:40.229Z</time></trkpt><trkpt lat="45.8129283" lon="10.0717233"><ele>197.0</ele><time>2026-04-25T10:15:41.227Z</time></trkpt><trkpt lat="45.81301" lon="10.0717717"><ele>196.16666666666669</ele><time>2026-04-25T10:15:42.23Z</time></trkpt><trkpt lat="45.81309" lon="10.07182"><ele>195.33333333333334</ele><time>2026-04-25T10:15:43.229Z</time></trkpt><trkpt lat="45.81317" lon="10.0718667"><ele>194.5</ele><time>2026-04-25T10:15:44.228Z</time></trkpt><trkpt lat="45.8132467" lon="10.071915"><ele>193.66666666666669</ele><time>2026-04-25T10:15:45.231Z</time></trkpt><trkpt lat="45.8133217" lon="10.07196"><ele>192.83333333333334</ele><time>2026-04-25T10:15:46.23Z</time></trkpt><trkpt lat="45.8133917" lon="10.0720017"><ele>192.0</ele><time>2026-04-25T10:15:47.23Z</time></trkpt><trkpt lat="45.8134633" lon="10.0720433"><ele>193.16666666666666</ele><time>2026-04-25T10:15:48.23Z</time></trkpt><trkpt lat="45.81353" lon="10.072085"><ele>194.33333333333331</ele><time>2026-04-25T10:15:49.229Z</time></trkpt><trkpt lat="45.8136" lon="10.0721233"><ele>195.5</ele><time>2026-04-25T10:15:50.228Z</time></trkpt><trkpt lat="45.81367" lon="10.072165"><ele>196.66666666666666</ele><time>2026-04-25T10:15:51.229Z</time></trkpt><trkpt lat="45.81374" lon="10.0722067"><ele>197.83333333333331</ele><time>2026-04-25T10:15:52.229Z</time></trkpt><trkpt lat="45.8138133" lon="10.0722483"><ele>199.0</ele><time>2026-04-25T10:15:53.228Z</time></trkpt><trkpt lat="45.81389" lon="10.0722917"><ele>198.99999999999997</ele><time>2026-04-25T10:15:54.229Z</time></trkpt><trkpt lat="45.8139683" lon="10.0723383"><ele>199.0</ele><time>2026-04-25T10:15:55.23Z</time></trkpt><trkpt lat="45.8140483" lon="10.0723917"><ele>199.0</ele><time>2026-04-25T10:15:56.231Z</time></trkpt><trkpt lat="45.8141283" lon="10.0724467"><ele>199.0</ele><time>2026-04-25T10:15:57.23Z</time></trkpt><trkpt lat="45.8142067" lon="10.07251"><ele>198.99999999999997</ele><time>2026-04-25T10:15:58.231Z</time></trkpt><trkpt lat="45.81428" lon="10.0725833"><ele>199.0</ele><time>2026-04-25T10:15:59.23Z</time></trkpt><trkpt lat="45.8143517" lon="10.0726617"><ele>198.66666666666666</ele><time>2026-04-25T10:16:00.228Z</time></trkpt><trkpt lat="45.8144167" lon="10.0727483"><ele>198.33333333333331</ele><time>2026-04-25T10:16:01.231Z</time></trkpt><trkpt lat="45.81447" lon="10.07284"><ele>198.0</ele><time>2026-04-25T10:16:02.23Z</time></trkpt><trkpt lat="45.814515" lon="10.0729333"><ele>197.66666666666669</ele><time>2026-04-25T10:16:03.228Z</time></trkpt><trkpt lat="45.8145583" lon="10.073025"><ele>197.33333333333334</ele><time>2026-04-25T10:16:04.227Z</time></trkpt><trkpt lat="45.8146" lon="10.0731167"><ele>197.0</ele><time>2026-04-25T10:16:05.227Z</time></trkpt><trkpt lat="45.8146383" lon="10.073205"><ele>196.16666666666669</ele><time>2026-04-25T10:16:06.228Z</time></trkpt><trkpt lat="45.8146733" lon="10.0732867"><ele>195.33333333333334</ele><time>2026-04-25T10:16:07.227Z</time></trkpt><trkpt lat="45.81473" lon="10.073415"><ele>194.5</ele><time>2026-04-25T10:16:09.228Z</time></trkpt><trkpt lat="45.8147883" lon="10.0734933"><ele>193.66666666666669</ele><time>2026-04-25T10:16:11.227Z</time></trkpt><trkpt lat="45.8148467" lon="10.0735383"><ele>192.83333333333334</ele><time>2026-04-25T10:16:13.228Z</time></trkpt><trkpt lat="45.814915" lon="10.073595"><ele>192.0</ele><time>2026-04-25T10:16:16.23Z</time></trkpt><trkpt lat="45.8150067" lon="10.0736367"><ele>192.0</ele><time>2026-04-25T10:16:26.23Z</time></trkpt><trkpt lat="45.81511" lon="10.0736983"><ele>192.0</ele><time>2026-04-25T10:16:28.231Z</time></trkpt><trkpt lat="45.815175" lon="10.0737417"><ele>192.0</ele><time>2026-04-25T10:16:29.23Z</time></trkpt><trkpt lat="45.8152417" lon="10.0737933"><ele>192.0</ele><time>2026-04-25T10:16:30.229Z</time></trkpt><trkpt lat="45.8153117" lon="10.0738533"><ele>192.0</ele><time>2026-04-25T10:16:31.228Z</time></trkpt><trkpt lat="45.8153783" lon="10.07392"><ele>192.0</ele><time>2026-04-25T10:16:32.228Z</time></trkpt><trkpt lat="45.81544" lon="10.0739883"><ele>192.85714285714283</ele><time>2026-04-25T10:16:33.228Z</time></trkpt><trkpt lat="45.8155033" lon="10.0740533"><ele>193.71428571428572</ele><time>2026-04-25T10:16:34.229Z</time></trkpt><trkpt lat="45.81556" lon="10.0741133"><ele>194.57142857142856</ele><time>2026-04-25T10:16:35.227Z</time></trkpt><trkpt lat="45.815615" lon="10.0741717"><ele>195.42857142857142</ele><time>2026-04-25T10:16:36.227Z</time></trkpt><trkpt lat="45.8156717" lon="10.0742333"><ele>196.28571428571428</ele><time>2026-04-25T10:16:37.227Z</time></trkpt><trkpt lat="45.8157333" lon="10.0742983"><ele>197.14285714285714</ele><time>2026-04-25T10:16:38.228Z</time></trkpt><trkpt lat="45.8157967" lon="10.074365"><ele>198.0</ele><time>2026-04-25T10:16:39.229Z</time></trkpt><trkpt lat="45.8158633" lon="10.074435"><ele>198.0</ele><time>2026-04-25T10:16:40.228Z</time></trkpt><trkpt lat="45.81593" lon="10.0745017"><ele>198.0</ele><time>2026-04-25T10:16:41.229Z</time></trkpt><trkpt lat="45.815995" lon="10.07457"><ele>198.0</ele><time>2026-04-25T10:16:42.228Z</time></trkpt><trkpt lat="45.81606" lon="10.074635"><ele>198.0</ele><time>2026-04-25T10:16:43.229Z</time></trkpt><trkpt lat="45.8161267" lon="10.0746967"><ele>198.0</ele><time>2026-04-25T10:16:44.229Z</time></trkpt><trkpt lat="45.8162" lon="10.074755"><ele>198.0</ele><time>2026-04-25T10:16:45.227Z</time></trkpt><trkpt lat="45.8162683" lon="10.074815"><ele>198.0</ele><time>2026-04-25T10:16:46.229Z</time></trkpt><trkpt lat="45.8163467" lon="10.0748733"><ele>198.0</ele><time>2026-04-25T10:16:47.227Z</time></trkpt><trkpt lat="45.81642" lon="10.07493"><ele>198.0</ele><time>2026-04-25T10:16:48.229Z</time></trkpt><trkpt lat="45.8164817" lon="10.0749817"><ele>198.0</ele><time>2026-04-25T10:16:49.229Z</time></trkpt><trkpt lat="45.8165667" lon="10.0750667"><ele>198.0</ele><time>2026-04-25T10:16:51.23Z</time></trkpt><trkpt lat="45.816635" lon="10.0751367"><ele>198.0</ele><time>2026-04-25T10:16:54.23Z</time></trkpt><trkpt lat="45.81668" lon="10.0752"><ele>198.0</ele><time>2026-04-25T10:16:56.23Z</time></trkpt><trkpt lat="45.8167333" lon="10.07529"><ele>198.0</ele><time>2026-04-25T10:16:58.229Z</time></trkpt><trkpt lat="45.816775" lon="10.0753767"><ele>198.0</ele><time>2026-04-25T10:17:00.231Z</time></trkpt><trkpt lat="45.8168317" lon="10.075495"><ele>198.0</ele><time>2026-04-25T10:17:03.233Z</time></trkpt><trkpt lat="45.816895" lon="10.0756217"><ele>198.0</ele><time>2026-04-25T10:17:05.231Z</time></trkpt><trkpt lat="45.816935" lon="10.0756983"><ele>198.0</ele><time>2026-04-25T10:17:06.23Z</time></trkpt><trkpt lat="45.8169833" lon="10.0757833"><ele>197.83333333333334</ele><time>2026-04-25T10:17:07.23Z</time></trkpt><trkpt lat="45.817035" lon="10.0758733"><ele>197.66666666666669</ele><time>2026-04-25T10:17:08.229Z</time></trkpt><trkpt lat="45.8170867" lon="10.07597"><ele>197.5</ele><time>2026-04-25T10:17:09.232Z</time></trkpt><trkpt lat="45.8171467" lon="10.0760583"><ele>197.33333333333334</ele><time>2026-04-25T10:17:10.23Z</time></trkpt><trkpt lat="45.8172083" lon="10.0761417"><ele>197.16666666666669</ele><time>2026-04-25T10:17:11.228Z</time></trkpt><trkpt lat="45.8172733" lon="10.076225"><ele>197.0</ele><time>2026-04-25T10:17:12.228Z</time></trkpt><trkpt lat="45.8173367" lon="10.0763033"><ele>197.00000000000003</ele><time>2026-04-25T10:17:13.23Z</time></trkpt><trkpt lat="45.8173983" lon="10.0763783"><ele>197.0</ele><time>2026-04-25T10:17:14.229Z</time></trkpt><trkpt lat="45.8174617" lon="10.0764533"><ele>197.0</ele><time>2026-04-25T10:17:15.229Z</time></trkpt><trkpt lat="45.8175233" lon="10.0765317"><ele>197.0</ele><time>2026-04-25T10:17:16.229Z</time></trkpt><trkpt lat="45.81759" lon="10.0766083"><ele>197.00000000000003</ele><time>2026-04-25T10:17:17.228Z</time></trkpt><trkpt lat="45.8176467" lon="10.0766933"><ele>197.0</ele><time>2026-04-25T10:17:18.23Z</time></trkpt><trkpt lat="45.8177067" lon="10.0767867"><ele>197.0</ele><time>2026-04-25T10:17:19.23Z</time></trkpt><trkpt lat="45.8177717" lon="10.0768767"><ele>197.0</ele><time>2026-04-25T10:17:20.23Z</time></trkpt><trkpt lat="45.817835" lon="10.0769683"><ele>197.0</ele><time>2026-04-25T10:17:21.231Z</time></trkpt><trkpt lat="45.8179" lon="10.0770683"><ele>197.0</ele><time>2026-04-25T10:17:22.227Z</time></trkpt><trkpt lat="45.81796" lon="10.07717"><ele>197.0</ele><time>2026-04-25T10:17:23.228Z</time></trkpt><trkpt lat="45.818015" lon="10.0772667"><ele>197.00000000000003</ele><time>2026-04-25T10:17:24.229Z</time></trkpt><trkpt lat="45.8180583" lon="10.0773683"><ele>197.0</ele><time>2026-04-25T10:17:25.231Z</time></trkpt><trkpt lat="45.8181017" lon="10.077465"><ele>197.0</ele><time>2026-04-25T10:17:26.229Z</time></trkpt><trkpt lat="45.8181433" lon="10.0775583"><ele>197.0</ele><time>2026-04-25T10:17:27.227Z</time></trkpt><trkpt lat="45.81818" lon="10.0776433"><ele>197.00000000000003</ele><time>2026-04-25T10:17:28.228Z</time></trkpt><trkpt lat="45.81821" lon="10.0777267"><ele>197.0</ele><time>2026-04-25T10:17:29.229Z</time></trkpt><trkpt lat="45.8182533" lon="10.077885"><ele>196.39999999999998</ele><time>2026-04-25T10:17:31.23Z</time></trkpt><trkpt lat="45.8182967" lon="10.0780417"><ele>195.79999999999998</ele><time>2026-04-25T10:17:33.231Z</time></trkpt><trkpt lat="45.8183433" lon="10.0781833"><ele>195.2</ele><time>2026-04-25T10:17:35.227Z</time></trkpt><trkpt lat="45.818395" lon="10.0783483"><ele>194.6</ele><time>2026-04-25T10:17:37.23Z</time></trkpt><trkpt lat="45.8184267" lon="10.0784417"><ele>194.0</ele><time>2026-04-25T10:17:38.231Z</time></trkpt><trkpt lat="45.81846" lon="10.0785317"><ele>194.33333333333334</ele><time>2026-04-25T10:17:39.229Z</time></trkpt><trkpt lat="45.8184967" lon="10.07861"><ele>194.66666666666669</ele><time>2026-04-25T10:17:40.227Z</time></trkpt><trkpt lat="45.818575" lon="10.078745"><ele>195.0</ele><time>2026-04-25T10:17:42.229Z</time></trkpt><trkpt lat="45.818625" lon="10.07881"><ele>195.33333333333331</ele><time>2026-04-25T10:17:43.23Z</time></trkpt><trkpt lat="45.8186833" lon="10.078875"><ele>195.66666666666666</ele><time>2026-04-25T10:17:44.227Z</time></trkpt><trkpt lat="45.8187467" lon="10.0789417"><ele>196.0</ele><time>2026-04-25T10:17:45.228Z</time></trkpt><trkpt lat="45.8188167" lon="10.079005"><ele>195.99999999999997</ele><time>2026-04-25T10:17:46.228Z</time></trkpt><trkpt lat="45.8188883" lon="10.0790717"><ele>196.0</ele><time>2026-04-25T10:17:47.228Z</time></trkpt><trkpt lat="45.8189583" lon="10.079135"><ele>196.0</ele><time>2026-04-25T10:17:48.23Z</time></trkpt><trkpt lat="45.8190283" lon="10.0791917"><ele>196.0</ele><time>2026-04-25T10:17:49.231Z</time></trkpt><trkpt lat="45.8190967" lon="10.0792467"><ele>195.99999999999997</ele><time>2026-04-25T10:17:50.231Z</time></trkpt><trkpt lat="45.8191667" lon="10.0792933"><ele>196.0</ele><time>2026-04-25T10:17:51.231Z</time></trkpt><trkpt lat="45.819235" lon="10.079335"><ele>195.49999999999997</ele><time>2026-04-25T10:17:52.23Z</time></trkpt><trkpt lat="45.8193017" lon="10.0793767"><ele>195.0</ele><time>2026-04-25T10:17:53.23Z</time></trkpt><trkpt lat="45.81937" lon="10.0794167"><ele>194.5</ele><time>2026-04-25T10:17:54.23Z</time></trkpt><trkpt lat="45.8194333" lon="10.07945"><ele>194.0</ele><time>2026-04-25T10:17:55.229Z</time></trkpt><trkpt lat="45.8194967" lon="10.0794817"><ele>193.49999999999997</ele><time>2026-04-25T10:17:56.228Z</time></trkpt><trkpt lat="45.8196117" lon="10.0795367"><ele>193.0</ele><time>2026-04-25T10:17:58.227Z</time></trkpt><trkpt lat="45.8197333" lon="10.0795833"><ele>192.99999999999997</ele><time>2026-04-25T10:18:00.228Z</time></trkpt><trkpt lat="45.8198" lon="10.0796033"><ele>193.0</ele><time>2026-04-25T10:18:01.228Z</time></trkpt><trkpt lat="45.8198683" lon="10.0796217"><ele>193.0</ele><time>2026-04-25T10:18:02.228Z</time></trkpt><trkpt lat="45.819945" lon="10.07964"><ele>193.0</ele><time>2026-04-25T10:18:03.228Z</time></trkpt><trkpt lat="45.82002" lon="10.0796517"><ele>192.99999999999997</ele><time>2026-04-25T10:18:04.227Z</time></trkpt><trkpt lat="45.8201" lon="10.0796633"><ele>193.0</ele><time>2026-04-25T10:18:05.228Z</time></trkpt><trkpt lat="45.820185" lon="10.0796667"><ele>193.16666666666666</ele><time>2026-04-25T10:18:06.234Z</time></trkpt><trkpt lat="45.8202683" lon="10.0796617"><ele>193.33333333333331</ele><time>2026-04-25T10:18:07.228Z</time></trkpt><trkpt lat="45.8203483" lon="10.0796683"><ele>193.5</ele><time>2026-04-25T10:18:08.227Z</time></trkpt><trkpt lat="45.8204283" lon="10.0796633"><ele>193.66666666666669</ele><time>2026-04-25T10:18:09.228Z</time></trkpt><trkpt lat="45.820505" lon="10.07966"><ele>193.83333333333334</ele><time>2026-04-25T10:18:10.228Z</time></trkpt><trkpt lat="45.8205783" lon="10.0796517"><ele>194.0</ele><time>2026-04-25T10:18:11.23Z</time></trkpt><trkpt lat="45.8206517" lon="10.0796517"><ele>194.00000000000003</ele><time>2026-04-25T10:18:12.23Z</time></trkpt><trkpt lat="45.8207217" lon="10.079655"><ele>194.0</ele><time>2026-04-25T10:18:13.231Z</time></trkpt><trkpt lat="45.82079" lon="10.0796667"><ele>194.0</ele><time>2026-04-25T10:18:14.231Z</time></trkpt><trkpt lat="45.8208533" lon="10.079685"><ele>194.0</ele><time>2026-04-25T10:18:15.229Z</time></trkpt><trkpt lat="45.820965" lon="10.0797267"><ele>194.00000000000003</ele><time>2026-04-25T10:18:17.23Z</time></trkpt><trkpt lat="45.8210483" lon="10.0797733"><ele>194.0</ele><time>2026-04-25T10:18:19.231Z</time></trkpt><trkpt lat="45.8211233" lon="10.0798133"><ele>195.0</ele><time>2026-04-25T10:18:21.229Z</time></trkpt><trkpt lat="45.8211917" lon="10.0798617"><ele>196.0</ele><time>2026-04-25T10:18:23.228Z</time></trkpt><trkpt lat="45.8212733" lon="10.079935"><ele>197.0</ele><time>2026-04-25T10:18:25.23Z</time></trkpt><trkpt lat="45.8213583" lon="10.080035"><ele>198.0</ele><time>2026-04-25T10:18:27.229Z</time></trkpt><trkpt lat="45.82144" lon="10.080155"><ele>199.0</ele><time>2026-04-25T10:18:29.228Z</time></trkpt><trkpt lat="45.8215167" lon="10.080305"><ele>199.0</ele><time>2026-04-25T10:18:31.229Z</time></trkpt><trkpt lat="45.8215567" lon="10.0803833"><ele>199.0</ele><time>2026-04-25T10:18:32.228Z</time></trkpt><trkpt lat="45.8215917" lon="10.0804617"><ele>199.0</ele><time>2026-04-25T10:18:33.241Z</time></trkpt><trkpt lat="45.82165" lon="10.080615"><ele>199.0</ele><time>2026-04-25T10:18:35.227Z</time></trkpt><trkpt lat="45.8217083" lon="10.0807433"><ele>199.0</ele><time>2026-04-25T10:18:37.229Z</time></trkpt><trkpt lat="45.8217567" lon="10.0808683"><ele>197.6</ele><time>2026-04-25T10:18:39.229Z</time></trkpt><trkpt lat="45.8218" lon="10.0810033"><ele>196.2</ele><time>2026-04-25T10:18:41.228Z</time></trkpt><trkpt lat="45.8218367" lon="10.0811667"><ele>194.79999999999998</ele><time>2026-04-25T10:18:43.23Z</time></trkpt><trkpt lat="45.82187" lon="10.08133"><ele>193.39999999999998</ele><time>2026-04-25T10:18:45.229Z</time></trkpt><trkpt lat="45.821885" lon="10.0814217"><ele>192.0</ele><time>2026-04-25T10:18:46.228Z</time></trkpt><trkpt lat="45.8219033" lon="10.0816033"><ele>195.0</ele><time>2026-04-25T10:18:48.228Z</time></trkpt><trkpt lat="45.8219117" lon="10.0817683"><ele>198.0</ele><time>2026-04-25T10:18:50.228Z</time></trkpt><trkpt lat="45.82192" lon="10.0819033"><ele>201.0</ele><time>2026-04-25T10:18:52.229Z</time></trkpt><trkpt lat="45.8219183" lon="10.0820517"><ele>204.0</ele><time>2026-04-25T10:18:54.228Z</time></trkpt><trkpt lat="45.821915" lon="10.0822217"><ele>207.0</ele><time>2026-04-25T10:18:56.228Z</time></trkpt><trkpt lat="45.8219083" lon="10.0823867"><ele>205.6</ele><time>2026-04-25T10:18:58.229Z</time></trkpt><trkpt lat="45.821915" lon="10.0825533"><ele>204.2</ele><time>2026-04-25T10:19:00.228Z</time></trkpt><trkpt lat="45.8219383" lon="10.0826967"><ele>202.8</ele><time>2026-04-25T10:19:02.228Z</time></trkpt><trkpt lat="45.8219733" lon="10.08281"><ele>201.4</ele><time>2026-04-25T10:19:04.231Z</time></trkpt><trkpt lat="45.8220317" lon="10.0829233"><ele>200.0</ele><time>2026-04-25T10:19:06.231Z</time></trkpt><trkpt lat="45.8221217" lon="10.08307"><ele>200.0</ele><time>2026-04-25T10:19:08.229Z</time></trkpt><trkpt lat="45.8221817" lon="10.0831633"><ele>200.0</ele><time>2026-04-25T10:19:09.229Z</time></trkpt><trkpt lat="45.82225" lon="10.0832733"><ele>200.0</ele><time>2026-04-25T10:19:10.228Z</time></trkpt><trkpt lat="45.82232" lon="10.08339"><ele>200.0</ele><time>2026-04-25T10:19:11.229Z</time></trkpt><trkpt lat="45.82239" lon="10.083505"><ele>200.0</ele><time>2026-04-25T10:19:12.229Z</time></trkpt><trkpt lat="45.8224667" lon="10.08362"><ele>199.75</ele><time>2026-04-25T10:19:13.229Z</time></trkpt><trkpt lat="45.82255" lon="10.08374"><ele>199.5</ele><time>2026-04-25T10:19:14.228Z</time></trkpt><trkpt lat="45.8226367" lon="10.083865"><ele>199.25</ele><time>2026-04-25T10:19:15.229Z</time></trkpt><trkpt lat="45.82272" lon="10.0839967"><ele>199.0</ele><time>2026-04-25T10:19:16.229Z</time></trkpt><trkpt lat="45.8227983" lon="10.0841333"><ele>203.25</ele><time>2026-04-25T10:19:17.25Z</time></trkpt><trkpt lat="45.822875" lon="10.084275"><ele>207.5</ele><time>2026-04-25T10:19:18.229Z</time></trkpt><trkpt lat="45.8229467" lon="10.0844217"><ele>211.75</ele><time>2026-04-25T10:19:19.229Z</time></trkpt><trkpt lat="45.8230233" lon="10.084555"><ele>216.0</ele><time>2026-04-25T10:19:20.228Z</time></trkpt><trkpt lat="45.8231033" lon="10.0846783"><ele>216.0</ele><time>2026-04-25T10:19:21.228Z</time></trkpt><trkpt lat="45.82319" lon="10.084795"><ele>216.00000000000003</ele><time>2026-04-25T10:19:22.229Z</time></trkpt><trkpt lat="45.8232767" lon="10.084905"><ele>216.00000000000003</ele><time>2026-04-25T10:19:23.229Z</time></trkpt><trkpt lat="45.82336" lon="10.085005"><ele>216.0</ele><time>2026-04-25T10:19:24.229Z</time></trkpt><trkpt lat="45.8234383" lon="10.0850983"><ele>216.0</ele><time>2026-04-25T10:19:25.231Z</time></trkpt><trkpt lat="45.823515" lon="10.0851833"><ele>218.0</ele><time>2026-04-25T10:19:26.232Z</time></trkpt><trkpt lat="45.8235883" lon="10.0852683"><ele>220.00000000000003</ele><time>2026-04-25T10:19:27.231Z</time></trkpt><trkpt lat="45.82366" lon="10.085355"><ele>222.00000000000003</ele><time>2026-04-25T10:19:28.228Z</time></trkpt><trkpt lat="45.8237317" lon="10.08545"><ele>224.0</ele><time>2026-04-25T10:19:29.228Z</time></trkpt><trkpt lat="45.8238" lon="10.0855567"><ele>226.0</ele><time>2026-04-25T10:19:30.228Z</time></trkpt><trkpt lat="45.8238633" lon="10.08567"><ele>221.8</ele><time>2026-04-25T10:19:31.228Z</time></trkpt><trkpt lat="45.8239167" lon="10.085785"><ele>217.60000000000002</ele><time>2026-04-25T10:19:32.228Z</time></trkpt><trkpt lat="45.823965" lon="10.0858983"><ele>213.4</ele><time>2026-04-25T10:19:33.228Z</time></trkpt><trkpt lat="45.8240117" lon="10.0860117"><ele>209.2</ele><time>2026-04-25T10:19:34.227Z</time></trkpt><trkpt lat="45.82406" lon="10.08613"><ele>205.0</ele><time>2026-04-25T10:19:35.228Z</time></trkpt><trkpt lat="45.8241083" lon="10.0862567"><ele>205.0</ele><time>2026-04-25T10:19:36.229Z</time></trkpt><trkpt lat="45.8241517" lon="10.0863917"><ele>205.0</ele><time>2026-04-25T10:19:37.231Z</time></trkpt><trkpt lat="45.8241967" lon="10.0865267"><ele>205.0</ele><time>2026-04-25T10:19:38.227Z</time></trkpt><trkpt lat="45.8242383" lon="10.0866633"><ele>205.0</ele><time>2026-04-25T10:19:39.227Z</time></trkpt><trkpt lat="45.8242767" lon="10.0867983"><ele>205.0</ele><time>2026-04-25T10:19:40.227Z</time></trkpt><trkpt lat="45.8243133" lon="10.0869267"><ele>204.6</ele><time>2026-04-25T10:19:41.23Z</time></trkpt><trkpt lat="45.824345" lon="10.08705"><ele>204.2</ele><time>2026-04-25T10:19:42.228Z</time></trkpt><trkpt lat="45.8243733" lon="10.08717"><ele>203.8</ele><time>2026-04-25T10:19:43.228Z</time></trkpt><trkpt lat="45.8243983" lon="10.0872933"><ele>203.4</ele><time>2026-04-25T10:19:44.231Z</time></trkpt><trkpt lat="45.82442" lon="10.0874233"><ele>203.0</ele><time>2026-04-25T10:19:45.227Z</time></trkpt><trkpt lat="45.8244417" lon="10.0875683"><ele>203.0</ele><time>2026-04-25T10:19:46.228Z</time></trkpt><trkpt lat="45.8244667" lon="10.0877183"><ele>203.0</ele><time>2026-04-25T10:19:47.227Z</time></trkpt><trkpt lat="45.8244933" lon="10.0878767"><ele>203.0</ele><time>2026-04-25T10:19:48.229Z</time></trkpt><trkpt lat="45.82452" lon="10.0880433"><ele>203.0</ele><time>2026-04-25T10:19:49.227Z</time></trkpt><trkpt lat="45.8245433" lon="10.0882183"><ele>201.4</ele><time>2026-04-25T10:19:50.227Z</time></trkpt><trkpt lat="45.824565" lon="10.08839"><ele>199.8</ele><time>2026-04-25T10:19:51.228Z</time></trkpt><trkpt lat="45.824585" lon="10.0885483"><ele>198.2</ele><time>2026-04-25T10:19:52.227Z</time></trkpt><trkpt lat="45.8246033" lon="10.0886983"><ele>196.6</ele><time>2026-04-25T10:19:53.227Z</time></trkpt><trkpt lat="45.824625" lon="10.08884"><ele>195.0</ele><time>2026-04-25T10:19:54.228Z</time></trkpt><trkpt lat="45.82465" lon="10.0889783"><ele>195.0</ele><time>2026-04-25T10:19:55.227Z</time></trkpt><trkpt lat="45.824675" lon="10.0891183"><ele>195.0</ele><time>2026-04-25T10:19:56.228Z</time></trkpt><trkpt lat="45.8247033" lon="10.0892617"><ele>195.0</ele><time>2026-04-25T10:19:57.228Z</time></trkpt><trkpt lat="45.824725" lon="10.0894183"><ele>195.0</ele><time>2026-04-25T10:19:58.227Z</time></trkpt><trkpt lat="45.8247467" lon="10.0895767"><ele>195.0</ele><time>2026-04-25T10:19:59.227Z</time></trkpt><trkpt lat="45.8247733" lon="10.0897333"><ele>195.0</ele><time>2026-04-25T10:20:00.227Z</time></trkpt><trkpt lat="45.824805" lon="10.0898883"><ele>195.0</ele><time>2026-04-25T10:20:01.228Z</time></trkpt><trkpt lat="45.8248467" lon="10.090035"><ele>195.0</ele><time>2026-04-25T10:20:02.229Z</time></trkpt><trkpt lat="45.8248933" lon="10.0901667"><ele>195.0</ele><time>2026-04-25T10:20:03.227Z</time></trkpt><trkpt lat="45.824945" lon="10.0902917"><ele>195.0</ele><time>2026-04-25T10:20:04.227Z</time></trkpt><trkpt lat="45.8249983" lon="10.0904033"><ele>194.83333333333334</ele><time>2026-04-25T10:20:05.227Z</time></trkpt><trkpt lat="45.825055" lon="10.090505"><ele>194.66666666666669</ele><time>2026-04-25T10:20:06.227Z</time></trkpt><trkpt lat="45.82511" lon="10.0906017"><ele>194.5</ele><time>2026-04-25T10:20:07.228Z</time></trkpt><trkpt lat="45.8251667" lon="10.0906917"><ele>194.33333333333334</ele><time>2026-04-25T10:20:08.228Z</time></trkpt><trkpt lat="45.8252233" lon="10.0907767"><ele>194.16666666666669</ele><time>2026-04-25T10:20:09.227Z</time></trkpt><trkpt lat="45.8252783" lon="10.09086"><ele>194.0</ele><time>2026-04-25T10:20:10.227Z</time></trkpt><trkpt lat="45.825335" lon="10.0909417"><ele>196.2</ele><time>2026-04-25T10:20:11.228Z</time></trkpt><trkpt lat="45.8253917" lon="10.0910267"><ele>198.39999999999998</ele><time>2026-04-25T10:20:12.229Z</time></trkpt><trkpt lat="45.8254567" lon="10.0911183"><ele>200.6</ele><time>2026-04-25T10:20:13.228Z</time></trkpt><trkpt lat="45.8255267" lon="10.0912217"><ele>202.8</ele><time>2026-04-25T10:20:14.228Z</time></trkpt><trkpt lat="45.8256" lon="10.091325"><ele>205.0</ele><time>2026-04-25T10:20:15.228Z</time></trkpt><trkpt lat="45.8256717" lon="10.0914367"><ele>205.0</ele><time>2026-04-25T10:20:16.231Z</time></trkpt><trkpt lat="45.82575" lon="10.0915467"><ele>205.0</ele><time>2026-04-25T10:20:17.227Z</time></trkpt><trkpt lat="45.82583" lon="10.0916617"><ele>205.0</ele><time>2026-04-25T10:20:18.227Z</time></trkpt><trkpt lat="45.82591" lon="10.091775"><ele>205.0</ele><time>2026-04-25T10:20:19.227Z</time></trkpt><trkpt lat="45.8259917" lon="10.0918933"><ele>205.75</ele><time>2026-04-25T10:20:20.227Z</time></trkpt><trkpt lat="45.8260717" lon="10.0920183"><ele>206.5</ele><time>2026-04-25T10:20:21.23Z</time></trkpt><trkpt lat="45.826145" lon="10.09215"><ele>207.25</ele><time>2026-04-25T10:20:22.228Z</time></trkpt><trkpt lat="45.8262067" lon="10.0922883"><ele>208.0</ele><time>2026-04-25T10:20:23.228Z</time></trkpt><trkpt lat="45.8262567" lon="10.0924383"><ele>208.0</ele><time>2026-04-25T10:20:24.227Z</time></trkpt><trkpt lat="45.8263017" lon="10.0925933"><ele>208.0</ele><time>2026-04-25T10:20:25.227Z</time></trkpt><trkpt lat="45.8263417" lon="10.0927517"><ele>208.0</ele><time>2026-04-25T10:20:26.227Z</time></trkpt><trkpt lat="45.8263817" lon="10.0929083"><ele>208.0</ele><time>2026-04-25T10:20:27.227Z</time></trkpt><trkpt lat="45.8264183" lon="10.0930567"><ele>208.0</ele><time>2026-04-25T10:20:28.227Z</time></trkpt><trkpt lat="45.8264533" lon="10.0931967"><ele>208.0</ele><time>2026-04-25T10:20:29.227Z</time></trkpt><trkpt lat="45.8264883" lon="10.093335"><ele>208.0</ele><time>2026-04-25T10:20:30.228Z</time></trkpt><trkpt lat="45.82652" lon="10.0934783"><ele>208.0</ele><time>2026-04-25T10:20:31.228Z</time></trkpt><trkpt lat="45.8265467" lon="10.0936267"><ele>208.0</ele><time>2026-04-25T10:20:32.228Z</time></trkpt><trkpt lat="45.826565" lon="10.0937767"><ele>206.0</ele><time>2026-04-25T10:20:33.229Z</time></trkpt><trkpt lat="45.826575" lon="10.0939233"><ele>204.0</ele><time>2026-04-25T10:20:34.227Z</time></trkpt><trkpt lat="45.8265817" lon="10.094065"><ele>202.0</ele><time>2026-04-25T10:20:35.228Z</time></trkpt><trkpt lat="45.826585" lon="10.0941967"><ele>200.0</ele><time>2026-04-25T10:20:36.228Z</time></trkpt><trkpt lat="45.8265917" lon="10.09432"><ele>198.0</ele><time>2026-04-25T10:20:37.23Z</time></trkpt><trkpt lat="45.8265967" lon="10.0944367"><ele>197.33333333333334</ele><time>2026-04-25T10:20:38.231Z</time></trkpt><trkpt lat="45.8265983" lon="10.0945483"><ele>196.66666666666669</ele><time>2026-04-25T10:20:39.229Z</time></trkpt><trkpt lat="45.8266" lon="10.0946417"><ele>196.0</ele><time>2026-04-25T10:20:40.228Z</time></trkpt><trkpt lat="45.8266033" lon="10.0948033"><ele>195.33333333333334</ele><time>2026-04-25T10:20:42.227Z</time></trkpt><trkpt lat="45.8266033" lon="10.094925"><ele>194.66666666666669</ele><time>2026-04-25T10:20:44.23Z</time></trkpt><trkpt lat="45.8266" lon="10.09504"><ele>194.0</ele><time>2026-04-25T10:20:48.23Z</time></trkpt><trkpt lat="45.826585" lon="10.0951683"><ele>193.79999999999998</ele><time>2026-04-25T10:20:51.229Z</time></trkpt><trkpt lat="45.8265383" lon="10.095285"><ele>193.6</ele><time>2026-04-25T10:20:53.229Z</time></trkpt><trkpt lat="45.8264883" lon="10.0954017"><ele>193.4</ele><time>2026-04-25T10:20:55.229Z</time></trkpt><trkpt lat="45.8264983" lon="10.09552"><ele>193.2</ele><time>2026-04-25T10:20:57.231Z</time></trkpt><trkpt lat="45.8265283" lon="10.0956367"><ele>193.0</ele><time>2026-04-25T10:20:59.231Z</time></trkpt><trkpt lat="45.8265417" lon="10.0958"><ele>193.0</ele><time>2026-04-25T10:21:01.233Z</time></trkpt><trkpt lat="45.8265433" lon="10.0959733"><ele>193.0</ele><time>2026-04-25T10:21:03.228Z</time></trkpt><trkpt lat="45.82655" lon="10.0961533"><ele>193.0</ele><time>2026-04-25T10:21:05.228Z</time></trkpt><trkpt lat="45.8265517" lon="10.0962567"><ele>193.0</ele><time>2026-04-25T10:21:06.229Z</time></trkpt><trkpt lat="45.826555" lon="10.0963517"><ele>193.0</ele><time>2026-04-25T10:21:07.228Z</time></trkpt><trkpt lat="45.8265667" lon="10.096485"><ele>193.0</ele><time>2026-04-25T10:21:09.227Z</time></trkpt><trkpt lat="45.826565" lon="10.0966167"><ele>193.0</ele><time>2026-04-25T10:21:12.229Z</time></trkpt><trkpt lat="45.82656" lon="10.0967367"><ele>193.0</ele><time>2026-04-25T10:21:15.23Z</time></trkpt><trkpt lat="45.8265583" lon="10.09684"><ele>193.0</ele><time>2026-04-25T10:21:17.229Z</time></trkpt><trkpt lat="45.8265617" lon="10.0969833"><ele>193.0</ele><time>2026-04-25T10:21:19.23Z</time></trkpt><trkpt lat="45.8265617" lon="10.0971617"><ele>193.00000000000003</ele><time>2026-04-25T10:21:21.232Z</time></trkpt><trkpt lat="45.8265633" lon="10.0972567"><ele>193.0</ele><time>2026-04-25T10:21:22.228Z</time></trkpt><trkpt lat="45.8265717" lon="10.0973533"><ele>193.0</ele><time>2026-04-25T10:21:23.227Z</time></trkpt><trkpt lat="45.82658" lon="10.0974583"><ele>193.0</ele><time>2026-04-25T10:21:24.227Z</time></trkpt><trkpt lat="45.8265967" lon="10.0975633"><ele>193.0</ele><time>2026-04-25T10:21:25.228Z</time></trkpt><trkpt lat="45.8266167" lon="10.0976683"><ele>193.00000000000003</ele><time>2026-04-25T10:21:26.231Z</time></trkpt><trkpt lat="45.8266367" lon="10.0977633"><ele>193.0</ele><time>2026-04-25T10:21:27.23Z</time></trkpt><trkpt lat="45.8266667" lon="10.0979133"><ele>193.16666666666666</ele><time>2026-04-25T10:21:29.23Z</time></trkpt><trkpt lat="45.8266883" lon="10.0980133"><ele>193.33333333333331</ele><time>2026-04-25T10:21:31.23Z</time></trkpt><trkpt lat="45.8267183" lon="10.0981233"><ele>193.5</ele><time>2026-04-25T10:21:34.229Z</time></trkpt><trkpt lat="45.826735" lon="10.0982267"><ele>193.66666666666669</ele><time>2026-04-25T10:21:36.229Z</time></trkpt><trkpt lat="45.826745" lon="10.0983383"><ele>193.83333333333334</ele><time>2026-04-25T10:21:38.227Z</time></trkpt><trkpt lat="45.8267617" lon="10.09848"><ele>194.0</ele><time>2026-04-25T10:21:40.229Z</time></trkpt><trkpt lat="45.826805" lon="10.09864"><ele>194.66666666666669</ele><time>2026-04-25T10:21:42.229Z</time></trkpt><trkpt lat="45.8268583" lon="10.0988"><ele>195.33333333333334</ele><time>2026-04-25T10:21:44.231Z</time></trkpt><trkpt lat="45.8268883" lon="10.09889"><ele>196.0</ele><time>2026-04-25T10:21:45.231Z</time></trkpt><trkpt lat="45.8269133" lon="10.0989817"><ele>196.66666666666669</ele><time>2026-04-25T10:21:46.229Z</time></trkpt><trkpt lat="45.8269367" lon="10.0990683"><ele>197.33333333333334</ele><time>2026-04-25T10:21:47.227Z</time></trkpt><trkpt lat="45.8269783" lon="10.0992183"><ele>198.0</ele><time>2026-04-25T10:21:49.228Z</time></trkpt><trkpt lat="45.827005" lon="10.0993383"><ele>198.0</ele><time>2026-04-25T10:21:51.228Z</time></trkpt><trkpt lat="45.827035" lon="10.0994517"><ele>198.0</ele><time>2026-04-25T10:21:54.231Z</time></trkpt><trkpt lat="45.82707" lon="10.0995433"><ele>198.0</ele><time>2026-04-25T10:22:00.23Z</time></trkpt><trkpt lat="45.827135" lon="10.0996667"><ele>198.0</ele><time>2026-04-25T10:22:02.23Z</time></trkpt><trkpt lat="45.827185" lon="10.09977"><ele>198.0</ele><time>2026-04-25T10:22:03.23Z</time></trkpt><trkpt lat="45.827245" lon="10.0999017"><ele>197.5</ele><time>2026-04-25T10:22:04.23Z</time></trkpt><trkpt lat="45.8273067" lon="10.1000583"><ele>197.0</ele><time>2026-04-25T10:22:05.231Z</time></trkpt><trkpt lat="45.82737" lon="10.1002317"><ele>196.5</ele><time>2026-04-25T10:22:06.229Z</time></trkpt><trkpt lat="45.8274317" lon="10.1004067"><ele>196.0</ele><time>2026-04-25T10:22:07.23Z</time></trkpt><trkpt lat="45.8274967" lon="10.1005817"><ele>196.25</ele><time>2026-04-25T10:22:08.229Z</time></trkpt><trkpt lat="45.8275633" lon="10.10076"><ele>196.5</ele><time>2026-04-25T10:22:09.23Z</time></trkpt><trkpt lat="45.82763" lon="10.1009383"><ele>196.75</ele><time>2026-04-25T10:22:10.23Z</time></trkpt><trkpt lat="45.8276933" lon="10.1011083"><ele>197.0</ele><time>2026-04-25T10:22:11.229Z</time></trkpt><trkpt lat="45.8277517" lon="10.1012683"><ele>197.0</ele><time>2026-04-25T10:22:12.229Z</time></trkpt><trkpt lat="45.8278067" lon="10.1014133"><ele>197.0</ele><time>2026-04-25T10:22:13.229Z</time></trkpt><trkpt lat="45.8278667" lon="10.1015617"><ele>197.0</ele><time>2026-04-25T10:22:14.23Z</time></trkpt><trkpt lat="45.8279283" lon="10.10171"><ele>197.0</ele><time>2026-04-25T10:22:15.231Z</time></trkpt><trkpt lat="45.8279883" lon="10.1018517"><ele>196.50000000000003</ele><time>2026-04-25T10:22:16.228Z</time></trkpt><trkpt lat="45.8280483" lon="10.10197"><ele>196.0</ele><time>2026-04-25T10:22:17.228Z</time></trkpt><trkpt lat="45.8281083" lon="10.1020667"><ele>195.5</ele><time>2026-04-25T10:22:18.228Z</time></trkpt><trkpt lat="45.8281733" lon="10.1021483"><ele>195.0</ele><time>2026-04-25T10:22:19.227Z</time></trkpt><trkpt lat="45.8282333" lon="10.10222"><ele>194.50000000000003</ele><time>2026-04-25T10:22:20.228Z</time></trkpt><trkpt lat="45.8282917" lon="10.1022783"><ele>194.0</ele><time>2026-04-25T10:22:21.228Z</time></trkpt><trkpt lat="45.82835" lon="10.10233"><ele>193.5</ele><time>2026-04-25T10:22:22.227Z</time></trkpt><trkpt lat="45.8284583" lon="10.1024183"><ele>193.0</ele><time>2026-04-25T10:22:24.232Z</time></trkpt><trkpt lat="45.8285667" lon="10.1024967"><ele>192.5</ele><time>2026-04-25T10:22:26.23Z</time></trkpt><trkpt lat="45.82867" lon="10.1025633"><ele>192.0</ele><time>2026-04-25T10:22:28.23Z</time></trkpt><trkpt lat="45.82878" lon="10.10263"><ele>192.66666666666666</ele><time>2026-04-25T10:22:30.229Z</time></trkpt><trkpt lat="45.828845" lon="10.1026683"><ele>193.33333333333331</ele><time>2026-04-25T10:22:31.229Z</time></trkpt><trkpt lat="45.8289033" lon="10.1027033"><ele>194.0</ele><time>2026-04-25T10:22:32.229Z</time></trkpt><trkpt lat="45.8290017" lon="10.1027767"><ele>194.66666666666666</ele><time>2026-04-25T10:22:34.227Z</time></trkpt><trkpt lat="45.82906" lon="10.102825"><ele>195.33333333333331</ele><time>2026-04-25T10:22:36.229Z</time></trkpt><trkpt lat="45.8291483" lon="10.102895"><ele>196.0</ele><time>2026-04-25T10:22:39.23Z</time></trkpt><trkpt lat="45.8292167" lon="10.1029867"><ele>196.0</ele><time>2026-04-25T10:22:41.228Z</time></trkpt><trkpt lat="45.8292917" lon="10.1031483"><ele>196.0</ele><time>2026-04-25T10:22:43.233Z</time></trkpt><trkpt lat="45.8293283" lon="10.103255"><ele>196.0</ele><time>2026-04-25T10:22:44.228Z</time></trkpt><trkpt lat="45.8293517" lon="10.1033717"><ele>196.0</ele><time>2026-04-25T10:22:45.232Z</time></trkpt><trkpt lat="45.8293617" lon="10.1035067"><ele>196.0</ele><time>2026-04-25T10:22:46.227Z</time></trkpt><trkpt lat="45.8293667" lon="10.10366"><ele>195.5</ele><time>2026-04-25T10:22:47.228Z</time></trkpt><trkpt lat="45.8293717" lon="10.1038317"><ele>195.0</ele><time>2026-04-25T10:22:48.23Z</time></trkpt><trkpt lat="45.8293783" lon="10.1040133"><ele>194.5</ele><time>2026-04-25T10:22:49.229Z</time></trkpt><trkpt lat="45.829385" lon="10.1042"><ele>194.0</ele><time>2026-04-25T10:22:50.23Z</time></trkpt><trkpt lat="45.8293883" lon="10.1043833"><ele>193.75</ele><time>2026-04-25T10:22:51.233Z</time></trkpt><trkpt lat="45.8293917" lon="10.1045717"><ele>193.5</ele><time>2026-04-25T10:22:52.229Z</time></trkpt><trkpt lat="45.8293967" lon="10.104765"><ele>193.25</ele><time>2026-04-25T10:22:53.228Z</time></trkpt><trkpt lat="45.8294017" lon="10.1049567"><ele>193.0</ele><time>2026-04-25T10:22:54.229Z</time></trkpt><trkpt lat="45.8294067" lon="10.10514"><ele>192.75</ele><time>2026-04-25T10:22:55.229Z</time></trkpt><trkpt lat="45.8294117" lon="10.105315"><ele>192.5</ele><time>2026-04-25T10:22:56.229Z</time></trkpt><trkpt lat="45.829415" lon="10.1054833"><ele>192.25</ele><time>2026-04-25T10:22:57.23Z</time></trkpt><trkpt lat="45.8294183" lon="10.1056417"><ele>192.0</ele><time>2026-04-25T10:22:58.23Z</time></trkpt><trkpt lat="45.82942" lon="10.1057917"><ele>192.0</ele><time>2026-04-25T10:22:59.228Z</time></trkpt><trkpt lat="45.82941" lon="10.1059283"><ele>192.0</ele><time>2026-04-25T10:23:00.231Z</time></trkpt><trkpt lat="45.8293783" lon="10.10606"><ele>192.0</ele><time>2026-04-25T10:23:01.233Z</time></trkpt><trkpt lat="45.8293333" lon="10.10619"><ele>192.0</ele><time>2026-04-25T10:23:02.231Z</time></trkpt><trkpt lat="45.8292733" lon="10.1063117"><ele>192.0</ele><time>2026-04-25T10:23:03.229Z</time></trkpt><trkpt lat="45.8291983" lon="10.1064283"><ele>192.0</ele><time>2026-04-25T10:23:04.229Z</time></trkpt><trkpt lat="45.8291117" lon="10.1065333"><ele>192.0</ele><time>2026-04-25T10:23:05.229Z</time></trkpt><trkpt lat="45.82902" lon="10.1066383"><ele>192.0</ele><time>2026-04-25T10:23:06.228Z</time></trkpt><trkpt lat="45.8289217" lon="10.1067433"><ele>192.0</ele><time>2026-04-25T10:23:07.229Z</time></trkpt><trkpt lat="45.8288267" lon="10.10684"><ele>192.25</ele><time>2026-04-25T10:23:08.23Z</time></trkpt><trkpt lat="45.8287283" lon="10.1069383"><ele>192.5</ele><time>2026-04-25T10:23:09.23Z</time></trkpt><trkpt lat="45.8286217" lon="10.107045"><ele>192.75</ele><time>2026-04-25T10:23:10.229Z</time></trkpt><trkpt lat="45.8285117" lon="10.1071467"><ele>193.0</ele><time>2026-04-25T10:23:11.23Z</time></trkpt><trkpt lat="45.828395" lon="10.1072467"><ele>192.75</ele><time>2026-04-25T10:23:12.23Z</time></trkpt><trkpt lat="45.8282783" lon="10.1073383"><ele>192.5</ele><time>2026-04-25T10:23:13.23Z</time></trkpt><trkpt lat="45.82816" lon="10.1074217"><ele>192.25</ele><time>2026-04-25T10:23:14.23Z</time></trkpt><trkpt lat="45.82804" lon="10.1074983"><ele>192.0</ele><time>2026-04-25T10:23:15.231Z</time></trkpt><trkpt lat="45.8279167" lon="10.107565"><ele>192.0</ele><time>2026-04-25T10:23:16.23Z</time></trkpt><trkpt lat="45.8277967" lon="10.1076233"><ele>192.0</ele><time>2026-04-25T10:23:17.23Z</time></trkpt><trkpt lat="45.827675" lon="10.10767"><ele>192.0</ele><time>2026-04-25T10:23:18.23Z</time></trkpt><trkpt lat="45.8275583" lon="10.10771"><ele>192.0</ele><time>2026-04-25T10:23:19.231Z</time></trkpt><trkpt lat="45.8274417" lon="10.107745"><ele>192.0</ele><time>2026-04-25T10:23:20.23Z</time></trkpt><trkpt lat="45.827325" lon="10.107775"><ele>192.0</ele><time>2026-04-25T10:23:21.23Z</time></trkpt><trkpt lat="45.8272067" lon="10.1078033"><ele>192.0</ele><time>2026-04-25T10:23:22.231Z</time></trkpt><trkpt lat="45.8270867" lon="10.1078233"><ele>192.0</ele><time>2026-04-25T10:23:23.229Z</time></trkpt><trkpt lat="45.826965" lon="10.10784"><ele>192.0</ele><time>2026-04-25T10:23:24.23Z</time></trkpt><trkpt lat="45.826845" lon="10.107855"><ele>192.0</ele><time>2026-04-25T10:23:25.23Z</time></trkpt><trkpt lat="45.8267333" lon="10.10787"><ele>192.0</ele><time>2026-04-25T10:23:26.23Z</time></trkpt><trkpt lat="45.8266283" lon="10.1078883"><ele>192.0</ele><time>2026-04-25T10:23:27.23Z</time></trkpt><trkpt lat="45.82653" lon="10.1079033"><ele>192.0</ele><time>2026-04-25T10:23:28.232Z</time></trkpt><trkpt lat="45.8264333" lon="10.1079183"><ele>191.39999999999998</ele><time>2026-04-25T10:23:29.23Z</time></trkpt><trkpt lat="45.8263317" lon="10.1079317"><ele>190.79999999999998</ele><time>2026-04-25T10:23:30.23Z</time></trkpt><trkpt lat="45.8262283" lon="10.107945"><ele>190.2</ele><time>2026-04-25T10:23:31.23Z</time></trkpt><trkpt lat="45.8261217" lon="10.1079583"><ele>189.6</ele><time>2026-04-25T10:23:32.23Z</time></trkpt><trkpt lat="45.8260133" lon="10.1079717"><ele>189.0</ele><time>2026-04-25T10:23:33.23Z</time></trkpt><trkpt lat="45.8259133" lon="10.1079833"><ele>189.0</ele><time>2026-04-25T10:23:34.23Z</time></trkpt><trkpt lat="45.8258183" lon="10.1079967"><ele>189.0</ele><time>2026-04-25T10:23:35.23Z</time></trkpt><trkpt lat="45.8257233" lon="10.1080067"><ele>189.0</ele><time>2026-04-25T10:23:36.231Z</time></trkpt><trkpt lat="45.8256267" lon="10.108015"><ele>189.0</ele><time>2026-04-25T10:23:37.231Z</time></trkpt><trkpt lat="45.82553" lon="10.1080233"><ele>189.0</ele><time>2026-04-25T10:23:38.229Z</time></trkpt><trkpt lat="45.8254383" lon="10.1080267"><ele>189.0</ele><time>2026-04-25T10:23:39.23Z</time></trkpt><trkpt lat="45.8253533" lon="10.1080267"><ele>189.0</ele><time>2026-04-25T10:23:40.23Z</time></trkpt><trkpt lat="45.8252633" lon="10.108025"><ele>189.0</ele><time>2026-04-25T10:23:41.231Z</time></trkpt><trkpt lat="45.8251617" lon="10.10802"><ele>189.0</ele><time>2026-04-25T10:23:42.231Z</time></trkpt><trkpt lat="45.8250517" lon="10.1080083"><ele>189.0</ele><time>2026-04-25T10:23:43.23Z</time></trkpt><trkpt lat="45.8249317" lon="10.10799"><ele>189.25</ele><time>2026-04-25T10:23:44.231Z</time></trkpt><trkpt lat="45.8248033" lon="10.1079633"><ele>189.5</ele><time>2026-04-25T10:23:45.23Z</time></trkpt><trkpt lat="45.8246683" lon="10.1079333"><ele>189.75</ele><time>2026-04-25T10:23:46.228Z</time></trkpt><trkpt lat="45.8245267" lon="10.1078917"><ele>190.0</ele><time>2026-04-25T10:23:47.228Z</time></trkpt><trkpt lat="45.8243817" lon="10.1078433"><ele>190.0</ele><time>2026-04-25T10:23:48.229Z</time></trkpt><trkpt lat="45.8242367" lon="10.1077883"><ele>190.0</ele><time>2026-04-25T10:23:49.229Z</time></trkpt><trkpt lat="45.8240917" lon="10.1077283"><ele>190.0</ele><time>2026-04-25T10:23:50.229Z</time></trkpt><trkpt lat="45.8239467" lon="10.107665"><ele>190.0</ele><time>2026-04-25T10:23:51.23Z</time></trkpt><trkpt lat="45.8238067" lon="10.1076017"><ele>190.0</ele><time>2026-04-25T10:23:52.229Z</time></trkpt><trkpt lat="45.8236733" lon="10.10754"><ele>190.0</ele><time>2026-04-25T10:23:53.228Z</time></trkpt><trkpt lat="45.8235483" lon="10.10748"><ele>190.0</ele><time>2026-04-25T10:23:54.23Z</time></trkpt><trkpt lat="45.823425" lon="10.1074217"><ele>190.0</ele><time>2026-04-25T10:23:55.229Z</time></trkpt><trkpt lat="45.8232983" lon="10.1073633"><ele>190.0</ele><time>2026-04-25T10:23:56.229Z</time></trkpt><trkpt lat="45.8231667" lon="10.1073033"><ele>190.0</ele><time>2026-04-25T10:23:57.23Z</time></trkpt><trkpt lat="45.8230283" lon="10.1072417"><ele>190.0</ele><time>2026-04-25T10:23:58.229Z</time></trkpt><trkpt lat="45.82288" lon="10.1071817"><ele>190.0</ele><time>2026-04-25T10:23:59.229Z</time></trkpt><trkpt lat="45.8227183" lon="10.1071183"><ele>190.0</ele><time>2026-04-25T10:24:00.229Z</time></trkpt><trkpt lat="45.822545" lon="10.10704"><ele>190.0</ele><time>2026-04-25T10:24:01.229Z</time></trkpt><trkpt lat="45.8223667" lon="10.106955"><ele>190.33333333333334</ele><time>2026-04-25T10:24:02.229Z</time></trkpt><trkpt lat="45.82219" lon="10.1068717"><ele>190.66666666666666</ele><time>2026-04-25T10:24:03.228Z</time></trkpt><trkpt lat="45.8220133" lon="10.1067867"><ele>191.0</ele><time>2026-04-25T10:24:04.23Z</time></trkpt><trkpt lat="45.8218367" lon="10.1067033"><ele>190.66666666666666</ele><time>2026-04-25T10:24:05.231Z</time></trkpt><trkpt lat="45.8216683" lon="10.1066233"><ele>190.33333333333334</ele><time>2026-04-25T10:24:06.229Z</time></trkpt><trkpt lat="45.82151" lon="10.1065483"><ele>190.0</ele><time>2026-04-25T10:24:07.23Z</time></trkpt><trkpt lat="45.82136" lon="10.1064783"><ele>189.33333333333334</ele><time>2026-04-25T10:24:08.23Z</time></trkpt><trkpt lat="45.82121" lon="10.1064083"><ele>188.66666666666666</ele><time>2026-04-25T10:24:09.232Z</time></trkpt><trkpt lat="45.82106" lon="10.106335"><ele>188.0</ele><time>2026-04-25T10:24:10.229Z</time></trkpt><trkpt lat="45.8209083" lon="10.10626"><ele>187.66666666666666</ele><time>2026-04-25T10:24:11.228Z</time></trkpt><trkpt lat="45.8207583" lon="10.1061917"><ele>187.33333333333334</ele><time>2026-04-25T10:24:12.23Z</time></trkpt><trkpt lat="45.82061" lon="10.106125"><ele>187.0</ele><time>2026-04-25T10:24:13.232Z</time></trkpt><trkpt lat="45.82047" lon="10.1060583"><ele>187.0</ele><time>2026-04-25T10:24:14.23Z</time></trkpt><trkpt lat="45.8203367" lon="10.105995"><ele>187.0</ele><time>2026-04-25T10:24:15.23Z</time></trkpt><trkpt lat="45.8202083" lon="10.105935"><ele>187.0</ele><time>2026-04-25T10:24:16.228Z</time></trkpt><trkpt lat="45.82008" lon="10.105875"><ele>187.0</ele><time>2026-04-25T10:24:17.231Z</time></trkpt><trkpt lat="45.8199517" lon="10.1058167"><ele>186.75</ele><time>2026-04-25T10:24:18.23Z</time></trkpt><trkpt lat="45.819825" lon="10.1057583"><ele>186.5</ele><time>2026-04-25T10:24:19.229Z</time></trkpt><trkpt lat="45.8197017" lon="10.1057033"><ele>186.25</ele><time>2026-04-25T10:24:20.229Z</time></trkpt><trkpt lat="45.8195767" lon="10.1056483"><ele>186.0</ele><time>2026-04-25T10:24:21.23Z</time></trkpt><trkpt lat="45.8194533" lon="10.1055983"><ele>186.0</ele><time>2026-04-25T10:24:22.23Z</time></trkpt><trkpt lat="45.8193367" lon="10.105555"><ele>186.0</ele><time>2026-04-25T10:24:23.229Z</time></trkpt><trkpt lat="45.8192233" lon="10.1055183"><ele>186.0</ele><time>2026-04-25T10:24:24.231Z</time></trkpt><trkpt lat="45.8191167" lon="10.1054883"><ele>186.0</ele><time>2026-04-25T10:24:25.229Z</time></trkpt><trkpt lat="45.8190167" lon="10.1054667"><ele>186.0</ele><time>2026-04-25T10:24:26.23Z</time></trkpt><trkpt lat="45.8189217" lon="10.1054533"><ele>186.20000000000002</ele><time>2026-04-25T10:24:27.23Z</time></trkpt><trkpt lat="45.81883" lon="10.105445"><ele>186.4</ele><time>2026-04-25T10:24:28.229Z</time></trkpt><trkpt lat="45.81874" lon="10.10544"><ele>186.6</ele><time>2026-04-25T10:24:29.23Z</time></trkpt><trkpt lat="45.8186433" lon="10.1054383"><ele>186.8</ele><time>2026-04-25T10:24:30.231Z</time></trkpt><trkpt lat="45.818535" lon="10.105435"><ele>187.0</ele><time>2026-04-25T10:24:31.231Z</time></trkpt><trkpt lat="45.8184133" lon="10.10543"><ele>187.0</ele><time>2026-04-25T10:24:32.23Z</time></trkpt><trkpt lat="45.8182833" lon="10.1054367"><ele>187.0</ele><time>2026-04-25T10:24:33.231Z</time></trkpt><trkpt lat="45.8181433" lon="10.1054583"><ele>187.0</ele><time>2026-04-25T10:24:34.23Z</time></trkpt><trkpt lat="45.8179967" lon="10.1054933"><ele>187.0</ele><time>2026-04-25T10:24:35.229Z</time></trkpt><trkpt lat="45.8178417" lon="10.1055367"><ele>187.0</ele><time>2026-04-25T10:24:36.229Z</time></trkpt><trkpt lat="45.8176783" lon="10.1055867"><ele>187.0</ele><time>2026-04-25T10:24:37.23Z</time></trkpt><trkpt lat="45.81751" lon="10.1056417"><ele>187.0</ele><time>2026-04-25T10:24:38.229Z</time></trkpt><trkpt lat="45.8173417" lon="10.1056983"><ele>188.33333333333334</ele><time>2026-04-25T10:24:39.23Z</time></trkpt><trkpt lat="45.8171783" lon="10.1057567"><ele>189.66666666666666</ele><time>2026-04-25T10:24:40.229Z</time></trkpt><trkpt lat="45.8170267" lon="10.1058133"><ele>191.0</ele><time>2026-04-25T10:24:41.228Z</time></trkpt><trkpt lat="45.8168767" lon="10.1058683"><ele>191.0</ele><time>2026-04-25T10:24:42.23Z</time></trkpt><trkpt lat="45.8167267" lon="10.1059233"><ele>191.0</ele><time>2026-04-25T10:24:43.227Z</time></trkpt><trkpt lat="45.8165783" lon="10.1059767"><ele>191.0</ele><time>2026-04-25T10:24:44.228Z</time></trkpt><trkpt lat="45.816425" lon="10.1060267"><ele>191.0</ele><time>2026-04-25T10:24:45.227Z</time></trkpt><trkpt lat="45.8162783" lon="10.1060783"><ele>191.0</ele><time>2026-04-25T10:24:46.228Z</time></trkpt><trkpt lat="45.81613" lon="10.1061283"><ele>191.0</ele><time>2026-04-25T10:24:47.227Z</time></trkpt><trkpt lat="45.8159783" lon="10.1061717"><ele>190.0</ele><time>2026-04-25T10:24:48.228Z</time></trkpt><trkpt lat="45.81583" lon="10.1062183"><ele>189.0</ele><time>2026-04-25T10:24:49.229Z</time></trkpt><trkpt lat="45.8156867" lon="10.1062633"><ele>188.0</ele><time>2026-04-25T10:24:50.229Z</time></trkpt><trkpt lat="45.8155533" lon="10.1063067"><ele>187.0</ele><time>2026-04-25T10:24:51.229Z</time></trkpt><trkpt lat="45.8154267" lon="10.1063467"><ele>187.0</ele><time>2026-04-25T10:24:52.229Z</time></trkpt><trkpt lat="45.8153133" lon="10.10638"><ele>187.0</ele><time>2026-04-25T10:24:53.228Z</time></trkpt><trkpt lat="45.8152083" lon="10.1064017"><ele>187.0</ele><time>2026-04-25T10:24:54.228Z</time></trkpt><trkpt lat="45.8151117" lon="10.106405"><ele>187.0</ele><time>2026-04-25T10:24:55.227Z</time></trkpt><trkpt lat="45.81502" lon="10.1063833"><ele>187.0</ele><time>2026-04-25T10:24:56.227Z</time></trkpt><trkpt lat="45.814935" lon="10.106355"><ele>187.16666666666669</ele><time>2026-04-25T10:24:57.228Z</time></trkpt><trkpt lat="45.814855" lon="10.10635"><ele>187.33333333333334</ele><time>2026-04-25T10:24:58.23Z</time></trkpt><trkpt lat="45.8147783" lon="10.1063717"><ele>187.5</ele><time>2026-04-25T10:24:59.227Z</time></trkpt><trkpt lat="45.8147183" lon="10.1064217"><ele>187.66666666666666</ele><time>2026-04-25T10:25:00.227Z</time></trkpt><trkpt lat="45.8146517" lon="10.1064883"><ele>187.83333333333331</ele><time>2026-04-25T10:25:01.227Z</time></trkpt><trkpt lat="45.81457" lon="10.1065733"><ele>188.0</ele><time>2026-04-25T10:25:02.227Z</time></trkpt><trkpt lat="45.8144667" lon="10.1066417"><ele>188.25</ele><time>2026-04-25T10:25:03.228Z</time></trkpt><trkpt lat="45.8143483" lon="10.1066967"><ele>188.5</ele><time>2026-04-25T10:25:04.23Z</time></trkpt><trkpt lat="45.814215" lon="10.106745"><ele>188.75</ele><time>2026-04-25T10:25:05.227Z</time></trkpt><trkpt lat="45.8140767" lon="10.1067883"><ele>189.0</ele><time>2026-04-25T10:25:06.228Z</time></trkpt><trkpt lat="45.813945" lon="10.1068317"><ele>189.0</ele><time>2026-04-25T10:25:07.227Z</time></trkpt><trkpt lat="45.8138117" lon="10.1068817"><ele>189.0</ele><time>2026-04-25T10:25:08.228Z</time></trkpt><trkpt lat="45.8136817" lon="10.10693"><ele>189.0</ele><time>2026-04-25T10:25:09.228Z</time></trkpt><trkpt lat="45.813545" lon="10.1069783"><ele>189.0</ele><time>2026-04-25T10:25:10.227Z</time></trkpt><trkpt lat="45.813405" lon="10.107025"><ele>188.5</ele><time>2026-04-25T10:25:11.227Z</time></trkpt><trkpt lat="45.8132667" lon="10.1070717"><ele>188.0</ele><time>2026-04-25T10:25:12.228Z</time></trkpt><trkpt lat="45.8131317" lon="10.1071183"><ele>187.5</ele><time>2026-04-25T10:25:13.23Z</time></trkpt><trkpt lat="45.813" lon="10.1071633"><ele>187.0</ele><time>2026-04-25T10:25:14.228Z</time></trkpt><trkpt lat="45.8128717" lon="10.1072083"><ele>187.0</ele><time>2026-04-25T10:25:15.228Z</time></trkpt><trkpt lat="45.8127433" lon="10.1072483"><ele>187.0</ele><time>2026-04-25T10:25:16.228Z</time></trkpt><trkpt lat="45.8126133" lon="10.1072867"><ele>187.0</ele><time>2026-04-25T10:25:17.227Z</time></trkpt><trkpt lat="45.8124833" lon="10.107325"><ele>187.0</ele><time>2026-04-25T10:25:18.228Z</time></trkpt><trkpt lat="45.8123583" lon="10.107365"><ele>187.25</ele><time>2026-04-25T10:25:19.23Z</time></trkpt><trkpt lat="45.812235" lon="10.1074067"><ele>187.5</ele><time>2026-04-25T10:25:20.229Z</time></trkpt><trkpt lat="45.8121133" lon="10.1074483"><ele>187.75</ele><time>2026-04-25T10:25:21.23Z</time></trkpt><trkpt lat="45.8119917" lon="10.1074883"><ele>188.0</ele><time>2026-04-25T10:25:22.229Z</time></trkpt><trkpt lat="45.81188" lon="10.1075233"><ele>187.4</ele><time>2026-04-25T10:25:23.228Z</time></trkpt><trkpt lat="45.8117733" lon="10.1075583"><ele>186.8</ele><time>2026-04-25T10:25:24.228Z</time></trkpt><trkpt lat="45.811675" lon="10.1075883"><ele>186.2</ele><time>2026-04-25T10:25:25.231Z</time></trkpt><trkpt lat="45.81158" lon="10.1076217"><ele>185.6</ele><time>2026-04-25T10:25:26.229Z</time></trkpt><trkpt lat="45.8114867" lon="10.1076517"><ele>185.0</ele><time>2026-04-25T10:25:27.229Z</time></trkpt><trkpt lat="45.811385" lon="10.1076783"><ele>185.0</ele><time>2026-04-25T10:25:28.229Z</time></trkpt><trkpt lat="45.8112733" lon="10.1077083"><ele>185.0</ele><time>2026-04-25T10:25:29.229Z</time></trkpt><trkpt lat="45.8111583" lon="10.107735"><ele>185.0</ele><time>2026-04-25T10:25:30.228Z</time></trkpt><trkpt lat="45.8110367" lon="10.1077617"><ele>185.0</ele><time>2026-04-25T10:25:31.229Z</time></trkpt><trkpt lat="45.81091" lon="10.1077867"><ele>185.5</ele><time>2026-04-25T10:25:32.228Z</time></trkpt><trkpt lat="45.8107817" lon="10.1078083"><ele>186.0</ele><time>2026-04-25T10:25:33.232Z</time></trkpt><trkpt lat="45.81065" lon="10.107835"><ele>186.5</ele><time>2026-04-25T10:25:34.229Z</time></trkpt><trkpt lat="45.81052" lon="10.10786"><ele>187.0</ele><time>2026-04-25T10:25:35.227Z</time></trkpt><trkpt lat="45.810395" lon="10.1078833"><ele>187.0</ele><time>2026-04-25T10:25:36.228Z</time></trkpt><trkpt lat="45.8102783" lon="10.107905"><ele>187.0</ele><time>2026-04-25T10:25:37.229Z</time></trkpt><trkpt lat="45.8101683" lon="10.1079233"><ele>187.0</ele><time>2026-04-25T10:25:38.228Z</time></trkpt><trkpt lat="45.8100667" lon="10.10794"><ele>187.0</ele><time>2026-04-25T10:25:39.228Z</time></trkpt><trkpt lat="45.80997" lon="10.10796"><ele>187.0</ele><time>2026-04-25T10:25:40.227Z</time></trkpt><trkpt lat="45.8098783" lon="10.1079767"><ele>187.2</ele><time>2026-04-25T10:25:41.228Z</time></trkpt><trkpt lat="45.8097867" lon="10.107995"><ele>187.39999999999998</ele><time>2026-04-25T10:25:42.231Z</time></trkpt><trkpt lat="45.8096983" lon="10.1080167"><ele>187.60000000000002</ele><time>2026-04-25T10:25:43.229Z</time></trkpt><trkpt lat="45.8096117" lon="10.1080333"><ele>187.8</ele><time>2026-04-25T10:25:44.229Z</time></trkpt><trkpt lat="45.8095383" lon="10.1080433"><ele>188.0</ele><time>2026-04-25T10:25:45.227Z</time></trkpt><trkpt lat="45.8094283" lon="10.1080517"><ele>188.0</ele><time>2026-04-25T10:25:47.227Z</time></trkpt><trkpt lat="45.80934" lon="10.10806"><ele>188.0</ele><time>2026-04-25T10:25:49.23Z</time></trkpt><trkpt lat="45.80926" lon="10.1080667"><ele>188.0</ele><time>2026-04-25T10:25:51.227Z</time></trkpt><trkpt lat="45.8091917" lon="10.10808"><ele>188.0</ele><time>2026-04-25T10:25:53.23Z</time></trkpt><trkpt lat="45.80912" lon="10.1080917"><ele>188.0</ele><time>2026-04-25T10:25:55.227Z</time></trkpt><trkpt lat="45.809005" lon="10.10809"><ele>188.0</ele><time>2026-04-25T10:25:57.229Z</time></trkpt><trkpt lat="45.8089283" lon="10.1080867"><ele>187.8</ele><time>2026-04-25T10:25:58.23Z</time></trkpt><trkpt lat="45.8088483" lon="10.108075"><ele>187.60000000000002</ele><time>2026-04-25T10:25:59.229Z</time></trkpt><trkpt lat="45.8087667" lon="10.10804"><ele>187.39999999999998</ele><time>2026-04-25T10:26:00.229Z</time></trkpt><trkpt lat="45.8086883" lon="10.107975"><ele>187.2</ele><time>2026-04-25T10:26:01.229Z</time></trkpt><trkpt lat="45.8086133" lon="10.10789"><ele>187.0</ele><time>2026-04-25T10:26:02.229Z</time></trkpt><trkpt lat="45.8085367" lon="10.107785"><ele>187.0</ele><time>2026-04-25T10:26:03.231Z</time></trkpt><trkpt lat="45.80846" lon="10.1076717"><ele>187.0</ele><time>2026-04-25T10:26:04.23Z</time></trkpt><trkpt lat="45.8083817" lon="10.107555"><ele>187.0</ele><time>2026-04-25T10:26:05.229Z</time></trkpt><trkpt lat="45.8082983" lon="10.1074383"><ele>187.0</ele><time>2026-04-25T10:26:06.228Z</time></trkpt><trkpt lat="45.8082083" lon="10.10732"><ele>187.0</ele><time>2026-04-25T10:26:07.228Z</time></trkpt><trkpt lat="45.808115" lon="10.1071967"><ele>187.0</ele><time>2026-04-25T10:26:08.228Z</time></trkpt><trkpt lat="45.8080083" lon="10.1070633"><ele>187.0</ele><time>2026-04-25T10:26:09.227Z</time></trkpt><trkpt lat="45.8078983" lon="10.1069267"><ele>187.0</ele><time>2026-04-25T10:26:10.227Z</time></trkpt><trkpt lat="45.8077933" lon="10.1067933"><ele>187.0</ele><time>2026-04-25T10:26:11.228Z</time></trkpt><trkpt lat="45.8076917" lon="10.106665"><ele>187.0</ele><time>2026-04-25T10:26:12.229Z</time></trkpt><trkpt lat="45.8075883" lon="10.106545"><ele>187.0</ele><time>2026-04-25T10:26:13.227Z</time></trkpt><trkpt lat="45.8074817" lon="10.1064333"><ele>187.0</ele><time>2026-04-25T10:26:14.227Z</time></trkpt><trkpt lat="45.80737" lon="10.10633"><ele>187.0</ele><time>2026-04-25T10:26:15.228Z</time></trkpt><trkpt lat="45.8072533" lon="10.1062317"><ele>187.0</ele><time>2026-04-25T10:26:16.228Z</time></trkpt><trkpt lat="45.8071317" lon="10.1061483"><ele>187.0</ele><time>2026-04-25T10:26:17.229Z</time></trkpt><trkpt lat="45.8070083" lon="10.1060767"><ele>187.0</ele><time>2026-04-25T10:26:18.227Z</time></trkpt><trkpt lat="45.80688" lon="10.1060217"><ele>186.75</ele><time>2026-04-25T10:26:19.229Z</time></trkpt><trkpt lat="45.80675" lon="10.105975"><ele>186.5</ele><time>2026-04-25T10:26:20.227Z</time></trkpt><trkpt lat="45.806615" lon="10.1059433"><ele>186.25</ele><time>2026-04-25T10:26:21.227Z</time></trkpt><trkpt lat="45.80648" lon="10.10592"><ele>186.0</ele><time>2026-04-25T10:26:22.229Z</time></trkpt><trkpt lat="45.8063433" lon="10.105905"><ele>186.0</ele><time>2026-04-25T10:26:23.228Z</time></trkpt><trkpt lat="45.8062033" lon="10.1058933"><ele>186.0</ele><time>2026-04-25T10:26:24.228Z</time></trkpt><trkpt lat="45.806065" lon="10.1058833"><ele>186.0</ele><time>2026-04-25T10:26:25.228Z</time></trkpt><trkpt lat="45.8059267" lon="10.10588"><ele>186.0</ele><time>2026-04-25T10:26:26.229Z</time></trkpt><trkpt lat="45.8058017" lon="10.1058733"><ele>186.20000000000002</ele><time>2026-04-25T10:26:27.227Z</time></trkpt><trkpt lat="45.80568" lon="10.1058617"><ele>186.4</ele><time>2026-04-25T10:26:28.228Z</time></trkpt><trkpt lat="45.8055717" lon="10.1058617"><ele>186.6</ele><time>2026-04-25T10:26:29.228Z</time></trkpt><trkpt lat="45.8054683" lon="10.10588"><ele>186.8</ele><time>2026-04-25T10:26:30.229Z</time></trkpt><trkpt lat="45.8053667" lon="10.1059083"><ele>187.0</ele><time>2026-04-25T10:26:31.228Z</time></trkpt><trkpt lat="45.8052617" lon="10.1059417"><ele>186.75</ele><time>2026-04-25T10:26:32.228Z</time></trkpt><trkpt lat="45.805155" lon="10.10598"><ele>186.5</ele><time>2026-04-25T10:26:33.229Z</time></trkpt><trkpt lat="45.8050417" lon="10.1060183"><ele>186.25</ele><time>2026-04-25T10:26:34.228Z</time></trkpt><trkpt lat="45.80493" lon="10.10606"><ele>186.0</ele><time>2026-04-25T10:26:35.231Z</time></trkpt><trkpt lat="45.8048167" lon="10.1060967"><ele>186.0</ele><time>2026-04-25T10:26:36.227Z</time></trkpt><trkpt lat="45.80471" lon="10.1061333"><ele>186.0</ele><time>2026-04-25T10:26:37.227Z</time></trkpt><trkpt lat="45.8046117" lon="10.1061683"><ele>186.0</ele><time>2026-04-25T10:26:38.229Z</time></trkpt><trkpt lat="45.8045217" lon="10.1062017"><ele>186.0</ele><time>2026-04-25T10:26:39.23Z</time></trkpt><trkpt lat="45.8044417" lon="10.1062317"><ele>186.0</ele><time>2026-04-25T10:26:40.228Z</time></trkpt><trkpt lat="45.8043667" lon="10.1062617"><ele>186.0</ele><time>2026-04-25T10:26:41.228Z</time></trkpt><trkpt lat="45.8043033" lon="10.1062833"><ele>186.0</ele><time>2026-04-25T10:26:42.227Z</time></trkpt><trkpt lat="45.804185" lon="10.10632"><ele>186.0</ele><time>2026-04-25T10:26:44.228Z</time></trkpt><trkpt lat="45.8040783" lon="10.1063517"><ele>186.0</ele><time>2026-04-25T10:26:46.227Z</time></trkpt><trkpt lat="45.8039833" lon="10.1063783"><ele>186.0</ele><time>2026-04-25T10:26:48.229Z</time></trkpt><trkpt lat="45.803885" lon="10.1064017"><ele>186.0</ele><time>2026-04-25T10:26:50.23Z</time></trkpt><trkpt lat="45.8038217" lon="10.1064033"><ele>186.0</ele><time>2026-04-25T10:26:51.228Z</time></trkpt><trkpt lat="45.8037533" lon="10.1063967"><ele>186.0</ele><time>2026-04-25T10:26:52.227Z</time></trkpt><trkpt lat="45.8036833" lon="10.1063917"><ele>186.0</ele><time>2026-04-25T10:26:53.227Z</time></trkpt><trkpt lat="45.8036167" lon="10.1063883"><ele>186.0</ele><time>2026-04-25T10:26:54.227Z</time></trkpt><trkpt lat="45.8035533" lon="10.1063817"><ele>186.0</ele><time>2026-04-25T10:26:55.227Z</time></trkpt><trkpt lat="45.803435" lon="10.1063617"><ele>186.0</ele><time>2026-04-25T10:26:57.229Z</time></trkpt><trkpt lat="45.80337" lon="10.1063517"><ele>186.0</ele><time>2026-04-25T10:26:58.228Z</time></trkpt><trkpt lat="45.803295" lon="10.106335"><ele>186.0</ele><time>2026-04-25T10:26:59.227Z</time></trkpt><trkpt lat="45.8032117" lon="10.1063167"><ele>186.0</ele><time>2026-04-25T10:27:00.228Z</time></trkpt><trkpt lat="45.803125" lon="10.1062933"><ele>186.0</ele><time>2026-04-25T10:27:01.229Z</time></trkpt><trkpt lat="45.8030383" lon="10.10627"><ele>186.0</ele><time>2026-04-25T10:27:02.228Z</time></trkpt><trkpt lat="45.80295" lon="10.1062433"><ele>186.0</ele><time>2026-04-25T10:27:03.228Z</time></trkpt><trkpt lat="45.80286" lon="10.1062233"><ele>186.0</ele><time>2026-04-25T10:27:04.229Z</time></trkpt><trkpt lat="45.8027717" lon="10.1062033"><ele>186.0</ele><time>2026-04-25T10:27:05.228Z</time></trkpt><trkpt lat="45.8026767" lon="10.1061767"><ele>186.0</ele><time>2026-04-25T10:27:06.229Z</time></trkpt><trkpt lat="45.8025767" lon="10.1061567"><ele>186.0</ele><time>2026-04-25T10:27:07.23Z</time></trkpt><trkpt lat="45.802475" lon="10.10614"><ele>185.8</ele><time>2026-04-25T10:27:08.229Z</time></trkpt><trkpt lat="45.8023733" lon="10.106125"><ele>185.60000000000002</ele><time>2026-04-25T10:27:09.228Z</time></trkpt><trkpt lat="45.8022717" lon="10.10611"><ele>185.4</ele><time>2026-04-25T10:27:10.228Z</time></trkpt><trkpt lat="45.8021667" lon="10.1061"><ele>185.2</ele><time>2026-04-25T10:27:11.227Z</time></trkpt><trkpt lat="45.80206" lon="10.1060933"><ele>185.0</ele><time>2026-04-25T10:27:12.228Z</time></trkpt><trkpt lat="45.8019567" lon="10.1060917"><ele>185.0</ele><time>2026-04-25T10:27:13.229Z</time></trkpt><trkpt lat="45.801855" lon="10.10609"><ele>185.0</ele><time>2026-04-25T10:27:14.227Z</time></trkpt><trkpt lat="45.8017567" lon="10.1060867"><ele>185.0</ele><time>2026-04-25T10:27:15.228Z</time></trkpt><trkpt lat="45.8016533" lon="10.1060783"><ele>185.0</ele><time>2026-04-25T10:27:16.229Z</time></trkpt><trkpt lat="45.8015483" lon="10.1060717"><ele>185.0</ele><time>2026-04-25T10:27:17.228Z</time></trkpt><trkpt lat="45.8014433" lon="10.1060633"><ele>186.2</ele><time>2026-04-25T10:27:18.228Z</time></trkpt><trkpt lat="45.801335" lon="10.1060533"><ele>187.4</ele><time>2026-04-25T10:27:19.228Z</time></trkpt><trkpt lat="45.8012283" lon="10.1060417"><ele>188.60000000000002</ele><time>2026-04-25T10:27:20.232Z</time></trkpt><trkpt lat="45.8011233" lon="10.10603"><ele>189.8</ele><time>2026-04-25T10:27:21.23Z</time></trkpt><trkpt lat="45.8010183" lon="10.1060183"><ele>191.0</ele><time>2026-04-25T10:27:22.228Z</time></trkpt><trkpt lat="45.8009117" lon="10.1060033"><ele>191.0</ele><time>2026-04-25T10:27:23.228Z</time></trkpt><trkpt lat="45.8008067" lon="10.10599"><ele>191.0</ele><time>2026-04-25T10:27:24.23Z</time></trkpt><trkpt lat="45.8007033" lon="10.1059767"><ele>191.0</ele><time>2026-04-25T10:27:25.228Z</time></trkpt><trkpt lat="45.8006017" lon="10.1059617"><ele>191.0</ele><time>2026-04-25T10:27:26.228Z</time></trkpt><trkpt lat="45.8005" lon="10.1059467"><ele>191.0</ele><time>2026-04-25T10:27:27.229Z</time></trkpt><trkpt lat="45.8004017" lon="10.105935"><ele>191.0</ele><time>2026-04-25T10:27:28.229Z</time></trkpt><trkpt lat="45.800305" lon="10.1059233"><ele>191.0</ele><time>2026-04-25T10:27:29.232Z</time></trkpt><trkpt lat="45.8002083" lon="10.1059133"><ele>191.0</ele><time>2026-04-25T10:27:30.232Z</time></trkpt><trkpt lat="45.8001117" lon="10.1059017"><ele>191.0</ele><time>2026-04-25T10:27:31.228Z</time></trkpt><trkpt lat="45.800015" lon="10.1058917"><ele>191.0</ele><time>2026-04-25T10:27:32.229Z</time></trkpt><trkpt lat="45.7999233" lon="10.1058817"><ele>190.66666666666666</ele><time>2026-04-25T10:27:33.228Z</time></trkpt><trkpt lat="45.7998367" lon="10.105875"><ele>190.33333333333331</ele><time>2026-04-25T10:27:34.228Z</time></trkpt><trkpt lat="45.7997533" lon="10.1058683"><ele>190.0</ele><time>2026-04-25T10:27:35.232Z</time></trkpt><trkpt lat="45.7996733" lon="10.105865"><ele>189.66666666666666</ele><time>2026-04-25T10:27:36.228Z</time></trkpt><trkpt lat="45.7995983" lon="10.105865"><ele>189.33333333333334</ele><time>2026-04-25T10:27:37.229Z</time></trkpt><trkpt lat="45.7995283" lon="10.1058683"><ele>189.0</ele><time>2026-04-25T10:27:38.231Z</time></trkpt><trkpt lat="45.7994617" lon="10.105875"><ele>189.0</ele><time>2026-04-25T10:27:39.228Z</time></trkpt><trkpt lat="45.7993933" lon="10.1058783"><ele>189.0</ele><time>2026-04-25T10:27:40.232Z</time></trkpt><trkpt lat="45.799325" lon="10.1058717"><ele>189.0</ele><time>2026-04-25T10:27:41.229Z</time></trkpt><trkpt lat="45.7992517" lon="10.1058617"><ele>189.0</ele><time>2026-04-25T10:27:42.232Z</time></trkpt><trkpt lat="45.7991767" lon="10.1058533"><ele>189.0</ele><time>2026-04-25T10:27:43.232Z</time></trkpt><trkpt lat="45.7991017" lon="10.1058517"><ele>189.0</ele><time>2026-04-25T10:27:44.229Z</time></trkpt><trkpt lat="45.799025" lon="10.105845"><ele>189.0</ele><time>2026-04-25T10:27:45.23Z</time></trkpt><trkpt lat="45.7989467" lon="10.1058267"><ele>189.0</ele><time>2026-04-25T10:27:46.227Z</time></trkpt><trkpt lat="45.7988633" lon="10.105795"><ele>189.0</ele><time>2026-04-25T10:27:47.227Z</time></trkpt><trkpt lat="45.798775" lon="10.1057533"><ele>189.0</ele><time>2026-04-25T10:27:48.228Z</time></trkpt><trkpt lat="45.7986867" lon="10.10571"><ele>189.0</ele><time>2026-04-25T10:27:49.229Z</time></trkpt><trkpt lat="45.7985967" lon="10.1056667"><ele>189.0</ele><time>2026-04-25T10:27:50.229Z</time></trkpt><trkpt lat="45.7985083" lon="10.1056233"><ele>188.2</ele><time>2026-04-25T10:27:51.23Z</time></trkpt><trkpt lat="45.7984167" lon="10.105575"><ele>187.39999999999998</ele><time>2026-04-25T10:27:52.23Z</time></trkpt><trkpt lat="45.7983267" lon="10.1055233"><ele>186.6</ele><time>2026-04-25T10:27:53.23Z</time></trkpt><trkpt lat="45.7982417" lon="10.1054717"><ele>185.8</ele><time>2026-04-25T10:27:54.231Z</time></trkpt><trkpt lat="45.7981567" lon="10.1054133"><ele>185.0</ele><time>2026-04-25T10:27:55.23Z</time></trkpt><trkpt lat="45.7980667" lon="10.10535"><ele>185.0</ele><time>2026-04-25T10:27:56.231Z</time></trkpt><trkpt lat="45.7979733" lon="10.1052733"><ele>185.0</ele><time>2026-04-25T10:27:57.231Z</time></trkpt><trkpt lat="45.79788" lon="10.1051867"><ele>185.0</ele><time>2026-04-25T10:27:58.23Z</time></trkpt><trkpt lat="45.797785" lon="10.1050883"><ele>185.0</ele><time>2026-04-25T10:27:59.23Z</time></trkpt><trkpt lat="45.7976983" lon="10.1049833"><ele>185.0</ele><time>2026-04-25T10:28:00.23Z</time></trkpt><trkpt lat="45.7976117" lon="10.10487"><ele>185.6</ele><time>2026-04-25T10:28:01.232Z</time></trkpt><trkpt lat="45.7975267" lon="10.1047567"><ele>186.2</ele><time>2026-04-25T10:28:02.23Z</time></trkpt><trkpt lat="45.7974467" lon="10.10465"><ele>186.8</ele><time>2026-04-25T10:28:03.23Z</time></trkpt><trkpt lat="45.79737" lon="10.1045467"><ele>187.4</ele><time>2026-04-25T10:28:04.228Z</time></trkpt><trkpt lat="45.7972933" lon="10.1044417"><ele>188.0</ele><time>2026-04-25T10:28:05.228Z</time></trkpt><trkpt lat="45.797215" lon="10.10433"><ele>188.0</ele><time>2026-04-25T10:28:06.228Z</time></trkpt><trkpt lat="45.7971367" lon="10.1042133"><ele>188.0</ele><time>2026-04-25T10:28:07.228Z</time></trkpt><trkpt lat="45.7970533" lon="10.1040967"><ele>188.0</ele><time>2026-04-25T10:28:08.229Z</time></trkpt><trkpt lat="45.7969633" lon="10.1039833"><ele>188.0</ele><time>2026-04-25T10:28:09.23Z</time></trkpt><trkpt lat="45.7968667" lon="10.103875"><ele>188.25</ele><time>2026-04-25T10:28:10.23Z</time></trkpt><trkpt lat="45.796765" lon="10.10377"><ele>188.5</ele><time>2026-04-25T10:28:11.229Z</time></trkpt><trkpt lat="45.7966567" lon="10.1036733"><ele>188.75</ele><time>2026-04-25T10:28:12.229Z</time></trkpt><trkpt lat="45.796545" lon="10.10358"><ele>189.0</ele><time>2026-04-25T10:28:13.23Z</time></trkpt><trkpt lat="45.79643" lon="10.1034917"><ele>189.0</ele><time>2026-04-25T10:28:14.229Z</time></trkpt><trkpt lat="45.7963083" lon="10.1034117"><ele>189.0</ele><time>2026-04-25T10:28:15.23Z</time></trkpt><trkpt lat="45.7961883" lon="10.1033367"><ele>189.0</ele><time>2026-04-25T10:28:16.227Z</time></trkpt><trkpt lat="45.7960683" lon="10.103265"><ele>189.0</ele><time>2026-04-25T10:28:17.23Z</time></trkpt><trkpt lat="45.7959517" lon="10.1031967"><ele>188.39999999999998</ele><time>2026-04-25T10:28:18.227Z</time></trkpt><trkpt lat="45.7958383" lon="10.1031283"><ele>187.8</ele><time>2026-04-25T10:28:19.229Z</time></trkpt><trkpt lat="45.79573" lon="10.1030583"><ele>187.2</ele><time>2026-04-25T10:28:20.229Z</time></trkpt><trkpt lat="45.7956333" lon="10.1029883"><ele>186.60000000000002</ele><time>2026-04-25T10:28:21.23Z</time></trkpt><trkpt lat="45.7955483" lon="10.1029183"><ele>186.0</ele><time>2026-04-25T10:28:22.229Z</time></trkpt><trkpt lat="45.7954783" lon="10.10284"><ele>186.0</ele><time>2026-04-25T10:28:23.228Z</time></trkpt><trkpt lat="45.79542" lon="10.10275"><ele>186.0</ele><time>2026-04-25T10:28:24.23Z</time></trkpt><trkpt lat="45.7953683" lon="10.1026567"><ele>186.0</ele><time>2026-04-25T10:28:25.229Z</time></trkpt><trkpt lat="45.7953233" lon="10.1025667"><ele>186.0</ele><time>2026-04-25T10:28:26.229Z</time></trkpt><trkpt lat="45.79526" lon="10.10244"><ele>186.0</ele><time>2026-04-25T10:28:28.228Z</time></trkpt><trkpt lat="45.7951833" lon="10.1023067"><ele>185.25</ele><time>2026-04-25T10:28:30.229Z</time></trkpt><trkpt lat="45.7951183" lon="10.1022333"><ele>184.5</ele><time>2026-04-25T10:28:31.229Z</time></trkpt><trkpt lat="45.79503" lon="10.1021567"><ele>183.75</ele><time>2026-04-25T10:28:32.231Z</time></trkpt><trkpt lat="45.79492" lon="10.1020583"><ele>183.0</ele><time>2026-04-25T10:28:33.23Z</time></trkpt><trkpt lat="45.7948033" lon="10.1019533"><ele>183.0</ele><time>2026-04-25T10:28:34.232Z</time></trkpt><trkpt lat="45.79469" lon="10.1018267"><ele>183.0</ele><time>2026-04-25T10:28:35.23Z</time></trkpt><trkpt lat="45.794575" lon="10.10168"><ele>183.0</ele><time>2026-04-25T10:28:36.23Z</time></trkpt><trkpt lat="45.794455" lon="10.101525"><ele>184.33333333333334</ele><time>2026-04-25T10:28:37.228Z</time></trkpt><trkpt lat="45.7943367" lon="10.1013717"><ele>185.66666666666669</ele><time>2026-04-25T10:28:38.228Z</time></trkpt><trkpt lat="45.7942167" lon="10.101215"><ele>187.0</ele><time>2026-04-25T10:28:39.23Z</time></trkpt><trkpt lat="45.794095" lon="10.1010517"><ele>187.0</ele><time>2026-04-25T10:28:40.229Z</time></trkpt><trkpt lat="45.7939783" lon="10.1008817"><ele>187.0</ele><time>2026-04-25T10:28:41.23Z</time></trkpt><trkpt lat="45.7938733" lon="10.1007133"><ele>187.0</ele><time>2026-04-25T10:28:42.229Z</time></trkpt><trkpt lat="45.793775" lon="10.10055"><ele>185.75</ele><time>2026-04-25T10:28:43.228Z</time></trkpt><trkpt lat="45.7936833" lon="10.1003917"><ele>184.5</ele><time>2026-04-25T10:28:44.228Z</time></trkpt><trkpt lat="45.7935967" lon="10.1002267"><ele>183.25</ele><time>2026-04-25T10:28:45.229Z</time></trkpt><trkpt lat="45.7935083" lon="10.1000567"><ele>182.0</ele><time>2026-04-25T10:28:46.229Z</time></trkpt><trkpt lat="45.7934233" lon="10.0998983"><ele>185.25</ele><time>2026-04-25T10:28:47.228Z</time></trkpt><trkpt lat="45.793355" lon="10.0997533"><ele>188.5</ele><time>2026-04-25T10:28:48.23Z</time></trkpt><trkpt lat="45.793305" lon="10.09961"><ele>191.75</ele><time>2026-04-25T10:28:49.229Z</time></trkpt><trkpt lat="45.793275" lon="10.0994567"><ele>195.0</ele><time>2026-04-25T10:28:50.229Z</time></trkpt><trkpt lat="45.793265" lon="10.0992883"><ele>195.0</ele><time>2026-04-25T10:28:51.23Z</time></trkpt><trkpt lat="45.7932583" lon="10.0991017"><ele>195.0</ele><time>2026-04-25T10:28:52.231Z</time></trkpt><trkpt lat="45.793235" lon="10.0989183"><ele>195.0</ele><time>2026-04-25T10:28:53.232Z</time></trkpt><trkpt lat="45.7931883" lon="10.0987467"><ele>195.0</ele><time>2026-04-25T10:28:54.231Z</time></trkpt><trkpt lat="45.7931267" lon="10.0985783"><ele>190.66666666666666</ele><time>2026-04-25T10:28:55.23Z</time></trkpt><trkpt lat="45.7930383" lon="10.098415"><ele>186.33333333333331</ele><time>2026-04-25T10:28:56.23Z</time></trkpt><trkpt lat="45.7929333" lon="10.0982483"><ele>182.0</ele><time>2026-04-25T10:28:57.23Z</time></trkpt><trkpt lat="45.79282" lon="10.0980817"><ele>182.0</ele><time>2026-04-25T10:28:58.229Z</time></trkpt><trkpt lat="45.7927017" lon="10.097915"><ele>182.0</ele><time>2026-04-25T10:28:59.23Z</time></trkpt><trkpt lat="45.7925833" lon="10.0977383"><ele>182.0</ele><time>2026-04-25T10:29:00.228Z</time></trkpt><trkpt lat="45.7924767" lon="10.097545"><ele>182.0</ele><time>2026-04-25T10:29:01.228Z</time></trkpt><trkpt lat="45.7923833" lon="10.09735"><ele>182.0</ele><time>2026-04-25T10:29:02.228Z</time></trkpt><trkpt lat="45.7923" lon="10.097165"><ele>182.0</ele><time>2026-04-25T10:29:03.229Z</time></trkpt><trkpt lat="45.79222" lon="10.0969883"><ele>182.0</ele><time>2026-04-25T10:29:04.229Z</time></trkpt><trkpt lat="45.7921417" lon="10.0968133"><ele>182.0</ele><time>2026-04-25T10:29:05.229Z</time></trkpt><trkpt lat="45.7920667" lon="10.0966367"><ele>182.0</ele><time>2026-04-25T10:29:06.228Z</time></trkpt><trkpt lat="45.7919917" lon="10.09646"><ele>182.0</ele><time>2026-04-25T10:29:07.228Z</time></trkpt><trkpt lat="45.791915" lon="10.0962817"><ele>183.66666666666666</ele><time>2026-04-25T10:29:08.229Z</time></trkpt><trkpt lat="45.7918383" lon="10.0960967"><ele>185.33333333333334</ele><time>2026-04-25T10:29:09.228Z</time></trkpt><trkpt lat="45.7917583" lon="10.095915"><ele>187.0</ele><time>2026-04-25T10:29:10.229Z</time></trkpt><trkpt lat="45.791675" lon="10.095735"><ele>187.0</ele><time>2026-04-25T10:29:11.229Z</time></trkpt><trkpt lat="45.7915883" lon="10.09556"><ele>187.0</ele><time>2026-04-25T10:29:12.23Z</time></trkpt><trkpt lat="45.7914883" lon="10.095395"><ele>187.0</ele><time>2026-04-25T10:29:13.227Z</time></trkpt><trkpt lat="45.7913917" lon="10.09524"><ele>187.0</ele><time>2026-04-25T10:29:14.228Z</time></trkpt><trkpt lat="45.7913" lon="10.0950933"><ele>187.0</ele><time>2026-04-25T10:29:15.23Z</time></trkpt><trkpt lat="45.7912217" lon="10.0949467"><ele>187.0</ele><time>2026-04-25T10:29:16.228Z</time></trkpt><trkpt lat="45.7911567" lon="10.094795"><ele>187.0</ele><time>2026-04-25T10:29:17.228Z</time></trkpt><trkpt lat="45.79111" lon="10.09463"><ele>187.0</ele><time>2026-04-25T10:29:18.229Z</time></trkpt><trkpt lat="45.791075" lon="10.09445"><ele>186.0</ele><time>2026-04-25T10:29:19.228Z</time></trkpt><trkpt lat="45.7910367" lon="10.09427"><ele>185.0</ele><time>2026-04-25T10:29:20.231Z</time></trkpt><trkpt lat="45.7909883" lon="10.0940933"><ele>184.0</ele><time>2026-04-25T10:29:21.231Z</time></trkpt><trkpt lat="45.7909267" lon="10.0939267"><ele>183.0</ele><time>2026-04-25T10:29:22.231Z</time></trkpt><trkpt lat="45.7908567" lon="10.0937633"><ele>183.25</ele><time>2026-04-25T10:29:23.231Z</time></trkpt><trkpt lat="45.7907867" lon="10.0936"><ele>183.5</ele><time>2026-04-25T10:29:24.23Z</time></trkpt><trkpt lat="45.7907317" lon="10.0934267"><ele>183.75</ele><time>2026-04-25T10:29:25.228Z</time></trkpt><trkpt lat="45.7906783" lon="10.09325"><ele>184.0</ele><time>2026-04-25T10:29:26.228Z</time></trkpt><trkpt lat="45.790625" lon="10.0930683"><ele>184.0</ele><time>2026-04-25T10:29:27.229Z</time></trkpt><trkpt lat="45.7905717" lon="10.0928833"><ele>184.0</ele><time>2026-04-25T10:29:28.229Z</time></trkpt><trkpt lat="45.79051" lon="10.0926967"><ele>184.0</ele><time>2026-04-25T10:29:29.228Z</time></trkpt><trkpt lat="45.790435" lon="10.0925117"><ele>184.0</ele><time>2026-04-25T10:29:30.228Z</time></trkpt><trkpt lat="45.7903483" lon="10.0923317"><ele>183.5</ele><time>2026-04-25T10:29:31.228Z</time></trkpt><trkpt lat="45.790255" lon="10.0921617"><ele>183.0</ele><time>2026-04-25T10:29:32.228Z</time></trkpt><trkpt lat="45.7901583" lon="10.0920017"><ele>182.5</ele><time>2026-04-25T10:29:33.229Z</time></trkpt><trkpt lat="45.7900633" lon="10.0918533"><ele>182.0</ele><time>2026-04-25T10:29:34.229Z</time></trkpt><trkpt lat="45.78997" lon="10.091715"><ele>182.25</ele><time>2026-04-25T10:29:35.228Z</time></trkpt><trkpt lat="45.7898867" lon="10.0915867"><ele>182.5</ele><time>2026-04-25T10:29:36.229Z</time></trkpt><trkpt lat="45.789805" lon="10.09147"><ele>182.75</ele><time>2026-04-25T10:29:37.228Z</time></trkpt><trkpt lat="45.789725" lon="10.0913633"><ele>183.0</ele><time>2026-04-25T10:29:38.229Z</time></trkpt><trkpt lat="45.789645" lon="10.0912633"><ele>183.0</ele><time>2026-04-25T10:29:39.229Z</time></trkpt><trkpt lat="45.7895633" lon="10.0911667"><ele>183.0</ele><time>2026-04-25T10:29:40.228Z</time></trkpt><trkpt lat="45.78948" lon="10.091075"><ele>183.0</ele><time>2026-04-25T10:29:41.23Z</time></trkpt><trkpt lat="45.789395" lon="10.0909833"><ele>183.0</ele><time>2026-04-25T10:29:42.231Z</time></trkpt><trkpt lat="45.78931" lon="10.0908983"><ele>183.0</ele><time>2026-04-25T10:29:43.23Z</time></trkpt><trkpt lat="45.7892283" lon="10.0908167"><ele>182.83333333333334</ele><time>2026-04-25T10:29:44.23Z</time></trkpt><trkpt lat="45.78915" lon="10.09074"><ele>182.66666666666666</ele><time>2026-04-25T10:29:45.228Z</time></trkpt><trkpt lat="45.789075" lon="10.09067"><ele>182.5</ele><time>2026-04-25T10:29:46.229Z</time></trkpt><trkpt lat="45.7890033" lon="10.090605"><ele>182.33333333333331</ele><time>2026-04-25T10:29:47.23Z</time></trkpt><trkpt lat="45.78893" lon="10.0905433"><ele>182.16666666666666</ele><time>2026-04-25T10:29:48.228Z</time></trkpt><trkpt lat="45.78886" lon="10.0904817"><ele>182.0</ele><time>2026-04-25T10:29:49.229Z</time></trkpt><trkpt lat="45.7887933" lon="10.0904217"><ele>182.0</ele><time>2026-04-25T10:29:50.229Z</time></trkpt><trkpt lat="45.7887283" lon="10.090365"><ele>182.0</ele><time>2026-04-25T10:29:51.229Z</time></trkpt><trkpt lat="45.7886717" lon="10.090315"><ele>182.0</ele><time>2026-04-25T10:29:52.228Z</time></trkpt><trkpt lat="45.7885817" lon="10.0902383"><ele>182.0</ele><time>2026-04-25T10:29:54.228Z</time></trkpt><trkpt lat="45.7884967" lon="10.090165"><ele>182.0</ele><time>2026-04-25T10:29:56.229Z</time></trkpt><trkpt lat="45.7884133" lon="10.090075"><ele>182.83333333333331</ele><time>2026-04-25T10:29:58.228Z</time></trkpt><trkpt lat="45.7883667" lon="10.09001"><ele>183.66666666666666</ele><time>2026-04-25T10:29:59.229Z</time></trkpt><trkpt lat="45.7883183" lon="10.08992"><ele>184.5</ele><time>2026-04-25T10:30:00.23Z</time></trkpt><trkpt lat="45.78827" lon="10.089805"><ele>185.33333333333334</ele><time>2026-04-25T10:30:01.229Z</time></trkpt><trkpt lat="45.7882317" lon="10.0896733"><ele>186.16666666666669</ele><time>2026-04-25T10:30:02.231Z</time></trkpt><trkpt lat="45.788205" lon="10.0895233"><ele>187.0</ele><time>2026-04-25T10:30:03.228Z</time></trkpt><trkpt lat="45.7881833" lon="10.0893667"><ele>187.0</ele><time>2026-04-25T10:30:04.229Z</time></trkpt><trkpt lat="45.78816" lon="10.0892117"><ele>187.0</ele><time>2026-04-25T10:30:05.229Z</time></trkpt><trkpt lat="45.7881383" lon="10.0890583"><ele>187.0</ele><time>2026-04-25T10:30:06.228Z</time></trkpt><trkpt lat="45.788115" lon="10.088915"><ele>187.0</ele><time>2026-04-25T10:30:07.232Z</time></trkpt><trkpt lat="45.7880833" lon="10.0887833"><ele>187.0</ele><time>2026-04-25T10:30:08.228Z</time></trkpt><trkpt lat="45.7880517" lon="10.0886633"><ele>186.5</ele><time>2026-04-25T10:30:09.229Z</time></trkpt><trkpt lat="45.7880167" lon="10.0885533"><ele>186.0</ele><time>2026-04-25T10:30:10.229Z</time></trkpt><trkpt lat="45.7879817" lon="10.0884517"><ele>185.5</ele><time>2026-04-25T10:30:11.228Z</time></trkpt><trkpt lat="45.787945" lon="10.0883567"><ele>185.0</ele><time>2026-04-25T10:30:12.23Z</time></trkpt><trkpt lat="45.7879033" lon="10.0882633"><ele>184.5</ele><time>2026-04-25T10:30:13.228Z</time></trkpt><trkpt lat="45.78786" lon="10.088165"><ele>184.0</ele><time>2026-04-25T10:30:14.228Z</time></trkpt><trkpt lat="45.787815" lon="10.0880617"><ele>183.6</ele><time>2026-04-25T10:30:15.229Z</time></trkpt><trkpt lat="45.7877683" lon="10.0879517"><ele>183.2</ele><time>2026-04-25T10:30:16.229Z</time></trkpt><trkpt lat="45.78772" lon="10.0878367"><ele>182.79999999999998</ele><time>2026-04-25T10:30:17.23Z</time></trkpt><trkpt lat="45.7876683" lon="10.0877217"><ele>182.39999999999998</ele><time>2026-04-25T10:30:18.228Z</time></trkpt><trkpt lat="45.787615" lon="10.087605"><ele>182.0</ele><time>2026-04-25T10:30:19.229Z</time></trkpt><trkpt lat="45.7875567" lon="10.0874917"><ele>182.2</ele><time>2026-04-25T10:30:20.228Z</time></trkpt><trkpt lat="45.7874933" lon="10.08738"><ele>182.39999999999998</ele><time>2026-04-25T10:30:21.23Z</time></trkpt><trkpt lat="45.78743" lon="10.087275"><ele>182.60000000000002</ele><time>2026-04-25T10:30:22.228Z</time></trkpt><trkpt lat="45.7873683" lon="10.08718"><ele>182.8</ele><time>2026-04-25T10:30:23.228Z</time></trkpt><trkpt lat="45.78731" lon="10.0870883"><ele>183.0</ele><time>2026-04-25T10:30:24.228Z</time></trkpt><trkpt lat="45.7872533" lon="10.087005"><ele>183.0</ele><time>2026-04-25T10:30:25.229Z</time></trkpt><trkpt lat="45.7871983" lon="10.0869217"><ele>183.0</ele><time>2026-04-25T10:30:26.229Z</time></trkpt><trkpt lat="45.78714" lon="10.0868383"><ele>183.0</ele><time>2026-04-25T10:30:27.229Z</time></trkpt><trkpt lat="45.787075" lon="10.086755"><ele>183.0</ele><time>2026-04-25T10:30:28.228Z</time></trkpt><trkpt lat="45.7870083" lon="10.0866667"><ele>183.0</ele><time>2026-04-25T10:30:29.228Z</time></trkpt><trkpt lat="45.7869367" lon="10.0865783"><ele>183.0</ele><time>2026-04-25T10:30:30.228Z</time></trkpt><trkpt lat="45.7868583" lon="10.08649"><ele>183.0</ele><time>2026-04-25T10:30:31.239Z</time></trkpt><trkpt lat="45.78678" lon="10.0864"><ele>183.0</ele><time>2026-04-25T10:30:32.228Z</time></trkpt><trkpt lat="45.7866967" lon="10.0863083"><ele>183.0</ele><time>2026-04-25T10:30:33.229Z</time></trkpt><trkpt lat="45.7866133" lon="10.0862167"><ele>183.0</ele><time>2026-04-25T10:30:34.228Z</time></trkpt><trkpt lat="45.78653" lon="10.0861267"><ele>183.0</ele><time>2026-04-25T10:30:35.228Z</time></trkpt><trkpt lat="45.786445" lon="10.0860467"><ele>183.0</ele><time>2026-04-25T10:30:36.229Z</time></trkpt><trkpt lat="45.78636" lon="10.0859667"><ele>183.0</ele><time>2026-04-25T10:30:37.229Z</time></trkpt><trkpt lat="45.7862783" lon="10.0858817"><ele>183.0</ele><time>2026-04-25T10:30:38.228Z</time></trkpt><trkpt lat="45.7862067" lon="10.0857883"><ele>183.0</ele><time>2026-04-25T10:30:39.228Z</time></trkpt><trkpt lat="45.7861383" lon="10.0856867"><ele>183.0</ele><time>2026-04-25T10:30:40.227Z</time></trkpt><trkpt lat="45.7860717" lon="10.0855783"><ele>184.2</ele><time>2026-04-25T10:30:41.227Z</time></trkpt><trkpt lat="45.7860083" lon="10.0854617"><ele>185.4</ele><time>2026-04-25T10:30:42.228Z</time></trkpt><trkpt lat="45.7859567" lon="10.0853467"><ele>186.6</ele><time>2026-04-25T10:30:43.228Z</time></trkpt><trkpt lat="45.78591" lon="10.08523"><ele>187.79999999999998</ele><time>2026-04-25T10:30:44.227Z</time></trkpt><trkpt lat="45.7858633" lon="10.0851133"><ele>189.0</ele><time>2026-04-25T10:30:45.228Z</time></trkpt><trkpt lat="45.78582" lon="10.0849983"><ele>187.79999999999998</ele><time>2026-04-25T10:30:46.228Z</time></trkpt><trkpt lat="45.7857767" lon="10.084885"><ele>186.6</ele><time>2026-04-25T10:30:47.229Z</time></trkpt><trkpt lat="45.7857267" lon="10.0847683"><ele>185.4</ele><time>2026-04-25T10:30:48.227Z</time></trkpt><trkpt lat="45.78567" lon="10.08465"><ele>184.2</ele><time>2026-04-25T10:30:49.23Z</time></trkpt><trkpt lat="45.7856083" lon="10.08453"><ele>183.0</ele><time>2026-04-25T10:30:50.229Z</time></trkpt><trkpt lat="45.78554" lon="10.0844017"><ele>183.0</ele><time>2026-04-25T10:30:51.228Z</time></trkpt><trkpt lat="45.7854717" lon="10.084265"><ele>183.0</ele><time>2026-04-25T10:30:52.23Z</time></trkpt><trkpt lat="45.785405" lon="10.0841217"><ele>183.0</ele><time>2026-04-25T10:30:53.228Z</time></trkpt><trkpt lat="45.7853367" lon="10.083965"><ele>183.0</ele><time>2026-04-25T10:30:54.228Z</time></trkpt><trkpt lat="45.7852733" lon="10.0838033"><ele>182.75</ele><time>2026-04-25T10:30:55.228Z</time></trkpt><trkpt lat="45.78522" lon="10.0836367"><ele>182.5</ele><time>2026-04-25T10:30:56.227Z</time></trkpt><trkpt lat="45.7851733" lon="10.0834633"><ele>182.25</ele><time>2026-04-25T10:30:57.228Z</time></trkpt><trkpt lat="45.7851333" lon="10.08329"><ele>182.0</ele><time>2026-04-25T10:30:58.229Z</time></trkpt><trkpt lat="45.7850933" lon="10.0831133"><ele>182.75</ele><time>2026-04-25T10:30:59.227Z</time></trkpt><trkpt lat="45.7850517" lon="10.0829283"><ele>183.5</ele><time>2026-04-25T10:31:00.228Z</time></trkpt><trkpt lat="45.785005" lon="10.08274"><ele>184.25</ele><time>2026-04-25T10:31:01.228Z</time></trkpt><trkpt lat="45.7849567" lon="10.082555"><ele>185.0</ele><time>2026-04-25T10:31:02.227Z</time></trkpt><trkpt lat="45.7848917" lon="10.0823683"><ele>185.0</ele><time>2026-04-25T10:31:03.228Z</time></trkpt><trkpt lat="45.7848217" lon="10.0821833"><ele>185.0</ele><time>2026-04-25T10:31:04.228Z</time></trkpt><trkpt lat="45.784745" lon="10.0820017"><ele>185.0</ele><time>2026-04-25T10:31:05.228Z</time></trkpt><trkpt lat="45.7846533" lon="10.0818267"><ele>185.0</ele><time>2026-04-25T10:31:06.227Z</time></trkpt><trkpt lat="45.7845583" lon="10.08166"><ele>184.25</ele><time>2026-04-25T10:31:07.227Z</time></trkpt><trkpt lat="45.7844633" lon="10.0815033"><ele>183.5</ele><time>2026-04-25T10:31:08.228Z</time></trkpt><trkpt lat="45.784365" lon="10.0813467"><ele>182.75</ele><time>2026-04-25T10:31:09.23Z</time></trkpt><trkpt lat="45.7842717" lon="10.0811883"><ele>182.0</ele><time>2026-04-25T10:31:10.227Z</time></trkpt><trkpt lat="45.7841783" lon="10.081025"><ele>183.33333333333331</ele><time>2026-04-25T10:31:11.228Z</time></trkpt><trkpt lat="45.784085" lon="10.0808517"><ele>184.66666666666666</ele><time>2026-04-25T10:31:12.227Z</time></trkpt><trkpt lat="45.7839967" lon="10.080675"><ele>186.0</ele><time>2026-04-25T10:31:13.227Z</time></trkpt><trkpt lat="45.7839183" lon="10.0804883"><ele>186.0</ele><time>2026-04-25T10:31:14.228Z</time></trkpt><trkpt lat="45.7838517" lon="10.08029"><ele>186.0</ele><time>2026-04-25T10:31:15.228Z</time></trkpt><trkpt lat="45.7837917" lon="10.0800833"><ele>186.0</ele><time>2026-04-25T10:31:16.227Z</time></trkpt><trkpt lat="45.7837417" lon="10.07987"><ele>189.0</ele><time>2026-04-25T10:31:17.229Z</time></trkpt><trkpt lat="45.7837133" lon="10.079655"><ele>192.0</ele><time>2026-04-25T10:31:18.228Z</time></trkpt><trkpt lat="45.78369" lon="10.0794333"><ele>195.0</ele><time>2026-04-25T10:31:19.228Z</time></trkpt><trkpt lat="45.7836683" lon="10.0792183"><ele>198.5</ele><time>2026-04-25T10:31:20.227Z</time></trkpt><trkpt lat="45.7836633" lon="10.0790083"><ele>202.0</ele><time>2026-04-25T10:31:21.229Z</time></trkpt><trkpt lat="45.7836483" lon="10.078805"><ele>205.5</ele><time>2026-04-25T10:31:22.227Z</time></trkpt><trkpt lat="45.7836317" lon="10.07862"><ele>209.0</ele><time>2026-04-25T10:31:23.229Z</time></trkpt><trkpt lat="45.7836133" lon="10.07844"><ele>209.0</ele><time>2026-04-25T10:31:24.228Z</time></trkpt><trkpt lat="45.783595" lon="10.07827"><ele>209.0</ele><time>2026-04-25T10:31:25.228Z</time></trkpt><trkpt lat="45.78356" lon="10.0781"><ele>209.0</ele><time>2026-04-25T10:31:26.228Z</time></trkpt><trkpt lat="45.7835333" lon="10.0779367"><ele>209.0</ele><time>2026-04-25T10:31:27.23Z</time></trkpt><trkpt lat="45.78351" lon="10.0777733"><ele>237.5</ele><time>2026-04-25T10:31:28.228Z</time></trkpt><trkpt lat="45.783485" lon="10.0776017"><ele>266.0</ele><time>2026-04-25T10:31:29.228Z</time></trkpt><trkpt lat="45.7834567" lon="10.077425"><ele>294.5</ele><time>2026-04-25T10:31:30.227Z</time></trkpt><trkpt lat="45.7834283" lon="10.0772483"><ele>323.0</ele><time>2026-04-25T10:31:31.227Z</time></trkpt><trkpt lat="45.7834017" lon="10.0770717"><ele>318.5</ele><time>2026-04-25T10:31:32.227Z</time></trkpt><trkpt lat="45.7833733" lon="10.076895"><ele>314.0</ele><time>2026-04-25T10:31:33.227Z</time></trkpt><trkpt lat="45.7751233" lon="10.071015"><ele>314.0</ele><time>2026-04-25T10:32:34.228Z</time></trkpt><trkpt lat="45.775025" lon="10.0708967"><ele>314.0</ele><time>2026-04-25T10:32:35.229Z</time></trkpt><trkpt lat="45.77491" lon="10.070775"><ele>314.0</ele><time>2026-04-25T10:32:36.227Z</time></trkpt><trkpt lat="45.7747017" lon="10.0706817"><ele>306.33333333333337</ele><time>2026-04-25T10:32:37.227Z</time></trkpt><trkpt lat="45.7745383" lon="10.070585"><ele>298.6666666666667</ele><time>2026-04-25T10:32:38.228Z</time></trkpt><trkpt lat="45.7743917" lon="10.0704817"><ele>291.0</ele><time>2026-04-25T10:32:39.229Z</time></trkpt><trkpt lat="45.7713083" lon="10.0685617"><ele>279.5</ele><time>2026-04-25T10:33:05.229Z</time></trkpt><trkpt lat="45.77121" lon="10.068595"><ele>268.0</ele><time>2026-04-25T10:33:06.228Z</time></trkpt><trkpt lat="45.771085" lon="10.0685917"><ele>256.5</ele><time>2026-04-25T10:33:07.229Z</time></trkpt><trkpt lat="45.7709567" lon="10.0685867"><ele>245.0</ele><time>2026-04-25T10:33:08.229Z</time></trkpt><trkpt lat="45.7708267" lon="10.0685867"><ele>243.25</ele><time>2026-04-25T10:33:09.228Z</time></trkpt><trkpt lat="45.7706967" lon="10.0685967"><ele>241.5</ele><time>2026-04-25T10:33:10.228Z</time></trkpt><trkpt lat="45.7705633" lon="10.0686117"><ele>239.75</ele><time>2026-04-25T10:33:11.228Z</time></trkpt><trkpt lat="45.7704317" lon="10.068635"><ele>238.0</ele><time>2026-04-25T10:33:12.229Z</time></trkpt><trkpt lat="45.7703017" lon="10.0686683"><ele>237.5</ele><time>2026-04-25T10:33:13.227Z</time></trkpt><trkpt lat="45.7701683" lon="10.0687067"><ele>237.0</ele><time>2026-04-25T10:33:14.227Z</time></trkpt><trkpt lat="45.7700367" lon="10.06875"><ele>236.5</ele><time>2026-04-25T10:33:15.229Z</time></trkpt><trkpt lat="45.769905" lon="10.0688"><ele>236.0</ele><time>2026-04-25T10:33:16.227Z</time></trkpt><trkpt lat="45.7697717" lon="10.0688467"><ele>236.0</ele><time>2026-04-25T10:33:17.227Z</time></trkpt><trkpt lat="45.7696383" lon="10.0688933"><ele>236.0</ele><time>2026-04-25T10:33:18.228Z</time></trkpt><trkpt lat="45.769505" lon="10.06894"><ele>236.0</ele><time>2026-04-25T10:33:19.227Z</time></trkpt><trkpt lat="45.769375" lon="10.069"><ele>236.0</ele><time>2026-04-25T10:33:20.227Z</time></trkpt><trkpt lat="45.7692467" lon="10.069075"><ele>241.33333333333334</ele><time>2026-04-25T10:33:21.228Z</time></trkpt><trkpt lat="45.769115" lon="10.069165"><ele>246.66666666666669</ele><time>2026-04-25T10:33:22.227Z</time></trkpt><trkpt lat="45.7689817" lon="10.0692683"><ele>252.0</ele><time>2026-04-25T10:33:23.228Z</time></trkpt><trkpt lat="45.7688483" lon="10.0693933"><ele>252.0</ele><time>2026-04-25T10:33:24.229Z</time></trkpt><trkpt lat="45.7687183" lon="10.06954"><ele>252.0</ele><time>2026-04-25T10:33:25.229Z</time></trkpt><trkpt lat="45.7685933" lon="10.0697"><ele>252.0</ele><time>2026-04-25T10:33:26.227Z</time></trkpt><trkpt lat="45.7684783" lon="10.0698667"><ele>250.0</ele><time>2026-04-25T10:33:27.228Z</time></trkpt><trkpt lat="45.7683683" lon="10.070035"><ele>248.0</ele><time>2026-04-25T10:33:28.228Z</time></trkpt><trkpt lat="45.7682717" lon="10.0701933"><ele>246.0</ele><time>2026-04-25T10:33:29.228Z</time></trkpt><trkpt lat="45.7681767" lon="10.0703583"><ele>246.0</ele><time>2026-04-25T10:33:30.228Z</time></trkpt><trkpt lat="45.7680817" lon="10.0705383"><ele>246.0</ele><time>2026-04-25T10:33:31.229Z</time></trkpt><trkpt lat="45.7679733" lon="10.0707033"><ele>246.0</ele><time>2026-04-25T10:33:32.229Z</time></trkpt><trkpt lat="45.7678567" lon="10.0708717"><ele>244.0</ele><time>2026-04-25T10:33:33.228Z</time></trkpt><trkpt lat="45.7677467" lon="10.07104"><ele>242.0</ele><time>2026-04-25T10:33:34.228Z</time></trkpt><trkpt lat="45.7676383" lon="10.07121"><ele>240.0</ele><time>2026-04-25T10:33:35.228Z</time></trkpt><trkpt lat="45.7629667" lon="10.0742433"><ele>240.0</ele><time>2026-04-25T10:34:02.23Z</time></trkpt><trkpt lat="45.762795" lon="10.0743283"><ele>240.0</ele><time>2026-04-25T10:34:03.231Z</time></trkpt><trkpt lat="45.7626217" lon="10.0743983"><ele>240.0</ele><time>2026-04-25T10:34:04.23Z</time></trkpt><trkpt lat="45.7624517" lon="10.0744683"><ele>230.33333333333331</ele><time>2026-04-25T10:34:05.23Z</time></trkpt><trkpt lat="45.7622833" lon="10.074545"><ele>220.66666666666666</ele><time>2026-04-25T10:34:06.231Z</time></trkpt><trkpt lat="45.762115" lon="10.0746267"><ele>211.0</ele><time>2026-04-25T10:34:07.23Z</time></trkpt><trkpt lat="45.76195" lon="10.0747033"><ele>206.0</ele><time>2026-04-25T10:34:08.23Z</time></trkpt><trkpt lat="45.7617917" lon="10.07477"><ele>201.0</ele><time>2026-04-25T10:34:09.227Z</time></trkpt><trkpt lat="45.7616367" lon="10.0748267"><ele>196.0</ele><time>2026-04-25T10:34:10.227Z</time></trkpt><trkpt lat="45.7614783" lon="10.074885"><ele>205.33333333333331</ele><time>2026-04-25T10:34:11.229Z</time></trkpt><trkpt lat="45.76132" lon="10.0749517"><ele>214.66666666666669</ele><time>2026-04-25T10:34:12.231Z</time></trkpt><trkpt lat="45.7611633" lon="10.075015"><ele>224.0</ele><time>2026-04-25T10:34:13.23Z</time></trkpt><trkpt lat="45.7610067" lon="10.0750767"><ele>252.0</ele><time>2026-04-25T10:34:14.231Z</time></trkpt><trkpt lat="45.7585617" lon="10.0776283"><ele>241.5</ele><time>2026-04-25T10:34:33.231Z</time></trkpt><trkpt lat="45.7584533" lon="10.0777683"><ele>231.0</ele><time>2026-04-25T10:34:34.231Z</time></trkpt><trkpt lat="45.7583383" lon="10.0778967"><ele>220.5</ele><time>2026-04-25T10:34:35.229Z</time></trkpt><trkpt lat="45.7582233" lon="10.078015"><ele>210.0</ele><time>2026-04-25T10:34:36.229Z</time></trkpt><trkpt lat="45.758095" lon="10.0781267"><ele>210.0</ele><time>2026-04-25T10:34:37.229Z</time></trkpt><trkpt lat="45.75797" lon="10.07824"><ele>210.0</ele><time>2026-04-25T10:34:38.231Z</time></trkpt><trkpt lat="45.75784" lon="10.0783517"><ele>210.0</ele><time>2026-04-25T10:34:39.23Z</time></trkpt><trkpt lat="45.7577133" lon="10.0784633"><ele>210.0</ele><time>2026-04-25T10:34:40.229Z</time></trkpt><trkpt lat="45.75759" lon="10.0785683"><ele>206.75</ele><time>2026-04-25T10:34:41.23Z</time></trkpt><trkpt lat="45.7574667" lon="10.0786767"><ele>203.5</ele><time>2026-04-25T10:34:42.23Z</time></trkpt><trkpt lat="45.757345" lon="10.078785"><ele>200.25</ele><time>2026-04-25T10:34:43.23Z</time></trkpt><trkpt lat="45.7572183" lon="10.078895"><ele>197.0</ele><time>2026-04-25T10:34:44.23Z</time></trkpt><trkpt lat="45.75709" lon="10.0790083"><ele>198.0</ele><time>2026-04-25T10:34:45.23Z</time></trkpt><trkpt lat="45.7569617" lon="10.07912"><ele>199.0</ele><time>2026-04-25T10:34:46.23Z</time></trkpt><trkpt lat="45.75684" lon="10.079225"><ele>200.0</ele><time>2026-04-25T10:34:47.231Z</time></trkpt><trkpt lat="45.7567267" lon="10.0793267"><ele>201.0</ele><time>2026-04-25T10:34:48.23Z</time></trkpt><trkpt lat="45.7566183" lon="10.0794217"><ele>201.0</ele><time>2026-04-25T10:34:49.23Z</time></trkpt><trkpt lat="45.7565117" lon="10.0795117"><ele>201.0</ele><time>2026-04-25T10:34:50.23Z</time></trkpt><trkpt lat="45.7564083" lon="10.0796"><ele>201.0</ele><time>2026-04-25T10:34:51.231Z</time></trkpt><trkpt lat="45.7563017" lon="10.0796917"><ele>201.0</ele><time>2026-04-25T10:34:52.23Z</time></trkpt><trkpt lat="45.756195" lon="10.07979"><ele>201.0</ele><time>2026-04-25T10:34:53.23Z</time></trkpt><trkpt lat="45.7560867" lon="10.0798867"><ele>201.0</ele><time>2026-04-25T10:34:54.23Z</time></trkpt><trkpt lat="45.7559817" lon="10.0799783"><ele>201.0</ele><time>2026-04-25T10:34:55.229Z</time></trkpt><trkpt lat="45.7558783" lon="10.08007"><ele>201.0</ele><time>2026-04-25T10:34:56.229Z</time></trkpt><trkpt lat="45.7557783" lon="10.08016"><ele>202.5</ele><time>2026-04-25T10:34:57.231Z</time></trkpt><trkpt lat="45.7556783" lon="10.0802483"><ele>204.0</ele><time>2026-04-25T10:34:58.229Z</time></trkpt><trkpt lat="45.7555817" lon="10.080345"><ele>205.5</ele><time>2026-04-25T10:34:59.229Z</time></trkpt><trkpt lat="45.7554867" lon="10.0804517"><ele>207.0</ele><time>2026-04-25T10:35:00.229Z</time></trkpt><trkpt lat="45.7553933" lon="10.080565"><ele>207.0</ele><time>2026-04-25T10:35:01.231Z</time></trkpt><trkpt lat="45.7553017" lon="10.0806833"><ele>207.0</ele><time>2026-04-25T10:35:02.23Z</time></trkpt><trkpt lat="45.7552133" lon="10.0808033"><ele>207.0</ele><time>2026-04-25T10:35:03.23Z</time></trkpt><trkpt lat="45.7551317" lon="10.0809267"><ele>207.0</ele><time>2026-04-25T10:35:04.228Z</time></trkpt><trkpt lat="45.7550517" lon="10.081055"><ele>206.0</ele><time>2026-04-25T10:35:05.229Z</time></trkpt><trkpt lat="45.754975" lon="10.08119"><ele>205.0</ele><time>2026-04-25T10:35:06.228Z</time></trkpt><trkpt lat="45.754905" lon="10.0813233"><ele>204.0</ele><time>2026-04-25T10:35:07.231Z</time></trkpt><trkpt lat="45.7548383" lon="10.0814533"><ele>203.0</ele><time>2026-04-25T10:35:08.229Z</time></trkpt><trkpt lat="45.7547767" lon="10.0815817"><ele>206.4</ele><time>2026-04-25T10:35:09.229Z</time></trkpt><trkpt lat="45.7547183" lon="10.0817067"><ele>209.8</ele><time>2026-04-25T10:35:10.228Z</time></trkpt><trkpt lat="45.7546617" lon="10.0818283"><ele>213.2</ele><time>2026-04-25T10:35:11.229Z</time></trkpt><trkpt lat="45.7546067" lon="10.0819467"><ele>216.6</ele><time>2026-04-25T10:35:12.228Z</time></trkpt><trkpt lat="45.7545517" lon="10.08206"><ele>220.0</ele><time>2026-04-25T10:35:13.227Z</time></trkpt><trkpt lat="45.754495" lon="10.0821717"><ele>220.0</ele><time>2026-04-25T10:35:14.228Z</time></trkpt><trkpt lat="45.7544333" lon="10.0822783"><ele>220.0</ele><time>2026-04-25T10:35:15.228Z</time></trkpt><trkpt lat="45.7543667" lon="10.0823833"><ele>220.0</ele><time>2026-04-25T10:35:16.23Z</time></trkpt><trkpt lat="45.7542917" lon="10.0824933"><ele>220.0</ele><time>2026-04-25T10:35:17.228Z</time></trkpt><trkpt lat="45.7542117" lon="10.082605"><ele>220.0</ele><time>2026-04-25T10:35:18.229Z</time></trkpt><trkpt lat="45.7541283" lon="10.0827167"><ele>216.75</ele><time>2026-04-25T10:35:19.23Z</time></trkpt><trkpt lat="45.7540433" lon="10.0828233"><ele>213.5</ele><time>2026-04-25T10:35:20.23Z</time></trkpt><trkpt lat="45.7539533" lon="10.082925"><ele>210.25</ele><time>2026-04-25T10:35:21.23Z</time></trkpt><trkpt lat="45.75386" lon="10.08302"><ele>207.0</ele><time>2026-04-25T10:35:22.233Z</time></trkpt><trkpt lat="45.7537667" lon="10.0831183"><ele>207.0</ele><time>2026-04-25T10:35:23.23Z</time></trkpt><trkpt lat="45.7536717" lon="10.08322"><ele>207.0</ele><time>2026-04-25T10:35:24.23Z</time></trkpt><trkpt lat="45.7535733" lon="10.08333"><ele>207.0</ele><time>2026-04-25T10:35:25.229Z</time></trkpt><trkpt lat="45.7534717" lon="10.0834417"><ele>207.0</ele><time>2026-04-25T10:35:26.23Z</time></trkpt><trkpt lat="45.7533633" lon="10.083555"><ele>207.5</ele><time>2026-04-25T10:35:27.231Z</time></trkpt><trkpt lat="45.7532517" lon="10.083675"><ele>208.0</ele><time>2026-04-25T10:35:28.229Z</time></trkpt><trkpt lat="45.7531383" lon="10.0837967"><ele>208.5</ele><time>2026-04-25T10:35:29.229Z</time></trkpt><trkpt lat="45.7530217" lon="10.0839333"><ele>209.0</ele><time>2026-04-25T10:35:30.23Z</time></trkpt><trkpt lat="45.7528217" lon="10.084005"><ele>206.66666666666669</ele><time>2026-04-25T10:35:31.229Z</time></trkpt><trkpt lat="45.7526717" lon="10.0841367"><ele>204.33333333333331</ele><time>2026-04-25T10:35:32.231Z</time></trkpt><trkpt lat="45.7525017" lon="10.08425"><ele>202.0</ele><time>2026-04-25T10:35:33.231Z</time></trkpt><trkpt lat="45.7523383" lon="10.084355"><ele>202.0</ele><time>2026-04-25T10:35:34.228Z</time></trkpt><trkpt lat="45.7521867" lon="10.0844583"><ele>202.0</ele><time>2026-04-25T10:35:35.229Z</time></trkpt><trkpt lat="45.75204" lon="10.0845583"><ele>202.0</ele><time>2026-04-25T10:35:36.228Z</time></trkpt><trkpt lat="45.7518967" lon="10.0846567"><ele>199.66666666666666</ele><time>2026-04-25T10:35:37.228Z</time></trkpt><trkpt lat="45.751755" lon="10.084755"><ele>197.33333333333331</ele><time>2026-04-25T10:35:38.228Z</time></trkpt><trkpt lat="45.7516133" lon="10.0848517"><ele>195.0</ele><time>2026-04-25T10:35:39.229Z</time></trkpt><trkpt lat="45.75148" lon="10.0849517"><ele>195.0</ele><time>2026-04-25T10:35:40.229Z</time></trkpt><trkpt lat="45.751355" lon="10.0850533"><ele>195.0</ele><time>2026-04-25T10:35:41.228Z</time></trkpt><trkpt lat="45.7512383" lon="10.085155"><ele>195.0</ele><time>2026-04-25T10:35:42.229Z</time></trkpt><trkpt lat="45.7511283" lon="10.085255"><ele>195.0</ele><time>2026-04-25T10:35:43.23Z</time></trkpt><trkpt lat="45.751025" lon="10.0853567"><ele>192.75</ele><time>2026-04-25T10:35:44.228Z</time></trkpt><trkpt lat="45.7509267" lon="10.085455"><ele>190.5</ele><time>2026-04-25T10:35:45.229Z</time></trkpt><trkpt lat="45.7508317" lon="10.0855533"><ele>188.25</ele><time>2026-04-25T10:35:46.228Z</time></trkpt><trkpt lat="45.7507383" lon="10.08565"><ele>186.0</ele><time>2026-04-25T10:35:47.23Z</time></trkpt><trkpt lat="45.750645" lon="10.0857417"><ele>189.0</ele><time>2026-04-25T10:35:48.228Z</time></trkpt><trkpt lat="45.7505533" lon="10.0858333"><ele>192.0</ele><time>2026-04-25T10:35:49.229Z</time></trkpt><trkpt lat="45.7504667" lon="10.0859217"><ele>195.0</ele><time>2026-04-25T10:35:50.228Z</time></trkpt><trkpt lat="45.75038" lon="10.08601"><ele>198.0</ele><time>2026-04-25T10:35:51.229Z</time></trkpt><trkpt lat="45.750295" lon="10.0860983"><ele>201.0</ele><time>2026-04-25T10:35:52.229Z</time></trkpt><trkpt lat="45.7502183" lon="10.08618"><ele>200.16666666666666</ele><time>2026-04-25T10:35:53.228Z</time></trkpt><trkpt lat="45.75015" lon="10.0862533"><ele>199.33333333333331</ele><time>2026-04-25T10:35:54.229Z</time></trkpt><trkpt lat="45.750085" lon="10.086325"><ele>198.5</ele><time>2026-04-25T10:35:55.228Z</time></trkpt><trkpt lat="45.7500233" lon="10.0864"><ele>197.66666666666666</ele><time>2026-04-25T10:35:56.229Z</time></trkpt><trkpt lat="45.7499633" lon="10.0864783"><ele>196.83333333333331</ele><time>2026-04-25T10:35:57.23Z</time></trkpt><trkpt lat="45.7498933" lon="10.0865533"><ele>196.0</ele><time>2026-04-25T10:35:58.228Z</time></trkpt><trkpt lat="45.7498117" lon="10.0866317"><ele>196.0</ele><time>2026-04-25T10:35:59.228Z</time></trkpt><trkpt lat="45.7497233" lon="10.0867217"><ele>196.0</ele><time>2026-04-25T10:36:00.229Z</time></trkpt><trkpt lat="45.7496283" lon="10.08682"><ele>196.0</ele><time>2026-04-25T10:36:01.229Z</time></trkpt><trkpt lat="45.749525" lon="10.086925"><ele>196.0</ele><time>2026-04-25T10:36:02.228Z</time></trkpt><trkpt lat="45.749415" lon="10.08703"><ele>194.75</ele><time>2026-04-25T10:36:03.23Z</time></trkpt><trkpt lat="45.7493" lon="10.0871417"><ele>193.5</ele><time>2026-04-25T10:36:04.228Z</time></trkpt><trkpt lat="45.7491783" lon="10.0872583"><ele>192.25</ele><time>2026-04-25T10:36:05.229Z</time></trkpt><trkpt lat="45.7490533" lon="10.0873733"><ele>191.0</ele><time>2026-04-25T10:36:06.227Z</time></trkpt><trkpt lat="45.7489233" lon="10.0874933"><ele>191.0</ele><time>2026-04-25T10:36:07.227Z</time></trkpt><trkpt lat="45.7487917" lon="10.0876117"><ele>191.0</ele><time>2026-04-25T10:36:08.228Z</time></trkpt><trkpt lat="45.748665" lon="10.08773"><ele>191.0</ele><time>2026-04-25T10:36:09.227Z</time></trkpt><trkpt lat="45.7485383" lon="10.087845"><ele>192.25</ele><time>2026-04-25T10:36:10.227Z</time></trkpt><trkpt lat="45.7484133" lon="10.0879567"><ele>193.5</ele><time>2026-04-25T10:36:11.227Z</time></trkpt><trkpt lat="45.7482917" lon="10.0880667"><ele>194.75</ele><time>2026-04-25T10:36:12.227Z</time></trkpt><trkpt lat="45.7481633" lon="10.0881667"><ele>196.0</ele><time>2026-04-25T10:36:13.227Z</time></trkpt><trkpt lat="45.7480283" lon="10.088265"><ele>196.0</ele><time>2026-04-25T10:36:14.227Z</time></trkpt><trkpt lat="45.7478833" lon="10.0883533"><ele>196.0</ele><time>2026-04-25T10:36:15.227Z</time></trkpt><trkpt lat="45.7477383" lon="10.0884267"><ele>196.0</ele><time>2026-04-25T10:36:16.227Z</time></trkpt><trkpt lat="45.747585" lon="10.088505"><ele>194.0</ele><time>2026-04-25T10:36:17.228Z</time></trkpt><trkpt lat="45.7474267" lon="10.088585"><ele>192.0</ele><time>2026-04-25T10:36:18.228Z</time></trkpt><trkpt lat="45.7472617" lon="10.0886583"><ele>190.0</ele><time>2026-04-25T10:36:19.228Z</time></trkpt><trkpt lat="45.7470933" lon="10.088725"><ele>190.0</ele><time>2026-04-25T10:36:20.227Z</time></trkpt><trkpt lat="45.74692" lon="10.0887933"><ele>190.0</ele><time>2026-04-25T10:36:21.227Z</time></trkpt><trkpt lat="45.7467433" lon="10.0888683"><ele>190.0</ele><time>2026-04-25T10:36:22.228Z</time></trkpt><trkpt lat="45.7465667" lon="10.0889467"><ele>189.33333333333334</ele><time>2026-04-25T10:36:23.228Z</time></trkpt><trkpt lat="45.746385" lon="10.0890283"><ele>188.66666666666666</ele><time>2026-04-25T10:36:24.227Z</time></trkpt><trkpt lat="45.7462033" lon="10.0891183"><ele>188.0</ele><time>2026-04-25T10:36:25.227Z</time></trkpt><trkpt lat="45.746025" lon="10.089215"><ele>188.0</ele><time>2026-04-25T10:36:26.227Z</time></trkpt><trkpt lat="45.7458583" lon="10.08931"><ele>188.0</ele><time>2026-04-25T10:36:27.227Z</time></trkpt><trkpt lat="45.7457" lon="10.0894033"><ele>188.0</ele><time>2026-04-25T10:36:28.228Z</time></trkpt><trkpt lat="45.7455467" lon="10.0894883"><ele>188.0</ele><time>2026-04-25T10:36:29.227Z</time></trkpt><trkpt lat="45.7453917" lon="10.0895683"><ele>188.0</ele><time>2026-04-25T10:36:30.228Z</time></trkpt><trkpt lat="45.7452417" lon="10.089645"><ele>188.0</ele><time>2026-04-25T10:36:31.227Z</time></trkpt><trkpt lat="45.7450883" lon="10.0897167"><ele>187.0</ele><time>2026-04-25T10:36:32.228Z</time></trkpt><trkpt lat="45.7449417" lon="10.0897767"><ele>186.0</ele><time>2026-04-25T10:36:33.229Z</time></trkpt><trkpt lat="45.7448017" lon="10.0898283"><ele>185.0</ele><time>2026-04-25T10:36:34.228Z</time></trkpt><trkpt lat="45.7446667" lon="10.0898783"><ele>184.0</ele><time>2026-04-25T10:36:35.229Z</time></trkpt><trkpt lat="45.7445317" lon="10.0899333"><ele>190.0</ele><time>2026-04-25T10:36:36.227Z</time></trkpt><trkpt lat="45.7443967" lon="10.0899967"><ele>196.0</ele><time>2026-04-25T10:36:37.228Z</time></trkpt><trkpt lat="45.744265" lon="10.0900583"><ele>202.0</ele><time>2026-04-25T10:36:38.228Z</time></trkpt><trkpt lat="45.74414" lon="10.090125"><ele>208.0</ele><time>2026-04-25T10:36:39.23Z</time></trkpt><trkpt lat="45.7440183" lon="10.0901917"><ele>208.0</ele><time>2026-04-25T10:36:40.227Z</time></trkpt><trkpt lat="45.743895" lon="10.090255"><ele>208.0</ele><time>2026-04-25T10:36:41.226Z</time></trkpt><trkpt lat="45.7437717" lon="10.0903133"><ele>208.0</ele><time>2026-04-25T10:36:42.227Z</time></trkpt><trkpt lat="45.7436533" lon="10.09037"><ele>208.0</ele><time>2026-04-25T10:36:43.228Z</time></trkpt><trkpt lat="45.74354" lon="10.0904267"><ele>208.2</ele><time>2026-04-25T10:36:44.227Z</time></trkpt><trkpt lat="45.7434267" lon="10.0904833"><ele>208.4</ele><time>2026-04-25T10:36:45.228Z</time></trkpt><trkpt lat="45.7433217" lon="10.0905433"><ele>208.6</ele><time>2026-04-25T10:36:46.227Z</time></trkpt><trkpt lat="45.7432217" lon="10.0905683"><ele>208.79999999999998</ele><time>2026-04-25T10:36:47.227Z</time></trkpt><trkpt lat="45.7431383" lon="10.09053"><ele>209.0</ele><time>2026-04-25T10:36:48.228Z</time></trkpt><trkpt lat="45.74306" lon="10.0905633"><ele>209.00000000000003</ele><time>2026-04-25T10:36:49.227Z</time></trkpt><trkpt lat="45.7429783" lon="10.090595"><ele>209.0</ele><time>2026-04-25T10:36:50.227Z</time></trkpt><trkpt lat="45.7428967" lon="10.09063"><ele>209.0</ele><time>2026-04-25T10:36:51.227Z</time></trkpt><trkpt lat="45.742815" lon="10.090665"><ele>209.0</ele><time>2026-04-25T10:36:52.228Z</time></trkpt><trkpt lat="45.7427333" lon="10.0906917"><ele>209.00000000000003</ele><time>2026-04-25T10:36:53.227Z</time></trkpt><trkpt lat="45.74265" lon="10.0907383"><ele>209.0</ele><time>2026-04-25T10:36:54.228Z</time></trkpt><trkpt lat="45.7425633" lon="10.0907917"><ele>210.6</ele><time>2026-04-25T10:36:55.227Z</time></trkpt><trkpt lat="45.7424733" lon="10.09085"><ele>212.2</ele><time>2026-04-25T10:36:56.227Z</time></trkpt><trkpt lat="45.7423783" lon="10.0909133"><ele>213.79999999999998</ele><time>2026-04-25T10:36:57.228Z</time></trkpt><trkpt lat="45.742275" lon="10.0909783"><ele>215.39999999999998</ele><time>2026-04-25T10:36:58.228Z</time></trkpt><trkpt lat="45.7421817" lon="10.0910433"><ele>217.0</ele><time>2026-04-25T10:36:59.227Z</time></trkpt><trkpt lat="45.741855" lon="10.0913033"><ele>212.33333333333331</ele><time>2026-04-25T10:37:02.228Z</time></trkpt><trkpt lat="45.741715" lon="10.0915717"><ele>207.66666666666669</ele><time>2026-04-25T10:37:03.228Z</time></trkpt><trkpt lat="45.7415533" lon="10.091765"><ele>203.0</ele><time>2026-04-25T10:37:04.228Z</time></trkpt><trkpt lat="45.7414183" lon="10.0918733"><ele>203.0</ele><time>2026-04-25T10:37:05.227Z</time></trkpt><trkpt lat="45.741295" lon="10.0919417"><ele>203.0</ele><time>2026-04-25T10:37:06.227Z</time></trkpt><trkpt lat="45.7411633" lon="10.09194"><ele>203.0</ele><time>2026-04-25T10:37:07.228Z</time></trkpt><trkpt lat="45.7410217" lon="10.09192"><ele>203.0</ele><time>2026-04-25T10:37:08.229Z</time></trkpt><trkpt lat="45.7408817" lon="10.091895"><ele>200.0</ele><time>2026-04-25T10:37:09.227Z</time></trkpt><trkpt lat="45.7407417" lon="10.091875"><ele>197.0</ele><time>2026-04-25T10:37:10.228Z</time></trkpt><trkpt lat="45.740605" lon="10.0918583"><ele>194.0</ele><time>2026-04-25T10:37:11.227Z</time></trkpt><trkpt lat="45.74047" lon="10.0918433"><ele>191.0</ele><time>2026-04-25T10:37:12.227Z</time></trkpt><trkpt lat="45.7403417" lon="10.0918267"><ele>191.0</ele><time>2026-04-25T10:37:13.228Z</time></trkpt><trkpt lat="45.7402183" lon="10.0918167"><ele>191.0</ele><time>2026-04-25T10:37:14.226Z</time></trkpt><trkpt lat="45.740105" lon="10.0918083"><ele>191.0</ele><time>2026-04-25T10:37:15.229Z</time></trkpt><trkpt lat="45.74" lon="10.0918067"><ele>191.0</ele><time>2026-04-25T10:37:16.228Z</time></trkpt><trkpt lat="45.7398983" lon="10.0918217"><ele>191.0</ele><time>2026-04-25T10:37:17.229Z</time></trkpt><trkpt lat="45.7397983" lon="10.09186"><ele>191.4</ele><time>2026-04-25T10:37:18.229Z</time></trkpt><trkpt lat="45.7397" lon="10.0919183"><ele>191.8</ele><time>2026-04-25T10:37:19.23Z</time></trkpt><trkpt lat="45.7396" lon="10.0919817"><ele>192.20000000000002</ele><time>2026-04-25T10:37:20.23Z</time></trkpt><trkpt lat="45.7394967" lon="10.0920467"><ele>192.60000000000002</ele><time>2026-04-25T10:37:21.23Z</time></trkpt><trkpt lat="45.7393983" lon="10.0921117"><ele>193.0</ele><time>2026-04-25T10:37:22.229Z</time></trkpt><trkpt lat="45.739305" lon="10.0921683"><ele>193.0</ele><time>2026-04-25T10:37:23.23Z</time></trkpt><trkpt lat="45.7392167" lon="10.0922167"><ele>193.0</ele><time>2026-04-25T10:37:24.229Z</time></trkpt><trkpt lat="45.7391333" lon="10.0922617"><ele>193.0</ele><time>2026-04-25T10:37:25.229Z</time></trkpt><trkpt lat="45.73904" lon="10.0922983"><ele>193.0</ele><time>2026-04-25T10:37:26.228Z</time></trkpt><trkpt lat="45.7389417" lon="10.0923283"><ele>193.0</ele><time>2026-04-25T10:37:27.228Z</time></trkpt><trkpt lat="45.738845" lon="10.09235"><ele>193.0</ele><time>2026-04-25T10:37:28.227Z</time></trkpt><trkpt lat="45.738735" lon="10.0923567"><ele>193.0</ele><time>2026-04-25T10:37:29.228Z</time></trkpt><trkpt lat="45.738615" lon="10.09234"><ele>193.0</ele><time>2026-04-25T10:37:30.229Z</time></trkpt><trkpt lat="45.7384867" lon="10.0923233"><ele>193.0</ele><time>2026-04-25T10:37:31.229Z</time></trkpt><trkpt lat="45.7383533" lon="10.0923083"><ele>192.5</ele><time>2026-04-25T10:37:32.228Z</time></trkpt><trkpt lat="45.7382233" lon="10.09229"><ele>192.0</ele><time>2026-04-25T10:37:33.228Z</time></trkpt><trkpt lat="45.7381" lon="10.0922633"><ele>191.5</ele><time>2026-04-25T10:37:34.228Z</time></trkpt><trkpt lat="45.7379617" lon="10.0922417"><ele>191.0</ele><time>2026-04-25T10:37:35.227Z</time></trkpt><trkpt lat="45.7378217" lon="10.0922183"><ele>191.33333333333331</ele><time>2026-04-25T10:37:36.227Z</time></trkpt><trkpt lat="45.737675" lon="10.092195"><ele>191.66666666666666</ele><time>2026-04-25T10:37:37.229Z</time></trkpt><trkpt lat="45.7375233" lon="10.0921783"><ele>192.0</ele><time>2026-04-25T10:37:38.227Z</time></trkpt><trkpt lat="45.73737" lon="10.0921583"><ele>192.0</ele><time>2026-04-25T10:37:39.228Z</time></trkpt><trkpt lat="45.7372167" lon="10.0921383"><ele>192.0</ele><time>2026-04-25T10:37:40.228Z</time></trkpt><trkpt lat="45.7370683" lon="10.09211"><ele>192.0</ele><time>2026-04-25T10:37:41.229Z</time></trkpt><trkpt lat="45.7369167" lon="10.0920867"><ele>192.33333333333331</ele><time>2026-04-25T10:37:42.227Z</time></trkpt><trkpt lat="45.73676" lon="10.092065"><ele>192.66666666666666</ele><time>2026-04-25T10:37:43.227Z</time></trkpt><trkpt lat="45.7365983" lon="10.0920433"><ele>193.0</ele><time>2026-04-25T10:37:44.228Z</time></trkpt><trkpt lat="45.7364333" lon="10.0920167"><ele>193.0</ele><time>2026-04-25T10:37:45.228Z</time></trkpt><trkpt lat="45.7362683" lon="10.091985"><ele>193.0</ele><time>2026-04-25T10:37:46.227Z</time></trkpt><trkpt lat="45.7361017" lon="10.09195"><ele>193.0</ele><time>2026-04-25T10:37:47.227Z</time></trkpt><trkpt lat="45.735935" lon="10.0919183"><ele>193.0</ele><time>2026-04-25T10:37:48.228Z</time></trkpt><trkpt lat="45.7357667" lon="10.09189"><ele>193.0</ele><time>2026-04-25T10:37:49.228Z</time></trkpt><trkpt lat="45.7355967" lon="10.0918667"><ele>193.0</ele><time>2026-04-25T10:37:50.227Z</time></trkpt><trkpt lat="45.7354267" lon="10.0918517"><ele>193.0</ele><time>2026-04-25T10:37:51.228Z</time></trkpt><trkpt lat="45.7352517" lon="10.0918483"><ele>193.0</ele><time>2026-04-25T10:37:52.227Z</time></trkpt><trkpt lat="45.735075" lon="10.0918567"><ele>193.0</ele><time>2026-04-25T10:37:53.227Z</time></trkpt><trkpt lat="45.7348967" lon="10.0918767"><ele>193.0</ele><time>2026-04-25T10:37:54.227Z</time></trkpt><trkpt lat="45.73472" lon="10.09191"><ele>193.0</ele><time>2026-04-25T10:37:55.228Z</time></trkpt><trkpt lat="45.734555" lon="10.0919517"><ele>193.0</ele><time>2026-04-25T10:37:56.228Z</time></trkpt><trkpt lat="45.7343967" lon="10.0920067"><ele>192.66666666666666</ele><time>2026-04-25T10:37:57.227Z</time></trkpt><trkpt lat="45.73424" lon="10.092075"><ele>192.33333333333331</ele><time>2026-04-25T10:37:58.228Z</time></trkpt><trkpt lat="45.734085" lon="10.092155"><ele>192.0</ele><time>2026-04-25T10:37:59.228Z</time></trkpt><trkpt lat="45.733925" lon="10.092245"><ele>192.0</ele><time>2026-04-25T10:38:00.227Z</time></trkpt><trkpt lat="45.7337633" lon="10.0923383"><ele>192.0</ele><time>2026-04-25T10:38:01.227Z</time></trkpt><trkpt lat="45.7336017" lon="10.09244"><ele>192.0</ele><time>2026-04-25T10:38:02.227Z</time></trkpt><trkpt lat="45.7334483" lon="10.09254"><ele>191.5</ele><time>2026-04-25T10:38:03.228Z</time></trkpt><trkpt lat="45.7333033" lon="10.0926333"><ele>191.0</ele><time>2026-04-25T10:38:04.229Z</time></trkpt><trkpt lat="45.7331683" lon="10.09272"><ele>190.5</ele><time>2026-04-25T10:38:05.227Z</time></trkpt><trkpt lat="45.7330433" lon="10.0928033"><ele>190.0</ele><time>2026-04-25T10:38:06.227Z</time></trkpt><trkpt lat="45.732925" lon="10.0928817"><ele>190.0</ele><time>2026-04-25T10:38:07.227Z</time></trkpt><trkpt lat="45.7328133" lon="10.09296"><ele>190.0</ele><time>2026-04-25T10:38:08.228Z</time></trkpt><trkpt lat="45.732705" lon="10.09304"><ele>190.0</ele><time>2026-04-25T10:38:09.227Z</time></trkpt><trkpt lat="45.7325983" lon="10.0931133"><ele>190.0</ele><time>2026-04-25T10:38:10.228Z</time></trkpt><trkpt lat="45.732485" lon="10.09319"><ele>190.5</ele><time>2026-04-25T10:38:11.228Z</time></trkpt><trkpt lat="45.7323667" lon="10.09327"><ele>191.0</ele><time>2026-04-25T10:38:12.227Z</time></trkpt><trkpt lat="45.7322433" lon="10.093355"><ele>191.5</ele><time>2026-04-25T10:38:13.227Z</time></trkpt><trkpt lat="45.7321167" lon="10.09344"><ele>192.0</ele><time>2026-04-25T10:38:14.227Z</time></trkpt><trkpt lat="45.731995" lon="10.0935233"><ele>191.0</ele><time>2026-04-25T10:38:15.228Z</time></trkpt><trkpt lat="45.7318783" lon="10.0936033"><ele>190.0</ele><time>2026-04-25T10:38:16.227Z</time></trkpt><trkpt lat="45.7317733" lon="10.0936817"><ele>189.0</ele><time>2026-04-25T10:38:17.228Z</time></trkpt><trkpt lat="45.7316683" lon="10.0937567"><ele>188.0</ele><time>2026-04-25T10:38:18.228Z</time></trkpt><trkpt lat="45.7315617" lon="10.093835"><ele>188.0</ele><time>2026-04-25T10:38:19.227Z</time></trkpt><trkpt lat="45.73145" lon="10.0939117"><ele>188.0</ele><time>2026-04-25T10:38:20.227Z</time></trkpt><trkpt lat="45.7313333" lon="10.0939933"><ele>188.0</ele><time>2026-04-25T10:38:21.227Z</time></trkpt><trkpt lat="45.7312083" lon="10.09408"><ele>188.0</ele><time>2026-04-25T10:38:22.227Z</time></trkpt><trkpt lat="45.73108" lon="10.09417"><ele>188.33333333333331</ele><time>2026-04-25T10:38:23.227Z</time></trkpt><trkpt lat="45.7309467" lon="10.0942633"><ele>188.66666666666666</ele><time>2026-04-25T10:38:24.227Z</time></trkpt><trkpt lat="45.7308083" lon="10.0943583"><ele>189.0</ele><time>2026-04-25T10:38:25.227Z</time></trkpt><trkpt lat="45.73067" lon="10.094455"><ele>189.0</ele><time>2026-04-25T10:38:26.227Z</time></trkpt><trkpt lat="45.7305333" lon="10.09455"><ele>189.0</ele><time>2026-04-25T10:38:27.229Z</time></trkpt><trkpt lat="45.730395" lon="10.0946467"><ele>189.0</ele><time>2026-04-25T10:38:28.229Z</time></trkpt><trkpt lat="45.7302567" lon="10.0947433"><ele>188.33333333333334</ele><time>2026-04-25T10:38:29.227Z</time></trkpt><trkpt lat="45.7301167" lon="10.0948333"><ele>187.66666666666669</ele><time>2026-04-25T10:38:30.229Z</time></trkpt><trkpt lat="45.7299767" lon="10.0949217"><ele>187.0</ele><time>2026-04-25T10:38:31.229Z</time></trkpt><trkpt lat="45.7298383" lon="10.0950117"><ele>188.66666666666669</ele><time>2026-04-25T10:38:32.227Z</time></trkpt><trkpt lat="45.7297" lon="10.095105"><ele>190.33333333333334</ele><time>2026-04-25T10:38:33.23Z</time></trkpt><trkpt lat="45.7295617" lon="10.0951983"><ele>192.0</ele><time>2026-04-25T10:38:34.228Z</time></trkpt><trkpt lat="45.72942" lon="10.0952967"><ele>190.66666666666666</ele><time>2026-04-25T10:38:35.228Z</time></trkpt><trkpt lat="45.7292833" lon="10.0954033"><ele>189.33333333333331</ele><time>2026-04-25T10:38:36.227Z</time></trkpt><trkpt lat="45.72915" lon="10.0955233"><ele>188.0</ele><time>2026-04-25T10:38:37.228Z</time></trkpt><trkpt lat="45.72902" lon="10.095655"><ele>190.33333333333331</ele><time>2026-04-25T10:38:38.228Z</time></trkpt><trkpt lat="45.7288933" lon="10.0957933"><ele>192.66666666666666</ele><time>2026-04-25T10:38:39.228Z</time></trkpt><trkpt lat="45.7287717" lon="10.0959367"><ele>195.0</ele><time>2026-04-25T10:38:40.227Z</time></trkpt><trkpt lat="45.728645" lon="10.0960817"><ele>192.0</ele><time>2026-04-25T10:38:41.228Z</time></trkpt><trkpt lat="45.7285133" lon="10.0962183"><ele>189.0</ele><time>2026-04-25T10:38:42.229Z</time></trkpt><trkpt lat="45.7283767" lon="10.0963467"><ele>186.0</ele><time>2026-04-25T10:38:43.228Z</time></trkpt><trkpt lat="45.728235" lon="10.096465"><ele>188.33333333333331</ele><time>2026-04-25T10:38:44.227Z</time></trkpt><trkpt lat="45.728095" lon="10.0965867"><ele>190.66666666666666</ele><time>2026-04-25T10:38:45.227Z</time></trkpt><trkpt lat="45.7279617" lon="10.09672"><ele>193.0</ele><time>2026-04-25T10:38:46.228Z</time></trkpt><trkpt lat="45.7278367" lon="10.096865"><ele>190.0</ele><time>2026-04-25T10:38:47.228Z</time></trkpt><trkpt lat="45.7277167" lon="10.0970183"><ele>187.0</ele><time>2026-04-25T10:38:48.227Z</time></trkpt><trkpt lat="45.7276067" lon="10.0971683"><ele>184.0</ele><time>2026-04-25T10:38:49.228Z</time></trkpt><trkpt lat="45.727505" lon="10.0973117"><ele>185.25</ele><time>2026-04-25T10:38:50.229Z</time></trkpt><trkpt lat="45.7274083" lon="10.09745"><ele>186.5</ele><time>2026-04-25T10:38:51.23Z</time></trkpt><trkpt lat="45.72731" lon="10.097595"><ele>187.75</ele><time>2026-04-25T10:38:52.228Z</time></trkpt><trkpt lat="45.7272133" lon="10.0977483"><ele>189.0</ele><time>2026-04-25T10:38:53.227Z</time></trkpt><trkpt lat="45.72712" lon="10.097915"><ele>189.0</ele><time>2026-04-25T10:38:54.227Z</time></trkpt><trkpt lat="45.7270317" lon="10.0980917"><ele>189.0</ele><time>2026-04-25T10:38:55.227Z</time></trkpt><trkpt lat="45.7269467" lon="10.0982783"><ele>189.0</ele><time>2026-04-25T10:38:56.227Z</time></trkpt><trkpt lat="45.7268633" lon="10.0984733"><ele>188.66666666666666</ele><time>2026-04-25T10:38:57.227Z</time></trkpt><trkpt lat="45.7267817" lon="10.0986733"><ele>188.33333333333331</ele><time>2026-04-25T10:38:58.228Z</time></trkpt><trkpt lat="45.726705" lon="10.09888"><ele>188.0</ele><time>2026-04-25T10:38:59.228Z</time></trkpt><trkpt lat="45.7266333" lon="10.099095"><ele>188.0</ele><time>2026-04-25T10:39:00.227Z</time></trkpt><trkpt lat="45.7265717" lon="10.0993083"><ele>188.0</ele><time>2026-04-25T10:39:01.227Z</time></trkpt><trkpt lat="45.726515" lon="10.0995133"><ele>188.0</ele><time>2026-04-25T10:39:02.228Z</time></trkpt><trkpt lat="45.726465" lon="10.099705"><ele>188.0</ele><time>2026-04-25T10:39:03.229Z</time></trkpt><trkpt lat="45.7264217" lon="10.09988"><ele>188.0</ele><time>2026-04-25T10:39:04.227Z</time></trkpt><trkpt lat="45.7263817" lon="10.1000433"><ele>188.0</ele><time>2026-04-25T10:39:05.229Z</time></trkpt><trkpt lat="45.7263417" lon="10.100205"><ele>188.0</ele><time>2026-04-25T10:39:06.229Z</time></trkpt><trkpt lat="45.7263033" lon="10.100365"><ele>189.5</ele><time>2026-04-25T10:39:07.228Z</time></trkpt><trkpt lat="45.7262633" lon="10.1005283"><ele>191.0</ele><time>2026-04-25T10:39:08.227Z</time></trkpt><trkpt lat="45.7262183" lon="10.1006967"><ele>192.5</ele><time>2026-04-25T10:39:09.228Z</time></trkpt><trkpt lat="45.7261717" lon="10.1008683"><ele>194.0</ele><time>2026-04-25T10:39:10.227Z</time></trkpt><trkpt lat="45.7261267" lon="10.1010433"><ele>195.25</ele><time>2026-04-25T10:39:11.228Z</time></trkpt><trkpt lat="45.7260817" lon="10.10122"><ele>196.5</ele><time>2026-04-25T10:39:12.227Z</time></trkpt><trkpt lat="45.7260383" lon="10.1013933"><ele>197.75</ele><time>2026-04-25T10:39:13.227Z</time></trkpt><trkpt lat="45.7260033" lon="10.10156"><ele>199.0</ele><time>2026-04-25T10:39:14.227Z</time></trkpt><trkpt lat="45.7259733" lon="10.1017217"><ele>196.2</ele><time>2026-04-25T10:39:15.229Z</time></trkpt><trkpt lat="45.7259533" lon="10.1018783"><ele>193.39999999999998</ele><time>2026-04-25T10:39:16.227Z</time></trkpt><trkpt lat="45.725935" lon="10.10203"><ele>190.6</ele><time>2026-04-25T10:39:17.229Z</time></trkpt><trkpt lat="45.7259183" lon="10.1021833"><ele>187.8</ele><time>2026-04-25T10:39:18.231Z</time></trkpt><trkpt lat="45.7259033" lon="10.1023383"><ele>185.0</ele><time>2026-04-25T10:39:19.23Z</time></trkpt><trkpt lat="45.7258867" lon="10.102495"><ele>185.0</ele><time>2026-04-25T10:39:20.23Z</time></trkpt><trkpt lat="45.72587" lon="10.1026567"><ele>185.0</ele><time>2026-04-25T10:39:21.232Z</time></trkpt><trkpt lat="45.725855" lon="10.10282"><ele>185.0</ele><time>2026-04-25T10:39:22.231Z</time></trkpt><trkpt lat="45.7258383" lon="10.1029867"><ele>185.0</ele><time>2026-04-25T10:39:23.23Z</time></trkpt><trkpt lat="45.7258217" lon="10.10315"><ele>186.2</ele><time>2026-04-25T10:39:24.233Z</time></trkpt><trkpt lat="45.7257983" lon="10.10331"><ele>187.4</ele><time>2026-04-25T10:39:25.229Z</time></trkpt><trkpt lat="45.7257683" lon="10.1034583"><ele>188.60000000000002</ele><time>2026-04-25T10:39:26.232Z</time></trkpt><trkpt lat="45.7257383" lon="10.103595"><ele>189.8</ele><time>2026-04-25T10:39:27.231Z</time></trkpt><trkpt lat="45.7257083" lon="10.1037183"><ele>191.0</ele><time>2026-04-25T10:39:28.23Z</time></trkpt><trkpt lat="45.7256717" lon="10.103835"><ele>191.0</ele><time>2026-04-25T10:39:29.229Z</time></trkpt><trkpt lat="45.725625" lon="10.103955"><ele>191.0</ele><time>2026-04-25T10:39:30.232Z</time></trkpt><trkpt lat="45.72557" lon="10.1040833"><ele>191.0</ele><time>2026-04-25T10:39:31.229Z</time></trkpt><trkpt lat="45.7255033" lon="10.1042067"><ele>191.0</ele><time>2026-04-25T10:39:32.23Z</time></trkpt><trkpt lat="45.7254183" lon="10.1043217"><ele>191.0</ele><time>2026-04-25T10:39:33.229Z</time></trkpt><trkpt lat="45.72532" lon="10.1044283"><ele>189.75</ele><time>2026-04-25T10:39:34.23Z</time></trkpt><trkpt lat="45.7252167" lon="10.1045367"><ele>188.5</ele><time>2026-04-25T10:39:35.229Z</time></trkpt><trkpt lat="45.7251067" lon="10.1046467"><ele>187.25</ele><time>2026-04-25T10:39:36.227Z</time></trkpt><trkpt lat="45.724995" lon="10.1047617"><ele>186.0</ele><time>2026-04-25T10:39:37.228Z</time></trkpt><trkpt lat="45.7248833" lon="10.1048717"><ele>188.0</ele><time>2026-04-25T10:39:38.227Z</time></trkpt><trkpt lat="45.7247783" lon="10.1049767"><ele>190.0</ele><time>2026-04-25T10:39:39.228Z</time></trkpt><trkpt lat="45.7246783" lon="10.105075"><ele>192.0</ele><time>2026-04-25T10:39:40.228Z</time></trkpt><trkpt lat="45.72458" lon="10.1051683"><ele>194.0</ele><time>2026-04-25T10:39:41.229Z</time></trkpt><trkpt lat="45.724485" lon="10.1052583"><ele>191.75</ele><time>2026-04-25T10:39:42.231Z</time></trkpt><trkpt lat="45.7243933" lon="10.1053517"><ele>189.5</ele><time>2026-04-25T10:39:43.231Z</time></trkpt><trkpt lat="45.7242967" lon="10.10545"><ele>187.25</ele><time>2026-04-25T10:39:44.228Z</time></trkpt><trkpt lat="45.7241933" lon="10.105555"><ele>185.0</ele><time>2026-04-25T10:39:45.229Z</time></trkpt><trkpt lat="45.7240817" lon="10.1056617"><ele>186.5</ele><time>2026-04-25T10:39:46.229Z</time></trkpt><trkpt lat="45.7239633" lon="10.105775"><ele>188.0</ele><time>2026-04-25T10:39:47.227Z</time></trkpt><trkpt lat="45.723845" lon="10.10589"><ele>189.5</ele><time>2026-04-25T10:39:48.227Z</time></trkpt><trkpt lat="45.72373" lon="10.1060033"><ele>191.0</ele><time>2026-04-25T10:39:49.227Z</time></trkpt><trkpt lat="45.72363" lon="10.1061017"><ele>189.83333333333331</ele><time>2026-04-25T10:39:50.229Z</time></trkpt><trkpt lat="45.7235467" lon="10.106175"><ele>188.66666666666666</ele><time>2026-04-25T10:39:51.228Z</time></trkpt><trkpt lat="45.72348" lon="10.10623"><ele>187.5</ele><time>2026-04-25T10:39:52.229Z</time></trkpt><trkpt lat="45.7234217" lon="10.106275"><ele>186.33333333333334</ele><time>2026-04-25T10:39:53.228Z</time></trkpt><trkpt lat="45.723325" lon="10.10638"><ele>185.16666666666669</ele><time>2026-04-25T10:39:55.228Z</time></trkpt><trkpt lat="45.7232667" lon="10.106445"><ele>184.0</ele><time>2026-04-25T10:39:56.229Z</time></trkpt><trkpt lat="45.723195" lon="10.1065233"><ele>185.75</ele><time>2026-04-25T10:39:57.23Z</time></trkpt><trkpt lat="45.7231067" lon="10.1066133"><ele>187.5</ele><time>2026-04-25T10:39:58.229Z</time></trkpt><trkpt lat="45.7230033" lon="10.1067117"><ele>189.25</ele><time>2026-04-25T10:39:59.227Z</time></trkpt><trkpt lat="45.72289" lon="10.1068233"><ele>191.0</ele><time>2026-04-25T10:40:00.227Z</time></trkpt><trkpt lat="45.72277" lon="10.106945"><ele>188.66666666666666</ele><time>2026-04-25T10:40:01.229Z</time></trkpt><trkpt lat="45.7226417" lon="10.1070767"><ele>186.33333333333334</ele><time>2026-04-25T10:40:02.229Z</time></trkpt><trkpt lat="45.7225133" lon="10.1072133"><ele>184.0</ele><time>2026-04-25T10:40:03.228Z</time></trkpt><trkpt lat="45.7223933" lon="10.10735"><ele>185.75</ele><time>2026-04-25T10:40:04.227Z</time></trkpt><trkpt lat="45.7222833" lon="10.1074917"><ele>187.5</ele><time>2026-04-25T10:40:05.228Z</time></trkpt><trkpt lat="45.7221783" lon="10.1076383"><ele>189.25</ele><time>2026-04-25T10:40:06.227Z</time></trkpt><trkpt lat="45.7220767" lon="10.107785"><ele>191.0</ele><time>2026-04-25T10:40:07.227Z</time></trkpt><trkpt lat="45.72198" lon="10.1079217"><ele>190.0</ele><time>2026-04-25T10:40:08.228Z</time></trkpt><trkpt lat="45.7218917" lon="10.10805"><ele>189.0</ele><time>2026-04-25T10:40:09.228Z</time></trkpt><trkpt lat="45.721805" lon="10.108165"><ele>188.0</ele><time>2026-04-25T10:40:10.227Z</time></trkpt><trkpt lat="45.7217167" lon="10.1082733"><ele>187.0</ele><time>2026-04-25T10:40:11.228Z</time></trkpt><trkpt lat="45.721625" lon="10.1083767"><ele>187.0</ele><time>2026-04-25T10:40:12.227Z</time></trkpt><trkpt lat="45.72152" lon="10.108475"><ele>187.0</ele><time>2026-04-25T10:40:13.229Z</time></trkpt><trkpt lat="45.7214" lon="10.10857"><ele>187.0</ele><time>2026-04-25T10:40:14.228Z</time></trkpt><trkpt lat="45.721275" lon="10.1086567"><ele>187.0</ele><time>2026-04-25T10:40:15.229Z</time></trkpt><trkpt lat="45.7211433" lon="10.10874"><ele>187.75</ele><time>2026-04-25T10:40:16.228Z</time></trkpt><trkpt lat="45.72101" lon="10.1088317"><ele>188.5</ele><time>2026-04-25T10:40:17.228Z</time></trkpt><trkpt lat="45.7208783" lon="10.10894"><ele>189.25</ele><time>2026-04-25T10:40:18.227Z</time></trkpt><trkpt lat="45.7207567" lon="10.1090617"><ele>190.0</ele><time>2026-04-25T10:40:19.228Z</time></trkpt><trkpt lat="45.7206483" lon="10.1091933"><ele>190.0</ele><time>2026-04-25T10:40:20.229Z</time></trkpt><trkpt lat="45.7205533" lon="10.1093233"><ele>190.0</ele><time>2026-04-25T10:40:21.229Z</time></trkpt><trkpt lat="45.7204633" lon="10.1094433"><ele>190.0</ele><time>2026-04-25T10:40:22.228Z</time></trkpt><trkpt lat="45.7203683" lon="10.109545"><ele>190.0</ele><time>2026-04-25T10:40:23.228Z</time></trkpt><trkpt lat="45.720265" lon="10.1096283"><ele>188.25</ele><time>2026-04-25T10:40:24.229Z</time></trkpt><trkpt lat="45.7201483" lon="10.1096867"><ele>186.5</ele><time>2026-04-25T10:40:25.229Z</time></trkpt><trkpt lat="45.7200217" lon="10.109725"><ele>184.75</ele><time>2026-04-25T10:40:26.229Z</time></trkpt><trkpt lat="45.7198883" lon="10.109755"><ele>183.0</ele><time>2026-04-25T10:40:27.228Z</time></trkpt><trkpt lat="45.7197483" lon="10.1097883"><ele>183.0</ele><time>2026-04-25T10:40:28.229Z</time></trkpt><trkpt lat="45.7196033" lon="10.1098233"><ele>183.0</ele><time>2026-04-25T10:40:29.227Z</time></trkpt><trkpt lat="45.7194583" lon="10.1098633"><ele>183.0</ele><time>2026-04-25T10:40:30.228Z</time></trkpt><trkpt lat="45.7193167" lon="10.1099017"><ele>183.0</ele><time>2026-04-25T10:40:31.228Z</time></trkpt><trkpt lat="45.7191767" lon="10.1099417"><ele>184.5</ele><time>2026-04-25T10:40:32.227Z</time></trkpt><trkpt lat="45.7190433" lon="10.109985"><ele>186.0</ele><time>2026-04-25T10:40:33.229Z</time></trkpt><trkpt lat="45.7189117" lon="10.1100433"><ele>187.5</ele><time>2026-04-25T10:40:34.228Z</time></trkpt><trkpt lat="45.7187767" lon="10.1101167"><ele>189.0</ele><time>2026-04-25T10:40:35.231Z</time></trkpt><trkpt lat="45.7186383" lon="10.1102017"><ele>188.75</ele><time>2026-04-25T10:40:36.229Z</time></trkpt><trkpt lat="45.7185017" lon="10.1102917"><ele>188.5</ele><time>2026-04-25T10:40:37.227Z</time></trkpt><trkpt lat="45.7183633" lon="10.1103767"><ele>188.25</ele><time>2026-04-25T10:40:38.23Z</time></trkpt><trkpt lat="45.7182283" lon="10.1104517"><ele>188.0</ele><time>2026-04-25T10:40:39.23Z</time></trkpt><trkpt lat="45.7180983" lon="10.110505"><ele>188.0</ele><time>2026-04-25T10:40:40.228Z</time></trkpt><trkpt lat="45.7179783" lon="10.1105417"><ele>188.0</ele><time>2026-04-25T10:40:41.227Z</time></trkpt><trkpt lat="45.7178583" lon="10.1105567"><ele>188.0</ele><time>2026-04-25T10:40:42.227Z</time></trkpt><trkpt lat="45.7177317" lon="10.1105517"><ele>188.0</ele><time>2026-04-25T10:40:43.228Z</time></trkpt><trkpt lat="45.717605" lon="10.1105317"><ele>187.75</ele><time>2026-04-25T10:40:44.227Z</time></trkpt><trkpt lat="45.717475" lon="10.110515"><ele>187.5</ele><time>2026-04-25T10:40:45.227Z</time></trkpt><trkpt lat="45.7173517" lon="10.110485"><ele>187.25</ele><time>2026-04-25T10:40:46.228Z</time></trkpt><trkpt lat="45.717225" lon="10.11045"><ele>187.0</ele><time>2026-04-25T10:40:47.228Z</time></trkpt><trkpt lat="45.7170967" lon="10.1104083"><ele>187.0</ele><time>2026-04-25T10:40:48.228Z</time></trkpt><trkpt lat="45.7169717" lon="10.1103533"><ele>187.0</ele><time>2026-04-25T10:40:49.229Z</time></trkpt><trkpt lat="45.7168467" lon="10.110285"><ele>187.0</ele><time>2026-04-25T10:40:50.229Z</time></trkpt><trkpt lat="45.71672" lon="10.11021"><ele>187.0</ele><time>2026-04-25T10:40:51.229Z</time></trkpt><trkpt lat="45.716595" lon="10.1101433"><ele>186.75</ele><time>2026-04-25T10:40:52.229Z</time></trkpt><trkpt lat="45.7164667" lon="10.1100967"><ele>186.5</ele><time>2026-04-25T10:40:53.229Z</time></trkpt><trkpt lat="45.7163317" lon="10.1100767"><ele>186.25</ele><time>2026-04-25T10:40:54.229Z</time></trkpt><trkpt lat="45.716195" lon="10.1100683"><ele>186.0</ele><time>2026-04-25T10:40:55.23Z</time></trkpt><trkpt lat="45.716055" lon="10.1100683"><ele>187.0</ele><time>2026-04-25T10:40:56.229Z</time></trkpt><trkpt lat="45.7159133" lon="10.1100783"><ele>188.0</ele><time>2026-04-25T10:40:57.228Z</time></trkpt><trkpt lat="45.7157733" lon="10.1100967"><ele>189.0</ele><time>2026-04-25T10:40:58.229Z</time></trkpt><trkpt lat="45.7156333" lon="10.1101233"><ele>190.0</ele><time>2026-04-25T10:40:59.228Z</time></trkpt><trkpt lat="45.7154967" lon="10.1101533"><ele>190.0</ele><time>2026-04-25T10:41:00.228Z</time></trkpt><trkpt lat="45.7153667" lon="10.11018"><ele>190.0</ele><time>2026-04-25T10:41:01.229Z</time></trkpt><trkpt lat="45.71525" lon="10.1102067"><ele>190.0</ele><time>2026-04-25T10:41:02.229Z</time></trkpt><trkpt lat="45.715145" lon="10.1102333"><ele>190.0</ele><time>2026-04-25T10:41:03.228Z</time></trkpt><trkpt lat="45.7150483" lon="10.1102583"><ele>189.2</ele><time>2026-04-25T10:41:04.227Z</time></trkpt><trkpt lat="45.7149583" lon="10.1102817"><ele>188.4</ele><time>2026-04-25T10:41:05.229Z</time></trkpt><trkpt lat="45.714865" lon="10.1103033"><ele>187.60000000000002</ele><time>2026-04-25T10:41:06.228Z</time></trkpt><trkpt lat="45.71477" lon="10.1103283"><ele>186.8</ele><time>2026-04-25T10:41:07.229Z</time></trkpt><trkpt lat="45.71468" lon="10.1103583"><ele>186.0</ele><time>2026-04-25T10:41:08.228Z</time></trkpt><trkpt lat="45.7145983" lon="10.1103817"><ele>186.0</ele><time>2026-04-25T10:41:09.23Z</time></trkpt><trkpt lat="45.71453" lon="10.110395"><ele>186.0</ele><time>2026-04-25T10:41:10.228Z</time></trkpt><trkpt lat="45.714445" lon="10.1104117"><ele>186.0</ele><time>2026-04-25T10:41:12.229Z</time></trkpt><trkpt lat="45.7143617" lon="10.1104167"><ele>186.0</ele><time>2026-04-25T10:41:15.228Z</time></trkpt><trkpt lat="45.71425" lon="10.1104417"><ele>186.0</ele><time>2026-04-25T10:41:18.228Z</time></trkpt><trkpt lat="45.7141733" lon="10.1104433"><ele>186.0</ele><time>2026-04-25T10:41:19.229Z</time></trkpt><trkpt lat="45.71408" lon="10.1104283"><ele>185.25</ele><time>2026-04-25T10:41:20.228Z</time></trkpt><trkpt lat="45.7139733" lon="10.1104"><ele>184.5</ele><time>2026-04-25T10:41:21.229Z</time></trkpt><trkpt lat="45.713855" lon="10.1103583"><ele>183.75</ele><time>2026-04-25T10:41:22.229Z</time></trkpt><trkpt lat="45.7137283" lon="10.1103083"><ele>183.0</ele><time>2026-04-25T10:41:23.228Z</time></trkpt><trkpt lat="45.713605" lon="10.110255"><ele>183.75</ele><time>2026-04-25T10:41:24.229Z</time></trkpt><trkpt lat="45.7134867" lon="10.1101983"><ele>184.5</ele><time>2026-04-25T10:41:25.228Z</time></trkpt><trkpt lat="45.7133633" lon="10.1101367"><ele>185.25</ele><time>2026-04-25T10:41:26.231Z</time></trkpt><trkpt lat="45.71323" lon="10.110075"><ele>186.0</ele><time>2026-04-25T10:41:27.229Z</time></trkpt><trkpt lat="45.7130917" lon="10.1100133"><ele>186.0</ele><time>2026-04-25T10:41:28.228Z</time></trkpt><trkpt lat="45.7129517" lon="10.10996"><ele>186.0</ele><time>2026-04-25T10:41:29.23Z</time></trkpt><trkpt lat="45.712815" lon="10.1099133"><ele>186.0</ele><time>2026-04-25T10:41:30.229Z</time></trkpt><trkpt lat="45.7126833" lon="10.10987"><ele>186.0</ele><time>2026-04-25T10:41:31.23Z</time></trkpt><trkpt lat="45.7125517" lon="10.10983"><ele>185.0</ele><time>2026-04-25T10:41:32.228Z</time></trkpt><trkpt lat="45.7124267" lon="10.1097917"><ele>184.0</ele><time>2026-04-25T10:41:33.228Z</time></trkpt><trkpt lat="45.7122967" lon="10.1097483"><ele>183.0</ele><time>2026-04-25T10:41:34.228Z</time></trkpt><trkpt lat="45.71217" lon="10.1097033"><ele>182.0</ele><time>2026-04-25T10:41:35.228Z</time></trkpt><trkpt lat="45.71204" lon="10.10967"><ele>182.0</ele><time>2026-04-25T10:41:36.228Z</time></trkpt><trkpt lat="45.7119117" lon="10.10965"><ele>182.0</ele><time>2026-04-25T10:41:37.231Z</time></trkpt><trkpt lat="45.7117767" lon="10.1096517"><ele>182.0</ele><time>2026-04-25T10:41:38.227Z</time></trkpt><trkpt lat="45.71164" lon="10.10966"><ele>182.0</ele><time>2026-04-25T10:41:39.228Z</time></trkpt><trkpt lat="45.7115117" lon="10.1096617"><ele>183.0</ele><time>2026-04-25T10:41:40.229Z</time></trkpt><trkpt lat="45.7113967" lon="10.1096617"><ele>184.0</ele><time>2026-04-25T10:41:41.228Z</time></trkpt><trkpt lat="45.71128" lon="10.1096633"><ele>185.0</ele><time>2026-04-25T10:41:42.229Z</time></trkpt><trkpt lat="45.7111617" lon="10.1096617"><ele>186.0</ele><time>2026-04-25T10:41:43.228Z</time></trkpt><trkpt lat="45.7110533" lon="10.10966"><ele>186.0</ele><time>2026-04-25T10:41:44.229Z</time></trkpt><trkpt lat="45.710955" lon="10.10966"><ele>186.0</ele><time>2026-04-25T10:41:45.229Z</time></trkpt><trkpt lat="45.7108667" lon="10.1096583"><ele>186.0</ele><time>2026-04-25T10:41:46.23Z</time></trkpt><trkpt lat="45.7107867" lon="10.109655"><ele>186.0</ele><time>2026-04-25T10:41:47.229Z</time></trkpt><trkpt lat="45.71071" lon="10.1096517"><ele>186.0</ele><time>2026-04-25T10:41:48.228Z</time></trkpt><trkpt lat="45.7106383" lon="10.10965"><ele>186.0</ele><time>2026-04-25T10:41:49.228Z</time></trkpt><trkpt lat="45.7105667" lon="10.1096533"><ele>186.0</ele><time>2026-04-25T10:41:50.228Z</time></trkpt><trkpt lat="45.7104933" lon="10.1096567"><ele>186.0</ele><time>2026-04-25T10:41:51.229Z</time></trkpt><trkpt lat="45.71042" lon="10.1096667"><ele>186.0</ele><time>2026-04-25T10:41:52.229Z</time></trkpt><trkpt lat="45.7103417" lon="10.1096783"><ele>186.0</ele><time>2026-04-25T10:41:53.229Z</time></trkpt><trkpt lat="45.7102567" lon="10.1096883"><ele>186.0</ele><time>2026-04-25T10:41:54.228Z</time></trkpt><trkpt lat="45.710165" lon="10.109695"><ele>186.0</ele><time>2026-04-25T10:41:55.228Z</time></trkpt><trkpt lat="45.7100667" lon="10.1097033"><ele>185.4</ele><time>2026-04-25T10:41:56.227Z</time></trkpt><trkpt lat="45.7099683" lon="10.1097133"><ele>184.8</ele><time>2026-04-25T10:41:57.228Z</time></trkpt><trkpt lat="45.7098667" lon="10.109725"><ele>184.20000000000002</ele><time>2026-04-25T10:41:58.229Z</time></trkpt><trkpt lat="45.7097567" lon="10.1097367"><ele>183.60000000000002</ele><time>2026-04-25T10:41:59.234Z</time></trkpt><trkpt lat="45.7096317" lon="10.1097533"><ele>183.0</ele><time>2026-04-25T10:42:00.227Z</time></trkpt><trkpt lat="45.7094917" lon="10.109765"><ele>183.0</ele><time>2026-04-25T10:42:01.23Z</time></trkpt><trkpt lat="45.7093367" lon="10.1097733"><ele>183.0</ele><time>2026-04-25T10:42:02.23Z</time></trkpt><trkpt lat="45.7091717" lon="10.10977"><ele>183.0</ele><time>2026-04-25T10:42:03.23Z</time></trkpt><trkpt lat="45.7090083" lon="10.1097567"><ele>183.0</ele><time>2026-04-25T10:42:04.229Z</time></trkpt><trkpt lat="45.7088483" lon="10.10974"><ele>183.0</ele><time>2026-04-25T10:42:05.227Z</time></trkpt><trkpt lat="45.7087017" lon="10.1097283"><ele>183.0</ele><time>2026-04-25T10:42:06.229Z</time></trkpt><trkpt lat="45.7085667" lon="10.1097133"><ele>183.0</ele><time>2026-04-25T10:42:07.229Z</time></trkpt><trkpt lat="45.7084417" lon="10.1096933"><ele>183.25</ele><time>2026-04-25T10:42:08.228Z</time></trkpt><trkpt lat="45.7083233" lon="10.10967"><ele>183.5</ele><time>2026-04-25T10:42:09.23Z</time></trkpt><trkpt lat="45.7082017" lon="10.1096483"><ele>183.75</ele><time>2026-04-25T10:42:10.229Z</time></trkpt><trkpt lat="45.7080833" lon="10.10962"><ele>184.0</ele><time>2026-04-25T10:42:11.228Z</time></trkpt><trkpt lat="45.7079767" lon="10.1095933"><ele>184.0</ele><time>2026-04-25T10:42:12.228Z</time></trkpt><trkpt lat="45.7078917" lon="10.1095717"><ele>184.0</ele><time>2026-04-25T10:42:13.228Z</time></trkpt><trkpt lat="45.7077767" lon="10.1095667"><ele>184.0</ele><time>2026-04-25T10:42:15.23Z</time></trkpt><trkpt lat="45.7076967" lon="10.1096283"><ele>184.0</ele><time>2026-04-25T10:42:17.227Z</time></trkpt><trkpt lat="45.7076433" lon="10.1096933"><ele>184.0</ele><time>2026-04-25T10:42:19.227Z</time></trkpt><trkpt lat="45.70756" lon="10.1096983"><ele>184.0</ele><time>2026-04-25T10:42:22.227Z</time></trkpt><trkpt lat="45.7074817" lon="10.1096683"><ele>184.0</ele><time>2026-04-25T10:42:26.228Z</time></trkpt><trkpt lat="45.7074267" lon="10.109725"><ele>184.0</ele><time>2026-04-25T10:42:30.229Z</time></trkpt><trkpt lat="45.7074783" lon="10.109785"><ele>184.0</ele><time>2026-04-25T10:42:37.229Z</time></trkpt><trkpt lat="45.707585" lon="10.1098367"><ele>184.0</ele><time>2026-04-25T10:47:19.228Z</time></trkpt><trkpt lat="45.7076667" lon="10.109785"><ele>184.0</ele><time>2026-04-25T10:47:23.229Z</time></trkpt><trkpt lat="45.707735" lon="10.1097067"><ele>184.0</ele><time>2026-04-25T10:47:26.227Z</time></trkpt><trkpt lat="45.70778" lon="10.109635"><ele>184.0</ele><time>2026-04-25T10:47:29.227Z</time></trkpt><trkpt lat="45.7076917" lon="10.10966"><ele>184.0</ele><time>2026-04-25T10:48:00.231Z</time></trkpt><trkpt lat="45.7076117" lon="10.10967"><ele>184.0</ele><time>2026-04-25T10:48:03.229Z</time></trkpt><trkpt lat="45.7075433" lon="10.109635"><ele>184.0</ele><time>2026-04-25T10:48:06.229Z</time></trkpt><trkpt lat="45.707455" lon="10.109635"><ele>184.0</ele><time>2026-04-25T10:48:09.231Z</time></trkpt><trkpt lat="45.707375" lon="10.1096467"><ele>184.0</ele><time>2026-04-25T10:48:11.228Z</time></trkpt><trkpt lat="45.707305" lon="10.1096683"><ele>184.0</ele><time>2026-04-25T10:48:13.228Z</time></trkpt><trkpt lat="45.7072483" lon="10.109625"><ele>184.0</ele><time>2026-04-25T10:48:16.228Z</time></trkpt><trkpt lat="45.70726" lon="10.1095267"><ele>184.0</ele><time>2026-04-25T10:50:25.227Z</time></trkpt><trkpt lat="45.707295" lon="10.1094283"><ele>184.0</ele><time>2026-04-25T10:50:29.227Z</time></trkpt><trkpt lat="45.7072067" lon="10.1092983"><ele>184.0</ele><time>2026-04-25T10:50:39.23Z</time></trkpt><trkpt lat="45.7071233" lon="10.1092533"><ele>184.0</ele><time>2026-04-25T10:50:40.229Z</time></trkpt><trkpt lat="45.707015" lon="10.1092133"><ele>184.25</ele><time>2026-04-25T10:50:41.227Z</time></trkpt><trkpt lat="45.7068933" lon="10.1091683"><ele>184.5</ele><time>2026-04-25T10:50:42.227Z</time></trkpt><trkpt lat="45.7067617" lon="10.10912"><ele>184.75</ele><time>2026-04-25T10:50:43.227Z</time></trkpt><trkpt lat="45.70663" lon="10.1090717"><ele>185.0</ele><time>2026-04-25T10:50:44.228Z</time></trkpt><trkpt lat="45.7065083" lon="10.1090283"><ele>185.0</ele><time>2026-04-25T10:50:45.229Z</time></trkpt><trkpt lat="45.7063983" lon="10.1089917"><ele>185.0</ele><time>2026-04-25T10:50:46.229Z</time></trkpt><trkpt lat="45.7062983" lon="10.1089583"><ele>185.0</ele><time>2026-04-25T10:50:47.228Z</time></trkpt><trkpt lat="45.7062117" lon="10.1089283"><ele>185.0</ele><time>2026-04-25T10:50:48.227Z</time></trkpt><trkpt lat="45.7061333" lon="10.1089"><ele>185.0</ele><time>2026-04-25T10:50:49.229Z</time></trkpt><trkpt lat="45.7060667" lon="10.10887"><ele>185.99999999999997</ele><time>2026-04-25T10:50:50.23Z</time></trkpt><trkpt lat="45.7060083" lon="10.1088317"><ele>187.0</ele><time>2026-04-25T10:50:51.228Z</time></trkpt><trkpt lat="45.70595" lon="10.1087933"><ele>188.0</ele><time>2026-04-25T10:50:52.228Z</time></trkpt><trkpt lat="45.705885" lon="10.1087533"><ele>189.0</ele><time>2026-04-25T10:50:53.227Z</time></trkpt><trkpt lat="45.70581" lon="10.10871"><ele>190.0</ele><time>2026-04-25T10:50:54.228Z</time></trkpt><trkpt lat="45.7057383" lon="10.10866"><ele>190.99999999999997</ele><time>2026-04-25T10:50:55.229Z</time></trkpt><trkpt lat="45.70567" lon="10.108605"><ele>192.0</ele><time>2026-04-25T10:50:56.229Z</time></trkpt><trkpt lat="45.7056" lon="10.1085467"><ele>192.0</ele><time>2026-04-25T10:50:57.228Z</time></trkpt><trkpt lat="45.7055217" lon="10.10849"><ele>192.0</ele><time>2026-04-25T10:50:58.228Z</time></trkpt><trkpt lat="45.7054383" lon="10.10844"><ele>192.0</ele><time>2026-04-25T10:50:59.228Z</time></trkpt><trkpt lat="45.7053517" lon="10.108395"><ele>192.0</ele><time>2026-04-25T10:51:00.229Z</time></trkpt><trkpt lat="45.7052617" lon="10.1083583"><ele>192.0</ele><time>2026-04-25T10:51:01.229Z</time></trkpt><trkpt lat="45.7051683" lon="10.1083267"><ele>192.2</ele><time>2026-04-25T10:51:02.229Z</time></trkpt><trkpt lat="45.705075" lon="10.1083017"><ele>192.39999999999998</ele><time>2026-04-25T10:51:03.23Z</time></trkpt><trkpt lat="45.70498" lon="10.1082817"><ele>192.60000000000002</ele><time>2026-04-25T10:51:04.228Z</time></trkpt><trkpt lat="45.704885" lon="10.108265"><ele>192.8</ele><time>2026-04-25T10:51:05.229Z</time></trkpt><trkpt lat="45.70479" lon="10.1082517"><ele>193.0</ele><time>2026-04-25T10:51:06.229Z</time></trkpt><trkpt lat="45.704695" lon="10.1082433"><ele>193.2</ele><time>2026-04-25T10:51:07.229Z</time></trkpt><trkpt lat="45.7045983" lon="10.1082367"><ele>193.4</ele><time>2026-04-25T10:51:08.228Z</time></trkpt><trkpt lat="45.7045" lon="10.1082367"><ele>193.6</ele><time>2026-04-25T10:51:09.229Z</time></trkpt><trkpt lat="45.7043983" lon="10.10824"><ele>193.79999999999998</ele><time>2026-04-25T10:51:10.23Z</time></trkpt><trkpt lat="45.70429" lon="10.1082433"><ele>194.0</ele><time>2026-04-25T10:51:11.231Z</time></trkpt><trkpt lat="45.7041817" lon="10.1082433"><ele>194.0</ele><time>2026-04-25T10:51:12.228Z</time></trkpt><trkpt lat="45.7040733" lon="10.1082467"><ele>194.0</ele><time>2026-04-25T10:51:13.228Z</time></trkpt><trkpt lat="45.7039617" lon="10.1082533"><ele>194.0</ele><time>2026-04-25T10:51:14.228Z</time></trkpt><trkpt lat="45.7038467" lon="10.10826"><ele>194.0</ele><time>2026-04-25T10:51:15.228Z</time></trkpt><trkpt lat="45.7037267" lon="10.10827"><ele>194.0</ele><time>2026-04-25T10:51:16.228Z</time></trkpt><trkpt lat="45.7036017" lon="10.1082767"><ele>194.0</ele><time>2026-04-25T10:51:17.231Z</time></trkpt><trkpt lat="45.7034767" lon="10.108285"><ele>194.0</ele><time>2026-04-25T10:51:18.227Z</time></trkpt><trkpt lat="45.7033483" lon="10.1082933"><ele>194.0</ele><time>2026-04-25T10:51:19.228Z</time></trkpt><trkpt lat="45.70322" lon="10.1083017"><ele>193.5</ele><time>2026-04-25T10:51:20.229Z</time></trkpt><trkpt lat="45.70309" lon="10.1083083"><ele>193.0</ele><time>2026-04-25T10:51:21.229Z</time></trkpt><trkpt lat="45.702955" lon="10.1083167"><ele>192.5</ele><time>2026-04-25T10:51:22.229Z</time></trkpt><trkpt lat="45.7028183" lon="10.1083233"><ele>192.0</ele><time>2026-04-25T10:51:23.229Z</time></trkpt><trkpt lat="45.70268" lon="10.1083283"><ele>191.5</ele><time>2026-04-25T10:51:24.229Z</time></trkpt><trkpt lat="45.7025433" lon="10.1083333"><ele>191.0</ele><time>2026-04-25T10:51:25.229Z</time></trkpt><trkpt lat="45.7024083" lon="10.1083367"><ele>190.5</ele><time>2026-04-25T10:51:26.229Z</time></trkpt><trkpt lat="45.702275" lon="10.108335"><ele>190.0</ele><time>2026-04-25T10:51:27.229Z</time></trkpt><trkpt lat="45.7021433" lon="10.1083317"><ele>190.0</ele><time>2026-04-25T10:51:28.23Z</time></trkpt><trkpt lat="45.70201" lon="10.1083267"><ele>190.0</ele><time>2026-04-25T10:51:29.229Z</time></trkpt><trkpt lat="45.70188" lon="10.1083167"><ele>190.0</ele><time>2026-04-25T10:51:30.227Z</time></trkpt><trkpt lat="45.7017483" lon="10.1083033"><ele>190.0</ele><time>2026-04-25T10:51:31.228Z</time></trkpt><trkpt lat="45.70162" lon="10.1082783"><ele>189.5</ele><time>2026-04-25T10:51:32.228Z</time></trkpt><trkpt lat="45.7014933" lon="10.1082483"><ele>189.0</ele><time>2026-04-25T10:51:33.227Z</time></trkpt><trkpt lat="45.701365" lon="10.1082167"><ele>188.5</ele><time>2026-04-25T10:51:34.228Z</time></trkpt><trkpt lat="45.7012367" lon="10.1081883"><ele>188.0</ele><time>2026-04-25T10:51:35.227Z</time></trkpt><trkpt lat="45.701115" lon="10.1081567"><ele>186.5</ele><time>2026-04-25T10:51:36.227Z</time></trkpt><trkpt lat="45.7009967" lon="10.1081233"><ele>185.0</ele><time>2026-04-25T10:51:37.228Z</time></trkpt><trkpt lat="45.7008817" lon="10.108095"><ele>183.5</ele><time>2026-04-25T10:51:38.227Z</time></trkpt><trkpt lat="45.70077" lon="10.1080667"><ele>182.0</ele><time>2026-04-25T10:51:39.227Z</time></trkpt><trkpt lat="45.70066" lon="10.1080383"><ele>182.0</ele><time>2026-04-25T10:51:40.227Z</time></trkpt><trkpt lat="45.70055" lon="10.1080083"><ele>182.0</ele><time>2026-04-25T10:51:41.228Z</time></trkpt><trkpt lat="45.7004383" lon="10.1079717"><ele>182.0</ele><time>2026-04-25T10:51:42.227Z</time></trkpt><trkpt lat="45.7003233" lon="10.1079283"><ele>182.0</ele><time>2026-04-25T10:51:43.227Z</time></trkpt><trkpt lat="45.7002117" lon="10.1078833"><ele>182.25</ele><time>2026-04-25T10:51:44.229Z</time></trkpt><trkpt lat="45.7001033" lon="10.1078367"><ele>182.5</ele><time>2026-04-25T10:51:45.227Z</time></trkpt><trkpt lat="45.699995" lon="10.1077883"><ele>182.75</ele><time>2026-04-25T10:51:46.227Z</time></trkpt><trkpt lat="45.6998833" lon="10.1077267"><ele>183.0</ele><time>2026-04-25T10:51:47.227Z</time></trkpt><trkpt lat="45.6997733" lon="10.1076567"><ele>183.0</ele><time>2026-04-25T10:51:48.227Z</time></trkpt><trkpt lat="45.6996617" lon="10.10758"><ele>183.0</ele><time>2026-04-25T10:51:49.228Z</time></trkpt><trkpt lat="45.699545" lon="10.107505"><ele>183.0</ele><time>2026-04-25T10:51:50.228Z</time></trkpt><trkpt lat="45.69943" lon="10.107425"><ele>183.0</ele><time>2026-04-25T10:51:51.228Z</time></trkpt><trkpt lat="45.6993133" lon="10.1073433"><ele>183.0</ele><time>2026-04-25T10:51:52.227Z</time></trkpt><trkpt lat="45.699195" lon="10.1072617"><ele>183.0</ele><time>2026-04-25T10:51:53.228Z</time></trkpt><trkpt lat="45.69908" lon="10.10718"><ele>183.0</ele><time>2026-04-25T10:51:54.228Z</time></trkpt><trkpt lat="45.6989667" lon="10.1070967"><ele>183.0</ele><time>2026-04-25T10:51:55.227Z</time></trkpt><trkpt lat="45.6988533" lon="10.1070117"><ele>183.0</ele><time>2026-04-25T10:51:56.231Z</time></trkpt><trkpt lat="45.6987417" lon="10.1069217"><ele>183.0</ele><time>2026-04-25T10:51:57.229Z</time></trkpt><trkpt lat="45.6986267" lon="10.10683"><ele>183.0</ele><time>2026-04-25T10:51:58.228Z</time></trkpt><trkpt lat="45.6985133" lon="10.1067333"><ele>183.0</ele><time>2026-04-25T10:51:59.228Z</time></trkpt><trkpt lat="45.6984" lon="10.1066317"><ele>183.25</ele><time>2026-04-25T10:52:00.227Z</time></trkpt><trkpt lat="45.6982883" lon="10.1065267"><ele>183.5</ele><time>2026-04-25T10:52:01.227Z</time></trkpt><trkpt lat="45.6981717" lon="10.10642"><ele>183.75</ele><time>2026-04-25T10:52:02.227Z</time></trkpt><trkpt lat="45.6980533" lon="10.1063133"><ele>184.0</ele><time>2026-04-25T10:52:03.227Z</time></trkpt><trkpt lat="45.697935" lon="10.1062067"><ele>184.0</ele><time>2026-04-25T10:52:04.227Z</time></trkpt><trkpt lat="45.6978133" lon="10.1060983"><ele>184.0</ele><time>2026-04-25T10:52:05.229Z</time></trkpt><trkpt lat="45.6976917" lon="10.10599"><ele>184.0</ele><time>2026-04-25T10:52:06.227Z</time></trkpt><trkpt lat="45.6975717" lon="10.1058767"><ele>184.0</ele><time>2026-04-25T10:52:07.228Z</time></trkpt><trkpt lat="45.697455" lon="10.10576"><ele>183.75</ele><time>2026-04-25T10:52:08.227Z</time></trkpt><trkpt lat="45.6973383" lon="10.1056417"><ele>183.5</ele><time>2026-04-25T10:52:09.229Z</time></trkpt><trkpt lat="45.6972267" lon="10.10552"><ele>183.25</ele><time>2026-04-25T10:52:10.231Z</time></trkpt><trkpt lat="45.6971217" lon="10.105395"><ele>183.0</ele><time>2026-04-25T10:52:11.227Z</time></trkpt><trkpt lat="45.69702" lon="10.10527"><ele>183.0</ele><time>2026-04-25T10:52:12.227Z</time></trkpt><trkpt lat="45.6969217" lon="10.10515"><ele>183.0</ele><time>2026-04-25T10:52:13.227Z</time></trkpt><trkpt lat="45.696815" lon="10.1050417"><ele>183.0</ele><time>2026-04-25T10:52:14.228Z</time></trkpt><trkpt lat="45.6967033" lon="10.10494"><ele>183.0</ele><time>2026-04-25T10:52:15.227Z</time></trkpt><trkpt lat="45.69659" lon="10.1048433"><ele>183.0</ele><time>2026-04-25T10:52:16.227Z</time></trkpt><trkpt lat="45.6964733" lon="10.1047467"><ele>183.0</ele><time>2026-04-25T10:52:17.227Z</time></trkpt><trkpt lat="45.69636" lon="10.10465"><ele>183.0</ele><time>2026-04-25T10:52:18.228Z</time></trkpt><trkpt lat="45.6962483" lon="10.1045517"><ele>183.0</ele><time>2026-04-25T10:52:19.227Z</time></trkpt><trkpt lat="45.696135" lon="10.104455"><ele>184.25</ele><time>2026-04-25T10:52:20.227Z</time></trkpt><trkpt lat="45.6960167" lon="10.1043567"><ele>185.5</ele><time>2026-04-25T10:52:21.228Z</time></trkpt><trkpt lat="45.6959" lon="10.10426"><ele>186.75</ele><time>2026-04-25T10:52:22.229Z</time></trkpt><trkpt lat="45.6957733" lon="10.104175"><ele>188.0</ele><time>2026-04-25T10:52:23.228Z</time></trkpt><trkpt lat="45.6956417" lon="10.1041033"><ele>187.0</ele><time>2026-04-25T10:52:24.228Z</time></trkpt><trkpt lat="45.695505" lon="10.1040367"><ele>186.0</ele><time>2026-04-25T10:52:25.228Z</time></trkpt><trkpt lat="45.6953633" lon="10.1039767"><ele>185.0</ele><time>2026-04-25T10:52:26.228Z</time></trkpt><trkpt lat="45.69522" lon="10.1039117"><ele>184.0</ele><time>2026-04-25T10:52:27.228Z</time></trkpt><trkpt lat="45.695075" lon="10.1038483"><ele>184.0</ele><time>2026-04-25T10:52:28.229Z</time></trkpt><trkpt lat="45.69493" lon="10.103795"><ele>184.0</ele><time>2026-04-25T10:52:29.228Z</time></trkpt><trkpt lat="45.694785" lon="10.103755"><ele>184.0</ele><time>2026-04-25T10:52:30.228Z</time></trkpt><trkpt lat="45.6946383" lon="10.1037267"><ele>184.0</ele><time>2026-04-25T10:52:31.228Z</time></trkpt><trkpt lat="45.694495" lon="10.1037033"><ele>185.39999999999998</ele><time>2026-04-25T10:52:32.229Z</time></trkpt><trkpt lat="45.6943717" lon="10.103675"><ele>186.8</ele><time>2026-04-25T10:52:33.228Z</time></trkpt><trkpt lat="45.6942583" lon="10.1036583"><ele>188.2</ele><time>2026-04-25T10:52:34.227Z</time></trkpt><trkpt lat="45.6941567" lon="10.1036467"><ele>189.60000000000002</ele><time>2026-04-25T10:52:35.229Z</time></trkpt><trkpt lat="45.6940567" lon="10.1036317"><ele>191.0</ele><time>2026-04-25T10:52:36.228Z</time></trkpt><trkpt lat="45.6939617" lon="10.1036217"><ele>191.0</ele><time>2026-04-25T10:52:37.227Z</time></trkpt><trkpt lat="45.6938667" lon="10.1036083"><ele>191.0</ele><time>2026-04-25T10:52:38.228Z</time></trkpt><trkpt lat="45.6937633" lon="10.1035917"><ele>191.0</ele><time>2026-04-25T10:52:39.228Z</time></trkpt><trkpt lat="45.6936533" lon="10.1035767"><ele>191.0</ele><time>2026-04-25T10:52:40.228Z</time></trkpt><trkpt lat="45.693535" lon="10.1035583"><ele>191.0</ele><time>2026-04-25T10:52:41.227Z</time></trkpt><trkpt lat="45.6934133" lon="10.1035333"><ele>191.5</ele><time>2026-04-25T10:52:42.228Z</time></trkpt><trkpt lat="45.69328" lon="10.10351"><ele>192.0</ele><time>2026-04-25T10:52:43.228Z</time></trkpt><trkpt lat="45.6931433" lon="10.1034883"><ele>192.5</ele><time>2026-04-25T10:52:44.227Z</time></trkpt><trkpt lat="45.6930083" lon="10.1034633"><ele>193.0</ele><time>2026-04-25T10:52:45.229Z</time></trkpt><trkpt lat="45.6928833" lon="10.1034283"><ele>193.0</ele><time>2026-04-25T10:52:46.227Z</time></trkpt><trkpt lat="45.6927717" lon="10.1033783"><ele>193.0</ele><time>2026-04-25T10:52:47.227Z</time></trkpt><trkpt lat="45.6926633" lon="10.1033133"><ele>193.0</ele><time>2026-04-25T10:52:48.229Z</time></trkpt><trkpt lat="45.692555" lon="10.1032333"><ele>193.0</ele><time>2026-04-25T10:52:49.227Z</time></trkpt><trkpt lat="45.6924533" lon="10.1031317"><ele>191.0</ele><time>2026-04-25T10:52:50.227Z</time></trkpt><trkpt lat="45.6923583" lon="10.103015"><ele>189.0</ele><time>2026-04-25T10:52:51.229Z</time></trkpt><trkpt lat="45.6922733" lon="10.1028833"><ele>187.0</ele><time>2026-04-25T10:52:52.228Z</time></trkpt><trkpt lat="45.6921967" lon="10.10274"><ele>185.0</ele><time>2026-04-25T10:52:53.227Z</time></trkpt><trkpt lat="45.6921283" lon="10.1025917"><ele>185.0</ele><time>2026-04-25T10:52:54.229Z</time></trkpt><trkpt lat="45.6920633" lon="10.1024433"><ele>185.0</ele><time>2026-04-25T10:52:55.227Z</time></trkpt><trkpt lat="45.692" lon="10.1022983"><ele>185.0</ele><time>2026-04-25T10:52:56.227Z</time></trkpt><trkpt lat="45.6919417" lon="10.10216"><ele>185.0</ele><time>2026-04-25T10:52:57.228Z</time></trkpt><trkpt lat="45.6918933" lon="10.102025"><ele>185.0</ele><time>2026-04-25T10:52:58.227Z</time></trkpt><trkpt lat="45.69184" lon="10.1019033"><ele>185.0</ele><time>2026-04-25T10:52:59.228Z</time></trkpt><trkpt lat="45.691795" lon="10.10179"><ele>185.0</ele><time>2026-04-25T10:53:00.229Z</time></trkpt><trkpt lat="45.6917483" lon="10.101685"><ele>185.0</ele><time>2026-04-25T10:53:01.228Z</time></trkpt><trkpt lat="45.6917067" lon="10.101585"><ele>185.0</ele><time>2026-04-25T10:53:02.227Z</time></trkpt><trkpt lat="45.6916667" lon="10.1014933"><ele>185.0</ele><time>2026-04-25T10:53:03.228Z</time></trkpt><trkpt lat="45.6916317" lon="10.1014083"><ele>185.0</ele><time>2026-04-25T10:53:04.228Z</time></trkpt><trkpt lat="45.6915967" lon="10.1013283"><ele>185.0</ele><time>2026-04-25T10:53:05.228Z</time></trkpt><trkpt lat="45.6915267" lon="10.1011883"><ele>185.0</ele><time>2026-04-25T10:53:07.228Z</time></trkpt><trkpt lat="45.6914533" lon="10.1010767"><ele>185.0</ele><time>2026-04-25T10:53:09.227Z</time></trkpt><trkpt lat="45.6913567" lon="10.1009783"><ele>185.0</ele><time>2026-04-25T10:53:11.227Z</time></trkpt><trkpt lat="45.6913" lon="10.1009333"><ele>184.99999999999997</ele><time>2026-04-25T10:53:12.229Z</time></trkpt><trkpt lat="45.6912383" lon="10.1008933"><ele>185.0</ele><time>2026-04-25T10:53:13.228Z</time></trkpt><trkpt lat="45.6911717" lon="10.1008533"><ele>185.0</ele><time>2026-04-25T10:53:14.227Z</time></trkpt><trkpt lat="45.6911033" lon="10.100815"><ele>185.0</ele><time>2026-04-25T10:53:15.228Z</time></trkpt><trkpt lat="45.6910333" lon="10.1007733"><ele>185.0</ele><time>2026-04-25T10:53:16.228Z</time></trkpt><trkpt lat="45.6909633" lon="10.1007283"><ele>184.99999999999997</ele><time>2026-04-25T10:53:17.227Z</time></trkpt><trkpt lat="45.6908867" lon="10.1006833"><ele>185.0</ele><time>2026-04-25T10:53:18.228Z</time></trkpt><trkpt lat="45.690805" lon="10.1006333"><ele>185.5</ele><time>2026-04-25T10:53:19.23Z</time></trkpt><trkpt lat="45.6907217" lon="10.100585"><ele>186.0</ele><time>2026-04-25T10:53:20.23Z</time></trkpt><trkpt lat="45.6906417" lon="10.1005383"><ele>186.5</ele><time>2026-04-25T10:53:21.229Z</time></trkpt><trkpt lat="45.690565" lon="10.1004917"><ele>187.0</ele><time>2026-04-25T10:53:22.228Z</time></trkpt><trkpt lat="45.6904867" lon="10.1004517"><ele>187.5</ele><time>2026-04-25T10:53:23.229Z</time></trkpt><trkpt lat="45.6904217" lon="10.1004133"><ele>188.0</ele><time>2026-04-25T10:53:24.23Z</time></trkpt><trkpt lat="45.6903183" lon="10.1003417"><ele>189.0</ele><time>2026-04-25T10:53:26.227Z</time></trkpt><trkpt lat="45.6902367" lon="10.1002767"><ele>190.0</ele><time>2026-04-25T10:53:28.227Z</time></trkpt><trkpt lat="45.6901667" lon="10.1002117"><ele>191.0</ele><time>2026-04-25T10:53:30.228Z</time></trkpt><trkpt lat="45.690105" lon="10.1001567"><ele>192.0</ele><time>2026-04-25T10:53:32.229Z</time></trkpt><trkpt lat="45.6900417" lon="10.1001"><ele>193.00000000000003</ele><time>2026-04-25T10:53:34.228Z</time></trkpt><trkpt lat="45.68994" lon="10.1000267"><ele>194.0</ele><time>2026-04-25T10:53:36.229Z</time></trkpt><trkpt lat="45.6898783" lon="10.0999883"><ele>194.0</ele><time>2026-04-25T10:53:37.229Z</time></trkpt><trkpt lat="45.689765" lon="10.0999267"><ele>194.0</ele><time>2026-04-25T10:53:39.228Z</time></trkpt><trkpt lat="45.689665" lon="10.0998867"><ele>194.0</ele><time>2026-04-25T10:53:41.227Z</time></trkpt><trkpt lat="45.689535" lon="10.09986"><ele>194.0</ele><time>2026-04-25T10:53:43.227Z</time></trkpt><trkpt lat="45.689455" lon="10.0998267"><ele>194.0</ele><time>2026-04-25T10:53:44.227Z</time></trkpt><trkpt lat="45.6893667" lon="10.0997867"><ele>194.0</ele><time>2026-04-25T10:53:45.229Z</time></trkpt><trkpt lat="45.68928" lon="10.0997367"><ele>194.0</ele><time>2026-04-25T10:53:46.227Z</time></trkpt><trkpt lat="45.6891867" lon="10.099685"><ele>194.0</ele><time>2026-04-25T10:53:47.227Z</time></trkpt><trkpt lat="45.6890867" lon="10.09963"><ele>194.0</ele><time>2026-04-25T10:53:48.229Z</time></trkpt><trkpt lat="45.6889817" lon="10.0995733"><ele>194.0</ele><time>2026-04-25T10:53:49.228Z</time></trkpt><trkpt lat="45.6888783" lon="10.0995183"><ele>194.0</ele><time>2026-04-25T10:53:50.229Z</time></trkpt><trkpt lat="45.6887717" lon="10.0994633"><ele>194.0</ele><time>2026-04-25T10:53:51.231Z</time></trkpt><trkpt lat="45.6886633" lon="10.0993983"><ele>194.0</ele><time>2026-04-25T10:53:52.23Z</time></trkpt><trkpt lat="45.6885467" lon="10.09934"><ele>194.0</ele><time>2026-04-25T10:53:53.229Z</time></trkpt><trkpt lat="45.6884267" lon="10.0992717"><ele>194.5</ele><time>2026-04-25T10:53:54.23Z</time></trkpt><trkpt lat="45.6883017" lon="10.0992033"><ele>195.0</ele><time>2026-04-25T10:53:55.228Z</time></trkpt><trkpt lat="45.6881733" lon="10.09913"><ele>195.5</ele><time>2026-04-25T10:53:56.228Z</time></trkpt><trkpt lat="45.6880483" lon="10.0990583"><ele>196.0</ele><time>2026-04-25T10:53:57.23Z</time></trkpt><trkpt lat="45.6879283" lon="10.09899"><ele>195.0</ele><time>2026-04-25T10:53:58.229Z</time></trkpt><trkpt lat="45.6878083" lon="10.0989317"><ele>194.0</ele><time>2026-04-25T10:53:59.228Z</time></trkpt><trkpt lat="45.687695" lon="10.0988633"><ele>193.0</ele><time>2026-04-25T10:54:00.228Z</time></trkpt><trkpt lat="45.687585" lon="10.0987933"><ele>192.0</ele><time>2026-04-25T10:54:01.228Z</time></trkpt><trkpt lat="45.6874667" lon="10.0987417"><ele>192.0</ele><time>2026-04-25T10:54:02.228Z</time></trkpt><trkpt lat="45.6873533" lon="10.098675"><ele>192.0</ele><time>2026-04-25T10:54:03.229Z</time></trkpt><trkpt lat="45.6872383" lon="10.0986"><ele>192.0</ele><time>2026-04-25T10:54:04.228Z</time></trkpt><trkpt lat="45.6871217" lon="10.0985233"><ele>192.0</ele><time>2026-04-25T10:54:05.228Z</time></trkpt><trkpt lat="45.6870017" lon="10.09845"><ele>191.5</ele><time>2026-04-25T10:54:06.227Z</time></trkpt><trkpt lat="45.686885" lon="10.0983783"><ele>191.0</ele><time>2026-04-25T10:54:07.227Z</time></trkpt><trkpt lat="45.6867783" lon="10.09831"><ele>190.5</ele><time>2026-04-25T10:54:08.227Z</time></trkpt><trkpt lat="45.6866717" lon="10.0982433"><ele>190.0</ele><time>2026-04-25T10:54:09.228Z</time></trkpt><trkpt lat="45.6865633" lon="10.0981783"><ele>188.0</ele><time>2026-04-25T10:54:10.229Z</time></trkpt><trkpt lat="45.68645" lon="10.0981133"><ele>186.0</ele><time>2026-04-25T10:54:11.228Z</time></trkpt><trkpt lat="45.6863333" lon="10.0980467"><ele>184.0</ele><time>2026-04-25T10:54:12.229Z</time></trkpt><trkpt lat="45.686215" lon="10.097965"><ele>182.0</ele><time>2026-04-25T10:54:13.227Z</time></trkpt><trkpt lat="45.6860967" lon="10.0978667"><ele>182.75</ele><time>2026-04-25T10:54:14.228Z</time></trkpt><trkpt lat="45.6859817" lon="10.0977567"><ele>183.5</ele><time>2026-04-25T10:54:15.228Z</time></trkpt><trkpt lat="45.6858667" lon="10.097635"><ele>184.25</ele><time>2026-04-25T10:54:16.228Z</time></trkpt><trkpt lat="45.68576" lon="10.0975133"><ele>185.0</ele><time>2026-04-25T10:54:17.228Z</time></trkpt><trkpt lat="45.6856617" lon="10.09738"><ele>185.0</ele><time>2026-04-25T10:54:18.228Z</time></trkpt><trkpt lat="45.6855683" lon="10.09723"><ele>185.0</ele><time>2026-04-25T10:54:19.229Z</time></trkpt><trkpt lat="45.685485" lon="10.0970533"><ele>185.0</ele><time>2026-04-25T10:54:20.229Z</time></trkpt><trkpt lat="45.6854167" lon="10.09686"><ele>185.0</ele><time>2026-04-25T10:54:21.229Z</time></trkpt><trkpt lat="45.6853533" lon="10.09666"><ele>184.5</ele><time>2026-04-25T10:54:22.227Z</time></trkpt><trkpt lat="45.6852867" lon="10.09646"><ele>184.0</ele><time>2026-04-25T10:54:23.228Z</time></trkpt><trkpt lat="45.68522" lon="10.0962783"><ele>183.5</ele><time>2026-04-25T10:54:24.228Z</time></trkpt><trkpt lat="45.6851417" lon="10.0961117"><ele>183.0</ele><time>2026-04-25T10:54:25.227Z</time></trkpt><trkpt lat="45.6850433" lon="10.0959517"><ele>183.66666666666666</ele><time>2026-04-25T10:54:26.227Z</time></trkpt><trkpt lat="45.6849317" lon="10.0958017"><ele>184.33333333333331</ele><time>2026-04-25T10:54:27.229Z</time></trkpt><trkpt lat="45.6848167" lon="10.095655"><ele>185.0</ele><time>2026-04-25T10:54:28.228Z</time></trkpt><trkpt lat="45.6847117" lon="10.0955083"><ele>185.0</ele><time>2026-04-25T10:54:29.228Z</time></trkpt><trkpt lat="45.684625" lon="10.09536"><ele>185.0</ele><time>2026-04-25T10:54:30.227Z</time></trkpt><trkpt lat="45.6845517" lon="10.0951983"><ele>185.0</ele><time>2026-04-25T10:54:31.228Z</time></trkpt><trkpt lat="45.68448" lon="10.095025"><ele>185.0</ele><time>2026-04-25T10:54:32.228Z</time></trkpt><trkpt lat="45.6844083" lon="10.09485"><ele>185.75</ele><time>2026-04-25T10:54:33.23Z</time></trkpt><trkpt lat="45.6843333" lon="10.0946817"><ele>186.5</ele><time>2026-04-25T10:54:34.227Z</time></trkpt><trkpt lat="45.6842483" lon="10.0945133"><ele>187.25</ele><time>2026-04-25T10:54:35.227Z</time></trkpt><trkpt lat="45.6841517" lon="10.0943617"><ele>188.0</ele><time>2026-04-25T10:54:36.227Z</time></trkpt><trkpt lat="45.6840433" lon="10.0942183"><ele>188.75</ele><time>2026-04-25T10:54:37.227Z</time></trkpt><trkpt lat="45.6839267" lon="10.0940817"><ele>189.5</ele><time>2026-04-25T10:54:38.227Z</time></trkpt><trkpt lat="45.6838133" lon="10.0939433"><ele>190.25</ele><time>2026-04-25T10:54:39.229Z</time></trkpt><trkpt lat="45.6836967" lon="10.09381"><ele>191.0</ele><time>2026-04-25T10:54:40.227Z</time></trkpt><trkpt lat="45.6835817" lon="10.0936817"><ele>191.0</ele><time>2026-04-25T10:54:41.229Z</time></trkpt><trkpt lat="45.683465" lon="10.0935533"><ele>191.0</ele><time>2026-04-25T10:54:42.228Z</time></trkpt><trkpt lat="45.6833483" lon="10.093425"><ele>191.0</ele><time>2026-04-25T10:54:43.228Z</time></trkpt><trkpt lat="45.6832333" lon="10.0932967"><ele>191.0</ele><time>2026-04-25T10:54:44.227Z</time></trkpt><trkpt lat="45.68311" lon="10.09317"><ele>190.66666666666666</ele><time>2026-04-25T10:54:45.23Z</time></trkpt><trkpt lat="45.6829833" lon="10.09305"><ele>190.33333333333334</ele><time>2026-04-25T10:54:46.228Z</time></trkpt><trkpt lat="45.6828533" lon="10.092925"><ele>190.0</ele><time>2026-04-25T10:54:47.228Z</time></trkpt><trkpt lat="45.682725" lon="10.0928017"><ele>190.0</ele><time>2026-04-25T10:54:48.229Z</time></trkpt><trkpt lat="45.6826067" lon="10.0926783"><ele>190.0</ele><time>2026-04-25T10:54:49.228Z</time></trkpt><trkpt lat="45.6824917" lon="10.092565"><ele>190.0</ele><time>2026-04-25T10:54:50.228Z</time></trkpt><trkpt lat="45.6823833" lon="10.0924633"><ele>190.0</ele><time>2026-04-25T10:54:51.228Z</time></trkpt><trkpt lat="45.6822733" lon="10.0923717"><ele>189.5</ele><time>2026-04-25T10:54:52.228Z</time></trkpt><trkpt lat="45.68216" lon="10.0922817"><ele>189.0</ele><time>2026-04-25T10:54:53.231Z</time></trkpt><trkpt lat="45.682045" lon="10.09219"><ele>188.5</ele><time>2026-04-25T10:54:54.229Z</time></trkpt><trkpt lat="45.681925" lon="10.0920983"><ele>188.0</ele><time>2026-04-25T10:54:55.229Z</time></trkpt><trkpt lat="45.6818033" lon="10.0920033"><ele>188.0</ele><time>2026-04-25T10:54:56.229Z</time></trkpt><trkpt lat="45.6816783" lon="10.0919033"><ele>188.0</ele><time>2026-04-25T10:54:57.228Z</time></trkpt><trkpt lat="45.6815517" lon="10.0917983"><ele>188.0</ele><time>2026-04-25T10:54:58.228Z</time></trkpt><trkpt lat="45.681425" lon="10.0916867"><ele>188.0</ele><time>2026-04-25T10:54:59.227Z</time></trkpt><trkpt lat="45.6813" lon="10.091565"><ele>187.33333333333331</ele><time>2026-04-25T10:55:00.227Z</time></trkpt><trkpt lat="45.681175" lon="10.0914317"><ele>186.66666666666666</ele><time>2026-04-25T10:55:01.228Z</time></trkpt><trkpt lat="45.6810517" lon="10.0912883"><ele>186.0</ele><time>2026-04-25T10:55:02.228Z</time></trkpt><trkpt lat="45.6809283" lon="10.0911417"><ele>186.0</ele><time>2026-04-25T10:55:03.228Z</time></trkpt><trkpt lat="45.6808083" lon="10.0909933"><ele>186.0</ele><time>2026-04-25T10:55:04.227Z</time></trkpt><trkpt lat="45.6806883" lon="10.0908467"><ele>186.0</ele><time>2026-04-25T10:55:05.227Z</time></trkpt><trkpt lat="45.68057" lon="10.0907"><ele>186.33333333333334</ele><time>2026-04-25T10:55:06.227Z</time></trkpt><trkpt lat="45.6804533" lon="10.0905517"><ele>186.66666666666669</ele><time>2026-04-25T10:55:07.229Z</time></trkpt><trkpt lat="45.6803367" lon="10.090405"><ele>187.0</ele><time>2026-04-25T10:55:08.227Z</time></trkpt><trkpt lat="45.6802233" lon="10.0902633"><ele>187.0</ele><time>2026-04-25T10:55:09.227Z</time></trkpt><trkpt lat="45.6801117" lon="10.0901217"><ele>187.0</ele><time>2026-04-25T10:55:10.23Z</time></trkpt><trkpt lat="45.6799967" lon="10.0899817"><ele>187.0</ele><time>2026-04-25T10:55:11.228Z</time></trkpt><trkpt lat="45.679885" lon="10.0898467"><ele>187.0</ele><time>2026-04-25T10:55:12.227Z</time></trkpt><trkpt lat="45.679775" lon="10.0897117"><ele>186.5</ele><time>2026-04-25T10:55:13.228Z</time></trkpt><trkpt lat="45.6796667" lon="10.0895767"><ele>186.0</ele><time>2026-04-25T10:55:14.229Z</time></trkpt><trkpt lat="45.6795583" lon="10.0894433"><ele>185.5</ele><time>2026-04-25T10:55:15.229Z</time></trkpt><trkpt lat="45.679455" lon="10.0893083"><ele>185.0</ele><time>2026-04-25T10:55:16.227Z</time></trkpt><trkpt lat="45.67936" lon="10.08917"><ele>185.0</ele><time>2026-04-25T10:55:17.228Z</time></trkpt><trkpt lat="45.67927" lon="10.08903"><ele>185.0</ele><time>2026-04-25T10:55:18.228Z</time></trkpt><trkpt lat="45.6791867" lon="10.0888867"><ele>185.0</ele><time>2026-04-25T10:55:19.227Z</time></trkpt><trkpt lat="45.679105" lon="10.0887433"><ele>185.0</ele><time>2026-04-25T10:55:20.228Z</time></trkpt><trkpt lat="45.6790283" lon="10.088605"><ele>185.0</ele><time>2026-04-25T10:55:21.228Z</time></trkpt><trkpt lat="45.6789533" lon="10.0884683"><ele>185.0</ele><time>2026-04-25T10:55:22.228Z</time></trkpt><trkpt lat="45.67888" lon="10.088335"><ele>185.0</ele><time>2026-04-25T10:55:23.23Z</time></trkpt><trkpt lat="45.678815" lon="10.0881967"><ele>185.0</ele><time>2026-04-25T10:55:24.228Z</time></trkpt><trkpt lat="45.6787583" lon="10.0880517"><ele>184.5</ele><time>2026-04-25T10:55:25.228Z</time></trkpt><trkpt lat="45.6787133" lon="10.0878967"><ele>184.0</ele><time>2026-04-25T10:55:26.227Z</time></trkpt><trkpt lat="45.67868" lon="10.08773"><ele>183.5</ele><time>2026-04-25T10:55:27.228Z</time></trkpt><trkpt lat="45.6786533" lon="10.0875433"><ele>183.0</ele><time>2026-04-25T10:55:28.229Z</time></trkpt><trkpt lat="45.6786233" lon="10.0873517"><ele>184.75</ele><time>2026-04-25T10:55:29.227Z</time></trkpt><trkpt lat="45.6785883" lon="10.08716"><ele>186.5</ele><time>2026-04-25T10:55:30.227Z</time></trkpt><trkpt lat="45.67854" lon="10.0869683"><ele>188.25</ele><time>2026-04-25T10:55:31.227Z</time></trkpt><trkpt lat="45.6784833" lon="10.086785"><ele>190.0</ele><time>2026-04-25T10:55:32.229Z</time></trkpt><trkpt lat="45.67842" lon="10.0866"><ele>189.75</ele><time>2026-04-25T10:55:33.229Z</time></trkpt><trkpt lat="45.6783567" lon="10.08642"><ele>189.5</ele><time>2026-04-25T10:55:34.242Z</time></trkpt><trkpt lat="45.678295" lon="10.0862383"><ele>189.25</ele><time>2026-04-25T10:55:35.228Z</time></trkpt><trkpt lat="45.6782317" lon="10.0860533"><ele>189.0</ele><time>2026-04-25T10:55:36.229Z</time></trkpt><trkpt lat="45.6781683" lon="10.0858733"><ele>188.5</ele><time>2026-04-25T10:55:37.229Z</time></trkpt><trkpt lat="45.678105" lon="10.0856917"><ele>188.0</ele><time>2026-04-25T10:55:38.227Z</time></trkpt><trkpt lat="45.678035" lon="10.0855117"><ele>187.5</ele><time>2026-04-25T10:55:39.229Z</time></trkpt><trkpt lat="45.6779633" lon="10.0853383"><ele>187.0</ele><time>2026-04-25T10:55:40.227Z</time></trkpt><trkpt lat="45.6778867" lon="10.0851733"><ele>187.0</ele><time>2026-04-25T10:55:41.228Z</time></trkpt><trkpt lat="45.6778067" lon="10.0850167"><ele>187.0</ele><time>2026-04-25T10:55:42.228Z</time></trkpt><trkpt lat="45.6777333" lon="10.0848733"><ele>187.0</ele><time>2026-04-25T10:55:43.232Z</time></trkpt><trkpt lat="45.6776617" lon="10.0847467"><ele>187.0</ele><time>2026-04-25T10:55:44.227Z</time></trkpt><trkpt lat="45.6775983" lon="10.0846283"><ele>187.6</ele><time>2026-04-25T10:55:45.228Z</time></trkpt><trkpt lat="45.6775317" lon="10.0845183"><ele>188.2</ele><time>2026-04-25T10:55:46.229Z</time></trkpt><trkpt lat="45.6774617" lon="10.084415"><ele>188.8</ele><time>2026-04-25T10:55:47.229Z</time></trkpt><trkpt lat="45.67738" lon="10.0843217"><ele>189.4</ele><time>2026-04-25T10:55:48.228Z</time></trkpt><trkpt lat="45.6772933" lon="10.0842433"><ele>190.0</ele><time>2026-04-25T10:55:49.227Z</time></trkpt><trkpt lat="45.6772017" lon="10.0841767"><ele>190.0</ele><time>2026-04-25T10:55:50.227Z</time></trkpt><trkpt lat="45.6771067" lon="10.0841017"><ele>190.0</ele><time>2026-04-25T10:55:51.229Z</time></trkpt><trkpt lat="45.6770183" lon="10.0839983"><ele>190.0</ele><time>2026-04-25T10:55:52.228Z</time></trkpt><trkpt lat="45.6769367" lon="10.083875"><ele>190.0</ele><time>2026-04-25T10:55:53.227Z</time></trkpt><trkpt lat="45.6768683" lon="10.0837383"><ele>190.75</ele><time>2026-04-25T10:55:54.229Z</time></trkpt><trkpt lat="45.6768017" lon="10.0836017"><ele>191.5</ele><time>2026-04-25T10:55:55.227Z</time></trkpt><trkpt lat="45.6767333" lon="10.0834717"><ele>192.25</ele><time>2026-04-25T10:55:56.227Z</time></trkpt><trkpt lat="45.6766617" lon="10.0833433"><ele>193.0</ele><time>2026-04-25T10:55:57.228Z</time></trkpt><trkpt lat="45.6765867" lon="10.0832117"><ele>193.25</ele><time>2026-04-25T10:55:58.228Z</time></trkpt><trkpt lat="45.6765033" lon="10.0830817"><ele>193.5</ele><time>2026-04-25T10:55:59.227Z</time></trkpt><trkpt lat="45.6764133" lon="10.0829533"><ele>193.75</ele><time>2026-04-25T10:56:00.227Z</time></trkpt><trkpt lat="45.6763217" lon="10.0828217"><ele>194.0</ele><time>2026-04-25T10:56:01.229Z</time></trkpt><trkpt lat="45.6762283" lon="10.0826833"><ele>194.0</ele><time>2026-04-25T10:56:02.228Z</time></trkpt><trkpt lat="45.6761317" lon="10.0825383"><ele>194.0</ele><time>2026-04-25T10:56:03.229Z</time></trkpt><trkpt lat="45.6760333" lon="10.0823883"><ele>194.0</ele><time>2026-04-25T10:56:04.228Z</time></trkpt><trkpt lat="45.6759367" lon="10.082245"><ele>194.0</ele><time>2026-04-25T10:56:05.227Z</time></trkpt><trkpt lat="45.6758433" lon="10.0821033"><ele>193.25</ele><time>2026-04-25T10:56:06.229Z</time></trkpt><trkpt lat="45.675755" lon="10.0819683"><ele>192.5</ele><time>2026-04-25T10:56:07.227Z</time></trkpt><trkpt lat="45.6756733" lon="10.0818367"><ele>191.75</ele><time>2026-04-25T10:56:08.227Z</time></trkpt><trkpt lat="45.67559" lon="10.0817067"><ele>191.0</ele><time>2026-04-25T10:56:09.229Z</time></trkpt><trkpt lat="45.6755" lon="10.0815767"><ele>191.25</ele><time>2026-04-25T10:56:10.23Z</time></trkpt><trkpt lat="45.67541" lon="10.0814467"><ele>191.5</ele><time>2026-04-25T10:56:11.228Z</time></trkpt><trkpt lat="45.6753217" lon="10.0813267"><ele>191.75</ele><time>2026-04-25T10:56:12.228Z</time></trkpt><trkpt lat="45.6752383" lon="10.08121"><ele>192.0</ele><time>2026-04-25T10:56:13.228Z</time></trkpt><trkpt lat="45.675155" lon="10.08109"><ele>192.0</ele><time>2026-04-25T10:56:14.229Z</time></trkpt><trkpt lat="45.6750683" lon="10.08097"><ele>192.0</ele><time>2026-04-25T10:56:15.229Z</time></trkpt><trkpt lat="45.6749767" lon="10.0808433"><ele>192.0</ele><time>2026-04-25T10:56:16.227Z</time></trkpt><trkpt lat="45.6748833" lon="10.0807183"><ele>192.0</ele><time>2026-04-25T10:56:17.227Z</time></trkpt><trkpt lat="45.6747883" lon="10.0805933"><ele>191.5</ele><time>2026-04-25T10:56:18.229Z</time></trkpt><trkpt lat="45.6746983" lon="10.080465"><ele>191.0</ele><time>2026-04-25T10:56:19.229Z</time></trkpt><trkpt lat="45.67461" lon="10.0803383"><ele>190.5</ele><time>2026-04-25T10:56:20.229Z</time></trkpt><trkpt lat="45.6745283" lon="10.0802283"><ele>190.0</ele><time>2026-04-25T10:56:21.228Z</time></trkpt><trkpt lat="45.6744567" lon="10.080135"><ele>190.16666666666669</ele><time>2026-04-25T10:56:22.229Z</time></trkpt><trkpt lat="45.6743933" lon="10.08005"><ele>190.33333333333334</ele><time>2026-04-25T10:56:23.229Z</time></trkpt><trkpt lat="45.674335" lon="10.0799733"><ele>190.5</ele><time>2026-04-25T10:56:24.228Z</time></trkpt><trkpt lat="45.6742783" lon="10.0798933"><ele>190.66666666666666</ele><time>2026-04-25T10:56:25.229Z</time></trkpt><trkpt lat="45.6742217" lon="10.0798133"><ele>190.83333333333331</ele><time>2026-04-25T10:56:26.228Z</time></trkpt><trkpt lat="45.6741583" lon="10.0797283"><ele>191.0</ele><time>2026-04-25T10:56:27.228Z</time></trkpt><trkpt lat="45.674095" lon="10.0796433"><ele>191.0</ele><time>2026-04-25T10:56:28.228Z</time></trkpt><trkpt lat="45.6740433" lon="10.0795633"><ele>191.0</ele><time>2026-04-25T10:56:29.228Z</time></trkpt><trkpt lat="45.6739917" lon="10.0794617"><ele>191.0</ele><time>2026-04-25T10:56:31.23Z</time></trkpt><trkpt lat="45.6739283" lon="10.0794533"><ele>191.0</ele><time>2026-04-25T10:56:58.228Z</time></trkpt><trkpt lat="45.6739217" lon="10.0795467"><ele>191.0</ele><time>2026-04-25T10:57:01.228Z</time></trkpt><trkpt lat="45.6739733" lon="10.0796533"><ele>191.0</ele><time>2026-04-25T10:57:04.227Z</time></trkpt><trkpt lat="45.6740533" lon="10.07975"><ele>191.0</ele><time>2026-04-25T10:57:06.228Z</time></trkpt><trkpt lat="45.6741083" lon="10.0798067"><ele>191.0</ele><time>2026-04-25T10:57:07.228Z</time></trkpt><trkpt lat="45.67416" lon="10.0798667"><ele>191.0</ele><time>2026-04-25T10:57:08.229Z</time></trkpt><trkpt lat="45.67421" lon="10.0799283"><ele>191.0</ele><time>2026-04-25T10:57:09.23Z</time></trkpt><trkpt lat="45.6742633" lon="10.0799967"><ele>191.0</ele><time>2026-04-25T10:57:10.228Z</time></trkpt><trkpt lat="45.6743233" lon="10.0800717"><ele>191.0</ele><time>2026-04-25T10:57:11.228Z</time></trkpt><trkpt lat="45.674385" lon="10.0801467"><ele>191.0</ele><time>2026-04-25T10:57:12.228Z</time></trkpt><trkpt lat="45.67444" lon="10.0802133"><ele>190.83333333333331</ele><time>2026-04-25T10:57:13.228Z</time></trkpt><trkpt lat="45.6744867" lon="10.0802767"><ele>190.66666666666666</ele><time>2026-04-25T10:57:14.228Z</time></trkpt><trkpt lat="45.6745333" lon="10.08034"><ele>190.5</ele><time>2026-04-25T10:57:15.23Z</time></trkpt><trkpt lat="45.6746283" lon="10.08045"><ele>190.33333333333334</ele><time>2026-04-25T10:57:17.229Z</time></trkpt><trkpt lat="45.6746833" lon="10.0805167"><ele>190.16666666666669</ele><time>2026-04-25T10:57:18.231Z</time></trkpt><trkpt lat="45.6747367" lon="10.0805917"><ele>190.0</ele><time>2026-04-25T10:57:19.229Z</time></trkpt><trkpt lat="45.6747967" lon="10.0806783"><ele>190.4</ele><time>2026-04-25T10:57:20.228Z</time></trkpt><trkpt lat="45.674865" lon="10.080775"><ele>190.8</ele><time>2026-04-25T10:57:21.228Z</time></trkpt><trkpt lat="45.6749333" lon="10.080875"><ele>191.2</ele><time>2026-04-25T10:57:22.23Z</time></trkpt><trkpt lat="45.6750033" lon="10.080975"><ele>191.6</ele><time>2026-04-25T10:57:23.229Z</time></trkpt><trkpt lat="45.6750733" lon="10.0810733"><ele>192.0</ele><time>2026-04-25T10:57:24.228Z</time></trkpt><trkpt lat="45.6751433" lon="10.08117"><ele>192.0</ele><time>2026-04-25T10:57:25.228Z</time></trkpt><trkpt lat="45.6752117" lon="10.0812617"><ele>192.0</ele><time>2026-04-25T10:57:26.23Z</time></trkpt><trkpt lat="45.6752767" lon="10.0813433"><ele>192.0</ele><time>2026-04-25T10:57:27.229Z</time></trkpt><trkpt lat="45.6753267" lon="10.081415"><ele>192.0</ele><time>2026-04-25T10:57:28.229Z</time></trkpt><trkpt lat="45.6754083" lon="10.08152"><ele>192.0</ele><time>2026-04-25T10:57:30.228Z</time></trkpt><trkpt lat="45.675475" lon="10.0815467"><ele>192.0</ele><time>2026-04-25T10:57:32.228Z</time></trkpt><trkpt lat="45.675515" lon="10.08146"><ele>192.0</ele><time>2026-04-25T10:57:35.229Z</time></trkpt><trkpt lat="45.6754867" lon="10.08137"><ele>192.0</ele><time>2026-04-25T10:57:38.229Z</time></trkpt><trkpt lat="45.675425" lon="10.081295"><ele>192.0</ele><time>2026-04-25T10:57:40.229Z</time></trkpt><trkpt lat="45.6753367" lon="10.0812033"><ele>192.0</ele><time>2026-04-25T10:57:42.227Z</time></trkpt><trkpt lat="45.6752633" lon="10.08113"><ele>192.0</ele><time>2026-04-25T10:57:44.23Z</time></trkpt><trkpt lat="45.6752033" lon="10.0810883"><ele>192.0</ele><time>2026-04-25T10:57:46.23Z</time></trkpt><trkpt lat="45.6751417" lon="10.0810417"><ele>192.0</ele><time>2026-04-25T10:57:48.227Z</time></trkpt><trkpt lat="45.6750667" lon="10.0809717"><ele>192.0</ele><time>2026-04-25T10:57:50.227Z</time></trkpt><trkpt lat="45.674985" lon="10.0808633"><ele>192.0</ele><time>2026-04-25T10:57:52.227Z</time></trkpt><trkpt lat="45.67494" lon="10.080795"><ele>192.0</ele><time>2026-04-25T10:57:53.228Z</time></trkpt><trkpt lat="45.67489" lon="10.080725"><ele>192.0</ele><time>2026-04-25T10:57:54.227Z</time></trkpt><trkpt lat="45.674835" lon="10.080655"><ele>192.0</ele><time>2026-04-25T10:57:55.227Z</time></trkpt><trkpt lat="45.6747833" lon="10.0805867"><ele>191.66666666666666</ele><time>2026-04-25T10:57:56.228Z</time></trkpt><trkpt lat="45.6747383" lon="10.0805217"><ele>191.33333333333334</ele><time>2026-04-25T10:57:57.227Z</time></trkpt><trkpt lat="45.6746533" lon="10.0804"><ele>191.0</ele><time>2026-04-25T10:57:59.227Z</time></trkpt><trkpt lat="45.6745917" lon="10.0803067"><ele>190.66666666666669</ele><time>2026-04-25T10:58:01.228Z</time></trkpt><trkpt lat="45.6745483" lon="10.08021"><ele>190.33333333333334</ele><time>2026-04-25T10:58:04.227Z</time></trkpt><trkpt lat="45.6744683" lon="10.08015"><ele>190.0</ele><time>2026-04-25T10:58:52.227Z</time></trkpt><trkpt lat="45.67438" lon="10.080055"><ele>190.2</ele><time>2026-04-25T10:58:54.228Z</time></trkpt><trkpt lat="45.6743233" lon="10.0799767"><ele>190.4</ele><time>2026-04-25T10:58:55.228Z</time></trkpt><trkpt lat="45.67426" lon="10.07989"><ele>190.60000000000002</ele><time>2026-04-25T10:58:56.227Z</time></trkpt><trkpt lat="45.6741933" lon="10.07979"><ele>190.8</ele><time>2026-04-25T10:58:57.229Z</time></trkpt><trkpt lat="45.6741167" lon="10.079675"><ele>191.0</ele><time>2026-04-25T10:58:58.228Z</time></trkpt><trkpt lat="45.6740317" lon="10.07955"><ele>191.0</ele><time>2026-04-25T10:58:59.228Z</time></trkpt><trkpt lat="45.6739483" lon="10.079425"><ele>191.0</ele><time>2026-04-25T10:59:00.228Z</time></trkpt><trkpt lat="45.6738667" lon="10.0793067"><ele>191.0</ele><time>2026-04-25T10:59:01.228Z</time></trkpt><trkpt lat="45.6737883" lon="10.0792"><ele>191.0</ele><time>2026-04-25T10:59:02.229Z</time></trkpt><trkpt lat="45.6737117" lon="10.0791017"><ele>191.0</ele><time>2026-04-25T10:59:03.228Z</time></trkpt><trkpt lat="45.6736367" lon="10.0790083"><ele>191.0</ele><time>2026-04-25T10:59:04.227Z</time></trkpt><trkpt lat="45.6735617" lon="10.0789183"><ele>191.0</ele><time>2026-04-25T10:59:05.228Z</time></trkpt><trkpt lat="45.6734767" lon="10.0788317"><ele>191.0</ele><time>2026-04-25T10:59:06.227Z</time></trkpt><trkpt lat="45.6733867" lon="10.07875"><ele>191.0</ele><time>2026-04-25T10:59:07.23Z</time></trkpt><trkpt lat="45.6732917" lon="10.0786667"><ele>191.0</ele><time>2026-04-25T10:59:08.231Z</time></trkpt><trkpt lat="45.673195" lon="10.0785867"><ele>191.0</ele><time>2026-04-25T10:59:09.229Z</time></trkpt><trkpt lat="45.6730967" lon="10.0785083"><ele>191.0</ele><time>2026-04-25T10:59:10.233Z</time></trkpt><trkpt lat="45.673" lon="10.078425"><ele>191.0</ele><time>2026-04-25T10:59:11.231Z</time></trkpt><trkpt lat="45.6729033" lon="10.0783333"><ele>191.0</ele><time>2026-04-25T10:59:12.229Z</time></trkpt><trkpt lat="45.67281" lon="10.0782333"><ele>190.75</ele><time>2026-04-25T10:59:13.228Z</time></trkpt><trkpt lat="45.6727167" lon="10.0781283"><ele>190.5</ele><time>2026-04-25T10:59:14.228Z</time></trkpt><trkpt lat="45.672625" lon="10.0780167"><ele>190.25</ele><time>2026-04-25T10:59:15.228Z</time></trkpt><trkpt lat="45.6725333" lon="10.0779"><ele>190.0</ele><time>2026-04-25T10:59:16.228Z</time></trkpt><trkpt lat="45.672445" lon="10.0777817"><ele>190.0</ele><time>2026-04-25T10:59:17.227Z</time></trkpt><trkpt lat="45.6723583" lon="10.07766"><ele>190.0</ele><time>2026-04-25T10:59:18.227Z</time></trkpt><trkpt lat="45.672275" lon="10.0775383"><ele>190.0</ele><time>2026-04-25T10:59:19.227Z</time></trkpt><trkpt lat="45.67219" lon="10.07742"><ele>190.0</ele><time>2026-04-25T10:59:20.228Z</time></trkpt><trkpt lat="45.672105" lon="10.0773033"><ele>189.75</ele><time>2026-04-25T10:59:21.228Z</time></trkpt><trkpt lat="45.6720183" lon="10.0771867"><ele>189.5</ele><time>2026-04-25T10:59:22.228Z</time></trkpt><trkpt lat="45.6719317" lon="10.0770683"><ele>189.25</ele><time>2026-04-25T10:59:23.228Z</time></trkpt><trkpt lat="45.6718483" lon="10.0769517"><ele>189.0</ele><time>2026-04-25T10:59:24.229Z</time></trkpt><trkpt lat="45.671765" lon="10.0768333"><ele>189.0</ele><time>2026-04-25T10:59:25.227Z</time></trkpt><trkpt lat="45.6716833" lon="10.0767133"><ele>189.0</ele><time>2026-04-25T10:59:26.228Z</time></trkpt><trkpt lat="45.6716" lon="10.0765933"><ele>189.0</ele><time>2026-04-25T10:59:27.229Z</time></trkpt><trkpt lat="45.6715117" lon="10.07647"><ele>189.0</ele><time>2026-04-25T10:59:28.228Z</time></trkpt><trkpt lat="45.67142" lon="10.0763483"><ele>189.0</ele><time>2026-04-25T10:59:29.231Z</time></trkpt><trkpt lat="45.6713233" lon="10.07623"><ele>189.0</ele><time>2026-04-25T10:59:30.229Z</time></trkpt><trkpt lat="45.6712267" lon="10.0761183"><ele>189.0</ele><time>2026-04-25T10:59:31.231Z</time></trkpt><trkpt lat="45.6711317" lon="10.0760083"><ele>189.0</ele><time>2026-04-25T10:59:32.229Z</time></trkpt><trkpt lat="45.6710333" lon="10.075895"><ele>189.0</ele><time>2026-04-25T10:59:33.229Z</time></trkpt><trkpt lat="45.67093" lon="10.075775"><ele>189.0</ele><time>2026-04-25T10:59:34.229Z</time></trkpt><trkpt lat="45.6708217" lon="10.075655"><ele>189.0</ele><time>2026-04-25T10:59:35.237Z</time></trkpt><trkpt lat="45.67071" lon="10.0755333"><ele>189.0</ele><time>2026-04-25T10:59:36.229Z</time></trkpt><trkpt lat="45.6705933" lon="10.0754067"><ele>188.0</ele><time>2026-04-25T10:59:37.229Z</time></trkpt><trkpt lat="45.6704733" lon="10.0752733"><ele>187.0</ele><time>2026-04-25T10:59:38.23Z</time></trkpt><trkpt lat="45.67035" lon="10.0751383"><ele>186.0</ele><time>2026-04-25T10:59:39.229Z</time></trkpt><trkpt lat="45.6702317" lon="10.0749983"><ele>186.66666666666666</ele><time>2026-04-25T10:59:40.229Z</time></trkpt><trkpt lat="45.6701167" lon="10.0748483"><ele>187.33333333333331</ele><time>2026-04-25T10:59:41.23Z</time></trkpt><trkpt lat="45.670005" lon="10.074685"><ele>188.0</ele><time>2026-04-25T10:59:42.23Z</time></trkpt><trkpt lat="45.6698983" lon="10.07451"><ele>188.0</ele><time>2026-04-25T10:59:43.229Z</time></trkpt><trkpt lat="45.669795" lon="10.0743283"><ele>188.0</ele><time>2026-04-25T10:59:44.229Z</time></trkpt><trkpt lat="45.6696883" lon="10.0741367"><ele>188.0</ele><time>2026-04-25T10:59:45.229Z</time></trkpt><trkpt lat="45.669585" lon="10.073945"><ele>189.0</ele><time>2026-04-25T10:59:46.227Z</time></trkpt><trkpt lat="45.6694817" lon="10.07375"><ele>190.0</ele><time>2026-04-25T10:59:47.229Z</time></trkpt><trkpt lat="45.6693833" lon="10.0735567"><ele>191.0</ele><time>2026-04-25T10:59:48.229Z</time></trkpt><trkpt lat="45.66929" lon="10.0733567"><ele>190.33333333333331</ele><time>2026-04-25T10:59:49.235Z</time></trkpt><trkpt lat="45.6692" lon="10.0731517"><ele>189.66666666666666</ele><time>2026-04-25T10:59:50.229Z</time></trkpt><trkpt lat="45.6691117" lon="10.0729433"><ele>189.0</ele><time>2026-04-25T10:59:51.229Z</time></trkpt><trkpt lat="45.669025" lon="10.0727317"><ele>189.0</ele><time>2026-04-25T10:59:52.23Z</time></trkpt><trkpt lat="45.6689383" lon="10.0725133"><ele>189.0</ele><time>2026-04-25T10:59:53.23Z</time></trkpt><trkpt lat="45.66885" lon="10.072295"><ele>189.0</ele><time>2026-04-25T10:59:54.229Z</time></trkpt><trkpt lat="45.6687617" lon="10.0720717"><ele>188.66666666666666</ele><time>2026-04-25T10:59:55.229Z</time></trkpt><trkpt lat="45.6686717" lon="10.0718467"><ele>188.33333333333331</ele><time>2026-04-25T10:59:56.228Z</time></trkpt><trkpt lat="45.6685817" lon="10.07162"><ele>188.0</ele><time>2026-04-25T10:59:57.229Z</time></trkpt><trkpt lat="45.6684933" lon="10.0713917"><ele>187.66666666666666</ele><time>2026-04-25T10:59:58.227Z</time></trkpt><trkpt lat="45.668405" lon="10.0711633"><ele>187.33333333333334</ele><time>2026-04-25T10:59:59.227Z</time></trkpt><trkpt lat="45.6683217" lon="10.0709333"><ele>187.0</ele><time>2026-04-25T11:00:00.229Z</time></trkpt><trkpt lat="45.6682367" lon="10.0706967"><ele>187.66666666666669</ele><time>2026-04-25T11:00:01.227Z</time></trkpt><trkpt lat="45.6681517" lon="10.07046"><ele>188.33333333333334</ele><time>2026-04-25T11:00:02.228Z</time></trkpt><trkpt lat="45.6680633" lon="10.0702217"><ele>189.0</ele><time>2026-04-25T11:00:03.228Z</time></trkpt><trkpt lat="45.667975" lon="10.06999"><ele>189.33333333333334</ele><time>2026-04-25T11:00:04.227Z</time></trkpt><trkpt lat="45.6678883" lon="10.0697633"><ele>189.66666666666669</ele><time>2026-04-25T11:00:05.227Z</time></trkpt><trkpt lat="45.6678017" lon="10.0695433"><ele>190.0</ele><time>2026-04-25T11:00:06.239Z</time></trkpt><trkpt lat="45.6677067" lon="10.0693317"><ele>190.66666666666669</ele><time>2026-04-25T11:00:07.23Z</time></trkpt><trkpt lat="45.667605" lon="10.069125"><ele>191.33333333333334</ele><time>2026-04-25T11:00:08.229Z</time></trkpt><trkpt lat="45.6675" lon="10.0689217"><ele>192.0</ele><time>2026-04-25T11:00:09.229Z</time></trkpt><trkpt lat="45.66739" lon="10.0687283"><ele>190.33333333333334</ele><time>2026-04-25T11:00:10.227Z</time></trkpt><trkpt lat="45.6672817" lon="10.0685383"><ele>188.66666666666669</ele><time>2026-04-25T11:00:11.227Z</time></trkpt><trkpt lat="45.667175" lon="10.0683517"><ele>187.0</ele><time>2026-04-25T11:00:12.228Z</time></trkpt><trkpt lat="45.6670667" lon="10.0681717"><ele>188.0</ele><time>2026-04-25T11:00:13.227Z</time></trkpt><trkpt lat="45.6669533" lon="10.0679983"><ele>189.0</ele><time>2026-04-25T11:00:14.228Z</time></trkpt><trkpt lat="45.66684" lon="10.0678283"><ele>190.0</ele><time>2026-04-25T11:00:15.227Z</time></trkpt><trkpt lat="45.66673" lon="10.067655"><ele>190.0</ele><time>2026-04-25T11:00:16.227Z</time></trkpt><trkpt lat="45.6666233" lon="10.0674883"><ele>190.0</ele><time>2026-04-25T11:00:17.227Z</time></trkpt><trkpt lat="45.66652" lon="10.06733"><ele>190.0</ele><time>2026-04-25T11:00:18.229Z</time></trkpt><trkpt lat="45.66642" lon="10.0671883"><ele>188.75</ele><time>2026-04-25T11:00:19.228Z</time></trkpt><trkpt lat="45.6663183" lon="10.067065"><ele>187.5</ele><time>2026-04-25T11:00:20.232Z</time></trkpt><trkpt lat="45.6662167" lon="10.066955"><ele>186.25</ele><time>2026-04-25T11:00:21.23Z</time></trkpt><trkpt lat="45.6661133" lon="10.0668533"><ele>185.0</ele><time>2026-04-25T11:00:22.229Z</time></trkpt><trkpt lat="45.6660133" lon="10.0667483"><ele>186.25</ele><time>2026-04-25T11:00:23.228Z</time></trkpt><trkpt lat="45.6659133" lon="10.066635"><ele>187.5</ele><time>2026-04-25T11:00:24.228Z</time></trkpt><trkpt lat="45.66582" lon="10.06651"><ele>188.75</ele><time>2026-04-25T11:00:25.23Z</time></trkpt><trkpt lat="45.66574" lon="10.066365"><ele>190.0</ele><time>2026-04-25T11:00:26.228Z</time></trkpt><trkpt lat="45.6656783" lon="10.066205"><ele>190.0</ele><time>2026-04-25T11:00:27.229Z</time></trkpt><trkpt lat="45.6656317" lon="10.0660417"><ele>190.0</ele><time>2026-04-25T11:00:28.228Z</time></trkpt><trkpt lat="45.665595" lon="10.065885"><ele>190.0</ele><time>2026-04-25T11:00:29.229Z</time></trkpt><trkpt lat="45.6655583" lon="10.065735"><ele>190.0</ele><time>2026-04-25T11:00:30.231Z</time></trkpt><trkpt lat="45.6655267" lon="10.0655933"><ele>189.5</ele><time>2026-04-25T11:00:31.228Z</time></trkpt><trkpt lat="45.6654967" lon="10.0654517"><ele>189.0</ele><time>2026-04-25T11:00:32.228Z</time></trkpt><trkpt lat="45.6654667" lon="10.0653"><ele>188.5</ele><time>2026-04-25T11:00:33.228Z</time></trkpt><trkpt lat="45.6654417" lon="10.0651383"><ele>188.0</ele><time>2026-04-25T11:00:34.227Z</time></trkpt><trkpt lat="45.665415" lon="10.0649667"><ele>188.0</ele><time>2026-04-25T11:00:35.227Z</time></trkpt><trkpt lat="45.665385" lon="10.0647917"><ele>188.0</ele><time>2026-04-25T11:00:36.227Z</time></trkpt><trkpt lat="45.6653583" lon="10.0646133"><ele>188.0</ele><time>2026-04-25T11:00:37.228Z</time></trkpt><trkpt lat="45.6653317" lon="10.064435"><ele>188.0</ele><time>2026-04-25T11:00:38.228Z</time></trkpt><trkpt lat="45.6653" lon="10.0642533"><ele>188.75</ele><time>2026-04-25T11:00:39.23Z</time></trkpt><trkpt lat="45.6652717" lon="10.064075"><ele>189.5</ele><time>2026-04-25T11:00:40.228Z</time></trkpt><trkpt lat="45.6652433" lon="10.063895"><ele>190.25</ele><time>2026-04-25T11:00:41.228Z</time></trkpt><trkpt lat="45.665215" lon="10.0637167"><ele>191.0</ele><time>2026-04-25T11:00:42.229Z</time></trkpt><trkpt lat="45.665185" lon="10.0635367"><ele>191.0</ele><time>2026-04-25T11:00:43.23Z</time></trkpt><trkpt lat="45.6651533" lon="10.0633567"><ele>191.0</ele><time>2026-04-25T11:00:44.229Z</time></trkpt><trkpt lat="45.66512" lon="10.0631717"><ele>191.0</ele><time>2026-04-25T11:00:45.229Z</time></trkpt><trkpt lat="45.6650883" lon="10.062985"><ele>191.0</ele><time>2026-04-25T11:00:46.228Z</time></trkpt><trkpt lat="45.6650583" lon="10.0628033"><ele>191.25</ele><time>2026-04-25T11:00:47.23Z</time></trkpt><trkpt lat="45.6650267" lon="10.062615"><ele>191.5</ele><time>2026-04-25T11:00:48.228Z</time></trkpt><trkpt lat="45.66499" lon="10.062425"><ele>191.75</ele><time>2026-04-25T11:00:49.229Z</time></trkpt><trkpt lat="45.6649433" lon="10.0622417"><ele>192.0</ele><time>2026-04-25T11:00:50.228Z</time></trkpt><trkpt lat="45.664885" lon="10.06206"><ele>192.0</ele><time>2026-04-25T11:00:51.229Z</time></trkpt><trkpt lat="45.66482" lon="10.0618883"><ele>192.0</ele><time>2026-04-25T11:00:52.228Z</time></trkpt><trkpt lat="45.6647467" lon="10.06172"><ele>192.0</ele><time>2026-04-25T11:00:53.228Z</time></trkpt><trkpt lat="45.66467" lon="10.0615533"><ele>192.0</ele><time>2026-04-25T11:00:54.229Z</time></trkpt><trkpt lat="45.6645933" lon="10.061385"><ele>192.25</ele><time>2026-04-25T11:00:55.228Z</time></trkpt><trkpt lat="45.66451" lon="10.06122"><ele>192.5</ele><time>2026-04-25T11:00:56.228Z</time></trkpt><trkpt lat="45.664425" lon="10.0610517"><ele>192.75</ele><time>2026-04-25T11:00:57.229Z</time></trkpt><trkpt lat="45.6643417" lon="10.0608817"><ele>193.0</ele><time>2026-04-25T11:00:58.229Z</time></trkpt><trkpt lat="45.6642583" lon="10.0607133"><ele>193.0</ele><time>2026-04-25T11:00:59.228Z</time></trkpt><trkpt lat="45.6641767" lon="10.06055"><ele>193.0</ele><time>2026-04-25T11:01:00.23Z</time></trkpt><trkpt lat="45.664095" lon="10.0603867"><ele>193.0</ele><time>2026-04-25T11:01:01.231Z</time></trkpt><trkpt lat="45.6640167" lon="10.0602267"><ele>193.0</ele><time>2026-04-25T11:01:02.228Z</time></trkpt><trkpt lat="45.66394" lon="10.0600717"><ele>192.5</ele><time>2026-04-25T11:01:03.229Z</time></trkpt><trkpt lat="45.6638633" lon="10.059915"><ele>192.0</ele><time>2026-04-25T11:01:04.228Z</time></trkpt><trkpt lat="45.6637883" lon="10.0597567"><ele>191.5</ele><time>2026-04-25T11:01:05.23Z</time></trkpt><trkpt lat="45.6637117" lon="10.0595967"><ele>191.0</ele><time>2026-04-25T11:01:06.229Z</time></trkpt><trkpt lat="45.6636333" lon="10.0594317"><ele>191.25</ele><time>2026-04-25T11:01:07.23Z</time></trkpt><trkpt lat="45.6635583" lon="10.0592717"><ele>191.5</ele><time>2026-04-25T11:01:08.23Z</time></trkpt><trkpt lat="45.66348" lon="10.0591167"><ele>191.75</ele><time>2026-04-25T11:01:09.231Z</time></trkpt><trkpt lat="45.6634017" lon="10.058955"><ele>192.0</ele><time>2026-04-25T11:01:10.229Z</time></trkpt><trkpt lat="45.6633217" lon="10.058795"><ele>192.0</ele><time>2026-04-25T11:01:11.228Z</time></trkpt><trkpt lat="45.663245" lon="10.0586367"><ele>192.0</ele><time>2026-04-25T11:01:12.228Z</time></trkpt><trkpt lat="45.66317" lon="10.0584783"><ele>192.0</ele><time>2026-04-25T11:01:13.231Z</time></trkpt><trkpt lat="45.6630933" lon="10.0583217"><ele>192.0</ele><time>2026-04-25T11:01:14.229Z</time></trkpt><trkpt lat="45.6630167" lon="10.0581683"><ele>191.5</ele><time>2026-04-25T11:01:15.23Z</time></trkpt><trkpt lat="45.66294" lon="10.0580117"><ele>191.0</ele><time>2026-04-25T11:01:16.228Z</time></trkpt><trkpt lat="45.6628583" lon="10.057845"><ele>190.5</ele><time>2026-04-25T11:01:17.227Z</time></trkpt><trkpt lat="45.6627783" lon="10.0576817"><ele>190.0</ele><time>2026-04-25T11:01:18.229Z</time></trkpt><trkpt lat="45.6626983" lon="10.0575183"><ele>191.0</ele><time>2026-04-25T11:01:19.229Z</time></trkpt><trkpt lat="45.6626183" lon="10.057355"><ele>192.0</ele><time>2026-04-25T11:01:20.228Z</time></trkpt><trkpt lat="45.6625383" lon="10.0571933"><ele>193.0</ele><time>2026-04-25T11:01:21.233Z</time></trkpt><trkpt lat="45.662455" lon="10.0570267"><ele>194.0</ele><time>2026-04-25T11:01:22.233Z</time></trkpt><trkpt lat="45.6623733" lon="10.0568567"><ele>194.0</ele><time>2026-04-25T11:01:23.23Z</time></trkpt><trkpt lat="45.6622917" lon="10.0566883"><ele>194.0</ele><time>2026-04-25T11:01:24.23Z</time></trkpt><trkpt lat="45.6622133" lon="10.056515"><ele>194.0</ele><time>2026-04-25T11:01:25.229Z</time></trkpt><trkpt lat="45.6621383" lon="10.0563567"><ele>194.0</ele><time>2026-04-25T11:01:26.227Z</time></trkpt><trkpt lat="45.6620633" lon="10.056205"><ele>193.79999999999998</ele><time>2026-04-25T11:01:27.229Z</time></trkpt><trkpt lat="45.661995" lon="10.0560667"><ele>193.6</ele><time>2026-04-25T11:01:28.228Z</time></trkpt><trkpt lat="45.6619283" lon="10.0559333"><ele>193.4</ele><time>2026-04-25T11:01:29.228Z</time></trkpt><trkpt lat="45.6618633" lon="10.0558067"><ele>193.2</ele><time>2026-04-25T11:01:30.229Z</time></trkpt><trkpt lat="45.6617967" lon="10.0556883"><ele>193.0</ele><time>2026-04-25T11:01:31.229Z</time></trkpt><trkpt lat="45.6617367" lon="10.0555767"><ele>193.83333333333331</ele><time>2026-04-25T11:01:32.229Z</time></trkpt><trkpt lat="45.6616867" lon="10.0554783"><ele>194.66666666666666</ele><time>2026-04-25T11:01:33.229Z</time></trkpt><trkpt lat="45.661645" lon="10.0553783"><ele>195.5</ele><time>2026-04-25T11:01:34.228Z</time></trkpt><trkpt lat="45.6616167" lon="10.0552817"><ele>196.33333333333331</ele><time>2026-04-25T11:01:35.233Z</time></trkpt><trkpt lat="45.661595" lon="10.055185"><ele>197.16666666666666</ele><time>2026-04-25T11:01:36.229Z</time></trkpt><trkpt lat="45.6615217" lon="10.055065"><ele>198.0</ele><time>2026-04-25T11:01:38.228Z</time></trkpt><trkpt lat="45.6614183" lon="10.0550833"><ele>198.0</ele><time>2026-04-25T11:01:40.228Z</time></trkpt><trkpt lat="45.6613033" lon="10.0550567"><ele>198.0</ele><time>2026-04-25T11:01:42.231Z</time></trkpt><trkpt lat="45.6612317" lon="10.054995"><ele>198.0</ele><time>2026-04-25T11:01:43.229Z</time></trkpt><trkpt lat="45.6611567" lon="10.054925"><ele>198.0</ele><time>2026-04-25T11:01:44.227Z</time></trkpt><trkpt lat="45.6610817" lon="10.0548483"><ele>198.0</ele><time>2026-04-25T11:01:45.229Z</time></trkpt><trkpt lat="45.6610033" lon="10.054765"><ele>197.83333333333334</ele><time>2026-04-25T11:01:46.231Z</time></trkpt><trkpt lat="45.6609267" lon="10.0546883"><ele>197.66666666666669</ele><time>2026-04-25T11:01:47.228Z</time></trkpt><trkpt lat="45.6608567" lon="10.054615"><ele>197.5</ele><time>2026-04-25T11:01:48.231Z</time></trkpt><trkpt lat="45.66079" lon="10.054545"><ele>197.33333333333334</ele><time>2026-04-25T11:01:49.228Z</time></trkpt><trkpt lat="45.6607283" lon="10.0544833"><ele>197.16666666666669</ele><time>2026-04-25T11:01:50.231Z</time></trkpt><trkpt lat="45.6606633" lon="10.0544217"><ele>197.0</ele><time>2026-04-25T11:01:51.23Z</time></trkpt><trkpt lat="45.6606033" lon="10.05437"><ele>197.00000000000003</ele><time>2026-04-25T11:01:52.228Z</time></trkpt><trkpt lat="45.6605433" lon="10.0543217"><ele>197.0</ele><time>2026-04-25T11:01:53.228Z</time></trkpt><trkpt lat="45.6604683" lon="10.0542667"><ele>197.0</ele><time>2026-04-25T11:01:55.228Z</time></trkpt><trkpt lat="45.6604083" lon="10.05422"><ele>197.0</ele><time>2026-04-25T11:01:58.228Z</time></trkpt><trkpt lat="45.6603383" lon="10.0541483"><ele>197.00000000000003</ele><time>2026-04-25T11:02:00.227Z</time></trkpt><trkpt lat="45.66028" lon="10.0540283"><ele>197.0</ele><time>2026-04-25T11:02:02.232Z</time></trkpt><trkpt lat="45.6601967" lon="10.053945"><ele>197.2</ele><time>2026-04-25T11:02:04.229Z</time></trkpt><trkpt lat="45.66008" lon="10.0538917"><ele>197.39999999999998</ele><time>2026-04-25T11:02:06.229Z</time></trkpt><trkpt lat="45.6600183" lon="10.0538483"><ele>197.60000000000002</ele><time>2026-04-25T11:02:07.231Z</time></trkpt><trkpt lat="45.6599617" lon="10.0538017"><ele>197.8</ele><time>2026-04-25T11:02:08.23Z</time></trkpt><trkpt lat="45.6598617" lon="10.0537083"><ele>198.0</ele><time>2026-04-25T11:02:10.229Z</time></trkpt><trkpt lat="45.6597733" lon="10.0536183"><ele>198.0</ele><time>2026-04-25T11:02:12.228Z</time></trkpt><trkpt lat="45.6596583" lon="10.053505"><ele>198.0</ele><time>2026-04-25T11:02:14.228Z</time></trkpt><trkpt lat="45.6595867" lon="10.0534317"><ele>198.0</ele><time>2026-04-25T11:02:15.23Z</time></trkpt><trkpt lat="45.6595133" lon="10.0533517"><ele>198.0</ele><time>2026-04-25T11:02:16.231Z</time></trkpt><trkpt lat="45.659445" lon="10.053275"><ele>198.0</ele><time>2026-04-25T11:02:17.228Z</time></trkpt><trkpt lat="45.6593817" lon="10.053205"><ele>197.5</ele><time>2026-04-25T11:02:18.229Z</time></trkpt><trkpt lat="45.6593233" lon="10.05314"><ele>197.0</ele><time>2026-04-25T11:02:19.229Z</time></trkpt><trkpt lat="45.6592567" lon="10.0530767"><ele>196.5</ele><time>2026-04-25T11:02:20.228Z</time></trkpt><trkpt lat="45.6591933" lon="10.05301"><ele>196.0</ele><time>2026-04-25T11:02:21.229Z</time></trkpt><trkpt lat="45.65913" lon="10.0529433"><ele>195.5</ele><time>2026-04-25T11:02:22.228Z</time></trkpt><trkpt lat="45.6590567" lon="10.0528783"><ele>195.0</ele><time>2026-04-25T11:02:23.227Z</time></trkpt><trkpt lat="45.6589817" lon="10.0528067"><ele>195.0</ele><time>2026-04-25T11:02:24.227Z</time></trkpt><trkpt lat="45.6589133" lon="10.0527367"><ele>195.0</ele><time>2026-04-25T11:02:25.227Z</time></trkpt><trkpt lat="45.6588533" lon="10.052675"><ele>195.0</ele><time>2026-04-25T11:02:26.227Z</time></trkpt><trkpt lat="45.65877" lon="10.0525867"><ele>195.0</ele><time>2026-04-25T11:02:28.229Z</time></trkpt><trkpt lat="45.658705" lon="10.05252"><ele>195.0</ele><time>2026-04-25T11:02:31.229Z</time></trkpt><trkpt lat="45.6586233" lon="10.0524233"><ele>195.0</ele><time>2026-04-25T11:02:59.229Z</time></trkpt><trkpt lat="45.6585683" lon="10.0523683"><ele>194.85714285714286</ele><time>2026-04-25T11:03:00.228Z</time></trkpt><trkpt lat="45.6585133" lon="10.05231"><ele>194.71428571428572</ele><time>2026-04-25T11:03:01.229Z</time></trkpt><trkpt lat="45.65846" lon="10.0522517"><ele>194.57142857142856</ele><time>2026-04-25T11:03:02.228Z</time></trkpt><trkpt lat="45.6584067" lon="10.0521917"><ele>194.42857142857144</ele><time>2026-04-25T11:03:03.229Z</time></trkpt><trkpt lat="45.6583567" lon="10.0521317"><ele>194.2857142857143</ele><time>2026-04-25T11:03:04.228Z</time></trkpt><trkpt lat="45.6583017" lon="10.052075"><ele>194.14285714285714</ele><time>2026-04-25T11:03:05.229Z</time></trkpt><trkpt lat="45.658245" lon="10.05202"><ele>194.0</ele><time>2026-04-25T11:03:06.229Z</time></trkpt><trkpt lat="45.6581917" lon="10.0519633"><ele>194.00000000000003</ele><time>2026-04-25T11:03:07.228Z</time></trkpt><trkpt lat="45.6581333" lon="10.0519083"><ele>194.0</ele><time>2026-04-25T11:03:08.229Z</time></trkpt><trkpt lat="45.6580717" lon="10.0518483"><ele>194.0</ele><time>2026-04-25T11:03:09.229Z</time></trkpt><trkpt lat="45.65801" lon="10.051785"><ele>194.0</ele><time>2026-04-25T11:03:10.228Z</time></trkpt><trkpt lat="45.6579433" lon="10.05172"><ele>194.00000000000003</ele><time>2026-04-25T11:03:11.227Z</time></trkpt><trkpt lat="45.6578733" lon="10.0516583"><ele>194.0</ele><time>2026-04-25T11:03:12.229Z</time></trkpt><trkpt lat="45.657805" lon="10.051595"><ele>193.33333333333334</ele><time>2026-04-25T11:03:13.228Z</time></trkpt><trkpt lat="45.6577383" lon="10.0515317"><ele>192.66666666666669</ele><time>2026-04-25T11:03:14.231Z</time></trkpt><trkpt lat="45.6576733" lon="10.0514683"><ele>192.0</ele><time>2026-04-25T11:03:15.228Z</time></trkpt><trkpt lat="45.657605" lon="10.051405"><ele>191.33333333333334</ele><time>2026-04-25T11:03:16.233Z</time></trkpt><trkpt lat="45.657535" lon="10.0513383"><ele>190.66666666666669</ele><time>2026-04-25T11:03:17.228Z</time></trkpt><trkpt lat="45.6574667" lon="10.0512767"><ele>190.0</ele><time>2026-04-25T11:03:18.231Z</time></trkpt><trkpt lat="45.6574017" lon="10.0512233"><ele>190.0</ele><time>2026-04-25T11:03:19.228Z</time></trkpt><trkpt lat="45.65734" lon="10.0511733"><ele>190.0</ele><time>2026-04-25T11:03:20.229Z</time></trkpt><trkpt lat="45.6572783" lon="10.051125"><ele>190.0</ele><time>2026-04-25T11:03:21.229Z</time></trkpt><trkpt lat="45.6572133" lon="10.05108"><ele>190.0</ele><time>2026-04-25T11:03:22.228Z</time></trkpt><trkpt lat="45.657135" lon="10.0510333"><ele>190.0</ele><time>2026-04-25T11:03:23.229Z</time></trkpt><trkpt lat="45.657035" lon="10.0509783"><ele>190.0</ele><time>2026-04-25T11:03:24.229Z</time></trkpt><trkpt lat="45.65691" lon="10.0509083"><ele>190.0</ele><time>2026-04-25T11:03:25.228Z</time></trkpt><trkpt lat="45.6567733" lon="10.0508317"><ele>190.0</ele><time>2026-04-25T11:03:26.228Z</time></trkpt><trkpt lat="45.656625" lon="10.0507583"><ele>190.0</ele><time>2026-04-25T11:03:27.232Z</time></trkpt><trkpt lat="45.6564667" lon="10.0506917"><ele>190.0</ele><time>2026-04-25T11:03:28.228Z</time></trkpt><trkpt lat="45.6563033" lon="10.0506317"><ele>190.0</ele><time>2026-04-25T11:03:29.228Z</time></trkpt><trkpt lat="45.6561417" lon="10.050575"><ele>190.0</ele><time>2026-04-25T11:03:30.229Z</time></trkpt><trkpt lat="45.6559817" lon="10.0505217"><ele>190.0</ele><time>2026-04-25T11:03:31.227Z</time></trkpt><trkpt lat="45.655825" lon="10.0504683"><ele>190.0</ele><time>2026-04-25T11:03:32.228Z</time></trkpt><trkpt lat="45.6556683" lon="10.0504083"><ele>190.0</ele><time>2026-04-25T11:03:33.229Z</time></trkpt><trkpt lat="45.6555117" lon="10.05035"><ele>190.0</ele><time>2026-04-25T11:03:34.227Z</time></trkpt><trkpt lat="45.6553617" lon="10.0502817"><ele>190.0</ele><time>2026-04-25T11:03:35.229Z</time></trkpt><trkpt lat="45.6552067" lon="10.0502183"><ele>190.0</ele><time>2026-04-25T11:03:36.228Z</time></trkpt><trkpt lat="45.6550567" lon="10.0501583"><ele>189.66666666666669</ele><time>2026-04-25T11:03:37.227Z</time></trkpt><trkpt lat="45.6549017" lon="10.0501"><ele>189.33333333333334</ele><time>2026-04-25T11:03:38.227Z</time></trkpt><trkpt lat="45.6547483" lon="10.050045"><ele>189.0</ele><time>2026-04-25T11:03:39.227Z</time></trkpt><trkpt lat="45.654595" lon="10.0499933"><ele>188.66666666666666</ele><time>2026-04-25T11:03:40.228Z</time></trkpt><trkpt lat="45.65444" lon="10.0499383"><ele>188.33333333333331</ele><time>2026-04-25T11:03:41.228Z</time></trkpt><trkpt lat="45.6542833" lon="10.049885"><ele>188.0</ele><time>2026-04-25T11:03:42.227Z</time></trkpt><trkpt lat="45.6541267" lon="10.04983"><ele>188.0</ele><time>2026-04-25T11:03:43.228Z</time></trkpt><trkpt lat="45.6539667" lon="10.049775"><ele>188.0</ele><time>2026-04-25T11:03:44.226Z</time></trkpt><trkpt lat="45.6538067" lon="10.049725"><ele>188.0</ele><time>2026-04-25T11:03:45.227Z</time></trkpt><trkpt lat="45.6536533" lon="10.049675"><ele>188.25</ele><time>2026-04-25T11:03:46.227Z</time></trkpt><trkpt lat="45.65351" lon="10.0496217"><ele>188.5</ele><time>2026-04-25T11:03:47.227Z</time></trkpt><trkpt lat="45.6533783" lon="10.0495717"><ele>188.75</ele><time>2026-04-25T11:03:48.227Z</time></trkpt><trkpt lat="45.6532633" lon="10.0495217"><ele>189.0</ele><time>2026-04-25T11:03:49.228Z</time></trkpt><trkpt lat="45.653165" lon="10.0494633"><ele>189.0</ele><time>2026-04-25T11:03:50.229Z</time></trkpt><trkpt lat="45.6530767" lon="10.049385"><ele>189.0</ele><time>2026-04-25T11:03:51.23Z</time></trkpt><trkpt lat="45.6529967" lon="10.0492833"><ele>189.0</ele><time>2026-04-25T11:03:52.231Z</time></trkpt><trkpt lat="45.6529183" lon="10.0491717"><ele>189.0</ele><time>2026-04-25T11:03:53.229Z</time></trkpt><trkpt lat="45.652845" lon="10.049065"><ele>189.0</ele><time>2026-04-25T11:03:54.229Z</time></trkpt><trkpt lat="45.6527617" lon="10.0489717"><ele>188.25</ele><time>2026-04-25T11:03:55.229Z</time></trkpt><trkpt lat="45.6526583" lon="10.0488967"><ele>187.5</ele><time>2026-04-25T11:03:56.229Z</time></trkpt><trkpt lat="45.6525433" lon="10.0488333"><ele>186.75</ele><time>2026-04-25T11:03:57.229Z</time></trkpt><trkpt lat="45.6524117" lon="10.0487783"><ele>186.0</ele><time>2026-04-25T11:03:58.23Z</time></trkpt><trkpt lat="45.652275" lon="10.048715"><ele>186.0</ele><time>2026-04-25T11:03:59.231Z</time></trkpt><trkpt lat="45.6521333" lon="10.048635"><ele>186.0</ele><time>2026-04-25T11:04:00.228Z</time></trkpt><trkpt lat="45.6519833" lon="10.0485333"><ele>186.0</ele><time>2026-04-25T11:04:01.229Z</time></trkpt><trkpt lat="45.651825" lon="10.0484233"><ele>186.66666666666666</ele><time>2026-04-25T11:04:02.229Z</time></trkpt><trkpt lat="45.6516567" lon="10.048305"><ele>187.33333333333331</ele><time>2026-04-25T11:04:03.229Z</time></trkpt><trkpt lat="45.651485" lon="10.0481833"><ele>188.0</ele><time>2026-04-25T11:04:04.23Z</time></trkpt><trkpt lat="45.6513167" lon="10.0480617"><ele>188.0</ele><time>2026-04-25T11:04:05.229Z</time></trkpt><trkpt lat="45.6511483" lon="10.0479383"><ele>188.0</ele><time>2026-04-25T11:04:06.23Z</time></trkpt><trkpt lat="45.65098" lon="10.047815"><ele>188.0</ele><time>2026-04-25T11:04:07.231Z</time></trkpt><trkpt lat="45.65081" lon="10.0476883"><ele>188.33333333333331</ele><time>2026-04-25T11:04:08.229Z</time></trkpt><trkpt lat="45.6506467" lon="10.0475583"><ele>188.66666666666666</ele><time>2026-04-25T11:04:09.228Z</time></trkpt><trkpt lat="45.6504883" lon="10.04741"><ele>189.0</ele><time>2026-04-25T11:04:10.229Z</time></trkpt><trkpt lat="45.6503383" lon="10.0472417"><ele>189.33333333333334</ele><time>2026-04-25T11:04:11.227Z</time></trkpt><trkpt lat="45.6501917" lon="10.0470583"><ele>189.66666666666669</ele><time>2026-04-25T11:04:12.227Z</time></trkpt><trkpt lat="45.6500533" lon="10.0468617"><ele>190.0</ele><time>2026-04-25T11:04:13.228Z</time></trkpt><trkpt lat="45.6499217" lon="10.0466533"><ele>188.33333333333334</ele><time>2026-04-25T11:04:14.227Z</time></trkpt><trkpt lat="45.649805" lon="10.0464467"><ele>186.66666666666666</ele><time>2026-04-25T11:04:15.229Z</time></trkpt><trkpt lat="45.6497" lon="10.046245"><ele>185.0</ele><time>2026-04-25T11:04:16.23Z</time></trkpt><trkpt lat="45.6496" lon="10.046055"><ele>185.0</ele><time>2026-04-25T11:04:17.227Z</time></trkpt><trkpt lat="45.6495133" lon="10.045885"><ele>185.0</ele><time>2026-04-25T11:04:18.228Z</time></trkpt><trkpt lat="45.649435" lon="10.0457217"><ele>185.0</ele><time>2026-04-25T11:04:19.229Z</time></trkpt><trkpt lat="45.6493667" lon="10.045565"><ele>185.0</ele><time>2026-04-25T11:04:20.229Z</time></trkpt><trkpt lat="45.649305" lon="10.0454133"><ele>185.5</ele><time>2026-04-25T11:04:21.229Z</time></trkpt><trkpt lat="45.6492467" lon="10.0452517"><ele>186.0</ele><time>2026-04-25T11:04:22.227Z</time></trkpt><trkpt lat="45.6491883" lon="10.0450833"><ele>186.5</ele><time>2026-04-25T11:04:23.23Z</time></trkpt><trkpt lat="45.6491367" lon="10.0449167"><ele>187.0</ele><time>2026-04-25T11:04:24.229Z</time></trkpt><trkpt lat="45.6490917" lon="10.04476"><ele>187.0</ele><time>2026-04-25T11:04:25.229Z</time></trkpt><trkpt lat="45.6490567" lon="10.0446067"><ele>187.0</ele><time>2026-04-25T11:04:26.23Z</time></trkpt><trkpt lat="45.6490333" lon="10.0444567"><ele>187.0</ele><time>2026-04-25T11:04:27.229Z</time></trkpt><trkpt lat="45.64903" lon="10.0443067"><ele>187.0</ele><time>2026-04-25T11:04:28.234Z</time></trkpt><trkpt lat="45.6490483" lon="10.0441467"><ele>187.0</ele><time>2026-04-25T11:04:29.228Z</time></trkpt><trkpt lat="45.64908" lon="10.043985"><ele>186.5</ele><time>2026-04-25T11:04:30.229Z</time></trkpt><trkpt lat="45.6491267" lon="10.0438317"><ele>186.0</ele><time>2026-04-25T11:04:31.23Z</time></trkpt><trkpt lat="45.64919" lon="10.043695"><ele>185.5</ele><time>2026-04-25T11:04:32.229Z</time></trkpt><trkpt lat="45.6492683" lon="10.0435767"><ele>185.0</ele><time>2026-04-25T11:04:33.23Z</time></trkpt><trkpt lat="45.64936" lon="10.04347"><ele>185.0</ele><time>2026-04-25T11:04:34.227Z</time></trkpt><trkpt lat="45.6494617" lon="10.043365"><ele>185.0</ele><time>2026-04-25T11:04:35.228Z</time></trkpt><trkpt lat="45.6495683" lon="10.043255"><ele>185.0</ele><time>2026-04-25T11:04:36.228Z</time></trkpt><trkpt lat="45.6496783" lon="10.04314"><ele>185.0</ele><time>2026-04-25T11:04:37.227Z</time></trkpt><trkpt lat="45.64979" lon="10.043025"><ele>185.0</ele><time>2026-04-25T11:04:38.228Z</time></trkpt><trkpt lat="45.6499033" lon="10.0429117"><ele>185.0</ele><time>2026-04-25T11:04:39.231Z</time></trkpt><trkpt lat="45.6500167" lon="10.042805"><ele>185.0</ele><time>2026-04-25T11:04:40.228Z</time></trkpt><trkpt lat="45.6501333" lon="10.0427133"><ele>185.0</ele><time>2026-04-25T11:04:41.228Z</time></trkpt><trkpt lat="45.650255" lon="10.04264"><ele>184.5</ele><time>2026-04-25T11:04:42.227Z</time></trkpt><trkpt lat="45.65038" lon="10.0425833"><ele>184.0</ele><time>2026-04-25T11:04:43.227Z</time></trkpt><trkpt lat="45.6505067" lon="10.042535"><ele>183.5</ele><time>2026-04-25T11:04:44.227Z</time></trkpt><trkpt lat="45.6506283" lon="10.042485"><ele>183.0</ele><time>2026-04-25T11:04:45.228Z</time></trkpt><trkpt lat="45.6507467" lon="10.0424283"><ele>182.75</ele><time>2026-04-25T11:04:46.23Z</time></trkpt><trkpt lat="45.65086" lon="10.0423583"><ele>182.5</ele><time>2026-04-25T11:04:47.228Z</time></trkpt><trkpt lat="45.6509567" lon="10.0422667"><ele>182.25</ele><time>2026-04-25T11:04:48.227Z</time></trkpt><trkpt lat="45.6510383" lon="10.0421567"><ele>182.0</ele><time>2026-04-25T11:04:49.231Z</time></trkpt><trkpt lat="45.6510967" lon="10.04203"><ele>182.39999999999998</ele><time>2026-04-25T11:04:50.23Z</time></trkpt><trkpt lat="45.6511317" lon="10.04189"><ele>182.79999999999998</ele><time>2026-04-25T11:04:51.229Z</time></trkpt><trkpt lat="45.6511483" lon="10.0417417"><ele>183.2</ele><time>2026-04-25T11:04:52.23Z</time></trkpt><trkpt lat="45.6511533" lon="10.04158"><ele>183.6</ele><time>2026-04-25T11:04:53.229Z</time></trkpt><trkpt lat="45.651155" lon="10.04141"><ele>184.0</ele><time>2026-04-25T11:04:54.229Z</time></trkpt><trkpt lat="45.6511583" lon="10.0412417"><ele>184.2</ele><time>2026-04-25T11:04:55.231Z</time></trkpt><trkpt lat="45.6511817" lon="10.041085"><ele>184.39999999999998</ele><time>2026-04-25T11:04:56.23Z</time></trkpt><trkpt lat="45.651225" lon="10.04095"><ele>184.6</ele><time>2026-04-25T11:04:57.229Z</time></trkpt><trkpt lat="45.6512833" lon="10.0408333"><ele>184.8</ele><time>2026-04-25T11:04:58.228Z</time></trkpt><trkpt lat="45.651365" lon="10.0407367"><ele>185.0</ele><time>2026-04-25T11:04:59.228Z</time></trkpt><trkpt lat="45.6514667" lon="10.0406567"><ele>185.25</ele><time>2026-04-25T11:05:00.228Z</time></trkpt><trkpt lat="45.6515867" lon="10.0405783"><ele>185.5</ele><time>2026-04-25T11:05:01.23Z</time></trkpt><trkpt lat="45.6517117" lon="10.0404933"><ele>185.75</ele><time>2026-04-25T11:05:02.228Z</time></trkpt><trkpt lat="45.6518417" lon="10.0404017"><ele>186.0</ele><time>2026-04-25T11:05:03.228Z</time></trkpt><trkpt lat="45.6519817" lon="10.040305"><ele>186.0</ele><time>2026-04-25T11:05:04.228Z</time></trkpt><trkpt lat="45.6521283" lon="10.0402067"><ele>186.0</ele><time>2026-04-25T11:05:05.227Z</time></trkpt><trkpt lat="45.65227" lon="10.04011"><ele>186.0</ele><time>2026-04-25T11:05:06.229Z</time></trkpt><trkpt lat="45.65241" lon="10.0400117"><ele>185.66666666666666</ele><time>2026-04-25T11:05:07.231Z</time></trkpt><trkpt lat="45.6525483" lon="10.0399167"><ele>185.33333333333331</ele><time>2026-04-25T11:05:08.232Z</time></trkpt><trkpt lat="45.65269" lon="10.0398183"><ele>185.0</ele><time>2026-04-25T11:05:09.229Z</time></trkpt><trkpt lat="45.6528333" lon="10.03972"><ele>185.0</ele><time>2026-04-25T11:05:10.229Z</time></trkpt><trkpt lat="45.6529817" lon="10.0396183"><ele>185.0</ele><time>2026-04-25T11:05:11.23Z</time></trkpt><trkpt lat="45.65313" lon="10.0395167"><ele>185.0</ele><time>2026-04-25T11:05:12.227Z</time></trkpt><trkpt lat="45.6532833" lon="10.0394133"><ele>185.0</ele><time>2026-04-25T11:05:13.228Z</time></trkpt><trkpt lat="45.653435" lon="10.0393133"><ele>185.0</ele><time>2026-04-25T11:05:14.23Z</time></trkpt><trkpt lat="45.6535833" lon="10.0392083"><ele>185.0</ele><time>2026-04-25T11:05:15.227Z</time></trkpt><trkpt lat="45.65373" lon="10.0390917"><ele>185.33333333333331</ele><time>2026-04-25T11:05:16.227Z</time></trkpt><trkpt lat="45.6538733" lon="10.0389633"><ele>185.66666666666666</ele><time>2026-04-25T11:05:17.227Z</time></trkpt><trkpt lat="45.6540167" lon="10.0388183"><ele>186.0</ele><time>2026-04-25T11:05:18.228Z</time></trkpt><trkpt lat="45.6541533" lon="10.03866"><ele>186.0</ele><time>2026-04-25T11:05:19.227Z</time></trkpt><trkpt lat="45.6542867" lon="10.0384917"><ele>186.0</ele><time>2026-04-25T11:05:20.227Z</time></trkpt><trkpt lat="45.6544117" lon="10.03831"><ele>186.0</ele><time>2026-04-25T11:05:21.234Z</time></trkpt><trkpt lat="45.6545283" lon="10.038115"><ele>186.0</ele><time>2026-04-25T11:05:22.228Z</time></trkpt><trkpt lat="45.6546383" lon="10.0379133"><ele>186.0</ele><time>2026-04-25T11:05:23.229Z</time></trkpt><trkpt lat="45.6547417" lon="10.0377033"><ele>186.0</ele><time>2026-04-25T11:05:24.227Z</time></trkpt><trkpt lat="45.6548317" lon="10.0374933"><ele>186.0</ele><time>2026-04-25T11:05:25.228Z</time></trkpt><trkpt lat="45.6549117" lon="10.0372933"><ele>186.0</ele><time>2026-04-25T11:05:26.228Z</time></trkpt><trkpt lat="45.65498" lon="10.0370983"><ele>186.0</ele><time>2026-04-25T11:05:27.228Z</time></trkpt><trkpt lat="45.6550383" lon="10.03691"><ele>186.0</ele><time>2026-04-25T11:05:28.227Z</time></trkpt><trkpt lat="45.65509" lon="10.036725"><ele>186.0</ele><time>2026-04-25T11:05:29.228Z</time></trkpt><trkpt lat="45.6551317" lon="10.0365367"><ele>186.0</ele><time>2026-04-25T11:05:30.227Z</time></trkpt><trkpt lat="45.6551683" lon="10.0363417"><ele>186.0</ele><time>2026-04-25T11:05:31.228Z</time></trkpt><trkpt lat="45.6552" lon="10.0361367"><ele>185.75</ele><time>2026-04-25T11:05:32.228Z</time></trkpt><trkpt lat="45.65522" lon="10.035925"><ele>185.5</ele><time>2026-04-25T11:05:33.229Z</time></trkpt><trkpt lat="45.6552267" lon="10.0357133"><ele>185.25</ele><time>2026-04-25T11:05:34.228Z</time></trkpt><trkpt lat="45.6552233" lon="10.0355133"><ele>185.0</ele><time>2026-04-25T11:05:35.227Z</time></trkpt><trkpt lat="45.65521" lon="10.03532"><ele>185.0</ele><time>2026-04-25T11:05:36.228Z</time></trkpt><trkpt lat="45.65519" lon="10.0351217"><ele>185.0</ele><time>2026-04-25T11:05:37.227Z</time></trkpt><trkpt lat="45.6551633" lon="10.0349217"><ele>185.0</ele><time>2026-04-25T11:05:38.227Z</time></trkpt><trkpt lat="45.6551267" lon="10.03472"><ele>185.0</ele><time>2026-04-25T11:05:39.229Z</time></trkpt><trkpt lat="45.65508" lon="10.0345183"><ele>185.0</ele><time>2026-04-25T11:05:40.229Z</time></trkpt><trkpt lat="45.6550217" lon="10.0343183"><ele>185.0</ele><time>2026-04-25T11:05:41.23Z</time></trkpt><trkpt lat="45.6549517" lon="10.03412"><ele>185.0</ele><time>2026-04-25T11:05:42.229Z</time></trkpt><trkpt lat="45.6548733" lon="10.0339233"><ele>185.33333333333331</ele><time>2026-04-25T11:05:43.227Z</time></trkpt><trkpt lat="45.6547883" lon="10.0337333"><ele>185.66666666666666</ele><time>2026-04-25T11:05:44.227Z</time></trkpt><trkpt lat="45.6547017" lon="10.0335583"><ele>186.0</ele><time>2026-04-25T11:05:45.23Z</time></trkpt><trkpt lat="45.6546167" lon="10.033395"><ele>186.0</ele><time>2026-04-25T11:05:46.227Z</time></trkpt><trkpt lat="45.65454" lon="10.0332367"><ele>186.0</ele><time>2026-04-25T11:05:47.228Z</time></trkpt><trkpt lat="45.6544683" lon="10.0330767"><ele>186.0</ele><time>2026-04-25T11:05:48.228Z</time></trkpt><trkpt lat="45.654405" lon="10.0329117"><ele>186.0</ele><time>2026-04-25T11:05:49.228Z</time></trkpt><trkpt lat="45.65435" lon="10.0327367"><ele>186.0</ele><time>2026-04-25T11:05:50.227Z</time></trkpt><trkpt lat="45.6543067" lon="10.0325533"><ele>186.0</ele><time>2026-04-25T11:05:51.228Z</time></trkpt><trkpt lat="45.65427" lon="10.03236"><ele>186.0</ele><time>2026-04-25T11:05:52.227Z</time></trkpt><trkpt lat="45.6542367" lon="10.0321583"><ele>186.0</ele><time>2026-04-25T11:05:53.229Z</time></trkpt><trkpt lat="45.6542033" lon="10.0319567"><ele>186.0</ele><time>2026-04-25T11:05:54.229Z</time></trkpt><trkpt lat="45.6541683" lon="10.0317517"><ele>186.0</ele><time>2026-04-25T11:05:55.228Z</time></trkpt><trkpt lat="45.6541333" lon="10.0315483"><ele>186.0</ele><time>2026-04-25T11:05:56.229Z</time></trkpt><trkpt lat="45.6540983" lon="10.0313467"><ele>186.0</ele><time>2026-04-25T11:05:57.227Z</time></trkpt><trkpt lat="45.6540633" lon="10.0311433"><ele>185.75</ele><time>2026-04-25T11:05:58.228Z</time></trkpt><trkpt lat="45.6540317" lon="10.0309383"><ele>185.5</ele><time>2026-04-25T11:05:59.228Z</time></trkpt><trkpt lat="45.6540017" lon="10.0307283"><ele>185.25</ele><time>2026-04-25T11:06:00.229Z</time></trkpt><trkpt lat="45.653965" lon="10.0305167"><ele>185.0</ele><time>2026-04-25T11:06:01.229Z</time></trkpt><trkpt lat="45.6539217" lon="10.0303067"><ele>186.0</ele><time>2026-04-25T11:06:02.228Z</time></trkpt><trkpt lat="45.6538633" lon="10.0301"><ele>187.0</ele><time>2026-04-25T11:06:03.23Z</time></trkpt><trkpt lat="45.6537983" lon="10.0298983"><ele>188.0</ele><time>2026-04-25T11:06:04.229Z</time></trkpt><trkpt lat="45.6537283" lon="10.0296983"><ele>187.33333333333331</ele><time>2026-04-25T11:06:05.228Z</time></trkpt><trkpt lat="45.653655" lon="10.029495"><ele>186.66666666666666</ele><time>2026-04-25T11:06:06.228Z</time></trkpt><trkpt lat="45.65358" lon="10.0292883"><ele>186.0</ele><time>2026-04-25T11:06:07.228Z</time></trkpt><trkpt lat="45.6535067" lon="10.02908"><ele>187.33333333333334</ele><time>2026-04-25T11:06:08.228Z</time></trkpt><trkpt lat="45.6534333" lon="10.0288783"><ele>188.66666666666669</ele><time>2026-04-25T11:06:09.228Z</time></trkpt><trkpt lat="45.65336" lon="10.0286783"><ele>190.0</ele><time>2026-04-25T11:06:10.227Z</time></trkpt><trkpt lat="45.6532917" lon="10.02848"><ele>190.66666666666669</ele><time>2026-04-25T11:06:11.227Z</time></trkpt><trkpt lat="45.65322" lon="10.0282867"><ele>191.33333333333334</ele><time>2026-04-25T11:06:12.228Z</time></trkpt><trkpt lat="45.6531517" lon="10.0280933"><ele>192.0</ele><time>2026-04-25T11:06:13.228Z</time></trkpt><trkpt lat="45.6530817" lon="10.0279017"><ele>192.0</ele><time>2026-04-25T11:06:14.228Z</time></trkpt><trkpt lat="45.6530117" lon="10.027715"><ele>192.0</ele><time>2026-04-25T11:06:15.228Z</time></trkpt><trkpt lat="45.652945" lon="10.0275283"><ele>192.0</ele><time>2026-04-25T11:06:16.227Z</time></trkpt><trkpt lat="45.65288" lon="10.0273417"><ele>192.0</ele><time>2026-04-25T11:06:17.227Z</time></trkpt><trkpt lat="45.6528167" lon="10.0271567"><ele>191.0</ele><time>2026-04-25T11:06:18.229Z</time></trkpt><trkpt lat="45.65275" lon="10.02697"><ele>190.0</ele><time>2026-04-25T11:06:19.228Z</time></trkpt><trkpt lat="45.6526817" lon="10.0267833"><ele>189.0</ele><time>2026-04-25T11:06:20.229Z</time></trkpt><trkpt lat="45.6526133" lon="10.026595"><ele>188.0</ele><time>2026-04-25T11:06:21.228Z</time></trkpt><trkpt lat="45.65254" lon="10.0264017"><ele>188.0</ele><time>2026-04-25T11:06:22.228Z</time></trkpt><trkpt lat="45.6524683" lon="10.026205"><ele>188.0</ele><time>2026-04-25T11:06:23.229Z</time></trkpt><trkpt lat="45.6523967" lon="10.02601"><ele>188.0</ele><time>2026-04-25T11:06:24.227Z</time></trkpt><trkpt lat="45.6523267" lon="10.0258133"><ele>188.66666666666666</ele><time>2026-04-25T11:06:25.228Z</time></trkpt><trkpt lat="45.6522617" lon="10.025615"><ele>189.33333333333334</ele><time>2026-04-25T11:06:26.231Z</time></trkpt><trkpt lat="45.6521917" lon="10.0254183"><ele>190.0</ele><time>2026-04-25T11:06:27.229Z</time></trkpt><trkpt lat="45.6521183" lon="10.0252183"><ele>190.0</ele><time>2026-04-25T11:06:28.228Z</time></trkpt><trkpt lat="45.6520467" lon="10.0250183"><ele>190.0</ele><time>2026-04-25T11:06:29.227Z</time></trkpt><trkpt lat="45.651975" lon="10.0248167"><ele>190.0</ele><time>2026-04-25T11:06:30.23Z</time></trkpt><trkpt lat="45.651905" lon="10.0246183"><ele>189.5</ele><time>2026-04-25T11:06:31.227Z</time></trkpt><trkpt lat="45.6518367" lon="10.0244283"><ele>189.0</ele><time>2026-04-25T11:06:32.229Z</time></trkpt><trkpt lat="45.6517733" lon="10.02425"><ele>188.5</ele><time>2026-04-25T11:06:33.228Z</time></trkpt><trkpt lat="45.651715" lon="10.02408"><ele>188.0</ele><time>2026-04-25T11:06:34.229Z</time></trkpt><trkpt lat="45.6516767" lon="10.0239117"><ele>187.75</ele><time>2026-04-25T11:06:35.227Z</time></trkpt><trkpt lat="45.651655" lon="10.0237333"><ele>187.5</ele><time>2026-04-25T11:06:36.229Z</time></trkpt><trkpt lat="45.651635" lon="10.02355"><ele>187.25</ele><time>2026-04-25T11:06:37.228Z</time></trkpt><trkpt lat="45.6516217" lon="10.0233617"><ele>187.0</ele><time>2026-04-25T11:06:38.227Z</time></trkpt><trkpt lat="45.6516133" lon="10.0231717"><ele>187.0</ele><time>2026-04-25T11:06:39.23Z</time></trkpt><trkpt lat="45.651605" lon="10.0229917"><ele>187.0</ele><time>2026-04-25T11:06:40.228Z</time></trkpt><trkpt lat="45.6515983" lon="10.02282"><ele>187.0</ele><time>2026-04-25T11:06:41.228Z</time></trkpt><trkpt lat="45.651595" lon="10.0226667"><ele>187.0</ele><time>2026-04-25T11:06:42.227Z</time></trkpt><trkpt lat="45.6516" lon="10.0225233"><ele>187.6</ele><time>2026-04-25T11:06:43.227Z</time></trkpt><trkpt lat="45.6516217" lon="10.0223867"><ele>188.2</ele><time>2026-04-25T11:06:44.229Z</time></trkpt><trkpt lat="45.6516567" lon="10.02225"><ele>188.8</ele><time>2026-04-25T11:06:45.228Z</time></trkpt><trkpt lat="45.6517083" lon="10.0221133"><ele>189.4</ele><time>2026-04-25T11:06:46.227Z</time></trkpt><trkpt lat="45.6517733" lon="10.0219683"><ele>190.0</ele><time>2026-04-25T11:06:47.229Z</time></trkpt><trkpt lat="45.6518467" lon="10.02182"><ele>190.0</ele><time>2026-04-25T11:06:48.23Z</time></trkpt><trkpt lat="45.6519267" lon="10.021665"><ele>190.0</ele><time>2026-04-25T11:06:49.229Z</time></trkpt><trkpt lat="45.6520133" lon="10.0215067"><ele>190.0</ele><time>2026-04-25T11:06:50.227Z</time></trkpt><trkpt lat="45.6520967" lon="10.0213467"><ele>190.0</ele><time>2026-04-25T11:06:51.228Z</time></trkpt><trkpt lat="45.6521817" lon="10.0211883"><ele>189.75</ele><time>2026-04-25T11:06:52.228Z</time></trkpt><trkpt lat="45.65227" lon="10.021025"><ele>189.5</ele><time>2026-04-25T11:06:53.227Z</time></trkpt><trkpt lat="45.6523617" lon="10.0208533"><ele>189.25</ele><time>2026-04-25T11:06:54.227Z</time></trkpt><trkpt lat="45.652455" lon="10.02068"><ele>189.0</ele><time>2026-04-25T11:06:55.23Z</time></trkpt><trkpt lat="45.652555" lon="10.0205033"><ele>189.0</ele><time>2026-04-25T11:06:56.228Z</time></trkpt><trkpt lat="45.6526533" lon="10.02032"><ele>189.0</ele><time>2026-04-25T11:06:57.228Z</time></trkpt><trkpt lat="45.6527483" lon="10.020135"><ele>189.0</ele><time>2026-04-25T11:06:58.228Z</time></trkpt><trkpt lat="45.6528467" lon="10.0199483"><ele>189.0</ele><time>2026-04-25T11:06:59.227Z</time></trkpt><trkpt lat="45.6529467" lon="10.0197567"><ele>189.0</ele><time>2026-04-25T11:07:00.229Z</time></trkpt><trkpt lat="45.6530483" lon="10.0195617"><ele>189.0</ele><time>2026-04-25T11:07:01.228Z</time></trkpt><trkpt lat="45.6531517" lon="10.0193633"><ele>189.0</ele><time>2026-04-25T11:07:02.228Z</time></trkpt><trkpt lat="45.6532567" lon="10.0191683"><ele>189.0</ele><time>2026-04-25T11:07:03.228Z</time></trkpt><trkpt lat="45.6533583" lon="10.0189783"><ele>189.0</ele><time>2026-04-25T11:07:04.227Z</time></trkpt><trkpt lat="45.6534567" lon="10.01879"><ele>189.0</ele><time>2026-04-25T11:07:05.228Z</time></trkpt><trkpt lat="45.6535533" lon="10.0186067"><ele>189.0</ele><time>2026-04-25T11:07:06.23Z</time></trkpt><trkpt lat="45.653645" lon="10.0184267"><ele>189.0</ele><time>2026-04-25T11:07:07.227Z</time></trkpt><trkpt lat="45.6537367" lon="10.018245"><ele>188.33333333333334</ele><time>2026-04-25T11:07:08.228Z</time></trkpt><trkpt lat="45.6538233" lon="10.01806"><ele>187.66666666666669</ele><time>2026-04-25T11:07:09.229Z</time></trkpt><trkpt lat="45.6539067" lon="10.0178617"><ele>187.0</ele><time>2026-04-25T11:07:10.227Z</time></trkpt><trkpt lat="45.65398" lon="10.0176517"><ele>187.0</ele><time>2026-04-25T11:07:11.228Z</time></trkpt><trkpt lat="45.6540433" lon="10.0174267"><ele>187.0</ele><time>2026-04-25T11:07:12.228Z</time></trkpt><trkpt lat="45.6540933" lon="10.0171967"><ele>187.0</ele><time>2026-04-25T11:07:13.227Z</time></trkpt><trkpt lat="45.654135" lon="10.0169583"><ele>187.0</ele><time>2026-04-25T11:07:14.232Z</time></trkpt><trkpt lat="45.6541717" lon="10.0167133"><ele>187.0</ele><time>2026-04-25T11:07:15.229Z</time></trkpt><trkpt lat="45.65421" lon="10.0164617"><ele>187.0</ele><time>2026-04-25T11:07:16.227Z</time></trkpt><trkpt lat="45.65425" lon="10.01621"><ele>187.33333333333334</ele><time>2026-04-25T11:07:17.227Z</time></trkpt><trkpt lat="45.6542917" lon="10.0159617"><ele>187.66666666666666</ele><time>2026-04-25T11:07:18.228Z</time></trkpt><trkpt lat="45.6543283" lon="10.015715"><ele>188.0</ele><time>2026-04-25T11:07:19.227Z</time></trkpt><trkpt lat="45.6543667" lon="10.0154733"><ele>188.66666666666666</ele><time>2026-04-25T11:07:20.227Z</time></trkpt><trkpt lat="45.6544033" lon="10.0152383"><ele>189.33333333333334</ele><time>2026-04-25T11:07:21.228Z</time></trkpt><trkpt lat="45.6544383" lon="10.015005"><ele>190.0</ele><time>2026-04-25T11:07:22.227Z</time></trkpt><trkpt lat="45.654475" lon="10.01477"><ele>189.33333333333334</ele><time>2026-04-25T11:07:23.228Z</time></trkpt><trkpt lat="45.6545133" lon="10.0145367"><ele>188.66666666666666</ele><time>2026-04-25T11:07:24.229Z</time></trkpt><trkpt lat="45.6545517" lon="10.014305"><ele>188.0</ele><time>2026-04-25T11:07:25.228Z</time></trkpt><trkpt lat="45.6545883" lon="10.014075"><ele>188.0</ele><time>2026-04-25T11:07:26.227Z</time></trkpt><trkpt lat="45.6546267" lon="10.013845"><ele>188.0</ele><time>2026-04-25T11:07:27.228Z</time></trkpt><trkpt lat="45.6546633" lon="10.013615"><ele>188.0</ele><time>2026-04-25T11:07:28.227Z</time></trkpt><trkpt lat="45.6547" lon="10.0133883"><ele>188.66666666666666</ele><time>2026-04-25T11:07:29.229Z</time></trkpt><trkpt lat="45.6547367" lon="10.0131633"><ele>189.33333333333334</ele><time>2026-04-25T11:07:30.227Z</time></trkpt><trkpt lat="45.6547733" lon="10.01294"><ele>190.0</ele><time>2026-04-25T11:07:31.228Z</time></trkpt><trkpt lat="45.65481" lon="10.0127233"><ele>190.0</ele><time>2026-04-25T11:07:32.23Z</time></trkpt><trkpt lat="45.6548433" lon="10.0125083"><ele>190.0</ele><time>2026-04-25T11:07:33.228Z</time></trkpt><trkpt lat="45.6548783" lon="10.01229"><ele>190.0</ele><time>2026-04-25T11:07:34.227Z</time></trkpt><trkpt lat="45.654915" lon="10.01207"><ele>190.33333333333334</ele><time>2026-04-25T11:07:35.228Z</time></trkpt><trkpt lat="45.65495" lon="10.0118517"><ele>190.66666666666666</ele><time>2026-04-25T11:07:36.23Z</time></trkpt><trkpt lat="45.654985" lon="10.011635"><ele>191.0</ele><time>2026-04-25T11:07:37.228Z</time></trkpt><trkpt lat="45.6550167" lon="10.0114183"><ele>191.0</ele><time>2026-04-25T11:07:38.227Z</time></trkpt><trkpt lat="45.6550517" lon="10.0111983"><ele>191.0</ele><time>2026-04-25T11:07:39.228Z</time></trkpt><trkpt lat="45.6550833" lon="10.0109783"><ele>191.0</ele><time>2026-04-25T11:07:40.227Z</time></trkpt><trkpt lat="45.6551167" lon="10.0107667"><ele>191.75</ele><time>2026-04-25T11:07:41.228Z</time></trkpt><trkpt lat="45.6551483" lon="10.0105683"><ele>192.5</ele><time>2026-04-25T11:07:42.229Z</time></trkpt><trkpt lat="45.65518" lon="10.0103767"><ele>193.25</ele><time>2026-04-25T11:07:43.228Z</time></trkpt><trkpt lat="45.6552133" lon="10.0101867"><ele>194.0</ele><time>2026-04-25T11:07:44.227Z</time></trkpt><trkpt lat="45.6552567" lon="10.0099967"><ele>194.5</ele><time>2026-04-25T11:07:45.229Z</time></trkpt><trkpt lat="45.6553133" lon="10.00981"><ele>195.0</ele><time>2026-04-25T11:07:46.23Z</time></trkpt><trkpt lat="45.6553867" lon="10.0096283"><ele>195.5</ele><time>2026-04-25T11:07:47.227Z</time></trkpt><trkpt lat="45.6554717" lon="10.0094567"><ele>196.0</ele><time>2026-04-25T11:07:48.228Z</time></trkpt><trkpt lat="45.65557" lon="10.009295"><ele>195.33333333333331</ele><time>2026-04-25T11:07:49.227Z</time></trkpt><trkpt lat="45.65568" lon="10.0091483"><ele>194.66666666666669</ele><time>2026-04-25T11:07:50.228Z</time></trkpt><trkpt lat="45.6558033" lon="10.009015"><ele>194.0</ele><time>2026-04-25T11:07:51.23Z</time></trkpt><trkpt lat="45.6559333" lon="10.008895"><ele>194.0</ele><time>2026-04-25T11:07:52.229Z</time></trkpt><trkpt lat="45.656065" lon="10.00878"><ele>194.0</ele><time>2026-04-25T11:07:53.229Z</time></trkpt><trkpt lat="45.6561983" lon="10.00866"><ele>194.0</ele><time>2026-04-25T11:07:54.228Z</time></trkpt><trkpt lat="45.65634" lon="10.008535"><ele>193.66666666666669</ele><time>2026-04-25T11:07:55.233Z</time></trkpt><trkpt lat="45.65649" lon="10.0084067"><ele>193.33333333333331</ele><time>2026-04-25T11:07:56.228Z</time></trkpt><trkpt lat="45.65664" lon="10.0082783"><ele>193.0</ele><time>2026-04-25T11:07:57.228Z</time></trkpt><trkpt lat="45.6567933" lon="10.0081467"><ele>193.0</ele><time>2026-04-25T11:07:58.229Z</time></trkpt><trkpt lat="45.6569483" lon="10.0080117"><ele>193.0</ele><time>2026-04-25T11:07:59.229Z</time></trkpt><trkpt lat="45.657105" lon="10.0078767"><ele>193.0</ele><time>2026-04-25T11:08:00.228Z</time></trkpt><trkpt lat="45.6572567" lon="10.0077383"><ele>192.33333333333331</ele><time>2026-04-25T11:08:01.229Z</time></trkpt><trkpt lat="45.6573967" lon="10.0075983"><ele>191.66666666666666</ele><time>2026-04-25T11:08:02.228Z</time></trkpt><trkpt lat="45.6575217" lon="10.007455"><ele>191.0</ele><time>2026-04-25T11:08:03.228Z</time></trkpt><trkpt lat="45.6576383" lon="10.0073067"><ele>191.0</ele><time>2026-04-25T11:08:04.227Z</time></trkpt><trkpt lat="45.6577433" lon="10.0071517"><ele>191.0</ele><time>2026-04-25T11:08:05.227Z</time></trkpt><trkpt lat="45.6578417" lon="10.0069883"><ele>191.0</ele><time>2026-04-25T11:08:06.228Z</time></trkpt><trkpt lat="45.6579367" lon="10.0068183"><ele>191.33333333333331</ele><time>2026-04-25T11:08:07.228Z</time></trkpt><trkpt lat="45.6580267" lon="10.0066417"><ele>191.66666666666666</ele><time>2026-04-25T11:08:08.229Z</time></trkpt><trkpt lat="45.658115" lon="10.0064567"><ele>192.0</ele><time>2026-04-25T11:08:09.229Z</time></trkpt><trkpt lat="45.658205" lon="10.0062617"><ele>192.0</ele><time>2026-04-25T11:08:10.228Z</time></trkpt><trkpt lat="45.658295" lon="10.006065"><ele>192.0</ele><time>2026-04-25T11:08:11.228Z</time></trkpt><trkpt lat="45.6583833" lon="10.0058683"><ele>192.0</ele><time>2026-04-25T11:08:12.227Z</time></trkpt><trkpt lat="45.6584717" lon="10.005675"><ele>191.66666666666666</ele><time>2026-04-25T11:08:13.228Z</time></trkpt><trkpt lat="45.6585583" lon="10.005485"><ele>191.33333333333331</ele><time>2026-04-25T11:08:14.229Z</time></trkpt><trkpt lat="45.658645" lon="10.0052983"><ele>191.0</ele><time>2026-04-25T11:08:15.228Z</time></trkpt><trkpt lat="45.6587317" lon="10.0051167"><ele>191.0</ele><time>2026-04-25T11:08:16.228Z</time></trkpt><trkpt lat="45.65882" lon="10.00494"><ele>191.0</ele><time>2026-04-25T11:08:17.228Z</time></trkpt><trkpt lat="45.6589133" lon="10.0047667"><ele>191.0</ele><time>2026-04-25T11:08:18.231Z</time></trkpt><trkpt lat="45.6590133" lon="10.004595"><ele>191.0</ele><time>2026-04-25T11:08:19.229Z</time></trkpt><trkpt lat="45.6591217" lon="10.0044267"><ele>191.0</ele><time>2026-04-25T11:08:20.23Z</time></trkpt><trkpt lat="45.659235" lon="10.0042633"><ele>191.0</ele><time>2026-04-25T11:08:21.228Z</time></trkpt><trkpt lat="45.659355" lon="10.0041017"><ele>191.33333333333331</ele><time>2026-04-25T11:08:22.23Z</time></trkpt><trkpt lat="45.65948" lon="10.0039433"><ele>191.66666666666666</ele><time>2026-04-25T11:08:23.229Z</time></trkpt><trkpt lat="45.659605" lon="10.0037883"><ele>192.0</ele><time>2026-04-25T11:08:24.228Z</time></trkpt><trkpt lat="45.6597217" lon="10.0036433"><ele>192.0</ele><time>2026-04-25T11:08:25.227Z</time></trkpt><trkpt lat="45.6598267" lon="10.0035067"><ele>192.0</ele><time>2026-04-25T11:08:26.228Z</time></trkpt><trkpt lat="45.65993" lon="10.0033817"><ele>192.0</ele><time>2026-04-25T11:08:27.228Z</time></trkpt><trkpt lat="45.6600333" lon="10.0032617"><ele>192.0</ele><time>2026-04-25T11:08:28.228Z</time></trkpt><trkpt lat="45.660135" lon="10.0031433"><ele>192.5</ele><time>2026-04-25T11:08:29.227Z</time></trkpt><trkpt lat="45.66023" lon="10.00303"><ele>193.0</ele><time>2026-04-25T11:08:30.227Z</time></trkpt><trkpt lat="45.6603217" lon="10.002915"><ele>193.5</ele><time>2026-04-25T11:08:31.227Z</time></trkpt><trkpt lat="45.6604117" lon="10.0027933"><ele>194.0</ele><time>2026-04-25T11:08:32.228Z</time></trkpt><trkpt lat="45.6604983" lon="10.0026533"><ele>194.0</ele><time>2026-04-25T11:08:33.229Z</time></trkpt><trkpt lat="45.6605867" lon="10.0024983"><ele>194.0</ele><time>2026-04-25T11:08:34.229Z</time></trkpt><trkpt lat="45.6606733" lon="10.0023467"><ele>194.0</ele><time>2026-04-25T11:08:35.228Z</time></trkpt><trkpt lat="45.660755" lon="10.0022"><ele>194.0</ele><time>2026-04-25T11:08:36.227Z</time></trkpt><trkpt lat="45.6608317" lon="10.0020617"><ele>194.0</ele><time>2026-04-25T11:08:37.228Z</time></trkpt><trkpt lat="45.6609083" lon="10.0019283"><ele>194.0</ele><time>2026-04-25T11:08:38.228Z</time></trkpt><trkpt lat="45.660985" lon="10.0017967"><ele>194.0</ele><time>2026-04-25T11:08:39.228Z</time></trkpt><trkpt lat="45.66106" lon="10.0016617"><ele>194.0</ele><time>2026-04-25T11:08:40.228Z</time></trkpt><trkpt lat="45.6611383" lon="10.0015267"><ele>194.25</ele><time>2026-04-25T11:08:41.228Z</time></trkpt><trkpt lat="45.6612167" lon="10.0013933"><ele>194.5</ele><time>2026-04-25T11:08:42.231Z</time></trkpt><trkpt lat="45.661295" lon="10.001265"><ele>194.75</ele><time>2026-04-25T11:08:43.23Z</time></trkpt><trkpt lat="45.6613733" lon="10.0011383"><ele>195.0</ele><time>2026-04-25T11:08:44.229Z</time></trkpt><trkpt lat="45.6614567" lon="10.0010183"><ele>195.0</ele><time>2026-04-25T11:08:45.228Z</time></trkpt><trkpt lat="45.66154" lon="10.000905"><ele>195.0</ele><time>2026-04-25T11:08:46.227Z</time></trkpt><trkpt lat="45.6616167" lon="10.00081"><ele>195.0</ele><time>2026-04-25T11:08:47.228Z</time></trkpt><trkpt lat="45.6616883" lon="10.000725"><ele>195.0</ele><time>2026-04-25T11:08:48.228Z</time></trkpt><trkpt lat="45.6617583" lon="10.00065"><ele>195.0</ele><time>2026-04-25T11:08:49.229Z</time></trkpt><trkpt lat="45.6618267" lon="10.0005817"><ele>195.16666666666666</ele><time>2026-04-25T11:08:50.227Z</time></trkpt><trkpt lat="45.66189" lon="10.0005133"><ele>195.33333333333331</ele><time>2026-04-25T11:08:51.23Z</time></trkpt><trkpt lat="45.66195" lon="10.00045"><ele>195.5</ele><time>2026-04-25T11:08:52.228Z</time></trkpt><trkpt lat="45.66201" lon="10.000385"><ele>195.66666666666666</ele><time>2026-04-25T11:08:53.228Z</time></trkpt><trkpt lat="45.66207" lon="10.0003217"><ele>195.83333333333331</ele><time>2026-04-25T11:08:54.227Z</time></trkpt><trkpt lat="45.6621333" lon="10.0002633"><ele>196.0</ele><time>2026-04-25T11:08:55.228Z</time></trkpt><trkpt lat="45.66219" lon="10.0002017"><ele>195.20000000000002</ele><time>2026-04-25T11:08:56.228Z</time></trkpt><trkpt lat="45.66225" lon="10.0001367"><ele>194.4</ele><time>2026-04-25T11:08:57.229Z</time></trkpt><trkpt lat="45.6623183" lon="10.0000633"><ele>193.6</ele><time>2026-04-25T11:08:58.228Z</time></trkpt><trkpt lat="45.6623983" lon="9.9999767"><ele>192.8</ele><time>2026-04-25T11:08:59.229Z</time></trkpt><trkpt lat="45.66248" lon="9.99989"><ele>192.0</ele><time>2026-04-25T11:09:00.231Z</time></trkpt><trkpt lat="45.66256" lon="9.9998067"><ele>192.0</ele><time>2026-04-25T11:09:01.23Z</time></trkpt><trkpt lat="45.66264" lon="9.999725"><ele>192.0</ele><time>2026-04-25T11:09:02.232Z</time></trkpt><trkpt lat="45.6627233" lon="9.9996383"><ele>192.0</ele><time>2026-04-25T11:09:03.228Z</time></trkpt><trkpt lat="45.66281" lon="9.9995467"><ele>192.0</ele><time>2026-04-25T11:09:04.229Z</time></trkpt><trkpt lat="45.6628983" lon="9.99945"><ele>192.0</ele><time>2026-04-25T11:09:05.228Z</time></trkpt><trkpt lat="45.6629883" lon="9.9993467"><ele>191.6</ele><time>2026-04-25T11:09:06.228Z</time></trkpt><trkpt lat="45.6630783" lon="9.9992483"><ele>191.2</ele><time>2026-04-25T11:09:07.229Z</time></trkpt><trkpt lat="45.6631633" lon="9.9991567"><ele>190.8</ele><time>2026-04-25T11:09:08.228Z</time></trkpt><trkpt lat="45.6632417" lon="9.99907"><ele>190.4</ele><time>2026-04-25T11:09:09.228Z</time></trkpt><trkpt lat="45.6633183" lon="9.9989883"><ele>190.0</ele><time>2026-04-25T11:09:10.228Z</time></trkpt><trkpt lat="45.6633917" lon="9.9989083"><ele>189.8</ele><time>2026-04-25T11:09:11.227Z</time></trkpt><trkpt lat="45.6634567" lon="9.99884"><ele>189.6</ele><time>2026-04-25T11:09:12.228Z</time></trkpt><trkpt lat="45.6635467" lon="9.9987417"><ele>189.39999999999998</ele><time>2026-04-25T11:09:14.227Z</time></trkpt><trkpt lat="45.663635" lon="9.9986467"><ele>189.2</ele><time>2026-04-25T11:09:16.228Z</time></trkpt><trkpt lat="45.6636883" lon="9.9985917"><ele>189.0</ele><time>2026-04-25T11:09:17.228Z</time></trkpt><trkpt lat="45.663755" lon="9.99852"><ele>188.79999999999998</ele><time>2026-04-25T11:09:18.228Z</time></trkpt><trkpt lat="45.66383" lon="9.9984383"><ele>188.6</ele><time>2026-04-25T11:09:19.228Z</time></trkpt><trkpt lat="45.66391" lon="9.99835"><ele>188.4</ele><time>2026-04-25T11:09:20.227Z</time></trkpt><trkpt lat="45.6639933" lon="9.9982517"><ele>188.2</ele><time>2026-04-25T11:09:21.227Z</time></trkpt><trkpt lat="45.66408" lon="9.9981467"><ele>188.0</ele><time>2026-04-25T11:09:22.228Z</time></trkpt><trkpt lat="45.664165" lon="9.9980383"><ele>188.0</ele><time>2026-04-25T11:09:23.228Z</time></trkpt><trkpt lat="45.664245" lon="9.9979217"><ele>188.0</ele><time>2026-04-25T11:09:24.228Z</time></trkpt><trkpt lat="45.664325" lon="9.9977983"><ele>188.0</ele><time>2026-04-25T11:09:25.229Z</time></trkpt><trkpt lat="45.6643983" lon="9.9976667"><ele>188.0</ele><time>2026-04-25T11:09:26.227Z</time></trkpt><trkpt lat="45.6644667" lon="9.9975267"><ele>187.75</ele><time>2026-04-25T11:09:27.228Z</time></trkpt><trkpt lat="45.664535" lon="9.9973783"><ele>187.5</ele><time>2026-04-25T11:09:28.227Z</time></trkpt><trkpt lat="45.6645933" lon="9.9972283"><ele>187.25</ele><time>2026-04-25T11:09:29.227Z</time></trkpt><trkpt lat="45.66465" lon="9.997075"><ele>187.0</ele><time>2026-04-25T11:09:30.227Z</time></trkpt><trkpt lat="45.6646983" lon="9.9969133"><ele>187.0</ele><time>2026-04-25T11:09:31.228Z</time></trkpt><trkpt lat="45.6647367" lon="9.99675"><ele>187.0</ele><time>2026-04-25T11:09:32.228Z</time></trkpt><trkpt lat="45.6647717" lon="9.9965817"><ele>187.0</ele><time>2026-04-25T11:09:33.228Z</time></trkpt><trkpt lat="45.6648017" lon="9.996415"><ele>187.0</ele><time>2026-04-25T11:09:34.227Z</time></trkpt><trkpt lat="45.6648283" lon="9.9962467"><ele>187.25</ele><time>2026-04-25T11:09:35.228Z</time></trkpt><trkpt lat="45.6648533" lon="9.9960783"><ele>187.5</ele><time>2026-04-25T11:09:36.228Z</time></trkpt><trkpt lat="45.6648783" lon="9.9959067"><ele>187.75</ele><time>2026-04-25T11:09:37.227Z</time></trkpt><trkpt lat="45.664905" lon="9.99573"><ele>188.0</ele><time>2026-04-25T11:09:38.227Z</time></trkpt><trkpt lat="45.6649317" lon="9.9955517"><ele>188.5</ele><time>2026-04-25T11:09:39.227Z</time></trkpt><trkpt lat="45.6649567" lon="9.9953683"><ele>189.0</ele><time>2026-04-25T11:09:40.227Z</time></trkpt><trkpt lat="45.664985" lon="9.9951733"><ele>189.5</ele><time>2026-04-25T11:09:41.228Z</time></trkpt><trkpt lat="45.6650133" lon="9.9949667"><ele>190.0</ele><time>2026-04-25T11:09:42.228Z</time></trkpt><trkpt lat="45.6650383" lon="9.9947583"><ele>190.25</ele><time>2026-04-25T11:09:43.23Z</time></trkpt><trkpt lat="45.66506" lon="9.9945583"><ele>190.5</ele><time>2026-04-25T11:09:44.228Z</time></trkpt><trkpt lat="45.6650817" lon="9.9943633"><ele>190.75</ele><time>2026-04-25T11:09:45.227Z</time></trkpt><trkpt lat="45.6651067" lon="9.994165"><ele>191.0</ele><time>2026-04-25T11:09:46.228Z</time></trkpt><trkpt lat="45.6651367" lon="9.993955"><ele>191.66666666666666</ele><time>2026-04-25T11:09:47.228Z</time></trkpt><trkpt lat="45.6651683" lon="9.9937333"><ele>192.33333333333331</ele><time>2026-04-25T11:09:48.229Z</time></trkpt><trkpt lat="45.6651983" lon="9.9935067"><ele>193.0</ele><time>2026-04-25T11:09:49.227Z</time></trkpt><trkpt lat="45.66523" lon="9.99327"><ele>194.33333333333331</ele><time>2026-04-25T11:09:50.228Z</time></trkpt><trkpt lat="45.66526" lon="9.99303"><ele>195.66666666666669</ele><time>2026-04-25T11:09:51.228Z</time></trkpt><trkpt lat="45.66529" lon="9.9927833"><ele>197.0</ele><time>2026-04-25T11:09:52.227Z</time></trkpt><trkpt lat="45.6653233" lon="9.9925383"><ele>193.33333333333334</ele><time>2026-04-25T11:09:53.228Z</time></trkpt><trkpt lat="45.6653567" lon="9.9922967"><ele>189.66666666666669</ele><time>2026-04-25T11:09:54.228Z</time></trkpt><trkpt lat="45.665385" lon="9.99206"><ele>186.0</ele><time>2026-04-25T11:09:55.227Z</time></trkpt><trkpt lat="45.6654117" lon="9.9918217"><ele>186.33333333333334</ele><time>2026-04-25T11:09:56.227Z</time></trkpt><trkpt lat="45.6654383" lon="9.9915867"><ele>186.66666666666669</ele><time>2026-04-25T11:09:57.228Z</time></trkpt><trkpt lat="45.6654617" lon="9.9913517"><ele>187.0</ele><time>2026-04-25T11:09:58.229Z</time></trkpt><trkpt lat="45.665475" lon="9.9911167"><ele>187.0</ele><time>2026-04-25T11:09:59.228Z</time></trkpt><trkpt lat="45.6654767" lon="9.99088"><ele>187.0</ele><time>2026-04-25T11:10:00.227Z</time></trkpt><trkpt lat="45.6654617" lon="9.9906383"><ele>187.0</ele><time>2026-04-25T11:10:01.228Z</time></trkpt><trkpt lat="45.6654367" lon="9.9903967"><ele>187.0</ele><time>2026-04-25T11:10:02.23Z</time></trkpt><trkpt lat="45.6654" lon="9.990155"><ele>187.0</ele><time>2026-04-25T11:10:03.228Z</time></trkpt><trkpt lat="45.665355" lon="9.9899117"><ele>187.0</ele><time>2026-04-25T11:10:04.228Z</time></trkpt><trkpt lat="45.6653117" lon="9.9896683"><ele>188.0</ele><time>2026-04-25T11:10:05.229Z</time></trkpt><trkpt lat="45.6652683" lon="9.989425"><ele>189.0</ele><time>2026-04-25T11:10:06.229Z</time></trkpt><trkpt lat="45.6652267" lon="9.98919"><ele>190.0</ele><time>2026-04-25T11:10:07.229Z</time></trkpt><trkpt lat="45.6651867" lon="9.9889583"><ele>190.0</ele><time>2026-04-25T11:10:08.227Z</time></trkpt><trkpt lat="45.6651467" lon="9.988725"><ele>190.0</ele><time>2026-04-25T11:10:09.227Z</time></trkpt><trkpt lat="45.665105" lon="9.9884883"><ele>190.0</ele><time>2026-04-25T11:10:10.227Z</time></trkpt><trkpt lat="45.665065" lon="9.988245"><ele>190.0</ele><time>2026-04-25T11:10:11.23Z</time></trkpt><trkpt lat="45.66502" lon="9.988"><ele>190.0</ele><time>2026-04-25T11:10:12.228Z</time></trkpt><trkpt lat="45.6649767" lon="9.9877567"><ele>190.0</ele><time>2026-04-25T11:10:13.229Z</time></trkpt><trkpt lat="45.6649383" lon="9.9875183"><ele>189.33333333333334</ele><time>2026-04-25T11:10:14.227Z</time></trkpt><trkpt lat="45.6648983" lon="9.9872917"><ele>188.66666666666666</ele><time>2026-04-25T11:10:15.231Z</time></trkpt><trkpt lat="45.66486" lon="9.9870733"><ele>188.0</ele><time>2026-04-25T11:10:16.227Z</time></trkpt><trkpt lat="45.6648233" lon="9.9868683"><ele>188.25</ele><time>2026-04-25T11:10:17.227Z</time></trkpt><trkpt lat="45.6647867" lon="9.9866717"><ele>188.5</ele><time>2026-04-25T11:10:18.23Z</time></trkpt><trkpt lat="45.664755" lon="9.9864783"><ele>188.75</ele><time>2026-04-25T11:10:19.229Z</time></trkpt><trkpt lat="45.6647217" lon="9.9862833"><ele>189.0</ele><time>2026-04-25T11:10:20.229Z</time></trkpt><trkpt lat="45.6646883" lon="9.9860917"><ele>189.0</ele><time>2026-04-25T11:10:21.23Z</time></trkpt><trkpt lat="45.664655" lon="9.9859"><ele>189.0</ele><time>2026-04-25T11:10:22.227Z</time></trkpt><trkpt lat="45.6646217" lon="9.9857033"><ele>189.0</ele><time>2026-04-25T11:10:23.227Z</time></trkpt><trkpt lat="45.664585" lon="9.9855033"><ele>189.0</ele><time>2026-04-25T11:10:24.227Z</time></trkpt><trkpt lat="45.6645483" lon="9.9853033"><ele>189.0</ele><time>2026-04-25T11:10:25.229Z</time></trkpt><trkpt lat="45.664515" lon="9.9851017"><ele>189.0</ele><time>2026-04-25T11:10:26.227Z</time></trkpt><trkpt lat="45.6644783" lon="9.9848967"><ele>189.0</ele><time>2026-04-25T11:10:27.229Z</time></trkpt><trkpt lat="45.6644417" lon="9.9846917"><ele>189.0</ele><time>2026-04-25T11:10:28.229Z</time></trkpt><trkpt lat="45.6644033" lon="9.9844817"><ele>190.0</ele><time>2026-04-25T11:10:29.229Z</time></trkpt><trkpt lat="45.6643633" lon="9.98427"><ele>191.0</ele><time>2026-04-25T11:10:30.227Z</time></trkpt><trkpt lat="45.664325" lon="9.984055"><ele>192.0</ele><time>2026-04-25T11:10:31.228Z</time></trkpt><trkpt lat="45.6642883" lon="9.9838383"><ele>192.0</ele><time>2026-04-25T11:10:32.227Z</time></trkpt><trkpt lat="45.66425" lon="9.98362"><ele>192.0</ele><time>2026-04-25T11:10:33.228Z</time></trkpt><trkpt lat="45.66421" lon="9.9833983"><ele>192.0</ele><time>2026-04-25T11:10:34.227Z</time></trkpt><trkpt lat="45.66417" lon="9.9831733"><ele>191.33333333333334</ele><time>2026-04-25T11:10:35.232Z</time></trkpt><trkpt lat="45.6641333" lon="9.98295"><ele>190.66666666666669</ele><time>2026-04-25T11:10:36.23Z</time></trkpt><trkpt lat="45.6640933" lon="9.9827383"><ele>190.0</ele><time>2026-04-25T11:10:37.227Z</time></trkpt><trkpt lat="45.6640567" lon="9.9825383"><ele>189.6</ele><time>2026-04-25T11:10:38.228Z</time></trkpt><trkpt lat="45.66402" lon="9.9823533"><ele>189.2</ele><time>2026-04-25T11:10:39.23Z</time></trkpt><trkpt lat="45.6639917" lon="9.9821883"><ele>188.8</ele><time>2026-04-25T11:10:40.227Z</time></trkpt><trkpt lat="45.6639667" lon="9.9820517"><ele>188.4</ele><time>2026-04-25T11:10:41.227Z</time></trkpt><trkpt lat="45.6639417" lon="9.981935"><ele>188.0</ele><time>2026-04-25T11:10:42.233Z</time></trkpt><trkpt lat="45.6639117" lon="9.981835"><ele>188.0</ele><time>2026-04-25T11:10:43.229Z</time></trkpt><trkpt lat="45.6638817" lon="9.9817467"><ele>188.0</ele><time>2026-04-25T11:10:44.228Z</time></trkpt><trkpt lat="45.6638567" lon="9.9816633"><ele>188.0</ele><time>2026-04-25T11:10:45.229Z</time></trkpt><trkpt lat="45.6638367" lon="9.981575"><ele>188.0</ele><time>2026-04-25T11:10:46.229Z</time></trkpt><trkpt lat="45.6638167" lon="9.9814783"><ele>188.0</ele><time>2026-04-25T11:10:47.228Z</time></trkpt><trkpt lat="45.6637917" lon="9.98137"><ele>188.0</ele><time>2026-04-25T11:10:48.227Z</time></trkpt><trkpt lat="45.6637633" lon="9.9812433"><ele>188.0</ele><time>2026-04-25T11:10:49.227Z</time></trkpt><trkpt lat="45.6637317" lon="9.981105"><ele>188.0</ele><time>2026-04-25T11:10:50.228Z</time></trkpt><trkpt lat="45.6637017" lon="9.9809617"><ele>188.0</ele><time>2026-04-25T11:10:51.228Z</time></trkpt><trkpt lat="45.663665" lon="9.98083"><ele>188.0</ele><time>2026-04-25T11:10:52.228Z</time></trkpt><trkpt lat="45.6636283" lon="9.9807183"><ele>188.0</ele><time>2026-04-25T11:10:53.228Z</time></trkpt><trkpt lat="45.6635917" lon="9.980615"><ele>188.0</ele><time>2026-04-25T11:10:54.231Z</time></trkpt><trkpt lat="45.663555" lon="9.9805167"><ele>188.0</ele><time>2026-04-25T11:10:55.23Z</time></trkpt><trkpt lat="45.6635183" lon="9.9804133"><ele>188.4</ele><time>2026-04-25T11:10:56.228Z</time></trkpt><trkpt lat="45.6634717" lon="9.9803033"><ele>188.8</ele><time>2026-04-25T11:10:57.228Z</time></trkpt><trkpt lat="45.66342" lon="9.980175"><ele>189.2</ele><time>2026-04-25T11:10:58.227Z</time></trkpt><trkpt lat="45.663365" lon="9.9800333"><ele>189.6</ele><time>2026-04-25T11:10:59.229Z</time></trkpt><trkpt lat="45.66331" lon="9.9798817"><ele>190.0</ele><time>2026-04-25T11:11:00.228Z</time></trkpt><trkpt lat="45.66326" lon="9.979725"><ele>190.0</ele><time>2026-04-25T11:11:01.228Z</time></trkpt><trkpt lat="45.663205" lon="9.9795633"><ele>190.0</ele><time>2026-04-25T11:11:02.228Z</time></trkpt><trkpt lat="45.6631467" lon="9.9793967"><ele>190.0</ele><time>2026-04-25T11:11:03.229Z</time></trkpt><trkpt lat="45.663085" lon="9.9792283"><ele>190.0</ele><time>2026-04-25T11:11:04.227Z</time></trkpt><trkpt lat="45.6630217" lon="9.979055"><ele>189.5</ele><time>2026-04-25T11:11:05.228Z</time></trkpt><trkpt lat="45.6629583" lon="9.9788783"><ele>189.0</ele><time>2026-04-25T11:11:06.229Z</time></trkpt><trkpt lat="45.6629" lon="9.978705"><ele>188.5</ele><time>2026-04-25T11:11:07.228Z</time></trkpt><trkpt lat="45.6628433" lon="9.978535"><ele>188.0</ele><time>2026-04-25T11:11:08.227Z</time></trkpt><trkpt lat="45.662785" lon="9.97837"><ele>191.5</ele><time>2026-04-25T11:11:09.229Z</time></trkpt><trkpt lat="45.6627217" lon="9.9782017"><ele>195.0</ele><time>2026-04-25T11:11:10.229Z</time></trkpt><trkpt lat="45.6626617" lon="9.9780233"><ele>198.5</ele><time>2026-04-25T11:11:11.228Z</time></trkpt><trkpt lat="45.6626017" lon="9.9778383"><ele>202.0</ele><time>2026-04-25T11:11:12.228Z</time></trkpt><trkpt lat="45.6625383" lon="9.97766"><ele>199.25</ele><time>2026-04-25T11:11:13.227Z</time></trkpt><trkpt lat="45.6624733" lon="9.97748"><ele>196.5</ele><time>2026-04-25T11:11:14.228Z</time></trkpt><trkpt lat="45.6624067" lon="9.9773017"><ele>193.75</ele><time>2026-04-25T11:11:15.228Z</time></trkpt><trkpt lat="45.6623567" lon="9.9771167"><ele>191.0</ele><time>2026-04-25T11:11:16.227Z</time></trkpt><trkpt lat="45.662295" lon="9.97693"><ele>191.0</ele><time>2026-04-25T11:11:17.227Z</time></trkpt><trkpt lat="45.6622417" lon="9.9767417"><ele>191.0</ele><time>2026-04-25T11:11:18.229Z</time></trkpt><trkpt lat="45.66219" lon="9.97655"><ele>191.0</ele><time>2026-04-25T11:11:19.229Z</time></trkpt><trkpt lat="45.6621367" lon="9.9763617"><ele>191.0</ele><time>2026-04-25T11:11:20.229Z</time></trkpt><trkpt lat="45.6620883" lon="9.9761733"><ele>191.75</ele><time>2026-04-25T11:11:21.231Z</time></trkpt><trkpt lat="45.66204" lon="9.9759867"><ele>192.5</ele><time>2026-04-25T11:11:22.229Z</time></trkpt><trkpt lat="45.66199" lon="9.9757983"><ele>193.25</ele><time>2026-04-25T11:11:23.229Z</time></trkpt><trkpt lat="45.6619383" lon="9.97561"><ele>194.0</ele><time>2026-04-25T11:11:24.229Z</time></trkpt><trkpt lat="45.66189" lon="9.975425"><ele>194.0</ele><time>2026-04-25T11:11:25.229Z</time></trkpt><trkpt lat="45.6618467" lon="9.9752467"><ele>194.0</ele><time>2026-04-25T11:11:26.232Z</time></trkpt><trkpt lat="45.661805" lon="9.97508"><ele>194.0</ele><time>2026-04-25T11:11:27.227Z</time></trkpt><trkpt lat="45.6617633" lon="9.9749217"><ele>194.0</ele><time>2026-04-25T11:11:28.227Z</time></trkpt><trkpt lat="45.66172" lon="9.9747667"><ele>193.39999999999998</ele><time>2026-04-25T11:11:29.228Z</time></trkpt><trkpt lat="45.6616767" lon="9.9746133"><ele>192.8</ele><time>2026-04-25T11:11:30.229Z</time></trkpt><trkpt lat="45.661635" lon="9.974465"><ele>192.2</ele><time>2026-04-25T11:11:31.227Z</time></trkpt><trkpt lat="45.661595" lon="9.974325"><ele>191.60000000000002</ele><time>2026-04-25T11:11:32.228Z</time></trkpt><trkpt lat="45.6615617" lon="9.9741917"><ele>191.0</ele><time>2026-04-25T11:11:33.229Z</time></trkpt><trkpt lat="45.6615267" lon="9.97406"><ele>190.20000000000002</ele><time>2026-04-25T11:11:34.228Z</time></trkpt><trkpt lat="45.6614883" lon="9.973925"><ele>189.4</ele><time>2026-04-25T11:11:35.228Z</time></trkpt><trkpt lat="45.66145" lon="9.9737817"><ele>188.6</ele><time>2026-04-25T11:11:36.231Z</time></trkpt><trkpt lat="45.66141" lon="9.97363"><ele>187.8</ele><time>2026-04-25T11:11:37.229Z</time></trkpt><trkpt lat="45.6613667" lon="9.9734733"><ele>187.0</ele><time>2026-04-25T11:11:38.229Z</time></trkpt><trkpt lat="45.6613217" lon="9.9733167"><ele>186.25</ele><time>2026-04-25T11:11:39.229Z</time></trkpt><trkpt lat="45.6612783" lon="9.9731617"><ele>185.5</ele><time>2026-04-25T11:11:40.227Z</time></trkpt><trkpt lat="45.6612367" lon="9.97301"><ele>184.75</ele><time>2026-04-25T11:11:41.229Z</time></trkpt><trkpt lat="45.6611933" lon="9.9728583"><ele>184.0</ele><time>2026-04-25T11:11:42.228Z</time></trkpt><trkpt lat="45.66115" lon="9.972705"><ele>185.0</ele><time>2026-04-25T11:11:43.228Z</time></trkpt><trkpt lat="45.661105" lon="9.9725517"><ele>186.0</ele><time>2026-04-25T11:11:44.228Z</time></trkpt><trkpt lat="45.6610567" lon="9.9723983"><ele>187.0</ele><time>2026-04-25T11:11:45.229Z</time></trkpt><trkpt lat="45.6610017" lon="9.9722617"><ele>188.0</ele><time>2026-04-25T11:11:46.228Z</time></trkpt><trkpt lat="45.6609533" lon="9.9721467"><ele>189.0</ele><time>2026-04-25T11:11:47.227Z</time></trkpt><trkpt lat="45.6609133" lon="9.972055"><ele>189.0</ele><time>2026-04-25T11:11:48.229Z</time></trkpt><trkpt lat="45.66086" lon="9.9719467"><ele>189.0</ele><time>2026-04-25T11:11:50.231Z</time></trkpt><trkpt lat="45.6608267" lon="9.971865"><ele>189.0</ele><time>2026-04-25T11:11:53.231Z</time></trkpt><trkpt lat="45.6607783" lon="9.9718"><ele>189.0</ele><time>2026-04-25T11:12:07.229Z</time></trkpt><trkpt lat="45.6607267" lon="9.9717233"><ele>189.0</ele><time>2026-04-25T11:12:08.229Z</time></trkpt><trkpt lat="45.6606683" lon="9.9716433"><ele>189.0</ele><time>2026-04-25T11:12:09.228Z</time></trkpt><trkpt lat="45.6606183" lon="9.9715633"><ele>189.5</ele><time>2026-04-25T11:12:10.228Z</time></trkpt><trkpt lat="45.6605633" lon="9.971485"><ele>190.0</ele><time>2026-04-25T11:12:11.229Z</time></trkpt><trkpt lat="45.6605017" lon="9.9714"><ele>190.5</ele><time>2026-04-25T11:12:12.229Z</time></trkpt><trkpt lat="45.660435" lon="9.97131"><ele>191.0</ele><time>2026-04-25T11:12:13.229Z</time></trkpt><trkpt lat="45.66037" lon="9.9712183"><ele>191.5</ele><time>2026-04-25T11:12:14.232Z</time></trkpt><trkpt lat="45.6603" lon="9.9711233"><ele>192.0</ele><time>2026-04-25T11:12:15.228Z</time></trkpt><trkpt lat="45.6602267" lon="9.9710217"><ele>192.0</ele><time>2026-04-25T11:12:16.227Z</time></trkpt><trkpt lat="45.6601533" lon="9.970915"><ele>192.0</ele><time>2026-04-25T11:12:17.228Z</time></trkpt><trkpt lat="45.6600767" lon="9.9708083"><ele>192.0</ele><time>2026-04-25T11:12:18.232Z</time></trkpt><trkpt lat="45.6599967" lon="9.9706967"><ele>192.0</ele><time>2026-04-25T11:12:19.231Z</time></trkpt><trkpt lat="45.6599083" lon="9.970575"><ele>192.0</ele><time>2026-04-25T11:12:20.231Z</time></trkpt><trkpt lat="45.659815" lon="9.970445"><ele>191.5</ele><time>2026-04-25T11:12:21.23Z</time></trkpt><trkpt lat="45.6597133" lon="9.970305"><ele>191.0</ele><time>2026-04-25T11:12:22.229Z</time></trkpt><trkpt lat="45.6596067" lon="9.9701583"><ele>190.5</ele><time>2026-04-25T11:12:23.229Z</time></trkpt><trkpt lat="45.6595" lon="9.9700083"><ele>190.0</ele><time>2026-04-25T11:12:24.23Z</time></trkpt><trkpt lat="45.659395" lon="9.9698617"><ele>191.0</ele><time>2026-04-25T11:12:25.228Z</time></trkpt><trkpt lat="45.6593" lon="9.9697317"><ele>192.0</ele><time>2026-04-25T11:12:26.227Z</time></trkpt><trkpt lat="45.659215" lon="9.9696217"><ele>193.0</ele><time>2026-04-25T11:12:27.229Z</time></trkpt><trkpt lat="45.6591383" lon="9.9695217"><ele>194.0</ele><time>2026-04-25T11:12:28.229Z</time></trkpt><trkpt lat="45.6590517" lon="9.9694167"><ele>194.0</ele><time>2026-04-25T11:12:29.227Z</time></trkpt><trkpt lat="45.6589533" lon="9.9692867"><ele>194.0</ele><time>2026-04-25T11:12:30.229Z</time></trkpt><trkpt lat="45.6588533" lon="9.9691333"><ele>194.0</ele><time>2026-04-25T11:12:31.227Z</time></trkpt><trkpt lat="45.6587467" lon="9.96897"><ele>194.0</ele><time>2026-04-25T11:12:32.228Z</time></trkpt><trkpt lat="45.6586367" lon="9.9688083"><ele>193.5</ele><time>2026-04-25T11:12:33.227Z</time></trkpt><trkpt lat="45.6585317" lon="9.968655"><ele>193.0</ele><time>2026-04-25T11:12:34.227Z</time></trkpt><trkpt lat="45.6584367" lon="9.9685067"><ele>192.5</ele><time>2026-04-25T11:12:35.229Z</time></trkpt><trkpt lat="45.6583583" lon="9.9683583"><ele>192.0</ele><time>2026-04-25T11:12:36.229Z</time></trkpt><trkpt lat="45.6582917" lon="9.9682117"><ele>191.39999999999998</ele><time>2026-04-25T11:12:37.231Z</time></trkpt><trkpt lat="45.65824" lon="9.9680717"><ele>190.79999999999998</ele><time>2026-04-25T11:12:38.229Z</time></trkpt><trkpt lat="45.6582017" lon="9.9679483"><ele>190.2</ele><time>2026-04-25T11:12:39.229Z</time></trkpt><trkpt lat="45.6581733" lon="9.9678367"><ele>189.6</ele><time>2026-04-25T11:12:40.227Z</time></trkpt><trkpt lat="45.6581567" lon="9.9677233"><ele>189.0</ele><time>2026-04-25T11:12:41.228Z</time></trkpt><trkpt lat="45.6581367" lon="9.9676083"><ele>188.79999999999998</ele><time>2026-04-25T11:12:42.229Z</time></trkpt><trkpt lat="45.6581167" lon="9.96749"><ele>188.6</ele><time>2026-04-25T11:12:43.227Z</time></trkpt><trkpt lat="45.6581033" lon="9.9673617"><ele>188.4</ele><time>2026-04-25T11:12:44.23Z</time></trkpt><trkpt lat="45.6580967" lon="9.9672233"><ele>188.2</ele><time>2026-04-25T11:12:45.229Z</time></trkpt><trkpt lat="45.6580967" lon="9.967075"><ele>188.0</ele><time>2026-04-25T11:12:46.228Z</time></trkpt><trkpt lat="45.6581033" lon="9.9669167"><ele>188.0</ele><time>2026-04-25T11:12:47.229Z</time></trkpt><trkpt lat="45.6581133" lon="9.9667533"><ele>188.0</ele><time>2026-04-25T11:12:48.227Z</time></trkpt><trkpt lat="45.6581283" lon="9.96659"><ele>188.0</ele><time>2026-04-25T11:12:49.228Z</time></trkpt><trkpt lat="45.6581517" lon="9.9664333"><ele>188.0</ele><time>2026-04-25T11:12:50.229Z</time></trkpt><trkpt lat="45.65819" lon="9.9662783"><ele>188.2</ele><time>2026-04-25T11:12:51.231Z</time></trkpt><trkpt lat="45.65824" lon="9.966125"><ele>188.4</ele><time>2026-04-25T11:12:52.229Z</time></trkpt><trkpt lat="45.658295" lon="9.9659783"><ele>188.6</ele><time>2026-04-25T11:12:53.227Z</time></trkpt><trkpt lat="45.65835" lon="9.965845"><ele>188.79999999999998</ele><time>2026-04-25T11:12:54.228Z</time></trkpt><trkpt lat="45.6584033" lon="9.9657233"><ele>189.0</ele><time>2026-04-25T11:12:55.23Z</time></trkpt><trkpt lat="45.6584583" lon="9.96561"><ele>189.0</ele><time>2026-04-25T11:12:56.229Z</time></trkpt><trkpt lat="45.658515" lon="9.965495"><ele>189.0</ele><time>2026-04-25T11:12:57.229Z</time></trkpt><trkpt lat="45.6585667" lon="9.9653817"><ele>189.0</ele><time>2026-04-25T11:12:58.229Z</time></trkpt><trkpt lat="45.6586133" lon="9.965275"><ele>189.0</ele><time>2026-04-25T11:12:59.227Z</time></trkpt><trkpt lat="45.6586617" lon="9.96518"><ele>189.0</ele><time>2026-04-25T11:13:00.229Z</time></trkpt><trkpt lat="45.6587133" lon="9.9650983"><ele>189.0</ele><time>2026-04-25T11:13:01.228Z</time></trkpt><trkpt lat="45.658765" lon="9.965025"><ele>189.0</ele><time>2026-04-25T11:13:02.234Z</time></trkpt><trkpt lat="45.6588083" lon="9.9649533"><ele>189.0</ele><time>2026-04-25T11:13:03.23Z</time></trkpt><trkpt lat="45.658835" lon="9.9647883"><ele>189.0</ele><time>2026-04-25T11:13:05.228Z</time></trkpt><trkpt lat="45.6587733" lon="9.96468"><ele>189.0</ele><time>2026-04-25T11:13:07.227Z</time></trkpt><trkpt lat="45.6586667" lon="9.9646967"><ele>189.0</ele><time>2026-04-25T11:13:09.229Z</time></trkpt><trkpt lat="45.658595" lon="9.9648283"><ele>189.0</ele><time>2026-04-25T11:13:11.233Z</time></trkpt><trkpt lat="45.6585933" lon="9.9649433"><ele>189.0</ele><time>2026-04-25T11:13:12.229Z</time></trkpt><trkpt lat="45.6585917" lon="9.9650617"><ele>189.0</ele><time>2026-04-25T11:13:13.228Z</time></trkpt><trkpt lat="45.6585817" lon="9.9651917"><ele>189.0</ele><time>2026-04-25T11:13:14.229Z</time></trkpt><trkpt lat="45.6585517" lon="9.9653033"><ele>189.0</ele><time>2026-04-25T11:13:15.228Z</time></trkpt><trkpt lat="45.65851" lon="9.9654017"><ele>189.0</ele><time>2026-04-25T11:13:16.229Z</time></trkpt><trkpt lat="45.6584583" lon="9.965495"><ele>189.0</ele><time>2026-04-25T11:13:17.231Z</time></trkpt><trkpt lat="45.658405" lon="9.965595"><ele>189.0</ele><time>2026-04-25T11:13:18.23Z</time></trkpt><trkpt lat="45.658355" lon="9.9656883"><ele>189.0</ele><time>2026-04-25T11:13:19.23Z</time></trkpt><trkpt lat="45.6583117" lon="9.965775"><ele>189.0</ele><time>2026-04-25T11:13:20.231Z</time></trkpt><trkpt lat="45.6582733" lon="9.9658517"><ele>189.0</ele><time>2026-04-25T11:13:21.23Z</time></trkpt><trkpt lat="45.6582067" lon="9.9659267"><ele>189.0</ele><time>2026-04-25T11:13:23.229Z</time></trkpt><trkpt lat="45.6581333" lon="9.9659183"><ele>189.14285714285714</ele><time>2026-04-25T11:13:25.229Z</time></trkpt><trkpt lat="45.658065" lon="9.9659333"><ele>189.28571428571428</ele><time>2026-04-25T11:13:27.229Z</time></trkpt><trkpt lat="45.6580167" lon="9.96601"><ele>189.42857142857144</ele><time>2026-04-25T11:13:29.229Z</time></trkpt><trkpt lat="45.657985" lon="9.9660917"><ele>189.57142857142856</ele><time>2026-04-25T11:13:31.228Z</time></trkpt><trkpt lat="45.6579583" lon="9.96619"><ele>189.71428571428572</ele><time>2026-04-25T11:13:34.229Z</time></trkpt><trkpt lat="45.6579629" lon="9.9660989"><ele>189.85714285714286</ele><time>2026-04-25T11:17:30.283Z</time></trkpt><trkpt lat="45.6580291" lon="9.9660475"><ele>190.0</ele><time>2026-04-25T11:22:40.316Z</time></trkpt><trkpt lat="45.6580958" lon="9.9660582"><ele>190.0</ele><time>2026-04-25T11:31:47.293Z</time></trkpt><trkpt lat="45.6580352" lon="9.9660324"><ele>190.0</ele><time>2026-04-25T11:33:16.279Z</time></trkpt><trkpt lat="45.6579778" lon="9.9660694"><ele>190.0</ele><time>2026-04-25T11:35:44.32Z</time></trkpt><trkpt lat="45.6579118" lon="9.9660596"><ele>190.0</ele><time>2026-04-25T11:44:33.248Z</time></trkpt><trkpt lat="45.6579638" lon="9.9661283"><ele>190.0</ele><time>2026-04-25T11:47:50.263Z</time></trkpt><trkpt lat="45.6579827" lon="9.9660401"><ele>190.0</ele><time>2026-04-25T11:47:58.262Z</time></trkpt><trkpt lat="45.6579172" lon="9.9660081"><ele>190.0</ele><time>2026-04-25T11:55:32.615Z</time></trkpt><trkpt lat="45.6578868" lon="9.9659281"><ele>190.0</ele><time>2026-04-25T11:55:40.248Z</time></trkpt><trkpt lat="45.6578136" lon="9.9658921"><ele>190.0</ele><time>2026-04-25T11:56:00.361Z</time></trkpt><trkpt lat="45.6577881" lon="9.9657725"><ele>190.0</ele><time>2026-04-25T11:56:03.3Z</time></trkpt><trkpt lat="45.6578138" lon="9.9656772"><ele>190.0</ele><time>2026-04-25T11:56:08.357Z</time></trkpt><trkpt lat="45.6577514" lon="9.9656998"><ele>190.0</ele><time>2026-04-25T11:56:20.237Z</time></trkpt><trkpt lat="45.6577079" lon="9.9657762"><ele>190.0</ele><time>2026-04-25T11:56:26.236Z</time></trkpt><trkpt lat="45.6576952" lon="9.9656586"><ele>189.8</ele><time>2026-04-25T11:56:40.232Z</time></trkpt><trkpt lat="45.6576908" lon="9.9655468"><ele>189.6</ele><time>2026-04-25T11:56:42.231Z</time></trkpt><trkpt lat="45.6576834" lon="9.9654263"><ele>189.39999999999998</ele><time>2026-04-25T11:56:45.32Z</time></trkpt><trkpt lat="45.6578115" lon="9.9654575"><ele>189.2</ele><time>2026-04-25T11:56:47.3Z</time></trkpt><trkpt lat="45.6578925" lon="9.9655709"><ele>189.0</ele><time>2026-04-25T11:56:50.23Z</time></trkpt><trkpt lat="45.657924" lon="9.965654"><ele>189.0</ele><time>2026-04-25T11:56:54.346Z</time></trkpt><trkpt lat="45.6579268" lon="9.9657582"><ele>189.0</ele><time>2026-04-25T11:57:25.285Z</time></trkpt><trkpt lat="45.6579086" lon="9.9658681"><ele>189.0</ele><time>2026-04-25T11:57:42.297Z</time></trkpt><trkpt lat="45.6578468" lon="9.9659206"><ele>189.0</ele><time>2026-04-25T11:57:55.285Z</time></trkpt><trkpt lat="45.6579061" lon="9.9659535"><ele>189.0</ele><time>2026-04-25T11:59:08.21Z</time></trkpt><trkpt lat="45.6579433" lon="9.9660271"><ele>189.0</ele><time>2026-04-25T12:00:55.236Z</time></trkpt><trkpt lat="45.6579674" lon="9.9662442"><ele>189.16666666666666</ele><time>2026-04-25T12:00:56.295Z</time></trkpt><trkpt lat="45.6579974" lon="9.9661632"><ele>189.33333333333334</ele><time>2026-04-25T12:03:07.237Z</time></trkpt><trkpt lat="45.6580195" lon="9.966053"><ele>189.5</ele><time>2026-04-25T12:03:09.229Z</time></trkpt><trkpt lat="45.6580528" lon="9.9659522"><ele>189.66666666666669</ele><time>2026-04-25T12:03:12.27Z</time></trkpt><trkpt lat="45.6581126" lon="9.9659189"><ele>189.83333333333334</ele><time>2026-04-25T12:03:15.313Z</time></trkpt><trkpt lat="45.658209" lon="9.9659651"><ele>190.0</ele><time>2026-04-25T12:03:35.232Z</time></trkpt><trkpt lat="45.6582585" lon="9.9659049"><ele>189.8</ele><time>2026-04-25T12:03:36.228Z</time></trkpt><trkpt lat="45.6583157" lon="9.9658234"><ele>189.6</ele><time>2026-04-25T12:03:37.229Z</time></trkpt><trkpt lat="45.6583778" lon="9.965726"><ele>189.39999999999998</ele><time>2026-04-25T12:03:38.228Z</time></trkpt><trkpt lat="45.6584445" lon="9.9656208"><ele>189.2</ele><time>2026-04-25T12:03:39.228Z</time></trkpt><trkpt lat="45.658511" lon="9.9655037"><ele>189.0</ele><time>2026-04-25T12:03:40.231Z</time></trkpt><trkpt lat="45.6585777" lon="9.9653779"><ele>188.79999999999998</ele><time>2026-04-25T12:03:41.232Z</time></trkpt><trkpt lat="45.6586382" lon="9.9652499"><ele>188.6</ele><time>2026-04-25T12:03:42.227Z</time></trkpt><trkpt lat="45.6586991" lon="9.9651296"><ele>188.4</ele><time>2026-04-25T12:03:43.227Z</time></trkpt><trkpt lat="45.6587639" lon="9.9650116"><ele>188.2</ele><time>2026-04-25T12:03:44.227Z</time></trkpt><trkpt lat="45.6588324" lon="9.9648912"><ele>188.0</ele><time>2026-04-25T12:03:45.229Z</time></trkpt><trkpt lat="45.6589012" lon="9.964768"><ele>188.0</ele><time>2026-04-25T12:03:46.227Z</time></trkpt><trkpt lat="45.6589767" lon="9.9646448"><ele>188.0</ele><time>2026-04-25T12:03:47.227Z</time></trkpt><trkpt lat="45.6590621" lon="9.9645268"><ele>188.0</ele><time>2026-04-25T12:03:48.227Z</time></trkpt><trkpt lat="45.6591482" lon="9.9644061"><ele>188.0</ele><time>2026-04-25T12:03:49.227Z</time></trkpt><trkpt lat="45.6592292" lon="9.964284"><ele>187.8</ele><time>2026-04-25T12:03:50.229Z</time></trkpt><trkpt lat="45.659306" lon="9.964162"><ele>187.60000000000002</ele><time>2026-04-25T12:03:51.23Z</time></trkpt><trkpt lat="45.6593794" lon="9.9640429"><ele>187.39999999999998</ele><time>2026-04-25T12:03:52.228Z</time></trkpt><trkpt lat="45.6594498" lon="9.9639272"><ele>187.2</ele><time>2026-04-25T12:03:53.228Z</time></trkpt><trkpt lat="45.6595182" lon="9.9638124"><ele>187.0</ele><time>2026-04-25T12:03:54.227Z</time></trkpt><trkpt lat="45.6595837" lon="9.9636976"><ele>187.0</ele><time>2026-04-25T12:03:55.23Z</time></trkpt><trkpt lat="45.6596511" lon="9.9635856"><ele>187.0</ele><time>2026-04-25T12:03:56.228Z</time></trkpt><trkpt lat="45.6597236" lon="9.9634671"><ele>187.0</ele><time>2026-04-25T12:03:57.23Z</time></trkpt><trkpt lat="45.6598003" lon="9.963341"><ele>187.0</ele><time>2026-04-25T12:03:58.229Z</time></trkpt><trkpt lat="45.6598744" lon="9.9632138"><ele>187.0</ele><time>2026-04-25T12:03:59.229Z</time></trkpt><trkpt lat="45.6599467" lon="9.9630913"><ele>187.2</ele><time>2026-04-25T12:04:00.228Z</time></trkpt><trkpt lat="45.6600169" lon="9.9629723"><ele>187.39999999999998</ele><time>2026-04-25T12:04:01.23Z</time></trkpt><trkpt lat="45.6600851" lon="9.9628568"><ele>187.60000000000002</ele><time>2026-04-25T12:04:02.229Z</time></trkpt><trkpt lat="45.6601571" lon="9.9627377"><ele>187.8</ele><time>2026-04-25T12:04:03.228Z</time></trkpt><trkpt lat="45.6602311" lon="9.962612"><ele>188.0</ele><time>2026-04-25T12:04:04.228Z</time></trkpt><trkpt lat="45.6603045" lon="9.9624878"><ele>188.4</ele><time>2026-04-25T12:04:05.228Z</time></trkpt><trkpt lat="45.6603752" lon="9.9623687"><ele>188.8</ele><time>2026-04-25T12:04:06.231Z</time></trkpt><trkpt lat="45.6604451" lon="9.9622532"><ele>189.2</ele><time>2026-04-25T12:04:07.23Z</time></trkpt><trkpt lat="45.6605163" lon="9.962133"><ele>189.6</ele><time>2026-04-25T12:04:08.227Z</time></trkpt><trkpt lat="45.6605893" lon="9.9620085"><ele>190.0</ele><time>2026-04-25T12:04:09.229Z</time></trkpt><trkpt lat="45.6606669" lon="9.9618781"><ele>190.0</ele><time>2026-04-25T12:04:10.228Z</time></trkpt><trkpt lat="45.6607455" lon="9.9617487"><ele>190.0</ele><time>2026-04-25T12:04:11.228Z</time></trkpt><trkpt lat="45.6608229" lon="9.9616216"><ele>190.0</ele><time>2026-04-25T12:04:12.229Z</time></trkpt><trkpt lat="45.6609001" lon="9.9614925"><ele>190.0</ele><time>2026-04-25T12:04:13.227Z</time></trkpt><trkpt lat="45.6609769" lon="9.9613636"><ele>190.0</ele><time>2026-04-25T12:04:14.228Z</time></trkpt><trkpt lat="45.661052" lon="9.9612324"><ele>190.0</ele><time>2026-04-25T12:04:15.229Z</time></trkpt><trkpt lat="45.6611255" lon="9.9611033"><ele>190.0</ele><time>2026-04-25T12:04:16.23Z</time></trkpt><trkpt lat="45.6611977" lon="9.9609751"><ele>190.0</ele><time>2026-04-25T12:04:17.228Z</time></trkpt><trkpt lat="45.6612694" lon="9.9608482"><ele>189.6</ele><time>2026-04-25T12:04:18.228Z</time></trkpt><trkpt lat="45.6613422" lon="9.9607228"><ele>189.2</ele><time>2026-04-25T12:04:19.228Z</time></trkpt><trkpt lat="45.6614137" lon="9.9605994"><ele>188.8</ele><time>2026-04-25T12:04:20.23Z</time></trkpt><trkpt lat="45.6614848" lon="9.9604792"><ele>188.4</ele><time>2026-04-25T12:04:21.229Z</time></trkpt><trkpt lat="45.6615533" lon="9.9603666"><ele>188.0</ele><time>2026-04-25T12:04:22.23Z</time></trkpt><trkpt lat="45.6616209" lon="9.96026"><ele>188.0</ele><time>2026-04-25T12:04:23.23Z</time></trkpt><trkpt lat="45.6616848" lon="9.960157"><ele>188.0</ele><time>2026-04-25T12:04:24.23Z</time></trkpt><trkpt lat="45.6617454" lon="9.9600543"><ele>188.0</ele><time>2026-04-25T12:04:25.23Z</time></trkpt><trkpt lat="45.6618053" lon="9.9599539"><ele>188.0</ele><time>2026-04-25T12:04:26.231Z</time></trkpt><trkpt lat="45.6618665" lon="9.9598555"><ele>188.0</ele><time>2026-04-25T12:04:27.229Z</time></trkpt><trkpt lat="45.66193" lon="9.959755"><ele>187.8</ele><time>2026-04-25T12:04:28.229Z</time></trkpt><trkpt lat="45.6619933" lon="9.95965"><ele>187.60000000000002</ele><time>2026-04-25T12:04:29.231Z</time></trkpt><trkpt lat="45.6620583" lon="9.9595433"><ele>187.39999999999998</ele><time>2026-04-25T12:04:30.228Z</time></trkpt><trkpt lat="45.6621233" lon="9.9594367"><ele>187.2</ele><time>2026-04-25T12:04:31.227Z</time></trkpt><trkpt lat="45.6621883" lon="9.9593283"><ele>187.0</ele><time>2026-04-25T12:04:32.228Z</time></trkpt><trkpt lat="45.662255" lon="9.9592167"><ele>187.6</ele><time>2026-04-25T12:04:33.228Z</time></trkpt><trkpt lat="45.6623233" lon="9.9591017"><ele>188.2</ele><time>2026-04-25T12:04:34.229Z</time></trkpt><trkpt lat="45.66239" lon="9.9589867"><ele>188.8</ele><time>2026-04-25T12:04:35.231Z</time></trkpt><trkpt lat="45.662455" lon="9.95887"><ele>189.4</ele><time>2026-04-25T12:04:36.23Z</time></trkpt><trkpt lat="45.6625217" lon="9.9587517"><ele>190.0</ele><time>2026-04-25T12:04:37.228Z</time></trkpt><trkpt lat="45.6625883" lon="9.958635"><ele>190.0</ele><time>2026-04-25T12:04:38.229Z</time></trkpt><trkpt lat="45.6626533" lon="9.958525"><ele>190.0</ele><time>2026-04-25T12:04:39.23Z</time></trkpt><trkpt lat="45.6627167" lon="9.9584217"><ele>190.0</ele><time>2026-04-25T12:04:40.227Z</time></trkpt><trkpt lat="45.662775" lon="9.9583233"><ele>190.0</ele><time>2026-04-25T12:04:41.23Z</time></trkpt><trkpt lat="45.6628333" lon="9.9582267"><ele>190.0</ele><time>2026-04-25T12:04:42.227Z</time></trkpt><trkpt lat="45.6628883" lon="9.958135"><ele>189.83333333333334</ele><time>2026-04-25T12:04:43.228Z</time></trkpt><trkpt lat="45.6629433" lon="9.9580433"><ele>189.66666666666669</ele><time>2026-04-25T12:04:44.228Z</time></trkpt><trkpt lat="45.662995" lon="9.9579567"><ele>189.5</ele><time>2026-04-25T12:04:45.229Z</time></trkpt><trkpt lat="45.6630467" lon="9.95787"><ele>189.33333333333334</ele><time>2026-04-25T12:04:46.23Z</time></trkpt><trkpt lat="45.6631033" lon="9.9577783"><ele>189.16666666666666</ele><time>2026-04-25T12:04:47.227Z</time></trkpt><trkpt lat="45.66316" lon="9.9576783"><ele>189.0</ele><time>2026-04-25T12:04:48.229Z</time></trkpt><trkpt lat="45.6632117" lon="9.9575767"><ele>189.0</ele><time>2026-04-25T12:04:49.23Z</time></trkpt><trkpt lat="45.6632583" lon="9.9574733"><ele>189.0</ele><time>2026-04-25T12:04:50.229Z</time></trkpt><trkpt lat="45.663305" lon="9.9573817"><ele>189.0</ele><time>2026-04-25T12:04:51.23Z</time></trkpt><trkpt lat="45.66336" lon="9.9573"><ele>189.0</ele><time>2026-04-25T12:04:52.233Z</time></trkpt><trkpt lat="45.663415" lon="9.95723"><ele>189.0</ele><time>2026-04-25T12:04:53.23Z</time></trkpt><trkpt lat="45.6634767" lon="9.9571683"><ele>189.0</ele><time>2026-04-25T12:04:54.231Z</time></trkpt><trkpt lat="45.6635383" lon="9.9571133"><ele>189.0</ele><time>2026-04-25T12:04:55.233Z</time></trkpt><trkpt lat="45.6636017" lon="9.9570733"><ele>189.0</ele><time>2026-04-25T12:04:56.231Z</time></trkpt><trkpt lat="45.6636683" lon="9.9570433"><ele>189.0</ele><time>2026-04-25T12:04:57.231Z</time></trkpt><trkpt lat="45.663735" lon="9.95703"><ele>189.0</ele><time>2026-04-25T12:04:58.23Z</time></trkpt><trkpt lat="45.66386" lon="9.9570333"><ele>189.0</ele><time>2026-04-25T12:05:00.23Z</time></trkpt><trkpt lat="45.6639333" lon="9.9570433"><ele>189.0</ele><time>2026-04-25T12:05:01.23Z</time></trkpt><trkpt lat="45.6640117" lon="9.9570583"><ele>189.0</ele><time>2026-04-25T12:05:02.23Z</time></trkpt><trkpt lat="45.6640867" lon="9.9570733"><ele>189.0</ele><time>2026-04-25T12:05:03.23Z</time></trkpt><trkpt lat="45.6641583" lon="9.95709"><ele>189.0</ele><time>2026-04-25T12:05:04.23Z</time></trkpt><trkpt lat="45.6642267" lon="9.9571017"><ele>189.0</ele><time>2026-04-25T12:05:05.231Z</time></trkpt><trkpt lat="45.664295" lon="9.9571117"><ele>189.0</ele><time>2026-04-25T12:05:06.23Z</time></trkpt><trkpt lat="45.6643617" lon="9.95712"><ele>189.0</ele><time>2026-04-25T12:05:07.231Z</time></trkpt><trkpt lat="45.6644267" lon="9.9571233"><ele>189.0</ele><time>2026-04-25T12:05:08.23Z</time></trkpt><trkpt lat="45.66454" lon="9.957115"><ele>189.0</ele><time>2026-04-25T12:05:10.231Z</time></trkpt><trkpt lat="45.6646317" lon="9.95707"><ele>189.0</ele><time>2026-04-25T12:05:12.23Z</time></trkpt><trkpt lat="45.664715" lon="9.95698"><ele>189.0</ele><time>2026-04-25T12:05:14.23Z</time></trkpt><trkpt lat="45.6647883" lon="9.95686"><ele>189.0</ele><time>2026-04-25T12:05:16.231Z</time></trkpt><trkpt lat="45.6648633" lon="9.95674"><ele>189.0</ele><time>2026-04-25T12:05:18.228Z</time></trkpt><trkpt lat="45.664935" lon="9.9566183"><ele>189.0</ele><time>2026-04-25T12:05:20.229Z</time></trkpt><trkpt lat="45.6649967" lon="9.9565083"><ele>189.0</ele><time>2026-04-25T12:05:22.228Z</time></trkpt><trkpt lat="45.6650533" lon="9.9564167"><ele>189.0</ele><time>2026-04-25T12:05:24.229Z</time></trkpt><trkpt lat="45.6651217" lon="9.9563517"><ele>189.0</ele><time>2026-04-25T12:05:27.229Z</time></trkpt><trkpt lat="45.6651817" lon="9.9563183"><ele>189.0</ele><time>2026-04-25T12:05:32.227Z</time></trkpt><trkpt lat="45.665255" lon="9.9563333"><ele>189.0</ele><time>2026-04-25T12:05:35.231Z</time></trkpt><trkpt lat="45.6653183" lon="9.956385"><ele>189.0</ele><time>2026-04-25T12:05:37.228Z</time></trkpt><trkpt lat="45.6653917" lon="9.9564383"><ele>189.0</ele><time>2026-04-25T12:05:39.229Z</time></trkpt><trkpt lat="45.6654683" lon="9.9565033"><ele>189.0</ele><time>2026-04-25T12:05:41.228Z</time></trkpt><trkpt lat="45.66556" lon="9.9565833"><ele>189.0</ele><time>2026-04-25T12:05:43.232Z</time></trkpt><trkpt lat="45.6656667" lon="9.9566767"><ele>189.0</ele><time>2026-04-25T12:05:45.231Z</time></trkpt><trkpt lat="45.66572" lon="9.956725"><ele>189.0</ele><time>2026-04-25T12:05:46.234Z</time></trkpt><trkpt lat="45.6658167" lon="9.9568083"><ele>189.0</ele><time>2026-04-25T12:05:48.23Z</time></trkpt><trkpt lat="45.6658967" lon="9.95688"><ele>189.0</ele><time>2026-04-25T12:05:50.232Z</time></trkpt><trkpt lat="45.6659717" lon="9.956945"><ele>189.0</ele><time>2026-04-25T12:05:52.23Z</time></trkpt><trkpt lat="45.666045" lon="9.9570117"><ele>189.0</ele><time>2026-04-25T12:05:54.233Z</time></trkpt><trkpt lat="45.6660917" lon="9.9570917"><ele>189.0</ele><time>2026-04-25T12:05:56.231Z</time></trkpt><trkpt lat="45.666075" lon="9.95718"><ele>189.0</ele><time>2026-04-25T12:05:58.228Z</time></trkpt><trkpt lat="45.666015" lon="9.95729"><ele>189.0</ele><time>2026-04-25T12:06:00.23Z</time></trkpt><trkpt lat="45.6659483" lon="9.9574417"><ele>189.0</ele><time>2026-04-25T12:06:02.229Z</time></trkpt><trkpt lat="45.6659167" lon="9.9575317"><ele>189.0</ele><time>2026-04-25T12:06:03.229Z</time></trkpt><trkpt lat="45.6658833" lon="9.9576233"><ele>189.0</ele><time>2026-04-25T12:06:04.228Z</time></trkpt><trkpt lat="45.665855" lon="9.9577133"><ele>189.33333333333334</ele><time>2026-04-25T12:06:05.229Z</time></trkpt><trkpt lat="45.6658283" lon="9.957795"><ele>189.66666666666666</ele><time>2026-04-25T12:06:06.231Z</time></trkpt><trkpt lat="45.6657733" lon="9.9579533"><ele>190.0</ele><time>2026-04-25T12:06:08.229Z</time></trkpt><trkpt lat="45.665745" lon="9.9580383"><ele>190.33333333333331</ele><time>2026-04-25T12:06:09.229Z</time></trkpt><trkpt lat="45.66572" lon="9.9581267"><ele>190.66666666666666</ele><time>2026-04-25T12:06:10.229Z</time></trkpt><trkpt lat="45.665695" lon="9.95822"><ele>191.0</ele><time>2026-04-25T12:06:11.231Z</time></trkpt><trkpt lat="45.6656767" lon="9.95832"><ele>191.0</ele><time>2026-04-25T12:06:12.23Z</time></trkpt><trkpt lat="45.6656633" lon="9.958425"><ele>191.0</ele><time>2026-04-25T12:06:13.23Z</time></trkpt><trkpt lat="45.6656567" lon="9.9585317"><ele>191.0</ele><time>2026-04-25T12:06:14.229Z</time></trkpt><trkpt lat="45.6656517" lon="9.9586383"><ele>191.0</ele><time>2026-04-25T12:06:15.233Z</time></trkpt><trkpt lat="45.6656467" lon="9.9587383"><ele>191.0</ele><time>2026-04-25T12:06:16.229Z</time></trkpt><trkpt lat="45.6656417" lon="9.958895"><ele>191.0</ele><time>2026-04-25T12:06:18.227Z</time></trkpt><trkpt lat="45.6656367" lon="9.959025"><ele>191.0</ele><time>2026-04-25T12:06:21.231Z</time></trkpt><trkpt lat="45.6656367" lon="9.9591317"><ele>191.0</ele><time>2026-04-25T12:06:23.229Z</time></trkpt><trkpt lat="45.6656733" lon="9.9592133"><ele>191.0</ele><time>2026-04-25T12:06:25.23Z</time></trkpt><trkpt lat="45.6657533" lon="9.9591667"><ele>191.0</ele><time>2026-04-25T12:06:28.228Z</time></trkpt><trkpt lat="45.6657583" lon="9.95902"><ele>191.0</ele><time>2026-04-25T12:06:30.229Z</time></trkpt><trkpt lat="45.6657317" lon="9.9589233"><ele>191.0</ele><time>2026-04-25T12:06:31.229Z</time></trkpt><trkpt lat="45.6657183" lon="9.9588117"><ele>191.0</ele><time>2026-04-25T12:06:32.228Z</time></trkpt><trkpt lat="45.6657117" lon="9.9586833"><ele>191.0</ele><time>2026-04-25T12:06:33.231Z</time></trkpt><trkpt lat="45.6657167" lon="9.9585433"><ele>191.0</ele><time>2026-04-25T12:06:34.229Z</time></trkpt><trkpt lat="45.665725" lon="9.958405"><ele>191.0</ele><time>2026-04-25T12:06:35.228Z</time></trkpt><trkpt lat="45.6657433" lon="9.9582733"><ele>191.0</ele><time>2026-04-25T12:06:36.228Z</time></trkpt><trkpt lat="45.6657633" lon="9.9581483"><ele>191.0</ele><time>2026-04-25T12:06:37.229Z</time></trkpt><trkpt lat="45.6657867" lon="9.9580333"><ele>191.0</ele><time>2026-04-25T12:06:38.229Z</time></trkpt><trkpt lat="45.6658133" lon="9.9579283"><ele>191.0</ele><time>2026-04-25T12:06:39.228Z</time></trkpt><trkpt lat="45.665845" lon="9.9578283"><ele>191.0</ele><time>2026-04-25T12:06:40.231Z</time></trkpt><trkpt lat="45.66588" lon="9.957725"><ele>191.0</ele><time>2026-04-25T12:06:41.228Z</time></trkpt><trkpt lat="45.6659167" lon="9.9576183"><ele>191.0</ele><time>2026-04-25T12:06:42.228Z</time></trkpt><trkpt lat="45.6659517" lon="9.9575183"><ele>190.66666666666666</ele><time>2026-04-25T12:06:43.229Z</time></trkpt><trkpt lat="45.665985" lon="9.9574317"><ele>190.33333333333331</ele><time>2026-04-25T12:06:44.23Z</time></trkpt><trkpt lat="45.6660733" lon="9.9573067"><ele>190.0</ele><time>2026-04-25T12:06:46.231Z</time></trkpt><trkpt lat="45.6661267" lon="9.9572417"><ele>189.66666666666666</ele><time>2026-04-25T12:06:47.23Z</time></trkpt><trkpt lat="45.666175" lon="9.9571683"><ele>189.33333333333334</ele><time>2026-04-25T12:06:48.229Z</time></trkpt><trkpt lat="45.66622" lon="9.9570817"><ele>189.0</ele><time>2026-04-25T12:06:49.229Z</time></trkpt><trkpt lat="45.6662683" lon="9.956985"><ele>189.5</ele><time>2026-04-25T12:06:50.229Z</time></trkpt><trkpt lat="45.666315" lon="9.9568867"><ele>190.0</ele><time>2026-04-25T12:06:51.228Z</time></trkpt><trkpt lat="45.66636" lon="9.95679"><ele>190.5</ele><time>2026-04-25T12:06:52.228Z</time></trkpt><trkpt lat="45.6664067" lon="9.9566933"><ele>191.0</ele><time>2026-04-25T12:06:53.228Z</time></trkpt><trkpt lat="45.66645" lon="9.9566083"><ele>191.5</ele><time>2026-04-25T12:06:54.228Z</time></trkpt><trkpt lat="45.6664917" lon="9.9565267"><ele>192.0</ele><time>2026-04-25T12:06:55.23Z</time></trkpt><trkpt lat="45.6665383" lon="9.9564433"><ele>192.0</ele><time>2026-04-25T12:06:56.229Z</time></trkpt><trkpt lat="45.666585" lon="9.9563583"><ele>192.0</ele><time>2026-04-25T12:06:57.229Z</time></trkpt><trkpt lat="45.66663" lon="9.956275"><ele>192.0</ele><time>2026-04-25T12:06:58.228Z</time></trkpt><trkpt lat="45.6666717" lon="9.9561833"><ele>192.0</ele><time>2026-04-25T12:06:59.228Z</time></trkpt><trkpt lat="45.66672" lon="9.956085"><ele>192.0</ele><time>2026-04-25T12:07:00.229Z</time></trkpt><trkpt lat="45.66677" lon="9.9559833"><ele>192.0</ele><time>2026-04-25T12:07:01.229Z</time></trkpt><trkpt lat="45.6668167" lon="9.9558867"><ele>192.0</ele><time>2026-04-25T12:07:02.231Z</time></trkpt><trkpt lat="45.6668633" lon="9.9558"><ele>192.0</ele><time>2026-04-25T12:07:03.229Z</time></trkpt><trkpt lat="45.6669067" lon="9.9557133"><ele>192.0</ele><time>2026-04-25T12:07:04.23Z</time></trkpt><trkpt lat="45.6669483" lon="9.9556183"><ele>192.0</ele><time>2026-04-25T12:07:05.23Z</time></trkpt><trkpt lat="45.6669917" lon="9.9555133"><ele>192.0</ele><time>2026-04-25T12:07:06.234Z</time></trkpt><trkpt lat="45.6670367" lon="9.9553967"><ele>192.0</ele><time>2026-04-25T12:07:07.228Z</time></trkpt><trkpt lat="45.6670833" lon="9.9552767"><ele>192.33333333333334</ele><time>2026-04-25T12:07:08.229Z</time></trkpt><trkpt lat="45.6671267" lon="9.9551633"><ele>192.66666666666669</ele><time>2026-04-25T12:07:09.229Z</time></trkpt><trkpt lat="45.6671683" lon="9.9550583"><ele>193.0</ele><time>2026-04-25T12:07:10.229Z</time></trkpt><trkpt lat="45.6672067" lon="9.95496"><ele>193.33333333333334</ele><time>2026-04-25T12:07:11.229Z</time></trkpt><trkpt lat="45.6672417" lon="9.954865"><ele>193.66666666666669</ele><time>2026-04-25T12:07:12.228Z</time></trkpt><trkpt lat="45.667275" lon="9.9547617"><ele>194.0</ele><time>2026-04-25T12:07:13.231Z</time></trkpt><trkpt lat="45.6673067" lon="9.954645"><ele>194.0</ele><time>2026-04-25T12:07:14.228Z</time></trkpt><trkpt lat="45.667335" lon="9.9545183"><ele>194.0</ele><time>2026-04-25T12:07:15.231Z</time></trkpt><trkpt lat="45.6673583" lon="9.954385"><ele>194.0</ele><time>2026-04-25T12:07:16.227Z</time></trkpt><trkpt lat="45.6673817" lon="9.9542533"><ele>194.0</ele><time>2026-04-25T12:07:17.229Z</time></trkpt><trkpt lat="45.6674" lon="9.9541283"><ele>194.0</ele><time>2026-04-25T12:07:18.23Z</time></trkpt><trkpt lat="45.6674167" lon="9.9540083"><ele>193.57142857142856</ele><time>2026-04-25T12:07:19.23Z</time></trkpt><trkpt lat="45.6674267" lon="9.9538933"><ele>193.14285714285717</ele><time>2026-04-25T12:07:20.23Z</time></trkpt><trkpt lat="45.667435" lon="9.953785"><ele>192.71428571428572</ele><time>2026-04-25T12:07:21.229Z</time></trkpt><trkpt lat="45.6674433" lon="9.9536817"><ele>192.28571428571428</ele><time>2026-04-25T12:07:22.23Z</time></trkpt><trkpt lat="45.6674433" lon="9.9535833"><ele>191.85714285714283</ele><time>2026-04-25T12:07:23.228Z</time></trkpt><trkpt lat="45.6674433" lon="9.9534867"><ele>191.42857142857144</ele><time>2026-04-25T12:07:24.228Z</time></trkpt><trkpt lat="45.6674317" lon="9.9533967"><ele>191.0</ele><time>2026-04-25T12:07:25.23Z</time></trkpt><trkpt lat="45.6674" lon="9.9532217"><ele>190.8</ele><time>2026-04-25T12:07:27.229Z</time></trkpt><trkpt lat="45.667395" lon="9.9530567"><ele>190.60000000000002</ele><time>2026-04-25T12:07:29.228Z</time></trkpt><trkpt lat="45.6673967" lon="9.9528983"><ele>190.4</ele><time>2026-04-25T12:07:31.231Z</time></trkpt><trkpt lat="45.66739" lon="9.9527517"><ele>190.2</ele><time>2026-04-25T12:07:33.231Z</time></trkpt><trkpt lat="45.6673917" lon="9.9526567"><ele>190.0</ele><time>2026-04-25T12:07:35.23Z</time></trkpt><trkpt lat="45.6674117" lon="9.9527817"><ele>190.0</ele><time>2026-04-25T12:07:57.23Z</time></trkpt><trkpt lat="45.6674183" lon="9.9529383"><ele>190.0</ele><time>2026-04-25T12:07:59.232Z</time></trkpt><trkpt lat="45.6674083" lon="9.95311"><ele>190.0</ele><time>2026-04-25T12:08:01.229Z</time></trkpt><trkpt lat="45.6674183" lon="9.95329"><ele>190.0</ele><time>2026-04-25T12:08:03.229Z</time></trkpt><trkpt lat="45.6674333" lon="9.9533917"><ele>190.0</ele><time>2026-04-25T12:08:04.228Z</time></trkpt><trkpt lat="45.6674467" lon="9.9534967"><ele>190.14285714285714</ele><time>2026-04-25T12:08:05.228Z</time></trkpt><trkpt lat="45.6674483" lon="9.9536033"><ele>190.28571428571428</ele><time>2026-04-25T12:08:06.228Z</time></trkpt><trkpt lat="45.66744" lon="9.9537033"><ele>190.42857142857144</ele><time>2026-04-25T12:08:07.23Z</time></trkpt><trkpt lat="45.66743" lon="9.9538033"><ele>190.57142857142856</ele><time>2026-04-25T12:08:08.23Z</time></trkpt><trkpt lat="45.6674183" lon="9.9539033"><ele>190.7142857142857</ele><time>2026-04-25T12:08:09.231Z</time></trkpt><trkpt lat="45.6674083" lon="9.9540017"><ele>190.85714285714286</ele><time>2026-04-25T12:08:10.23Z</time></trkpt><trkpt lat="45.6673983" lon="9.9541083"><ele>191.0</ele><time>2026-04-25T12:08:11.231Z</time></trkpt><trkpt lat="45.667385" lon="9.954215"><ele>191.42857142857144</ele><time>2026-04-25T12:08:12.231Z</time></trkpt><trkpt lat="45.6673717" lon="9.9543167"><ele>191.85714285714283</ele><time>2026-04-25T12:08:13.231Z</time></trkpt><trkpt lat="45.6673567" lon="9.9544167"><ele>192.28571428571428</ele><time>2026-04-25T12:08:14.232Z</time></trkpt><trkpt lat="45.6673417" lon="9.9545183"><ele>192.71428571428572</ele><time>2026-04-25T12:08:15.231Z</time></trkpt><trkpt lat="45.66732" lon="9.9546233"><ele>193.14285714285717</ele><time>2026-04-25T12:08:16.23Z</time></trkpt><trkpt lat="45.6672933" lon="9.95472"><ele>193.57142857142856</ele><time>2026-04-25T12:08:17.232Z</time></trkpt><trkpt lat="45.6672633" lon="9.9548167"><ele>194.0</ele><time>2026-04-25T12:08:18.228Z</time></trkpt><trkpt lat="45.6672267" lon="9.9549067"><ele>194.00000000000003</ele><time>2026-04-25T12:08:19.228Z</time></trkpt><trkpt lat="45.6671917" lon="9.9549983"><ele>194.0</ele><time>2026-04-25T12:08:20.228Z</time></trkpt><trkpt lat="45.6671533" lon="9.955085"><ele>194.0</ele><time>2026-04-25T12:08:21.232Z</time></trkpt><trkpt lat="45.667115" lon="9.9551617"><ele>194.0</ele><time>2026-04-25T12:08:22.227Z</time></trkpt><trkpt lat="45.6670517" lon="9.9553033"><ele>194.00000000000003</ele><time>2026-04-25T12:08:24.227Z</time></trkpt><trkpt lat="45.6670183" lon="9.9553833"><ele>194.0</ele><time>2026-04-25T12:08:25.228Z</time></trkpt><trkpt lat="45.6669817" lon="9.9554683"><ele>193.66666666666669</ele><time>2026-04-25T12:08:26.231Z</time></trkpt><trkpt lat="45.666945" lon="9.9555517"><ele>193.33333333333334</ele><time>2026-04-25T12:08:27.23Z</time></trkpt><trkpt lat="45.6669133" lon="9.955635"><ele>193.0</ele><time>2026-04-25T12:08:28.23Z</time></trkpt><trkpt lat="45.6668783" lon="9.9557117"><ele>192.66666666666669</ele><time>2026-04-25T12:08:29.229Z</time></trkpt><trkpt lat="45.6668217" lon="9.9558483"><ele>192.33333333333334</ele><time>2026-04-25T12:08:31.23Z</time></trkpt><trkpt lat="45.66676" lon="9.955975"><ele>192.0</ele><time>2026-04-25T12:08:33.23Z</time></trkpt><trkpt lat="45.6667067" lon="9.9561183"><ele>191.99999999999997</ele><time>2026-04-25T12:08:35.23Z</time></trkpt><trkpt lat="45.6666733" lon="9.956195"><ele>192.0</ele><time>2026-04-25T12:08:36.23Z</time></trkpt><trkpt lat="45.6666267" lon="9.9562733"><ele>192.0</ele><time>2026-04-25T12:08:37.23Z</time></trkpt><trkpt lat="45.66658" lon="9.956355"><ele>192.0</ele><time>2026-04-25T12:08:38.231Z</time></trkpt><trkpt lat="45.6665383" lon="9.9564283"><ele>192.0</ele><time>2026-04-25T12:08:39.232Z</time></trkpt><trkpt lat="45.6664833" lon="9.9565267"><ele>191.99999999999997</ele><time>2026-04-25T12:08:41.231Z</time></trkpt><trkpt lat="45.6664333" lon="9.95661"><ele>192.0</ele><time>2026-04-25T12:08:44.229Z</time></trkpt><trkpt lat="45.6663917" lon="9.9566817"><ele>192.6</ele><time>2026-04-25T12:08:46.227Z</time></trkpt><trkpt lat="45.6663283" lon="9.9567933"><ele>193.2</ele><time>2026-04-25T12:08:48.231Z</time></trkpt><trkpt lat="45.6662567" lon="9.9569217"><ele>193.8</ele><time>2026-04-25T12:08:50.231Z</time></trkpt><trkpt lat="45.6662133" lon="9.9570017"><ele>194.4</ele><time>2026-04-25T12:08:52.23Z</time></trkpt><trkpt lat="45.6661517" lon="9.957115"><ele>195.0</ele><time>2026-04-25T12:09:01.228Z</time></trkpt><trkpt lat="45.6660783" lon="9.9572317"><ele>194.42857142857142</ele><time>2026-04-25T12:09:03.229Z</time></trkpt><trkpt lat="45.66603" lon="9.9573083"><ele>193.85714285714283</ele><time>2026-04-25T12:09:04.228Z</time></trkpt><trkpt lat="45.66599" lon="9.95739"><ele>193.28571428571428</ele><time>2026-04-25T12:09:05.227Z</time></trkpt><trkpt lat="45.665955" lon="9.9574767"><ele>192.71428571428572</ele><time>2026-04-25T12:09:06.228Z</time></trkpt><trkpt lat="45.6659183" lon="9.9575733"><ele>192.14285714285714</ele><time>2026-04-25T12:09:07.229Z</time></trkpt><trkpt lat="45.6658867" lon="9.95767"><ele>191.57142857142858</ele><time>2026-04-25T12:09:08.229Z</time></trkpt><trkpt lat="45.66585" lon="9.957775"><ele>191.0</ele><time>2026-04-25T12:09:09.233Z</time></trkpt><trkpt lat="45.6658117" lon="9.9578767"><ele>191.0</ele><time>2026-04-25T12:09:10.228Z</time></trkpt><trkpt lat="45.6657817" lon="9.9579733"><ele>191.0</ele><time>2026-04-25T12:09:11.229Z</time></trkpt><trkpt lat="45.66575" lon="9.9580717"><ele>191.0</ele><time>2026-04-25T12:09:12.23Z</time></trkpt><trkpt lat="45.6657183" lon="9.9581767"><ele>191.0</ele><time>2026-04-25T12:09:13.228Z</time></trkpt><trkpt lat="45.6656917" lon="9.95828"><ele>191.0</ele><time>2026-04-25T12:09:14.228Z</time></trkpt><trkpt lat="45.6656717" lon="9.9583767"><ele>191.0</ele><time>2026-04-25T12:09:15.231Z</time></trkpt><trkpt lat="45.66566" lon="9.958475"><ele>191.0</ele><time>2026-04-25T12:09:16.227Z</time></trkpt><trkpt lat="45.66565" lon="9.958575"><ele>191.0</ele><time>2026-04-25T12:09:17.228Z</time></trkpt><trkpt lat="45.665645" lon="9.958675"><ele>191.0</ele><time>2026-04-25T12:09:18.227Z</time></trkpt><trkpt lat="45.66564" lon="9.95877"><ele>191.0</ele><time>2026-04-25T12:09:19.23Z</time></trkpt><trkpt lat="45.6656317" lon="9.9589367"><ele>191.0</ele><time>2026-04-25T12:09:21.228Z</time></trkpt><trkpt lat="45.6656317" lon="9.9590833"><ele>191.0</ele><time>2026-04-25T12:09:23.229Z</time></trkpt><trkpt lat="45.6656583" lon="9.9592033"><ele>191.0</ele><time>2026-04-25T12:09:25.227Z</time></trkpt><trkpt lat="45.665725" lon="9.9592567"><ele>191.0</ele><time>2026-04-25T12:09:27.229Z</time></trkpt><trkpt lat="45.6658167" lon="9.959275"><ele>191.0</ele><time>2026-04-25T12:09:29.229Z</time></trkpt><trkpt lat="45.665925" lon="9.9593083"><ele>191.0</ele><time>2026-04-25T12:09:31.228Z</time></trkpt><trkpt lat="45.66604" lon="9.959345"><ele>191.0</ele><time>2026-04-25T12:09:33.233Z</time></trkpt><trkpt lat="45.6661483" lon="9.95936"><ele>191.0</ele><time>2026-04-25T12:09:35.229Z</time></trkpt><trkpt lat="45.6662583" lon="9.9593783"><ele>191.0</ele><time>2026-04-25T12:09:37.228Z</time></trkpt><trkpt lat="45.6663817" lon="9.959385"><ele>191.0</ele><time>2026-04-25T12:09:39.229Z</time></trkpt><trkpt lat="45.666445" lon="9.959375"><ele>191.0</ele><time>2026-04-25T12:09:40.227Z</time></trkpt><trkpt lat="45.66651" lon="9.959355"><ele>191.0</ele><time>2026-04-25T12:09:41.231Z</time></trkpt><trkpt lat="45.66658" lon="9.9593233"><ele>191.0</ele><time>2026-04-25T12:09:42.227Z</time></trkpt><trkpt lat="45.6666533" lon="9.9592883"><ele>191.0</ele><time>2026-04-25T12:09:43.228Z</time></trkpt><trkpt lat="45.66672" lon="9.95925"><ele>191.0</ele><time>2026-04-25T12:09:44.229Z</time></trkpt><trkpt lat="45.66678" lon="9.9592083"><ele>191.0</ele><time>2026-04-25T12:09:45.229Z</time></trkpt><trkpt lat="45.6668383" lon="9.9591683"><ele>191.0</ele><time>2026-04-25T12:09:46.227Z</time></trkpt><trkpt lat="45.6669317" lon="9.959095"><ele>191.0</ele><time>2026-04-25T12:09:48.228Z</time></trkpt><trkpt lat="45.6670033" lon="9.95904"><ele>191.0</ele><time>2026-04-25T12:09:50.23Z</time></trkpt><trkpt lat="45.66708" lon="9.95897"><ele>191.0</ele><time>2026-04-25T12:09:53.23Z</time></trkpt><trkpt lat="45.66714" lon="9.9589083"><ele>191.8</ele><time>2026-04-25T12:09:55.227Z</time></trkpt><trkpt lat="45.667225" lon="9.958835"><ele>192.60000000000002</ele><time>2026-04-25T12:09:57.228Z</time></trkpt><trkpt lat="45.667305" lon="9.958765"><ele>193.4</ele><time>2026-04-25T12:09:59.228Z</time></trkpt><trkpt lat="45.6673917" lon="9.958755"><ele>194.2</ele><time>2026-04-25T12:10:01.228Z</time></trkpt><trkpt lat="45.6674933" lon="9.9587517"><ele>195.0</ele><time>2026-04-25T12:10:03.228Z</time></trkpt><trkpt lat="45.6675533" lon="9.9586633"><ele>195.0</ele><time>2026-04-25T12:10:05.229Z</time></trkpt><trkpt lat="45.6675767" lon="9.958555"><ele>195.0</ele><time>2026-04-25T12:10:07.228Z</time></trkpt><trkpt lat="45.6676167" lon="9.9584183"><ele>195.0</ele><time>2026-04-25T12:10:09.23Z</time></trkpt><trkpt lat="45.66765" lon="9.95834"><ele>195.0</ele><time>2026-04-25T12:10:10.23Z</time></trkpt><trkpt lat="45.6676917" lon="9.9582617"><ele>195.0</ele><time>2026-04-25T12:10:11.228Z</time></trkpt><trkpt lat="45.6677383" lon="9.9581783"><ele>195.0</ele><time>2026-04-25T12:10:12.245Z</time></trkpt><trkpt lat="45.6677783" lon="9.958085"><ele>195.16666666666666</ele><time>2026-04-25T12:10:13.228Z</time></trkpt><trkpt lat="45.667815" lon="9.957985"><ele>195.33333333333331</ele><time>2026-04-25T12:10:14.228Z</time></trkpt><trkpt lat="45.667845" lon="9.9578783"><ele>195.5</ele><time>2026-04-25T12:10:15.228Z</time></trkpt><trkpt lat="45.6678733" lon="9.95777"><ele>195.66666666666666</ele><time>2026-04-25T12:10:16.228Z</time></trkpt><trkpt lat="45.6678983" lon="9.9576667"><ele>195.83333333333331</ele><time>2026-04-25T12:10:17.229Z</time></trkpt><trkpt lat="45.6679233" lon="9.95757"><ele>196.0</ele><time>2026-04-25T12:10:18.229Z</time></trkpt><trkpt lat="45.6679483" lon="9.95748"><ele>196.28571428571428</ele><time>2026-04-25T12:10:19.228Z</time></trkpt><trkpt lat="45.667975" lon="9.9573983"><ele>196.57142857142856</ele><time>2026-04-25T12:10:20.229Z</time></trkpt><trkpt lat="45.6680117" lon="9.95732"><ele>196.85714285714286</ele><time>2026-04-25T12:10:21.231Z</time></trkpt><trkpt lat="45.6680583" lon="9.9572367"><ele>197.14285714285714</ele><time>2026-04-25T12:10:22.229Z</time></trkpt><trkpt lat="45.66811" lon="9.957155"><ele>197.42857142857142</ele><time>2026-04-25T12:10:23.228Z</time></trkpt><trkpt lat="45.66816" lon="9.9570783"><ele>197.71428571428572</ele><time>2026-04-25T12:10:24.229Z</time></trkpt><trkpt lat="45.6682183" lon="9.956995"><ele>198.0</ele><time>2026-04-25T12:10:25.229Z</time></trkpt><trkpt lat="45.6682833" lon="9.95691"><ele>198.0</ele><time>2026-04-25T12:10:26.229Z</time></trkpt><trkpt lat="45.668355" lon="9.9568233"><ele>198.0</ele><time>2026-04-25T12:10:27.229Z</time></trkpt><trkpt lat="45.6685233" lon="9.9566317"><ele>198.0</ele><time>2026-04-25T12:10:29.229Z</time></trkpt><trkpt lat="45.6686033" lon="9.9565383"><ele>198.0</ele><time>2026-04-25T12:10:30.228Z</time></trkpt><trkpt lat="45.6686883" lon="9.9564417"><ele>198.0</ele><time>2026-04-25T12:10:31.228Z</time></trkpt><trkpt lat="45.6687833" lon="9.9563433"><ele>198.0</ele><time>2026-04-25T12:10:32.228Z</time></trkpt><trkpt lat="45.6688783" lon="9.9562383"><ele>198.0</ele><time>2026-04-25T12:10:33.229Z</time></trkpt><trkpt lat="45.6689717" lon="9.956135"><ele>198.0</ele><time>2026-04-25T12:10:34.228Z</time></trkpt><trkpt lat="45.6690683" lon="9.95604"><ele>198.0</ele><time>2026-04-25T12:10:35.227Z</time></trkpt><trkpt lat="45.6691583" lon="9.9559483"><ele>198.0</ele><time>2026-04-25T12:10:36.229Z</time></trkpt><trkpt lat="45.6692433" lon="9.9558583"><ele>198.0</ele><time>2026-04-25T12:10:37.228Z</time></trkpt><trkpt lat="45.6693267" lon="9.9557733"><ele>198.0</ele><time>2026-04-25T12:10:38.228Z</time></trkpt><trkpt lat="45.6694083" lon="9.95569"><ele>198.0</ele><time>2026-04-25T12:10:39.229Z</time></trkpt><trkpt lat="45.66949" lon="9.9556033"><ele>198.4</ele><time>2026-04-25T12:10:40.229Z</time></trkpt><trkpt lat="45.6695683" lon="9.955525"><ele>198.8</ele><time>2026-04-25T12:10:41.229Z</time></trkpt><trkpt lat="45.669655" lon="9.9554483"><ele>199.2</ele><time>2026-04-25T12:10:42.233Z</time></trkpt><trkpt lat="45.669745" lon="9.9553867"><ele>199.6</ele><time>2026-04-25T12:10:43.23Z</time></trkpt><trkpt lat="45.669845" lon="9.955345"><ele>200.0</ele><time>2026-04-25T12:10:44.228Z</time></trkpt><trkpt lat="45.6699533" lon="9.95532"><ele>200.0</ele><time>2026-04-25T12:10:45.229Z</time></trkpt><trkpt lat="45.6700583" lon="9.9553017"><ele>200.0</ele><time>2026-04-25T12:10:46.228Z</time></trkpt><trkpt lat="45.6701633" lon="9.9552967"><ele>200.0</ele><time>2026-04-25T12:10:47.229Z</time></trkpt><trkpt lat="45.6702583" lon="9.9552883"><ele>200.0</ele><time>2026-04-25T12:10:48.236Z</time></trkpt><trkpt lat="45.670335" lon="9.9552817"><ele>200.0</ele><time>2026-04-25T12:10:49.231Z</time></trkpt><trkpt lat="45.6704383" lon="9.9552833"><ele>200.4</ele><time>2026-04-25T12:10:51.231Z</time></trkpt><trkpt lat="45.6705483" lon="9.9553267"><ele>200.8</ele><time>2026-04-25T12:10:55.231Z</time></trkpt><trkpt lat="45.6706533" lon="9.955405"><ele>201.2</ele><time>2026-04-25T12:10:57.231Z</time></trkpt><trkpt lat="45.6707233" lon="9.9554367"><ele>201.6</ele><time>2026-04-25T12:10:58.231Z</time></trkpt><trkpt lat="45.6707867" lon="9.9554333"><ele>202.0</ele><time>2026-04-25T12:10:59.233Z</time></trkpt><trkpt lat="45.67088" lon="9.9552983"><ele>202.0</ele><time>2026-04-25T12:11:01.229Z</time></trkpt><trkpt lat="45.67091" lon="9.9551867"><ele>202.0</ele><time>2026-04-25T12:11:02.231Z</time></trkpt><trkpt lat="45.6709283" lon="9.9550517"><ele>202.0</ele><time>2026-04-25T12:11:03.232Z</time></trkpt><trkpt lat="45.67095" lon="9.954905"><ele>202.0</ele><time>2026-04-25T12:11:04.23Z</time></trkpt><trkpt lat="45.6709717" lon="9.95475"><ele>202.0</ele><time>2026-04-25T12:11:05.23Z</time></trkpt><trkpt lat="45.6709917" lon="9.9545933"><ele>202.0</ele><time>2026-04-25T12:11:06.231Z</time></trkpt><trkpt lat="45.6710117" lon="9.9544417"><ele>202.0</ele><time>2026-04-25T12:11:07.231Z</time></trkpt><trkpt lat="45.6710283" lon="9.9542883"><ele>202.0</ele><time>2026-04-25T12:11:08.232Z</time></trkpt><trkpt lat="45.6710467" lon="9.9541333"><ele>202.0</ele><time>2026-04-25T12:11:09.231Z</time></trkpt><trkpt lat="45.6710617" lon="9.9539817"><ele>202.0</ele><time>2026-04-25T12:11:10.23Z</time></trkpt><trkpt lat="45.6710767" lon="9.953835"><ele>202.0</ele><time>2026-04-25T12:11:11.23Z</time></trkpt><trkpt lat="45.67109" lon="9.9536917"><ele>202.0</ele><time>2026-04-25T12:11:12.231Z</time></trkpt><trkpt lat="45.6711017" lon="9.9535467"><ele>202.0</ele><time>2026-04-25T12:11:13.231Z</time></trkpt><trkpt lat="45.6711117" lon="9.9534"><ele>202.0</ele><time>2026-04-25T12:11:14.23Z</time></trkpt><trkpt lat="45.67112" lon="9.9532517"><ele>202.0</ele><time>2026-04-25T12:11:15.23Z</time></trkpt><trkpt lat="45.6711233" lon="9.953105"><ele>202.33333333333331</ele><time>2026-04-25T12:11:16.23Z</time></trkpt><trkpt lat="45.671125" lon="9.9529633"><ele>202.66666666666666</ele><time>2026-04-25T12:11:17.227Z</time></trkpt><trkpt lat="45.6711233" lon="9.9528333"><ele>203.0</ele><time>2026-04-25T12:11:18.229Z</time></trkpt><trkpt lat="45.67112" lon="9.9527167"><ele>203.33333333333331</ele><time>2026-04-25T12:11:19.228Z</time></trkpt><trkpt lat="45.6711167" lon="9.952625"><ele>203.66666666666666</ele><time>2026-04-25T12:11:20.229Z</time></trkpt><trkpt lat="45.6711033" lon="9.9525067"><ele>204.0</ele><time>2026-04-25T12:11:22.231Z</time></trkpt><trkpt lat="45.6710933" lon="9.9523917"><ele>204.16666666666666</ele><time>2026-04-25T12:11:24.228Z</time></trkpt><trkpt lat="45.6710967" lon="9.9522317"><ele>204.33333333333331</ele><time>2026-04-25T12:11:26.228Z</time></trkpt><trkpt lat="45.6710983" lon="9.9521267"><ele>204.5</ele><time>2026-04-25T12:11:27.231Z</time></trkpt><trkpt lat="45.6711033" lon="9.9520133"><ele>204.66666666666666</ele><time>2026-04-25T12:11:28.23Z</time></trkpt><trkpt lat="45.6711117" lon="9.9518933"><ele>204.83333333333331</ele><time>2026-04-25T12:11:29.228Z</time></trkpt><trkpt lat="45.6711183" lon="9.9517717"><ele>205.0</ele><time>2026-04-25T12:11:30.228Z</time></trkpt><trkpt lat="45.6711217" lon="9.95164"><ele>205.2</ele><time>2026-04-25T12:11:31.229Z</time></trkpt><trkpt lat="45.6711217" lon="9.9514917"><ele>205.4</ele><time>2026-04-25T12:11:32.229Z</time></trkpt><trkpt lat="45.6711217" lon="9.95134"><ele>205.60000000000002</ele><time>2026-04-25T12:11:33.228Z</time></trkpt><trkpt lat="45.6711233" lon="9.9511967"><ele>205.8</ele><time>2026-04-25T12:11:34.229Z</time></trkpt><trkpt lat="45.6711217" lon="9.9510533"><ele>206.0</ele><time>2026-04-25T12:11:35.228Z</time></trkpt><trkpt lat="45.6711217" lon="9.950905"><ele>205.75</ele><time>2026-04-25T12:11:36.229Z</time></trkpt><trkpt lat="45.6711233" lon="9.9507483"><ele>205.5</ele><time>2026-04-25T12:11:37.228Z</time></trkpt><trkpt lat="45.6711233" lon="9.9505883"><ele>205.25</ele><time>2026-04-25T12:11:38.228Z</time></trkpt><trkpt lat="45.671125" lon="9.950425"><ele>205.0</ele><time>2026-04-25T12:11:39.231Z</time></trkpt><trkpt lat="45.6711283" lon="9.9502617"><ele>205.0</ele><time>2026-04-25T12:11:40.228Z</time></trkpt><trkpt lat="45.6711317" lon="9.9501"><ele>205.0</ele><time>2026-04-25T12:11:41.238Z</time></trkpt><trkpt lat="45.6711317" lon="9.9499333"><ele>205.0</ele><time>2026-04-25T12:11:42.231Z</time></trkpt><trkpt lat="45.6711317" lon="9.9497667"><ele>205.0</ele><time>2026-04-25T12:11:43.228Z</time></trkpt><trkpt lat="45.671135" lon="9.9495983"><ele>205.25</ele><time>2026-04-25T12:11:44.23Z</time></trkpt><trkpt lat="45.6711367" lon="9.949425"><ele>205.5</ele><time>2026-04-25T12:11:45.228Z</time></trkpt><trkpt lat="45.6711433" lon="9.9492517"><ele>205.75</ele><time>2026-04-25T12:11:46.229Z</time></trkpt><trkpt lat="45.6711517" lon="9.9490833"><ele>206.0</ele><time>2026-04-25T12:11:47.229Z</time></trkpt><trkpt lat="45.671165" lon="9.9489217"><ele>206.0</ele><time>2026-04-25T12:11:48.228Z</time></trkpt><trkpt lat="45.67118" lon="9.9487667"><ele>206.0</ele><time>2026-04-25T12:11:49.23Z</time></trkpt><trkpt lat="45.6712" lon="9.948615"><ele>206.0</ele><time>2026-04-25T12:11:50.231Z</time></trkpt><trkpt lat="45.6712267" lon="9.948465"><ele>206.0</ele><time>2026-04-25T12:11:51.232Z</time></trkpt><trkpt lat="45.6712533" lon="9.94832"><ele>206.0</ele><time>2026-04-25T12:11:52.231Z</time></trkpt><trkpt lat="45.67128" lon="9.948175"><ele>206.20000000000002</ele><time>2026-04-25T12:11:53.231Z</time></trkpt><trkpt lat="45.6713083" lon="9.94803"><ele>206.4</ele><time>2026-04-25T12:11:54.23Z</time></trkpt><trkpt lat="45.6713367" lon="9.9478817"><ele>206.6</ele><time>2026-04-25T12:11:55.23Z</time></trkpt><trkpt lat="45.6713733" lon="9.9477333"><ele>206.8</ele><time>2026-04-25T12:11:56.23Z</time></trkpt><trkpt lat="45.6714067" lon="9.947585"><ele>207.0</ele><time>2026-04-25T12:11:57.228Z</time></trkpt><trkpt lat="45.67145" lon="9.9474383"><ele>207.0</ele><time>2026-04-25T12:11:58.23Z</time></trkpt><trkpt lat="45.67151" lon="9.9473"><ele>207.0</ele><time>2026-04-25T12:11:59.228Z</time></trkpt><trkpt lat="45.671575" lon="9.9471633"><ele>207.0</ele><time>2026-04-25T12:12:00.228Z</time></trkpt><trkpt lat="45.671645" lon="9.9470267"><ele>207.0</ele><time>2026-04-25T12:12:01.229Z</time></trkpt><trkpt lat="45.671715" lon="9.9468883"><ele>207.0</ele><time>2026-04-25T12:12:02.23Z</time></trkpt><trkpt lat="45.6717867" lon="9.9467533"><ele>207.0</ele><time>2026-04-25T12:12:03.232Z</time></trkpt><trkpt lat="45.671855" lon="9.94662"><ele>207.0</ele><time>2026-04-25T12:12:04.23Z</time></trkpt><trkpt lat="45.6719117" lon="9.9464833"><ele>207.0</ele><time>2026-04-25T12:12:05.23Z</time></trkpt><trkpt lat="45.6719483" lon="9.9463383"><ele>206.8</ele><time>2026-04-25T12:12:06.231Z</time></trkpt><trkpt lat="45.6719683" lon="9.9461867"><ele>206.6</ele><time>2026-04-25T12:12:07.23Z</time></trkpt><trkpt lat="45.6719567" lon="9.946045"><ele>206.4</ele><time>2026-04-25T12:12:08.228Z</time></trkpt><trkpt lat="45.6719167" lon="9.94591"><ele>206.20000000000002</ele><time>2026-04-25T12:12:09.228Z</time></trkpt><trkpt lat="45.671855" lon="9.94579"><ele>206.0</ele><time>2026-04-25T12:12:10.227Z</time></trkpt><trkpt lat="45.671775" lon="9.94569"><ele>206.0</ele><time>2026-04-25T12:12:11.228Z</time></trkpt><trkpt lat="45.6716817" lon="9.94561"><ele>206.0</ele><time>2026-04-25T12:12:12.23Z</time></trkpt><trkpt lat="45.6715867" lon="9.9455333"><ele>206.0</ele><time>2026-04-25T12:12:13.228Z</time></trkpt><trkpt lat="45.6714883" lon="9.945455"><ele>206.0</ele><time>2026-04-25T12:12:14.228Z</time></trkpt><trkpt lat="45.67139" lon="9.9453783"><ele>206.0</ele><time>2026-04-25T12:12:15.228Z</time></trkpt><trkpt lat="45.6712917" lon="9.9453033"><ele>206.0</ele><time>2026-04-25T12:12:16.228Z</time></trkpt><trkpt lat="45.6711867" lon="9.9452283"><ele>206.0</ele><time>2026-04-25T12:12:17.228Z</time></trkpt><trkpt lat="45.67109" lon="9.9451483"><ele>206.0</ele><time>2026-04-25T12:12:18.228Z</time></trkpt><trkpt lat="45.670995" lon="9.9450533"><ele>206.0</ele><time>2026-04-25T12:12:19.228Z</time></trkpt><trkpt lat="45.6709083" lon="9.9449433"><ele>207.25</ele><time>2026-04-25T12:12:20.231Z</time></trkpt><trkpt lat="45.6708233" lon="9.944815"><ele>208.5</ele><time>2026-04-25T12:12:21.229Z</time></trkpt><trkpt lat="45.670745" lon="9.9446733"><ele>209.75</ele><time>2026-04-25T12:12:22.23Z</time></trkpt><trkpt lat="45.6706733" lon="9.9445233"><ele>211.0</ele><time>2026-04-25T12:12:23.229Z</time></trkpt><trkpt lat="45.6706083" lon="9.944365"><ele>214.75</ele><time>2026-04-25T12:12:24.23Z</time></trkpt><trkpt lat="45.6705417" lon="9.9442083"><ele>218.5</ele><time>2026-04-25T12:12:25.228Z</time></trkpt><trkpt lat="45.6704717" lon="9.94406"><ele>222.25</ele><time>2026-04-25T12:12:26.228Z</time></trkpt><trkpt lat="45.6703817" lon="9.9439167"><ele>226.0</ele><time>2026-04-25T12:12:27.228Z</time></trkpt><trkpt lat="45.6702867" lon="9.943785"><ele>224.25</ele><time>2026-04-25T12:12:28.229Z</time></trkpt><trkpt lat="45.6701917" lon="9.9436683"><ele>222.5</ele><time>2026-04-25T12:12:29.231Z</time></trkpt><trkpt lat="45.6700933" lon="9.9435633"><ele>220.75</ele><time>2026-04-25T12:12:30.231Z</time></trkpt><trkpt lat="45.66999" lon="9.9434667"><ele>219.0</ele><time>2026-04-25T12:12:31.23Z</time></trkpt><trkpt lat="45.6698883" lon="9.9433717"><ele>219.0</ele><time>2026-04-25T12:12:32.231Z</time></trkpt><trkpt lat="45.6697883" lon="9.9432683"><ele>219.0</ele><time>2026-04-25T12:12:33.23Z</time></trkpt><trkpt lat="45.6696933" lon="9.9431583"><ele>219.0</ele><time>2026-04-25T12:12:34.232Z</time></trkpt><trkpt lat="45.6695983" lon="9.9430383"><ele>219.0</ele><time>2026-04-25T12:12:35.23Z</time></trkpt><trkpt lat="45.6695033" lon="9.9429117"><ele>217.25</ele><time>2026-04-25T12:12:36.23Z</time></trkpt><trkpt lat="45.6694117" lon="9.9427833"><ele>215.5</ele><time>2026-04-25T12:12:37.23Z</time></trkpt><trkpt lat="45.669325" lon="9.9426533"><ele>213.75</ele><time>2026-04-25T12:12:38.23Z</time></trkpt><trkpt lat="45.6692417" lon="9.9425233"><ele>212.0</ele><time>2026-04-25T12:12:39.23Z</time></trkpt><trkpt lat="45.6691667" lon="9.9423917"><ele>212.0</ele><time>2026-04-25T12:12:40.231Z</time></trkpt><trkpt lat="45.669085" lon="9.9422667"><ele>212.0</ele><time>2026-04-25T12:12:41.231Z</time></trkpt><trkpt lat="45.66901" lon="9.9421367"><ele>212.0</ele><time>2026-04-25T12:12:42.229Z</time></trkpt><trkpt lat="45.6689517" lon="9.9420017"><ele>212.0</ele><time>2026-04-25T12:12:43.23Z</time></trkpt><trkpt lat="45.668905" lon="9.9418533"><ele>215.25</ele><time>2026-04-25T12:12:44.229Z</time></trkpt><trkpt lat="45.6688733" lon="9.9417"><ele>218.5</ele><time>2026-04-25T12:12:45.229Z</time></trkpt><trkpt lat="45.6688667" lon="9.9415417"><ele>221.75</ele><time>2026-04-25T12:12:46.23Z</time></trkpt><trkpt lat="45.6688717" lon="9.9413767"><ele>225.0</ele><time>2026-04-25T12:12:47.231Z</time></trkpt><trkpt lat="45.668875" lon="9.94121"><ele>225.0</ele><time>2026-04-25T12:12:48.23Z</time></trkpt><trkpt lat="45.6688833" lon="9.9410517"><ele>225.0</ele><time>2026-04-25T12:12:49.234Z</time></trkpt><trkpt lat="45.668895" lon="9.9409033"><ele>225.0</ele><time>2026-04-25T12:12:50.233Z</time></trkpt><trkpt lat="45.6689017" lon="9.9407583"><ele>225.0</ele><time>2026-04-25T12:12:51.232Z</time></trkpt><trkpt lat="45.66891" lon="9.9406167"><ele>225.0</ele><time>2026-04-25T12:12:52.23Z</time></trkpt><trkpt lat="45.6689183" lon="9.9404867"><ele>226.0</ele><time>2026-04-25T12:12:53.231Z</time></trkpt><trkpt lat="45.6689283" lon="9.9403667"><ele>227.0</ele><time>2026-04-25T12:12:54.23Z</time></trkpt><trkpt lat="45.66894" lon="9.9402633"><ele>228.0</ele><time>2026-04-25T12:12:55.231Z</time></trkpt><trkpt lat="45.668955" lon="9.9401483"><ele>229.0</ele><time>2026-04-25T12:12:57.232Z</time></trkpt><trkpt lat="45.668985" lon="9.9400583"><ele>230.0</ele><time>2026-04-25T12:13:01.228Z</time></trkpt><trkpt lat="45.6690367" lon="9.9399283"><ele>231.0</ele><time>2026-04-25T12:13:03.229Z</time></trkpt><trkpt lat="45.6690333" lon="9.9398067"><ele>231.16666666666666</ele><time>2026-04-25T12:13:05.228Z</time></trkpt><trkpt lat="45.6689633" lon="9.9396883"><ele>231.33333333333331</ele><time>2026-04-25T12:13:07.229Z</time></trkpt><trkpt lat="45.66892" lon="9.93961"><ele>231.5</ele><time>2026-04-25T12:13:08.227Z</time></trkpt><trkpt lat="45.6688767" lon="9.93952"><ele>231.66666666666666</ele><time>2026-04-25T12:13:09.229Z</time></trkpt><trkpt lat="45.6688417" lon="9.9394233"><ele>231.83333333333331</ele><time>2026-04-25T12:13:10.228Z</time></trkpt><trkpt lat="45.6688133" lon="9.9393317"><ele>232.0</ele><time>2026-04-25T12:13:11.229Z</time></trkpt><trkpt lat="45.668785" lon="9.9392483"><ele>232.2</ele><time>2026-04-25T12:13:12.229Z</time></trkpt><trkpt lat="45.6687583" lon="9.93916"><ele>232.39999999999998</ele><time>2026-04-25T12:13:13.228Z</time></trkpt><trkpt lat="45.6687283" lon="9.9390517"><ele>232.60000000000002</ele><time>2026-04-25T12:13:14.23Z</time></trkpt><trkpt lat="45.668695" lon="9.9389183"><ele>232.8</ele><time>2026-04-25T12:13:15.232Z</time></trkpt><trkpt lat="45.668645" lon="9.93875"><ele>233.0</ele><time>2026-04-25T12:13:16.229Z</time></trkpt><trkpt lat="45.6685833" lon="9.9385617"><ele>233.0</ele><time>2026-04-25T12:13:17.229Z</time></trkpt><trkpt lat="45.6685183" lon="9.93836"><ele>233.0</ele><time>2026-04-25T12:13:18.228Z</time></trkpt><trkpt lat="45.6684517" lon="9.938155"><ele>233.0</ele><time>2026-04-25T12:13:19.229Z</time></trkpt><trkpt lat="45.6683817" lon="9.9379367"><ele>233.0</ele><time>2026-04-25T12:13:20.273Z</time></trkpt><trkpt lat="45.6683083" lon="9.937715"><ele>233.0</ele><time>2026-04-25T12:13:21.229Z</time></trkpt><trkpt lat="45.66824" lon="9.9375"><ele>233.0</ele><time>2026-04-25T12:13:22.229Z</time></trkpt><trkpt lat="45.6681717" lon="9.9373"><ele>233.0</ele><time>2026-04-25T12:13:23.23Z</time></trkpt><trkpt lat="45.6681033" lon="9.9371083"><ele>233.0</ele><time>2026-04-25T12:13:24.23Z</time></trkpt><trkpt lat="45.6680383" lon="9.936925"><ele>233.0</ele><time>2026-04-25T12:13:25.229Z</time></trkpt><trkpt lat="45.6679833" lon="9.9367583"><ele>233.0</ele><time>2026-04-25T12:13:26.228Z</time></trkpt><trkpt lat="45.6679383" lon="9.936615"><ele>233.0</ele><time>2026-04-25T12:13:27.235Z</time></trkpt><trkpt lat="45.6679017" lon="9.9365033"><ele>233.0</ele><time>2026-04-25T12:13:28.229Z</time></trkpt><trkpt lat="45.6678733" lon="9.9364083"><ele>233.0</ele><time>2026-04-25T12:13:29.23Z</time></trkpt><trkpt lat="45.6678417" lon="9.9362483"><ele>233.0</ele><time>2026-04-25T12:13:31.229Z</time></trkpt><trkpt lat="45.6678467" lon="9.93611"><ele>233.0</ele><time>2026-04-25T12:13:33.229Z</time></trkpt><trkpt lat="45.6679183" lon="9.9360117"><ele>233.0</ele><time>2026-04-25T12:13:35.228Z</time></trkpt><trkpt lat="45.6680117" lon="9.93597"><ele>233.0</ele><time>2026-04-25T12:13:37.228Z</time></trkpt><trkpt lat="45.668125" lon="9.935975"><ele>233.0</ele><time>2026-04-25T12:13:39.229Z</time></trkpt><trkpt lat="45.6682033" lon="9.9359883"><ele>233.0</ele><time>2026-04-25T12:13:40.228Z</time></trkpt><trkpt lat="45.66829" lon="9.93601"><ele>233.0</ele><time>2026-04-25T12:13:41.23Z</time></trkpt><trkpt lat="45.6683833" lon="9.9360417"><ele>233.00000000000003</ele><time>2026-04-25T12:13:42.23Z</time></trkpt><trkpt lat="45.668475" lon="9.9360783"><ele>233.0</ele><time>2026-04-25T12:13:43.229Z</time></trkpt><trkpt lat="45.6685567" lon="9.9361083"><ele>233.0</ele><time>2026-04-25T12:13:44.228Z</time></trkpt><trkpt lat="45.6686367" lon="9.9361317"><ele>233.0</ele><time>2026-04-25T12:13:45.23Z</time></trkpt><trkpt lat="45.6687133" lon="9.9361517"><ele>233.00000000000003</ele><time>2026-04-25T12:13:46.23Z</time></trkpt><trkpt lat="45.6687867" lon="9.93617"><ele>233.0</ele><time>2026-04-25T12:13:47.23Z</time></trkpt><trkpt lat="45.668855" lon="9.93619"><ele>232.8</ele><time>2026-04-25T12:13:48.232Z</time></trkpt><trkpt lat="45.6689217" lon="9.936205"><ele>232.60000000000002</ele><time>2026-04-25T12:13:49.23Z</time></trkpt><trkpt lat="45.6690283" lon="9.9362267"><ele>232.39999999999998</ele><time>2026-04-25T12:13:51.233Z</time></trkpt><trkpt lat="45.6691" lon="9.93621"><ele>232.2</ele><time>2026-04-25T12:13:53.228Z</time></trkpt><trkpt lat="45.669115" lon="9.9361017"><ele>232.0</ele><time>2026-04-25T12:13:55.227Z</time></trkpt><trkpt lat="45.669105" lon="9.9359233"><ele>231.6</ele><time>2026-04-25T12:13:57.23Z</time></trkpt><trkpt lat="45.6690967" lon="9.9358017"><ele>231.2</ele><time>2026-04-25T12:13:58.227Z</time></trkpt><trkpt lat="45.6690933" lon="9.935675"><ele>230.8</ele><time>2026-04-25T12:13:59.227Z</time></trkpt><trkpt lat="45.6690917" lon="9.9355467"><ele>230.4</ele><time>2026-04-25T12:14:00.227Z</time></trkpt><trkpt lat="45.6690917" lon="9.935405"><ele>230.0</ele><time>2026-04-25T12:14:01.228Z</time></trkpt><trkpt lat="45.6690983" lon="9.935255"><ele>230.0</ele><time>2026-04-25T12:14:02.227Z</time></trkpt><trkpt lat="45.669115" lon="9.9351033"><ele>230.0</ele><time>2026-04-25T12:14:03.229Z</time></trkpt><trkpt lat="45.6691483" lon="9.934955"><ele>230.0</ele><time>2026-04-25T12:14:04.228Z</time></trkpt><trkpt lat="45.6691983" lon="9.9348167"><ele>230.0</ele><time>2026-04-25T12:14:05.229Z</time></trkpt><trkpt lat="45.669255" lon="9.9346833"><ele>230.0</ele><time>2026-04-25T12:14:06.228Z</time></trkpt><trkpt lat="45.6693183" lon="9.9345483"><ele>229.8</ele><time>2026-04-25T12:14:07.228Z</time></trkpt><trkpt lat="45.6693767" lon="9.934415"><ele>229.6</ele><time>2026-04-25T12:14:08.228Z</time></trkpt><trkpt lat="45.6694383" lon="9.9342833"><ele>229.39999999999998</ele><time>2026-04-25T12:14:09.228Z</time></trkpt><trkpt lat="45.669505" lon="9.93416"><ele>229.2</ele><time>2026-04-25T12:14:10.228Z</time></trkpt><trkpt lat="45.66956" lon="9.934045"><ele>229.0</ele><time>2026-04-25T12:14:11.227Z</time></trkpt><trkpt lat="45.6696083" lon="9.9339283"><ele>229.0</ele><time>2026-04-25T12:14:12.228Z</time></trkpt><trkpt lat="45.6696483" lon="9.9338017"><ele>228.99999999999997</ele><time>2026-04-25T12:14:13.227Z</time></trkpt><trkpt lat="45.6696767" lon="9.9336767"><ele>228.99999999999997</ele><time>2026-04-25T12:14:14.227Z</time></trkpt><trkpt lat="45.6697017" lon="9.9335483"><ele>229.0</ele><time>2026-04-25T12:14:15.227Z</time></trkpt><trkpt lat="45.6697317" lon="9.9334117"><ele>229.0</ele><time>2026-04-25T12:14:16.23Z</time></trkpt><trkpt lat="45.669765" lon="9.9332617"><ele>228.75</ele><time>2026-04-25T12:14:17.227Z</time></trkpt><trkpt lat="45.66979" lon="9.9331"><ele>228.5</ele><time>2026-04-25T12:14:18.23Z</time></trkpt><trkpt lat="45.669805" lon="9.93293"><ele>228.25</ele><time>2026-04-25T12:14:19.228Z</time></trkpt><trkpt lat="45.669815" lon="9.9327483"><ele>228.0</ele><time>2026-04-25T12:14:20.227Z</time></trkpt><trkpt lat="45.669825" lon="9.9325583"><ele>227.75</ele><time>2026-04-25T12:14:21.228Z</time></trkpt><trkpt lat="45.6698317" lon="9.9323683"><ele>227.5</ele><time>2026-04-25T12:14:22.227Z</time></trkpt><trkpt lat="45.6698417" lon="9.9321817"><ele>227.25</ele><time>2026-04-25T12:14:23.228Z</time></trkpt><trkpt lat="45.669855" lon="9.9320083"><ele>227.0</ele><time>2026-04-25T12:14:24.232Z</time></trkpt><trkpt lat="45.6698733" lon="9.9318517"><ele>227.6</ele><time>2026-04-25T12:14:25.23Z</time></trkpt><trkpt lat="45.6698967" lon="9.9317117"><ele>228.2</ele><time>2026-04-25T12:14:26.227Z</time></trkpt><trkpt lat="45.6699267" lon="9.9315883"><ele>228.8</ele><time>2026-04-25T12:14:27.23Z</time></trkpt><trkpt lat="45.6699667" lon="9.931475"><ele>229.4</ele><time>2026-04-25T12:14:28.228Z</time></trkpt><trkpt lat="45.6700133" lon="9.9313617"><ele>230.0</ele><time>2026-04-25T12:14:29.227Z</time></trkpt><trkpt lat="45.670065" lon="9.9312467"><ele>230.0</ele><time>2026-04-25T12:14:30.228Z</time></trkpt><trkpt lat="45.6701167" lon="9.9311333"><ele>230.0</ele><time>2026-04-25T12:14:31.228Z</time></trkpt><trkpt lat="45.67016" lon="9.9310167"><ele>230.0</ele><time>2026-04-25T12:14:32.228Z</time></trkpt><trkpt lat="45.670185" lon="9.9308833"><ele>230.0</ele><time>2026-04-25T12:14:33.227Z</time></trkpt><trkpt lat="45.6701983" lon="9.930745"><ele>230.0</ele><time>2026-04-25T12:14:34.228Z</time></trkpt><trkpt lat="45.6702017" lon="9.9306117"><ele>230.16666666666669</ele><time>2026-04-25T12:14:35.228Z</time></trkpt><trkpt lat="45.6702017" lon="9.9304917"><ele>230.33333333333334</ele><time>2026-04-25T12:14:36.228Z</time></trkpt><trkpt lat="45.6702" lon="9.9303983"><ele>230.5</ele><time>2026-04-25T12:14:37.227Z</time></trkpt><trkpt lat="45.670195" lon="9.930285"><ele>230.66666666666669</ele><time>2026-04-25T12:14:39.23Z</time></trkpt><trkpt lat="45.6701833" lon="9.9301417"><ele>230.83333333333334</ele><time>2026-04-25T12:15:39.229Z</time></trkpt><trkpt lat="45.6701783" lon="9.930025"><ele>231.0</ele><time>2026-04-25T12:15:41.232Z</time></trkpt><trkpt lat="45.6701983" lon="9.9299267"><ele>230.75</ele><time>2026-04-25T12:15:43.231Z</time></trkpt><trkpt lat="45.670315" lon="9.9298183"><ele>230.5</ele><time>2026-04-25T12:15:45.229Z</time></trkpt><trkpt lat="45.6704133" lon="9.9297717"><ele>230.25</ele><time>2026-04-25T12:15:46.228Z</time></trkpt><trkpt lat="45.670525" lon="9.9297233"><ele>230.0</ele><time>2026-04-25T12:15:47.227Z</time></trkpt><trkpt lat="45.6706567" lon="9.9296817"><ele>230.0</ele><time>2026-04-25T12:15:48.228Z</time></trkpt><trkpt lat="45.6708133" lon="9.9296333"><ele>230.0</ele><time>2026-04-25T12:15:49.228Z</time></trkpt><trkpt lat="45.670975" lon="9.9295833"><ele>230.0</ele><time>2026-04-25T12:15:50.228Z</time></trkpt><trkpt lat="45.671145" lon="9.9295283"><ele>230.75</ele><time>2026-04-25T12:15:51.228Z</time></trkpt><trkpt lat="45.6712983" lon="9.9294633"><ele>231.5</ele><time>2026-04-25T12:15:52.231Z</time></trkpt><trkpt lat="45.6714383" lon="9.92939"><ele>232.25</ele><time>2026-04-25T12:15:53.228Z</time></trkpt><trkpt lat="45.6715667" lon="9.9293083"><ele>233.0</ele><time>2026-04-25T12:15:54.228Z</time></trkpt><trkpt lat="45.67168" lon="9.9292233"><ele>233.33333333333334</ele><time>2026-04-25T12:15:55.228Z</time></trkpt><trkpt lat="45.67178" lon="9.9291433"><ele>233.66666666666669</ele><time>2026-04-25T12:15:56.229Z</time></trkpt><trkpt lat="45.671855" lon="9.929075"><ele>234.0</ele><time>2026-04-25T12:15:57.229Z</time></trkpt><trkpt lat="45.67192" lon="9.9290183"><ele>234.33333333333331</ele><time>2026-04-25T12:15:58.227Z</time></trkpt><trkpt lat="45.6719767" lon="9.9289683"><ele>234.66666666666666</ele><time>2026-04-25T12:15:59.229Z</time></trkpt><trkpt lat="45.67206" lon="9.9288933"><ele>235.0</ele><time>2026-04-25T12:16:01.228Z</time></trkpt><trkpt lat="45.6721317" lon="9.92882"><ele>235.6</ele><time>2026-04-25T12:16:03.231Z</time></trkpt><trkpt lat="45.67221" lon="9.92874"><ele>236.2</ele><time>2026-04-25T12:16:05.227Z</time></trkpt><trkpt lat="45.6723133" lon="9.92865"><ele>236.8</ele><time>2026-04-25T12:16:07.228Z</time></trkpt><trkpt lat="45.6723833" lon="9.92861"><ele>237.4</ele><time>2026-04-25T12:16:08.229Z</time></trkpt><trkpt lat="45.6724583" lon="9.92857"><ele>238.0</ele><time>2026-04-25T12:16:09.228Z</time></trkpt><trkpt lat="45.6725367" lon="9.9285233"><ele>238.0</ele><time>2026-04-25T12:16:10.227Z</time></trkpt><trkpt lat="45.6726233" lon="9.928475"><ele>238.0</ele><time>2026-04-25T12:16:11.228Z</time></trkpt><trkpt lat="45.6727167" lon="9.9284233"><ele>238.0</ele><time>2026-04-25T12:16:12.228Z</time></trkpt><trkpt lat="45.672815" lon="9.9283683"><ele>238.0</ele><time>2026-04-25T12:16:13.228Z</time></trkpt><trkpt lat="45.6729167" lon="9.9283117"><ele>238.0</ele><time>2026-04-25T12:16:14.227Z</time></trkpt><trkpt lat="45.6730217" lon="9.9282533"><ele>239.4</ele><time>2026-04-25T12:16:15.228Z</time></trkpt><trkpt lat="45.6731183" lon="9.9281867"><ele>240.8</ele><time>2026-04-25T12:16:16.227Z</time></trkpt><trkpt lat="45.67321" lon="9.9281217"><ele>242.2</ele><time>2026-04-25T12:16:17.23Z</time></trkpt><trkpt lat="45.6732917" lon="9.9280317"><ele>243.6</ele><time>2026-04-25T12:16:18.229Z</time></trkpt><trkpt lat="45.67336" lon="9.9279117"><ele>245.0</ele><time>2026-04-25T12:16:19.228Z</time></trkpt><trkpt lat="45.6734" lon="9.9277733"><ele>245.0</ele><time>2026-04-25T12:16:20.229Z</time></trkpt><trkpt lat="45.6734083" lon="9.9276317"><ele>245.0</ele><time>2026-04-25T12:16:21.229Z</time></trkpt><trkpt lat="45.6734067" lon="9.927495"><ele>245.0</ele><time>2026-04-25T12:16:22.228Z</time></trkpt><trkpt lat="45.673395" lon="9.9273567"><ele>245.0</ele><time>2026-04-25T12:16:23.228Z</time></trkpt><trkpt lat="45.6733833" lon="9.9272167"><ele>245.0</ele><time>2026-04-25T12:16:24.228Z</time></trkpt><trkpt lat="45.6733867" lon="9.9270783"><ele>245.4</ele><time>2026-04-25T12:16:25.228Z</time></trkpt><trkpt lat="45.6734017" lon="9.92694"><ele>245.8</ele><time>2026-04-25T12:16:26.229Z</time></trkpt><trkpt lat="45.6734383" lon="9.9268133"><ele>246.2</ele><time>2026-04-25T12:16:27.228Z</time></trkpt><trkpt lat="45.6734917" lon="9.9267017"><ele>246.6</ele><time>2026-04-25T12:16:28.229Z</time></trkpt><trkpt lat="45.6735467" lon="9.9265983"><ele>247.0</ele><time>2026-04-25T12:16:29.228Z</time></trkpt><trkpt lat="45.6736167" lon="9.9265217"><ele>249.0</ele><time>2026-04-25T12:16:30.23Z</time></trkpt><trkpt lat="45.6737017" lon="9.926465"><ele>251.0</ele><time>2026-04-25T12:16:31.229Z</time></trkpt><trkpt lat="45.67379" lon="9.92642"><ele>253.0</ele><time>2026-04-25T12:16:32.228Z</time></trkpt><trkpt lat="45.6739017" lon="9.9264017"><ele>255.0</ele><time>2026-04-25T12:16:33.228Z</time></trkpt><trkpt lat="45.6740117" lon="9.9263817"><ele>257.0</ele><time>2026-04-25T12:16:34.229Z</time></trkpt><trkpt lat="45.6741267" lon="9.9263667"><ele>257.0</ele><time>2026-04-25T12:16:35.23Z</time></trkpt><trkpt lat="45.6742433" lon="9.926345"><ele>257.0</ele><time>2026-04-25T12:16:36.229Z</time></trkpt><trkpt lat="45.6743633" lon="9.9263167"><ele>257.0</ele><time>2026-04-25T12:16:37.229Z</time></trkpt><trkpt lat="45.6744883" lon="9.926295"><ele>257.0</ele><time>2026-04-25T12:16:38.228Z</time></trkpt><trkpt lat="45.67462" lon="9.9262733"><ele>257.75</ele><time>2026-04-25T12:16:39.228Z</time></trkpt><trkpt lat="45.6747517" lon="9.9262517"><ele>258.5</ele><time>2026-04-25T12:16:40.228Z</time></trkpt><trkpt lat="45.6748833" lon="9.9262333"><ele>259.25</ele><time>2026-04-25T12:16:41.227Z</time></trkpt><trkpt lat="45.675" lon="9.926195"><ele>260.0</ele><time>2026-04-25T12:16:42.228Z</time></trkpt><trkpt lat="45.67511" lon="9.9261417"><ele>260.0</ele><time>2026-04-25T12:16:43.227Z</time></trkpt><trkpt lat="45.6752117" lon="9.9260733"><ele>260.0</ele><time>2026-04-25T12:16:44.23Z</time></trkpt><trkpt lat="45.6753067" lon="9.926005"><ele>260.0</ele><time>2026-04-25T12:16:45.229Z</time></trkpt><trkpt lat="45.6753933" lon="9.92594"><ele>260.0</ele><time>2026-04-25T12:16:46.228Z</time></trkpt><trkpt lat="45.675475" lon="9.9258683"><ele>260.0</ele><time>2026-04-25T12:16:47.229Z</time></trkpt><trkpt lat="45.67556" lon="9.925795"><ele>261.25</ele><time>2026-04-25T12:16:48.231Z</time></trkpt><trkpt lat="45.675655" lon="9.9257183"><ele>262.5</ele><time>2026-04-25T12:16:49.23Z</time></trkpt><trkpt lat="45.6757583" lon="9.9256333"><ele>263.75</ele><time>2026-04-25T12:16:50.23Z</time></trkpt><trkpt lat="45.675875" lon="9.9255433"><ele>265.0</ele><time>2026-04-25T12:16:51.231Z</time></trkpt><trkpt lat="45.6760033" lon="9.92545"><ele>264.66666666666663</ele><time>2026-04-25T12:16:52.231Z</time></trkpt><trkpt lat="45.6761417" lon="9.9253517"><ele>264.3333333333333</ele><time>2026-04-25T12:16:53.231Z</time></trkpt><trkpt lat="45.6762867" lon="9.92525"><ele>264.0</ele><time>2026-04-25T12:16:54.231Z</time></trkpt><trkpt lat="45.6764367" lon="9.9251433"><ele>261.6666666666667</ele><time>2026-04-25T12:16:55.231Z</time></trkpt><trkpt lat="45.6765867" lon="9.925035"><ele>259.33333333333337</ele><time>2026-04-25T12:16:56.23Z</time></trkpt><trkpt lat="45.676735" lon="9.9249367"><ele>257.0</ele><time>2026-04-25T12:16:57.23Z</time></trkpt><trkpt lat="45.67689" lon="9.9248367"><ele>255.33333333333334</ele><time>2026-04-25T12:16:58.23Z</time></trkpt><trkpt lat="45.6770433" lon="9.924735"><ele>253.66666666666669</ele><time>2026-04-25T12:16:59.23Z</time></trkpt><trkpt lat="45.6771883" lon="9.9246383"><ele>252.0</ele><time>2026-04-25T12:17:00.23Z</time></trkpt><trkpt lat="45.6773233" lon="9.9245367"><ele>252.0</ele><time>2026-04-25T12:17:01.231Z</time></trkpt><trkpt lat="45.677455" lon="9.9244417"><ele>252.0</ele><time>2026-04-25T12:17:02.231Z</time></trkpt><trkpt lat="45.6775883" lon="9.9243483"><ele>252.0</ele><time>2026-04-25T12:17:03.231Z</time></trkpt><trkpt lat="45.6777217" lon="9.92426"><ele>252.0</ele><time>2026-04-25T12:17:04.231Z</time></trkpt><trkpt lat="45.6778533" lon="9.92417"><ele>251.25</ele><time>2026-04-25T12:17:05.231Z</time></trkpt><trkpt lat="45.6779883" lon="9.9240833"><ele>250.5</ele><time>2026-04-25T12:17:06.231Z</time></trkpt><trkpt lat="45.67812" lon="9.9239917"><ele>249.75</ele><time>2026-04-25T12:17:07.231Z</time></trkpt><trkpt lat="45.6782533" lon="9.9238983"><ele>249.0</ele><time>2026-04-25T12:17:08.23Z</time></trkpt><trkpt lat="45.6783883" lon="9.9238033"><ele>249.0</ele><time>2026-04-25T12:17:09.23Z</time></trkpt><trkpt lat="45.678525" lon="9.9237083"><ele>249.0</ele><time>2026-04-25T12:17:10.23Z</time></trkpt><trkpt lat="45.6786633" lon="9.9236117"><ele>249.0</ele><time>2026-04-25T12:17:11.229Z</time></trkpt><trkpt lat="45.6788067" lon="9.923515"><ele>248.33333333333331</ele><time>2026-04-25T12:17:12.23Z</time></trkpt><trkpt lat="45.6789583" lon="9.9234217"><ele>247.66666666666666</ele><time>2026-04-25T12:17:13.231Z</time></trkpt><trkpt lat="45.6791133" lon="9.9233233"><ele>247.0</ele><time>2026-04-25T12:17:14.23Z</time></trkpt><trkpt lat="45.67927" lon="9.92322"><ele>247.0</ele><time>2026-04-25T12:17:15.231Z</time></trkpt><trkpt lat="45.6794267" lon="9.923115"><ele>247.0</ele><time>2026-04-25T12:17:16.23Z</time></trkpt><trkpt lat="45.679585" lon="9.92301"><ele>247.0</ele><time>2026-04-25T12:17:17.228Z</time></trkpt><trkpt lat="45.67975" lon="9.9229"><ele>248.0</ele><time>2026-04-25T12:17:18.23Z</time></trkpt><trkpt lat="45.6799133" lon="9.92279"><ele>249.0</ele><time>2026-04-25T12:17:19.23Z</time></trkpt><trkpt lat="45.680075" lon="9.9226833"><ele>250.0</ele><time>2026-04-25T12:17:20.23Z</time></trkpt><trkpt lat="45.68023" lon="9.9225817"><ele>249.33333333333331</ele><time>2026-04-25T12:17:21.233Z</time></trkpt><trkpt lat="45.6803733" lon="9.922485"><ele>248.66666666666669</ele><time>2026-04-25T12:17:22.23Z</time></trkpt><trkpt lat="45.680515" lon="9.92239"><ele>248.0</ele><time>2026-04-25T12:17:23.229Z</time></trkpt><trkpt lat="45.6806517" lon="9.922295"><ele>248.0</ele><time>2026-04-25T12:17:24.23Z</time></trkpt><trkpt lat="45.6807867" lon="9.922195"><ele>248.0</ele><time>2026-04-25T12:17:25.231Z</time></trkpt><trkpt lat="45.68092" lon="9.9220883"><ele>248.0</ele><time>2026-04-25T12:17:26.232Z</time></trkpt><trkpt lat="45.681045" lon="9.9219633"><ele>249.33333333333334</ele><time>2026-04-25T12:17:27.23Z</time></trkpt><trkpt lat="45.6811633" lon="9.9218217"><ele>250.66666666666669</ele><time>2026-04-25T12:17:28.23Z</time></trkpt><trkpt lat="45.6812817" lon="9.9216667"><ele>252.0</ele><time>2026-04-25T12:17:29.23Z</time></trkpt><trkpt lat="45.6813967" lon="9.9215033"><ele>252.0</ele><time>2026-04-25T12:17:30.23Z</time></trkpt><trkpt lat="45.681515" lon="9.9213383"><ele>252.0</ele><time>2026-04-25T12:17:31.23Z</time></trkpt><trkpt lat="45.6816367" lon="9.9211717"><ele>252.0</ele><time>2026-04-25T12:17:32.23Z</time></trkpt><trkpt lat="45.6817517" lon="9.9210117"><ele>252.5</ele><time>2026-04-25T12:17:33.23Z</time></trkpt><trkpt lat="45.6818617" lon="9.9208617"><ele>253.0</ele><time>2026-04-25T12:17:34.228Z</time></trkpt><trkpt lat="45.6819667" lon="9.9207167"><ele>253.5</ele><time>2026-04-25T12:17:35.228Z</time></trkpt><trkpt lat="45.6820733" lon="9.9205917"><ele>254.0</ele><time>2026-04-25T12:17:36.23Z</time></trkpt><trkpt lat="45.6821833" lon="9.9204867"><ele>254.0</ele><time>2026-04-25T12:17:37.23Z</time></trkpt><trkpt lat="45.682295" lon="9.9204"><ele>254.0</ele><time>2026-04-25T12:17:38.231Z</time></trkpt><trkpt lat="45.6824133" lon="9.9203283"><ele>254.0</ele><time>2026-04-25T12:17:39.231Z</time></trkpt><trkpt lat="45.68254" lon="9.92026"><ele>254.0</ele><time>2026-04-25T12:17:40.23Z</time></trkpt><trkpt lat="45.68267" lon="9.920195"><ele>255.25</ele><time>2026-04-25T12:17:41.229Z</time></trkpt><trkpt lat="45.6828067" lon="9.9201467"><ele>256.5</ele><time>2026-04-25T12:17:42.228Z</time></trkpt><trkpt lat="45.6829417" lon="9.9201217"><ele>257.75</ele><time>2026-04-25T12:17:43.228Z</time></trkpt><trkpt lat="45.6830817" lon="9.9201183"><ele>259.0</ele><time>2026-04-25T12:17:44.229Z</time></trkpt><trkpt lat="45.683225" lon="9.9201317"><ele>259.0</ele><time>2026-04-25T12:17:45.231Z</time></trkpt><trkpt lat="45.68338" lon="9.92015"><ele>259.0</ele><time>2026-04-25T12:17:46.227Z</time></trkpt><trkpt lat="45.6835417" lon="9.9201717"><ele>259.0</ele><time>2026-04-25T12:17:47.23Z</time></trkpt><trkpt lat="45.6837117" lon="9.920195"><ele>263.0</ele><time>2026-04-25T12:17:48.231Z</time></trkpt><trkpt lat="45.6838817" lon="9.92019"><ele>267.0</ele><time>2026-04-25T12:17:49.23Z</time></trkpt><trkpt lat="45.68405" lon="9.9201583"><ele>271.0</ele><time>2026-04-25T12:17:50.231Z</time></trkpt><trkpt lat="45.6842167" lon="9.920105"><ele>269.3333333333333</ele><time>2026-04-25T12:17:51.23Z</time></trkpt><trkpt lat="45.6843867" lon="9.9200317"><ele>267.6666666666667</ele><time>2026-04-25T12:17:52.23Z</time></trkpt><trkpt lat="45.68455" lon="9.9199383"><ele>266.0</ele><time>2026-04-25T12:17:53.23Z</time></trkpt><trkpt lat="45.684705" lon="9.9198383"><ele>266.0</ele><time>2026-04-25T12:17:54.233Z</time></trkpt><trkpt lat="45.6848467" lon="9.919745"><ele>266.0</ele><time>2026-04-25T12:17:55.231Z</time></trkpt><trkpt lat="45.68497" lon="9.919655"><ele>266.0</ele><time>2026-04-25T12:17:56.231Z</time></trkpt><trkpt lat="45.685085" lon="9.919575"><ele>266.0</ele><time>2026-04-25T12:17:57.23Z</time></trkpt><trkpt lat="45.6851933" lon="9.9194983"><ele>264.0</ele><time>2026-04-25T12:17:58.23Z</time></trkpt><trkpt lat="45.685305" lon="9.9194233"><ele>262.0</ele><time>2026-04-25T12:17:59.231Z</time></trkpt><trkpt lat="45.685415" lon="9.9193417"><ele>260.0</ele><time>2026-04-25T12:18:00.231Z</time></trkpt><trkpt lat="45.6855317" lon="9.9192633"><ele>258.0</ele><time>2026-04-25T12:18:01.23Z</time></trkpt><trkpt lat="45.685645" lon="9.9191933"><ele>258.0</ele><time>2026-04-25T12:18:02.229Z</time></trkpt><trkpt lat="45.68576" lon="9.9191417"><ele>258.0</ele><time>2026-04-25T12:18:03.229Z</time></trkpt><trkpt lat="45.6858683" lon="9.9191133"><ele>258.0</ele><time>2026-04-25T12:18:04.229Z</time></trkpt><trkpt lat="45.6859617" lon="9.9191083"><ele>258.0</ele><time>2026-04-25T12:18:05.231Z</time></trkpt><trkpt lat="45.6860317" lon="9.9191133"><ele>258.0</ele><time>2026-04-25T12:18:06.229Z</time></trkpt><trkpt lat="45.6860967" lon="9.9191333"><ele>258.0</ele><time>2026-04-25T12:18:08.231Z</time></trkpt><trkpt lat="45.686145" lon="9.91906"><ele>258.0</ele><time>2026-04-25T12:18:13.228Z</time></trkpt><trkpt lat="45.686125" lon="9.9189267"><ele>258.0</ele><time>2026-04-25T12:18:15.228Z</time></trkpt><trkpt lat="45.6860967" lon="9.918785"><ele>258.0</ele><time>2026-04-25T12:18:17.229Z</time></trkpt><trkpt lat="45.6860733" lon="9.91866"><ele>258.0</ele><time>2026-04-25T12:18:19.229Z</time></trkpt><trkpt lat="45.6861083" lon="9.9185667"><ele>258.0</ele><time>2026-04-25T12:18:22.228Z</time></trkpt><trkpt lat="45.68618" lon="9.9184917"><ele>258.1666666666667</ele><time>2026-04-25T12:18:24.231Z</time></trkpt><trkpt lat="45.686245" lon="9.918435"><ele>258.3333333333333</ele><time>2026-04-25T12:18:25.231Z</time></trkpt><trkpt lat="45.6863017" lon="9.9183617"><ele>258.5</ele><time>2026-04-25T12:18:26.229Z</time></trkpt><trkpt lat="45.6863667" lon="9.9183017"><ele>258.66666666666663</ele><time>2026-04-25T12:18:27.23Z</time></trkpt><trkpt lat="45.6864283" lon="9.9182533"><ele>258.8333333333333</ele><time>2026-04-25T12:18:28.23Z</time></trkpt><trkpt lat="45.6865367" lon="9.91822"><ele>259.0</ele><time>2026-04-25T12:18:30.228Z</time></trkpt><trkpt lat="45.6866033" lon="9.9182367"><ele>259.0</ele><time>2026-04-25T12:18:32.229Z</time></trkpt><trkpt lat="45.6866633" lon="9.918325"><ele>259.0</ele><time>2026-04-25T12:18:34.229Z</time></trkpt><trkpt lat="45.6866967" lon="9.9184017"><ele>259.0</ele><time>2026-04-25T12:18:35.229Z</time></trkpt><trkpt lat="45.6867483" lon="9.9184983"><ele>259.0</ele><time>2026-04-25T12:18:36.231Z</time></trkpt><trkpt lat="45.6867983" lon="9.9185967"><ele>259.0</ele><time>2026-04-25T12:18:37.23Z</time></trkpt><trkpt lat="45.6868483" lon="9.918695"><ele>259.0</ele><time>2026-04-25T12:18:38.23Z</time></trkpt><trkpt lat="45.6868983" lon="9.918765"><ele>258.66666666666663</ele><time>2026-04-25T12:18:39.229Z</time></trkpt><trkpt lat="45.6869483" lon="9.9188267"><ele>258.3333333333333</ele><time>2026-04-25T12:18:40.228Z</time></trkpt><trkpt lat="45.6870383" lon="9.9188917"><ele>258.0</ele><time>2026-04-25T12:18:42.23Z</time></trkpt><trkpt lat="45.6871683" lon="9.9189417"><ele>257.6666666666667</ele><time>2026-04-25T12:18:44.229Z</time></trkpt><trkpt lat="45.6872383" lon="9.91897"><ele>257.33333333333337</ele><time>2026-04-25T12:18:45.23Z</time></trkpt><trkpt lat="45.6873067" lon="9.9189933"><ele>257.0</ele><time>2026-04-25T12:18:46.231Z</time></trkpt><trkpt lat="45.6873717" lon="9.91902"><ele>257.0</ele><time>2026-04-25T12:18:47.231Z</time></trkpt><trkpt lat="45.6874367" lon="9.9190467"><ele>257.0</ele><time>2026-04-25T12:18:48.229Z</time></trkpt><trkpt lat="45.6875583" lon="9.91909"><ele>257.0</ele><time>2026-04-25T12:18:50.235Z</time></trkpt><trkpt lat="45.68765" lon="9.9191083"><ele>257.0</ele><time>2026-04-25T12:18:52.228Z</time></trkpt><trkpt lat="45.6877083" lon="9.9191983"><ele>257.0</ele><time>2026-04-25T12:19:00.23Z</time></trkpt><trkpt lat="45.6877733" lon="9.9191533"><ele>257.0</ele><time>2026-04-25T12:19:02.23Z</time></trkpt><trkpt lat="45.6879683" lon="9.919065"><ele>257.5</ele><time>2026-04-25T12:19:04.229Z</time></trkpt><trkpt lat="45.688095" lon="9.9190317"><ele>258.0</ele><time>2026-04-25T12:19:05.229Z</time></trkpt><trkpt lat="45.6882367" lon="9.919005"><ele>258.5</ele><time>2026-04-25T12:19:06.23Z</time></trkpt><trkpt lat="45.6883767" lon="9.918985"><ele>259.0</ele><time>2026-04-25T12:19:07.228Z</time></trkpt><trkpt lat="45.688515" lon="9.9189667"><ele>259.59999999999997</ele><time>2026-04-25T12:19:08.228Z</time></trkpt><trkpt lat="45.6886383" lon="9.9189467"><ele>260.2</ele><time>2026-04-25T12:19:09.229Z</time></trkpt><trkpt lat="45.6887417" lon="9.9189283"><ele>260.79999999999995</ele><time>2026-04-25T12:19:10.229Z</time></trkpt><trkpt lat="45.6888317" lon="9.9189083"><ele>261.4</ele><time>2026-04-25T12:19:11.228Z</time></trkpt><trkpt lat="45.68891" lon="9.91887"><ele>262.0</ele><time>2026-04-25T12:19:12.229Z</time></trkpt><trkpt lat="45.688965" lon="9.9187317"><ele>262.0</ele><time>2026-04-25T12:19:14.229Z</time></trkpt><trkpt lat="45.6889083" lon="9.9186183"><ele>262.0</ele><time>2026-04-25T12:19:16.229Z</time></trkpt><trkpt lat="45.6888417" lon="9.918595"><ele>262.0</ele><time>2026-04-25T12:19:17.229Z</time></trkpt><trkpt lat="45.6887583" lon="9.9185883"><ele>262.0</ele><time>2026-04-25T12:19:18.228Z</time></trkpt><trkpt lat="45.6886533" lon="9.9185983"><ele>262.0</ele><time>2026-04-25T12:19:19.227Z</time></trkpt><trkpt lat="45.6885267" lon="9.9186217"><ele>261.25</ele><time>2026-04-25T12:19:20.228Z</time></trkpt><trkpt lat="45.6883933" lon="9.9186433"><ele>260.5</ele><time>2026-04-25T12:19:21.228Z</time></trkpt><trkpt lat="45.688255" lon="9.91867"><ele>259.75</ele><time>2026-04-25T12:19:22.229Z</time></trkpt><trkpt lat="45.6881283" lon="9.91869"><ele>259.0</ele><time>2026-04-25T12:19:23.23Z</time></trkpt><trkpt lat="45.6880183" lon="9.9187083"><ele>259.0</ele><time>2026-04-25T12:19:24.228Z</time></trkpt><trkpt lat="45.6879283" lon="9.918715"><ele>259.0</ele><time>2026-04-25T12:19:25.228Z</time></trkpt><trkpt lat="45.6878533" lon="9.91871"><ele>259.0</ele><time>2026-04-25T12:19:26.228Z</time></trkpt><trkpt lat="45.68778" lon="9.9186217"><ele>259.0</ele><time>2026-04-25T12:19:28.228Z</time></trkpt><trkpt lat="45.687805" lon="9.9185083"><ele>259.0</ele><time>2026-04-25T12:19:30.228Z</time></trkpt><trkpt lat="45.687945" lon="9.918455"><ele>259.0</ele><time>2026-04-25T12:19:32.227Z</time></trkpt><trkpt lat="45.6880383" lon="9.9184333"><ele>259.0</ele><time>2026-04-25T12:19:33.23Z</time></trkpt><trkpt lat="45.6881683" lon="9.9184167"><ele>259.0</ele><time>2026-04-25T12:19:34.227Z</time></trkpt><trkpt lat="45.68831" lon="9.9183983"><ele>259.0</ele><time>2026-04-25T12:19:35.228Z</time></trkpt><trkpt lat="45.6884517" lon="9.918375"><ele>263.5</ele><time>2026-04-25T12:19:36.227Z</time></trkpt><trkpt lat="45.6885867" lon="9.9183317"><ele>268.0</ele><time>2026-04-25T12:19:37.227Z</time></trkpt><trkpt lat="45.6887267" lon="9.918275"><ele>272.5</ele><time>2026-04-25T12:19:38.227Z</time></trkpt><trkpt lat="45.688865" lon="9.9182"><ele>277.0</ele><time>2026-04-25T12:19:39.228Z</time></trkpt><trkpt lat="45.6889967" lon="9.9181117"><ele>277.6</ele><time>2026-04-25T12:19:40.227Z</time></trkpt><trkpt lat="45.689105" lon="9.918025"><ele>278.2</ele><time>2026-04-25T12:19:41.227Z</time></trkpt><trkpt lat="45.689195" lon="9.9179433"><ele>278.8</ele><time>2026-04-25T12:19:42.228Z</time></trkpt><trkpt lat="45.689265" lon="9.917865"><ele>279.4</ele><time>2026-04-25T12:19:43.23Z</time></trkpt><trkpt lat="45.6892983" lon="9.91778"><ele>280.0</ele><time>2026-04-25T12:19:44.227Z</time></trkpt><trkpt lat="45.6892767" lon="9.917645"><ele>280.0</ele><time>2026-04-25T12:19:46.227Z</time></trkpt><trkpt lat="45.68915" lon="9.9176333"><ele>280.0</ele><time>2026-04-25T12:19:48.228Z</time></trkpt><trkpt lat="45.6890667" lon="9.9176933"><ele>280.0</ele><time>2026-04-25T12:19:49.228Z</time></trkpt><trkpt lat="45.6889933" lon="9.9177633"><ele>280.0</ele><time>2026-04-25T12:19:50.228Z</time></trkpt><trkpt lat="45.6888983" lon="9.91783"><ele>280.0</ele><time>2026-04-25T12:19:51.227Z</time></trkpt><trkpt lat="45.6887967" lon="9.9178767"><ele>280.0</ele><time>2026-04-25T12:19:52.227Z</time></trkpt><trkpt lat="45.688675" lon="9.917905"><ele>280.0</ele><time>2026-04-25T12:19:53.228Z</time></trkpt><trkpt lat="45.6885417" lon="9.9179133"><ele>280.0</ele><time>2026-04-25T12:19:54.229Z</time></trkpt><trkpt lat="45.6884067" lon="9.9179067"><ele>280.0</ele><time>2026-04-25T12:19:55.228Z</time></trkpt><trkpt lat="45.688275" lon="9.9178933"><ele>279.25</ele><time>2026-04-25T12:19:56.227Z</time></trkpt><trkpt lat="45.6881417" lon="9.9178767"><ele>278.5</ele><time>2026-04-25T12:19:57.228Z</time></trkpt><trkpt lat="45.68801" lon="9.9178617"><ele>277.75</ele><time>2026-04-25T12:19:58.228Z</time></trkpt><trkpt lat="45.687885" lon="9.917845"><ele>277.0</ele><time>2026-04-25T12:19:59.229Z</time></trkpt><trkpt lat="45.6877767" lon="9.91782"><ele>277.2</ele><time>2026-04-25T12:20:00.227Z</time></trkpt><trkpt lat="45.6876867" lon="9.9177767"><ele>277.4</ele><time>2026-04-25T12:20:01.228Z</time></trkpt><trkpt lat="45.6876183" lon="9.9177"><ele>277.6</ele><time>2026-04-25T12:20:02.228Z</time></trkpt><trkpt lat="45.6875633" lon="9.9175917"><ele>277.8</ele><time>2026-04-25T12:20:03.228Z</time></trkpt><trkpt lat="45.687555" lon="9.9174617"><ele>278.0</ele><time>2026-04-25T12:20:04.228Z</time></trkpt><trkpt lat="45.6875617" lon="9.917335"><ele>279.8</ele><time>2026-04-25T12:20:05.227Z</time></trkpt><trkpt lat="45.6875967" lon="9.91722"><ele>281.6</ele><time>2026-04-25T12:20:06.231Z</time></trkpt><trkpt lat="45.6876917" lon="9.917135"><ele>283.4</ele><time>2026-04-25T12:20:07.228Z</time></trkpt><trkpt lat="45.6877883" lon="9.91707"><ele>285.2</ele><time>2026-04-25T12:20:08.23Z</time></trkpt><trkpt lat="45.6878967" lon="9.9170233"><ele>287.0</ele><time>2026-04-25T12:20:09.229Z</time></trkpt><trkpt lat="45.68801" lon="9.9169817"><ele>289.75</ele><time>2026-04-25T12:20:10.23Z</time></trkpt><trkpt lat="45.6881283" lon="9.916945"><ele>292.5</ele><time>2026-04-25T12:20:11.238Z</time></trkpt><trkpt lat="45.6882533" lon="9.9169083"><ele>295.25</ele><time>2026-04-25T12:20:12.229Z</time></trkpt><trkpt lat="45.6883767" lon="9.9168733"><ele>298.0</ele><time>2026-04-25T12:20:13.227Z</time></trkpt><trkpt lat="45.6885067" lon="9.916835"><ele>298.25</ele><time>2026-04-25T12:20:14.228Z</time></trkpt><trkpt lat="45.68864" lon="9.916795"><ele>298.5</ele><time>2026-04-25T12:20:15.227Z</time></trkpt><trkpt lat="45.688775" lon="9.916755"><ele>298.75</ele><time>2026-04-25T12:20:16.229Z</time></trkpt><trkpt lat="45.68891" lon="9.9167117"><ele>299.0</ele><time>2026-04-25T12:20:17.227Z</time></trkpt><trkpt lat="45.6890467" lon="9.9166633"><ele>305.6666666666667</ele><time>2026-04-25T12:20:18.23Z</time></trkpt><trkpt lat="45.68919" lon="9.9166133"><ele>312.3333333333333</ele><time>2026-04-25T12:20:19.229Z</time></trkpt><trkpt lat="45.6893383" lon="9.9165617"><ele>319.0</ele><time>2026-04-25T12:20:20.228Z</time></trkpt><trkpt lat="45.68949" lon="9.9165117"><ele>320.75</ele><time>2026-04-25T12:20:21.227Z</time></trkpt><trkpt lat="45.6896333" lon="9.9164667"><ele>322.5</ele><time>2026-04-25T12:20:22.227Z</time></trkpt><trkpt lat="45.6897583" lon="9.916425"><ele>324.25</ele><time>2026-04-25T12:20:23.228Z</time></trkpt><trkpt lat="45.689865" lon="9.9163783"><ele>326.0</ele><time>2026-04-25T12:20:24.227Z</time></trkpt><trkpt lat="45.68995" lon="9.916335"><ele>326.0</ele><time>2026-04-25T12:20:25.228Z</time></trkpt><trkpt lat="45.6900217" lon="9.91627"><ele>326.0</ele><time>2026-04-25T12:20:26.228Z</time></trkpt><trkpt lat="45.690065" lon="9.9161667"><ele>326.0</ele><time>2026-04-25T12:20:27.231Z</time></trkpt><trkpt lat="45.6900883" lon="9.9160417"><ele>326.0</ele><time>2026-04-25T12:20:28.228Z</time></trkpt><trkpt lat="45.6900867" lon="9.91589"><ele>326.0</ele><time>2026-04-25T12:20:29.228Z</time></trkpt><trkpt lat="45.6900833" lon="9.9157283"><ele>327.5</ele><time>2026-04-25T12:20:30.228Z</time></trkpt><trkpt lat="45.6900783" lon="9.9155567"><ele>329.0</ele><time>2026-04-25T12:20:31.229Z</time></trkpt><trkpt lat="45.690075" lon="9.91537"><ele>330.5</ele><time>2026-04-25T12:20:32.228Z</time></trkpt><trkpt lat="45.690075" lon="9.91517"><ele>332.0</ele><time>2026-04-25T12:20:33.228Z</time></trkpt><trkpt lat="45.6900717" lon="9.914955"><ele>333.33333333333337</ele><time>2026-04-25T12:20:34.227Z</time></trkpt><trkpt lat="45.690065" lon="9.9147333"><ele>334.6666666666667</ele><time>2026-04-25T12:20:35.227Z</time></trkpt><trkpt lat="45.69005" lon="9.91451"><ele>336.0</ele><time>2026-04-25T12:20:36.227Z</time></trkpt><trkpt lat="45.6900167" lon="9.9142883"><ele>336.0</ele><time>2026-04-25T12:20:37.227Z</time></trkpt><trkpt lat="45.6899733" lon="9.9140817"><ele>336.0</ele><time>2026-04-25T12:20:38.228Z</time></trkpt><trkpt lat="45.6899283" lon="9.9139"><ele>336.0</ele><time>2026-04-25T12:20:39.228Z</time></trkpt><trkpt lat="45.68989" lon="9.9137417"><ele>336.0</ele><time>2026-04-25T12:20:40.229Z</time></trkpt><trkpt lat="45.6898633" lon="9.913595"><ele>336.0</ele><time>2026-04-25T12:20:41.227Z</time></trkpt><trkpt lat="45.6898583" lon="9.9134433"><ele>336.0</ele><time>2026-04-25T12:20:42.227Z</time></trkpt><trkpt lat="45.6898783" lon="9.9132867"><ele>336.0</ele><time>2026-04-25T12:20:43.227Z</time></trkpt><trkpt lat="45.6899183" lon="9.9131283"><ele>336.0</ele><time>2026-04-25T12:20:44.228Z</time></trkpt><trkpt lat="45.6899717" lon="9.9129717"><ele>336.75</ele><time>2026-04-25T12:20:45.23Z</time></trkpt><trkpt lat="45.69003" lon="9.912815"><ele>337.5</ele><time>2026-04-25T12:20:46.228Z</time></trkpt><trkpt lat="45.6900933" lon="9.9126567"><ele>338.25</ele><time>2026-04-25T12:20:47.227Z</time></trkpt><trkpt lat="45.690155" lon="9.9124883"><ele>339.0</ele><time>2026-04-25T12:20:48.23Z</time></trkpt><trkpt lat="45.6902017" lon="9.912305"><ele>340.6</ele><time>2026-04-25T12:20:49.228Z</time></trkpt><trkpt lat="45.690225" lon="9.9121233"><ele>342.2</ele><time>2026-04-25T12:20:50.227Z</time></trkpt><trkpt lat="45.6902283" lon="9.9119633"><ele>343.8</ele><time>2026-04-25T12:20:51.229Z</time></trkpt><trkpt lat="45.6902217" lon="9.9118183"><ele>345.40000000000003</ele><time>2026-04-25T12:20:52.228Z</time></trkpt><trkpt lat="45.6901917" lon="9.9116833"><ele>347.0</ele><time>2026-04-25T12:20:53.228Z</time></trkpt><trkpt lat="45.69014" lon="9.9115583"><ele>348.8</ele><time>2026-04-25T12:20:54.234Z</time></trkpt><trkpt lat="45.6900717" lon="9.9114317"><ele>350.6</ele><time>2026-04-25T12:20:55.229Z</time></trkpt><trkpt lat="45.69001" lon="9.911305"><ele>352.40000000000003</ele><time>2026-04-25T12:20:56.229Z</time></trkpt><trkpt lat="45.6899633" lon="9.9111767"><ele>354.20000000000005</ele><time>2026-04-25T12:20:57.228Z</time></trkpt><trkpt lat="45.689925" lon="9.9110567"><ele>356.0</ele><time>2026-04-25T12:20:58.227Z</time></trkpt><trkpt lat="45.6899017" lon="9.91094"><ele>356.4</ele><time>2026-04-25T12:20:59.228Z</time></trkpt><trkpt lat="45.6898833" lon="9.9108317"><ele>356.8</ele><time>2026-04-25T12:21:00.228Z</time></trkpt><trkpt lat="45.6898733" lon="9.91074"><ele>357.2</ele><time>2026-04-25T12:21:01.227Z</time></trkpt><trkpt lat="45.689845" lon="9.910595"><ele>357.59999999999997</ele><time>2026-04-25T12:21:03.228Z</time></trkpt><trkpt lat="45.6897717" lon="9.91045"><ele>358.0</ele><time>2026-04-25T12:21:05.229Z</time></trkpt><trkpt lat="45.689715" lon="9.9103667"><ele>358.0</ele><time>2026-04-25T12:21:06.229Z</time></trkpt><trkpt lat="45.68965" lon="9.9102783"><ele>358.0</ele><time>2026-04-25T12:21:07.229Z</time></trkpt><trkpt lat="45.6895917" lon="9.910185"><ele>358.0</ele><time>2026-04-25T12:21:08.227Z</time></trkpt><trkpt lat="45.689535" lon="9.9100867"><ele>358.0</ele><time>2026-04-25T12:21:09.228Z</time></trkpt><trkpt lat="45.6894883" lon="9.9099933"><ele>358.0</ele><time>2026-04-25T12:21:10.227Z</time></trkpt><trkpt lat="45.6894533" lon="9.9099017"><ele>358.0</ele><time>2026-04-25T12:21:11.227Z</time></trkpt><trkpt lat="45.6894217" lon="9.9098183"><ele>357.4</ele><time>2026-04-25T12:21:12.227Z</time></trkpt><trkpt lat="45.6894" lon="9.9097083"><ele>356.79999999999995</ele><time>2026-04-25T12:21:13.228Z</time></trkpt><trkpt lat="45.68938" lon="9.9095717"><ele>356.2</ele><time>2026-04-25T12:21:14.231Z</time></trkpt><trkpt lat="45.689365" lon="9.9093983"><ele>355.6</ele><time>2026-04-25T12:21:15.229Z</time></trkpt><trkpt lat="45.68935" lon="9.9092267"><ele>355.0</ele><time>2026-04-25T12:21:16.228Z</time></trkpt><trkpt lat="45.6893367" lon="9.909055"><ele>356.5</ele><time>2026-04-25T12:21:17.227Z</time></trkpt><trkpt lat="45.6893267" lon="9.9088983"><ele>358.0</ele><time>2026-04-25T12:21:18.228Z</time></trkpt><trkpt lat="45.6893217" lon="9.90877"><ele>359.5</ele><time>2026-04-25T12:21:19.228Z</time></trkpt><trkpt lat="45.6893183" lon="9.908665"><ele>361.0</ele><time>2026-04-25T12:21:20.227Z</time></trkpt><trkpt lat="45.6893167" lon="9.9085583"><ele>362.5</ele><time>2026-04-25T12:21:21.229Z</time></trkpt><trkpt lat="45.6893083" lon="9.9084483"><ele>364.0</ele><time>2026-04-25T12:21:22.229Z</time></trkpt><trkpt lat="45.6893" lon="9.9083283"><ele>366.16666666666663</ele><time>2026-04-25T12:21:23.228Z</time></trkpt><trkpt lat="45.689295" lon="9.9082033"><ele>368.3333333333333</ele><time>2026-04-25T12:21:24.233Z</time></trkpt><trkpt lat="45.6892833" lon="9.9080833"><ele>370.5</ele><time>2026-04-25T12:21:25.228Z</time></trkpt><trkpt lat="45.6892783" lon="9.9079567"><ele>372.6666666666667</ele><time>2026-04-25T12:21:26.227Z</time></trkpt><trkpt lat="45.6892833" lon="9.907825"><ele>374.83333333333337</ele><time>2026-04-25T12:21:27.229Z</time></trkpt><trkpt lat="45.6892883" lon="9.9076933"><ele>377.0</ele><time>2026-04-25T12:21:28.228Z</time></trkpt><trkpt lat="45.6892917" lon="9.907585"><ele>377.5</ele><time>2026-04-25T12:21:29.228Z</time></trkpt><trkpt lat="45.6892967" lon="9.9074883"><ele>378.0</ele><time>2026-04-25T12:21:30.229Z</time></trkpt><trkpt lat="45.68931" lon="9.9074"><ele>378.5</ele><time>2026-04-25T12:21:31.229Z</time></trkpt><trkpt lat="45.689335" lon="9.90731"><ele>379.0</ele><time>2026-04-25T12:21:32.229Z</time></trkpt><trkpt lat="45.689375" lon="9.907215"><ele>379.5</ele><time>2026-04-25T12:21:33.228Z</time></trkpt><trkpt lat="45.68942" lon="9.9071067"><ele>380.0</ele><time>2026-04-25T12:21:34.227Z</time></trkpt><trkpt lat="45.68947" lon="9.9069783"><ele>379.75</ele><time>2026-04-25T12:21:35.229Z</time></trkpt><trkpt lat="45.6895233" lon="9.9068333"><ele>379.5</ele><time>2026-04-25T12:21:36.228Z</time></trkpt><trkpt lat="45.6895733" lon="9.90668"><ele>379.25</ele><time>2026-04-25T12:21:37.227Z</time></trkpt><trkpt lat="45.6896217" lon="9.9065267"><ele>379.0</ele><time>2026-04-25T12:21:38.228Z</time></trkpt><trkpt lat="45.6896667" lon="9.906365"><ele>379.0</ele><time>2026-04-25T12:21:39.228Z</time></trkpt><trkpt lat="45.68971" lon="9.9061967"><ele>379.0</ele><time>2026-04-25T12:21:40.228Z</time></trkpt><trkpt lat="45.6897517" lon="9.9060233"><ele>379.0</ele><time>2026-04-25T12:21:41.228Z</time></trkpt><trkpt lat="45.6897933" lon="9.9058533"><ele>379.0</ele><time>2026-04-25T12:21:42.228Z</time></trkpt><trkpt lat="45.68983" lon="9.9056783"><ele>380.25</ele><time>2026-04-25T12:21:43.227Z</time></trkpt><trkpt lat="45.68987" lon="9.9055033"><ele>381.5</ele><time>2026-04-25T12:21:44.227Z</time></trkpt><trkpt lat="45.6899083" lon="9.9053233"><ele>382.75</ele><time>2026-04-25T12:21:45.228Z</time></trkpt><trkpt lat="45.6899433" lon="9.90514"><ele>384.0</ele><time>2026-04-25T12:21:46.23Z</time></trkpt><trkpt lat="45.6899733" lon="9.9049583"><ele>384.75</ele><time>2026-04-25T12:21:47.228Z</time></trkpt><trkpt lat="45.6899983" lon="9.904775"><ele>385.5</ele><time>2026-04-25T12:21:48.227Z</time></trkpt><trkpt lat="45.6900183" lon="9.90459"><ele>386.25</ele><time>2026-04-25T12:21:49.228Z</time></trkpt><trkpt lat="45.690035" lon="9.904405"><ele>387.0</ele><time>2026-04-25T12:21:50.23Z</time></trkpt><trkpt lat="45.6900583" lon="9.90422"><ele>388.5</ele><time>2026-04-25T12:21:51.228Z</time></trkpt><trkpt lat="45.690075" lon="9.90403"><ele>390.0</ele><time>2026-04-25T12:21:52.227Z</time></trkpt><trkpt lat="45.6900933" lon="9.9038417"><ele>391.5</ele><time>2026-04-25T12:21:53.228Z</time></trkpt><trkpt lat="45.6901117" lon="9.9036567"><ele>393.0</ele><time>2026-04-25T12:21:54.228Z</time></trkpt><trkpt lat="45.6901317" lon="9.9034867"><ele>394.1666666666667</ele><time>2026-04-25T12:21:55.227Z</time></trkpt><trkpt lat="45.6901483" lon="9.9033383"><ele>395.33333333333337</ele><time>2026-04-25T12:21:56.228Z</time></trkpt><trkpt lat="45.6901633" lon="9.9032167"><ele>396.5</ele><time>2026-04-25T12:21:57.228Z</time></trkpt><trkpt lat="45.69017" lon="9.90312"><ele>397.6666666666667</ele><time>2026-04-25T12:21:58.228Z</time></trkpt><trkpt lat="45.6901667" lon="9.9030067"><ele>398.83333333333337</ele><time>2026-04-25T12:22:00.228Z</time></trkpt><trkpt lat="45.6900917" lon="9.9029233"><ele>400.0</ele><time>2026-04-25T12:22:41.227Z</time></trkpt><trkpt lat="45.6899933" lon="9.9028217"><ele>400.00000000000006</ele><time>2026-04-25T12:22:43.229Z</time></trkpt><trkpt lat="45.6899367" lon="9.90275"><ele>400.0</ele><time>2026-04-25T12:22:44.229Z</time></trkpt><trkpt lat="45.68988" lon="9.9026667"><ele>400.0</ele><time>2026-04-25T12:22:45.229Z</time></trkpt><trkpt lat="45.6898217" lon="9.9025767"><ele>400.0</ele><time>2026-04-25T12:22:46.227Z</time></trkpt><trkpt lat="45.6897567" lon="9.9024833"><ele>400.00000000000006</ele><time>2026-04-25T12:22:47.228Z</time></trkpt><trkpt lat="45.6896917" lon="9.9023867"><ele>400.0</ele><time>2026-04-25T12:22:48.229Z</time></trkpt><trkpt lat="45.6896267" lon="9.9022833"><ele>402.1666666666667</ele><time>2026-04-25T12:22:49.228Z</time></trkpt><trkpt lat="45.689565" lon="9.9021817"><ele>404.33333333333337</ele><time>2026-04-25T12:22:50.229Z</time></trkpt><trkpt lat="45.68951" lon="9.90208"><ele>406.5</ele><time>2026-04-25T12:22:51.229Z</time></trkpt><trkpt lat="45.689455" lon="9.9019833"><ele>408.66666666666663</ele><time>2026-04-25T12:22:52.236Z</time></trkpt><trkpt lat="45.689405" lon="9.9019033"><ele>410.8333333333333</ele><time>2026-04-25T12:22:53.228Z</time></trkpt><trkpt lat="45.6893533" lon="9.9018433"><ele>413.0</ele><time>2026-04-25T12:22:54.228Z</time></trkpt><trkpt lat="45.689275" lon="9.9018817"><ele>413.66666666666663</ele><time>2026-04-25T12:22:56.228Z</time></trkpt><trkpt lat="45.6892133" lon="9.9020017"><ele>414.3333333333333</ele><time>2026-04-25T12:22:58.228Z</time></trkpt><trkpt lat="45.6891817" lon="9.9020817"><ele>415.0</ele><time>2026-04-25T12:22:59.232Z</time></trkpt><trkpt lat="45.6891417" lon="9.90218"><ele>415.66666666666663</ele><time>2026-04-25T12:23:00.23Z</time></trkpt><trkpt lat="45.6891" lon="9.9022867"><ele>416.3333333333333</ele><time>2026-04-25T12:23:01.229Z</time></trkpt><trkpt lat="45.6890583" lon="9.902395"><ele>417.0</ele><time>2026-04-25T12:23:02.228Z</time></trkpt><trkpt lat="45.6890133" lon="9.902505"><ele>414.6666666666667</ele><time>2026-04-25T12:23:03.231Z</time></trkpt><trkpt lat="45.6889733" lon="9.90262"><ele>412.33333333333337</ele><time>2026-04-25T12:23:04.228Z</time></trkpt><trkpt lat="45.6889333" lon="9.902725"><ele>410.0</ele><time>2026-04-25T12:23:05.228Z</time></trkpt><trkpt lat="45.6888933" lon="9.9028233"><ele>407.6666666666667</ele><time>2026-04-25T12:23:06.228Z</time></trkpt><trkpt lat="45.688855" lon="9.9029083"><ele>405.33333333333337</ele><time>2026-04-25T12:23:07.228Z</time></trkpt><trkpt lat="45.68877" lon="9.903"><ele>403.0</ele><time>2026-04-25T12:23:09.228Z</time></trkpt><trkpt lat="45.6886983" lon="9.9030333"><ele>403.00000000000006</ele><time>2026-04-25T12:23:10.229Z</time></trkpt><trkpt lat="45.6886167" lon="9.9030717"><ele>403.0</ele><time>2026-04-25T12:23:11.229Z</time></trkpt><trkpt lat="45.688545" lon="9.9031183"><ele>403.0</ele><time>2026-04-25T12:23:12.227Z</time></trkpt><trkpt lat="45.68848" lon="9.9031517"><ele>403.0</ele><time>2026-04-25T12:23:13.228Z</time></trkpt><trkpt lat="45.688405" lon="9.9031717"><ele>403.00000000000006</ele><time>2026-04-25T12:23:14.228Z</time></trkpt><trkpt lat="45.6883267" lon="9.90318"><ele>403.0</ele><time>2026-04-25T12:23:15.228Z</time></trkpt><trkpt lat="45.6882533" lon="9.9031883"><ele>404.83333333333337</ele><time>2026-04-25T12:23:16.229Z</time></trkpt><trkpt lat="45.6881817" lon="9.9032217"><ele>406.6666666666667</ele><time>2026-04-25T12:23:17.228Z</time></trkpt><trkpt lat="45.6881117" lon="9.903265"><ele>408.5</ele><time>2026-04-25T12:23:18.228Z</time></trkpt><trkpt lat="45.6880533" lon="9.90333"><ele>410.33333333333337</ele><time>2026-04-25T12:23:19.228Z</time></trkpt><trkpt lat="45.6880083" lon="9.9034033"><ele>412.1666666666667</ele><time>2026-04-25T12:23:20.231Z</time></trkpt><trkpt lat="45.687955" lon="9.903495"><ele>414.0</ele><time>2026-04-25T12:23:21.231Z</time></trkpt><trkpt lat="45.6879017" lon="9.9035933"><ele>414.0</ele><time>2026-04-25T12:23:22.23Z</time></trkpt><trkpt lat="45.6878633" lon="9.903685"><ele>414.0</ele><time>2026-04-25T12:23:23.23Z</time></trkpt><trkpt lat="45.6878083" lon="9.9037767"><ele>414.0</ele><time>2026-04-25T12:23:24.23Z</time></trkpt><trkpt lat="45.687765" lon="9.9038517"><ele>414.0</ele><time>2026-04-25T12:23:25.23Z</time></trkpt><trkpt lat="45.6877217" lon="9.9039417"><ele>414.0</ele><time>2026-04-25T12:23:27.23Z</time></trkpt><trkpt lat="45.6876733" lon="9.9038783"><ele>414.0</ele><time>2026-04-25T12:23:32.229Z</time></trkpt><trkpt lat="45.6877333" lon="9.9037733"><ele>414.0</ele><time>2026-04-25T12:23:37.228Z</time></trkpt><trkpt lat="45.6877817" lon="9.903635"><ele>414.0</ele><time>2026-04-25T12:23:39.23Z</time></trkpt><trkpt lat="45.6877867" lon="9.9035267"><ele>414.0</ele><time>2026-04-25T12:23:40.227Z</time></trkpt><trkpt lat="45.6877933" lon="9.9033933"><ele>414.0</ele><time>2026-04-25T12:23:41.229Z</time></trkpt><trkpt lat="45.6878117" lon="9.9032433"><ele>414.0</ele><time>2026-04-25T12:23:42.229Z</time></trkpt><trkpt lat="45.6878317" lon="9.903105"><ele>417.1666666666667</ele><time>2026-04-25T12:23:43.229Z</time></trkpt><trkpt lat="45.6878517" lon="9.9029883"><ele>420.33333333333337</ele><time>2026-04-25T12:23:44.23Z</time></trkpt><trkpt lat="45.6878767" lon="9.9028817"><ele>423.5</ele><time>2026-04-25T12:23:45.229Z</time></trkpt><trkpt lat="45.6879117" lon="9.9027817"><ele>426.6666666666667</ele><time>2026-04-25T12:23:46.229Z</time></trkpt><trkpt lat="45.6879533" lon="9.902695"><ele>429.83333333333337</ele><time>2026-04-25T12:23:47.228Z</time></trkpt><trkpt lat="45.6879817" lon="9.9025133"><ele>433.0</ele><time>2026-04-25T12:23:49.23Z</time></trkpt><trkpt lat="45.6879867" lon="9.902395"><ele>435.33333333333337</ele><time>2026-04-25T12:23:50.23Z</time></trkpt><trkpt lat="45.6879917" lon="9.9022633"><ele>437.6666666666667</ele><time>2026-04-25T12:23:51.229Z</time></trkpt><trkpt lat="45.6880083" lon="9.9021433"><ele>440.0</ele><time>2026-04-25T12:23:52.23Z</time></trkpt><trkpt lat="45.68803" lon="9.90205"><ele>442.33333333333337</ele><time>2026-04-25T12:23:53.229Z</time></trkpt><trkpt lat="45.68809" lon="9.90193"><ele>444.6666666666667</ele><time>2026-04-25T12:23:55.231Z</time></trkpt><trkpt lat="45.6881167" lon="9.90184"><ele>447.0</ele><time>2026-04-25T12:23:58.229Z</time></trkpt><trkpt lat="45.6880583" lon="9.9018017"><ele>447.0</ele><time>2026-04-25T12:24:02.232Z</time></trkpt><trkpt lat="45.6880067" lon="9.9018783"><ele>447.0</ele><time>2026-04-25T12:24:04.231Z</time></trkpt><trkpt lat="45.6879483" lon="9.902025"><ele>447.0</ele><time>2026-04-25T12:24:06.229Z</time></trkpt><trkpt lat="45.6879183" lon="9.9021067"><ele>447.0</ele><time>2026-04-25T12:24:07.229Z</time></trkpt><trkpt lat="45.68788" lon="9.9021967"><ele>447.0</ele><time>2026-04-25T12:24:08.228Z</time></trkpt><trkpt lat="45.68784" lon="9.902285"><ele>447.0</ele><time>2026-04-25T12:24:09.229Z</time></trkpt><trkpt lat="45.6877883" lon="9.9023767"><ele>450.40000000000003</ele><time>2026-04-25T12:24:10.23Z</time></trkpt><trkpt lat="45.6877383" lon="9.9024717"><ele>453.80000000000007</ele><time>2026-04-25T12:24:11.229Z</time></trkpt><trkpt lat="45.6876733" lon="9.9025633"><ele>457.2</ele><time>2026-04-25T12:24:12.23Z</time></trkpt><trkpt lat="45.6876017" lon="9.90266"><ele>460.6</ele><time>2026-04-25T12:24:13.229Z</time></trkpt><trkpt lat="45.68752" lon="9.9027633"><ele>464.0</ele><time>2026-04-25T12:24:14.23Z</time></trkpt><trkpt lat="45.6874567" lon="9.902855"><ele>463.99999999999994</ele><time>2026-04-25T12:24:15.23Z</time></trkpt><trkpt lat="45.6873983" lon="9.9029367"><ele>464.0</ele><time>2026-04-25T12:24:16.231Z</time></trkpt><trkpt lat="45.6873467" lon="9.9030017"><ele>464.0</ele><time>2026-04-25T12:24:17.23Z</time></trkpt><trkpt lat="45.6872967" lon="9.903065"><ele>464.0</ele><time>2026-04-25T12:24:18.23Z</time></trkpt><trkpt lat="45.68719" lon="9.903175"><ele>463.99999999999994</ele><time>2026-04-25T12:24:20.229Z</time></trkpt><trkpt lat="45.6871167" lon="9.903225"><ele>464.0</ele><time>2026-04-25T12:24:21.23Z</time></trkpt><trkpt lat="45.6870283" lon="9.903275"><ele>463.99999999999994</ele><time>2026-04-25T12:24:22.23Z</time></trkpt><trkpt lat="45.6869433" lon="9.90332"><ele>464.0</ele><time>2026-04-25T12:24:23.231Z</time></trkpt><trkpt lat="45.6868533" lon="9.9033633"><ele>464.0</ele><time>2026-04-25T12:24:24.229Z</time></trkpt><trkpt lat="45.6867567" lon="9.9034033"><ele>464.0</ele><time>2026-04-25T12:24:25.229Z</time></trkpt><trkpt lat="45.6866717" lon="9.903435"><ele>463.99999999999994</ele><time>2026-04-25T12:24:26.229Z</time></trkpt><trkpt lat="45.6866017" lon="9.90345"><ele>464.0</ele><time>2026-04-25T12:24:27.231Z</time></trkpt><trkpt lat="45.6865" lon="9.90343"><ele>466.3333333333333</ele><time>2026-04-25T12:24:29.228Z</time></trkpt><trkpt lat="45.686415" lon="9.9033667"><ele>468.66666666666663</ele><time>2026-04-25T12:24:31.229Z</time></trkpt><trkpt lat="45.6863067" lon="9.9033083"><ele>471.0</ele><time>2026-04-25T12:24:33.23Z</time></trkpt><trkpt lat="45.68624" lon="9.903285"><ele>473.33333333333337</ele><time>2026-04-25T12:24:34.228Z</time></trkpt><trkpt lat="45.6861633" lon="9.903255"><ele>475.6666666666667</ele><time>2026-04-25T12:24:35.228Z</time></trkpt><trkpt lat="45.686085" lon="9.90322"><ele>478.0</ele><time>2026-04-25T12:24:36.229Z</time></trkpt><trkpt lat="45.686015" lon="9.90318"><ele>478.00000000000006</ele><time>2026-04-25T12:24:37.23Z</time></trkpt><trkpt lat="45.68595" lon="9.90314"><ele>478.0</ele><time>2026-04-25T12:24:38.229Z</time></trkpt><trkpt lat="45.6858933" lon="9.9031"><ele>478.00000000000006</ele><time>2026-04-25T12:24:39.23Z</time></trkpt><trkpt lat="45.685835" lon="9.9030483"><ele>478.00000000000006</ele><time>2026-04-25T12:24:40.23Z</time></trkpt><trkpt lat="45.6857867" lon="9.9029833"><ele>478.0</ele><time>2026-04-25T12:24:41.228Z</time></trkpt><trkpt lat="45.6857533" lon="9.9029017"><ele>478.00000000000006</ele><time>2026-04-25T12:24:42.228Z</time></trkpt><trkpt lat="45.685705" lon="9.9028167"><ele>478.00000000000006</ele><time>2026-04-25T12:24:43.228Z</time></trkpt><trkpt lat="45.6856417" lon="9.902735"><ele>478.0</ele><time>2026-04-25T12:24:44.228Z</time></trkpt><trkpt lat="45.685565" lon="9.90266"><ele>477.99999999999994</ele><time>2026-04-25T12:24:45.229Z</time></trkpt><trkpt lat="45.6854833" lon="9.9025767"><ele>477.99999999999994</ele><time>2026-04-25T12:24:46.228Z</time></trkpt><trkpt lat="45.6854017" lon="9.9024817"><ele>478.0</ele><time>2026-04-25T12:24:47.229Z</time></trkpt><trkpt lat="45.6853183" lon="9.902395"><ele>478.0</ele><time>2026-04-25T12:24:48.229Z</time></trkpt><trkpt lat="45.6852433" lon="9.902305"><ele>479.2</ele><time>2026-04-25T12:24:49.231Z</time></trkpt><trkpt lat="45.68517" lon="9.9022117"><ele>480.4</ele><time>2026-04-25T12:24:50.23Z</time></trkpt><trkpt lat="45.6850933" lon="9.9021133"><ele>481.59999999999997</ele><time>2026-04-25T12:24:51.229Z</time></trkpt><trkpt lat="45.6850183" lon="9.902015"><ele>482.79999999999995</ele><time>2026-04-25T12:24:52.23Z</time></trkpt><trkpt lat="45.6849417" lon="9.9019267"><ele>484.0</ele><time>2026-04-25T12:24:53.23Z</time></trkpt><trkpt lat="45.6848733" lon="9.9018533"><ele>484.0</ele><time>2026-04-25T12:24:54.23Z</time></trkpt><trkpt lat="45.6848117" lon="9.901805"><ele>484.0</ele><time>2026-04-25T12:24:55.23Z</time></trkpt><trkpt lat="45.684705" lon="9.901795"><ele>484.0</ele><time>2026-04-25T12:24:57.23Z</time></trkpt><trkpt lat="45.6846083" lon="9.9018417"><ele>484.0</ele><time>2026-04-25T12:24:59.227Z</time></trkpt><trkpt lat="45.6845333" lon="9.90192"><ele>484.0</ele><time>2026-04-25T12:25:01.237Z</time></trkpt><trkpt lat="45.6844333" lon="9.9019683"><ele>484.6666666666667</ele><time>2026-04-25T12:25:03.229Z</time></trkpt><trkpt lat="45.684355" lon="9.9019683"><ele>485.33333333333337</ele><time>2026-04-25T12:25:04.232Z</time></trkpt><trkpt lat="45.68426" lon="9.9019433"><ele>486.0</ele><time>2026-04-25T12:25:05.228Z</time></trkpt><trkpt lat="45.684165" lon="9.9019067"><ele>486.66666666666663</ele><time>2026-04-25T12:25:06.23Z</time></trkpt><trkpt lat="45.6840767" lon="9.9018783"><ele>487.3333333333333</ele><time>2026-04-25T12:25:07.228Z</time></trkpt><trkpt lat="45.6839933" lon="9.9018517"><ele>488.0</ele><time>2026-04-25T12:25:08.23Z</time></trkpt><trkpt lat="45.6839167" lon="9.9018283"><ele>487.99999999999994</ele><time>2026-04-25T12:25:09.228Z</time></trkpt><trkpt lat="45.68385" lon="9.9018117"><ele>488.0</ele><time>2026-04-25T12:25:10.229Z</time></trkpt><trkpt lat="45.68375" lon="9.9017733"><ele>488.0</ele><time>2026-04-25T12:25:12.229Z</time></trkpt><trkpt lat="45.68369" lon="9.9017433"><ele>488.0</ele><time>2026-04-25T12:25:14.229Z</time></trkpt><trkpt lat="45.6836233" lon="9.9017167"><ele>487.99999999999994</ele><time>2026-04-25T12:25:37.227Z</time></trkpt><trkpt lat="45.6835767" lon="9.9018"><ele>488.0</ele><time>2026-04-25T12:25:48.229Z</time></trkpt><trkpt lat="45.68351" lon="9.901895"><ele>490.16666666666663</ele><time>2026-04-25T12:25:51.231Z</time></trkpt><trkpt lat="45.6834367" lon="9.9019533"><ele>492.3333333333333</ele><time>2026-04-25T12:25:53.227Z</time></trkpt><trkpt lat="45.6833833" lon="9.9020017"><ele>494.5</ele><time>2026-04-25T12:25:55.227Z</time></trkpt><trkpt lat="45.683315" lon="9.9020733"><ele>496.66666666666663</ele><time>2026-04-25T12:25:59.229Z</time></trkpt><trkpt lat="45.683245" lon="9.90214"><ele>498.8333333333333</ele><time>2026-04-25T12:26:01.229Z</time></trkpt><trkpt lat="45.683185" lon="9.9021967"><ele>501.0</ele><time>2026-04-25T12:26:03.229Z</time></trkpt><trkpt lat="45.6831183" lon="9.9022383"><ele>501.0</ele><time>2026-04-25T12:26:05.228Z</time></trkpt><trkpt lat="45.683025" lon="9.902265"><ele>501.0</ele><time>2026-04-25T12:26:08.229Z</time></trkpt><trkpt lat="45.68295" lon="9.90228"><ele>501.0</ele><time>2026-04-25T12:26:10.227Z</time></trkpt><trkpt lat="45.6828767" lon="9.9022983"><ele>501.0</ele><time>2026-04-25T12:26:12.227Z</time></trkpt><trkpt lat="45.682815" lon="9.9023217"><ele>501.0</ele><time>2026-04-25T12:26:14.229Z</time></trkpt><trkpt lat="45.6827133" lon="9.9023633"><ele>501.0</ele><time>2026-04-25T12:26:16.228Z</time></trkpt><trkpt lat="45.68262" lon="9.9024517"><ele>500.3333333333333</ele><time>2026-04-25T12:26:18.228Z</time></trkpt><trkpt lat="45.682545" lon="9.9025667"><ele>499.66666666666663</ele><time>2026-04-25T12:26:20.227Z</time></trkpt><trkpt lat="45.68251" lon="9.9026417"><ele>499.0</ele><time>2026-04-25T12:26:21.229Z</time></trkpt><trkpt lat="45.682475" lon="9.9027283"><ele>498.3333333333333</ele><time>2026-04-25T12:26:22.229Z</time></trkpt><trkpt lat="45.6824483" lon="9.902825"><ele>497.66666666666663</ele><time>2026-04-25T12:26:23.227Z</time></trkpt><trkpt lat="45.68241" lon="9.902965"><ele>497.0</ele><time>2026-04-25T12:26:25.232Z</time></trkpt><trkpt lat="45.6823917" lon="9.9030733"><ele>497.0</ele><time>2026-04-25T12:26:28.228Z</time></trkpt><trkpt lat="45.6823817" lon="9.9029517"><ele>497.00000000000006</ele><time>2026-04-25T12:27:06.232Z</time></trkpt><trkpt lat="45.6823833" lon="9.9028217"><ele>497.00000000000006</ele><time>2026-04-25T12:27:08.228Z</time></trkpt><trkpt lat="45.6824267" lon="9.9026717"><ele>497.0</ele><time>2026-04-25T12:27:10.229Z</time></trkpt><trkpt lat="45.6824933" lon="9.90255"><ele>497.0</ele><time>2026-04-25T12:27:12.231Z</time></trkpt><trkpt lat="45.6825917" lon="9.90245"><ele>496.99999999999994</ele><time>2026-04-25T12:27:14.229Z</time></trkpt><trkpt lat="45.68268" lon="9.902375"><ele>497.0</ele><time>2026-04-25T12:27:16.232Z</time></trkpt><trkpt lat="45.6827833" lon="9.90234"><ele>497.0</ele><time>2026-04-25T12:27:18.23Z</time></trkpt><trkpt lat="45.6828467" lon="9.9023267"><ele>497.0</ele><time>2026-04-25T12:27:19.23Z</time></trkpt><trkpt lat="45.6829183" lon="9.9023017"><ele>496.99999999999994</ele><time>2026-04-25T12:27:20.23Z</time></trkpt><trkpt lat="45.6830033" lon="9.9022667"><ele>497.0</ele><time>2026-04-25T12:27:21.23Z</time></trkpt><trkpt lat="45.6830783" lon="9.9022117"><ele>497.66666666666663</ele><time>2026-04-25T12:27:22.229Z</time></trkpt><trkpt lat="45.6831467" lon="9.9021483"><ele>498.3333333333333</ele><time>2026-04-25T12:27:23.228Z</time></trkpt><trkpt lat="45.6832067" lon="9.902085"><ele>499.0</ele><time>2026-04-25T12:27:24.23Z</time></trkpt><trkpt lat="45.68328" lon="9.9020233"><ele>499.66666666666663</ele><time>2026-04-25T12:27:25.231Z</time></trkpt><trkpt lat="45.683345" lon="9.9019583"><ele>500.3333333333333</ele><time>2026-04-25T12:27:26.23Z</time></trkpt><trkpt lat="45.683395" lon="9.9019033"><ele>501.0</ele><time>2026-04-25T12:27:27.229Z</time></trkpt><trkpt lat="45.68349" lon="9.901835"><ele>501.0</ele><time>2026-04-25T12:27:29.228Z</time></trkpt><trkpt lat="45.6835733" lon="9.901815"><ele>501.0</ele><time>2026-04-25T12:27:31.229Z</time></trkpt><trkpt lat="45.68365" lon="9.9018233"><ele>501.0</ele><time>2026-04-25T12:27:33.229Z</time></trkpt><trkpt lat="45.68376" lon="9.9018433"><ele>501.0</ele><time>2026-04-25T12:27:35.229Z</time></trkpt><trkpt lat="45.6838233" lon="9.9018533"><ele>501.0</ele><time>2026-04-25T12:27:36.232Z</time></trkpt><trkpt lat="45.6838967" lon="9.9018733"><ele>501.0</ele><time>2026-04-25T12:27:37.23Z</time></trkpt><trkpt lat="45.6839783" lon="9.9019"><ele>498.8333333333333</ele><time>2026-04-25T12:27:38.229Z</time></trkpt><trkpt lat="45.6840617" lon="9.901925"><ele>496.66666666666663</ele><time>2026-04-25T12:27:39.23Z</time></trkpt><trkpt lat="45.684145" lon="9.9019467"><ele>494.5</ele><time>2026-04-25T12:27:40.23Z</time></trkpt><trkpt lat="45.6842333" lon="9.901965"><ele>492.3333333333333</ele><time>2026-04-25T12:27:41.228Z</time></trkpt><trkpt lat="45.6843167" lon="9.9019733"><ele>490.16666666666663</ele><time>2026-04-25T12:27:42.229Z</time></trkpt><trkpt lat="45.6843917" lon="9.90197"><ele>488.0</ele><time>2026-04-25T12:27:43.229Z</time></trkpt><trkpt lat="45.6844683" lon="9.9019517"><ele>487.2</ele><time>2026-04-25T12:27:44.229Z</time></trkpt><trkpt lat="45.6845317" lon="9.9019067"><ele>486.4</ele><time>2026-04-25T12:27:45.229Z</time></trkpt><trkpt lat="45.684635" lon="9.9018317"><ele>485.59999999999997</ele><time>2026-04-25T12:27:47.229Z</time></trkpt><trkpt lat="45.6847467" lon="9.9018117"><ele>484.79999999999995</ele><time>2026-04-25T12:27:49.227Z</time></trkpt><trkpt lat="45.6848183" lon="9.9018583"><ele>484.0</ele><time>2026-04-25T12:27:50.229Z</time></trkpt><trkpt lat="45.684885" lon="9.9019233"><ele>484.0</ele><time>2026-04-25T12:27:51.228Z</time></trkpt><trkpt lat="45.684965" lon="9.902005"><ele>484.0</ele><time>2026-04-25T12:27:52.228Z</time></trkpt><trkpt lat="45.6850467" lon="9.9020967"><ele>484.0</ele><time>2026-04-25T12:27:53.228Z</time></trkpt><trkpt lat="45.6851283" lon="9.9021917"><ele>484.0</ele><time>2026-04-25T12:27:54.228Z</time></trkpt><trkpt lat="45.6852117" lon="9.9022883"><ele>484.0</ele><time>2026-04-25T12:27:55.229Z</time></trkpt><trkpt lat="45.685295" lon="9.902385"><ele>482.79999999999995</ele><time>2026-04-25T12:27:56.229Z</time></trkpt><trkpt lat="45.6853833" lon="9.9024817"><ele>481.59999999999997</ele><time>2026-04-25T12:27:57.229Z</time></trkpt><trkpt lat="45.685475" lon="9.902575"><ele>480.4</ele><time>2026-04-25T12:27:58.228Z</time></trkpt><trkpt lat="45.6855683" lon="9.9026617"><ele>479.2</ele><time>2026-04-25T12:27:59.23Z</time></trkpt><trkpt lat="45.6856533" lon="9.9027583"><ele>478.0</ele><time>2026-04-25T12:28:00.228Z</time></trkpt><trkpt lat="45.68572" lon="9.9028617"><ele>478.00000000000006</ele><time>2026-04-25T12:28:01.229Z</time></trkpt><trkpt lat="45.685765" lon="9.9029567"><ele>478.0</ele><time>2026-04-25T12:28:02.228Z</time></trkpt><trkpt lat="45.68583" lon="9.90307"><ele>478.0</ele><time>2026-04-25T12:28:04.227Z</time></trkpt><trkpt lat="45.6859117" lon="9.9031233"><ele>478.0</ele><time>2026-04-25T12:28:06.227Z</time></trkpt><trkpt lat="45.6859733" lon="9.90317"><ele>478.00000000000006</ele><time>2026-04-25T12:28:07.227Z</time></trkpt><trkpt lat="45.6860417" lon="9.9032"><ele>478.0</ele><time>2026-04-25T12:28:08.229Z</time></trkpt><trkpt lat="45.68612" lon="9.903235"><ele>479.83333333333337</ele><time>2026-04-25T12:28:09.227Z</time></trkpt><trkpt lat="45.6862" lon="9.903265"><ele>481.6666666666667</ele><time>2026-04-25T12:28:10.234Z</time></trkpt><trkpt lat="45.6862883" lon="9.9032967"><ele>483.5</ele><time>2026-04-25T12:28:11.227Z</time></trkpt><trkpt lat="45.6863683" lon="9.9033467"><ele>485.33333333333337</ele><time>2026-04-25T12:28:12.227Z</time></trkpt><trkpt lat="45.6864383" lon="9.9033983"><ele>487.1666666666667</ele><time>2026-04-25T12:28:13.227Z</time></trkpt><trkpt lat="45.6864983" lon="9.903435"><ele>489.0</ele><time>2026-04-25T12:28:14.229Z</time></trkpt><trkpt lat="45.6866017" lon="9.9034517"><ele>489.0</ele><time>2026-04-25T12:28:16.228Z</time></trkpt><trkpt lat="45.6867167" lon="9.9034133"><ele>489.0</ele><time>2026-04-25T12:28:18.228Z</time></trkpt><trkpt lat="45.6868433" lon="9.903345"><ele>489.0</ele><time>2026-04-25T12:28:20.23Z</time></trkpt><trkpt lat="45.6869183" lon="9.9033067"><ele>489.0</ele><time>2026-04-25T12:28:21.231Z</time></trkpt><trkpt lat="45.6869967" lon="9.9032433"><ele>489.0</ele><time>2026-04-25T12:28:22.228Z</time></trkpt><trkpt lat="45.687075" lon="9.9031933"><ele>484.8333333333333</ele><time>2026-04-25T12:28:23.229Z</time></trkpt><trkpt lat="45.6871533" lon="9.903155"><ele>480.66666666666663</ele><time>2026-04-25T12:28:24.229Z</time></trkpt><trkpt lat="45.68723" lon="9.903105"><ele>476.5</ele><time>2026-04-25T12:28:25.229Z</time></trkpt><trkpt lat="45.6873017" lon="9.903045"><ele>472.3333333333333</ele><time>2026-04-25T12:28:26.229Z</time></trkpt><trkpt lat="45.6873683" lon="9.902975"><ele>468.16666666666663</ele><time>2026-04-25T12:28:27.23Z</time></trkpt><trkpt lat="45.68743" lon="9.9029"><ele>464.0</ele><time>2026-04-25T12:28:28.23Z</time></trkpt><trkpt lat="45.6874933" lon="9.9028267"><ele>463.99999999999994</ele><time>2026-04-25T12:28:29.229Z</time></trkpt><trkpt lat="45.6875533" lon="9.90275"><ele>464.0</ele><time>2026-04-25T12:28:30.23Z</time></trkpt><trkpt lat="45.6876033" lon="9.9026667"><ele>464.0</ele><time>2026-04-25T12:28:31.228Z</time></trkpt><trkpt lat="45.6876583" lon="9.9025833"><ele>464.0</ele><time>2026-04-25T12:28:32.228Z</time></trkpt><trkpt lat="45.687705" lon="9.9025"><ele>463.99999999999994</ele><time>2026-04-25T12:28:33.23Z</time></trkpt><trkpt lat="45.6877583" lon="9.9024183"><ele>464.0</ele><time>2026-04-25T12:28:34.228Z</time></trkpt><trkpt lat="45.6878033" lon="9.902335"><ele>461.16666666666663</ele><time>2026-04-25T12:28:35.228Z</time></trkpt><trkpt lat="45.6878533" lon="9.9022433"><ele>458.3333333333333</ele><time>2026-04-25T12:28:36.229Z</time></trkpt><trkpt lat="45.6878967" lon="9.9021533"><ele>455.5</ele><time>2026-04-25T12:28:37.229Z</time></trkpt><trkpt lat="45.68794" lon="9.90206"><ele>452.66666666666663</ele><time>2026-04-25T12:28:38.229Z</time></trkpt><trkpt lat="45.68798" lon="9.9019683"><ele>449.8333333333333</ele><time>2026-04-25T12:28:39.229Z</time></trkpt><trkpt lat="45.6880433" lon="9.9018433"><ele>447.0</ele><time>2026-04-25T12:28:41.229Z</time></trkpt><trkpt lat="45.6880933" lon="9.9019367"><ele>447.0</ele><time>2026-04-25T12:28:47.228Z</time></trkpt><trkpt lat="45.688055" lon="9.9020717"><ele>447.0</ele><time>2026-04-25T12:28:49.229Z</time></trkpt><trkpt lat="45.6880417" lon="9.9021617"><ele>447.0</ele><time>2026-04-25T12:28:50.232Z</time></trkpt><trkpt lat="45.6880433" lon="9.9022617"><ele>447.0</ele><time>2026-04-25T12:28:51.229Z</time></trkpt><trkpt lat="45.688045" lon="9.9023717"><ele>447.0</ele><time>2026-04-25T12:28:52.229Z</time></trkpt><trkpt lat="45.68804" lon="9.9024683"><ele>447.0</ele><time>2026-04-25T12:28:53.227Z</time></trkpt><trkpt lat="45.6880133" lon="9.9026433"><ele>444.6666666666667</ele><time>2026-04-25T12:28:55.229Z</time></trkpt><trkpt lat="45.68799" lon="9.902735"><ele>442.33333333333337</ele><time>2026-04-25T12:28:56.229Z</time></trkpt><trkpt lat="45.6879533" lon="9.9028183"><ele>440.0</ele><time>2026-04-25T12:28:57.231Z</time></trkpt><trkpt lat="45.6879183" lon="9.9029133"><ele>437.6666666666667</ele><time>2026-04-25T12:28:58.228Z</time></trkpt><trkpt lat="45.6878867" lon="9.9030167"><ele>435.33333333333337</ele><time>2026-04-25T12:28:59.228Z</time></trkpt><trkpt lat="45.6878667" lon="9.9031333"><ele>433.0</ele><time>2026-04-25T12:29:00.229Z</time></trkpt><trkpt lat="45.6878533" lon="9.9032483"><ele>433.00000000000006</ele><time>2026-04-25T12:29:01.229Z</time></trkpt><trkpt lat="45.687835" lon="9.9033817"><ele>433.0</ele><time>2026-04-25T12:29:02.229Z</time></trkpt><trkpt lat="45.6878167" lon="9.9035033"><ele>433.0</ele><time>2026-04-25T12:29:03.229Z</time></trkpt><trkpt lat="45.6877917" lon="9.9036117"><ele>433.0</ele><time>2026-04-25T12:29:04.229Z</time></trkpt><trkpt lat="45.687765" lon="9.9037167"><ele>433.00000000000006</ele><time>2026-04-25T12:29:05.23Z</time></trkpt><trkpt lat="45.68773" lon="9.90381"><ele>433.0</ele><time>2026-04-25T12:29:06.23Z</time></trkpt><trkpt lat="45.6876733" lon="9.9039167"><ele>433.50000000000006</ele><time>2026-04-25T12:29:08.228Z</time></trkpt><trkpt lat="45.6877233" lon="9.9039867"><ele>434.0</ele><time>2026-04-25T12:29:12.228Z</time></trkpt><trkpt lat="45.6877733" lon="9.9038983"><ele>434.5</ele><time>2026-04-25T12:29:15.227Z</time></trkpt><trkpt lat="45.6878183" lon="9.90379"><ele>435.0</ele><time>2026-04-25T12:29:17.228Z</time></trkpt><trkpt lat="45.687875" lon="9.9036617"><ele>435.50000000000006</ele><time>2026-04-25T12:29:19.228Z</time></trkpt><trkpt lat="45.6879167" lon="9.9035817"><ele>436.0</ele><time>2026-04-25T12:29:20.228Z</time></trkpt><trkpt lat="45.6879617" lon="9.90351"><ele>435.50000000000006</ele><time>2026-04-25T12:29:21.229Z</time></trkpt><trkpt lat="45.688005" lon="9.9034367"><ele>435.0</ele><time>2026-04-25T12:29:22.228Z</time></trkpt><trkpt lat="45.688085" lon="9.903325"><ele>434.5</ele><time>2026-04-25T12:29:24.228Z</time></trkpt><trkpt lat="45.68819" lon="9.903265"><ele>434.0</ele><time>2026-04-25T12:29:26.228Z</time></trkpt><trkpt lat="45.6882533" lon="9.90325"><ele>433.50000000000006</ele><time>2026-04-25T12:29:27.229Z</time></trkpt><trkpt lat="45.6883167" lon="9.903215"><ele>433.0</ele><time>2026-04-25T12:29:28.23Z</time></trkpt><trkpt lat="45.6883833" lon="9.9031733"><ele>433.00000000000006</ele><time>2026-04-25T12:29:29.228Z</time></trkpt><trkpt lat="45.6884633" lon="9.9031367"><ele>433.0</ele><time>2026-04-25T12:29:30.23Z</time></trkpt><trkpt lat="45.68854" lon="9.903105"><ele>433.0</ele><time>2026-04-25T12:29:31.229Z</time></trkpt><trkpt lat="45.6886133" lon="9.9030733"><ele>433.0</ele><time>2026-04-25T12:29:32.228Z</time></trkpt><trkpt lat="45.6886867" lon="9.9030317"><ele>433.00000000000006</ele><time>2026-04-25T12:29:33.229Z</time></trkpt><trkpt lat="45.6887467" lon="9.9029667"><ele>433.0</ele><time>2026-04-25T12:29:34.228Z</time></trkpt><trkpt lat="45.6887917" lon="9.9028917"><ele>430.33333333333337</ele><time>2026-04-25T12:29:35.227Z</time></trkpt><trkpt lat="45.688835" lon="9.90281"><ele>427.6666666666667</ele><time>2026-04-25T12:29:36.229Z</time></trkpt><trkpt lat="45.6888717" lon="9.9027233"><ele>425.0</ele><time>2026-04-25T12:29:37.228Z</time></trkpt><trkpt lat="45.68891" lon="9.9026217"><ele>422.33333333333337</ele><time>2026-04-25T12:29:38.228Z</time></trkpt><trkpt lat="45.68895" lon="9.9025183"><ele>419.6666666666667</ele><time>2026-04-25T12:29:39.229Z</time></trkpt><trkpt lat="45.6889933" lon="9.902415"><ele>417.0</ele><time>2026-04-25T12:29:40.229Z</time></trkpt><trkpt lat="45.6890367" lon="9.9023217"><ele>417.0</ele><time>2026-04-25T12:29:41.228Z</time></trkpt><trkpt lat="45.6890833" lon="9.9022267"><ele>417.0</ele><time>2026-04-25T12:29:42.23Z</time></trkpt><trkpt lat="45.6891233" lon="9.9021417"><ele>417.0</ele><time>2026-04-25T12:29:43.229Z</time></trkpt><trkpt lat="45.6891583" lon="9.9020667"><ele>417.0</ele><time>2026-04-25T12:29:44.228Z</time></trkpt><trkpt lat="45.68923" lon="9.90196"><ele>417.0</ele><time>2026-04-25T12:29:46.229Z</time></trkpt><trkpt lat="45.6892967" lon="9.901965"><ele>417.0</ele><time>2026-04-25T12:29:49.229Z</time></trkpt><trkpt lat="45.68935" lon="9.902025"><ele>417.0</ele><time>2026-04-25T12:29:50.228Z</time></trkpt><trkpt lat="45.6894033" lon="9.9021133"><ele>417.0</ele><time>2026-04-25T12:29:51.23Z</time></trkpt><trkpt lat="45.6894667" lon="9.90221"><ele>417.0</ele><time>2026-04-25T12:29:52.23Z</time></trkpt><trkpt lat="45.68952" lon="9.9023017"><ele>417.0</ele><time>2026-04-25T12:29:53.228Z</time></trkpt><trkpt lat="45.6895833" lon="9.9023933"><ele>417.0</ele><time>2026-04-25T12:29:54.229Z</time></trkpt><trkpt lat="45.68965" lon="9.9024867"><ele>417.0</ele><time>2026-04-25T12:29:55.228Z</time></trkpt><trkpt lat="45.6897183" lon="9.9025833"><ele>414.1666666666667</ele><time>2026-04-25T12:29:56.228Z</time></trkpt><trkpt lat="45.6897883" lon="9.90268"><ele>411.33333333333337</ele><time>2026-04-25T12:29:57.229Z</time></trkpt><trkpt lat="45.6898567" lon="9.9027717"><ele>408.5</ele><time>2026-04-25T12:29:58.228Z</time></trkpt><trkpt lat="45.6899183" lon="9.9028483"><ele>405.6666666666667</ele><time>2026-04-25T12:29:59.231Z</time></trkpt><trkpt lat="45.6899783" lon="9.90291"><ele>402.83333333333337</ele><time>2026-04-25T12:30:00.228Z</time></trkpt><trkpt lat="45.6900617" lon="9.902985"><ele>400.0</ele><time>2026-04-25T12:30:02.229Z</time></trkpt><trkpt lat="45.6901233" lon="9.9030533"><ele>400.00000000000006</ele><time>2026-04-25T12:33:07.228Z</time></trkpt><trkpt lat="45.69013" lon="9.9031917"><ele>400.0</ele><time>2026-04-25T12:33:09.231Z</time></trkpt><trkpt lat="45.6901217" lon="9.9032883"><ele>400.0</ele><time>2026-04-25T12:33:10.228Z</time></trkpt><trkpt lat="45.6901117" lon="9.9033933"><ele>400.0</ele><time>2026-04-25T12:33:11.227Z</time></trkpt><trkpt lat="45.6901" lon="9.9035167"><ele>400.00000000000006</ele><time>2026-04-25T12:33:12.228Z</time></trkpt><trkpt lat="45.690085" lon="9.90365"><ele>400.0</ele><time>2026-04-25T12:33:13.228Z</time></trkpt><trkpt lat="45.6900683" lon="9.9037967"><ele>398.25</ele><time>2026-04-25T12:33:14.229Z</time></trkpt><trkpt lat="45.69005" lon="9.903965"><ele>396.5</ele><time>2026-04-25T12:33:15.227Z</time></trkpt><trkpt lat="45.6900333" lon="9.90414"><ele>394.75</ele><time>2026-04-25T12:33:16.227Z</time></trkpt><trkpt lat="45.690015" lon="9.904325"><ele>393.0</ele><time>2026-04-25T12:33:17.228Z</time></trkpt><trkpt lat="45.6899983" lon="9.9045217"><ele>391.0</ele><time>2026-04-25T12:33:18.229Z</time></trkpt><trkpt lat="45.6899783" lon="9.904735"><ele>389.0</ele><time>2026-04-25T12:33:19.229Z</time></trkpt><trkpt lat="45.6899533" lon="9.9049517"><ele>387.0</ele><time>2026-04-25T12:33:20.227Z</time></trkpt><trkpt lat="45.68992" lon="9.9051733"><ele>386.0</ele><time>2026-04-25T12:33:21.228Z</time></trkpt><trkpt lat="45.689875" lon="9.9054"><ele>385.0</ele><time>2026-04-25T12:33:22.228Z</time></trkpt><trkpt lat="45.6898267" lon="9.9056267"><ele>384.0</ele><time>2026-04-25T12:33:23.233Z</time></trkpt><trkpt lat="45.689775" lon="9.9058533"><ele>382.3333333333333</ele><time>2026-04-25T12:33:24.227Z</time></trkpt><trkpt lat="45.6897183" lon="9.90608"><ele>380.66666666666663</ele><time>2026-04-25T12:33:25.227Z</time></trkpt><trkpt lat="45.6896633" lon="9.906295"><ele>379.0</ele><time>2026-04-25T12:33:26.228Z</time></trkpt><trkpt lat="45.6896117" lon="9.9064883"><ele>379.0</ele><time>2026-04-25T12:33:27.231Z</time></trkpt><trkpt lat="45.68956" lon="9.9066667"><ele>379.0</ele><time>2026-04-25T12:33:28.228Z</time></trkpt><trkpt lat="45.6895033" lon="9.9068317"><ele>379.0</ele><time>2026-04-25T12:33:29.228Z</time></trkpt><trkpt lat="45.6894533" lon="9.906975"><ele>379.0</ele><time>2026-04-25T12:33:30.228Z</time></trkpt><trkpt lat="45.6894033" lon="9.9071017"><ele>379.14285714285717</ele><time>2026-04-25T12:33:31.23Z</time></trkpt><trkpt lat="45.6893583" lon="9.9072067"><ele>379.2857142857143</ele><time>2026-04-25T12:33:32.227Z</time></trkpt><trkpt lat="45.6893217" lon="9.907295"><ele>379.42857142857144</ele><time>2026-04-25T12:33:33.228Z</time></trkpt><trkpt lat="45.68929" lon="9.9073783"><ele>379.57142857142856</ele><time>2026-04-25T12:33:34.227Z</time></trkpt><trkpt lat="45.6892667" lon="9.907465"><ele>379.7142857142857</ele><time>2026-04-25T12:33:35.228Z</time></trkpt><trkpt lat="45.6892567" lon="9.90756"><ele>379.8571428571429</ele><time>2026-04-25T12:33:36.227Z</time></trkpt><trkpt lat="45.68925" lon="9.9076783"><ele>380.0</ele><time>2026-04-25T12:33:37.228Z</time></trkpt><trkpt lat="45.6892483" lon="9.9078117"><ele>379.4</ele><time>2026-04-25T12:33:38.241Z</time></trkpt><trkpt lat="45.68925" lon="9.907945"><ele>378.8</ele><time>2026-04-25T12:33:39.23Z</time></trkpt><trkpt lat="45.689255" lon="9.9080817"><ele>378.20000000000005</ele><time>2026-04-25T12:33:40.227Z</time></trkpt><trkpt lat="45.6892717" lon="9.9082117"><ele>377.6</ele><time>2026-04-25T12:33:41.229Z</time></trkpt><trkpt lat="45.6892883" lon="9.9083467"><ele>377.0</ele><time>2026-04-25T12:33:42.233Z</time></trkpt><trkpt lat="45.6892967" lon="9.9084867"><ele>374.40000000000003</ele><time>2026-04-25T12:33:43.228Z</time></trkpt><trkpt lat="45.6893017" lon="9.9086317"><ele>371.8</ele><time>2026-04-25T12:33:44.229Z</time></trkpt><trkpt lat="45.6893017" lon="9.9087883"><ele>369.2</ele><time>2026-04-25T12:33:45.228Z</time></trkpt><trkpt lat="45.68931" lon="9.9089533"><ele>366.6</ele><time>2026-04-25T12:33:46.229Z</time></trkpt><trkpt lat="45.6893217" lon="9.9091267"><ele>364.0</ele><time>2026-04-25T12:33:47.228Z</time></trkpt><trkpt lat="45.6893383" lon="9.909305"><ele>362.79999999999995</ele><time>2026-04-25T12:33:48.227Z</time></trkpt><trkpt lat="45.689355" lon="9.9094767"><ele>361.59999999999997</ele><time>2026-04-25T12:33:49.229Z</time></trkpt><trkpt lat="45.6893733" lon="9.90963"><ele>360.4</ele><time>2026-04-25T12:33:50.228Z</time></trkpt><trkpt lat="45.68939" lon="9.9097633"><ele>359.2</ele><time>2026-04-25T12:33:51.229Z</time></trkpt><trkpt lat="45.689415" lon="9.909875"><ele>358.0</ele><time>2026-04-25T12:33:52.23Z</time></trkpt><trkpt lat="45.68945" lon="9.909975"><ele>358.0</ele><time>2026-04-25T12:33:53.229Z</time></trkpt><trkpt lat="45.6894983" lon="9.910075"><ele>358.0</ele><time>2026-04-25T12:33:54.228Z</time></trkpt><trkpt lat="45.689555" lon="9.9101667"><ele>358.0</ele><time>2026-04-25T12:33:55.228Z</time></trkpt><trkpt lat="45.6896117" lon="9.91026"><ele>358.0</ele><time>2026-04-25T12:33:56.227Z</time></trkpt><trkpt lat="45.6896633" lon="9.9103433"><ele>358.0</ele><time>2026-04-25T12:33:57.229Z</time></trkpt><trkpt lat="45.689735" lon="9.9104617"><ele>358.0</ele><time>2026-04-25T12:33:59.227Z</time></trkpt><trkpt lat="45.6897933" lon="9.910565"><ele>358.0</ele><time>2026-04-25T12:34:01.229Z</time></trkpt><trkpt lat="45.6898233" lon="9.9106483"><ele>358.0</ele><time>2026-04-25T12:34:03.232Z</time></trkpt><trkpt lat="45.6898283" lon="9.9107483"><ele>358.0</ele><time>2026-04-25T12:34:05.23Z</time></trkpt><trkpt lat="45.68984" lon="9.9108383"><ele>358.0</ele><time>2026-04-25T12:34:06.23Z</time></trkpt><trkpt lat="45.68986" lon="9.9109567"><ele>358.0</ele><time>2026-04-25T12:34:07.229Z</time></trkpt><trkpt lat="45.6898883" lon="9.9110867"><ele>358.0</ele><time>2026-04-25T12:34:08.229Z</time></trkpt><trkpt lat="45.6899317" lon="9.9112117"><ele>357.66666666666663</ele><time>2026-04-25T12:34:09.228Z</time></trkpt><trkpt lat="45.68998" lon="9.9113333"><ele>357.3333333333333</ele><time>2026-04-25T12:34:10.229Z</time></trkpt><trkpt lat="45.6900283" lon="9.91144"><ele>357.0</ele><time>2026-04-25T12:34:11.227Z</time></trkpt><trkpt lat="45.69008" lon="9.9115317"><ele>356.6666666666667</ele><time>2026-04-25T12:34:12.228Z</time></trkpt><trkpt lat="45.6901367" lon="9.9116167"><ele>356.33333333333337</ele><time>2026-04-25T12:34:13.227Z</time></trkpt><trkpt lat="45.6901683" lon="9.9117133"><ele>356.0</ele><time>2026-04-25T12:34:14.229Z</time></trkpt><trkpt lat="45.6901883" lon="9.9118167"><ele>354.20000000000005</ele><time>2026-04-25T12:34:15.228Z</time></trkpt><trkpt lat="45.690195" lon="9.9119333"><ele>352.40000000000003</ele><time>2026-04-25T12:34:16.228Z</time></trkpt><trkpt lat="45.6901933" lon="9.9120717"><ele>350.6</ele><time>2026-04-25T12:34:17.229Z</time></trkpt><trkpt lat="45.6901817" lon="9.9122233"><ele>348.8</ele><time>2026-04-25T12:34:18.229Z</time></trkpt><trkpt lat="45.69015" lon="9.9123833"><ele>347.0</ele><time>2026-04-25T12:34:19.228Z</time></trkpt><trkpt lat="45.6901" lon="9.9125483"><ele>345.0</ele><time>2026-04-25T12:34:20.227Z</time></trkpt><trkpt lat="45.6900367" lon="9.91272"><ele>343.0</ele><time>2026-04-25T12:34:21.229Z</time></trkpt><trkpt lat="45.6899667" lon="9.912895"><ele>341.0</ele><time>2026-04-25T12:34:22.229Z</time></trkpt><trkpt lat="45.689905" lon="9.9130667"><ele>339.0</ele><time>2026-04-25T12:34:23.228Z</time></trkpt><trkpt lat="45.6898617" lon="9.913235"><ele>339.0</ele><time>2026-04-25T12:34:24.228Z</time></trkpt><trkpt lat="45.6898433" lon="9.9134033"><ele>339.0</ele><time>2026-04-25T12:34:25.228Z</time></trkpt><trkpt lat="45.6898433" lon="9.9135683"><ele>339.0</ele><time>2026-04-25T12:34:26.229Z</time></trkpt><trkpt lat="45.689865" lon="9.9137317"><ele>339.0</ele><time>2026-04-25T12:34:27.229Z</time></trkpt><trkpt lat="45.6898983" lon="9.9139033"><ele>338.25</ele><time>2026-04-25T12:34:28.227Z</time></trkpt><trkpt lat="45.68994" lon="9.9140817"><ele>337.5</ele><time>2026-04-25T12:34:29.227Z</time></trkpt><trkpt lat="45.6899783" lon="9.9142617"><ele>336.75</ele><time>2026-04-25T12:34:30.23Z</time></trkpt><trkpt lat="45.6900067" lon="9.9144417"><ele>336.0</ele><time>2026-04-25T12:34:31.227Z</time></trkpt><trkpt lat="45.6900217" lon="9.9146183"><ele>336.0</ele><time>2026-04-25T12:34:32.229Z</time></trkpt><trkpt lat="45.6900267" lon="9.9148033"><ele>336.0</ele><time>2026-04-25T12:34:33.229Z</time></trkpt><trkpt lat="45.6900317" lon="9.915"><ele>336.0</ele><time>2026-04-25T12:34:34.227Z</time></trkpt><trkpt lat="45.6900383" lon="9.9152017"><ele>336.0</ele><time>2026-04-25T12:34:35.227Z</time></trkpt><trkpt lat="45.6900433" lon="9.9153933"><ele>335.20000000000005</ele><time>2026-04-25T12:34:36.227Z</time></trkpt><trkpt lat="45.6900483" lon="9.9155733"><ele>334.40000000000003</ele><time>2026-04-25T12:34:37.229Z</time></trkpt><trkpt lat="45.6900517" lon="9.9157383"><ele>333.6</ele><time>2026-04-25T12:34:38.229Z</time></trkpt><trkpt lat="45.6900533" lon="9.9158833"><ele>332.8</ele><time>2026-04-25T12:34:39.229Z</time></trkpt><trkpt lat="45.69005" lon="9.9160117"><ele>332.0</ele><time>2026-04-25T12:34:40.228Z</time></trkpt><trkpt lat="45.690035" lon="9.9161167"><ele>331.0</ele><time>2026-04-25T12:34:41.229Z</time></trkpt><trkpt lat="45.6900017" lon="9.9161983"><ele>330.0</ele><time>2026-04-25T12:34:42.228Z</time></trkpt><trkpt lat="45.689945" lon="9.9162567"><ele>329.0</ele><time>2026-04-25T12:34:43.23Z</time></trkpt><trkpt lat="45.6898683" lon="9.9163"><ele>328.0</ele><time>2026-04-25T12:34:44.227Z</time></trkpt><trkpt lat="45.6897783" lon="9.9163417"><ele>327.0</ele><time>2026-04-25T12:34:45.228Z</time></trkpt><trkpt lat="45.6896817" lon="9.9163817"><ele>326.0</ele><time>2026-04-25T12:34:46.228Z</time></trkpt><trkpt lat="45.6895667" lon="9.9164233"><ele>326.0</ele><time>2026-04-25T12:34:47.228Z</time></trkpt><trkpt lat="45.68944" lon="9.916465"><ele>326.0</ele><time>2026-04-25T12:34:48.23Z</time></trkpt><trkpt lat="45.689305" lon="9.91651"><ele>326.0</ele><time>2026-04-25T12:34:49.231Z</time></trkpt><trkpt lat="45.6891583" lon="9.916565"><ele>326.0</ele><time>2026-04-25T12:34:50.23Z</time></trkpt><trkpt lat="45.689005" lon="9.91662"><ele>323.6666666666667</ele><time>2026-04-25T12:34:51.23Z</time></trkpt><trkpt lat="45.6888483" lon="9.91668"><ele>321.3333333333333</ele><time>2026-04-25T12:34:52.231Z</time></trkpt><trkpt lat="45.688695" lon="9.91673"><ele>319.0</ele><time>2026-04-25T12:34:53.23Z</time></trkpt><trkpt lat="45.6885367" lon="9.9167817"><ele>312.0</ele><time>2026-04-25T12:34:54.231Z</time></trkpt><trkpt lat="45.6883767" lon="9.9168317"><ele>305.0</ele><time>2026-04-25T12:34:55.228Z</time></trkpt><trkpt lat="45.688215" lon="9.916885"><ele>298.0</ele><time>2026-04-25T12:34:56.229Z</time></trkpt><trkpt lat="45.6880633" lon="9.9169383"><ele>298.0</ele><time>2026-04-25T12:34:57.228Z</time></trkpt><trkpt lat="45.6879317" lon="9.91699"><ele>298.0</ele><time>2026-04-25T12:34:58.228Z</time></trkpt><trkpt lat="45.68782" lon="9.9170383"><ele>298.0</ele><time>2026-04-25T12:34:59.228Z</time></trkpt><trkpt lat="45.6877217" lon="9.917095"><ele>298.0</ele><time>2026-04-25T12:35:00.229Z</time></trkpt><trkpt lat="45.687635" lon="9.917175"><ele>295.8</ele><time>2026-04-25T12:35:01.231Z</time></trkpt><trkpt lat="45.6875767" lon="9.91729"><ele>293.6</ele><time>2026-04-25T12:35:02.228Z</time></trkpt><trkpt lat="45.6875467" lon="9.917415"><ele>291.4</ele><time>2026-04-25T12:35:03.23Z</time></trkpt><trkpt lat="45.6875433" lon="9.9175433"><ele>289.2</ele><time>2026-04-25T12:35:04.229Z</time></trkpt><trkpt lat="45.6875633" lon="9.9176617"><ele>287.0</ele><time>2026-04-25T12:35:05.229Z</time></trkpt><trkpt lat="45.6876183" lon="9.9177567"><ele>284.75</ele><time>2026-04-25T12:35:06.229Z</time></trkpt><trkpt lat="45.6876967" lon="9.9178183"><ele>282.5</ele><time>2026-04-25T12:35:07.23Z</time></trkpt><trkpt lat="45.6878017" lon="9.9178567"><ele>280.25</ele><time>2026-04-25T12:35:08.23Z</time></trkpt><trkpt lat="45.6879333" lon="9.9178783"><ele>278.0</ele><time>2026-04-25T12:35:09.231Z</time></trkpt><trkpt lat="45.68808" lon="9.9178967"><ele>277.6666666666667</ele><time>2026-04-25T12:35:10.228Z</time></trkpt><trkpt lat="45.688235" lon="9.9179133"><ele>277.3333333333333</ele><time>2026-04-25T12:35:11.229Z</time></trkpt><trkpt lat="45.6883933" lon="9.9179267"><ele>277.0</ele><time>2026-04-25T12:35:12.228Z</time></trkpt><trkpt lat="45.6885467" lon="9.91794"><ele>277.75</ele><time>2026-04-25T12:35:13.228Z</time></trkpt><trkpt lat="45.6886933" lon="9.9179367"><ele>278.5</ele><time>2026-04-25T12:35:14.227Z</time></trkpt><trkpt lat="45.688825" lon="9.917905"><ele>279.25</ele><time>2026-04-25T12:35:15.23Z</time></trkpt><trkpt lat="45.68894" lon="9.917845"><ele>280.0</ele><time>2026-04-25T12:35:16.227Z</time></trkpt><trkpt lat="45.6890283" lon="9.91777"><ele>280.0</ele><time>2026-04-25T12:35:17.228Z</time></trkpt><trkpt lat="45.6890967" lon="9.9177017"><ele>280.0</ele><time>2026-04-25T12:35:18.229Z</time></trkpt><trkpt lat="45.6891633" lon="9.91766"><ele>280.0</ele><time>2026-04-25T12:35:19.229Z</time></trkpt><trkpt lat="45.6892467" lon="9.9176833"><ele>280.0</ele><time>2026-04-25T12:35:21.23Z</time></trkpt><trkpt lat="45.6892367" lon="9.91781"><ele>280.0</ele><time>2026-04-25T12:35:23.23Z</time></trkpt><trkpt lat="45.6892033" lon="9.9178867"><ele>280.0</ele><time>2026-04-25T12:35:24.229Z</time></trkpt><trkpt lat="45.6891383" lon="9.9179717"><ele>280.0</ele><time>2026-04-25T12:35:25.228Z</time></trkpt><trkpt lat="45.6890383" lon="9.91806"><ele>280.0</ele><time>2026-04-25T12:35:26.229Z</time></trkpt><trkpt lat="45.6888967" lon="9.918145"><ele>280.0</ele><time>2026-04-25T12:35:27.228Z</time></trkpt><trkpt lat="45.6887583" lon="9.91822"><ele>280.0</ele><time>2026-04-25T12:35:28.228Z</time></trkpt><trkpt lat="45.688625" lon="9.9182767"><ele>279.25</ele><time>2026-04-25T12:35:29.23Z</time></trkpt><trkpt lat="45.6884933" lon="9.91832"><ele>278.5</ele><time>2026-04-25T12:35:30.229Z</time></trkpt><trkpt lat="45.6883667" lon="9.9183533"><ele>277.75</ele><time>2026-04-25T12:35:31.228Z</time></trkpt><trkpt lat="45.68824" lon="9.9183817"><ele>277.0</ele><time>2026-04-25T12:35:32.228Z</time></trkpt><trkpt lat="45.6881167" lon="9.918405"><ele>273.4</ele><time>2026-04-25T12:35:33.229Z</time></trkpt><trkpt lat="45.6879983" lon="9.91842"><ele>269.79999999999995</ele><time>2026-04-25T12:35:34.228Z</time></trkpt><trkpt lat="45.6878967" lon="9.918435"><ele>266.2</ele><time>2026-04-25T12:35:35.23Z</time></trkpt><trkpt lat="45.6878167" lon="9.9184567"><ele>262.59999999999997</ele><time>2026-04-25T12:35:36.228Z</time></trkpt><trkpt lat="45.6877317" lon="9.9185633"><ele>259.0</ele><time>2026-04-25T12:35:38.228Z</time></trkpt><trkpt lat="45.687795" lon="9.9187"><ele>259.0</ele><time>2026-04-25T12:35:40.228Z</time></trkpt><trkpt lat="45.6878667" lon="9.918725"><ele>259.0</ele><time>2026-04-25T12:35:41.229Z</time></trkpt><trkpt lat="45.687945" lon="9.9187217"><ele>259.0</ele><time>2026-04-25T12:35:42.229Z</time></trkpt><trkpt lat="45.688035" lon="9.9187083"><ele>259.0</ele><time>2026-04-25T12:35:43.228Z</time></trkpt><trkpt lat="45.6881433" lon="9.9186967"><ele>259.0</ele><time>2026-04-25T12:35:44.228Z</time></trkpt><trkpt lat="45.6882533" lon="9.9186833"><ele>259.0</ele><time>2026-04-25T12:35:45.228Z</time></trkpt><trkpt lat="45.68837" lon="9.9186767"><ele>259.0</ele><time>2026-04-25T12:35:46.229Z</time></trkpt><trkpt lat="45.6884867" lon="9.9186683"><ele>259.0</ele><time>2026-04-25T12:35:47.228Z</time></trkpt><trkpt lat="45.688595" lon="9.9186517"><ele>259.0</ele><time>2026-04-25T12:35:48.23Z</time></trkpt><trkpt lat="45.68869" lon="9.9186383"><ele>259.0</ele><time>2026-04-25T12:35:49.231Z</time></trkpt><trkpt lat="45.68877" lon="9.9186283"><ele>259.5</ele><time>2026-04-25T12:35:50.229Z</time></trkpt><trkpt lat="45.688835" lon="9.9186217"><ele>260.0</ele><time>2026-04-25T12:35:51.23Z</time></trkpt><trkpt lat="45.6889317" lon="9.9186683"><ele>260.5</ele><time>2026-04-25T12:35:53.23Z</time></trkpt><trkpt lat="45.6889267" lon="9.9187883"><ele>261.0</ele><time>2026-04-25T12:35:55.232Z</time></trkpt><trkpt lat="45.6888233" lon="9.9188567"><ele>261.5</ele><time>2026-04-25T12:35:57.229Z</time></trkpt><trkpt lat="45.6887583" lon="9.918865"><ele>262.0</ele><time>2026-04-25T12:35:58.228Z</time></trkpt><trkpt lat="45.68868" lon="9.9188717"><ele>262.0</ele><time>2026-04-25T12:35:59.23Z</time></trkpt><trkpt lat="45.6885983" lon="9.91888"><ele>262.0</ele><time>2026-04-25T12:36:00.228Z</time></trkpt><trkpt lat="45.6885067" lon="9.9188933"><ele>262.0</ele><time>2026-04-25T12:36:01.23Z</time></trkpt><trkpt lat="45.6884133" lon="9.91891"><ele>262.0</ele><time>2026-04-25T12:36:02.229Z</time></trkpt><trkpt lat="45.688315" lon="9.9189333"><ele>262.0</ele><time>2026-04-25T12:36:03.23Z</time></trkpt><trkpt lat="45.6882117" lon="9.9189583"><ele>261.5</ele><time>2026-04-25T12:36:04.23Z</time></trkpt><trkpt lat="45.68811" lon="9.9189867"><ele>261.0</ele><time>2026-04-25T12:36:05.23Z</time></trkpt><trkpt lat="45.688015" lon="9.91902"><ele>260.5</ele><time>2026-04-25T12:36:06.23Z</time></trkpt><trkpt lat="45.6879283" lon="9.9190567"><ele>260.0</ele><time>2026-04-25T12:36:07.23Z</time></trkpt><trkpt lat="45.6878533" lon="9.919095"><ele>259.5</ele><time>2026-04-25T12:36:08.23Z</time></trkpt><trkpt lat="45.6877917" lon="9.9191417"><ele>259.0</ele><time>2026-04-25T12:36:09.23Z</time></trkpt><trkpt lat="45.68774" lon="9.919195"><ele>259.0</ele><time>2026-04-25T12:36:10.233Z</time></trkpt><trkpt lat="45.6876783" lon="9.9193033"><ele>259.0</ele><time>2026-04-25T12:36:12.229Z</time></trkpt><trkpt lat="45.6876533" lon="9.9193883"><ele>259.0</ele><time>2026-04-25T12:36:14.229Z</time></trkpt><trkpt lat="45.6876067" lon="9.9194583"><ele>259.0</ele><time>2026-04-25T12:36:16.228Z</time></trkpt><trkpt lat="45.687495" lon="9.91949"><ele>259.0</ele><time>2026-04-25T12:36:18.229Z</time></trkpt><trkpt lat="45.6873717" lon="9.919495"><ele>259.0</ele><time>2026-04-25T12:36:19.229Z</time></trkpt><trkpt lat="45.687245" lon="9.9195"><ele>259.0</ele><time>2026-04-25T12:36:20.231Z</time></trkpt><trkpt lat="45.6871067" lon="9.9194967"><ele>259.0</ele><time>2026-04-25T12:36:21.23Z</time></trkpt><trkpt lat="45.6869617" lon="9.919465"><ele>259.0</ele><time>2026-04-25T12:36:22.231Z</time></trkpt><trkpt lat="45.6868067" lon="9.91941"><ele>259.0</ele><time>2026-04-25T12:36:23.229Z</time></trkpt><trkpt lat="45.6866417" lon="9.9193367"><ele>259.0</ele><time>2026-04-25T12:36:24.229Z</time></trkpt><trkpt lat="45.6864717" lon="9.9192567"><ele>259.0</ele><time>2026-04-25T12:36:25.229Z</time></trkpt><trkpt lat="45.6863067" lon="9.9191783"><ele>259.0</ele><time>2026-04-25T12:36:26.228Z</time></trkpt><trkpt lat="45.68615" lon="9.9191183"><ele>259.0</ele><time>2026-04-25T12:36:27.229Z</time></trkpt><trkpt lat="45.6860033" lon="9.9190817"><ele>259.0</ele><time>2026-04-25T12:36:28.231Z</time></trkpt><trkpt lat="45.6858667" lon="9.91907"><ele>259.0</ele><time>2026-04-25T12:36:29.228Z</time></trkpt><trkpt lat="45.685735" lon="9.9190917"><ele>258.66666666666663</ele><time>2026-04-25T12:36:30.229Z</time></trkpt><trkpt lat="45.6856033" lon="9.9191517"><ele>258.3333333333333</ele><time>2026-04-25T12:36:31.23Z</time></trkpt><trkpt lat="45.685465" lon="9.9192383"><ele>258.0</ele><time>2026-04-25T12:36:32.228Z</time></trkpt><trkpt lat="45.6853167" lon="9.9193367"><ele>260.6666666666667</ele><time>2026-04-25T12:36:33.229Z</time></trkpt><trkpt lat="45.6851583" lon="9.919445"><ele>263.33333333333337</ele><time>2026-04-25T12:36:34.228Z</time></trkpt><trkpt lat="45.685" lon="9.9195567"><ele>266.0</ele><time>2026-04-25T12:36:35.229Z</time></trkpt><trkpt lat="45.68484" lon="9.9196617"><ele>266.0</ele><time>2026-04-25T12:36:36.23Z</time></trkpt><trkpt lat="45.6846833" lon="9.9197667"><ele>266.0</ele><time>2026-04-25T12:36:37.23Z</time></trkpt><trkpt lat="45.6845267" lon="9.91987"><ele>266.0</ele><time>2026-04-25T12:36:38.23Z</time></trkpt><trkpt lat="45.6843717" lon="9.91996"><ele>267.6666666666667</ele><time>2026-04-25T12:36:39.23Z</time></trkpt><trkpt lat="45.6842183" lon="9.9200283"><ele>269.3333333333333</ele><time>2026-04-25T12:36:40.228Z</time></trkpt><trkpt lat="45.6840533" lon="9.92008"><ele>271.0</ele><time>2026-04-25T12:36:41.23Z</time></trkpt><trkpt lat="45.6838833" lon="9.9201133"><ele>271.0</ele><time>2026-04-25T12:36:42.23Z</time></trkpt><trkpt lat="45.6837117" lon="9.920125"><ele>271.0</ele><time>2026-04-25T12:36:43.231Z</time></trkpt><trkpt lat="45.683545" lon="9.9201183"><ele>271.0</ele><time>2026-04-25T12:36:44.231Z</time></trkpt><trkpt lat="45.6833767" lon="9.920095"><ele>267.0</ele><time>2026-04-25T12:36:45.227Z</time></trkpt><trkpt lat="45.68321" lon="9.920075"><ele>263.0</ele><time>2026-04-25T12:36:46.228Z</time></trkpt><trkpt lat="45.6830467" lon="9.9200583"><ele>259.0</ele><time>2026-04-25T12:36:47.227Z</time></trkpt><trkpt lat="45.6828933" lon="9.9200633"><ele>257.3333333333333</ele><time>2026-04-25T12:36:48.228Z</time></trkpt><trkpt lat="45.682745" lon="9.9200983"><ele>255.66666666666669</ele><time>2026-04-25T12:36:49.229Z</time></trkpt><trkpt lat="45.6825983" lon="9.9201583"><ele>254.0</ele><time>2026-04-25T12:36:50.229Z</time></trkpt><trkpt lat="45.6824533" lon="9.92023"><ele>254.0</ele><time>2026-04-25T12:36:51.232Z</time></trkpt><trkpt lat="45.68231" lon="9.9203133"><ele>254.0</ele><time>2026-04-25T12:36:52.229Z</time></trkpt><trkpt lat="45.682175" lon="9.9204183"><ele>254.0</ele><time>2026-04-25T12:36:53.23Z</time></trkpt><trkpt lat="45.6820467" lon="9.92055"><ele>253.33333333333334</ele><time>2026-04-25T12:36:54.229Z</time></trkpt><trkpt lat="45.6819233" lon="9.9207033"><ele>252.66666666666669</ele><time>2026-04-25T12:36:55.228Z</time></trkpt><trkpt lat="45.6818" lon="9.9208617"><ele>252.0</ele><time>2026-04-25T12:36:56.227Z</time></trkpt><trkpt lat="45.6816683" lon="9.9210333"><ele>252.0</ele><time>2026-04-25T12:36:57.227Z</time></trkpt><trkpt lat="45.68154" lon="9.9212133"><ele>252.0</ele><time>2026-04-25T12:36:58.227Z</time></trkpt><trkpt lat="45.681415" lon="9.9213933"><ele>252.0</ele><time>2026-04-25T12:36:59.227Z</time></trkpt><trkpt lat="45.68129" lon="9.921565"><ele>252.0</ele><time>2026-04-25T12:37:00.228Z</time></trkpt><trkpt lat="45.6811667" lon="9.9217283"><ele>252.0</ele><time>2026-04-25T12:37:01.229Z</time></trkpt><trkpt lat="45.6810383" lon="9.9218883"><ele>252.0</ele><time>2026-04-25T12:37:02.228Z</time></trkpt><trkpt lat="45.6809033" lon="9.9220233"><ele>250.66666666666669</ele><time>2026-04-25T12:37:03.229Z</time></trkpt><trkpt lat="45.6807617" lon="9.92214"><ele>249.33333333333334</ele><time>2026-04-25T12:37:04.227Z</time></trkpt><trkpt lat="45.680615" lon="9.922245"><ele>248.0</ele><time>2026-04-25T12:37:05.229Z</time></trkpt><trkpt lat="45.680465" lon="9.9223517"><ele>248.0</ele><time>2026-04-25T12:37:06.227Z</time></trkpt><trkpt lat="45.68031" lon="9.92246"><ele>248.0</ele><time>2026-04-25T12:37:07.227Z</time></trkpt><trkpt lat="45.6801533" lon="9.9225733"><ele>248.0</ele><time>2026-04-25T12:37:08.228Z</time></trkpt><trkpt lat="45.6799867" lon="9.9226867"><ele>248.66666666666669</ele><time>2026-04-25T12:37:09.227Z</time></trkpt><trkpt lat="45.6798167" lon="9.9228"><ele>249.33333333333331</ele><time>2026-04-25T12:37:10.229Z</time></trkpt><trkpt lat="45.6796433" lon="9.922915"><ele>250.0</ele><time>2026-04-25T12:37:11.229Z</time></trkpt><trkpt lat="45.6794717" lon="9.9230283"><ele>249.0</ele><time>2026-04-25T12:37:12.228Z</time></trkpt><trkpt lat="45.6793083" lon="9.9231417"><ele>248.0</ele><time>2026-04-25T12:37:13.228Z</time></trkpt><trkpt lat="45.6791533" lon="9.9232483"><ele>247.0</ele><time>2026-04-25T12:37:14.228Z</time></trkpt><trkpt lat="45.6790083" lon="9.9233467"><ele>247.66666666666666</ele><time>2026-04-25T12:37:15.228Z</time></trkpt><trkpt lat="45.67887" lon="9.9234417"><ele>248.33333333333331</ele><time>2026-04-25T12:37:16.228Z</time></trkpt><trkpt lat="45.6787333" lon="9.9235317"><ele>249.0</ele><time>2026-04-25T12:37:17.227Z</time></trkpt><trkpt lat="45.678595" lon="9.9236233"><ele>249.0</ele><time>2026-04-25T12:37:18.227Z</time></trkpt><trkpt lat="45.6784567" lon="9.9237167"><ele>249.0</ele><time>2026-04-25T12:37:19.228Z</time></trkpt><trkpt lat="45.6783183" lon="9.92381"><ele>249.0</ele><time>2026-04-25T12:37:20.228Z</time></trkpt><trkpt lat="45.6781783" lon="9.9239017"><ele>249.0</ele><time>2026-04-25T12:37:21.228Z</time></trkpt><trkpt lat="45.6780433" lon="9.92399"><ele>249.0</ele><time>2026-04-25T12:37:22.228Z</time></trkpt><trkpt lat="45.677915" lon="9.9240717"><ele>249.0</ele><time>2026-04-25T12:37:23.228Z</time></trkpt><trkpt lat="45.6777967" lon="9.9241517"><ele>249.0</ele><time>2026-04-25T12:37:24.229Z</time></trkpt><trkpt lat="45.6776833" lon="9.92423"><ele>249.75</ele><time>2026-04-25T12:37:25.229Z</time></trkpt><trkpt lat="45.6775667" lon="9.9243083"><ele>250.5</ele><time>2026-04-25T12:37:26.227Z</time></trkpt><trkpt lat="45.67745" lon="9.924385"><ele>251.25</ele><time>2026-04-25T12:37:27.23Z</time></trkpt><trkpt lat="45.6773267" lon="9.924465"><ele>252.0</ele><time>2026-04-25T12:37:28.228Z</time></trkpt><trkpt lat="45.6772017" lon="9.92455"><ele>252.0</ele><time>2026-04-25T12:37:29.228Z</time></trkpt><trkpt lat="45.6770733" lon="9.9246383"><ele>252.0</ele><time>2026-04-25T12:37:30.228Z</time></trkpt><trkpt lat="45.676945" lon="9.9247283"><ele>252.0</ele><time>2026-04-25T12:37:31.228Z</time></trkpt><trkpt lat="45.676815" lon="9.9248183"><ele>252.0</ele><time>2026-04-25T12:37:32.228Z</time></trkpt><trkpt lat="45.67668" lon="9.9249083"><ele>253.25</ele><time>2026-04-25T12:37:33.23Z</time></trkpt><trkpt lat="45.6765417" lon="9.9249933"><ele>254.5</ele><time>2026-04-25T12:37:34.227Z</time></trkpt><trkpt lat="45.6764033" lon="9.92508"><ele>255.75</ele><time>2026-04-25T12:37:35.227Z</time></trkpt><trkpt lat="45.67628" lon="9.92517"><ele>257.0</ele><time>2026-04-25T12:37:36.227Z</time></trkpt><trkpt lat="45.676155" lon="9.925265"><ele>259.0</ele><time>2026-04-25T12:37:37.228Z</time></trkpt><trkpt lat="45.6760283" lon="9.92536"><ele>261.0</ele><time>2026-04-25T12:37:38.228Z</time></trkpt><trkpt lat="45.6759033" lon="9.925455"><ele>263.0</ele><time>2026-04-25T12:37:39.23Z</time></trkpt><trkpt lat="45.67578" lon="9.9255483"><ele>265.0</ele><time>2026-04-25T12:37:40.228Z</time></trkpt><trkpt lat="45.675655" lon="9.9256433"><ele>265.0</ele><time>2026-04-25T12:37:41.229Z</time></trkpt><trkpt lat="45.6755283" lon="9.9257433"><ele>265.0</ele><time>2026-04-25T12:37:42.228Z</time></trkpt><trkpt lat="45.6753983" lon="9.92585"><ele>265.0</ele><time>2026-04-25T12:37:43.227Z</time></trkpt><trkpt lat="45.6752733" lon="9.925955"><ele>265.0</ele><time>2026-04-25T12:37:44.228Z</time></trkpt><trkpt lat="45.6751467" lon="9.92605"><ele>263.75</ele><time>2026-04-25T12:37:45.228Z</time></trkpt><trkpt lat="45.6750183" lon="9.92613"><ele>262.5</ele><time>2026-04-25T12:37:46.227Z</time></trkpt><trkpt lat="45.6748833" lon="9.926185"><ele>261.25</ele><time>2026-04-25T12:37:47.227Z</time></trkpt><trkpt lat="45.6747383" lon="9.9262233"><ele>260.0</ele><time>2026-04-25T12:37:48.228Z</time></trkpt><trkpt lat="45.6745933" lon="9.92626"><ele>260.0</ele><time>2026-04-25T12:37:49.23Z</time></trkpt><trkpt lat="45.6744533" lon="9.9262867"><ele>260.0</ele><time>2026-04-25T12:37:50.23Z</time></trkpt><trkpt lat="45.6743183" lon="9.926315"><ele>260.0</ele><time>2026-04-25T12:37:51.23Z</time></trkpt><trkpt lat="45.6741817" lon="9.92634"><ele>260.0</ele><time>2026-04-25T12:37:52.229Z</time></trkpt><trkpt lat="45.6740517" lon="9.9263583"><ele>259.25</ele><time>2026-04-25T12:37:53.227Z</time></trkpt><trkpt lat="45.6739283" lon="9.9263767"><ele>258.5</ele><time>2026-04-25T12:37:54.23Z</time></trkpt><trkpt lat="45.67381" lon="9.9264"><ele>257.75</ele><time>2026-04-25T12:37:55.228Z</time></trkpt><trkpt lat="45.6736917" lon="9.926435"><ele>257.0</ele><time>2026-04-25T12:37:56.227Z</time></trkpt><trkpt lat="45.6735833" lon="9.9265"><ele>255.6</ele><time>2026-04-25T12:37:57.228Z</time></trkpt><trkpt lat="45.6734917" lon="9.926595"><ele>254.2</ele><time>2026-04-25T12:37:58.228Z</time></trkpt><trkpt lat="45.6734267" lon="9.926715"><ele>252.8</ele><time>2026-04-25T12:37:59.228Z</time></trkpt><trkpt lat="45.673375" lon="9.9268517"><ele>251.4</ele><time>2026-04-25T12:38:00.229Z</time></trkpt><trkpt lat="45.6733417" lon="9.9270017"><ele>250.0</ele><time>2026-04-25T12:38:01.227Z</time></trkpt><trkpt lat="45.6733317" lon="9.9271617"><ele>249.25</ele><time>2026-04-25T12:38:02.229Z</time></trkpt><trkpt lat="45.6733467" lon="9.9273317"><ele>248.5</ele><time>2026-04-25T12:38:03.23Z</time></trkpt><trkpt lat="45.67336" lon="9.9275017"><ele>247.75</ele><time>2026-04-25T12:38:04.228Z</time></trkpt><trkpt lat="45.6733617" lon="9.9276667"><ele>247.0</ele><time>2026-04-25T12:38:05.228Z</time></trkpt><trkpt lat="45.6733383" lon="9.927815"><ele>246.6</ele><time>2026-04-25T12:38:06.227Z</time></trkpt><trkpt lat="45.6732917" lon="9.927945"><ele>246.2</ele><time>2026-04-25T12:38:07.228Z</time></trkpt><trkpt lat="45.6732283" lon="9.9280433"><ele>245.8</ele><time>2026-04-25T12:38:08.229Z</time></trkpt><trkpt lat="45.673145" lon="9.9281183"><ele>245.4</ele><time>2026-04-25T12:38:09.23Z</time></trkpt><trkpt lat="45.6730517" lon="9.9281767"><ele>245.0</ele><time>2026-04-25T12:38:10.23Z</time></trkpt><trkpt lat="45.6729483" lon="9.9282383"><ele>245.0</ele><time>2026-04-25T12:38:11.228Z</time></trkpt><trkpt lat="45.6728467" lon="9.9282933"><ele>245.0</ele><time>2026-04-25T12:38:12.232Z</time></trkpt><trkpt lat="45.6727483" lon="9.9283467"><ele>245.0</ele><time>2026-04-25T12:38:13.23Z</time></trkpt><trkpt lat="45.67266" lon="9.9283917"><ele>245.0</ele><time>2026-04-25T12:38:14.229Z</time></trkpt><trkpt lat="45.6725683" lon="9.9284333"><ele>245.0</ele><time>2026-04-25T12:38:15.23Z</time></trkpt><trkpt lat="45.672475" lon="9.928475"><ele>243.6</ele><time>2026-04-25T12:38:16.228Z</time></trkpt><trkpt lat="45.6723917" lon="9.9285217"><ele>242.2</ele><time>2026-04-25T12:38:17.229Z</time></trkpt><trkpt lat="45.6723133" lon="9.9285817"><ele>240.8</ele><time>2026-04-25T12:38:18.227Z</time></trkpt><trkpt lat="45.6722367" lon="9.92865"><ele>239.4</ele><time>2026-04-25T12:38:19.228Z</time></trkpt><trkpt lat="45.6721617" lon="9.9287317"><ele>238.0</ele><time>2026-04-25T12:38:20.23Z</time></trkpt><trkpt lat="45.6720817" lon="9.9288117"><ele>238.0</ele><time>2026-04-25T12:38:21.23Z</time></trkpt><trkpt lat="45.6719867" lon="9.9288933"><ele>238.0</ele><time>2026-04-25T12:38:22.235Z</time></trkpt><trkpt lat="45.67189" lon="9.928985"><ele>238.0</ele><time>2026-04-25T12:38:23.232Z</time></trkpt><trkpt lat="45.6717833" lon="9.92908"><ele>238.0</ele><time>2026-04-25T12:38:24.23Z</time></trkpt><trkpt lat="45.6716767" lon="9.9291733"><ele>236.75</ele><time>2026-04-25T12:38:25.231Z</time></trkpt><trkpt lat="45.6715683" lon="9.92926"><ele>235.5</ele><time>2026-04-25T12:38:26.228Z</time></trkpt><trkpt lat="45.6714583" lon="9.92934"><ele>234.25</ele><time>2026-04-25T12:38:27.231Z</time></trkpt><trkpt lat="45.6713467" lon="9.929405"><ele>233.0</ele><time>2026-04-25T12:38:28.227Z</time></trkpt><trkpt lat="45.6712317" lon="9.92946"><ele>233.0</ele><time>2026-04-25T12:38:29.227Z</time></trkpt><trkpt lat="45.6711217" lon="9.9295067"><ele>233.0</ele><time>2026-04-25T12:38:30.228Z</time></trkpt><trkpt lat="45.6710167" lon="9.9295483"><ele>233.0</ele><time>2026-04-25T12:38:31.228Z</time></trkpt><trkpt lat="45.6709133" lon="9.9295917"><ele>233.0</ele><time>2026-04-25T12:38:32.229Z</time></trkpt><trkpt lat="45.67082" lon="9.92963"><ele>233.0</ele><time>2026-04-25T12:38:33.23Z</time></trkpt><trkpt lat="45.6707333" lon="9.92966"><ele>232.4</ele><time>2026-04-25T12:38:34.23Z</time></trkpt><trkpt lat="45.6706617" lon="9.9296867"><ele>231.8</ele><time>2026-04-25T12:38:35.229Z</time></trkpt><trkpt lat="45.6705567" lon="9.9297267"><ele>231.2</ele><time>2026-04-25T12:38:37.229Z</time></trkpt><trkpt lat="45.67049" lon="9.92975"><ele>230.6</ele><time>2026-04-25T12:38:39.231Z</time></trkpt><trkpt lat="45.6704" lon="9.9297817"><ele>230.0</ele><time>2026-04-25T12:38:55.229Z</time></trkpt><trkpt lat="45.6702867" lon="9.9298167"><ele>229.8</ele><time>2026-04-25T12:38:57.227Z</time></trkpt><trkpt lat="45.67016" lon="9.9298417"><ele>229.6</ele><time>2026-04-25T12:38:59.228Z</time></trkpt><trkpt lat="45.6700917" lon="9.929855"><ele>229.39999999999998</ele><time>2026-04-25T12:39:00.228Z</time></trkpt><trkpt lat="45.6700133" lon="9.9298667"><ele>229.2</ele><time>2026-04-25T12:39:01.229Z</time></trkpt><trkpt lat="45.6699217" lon="9.9298733"><ele>229.0</ele><time>2026-04-25T12:39:02.231Z</time></trkpt><trkpt lat="45.6698167" lon="9.9298867"><ele>229.0</ele><time>2026-04-25T12:39:03.231Z</time></trkpt><trkpt lat="45.6696967" lon="9.9299"><ele>229.0</ele><time>2026-04-25T12:39:04.232Z</time></trkpt><trkpt lat="45.6695733" lon="9.9299133"><ele>229.0</ele><time>2026-04-25T12:39:05.232Z</time></trkpt><trkpt lat="45.6694367" lon="9.9299233"><ele>229.0</ele><time>2026-04-25T12:39:06.231Z</time></trkpt><trkpt lat="45.6692967" lon="9.929935"><ele>229.0</ele><time>2026-04-25T12:39:07.23Z</time></trkpt><trkpt lat="45.6691483" lon="9.9299467"><ele>229.0</ele><time>2026-04-25T12:39:08.233Z</time></trkpt><trkpt lat="45.669" lon="9.92996"><ele>229.0</ele><time>2026-04-25T12:39:09.232Z</time></trkpt><trkpt lat="45.6688567" lon="9.9299733"><ele>229.0</ele><time>2026-04-25T12:39:10.229Z</time></trkpt><trkpt lat="45.6687167" lon="9.92998"><ele>228.5</ele><time>2026-04-25T12:39:11.229Z</time></trkpt><trkpt lat="45.668575" lon="9.9299867"><ele>228.0</ele><time>2026-04-25T12:39:12.232Z</time></trkpt><trkpt lat="45.66844" lon="9.9299967"><ele>227.5</ele><time>2026-04-25T12:39:13.228Z</time></trkpt><trkpt lat="45.6683183" lon="9.9300067"><ele>227.0</ele><time>2026-04-25T12:39:14.228Z</time></trkpt><trkpt lat="45.6682117" lon="9.9300183"><ele>227.0</ele><time>2026-04-25T12:39:15.23Z</time></trkpt><trkpt lat="45.6681183" lon="9.9300233"><ele>227.0</ele><time>2026-04-25T12:39:16.229Z</time></trkpt><trkpt lat="45.6680367" lon="9.9300167"><ele>227.0</ele><time>2026-04-25T12:39:17.229Z</time></trkpt><trkpt lat="45.66797" lon="9.9299967"><ele>227.0</ele><time>2026-04-25T12:39:18.23Z</time></trkpt><trkpt lat="45.6678667" lon="9.9299267"><ele>227.0</ele><time>2026-04-25T12:39:20.23Z</time></trkpt><trkpt lat="45.6677633" lon="9.92989"><ele>227.0</ele><time>2026-04-25T12:39:22.23Z</time></trkpt><trkpt lat="45.667635" lon="9.929965"><ele>227.0</ele><time>2026-04-25T12:39:24.233Z</time></trkpt><trkpt lat="45.667555" lon="9.9300183"><ele>227.0</ele><time>2026-04-25T12:39:25.231Z</time></trkpt><trkpt lat="45.6674583" lon="9.930055"><ele>227.0</ele><time>2026-04-25T12:39:26.23Z</time></trkpt><trkpt lat="45.66735" lon="9.930075"><ele>227.0</ele><time>2026-04-25T12:39:27.231Z</time></trkpt><trkpt lat="45.66723" lon="9.930085"><ele>227.0</ele><time>2026-04-25T12:39:28.231Z</time></trkpt><trkpt lat="45.6671083" lon="9.930095"><ele>227.0</ele><time>2026-04-25T12:39:29.229Z</time></trkpt><trkpt lat="45.6669833" lon="9.9301033"><ele>227.0</ele><time>2026-04-25T12:39:30.23Z</time></trkpt><trkpt lat="45.66685" lon="9.9301117"><ele>227.0</ele><time>2026-04-25T12:39:31.231Z</time></trkpt><trkpt lat="45.6667133" lon="9.93012"><ele>227.0</ele><time>2026-04-25T12:39:32.23Z</time></trkpt><trkpt lat="45.6665683" lon="9.9301283"><ele>227.0</ele><time>2026-04-25T12:39:33.233Z</time></trkpt><trkpt lat="45.6664233" lon="9.9301433"><ele>227.0</ele><time>2026-04-25T12:39:34.232Z</time></trkpt><trkpt lat="45.66628" lon="9.9301683"><ele>227.0</ele><time>2026-04-25T12:39:35.229Z</time></trkpt><trkpt lat="45.6661383" lon="9.9302083"><ele>227.5</ele><time>2026-04-25T12:39:36.231Z</time></trkpt><trkpt lat="45.6659983" lon="9.9302617"><ele>228.0</ele><time>2026-04-25T12:39:37.23Z</time></trkpt><trkpt lat="45.665865" lon="9.930335"><ele>228.5</ele><time>2026-04-25T12:39:38.231Z</time></trkpt><trkpt lat="45.66575" lon="9.9304267"><ele>229.0</ele><time>2026-04-25T12:39:39.23Z</time></trkpt><trkpt lat="45.6656383" lon="9.9305267"><ele>229.0</ele><time>2026-04-25T12:39:40.23Z</time></trkpt><trkpt lat="45.66553" lon="9.9306267"><ele>228.99999999999997</ele><time>2026-04-25T12:39:41.231Z</time></trkpt><trkpt lat="45.6654317" lon="9.93072"><ele>228.99999999999997</ele><time>2026-04-25T12:39:42.23Z</time></trkpt><trkpt lat="45.6653483" lon="9.9308"><ele>229.0</ele><time>2026-04-25T12:39:43.232Z</time></trkpt><trkpt lat="45.66528" lon="9.9308683"><ele>229.0</ele><time>2026-04-25T12:39:44.231Z</time></trkpt><trkpt lat="45.6652217" lon="9.9309233"><ele>229.2</ele><time>2026-04-25T12:39:45.231Z</time></trkpt><trkpt lat="45.66513" lon="9.9309817"><ele>229.39999999999998</ele><time>2026-04-25T12:39:47.232Z</time></trkpt><trkpt lat="45.6650333" lon="9.9310033"><ele>229.6</ele><time>2026-04-25T12:39:49.229Z</time></trkpt><trkpt lat="45.6649017" lon="9.9310183"><ele>229.8</ele><time>2026-04-25T12:39:51.23Z</time></trkpt><trkpt lat="45.66483" lon="9.9310417"><ele>230.0</ele><time>2026-04-25T12:39:52.23Z</time></trkpt><trkpt lat="45.6647517" lon="9.9310667"><ele>230.0</ele><time>2026-04-25T12:39:53.23Z</time></trkpt><trkpt lat="45.6646683" lon="9.9310833"><ele>230.0</ele><time>2026-04-25T12:39:54.23Z</time></trkpt><trkpt lat="45.66458" lon="9.9310783"><ele>230.0</ele><time>2026-04-25T12:39:55.23Z</time></trkpt><trkpt lat="45.6644817" lon="9.9310517"><ele>230.0</ele><time>2026-04-25T12:39:56.231Z</time></trkpt><trkpt lat="45.6643717" lon="9.931005"><ele>230.0</ele><time>2026-04-25T12:39:57.231Z</time></trkpt><trkpt lat="45.66426" lon="9.9309583"><ele>230.0</ele><time>2026-04-25T12:39:58.229Z</time></trkpt><trkpt lat="45.66415" lon="9.9309183"><ele>230.0</ele><time>2026-04-25T12:39:59.23Z</time></trkpt><trkpt lat="45.6640417" lon="9.93088"><ele>230.0</ele><time>2026-04-25T12:40:00.231Z</time></trkpt><trkpt lat="45.6639267" lon="9.9308383"><ele>230.0</ele><time>2026-04-25T12:40:01.229Z</time></trkpt><trkpt lat="45.66381" lon="9.93079"><ele>230.0</ele><time>2026-04-25T12:40:02.231Z</time></trkpt><trkpt lat="45.6636983" lon="9.93074"><ele>230.0</ele><time>2026-04-25T12:40:03.232Z</time></trkpt><trkpt lat="45.6635933" lon="9.93068"><ele>230.0</ele><time>2026-04-25T12:40:04.229Z</time></trkpt><trkpt lat="45.6634967" lon="9.9306133"><ele>230.0</ele><time>2026-04-25T12:40:05.23Z</time></trkpt><trkpt lat="45.6634083" lon="9.9305483"><ele>230.0</ele><time>2026-04-25T12:40:06.229Z</time></trkpt><trkpt lat="45.6633217" lon="9.9304717"><ele>232.2</ele><time>2026-04-25T12:40:07.23Z</time></trkpt><trkpt lat="45.6632383" lon="9.9303983"><ele>234.4</ele><time>2026-04-25T12:40:08.23Z</time></trkpt><trkpt lat="45.6631567" lon="9.9303167"><ele>236.60000000000002</ele><time>2026-04-25T12:40:09.23Z</time></trkpt><trkpt lat="45.6630733" lon="9.930235"><ele>238.8</ele><time>2026-04-25T12:40:10.229Z</time></trkpt><trkpt lat="45.66299" lon="9.930155"><ele>241.0</ele><time>2026-04-25T12:40:11.228Z</time></trkpt><trkpt lat="45.6628983" lon="9.930065"><ele>240.0</ele><time>2026-04-25T12:40:12.229Z</time></trkpt><trkpt lat="45.6628083" lon="9.9299733"><ele>239.00000000000003</ele><time>2026-04-25T12:40:13.229Z</time></trkpt><trkpt lat="45.662715" lon="9.929875"><ele>238.00000000000003</ele><time>2026-04-25T12:40:14.232Z</time></trkpt><trkpt lat="45.662625" lon="9.9297817"><ele>237.0</ele><time>2026-04-25T12:40:15.231Z</time></trkpt><trkpt lat="45.6625367" lon="9.929695"><ele>236.0</ele><time>2026-04-25T12:40:16.229Z</time></trkpt><trkpt lat="45.662455" lon="9.9296067"><ele>236.0</ele><time>2026-04-25T12:40:17.23Z</time></trkpt><trkpt lat="45.662375" lon="9.9295167"><ele>236.00000000000003</ele><time>2026-04-25T12:40:18.229Z</time></trkpt><trkpt lat="45.6623017" lon="9.92943"><ele>236.00000000000003</ele><time>2026-04-25T12:40:19.229Z</time></trkpt><trkpt lat="45.6622333" lon="9.9293433"><ele>236.0</ele><time>2026-04-25T12:40:20.228Z</time></trkpt><trkpt lat="45.6621683" lon="9.9292567"><ele>236.0</ele><time>2026-04-25T12:40:21.229Z</time></trkpt><trkpt lat="45.66211" lon="9.9291733"><ele>234.33333333333334</ele><time>2026-04-25T12:40:22.228Z</time></trkpt><trkpt lat="45.6620567" lon="9.9291017"><ele>232.66666666666669</ele><time>2026-04-25T12:40:23.229Z</time></trkpt><trkpt lat="45.6620083" lon="9.9290317"><ele>231.0</ele><time>2026-04-25T12:40:24.228Z</time></trkpt><trkpt lat="45.6619517" lon="9.9289183"><ele>229.33333333333331</ele><time>2026-04-25T12:40:26.229Z</time></trkpt><trkpt lat="45.6619133" lon="9.9287617"><ele>227.66666666666666</ele><time>2026-04-25T12:40:28.23Z</time></trkpt><trkpt lat="45.6618717" lon="9.928645"><ele>226.0</ele><time>2026-04-25T12:40:30.229Z</time></trkpt><trkpt lat="45.6618033" lon="9.9286067"><ele>226.0</ele><time>2026-04-25T12:40:33.23Z</time></trkpt><trkpt lat="45.6617067" lon="9.9285833"><ele>226.00000000000003</ele><time>2026-04-25T12:40:36.228Z</time></trkpt><trkpt lat="45.6616083" lon="9.928525"><ele>226.00000000000003</ele><time>2026-04-25T12:40:38.229Z</time></trkpt><trkpt lat="45.6614833" lon="9.9284467"><ele>226.0</ele><time>2026-04-25T12:40:40.229Z</time></trkpt><trkpt lat="45.66141" lon="9.9284033"><ele>226.0</ele><time>2026-04-25T12:40:41.228Z</time></trkpt><trkpt lat="45.6613333" lon="9.9283583"><ele>225.8</ele><time>2026-04-25T12:40:42.229Z</time></trkpt><trkpt lat="45.6612567" lon="9.9283167"><ele>225.60000000000002</ele><time>2026-04-25T12:40:43.229Z</time></trkpt><trkpt lat="45.661175" lon="9.9282717"><ele>225.4</ele><time>2026-04-25T12:40:44.231Z</time></trkpt><trkpt lat="45.66109" lon="9.9282183"><ele>225.2</ele><time>2026-04-25T12:40:45.23Z</time></trkpt><trkpt lat="45.6610033" lon="9.9281667"><ele>225.0</ele><time>2026-04-25T12:40:46.23Z</time></trkpt><trkpt lat="45.66091" lon="9.9281133"><ele>224.8</ele><time>2026-04-25T12:40:47.227Z</time></trkpt><trkpt lat="45.6608183" lon="9.9280533"><ele>224.6</ele><time>2026-04-25T12:40:48.23Z</time></trkpt><trkpt lat="45.6607233" lon="9.927985"><ele>224.39999999999998</ele><time>2026-04-25T12:40:49.23Z</time></trkpt><trkpt lat="45.6606317" lon="9.9279117"><ele>224.2</ele><time>2026-04-25T12:40:50.231Z</time></trkpt><trkpt lat="45.66054" lon="9.9278367"><ele>224.0</ele><time>2026-04-25T12:40:51.232Z</time></trkpt><trkpt lat="45.66046" lon="9.92776"><ele>224.0</ele><time>2026-04-25T12:40:52.229Z</time></trkpt><trkpt lat="45.6603867" lon="9.9276817"><ele>223.99999999999997</ele><time>2026-04-25T12:40:53.23Z</time></trkpt><trkpt lat="45.660305" lon="9.92761"><ele>223.99999999999997</ele><time>2026-04-25T12:40:54.23Z</time></trkpt><trkpt lat="45.6602183" lon="9.9275317"><ele>224.0</ele><time>2026-04-25T12:40:55.231Z</time></trkpt><trkpt lat="45.6601367" lon="9.9274483"><ele>224.0</ele><time>2026-04-25T12:40:56.23Z</time></trkpt><trkpt lat="45.6600533" lon="9.927355"><ele>222.75</ele><time>2026-04-25T12:40:57.231Z</time></trkpt><trkpt lat="45.6599733" lon="9.92725"><ele>221.5</ele><time>2026-04-25T12:40:58.23Z</time></trkpt><trkpt lat="45.659905" lon="9.927125"><ele>220.25</ele><time>2026-04-25T12:40:59.23Z</time></trkpt><trkpt lat="45.659845" lon="9.9269817"><ele>219.0</ele><time>2026-04-25T12:41:00.229Z</time></trkpt><trkpt lat="45.6597867" lon="9.9268317"><ele>218.5</ele><time>2026-04-25T12:41:01.23Z</time></trkpt><trkpt lat="45.6597233" lon="9.9266933"><ele>218.0</ele><time>2026-04-25T12:41:02.23Z</time></trkpt><trkpt lat="45.659645" lon="9.9265683"><ele>217.5</ele><time>2026-04-25T12:41:03.233Z</time></trkpt><trkpt lat="45.6595517" lon="9.9264583"><ele>217.0</ele><time>2026-04-25T12:41:04.231Z</time></trkpt><trkpt lat="45.659455" lon="9.9263633"><ele>217.0</ele><time>2026-04-25T12:41:05.227Z</time></trkpt><trkpt lat="45.6593567" lon="9.926275"><ele>217.0</ele><time>2026-04-25T12:41:06.228Z</time></trkpt><trkpt lat="45.6592617" lon="9.9261917"><ele>217.0</ele><time>2026-04-25T12:41:07.228Z</time></trkpt><trkpt lat="45.6591717" lon="9.92611"><ele>217.0</ele><time>2026-04-25T12:41:08.231Z</time></trkpt><trkpt lat="45.6590833" lon="9.92603"><ele>217.0</ele><time>2026-04-25T12:41:09.231Z</time></trkpt><trkpt lat="45.65899" lon="9.925945"><ele>217.2</ele><time>2026-04-25T12:41:10.23Z</time></trkpt><trkpt lat="45.6588967" lon="9.9258617"><ele>217.39999999999998</ele><time>2026-04-25T12:41:11.229Z</time></trkpt><trkpt lat="45.6588067" lon="9.9257817"><ele>217.60000000000002</ele><time>2026-04-25T12:41:12.232Z</time></trkpt><trkpt lat="45.6587217" lon="9.9257033"><ele>217.8</ele><time>2026-04-25T12:41:13.228Z</time></trkpt><trkpt lat="45.6586333" lon="9.9256167"><ele>218.0</ele><time>2026-04-25T12:41:14.23Z</time></trkpt><trkpt lat="45.6585367" lon="9.9255267"><ele>218.0</ele><time>2026-04-25T12:41:15.231Z</time></trkpt><trkpt lat="45.6584417" lon="9.92544"><ele>218.0</ele><time>2026-04-25T12:41:16.228Z</time></trkpt><trkpt lat="45.6583433" lon="9.9253533"><ele>218.0</ele><time>2026-04-25T12:41:17.228Z</time></trkpt><trkpt lat="45.658245" lon="9.9252633"><ele>218.0</ele><time>2026-04-25T12:41:18.229Z</time></trkpt><trkpt lat="45.6581417" lon="9.925175"><ele>218.0</ele><time>2026-04-25T12:41:19.229Z</time></trkpt><trkpt lat="45.6580417" lon="9.9250867"><ele>218.0</ele><time>2026-04-25T12:41:20.229Z</time></trkpt><trkpt lat="45.65794" lon="9.9249967"><ele>218.0</ele><time>2026-04-25T12:41:21.23Z</time></trkpt><trkpt lat="45.6578383" lon="9.9249083"><ele>218.0</ele><time>2026-04-25T12:41:22.229Z</time></trkpt><trkpt lat="45.6577383" lon="9.9248183"><ele>218.8</ele><time>2026-04-25T12:41:23.23Z</time></trkpt><trkpt lat="45.6576417" lon="9.9247267"><ele>219.60000000000002</ele><time>2026-04-25T12:41:24.228Z</time></trkpt><trkpt lat="45.65755" lon="9.9246333"><ele>220.39999999999998</ele><time>2026-04-25T12:41:25.229Z</time></trkpt><trkpt lat="45.6574667" lon="9.9245367"><ele>221.2</ele><time>2026-04-25T12:41:26.23Z</time></trkpt><trkpt lat="45.657385" lon="9.9244367"><ele>222.0</ele><time>2026-04-25T12:41:27.231Z</time></trkpt><trkpt lat="45.657305" lon="9.9243333"><ele>222.0</ele><time>2026-04-25T12:41:28.228Z</time></trkpt><trkpt lat="45.6572233" lon="9.924225"><ele>222.0</ele><time>2026-04-25T12:41:29.228Z</time></trkpt><trkpt lat="45.6571433" lon="9.9241167"><ele>222.0</ele><time>2026-04-25T12:41:30.231Z</time></trkpt><trkpt lat="45.6570683" lon="9.9240133"><ele>222.0</ele><time>2026-04-25T12:41:31.229Z</time></trkpt><trkpt lat="45.6569967" lon="9.9239117"><ele>222.0</ele><time>2026-04-25T12:41:32.228Z</time></trkpt><trkpt lat="45.6569333" lon="9.923815"><ele>222.0</ele><time>2026-04-25T12:41:33.229Z</time></trkpt><trkpt lat="45.6568667" lon="9.9237183"><ele>222.0</ele><time>2026-04-25T12:41:34.23Z</time></trkpt><trkpt lat="45.6568033" lon="9.923615"><ele>222.0</ele><time>2026-04-25T12:41:35.229Z</time></trkpt><trkpt lat="45.656755" lon="9.92351"><ele>222.0</ele><time>2026-04-25T12:41:36.228Z</time></trkpt><trkpt lat="45.6567083" lon="9.9234117"><ele>222.0</ele><time>2026-04-25T12:41:37.229Z</time></trkpt><trkpt lat="45.6566683" lon="9.9233167"><ele>222.0</ele><time>2026-04-25T12:41:38.228Z</time></trkpt><trkpt lat="45.6566367" lon="9.9232233"><ele>223.14285714285714</ele><time>2026-04-25T12:41:39.229Z</time></trkpt><trkpt lat="45.6566167" lon="9.9231233"><ele>224.28571428571428</ele><time>2026-04-25T12:41:40.23Z</time></trkpt><trkpt lat="45.6565933" lon="9.923025"><ele>225.42857142857142</ele><time>2026-04-25T12:41:41.229Z</time></trkpt><trkpt lat="45.656555" lon="9.9229383"><ele>226.57142857142856</ele><time>2026-04-25T12:41:42.228Z</time></trkpt><trkpt lat="45.6565" lon="9.92288"><ele>227.71428571428572</ele><time>2026-04-25T12:41:43.23Z</time></trkpt><trkpt lat="45.6564383" lon="9.9228467"><ele>228.85714285714283</ele><time>2026-04-25T12:41:44.228Z</time></trkpt><trkpt lat="45.6563633" lon="9.92281"><ele>229.99999999999997</ele><time>2026-04-25T12:41:45.23Z</time></trkpt><trkpt lat="45.6562867" lon="9.9227567"><ele>230.0</ele><time>2026-04-25T12:41:46.23Z</time></trkpt><trkpt lat="45.656205" lon="9.9226667"><ele>230.0</ele><time>2026-04-25T12:41:47.228Z</time></trkpt><trkpt lat="45.6561183" lon="9.9225383"><ele>230.0</ele><time>2026-04-25T12:41:48.229Z</time></trkpt><trkpt lat="45.6560283" lon="9.92239"><ele>230.0</ele><time>2026-04-25T12:41:49.232Z</time></trkpt><trkpt lat="45.65594" lon="9.92223"><ele>228.5</ele><time>2026-04-25T12:41:50.23Z</time></trkpt><trkpt lat="45.6558517" lon="9.92207"><ele>227.0</ele><time>2026-04-25T12:41:51.233Z</time></trkpt><trkpt lat="45.655765" lon="9.9219033"><ele>225.5</ele><time>2026-04-25T12:41:52.23Z</time></trkpt><trkpt lat="45.6556733" lon="9.9217367"><ele>224.0</ele><time>2026-04-25T12:41:53.23Z</time></trkpt><trkpt lat="45.6555767" lon="9.9215683"><ele>222.33333333333334</ele><time>2026-04-25T12:41:54.23Z</time></trkpt><trkpt lat="45.65548" lon="9.9213983"><ele>220.66666666666669</ele><time>2026-04-25T12:41:55.229Z</time></trkpt><trkpt lat="45.6553833" lon="9.9212317"><ele>219.0</ele><time>2026-04-25T12:41:56.227Z</time></trkpt><trkpt lat="45.6552833" lon="9.9210667"><ele>219.0</ele><time>2026-04-25T12:41:57.229Z</time></trkpt><trkpt lat="45.655185" lon="9.9209"><ele>219.0</ele><time>2026-04-25T12:41:58.227Z</time></trkpt><trkpt lat="45.6550867" lon="9.9207367"><ele>219.0</ele><time>2026-04-25T12:41:59.228Z</time></trkpt><trkpt lat="45.654995" lon="9.9205817"><ele>219.0</ele><time>2026-04-25T12:42:00.229Z</time></trkpt><trkpt lat="45.6549067" lon="9.92044"><ele>221.5</ele><time>2026-04-25T12:42:01.229Z</time></trkpt><trkpt lat="45.65482" lon="9.9203133"><ele>224.0</ele><time>2026-04-25T12:42:02.228Z</time></trkpt><trkpt lat="45.65473" lon="9.920205"><ele>226.5</ele><time>2026-04-25T12:42:03.229Z</time></trkpt><trkpt lat="45.654635" lon="9.9201"><ele>229.0</ele><time>2026-04-25T12:42:04.227Z</time></trkpt><trkpt lat="45.65454" lon="9.919995"><ele>230.5</ele><time>2026-04-25T12:42:05.232Z</time></trkpt><trkpt lat="45.65444" lon="9.9198883"><ele>232.0</ele><time>2026-04-25T12:42:06.227Z</time></trkpt><trkpt lat="45.6543433" lon="9.9197683"><ele>233.5</ele><time>2026-04-25T12:42:07.227Z</time></trkpt><trkpt lat="45.65425" lon="9.9196367"><ele>235.0</ele><time>2026-04-25T12:42:08.228Z</time></trkpt><trkpt lat="45.6541617" lon="9.9194967"><ele>235.0</ele><time>2026-04-25T12:42:09.235Z</time></trkpt><trkpt lat="45.6540767" lon="9.91935"><ele>235.0</ele><time>2026-04-25T12:42:10.231Z</time></trkpt><trkpt lat="45.6539983" lon="9.9192017"><ele>235.0</ele><time>2026-04-25T12:42:11.232Z</time></trkpt><trkpt lat="45.6539267" lon="9.9190433"><ele>235.0</ele><time>2026-04-25T12:42:12.229Z</time></trkpt><trkpt lat="45.6538717" lon="9.9188783"><ele>237.75</ele><time>2026-04-25T12:42:13.23Z</time></trkpt><trkpt lat="45.653835" lon="9.9186983"><ele>240.5</ele><time>2026-04-25T12:42:14.23Z</time></trkpt><trkpt lat="45.6538133" lon="9.9185183"><ele>243.25</ele><time>2026-04-25T12:42:15.228Z</time></trkpt><trkpt lat="45.6538067" lon="9.9183367"><ele>246.0</ele><time>2026-04-25T12:42:16.228Z</time></trkpt><trkpt lat="45.6538" lon="9.9181567"><ele>248.0</ele><time>2026-04-25T12:42:17.229Z</time></trkpt><trkpt lat="45.6537917" lon="9.917975"><ele>250.0</ele><time>2026-04-25T12:42:18.23Z</time></trkpt><trkpt lat="45.653785" lon="9.9177967"><ele>252.0</ele><time>2026-04-25T12:42:19.23Z</time></trkpt><trkpt lat="45.6537817" lon="9.91763"><ele>254.0</ele><time>2026-04-25T12:42:20.228Z</time></trkpt><trkpt lat="45.6537833" lon="9.9174633"><ele>256.25</ele><time>2026-04-25T12:42:21.231Z</time></trkpt><trkpt lat="45.6537833" lon="9.9172983"><ele>258.5</ele><time>2026-04-25T12:42:22.228Z</time></trkpt><trkpt lat="45.6537817" lon="9.9171283"><ele>260.75</ele><time>2026-04-25T12:42:23.23Z</time></trkpt><trkpt lat="45.6537733" lon="9.9169583"><ele>263.0</ele><time>2026-04-25T12:42:24.228Z</time></trkpt><trkpt lat="45.6537533" lon="9.91679"><ele>262.5</ele><time>2026-04-25T12:42:25.229Z</time></trkpt><trkpt lat="45.6537167" lon="9.916625"><ele>262.0</ele><time>2026-04-25T12:42:26.23Z</time></trkpt><trkpt lat="45.6536567" lon="9.916475"><ele>261.5</ele><time>2026-04-25T12:42:27.228Z</time></trkpt><trkpt lat="45.6535817" lon="9.916345"><ele>261.0</ele><time>2026-04-25T12:42:28.228Z</time></trkpt><trkpt lat="45.653495" lon="9.91623"><ele>258.0</ele><time>2026-04-25T12:42:29.229Z</time></trkpt><trkpt lat="45.6534" lon="9.9161217"><ele>255.0</ele><time>2026-04-25T12:42:30.228Z</time></trkpt><trkpt lat="45.6533033" lon="9.91601"><ele>252.0</ele><time>2026-04-25T12:42:31.227Z</time></trkpt><trkpt lat="45.65321" lon="9.9158867"><ele>249.0</ele><time>2026-04-25T12:42:32.229Z</time></trkpt><trkpt lat="45.6531283" lon="9.9157533"><ele>249.0</ele><time>2026-04-25T12:42:33.228Z</time></trkpt><trkpt lat="45.6530517" lon="9.9156117"><ele>249.0</ele><time>2026-04-25T12:42:34.228Z</time></trkpt><trkpt lat="45.652975" lon="9.915465"><ele>249.0</ele><time>2026-04-25T12:42:35.229Z</time></trkpt><trkpt lat="45.6529033" lon="9.9153167"><ele>249.0</ele><time>2026-04-25T12:42:36.228Z</time></trkpt><trkpt lat="45.65284" lon="9.9151667"><ele>248.5</ele><time>2026-04-25T12:42:37.227Z</time></trkpt><trkpt lat="45.6527783" lon="9.9150167"><ele>248.0</ele><time>2026-04-25T12:42:38.23Z</time></trkpt><trkpt lat="45.652715" lon="9.9148667"><ele>247.5</ele><time>2026-04-25T12:42:39.231Z</time></trkpt><trkpt lat="45.6526483" lon="9.9147133"><ele>247.0</ele><time>2026-04-25T12:42:40.228Z</time></trkpt><trkpt lat="45.65258" lon="9.9145533"><ele>247.0</ele><time>2026-04-25T12:42:41.229Z</time></trkpt><trkpt lat="45.6525083" lon="9.91439"><ele>247.0</ele><time>2026-04-25T12:42:42.228Z</time></trkpt><trkpt lat="45.6524367" lon="9.9142233"><ele>247.0</ele><time>2026-04-25T12:42:43.229Z</time></trkpt><trkpt lat="45.65237" lon="9.91406"><ele>247.0</ele><time>2026-04-25T12:42:44.228Z</time></trkpt><trkpt lat="45.6523033" lon="9.9138933"><ele>248.39999999999998</ele><time>2026-04-25T12:42:45.24Z</time></trkpt><trkpt lat="45.6522417" lon="9.9137367"><ele>249.79999999999998</ele><time>2026-04-25T12:42:46.228Z</time></trkpt><trkpt lat="45.65219" lon="9.913585"><ele>251.2</ele><time>2026-04-25T12:42:47.232Z</time></trkpt><trkpt lat="45.652145" lon="9.9134467"><ele>252.6</ele><time>2026-04-25T12:42:48.229Z</time></trkpt><trkpt lat="45.652115" lon="9.913315"><ele>254.0</ele><time>2026-04-25T12:42:49.228Z</time></trkpt><trkpt lat="45.6520867" lon="9.91318"><ele>256.4</ele><time>2026-04-25T12:42:50.23Z</time></trkpt><trkpt lat="45.6520533" lon="9.913045"><ele>258.79999999999995</ele><time>2026-04-25T12:42:51.229Z</time></trkpt><trkpt lat="45.6519983" lon="9.9129217"><ele>261.20000000000005</ele><time>2026-04-25T12:42:52.23Z</time></trkpt><trkpt lat="45.6519267" lon="9.9128067"><ele>263.6</ele><time>2026-04-25T12:42:53.228Z</time></trkpt><trkpt lat="45.65184" lon="9.9127"><ele>266.0</ele><time>2026-04-25T12:42:54.229Z</time></trkpt><trkpt lat="45.6517483" lon="9.9126017"><ele>262.0</ele><time>2026-04-25T12:42:55.228Z</time></trkpt><trkpt lat="45.6516633" lon="9.9125"><ele>258.0</ele><time>2026-04-25T12:42:56.229Z</time></trkpt><trkpt lat="45.651575" lon="9.9123933"><ele>254.0</ele><time>2026-04-25T12:42:57.227Z</time></trkpt><trkpt lat="45.65149" lon="9.91228"><ele>250.0</ele><time>2026-04-25T12:42:58.227Z</time></trkpt><trkpt lat="45.651405" lon="9.9121733"><ele>250.0</ele><time>2026-04-25T12:42:59.227Z</time></trkpt><trkpt lat="45.65132" lon="9.9120717"><ele>250.0</ele><time>2026-04-25T12:43:00.229Z</time></trkpt><trkpt lat="45.651235" lon="9.9119733"><ele>250.0</ele><time>2026-04-25T12:43:01.227Z</time></trkpt><trkpt lat="45.6511567" lon="9.9118817"><ele>250.0</ele><time>2026-04-25T12:43:02.229Z</time></trkpt><trkpt lat="45.65108" lon="9.9117983"><ele>250.0</ele><time>2026-04-25T12:43:03.231Z</time></trkpt><trkpt lat="45.6509967" lon="9.9117167"><ele>249.75</ele><time>2026-04-25T12:43:04.228Z</time></trkpt><trkpt lat="45.6509033" lon="9.911635"><ele>249.5</ele><time>2026-04-25T12:43:05.228Z</time></trkpt><trkpt lat="45.6508033" lon="9.9115517"><ele>249.25</ele><time>2026-04-25T12:43:06.228Z</time></trkpt><trkpt lat="45.6507" lon="9.9114717"><ele>249.0</ele><time>2026-04-25T12:43:07.227Z</time></trkpt><trkpt lat="45.6505933" lon="9.9113917"><ele>249.0</ele><time>2026-04-25T12:43:08.227Z</time></trkpt><trkpt lat="45.6504867" lon="9.9113117"><ele>249.0</ele><time>2026-04-25T12:43:09.228Z</time></trkpt><trkpt lat="45.650385" lon="9.9112283"><ele>249.0</ele><time>2026-04-25T12:43:10.227Z</time></trkpt><trkpt lat="45.65029" lon="9.9111417"><ele>249.0</ele><time>2026-04-25T12:43:11.228Z</time></trkpt><trkpt lat="45.6501967" lon="9.91106"><ele>248.2</ele><time>2026-04-25T12:43:12.227Z</time></trkpt><trkpt lat="45.65011" lon="9.9109767"><ele>247.39999999999998</ele><time>2026-04-25T12:43:13.226Z</time></trkpt><trkpt lat="45.6500333" lon="9.9108883"><ele>246.6</ele><time>2026-04-25T12:43:14.229Z</time></trkpt><trkpt lat="45.649965" lon="9.9107917"><ele>245.8</ele><time>2026-04-25T12:43:15.228Z</time></trkpt><trkpt lat="45.6499083" lon="9.91069"><ele>245.0</ele><time>2026-04-25T12:43:16.227Z</time></trkpt><trkpt lat="45.6498633" lon="9.9105833"><ele>245.0</ele><time>2026-04-25T12:43:17.228Z</time></trkpt><trkpt lat="45.6498233" lon="9.9104683"><ele>245.0</ele><time>2026-04-25T12:43:18.229Z</time></trkpt><trkpt lat="45.6497983" lon="9.9103433"><ele>245.0</ele><time>2026-04-25T12:43:19.233Z</time></trkpt><trkpt lat="45.6497867" lon="9.9102067"><ele>245.0</ele><time>2026-04-25T12:43:20.23Z</time></trkpt><trkpt lat="45.64979" lon="9.9100633"><ele>245.0</ele><time>2026-04-25T12:43:21.228Z</time></trkpt><trkpt lat="45.6498033" lon="9.90992"><ele>246.0</ele><time>2026-04-25T12:43:22.227Z</time></trkpt><trkpt lat="45.6498083" lon="9.9097783"><ele>247.0</ele><time>2026-04-25T12:43:23.229Z</time></trkpt><trkpt lat="45.64979" lon="9.90964"><ele>248.0</ele><time>2026-04-25T12:43:24.23Z</time></trkpt><trkpt lat="45.64975" lon="9.9095083"><ele>249.0</ele><time>2026-04-25T12:43:25.227Z</time></trkpt><trkpt lat="45.64969" lon="9.909395"><ele>250.0</ele><time>2026-04-25T12:43:26.228Z</time></trkpt><trkpt lat="45.6496117" lon="9.90931"><ele>250.0</ele><time>2026-04-25T12:43:27.228Z</time></trkpt><trkpt lat="45.6495267" lon="9.9092467"><ele>250.0</ele><time>2026-04-25T12:43:28.227Z</time></trkpt><trkpt lat="45.649435" lon="9.9092017"><ele>250.0</ele><time>2026-04-25T12:43:29.227Z</time></trkpt><trkpt lat="45.649335" lon="9.90918"><ele>250.0</ele><time>2026-04-25T12:43:30.229Z</time></trkpt><trkpt lat="45.64923" lon="9.90918"><ele>250.0</ele><time>2026-04-25T12:43:31.229Z</time></trkpt><trkpt lat="45.64912" lon="9.9091967"><ele>248.0</ele><time>2026-04-25T12:43:32.232Z</time></trkpt><trkpt lat="45.649005" lon="9.909225"><ele>246.0</ele><time>2026-04-25T12:43:33.229Z</time></trkpt><trkpt lat="45.6488867" lon="9.90925"><ele>244.0</ele><time>2026-04-25T12:43:34.227Z</time></trkpt><trkpt lat="45.6487683" lon="9.9092767"><ele>242.0</ele><time>2026-04-25T12:43:35.228Z</time></trkpt><trkpt lat="45.64865" lon="9.9093017"><ele>241.25</ele><time>2026-04-25T12:43:36.23Z</time></trkpt><trkpt lat="45.6485283" lon="9.9093283"><ele>240.5</ele><time>2026-04-25T12:43:37.229Z</time></trkpt><trkpt lat="45.6484083" lon="9.909355"><ele>239.75</ele><time>2026-04-25T12:43:38.23Z</time></trkpt><trkpt lat="45.64829" lon="9.9093817"><ele>239.0</ele><time>2026-04-25T12:43:39.233Z</time></trkpt><trkpt lat="45.6481683" lon="9.9094083"><ele>239.0</ele><time>2026-04-25T12:43:40.234Z</time></trkpt><trkpt lat="45.6480467" lon="9.9094317"><ele>239.0</ele><time>2026-04-25T12:43:41.227Z</time></trkpt><trkpt lat="45.6479283" lon="9.909455"><ele>239.0</ele><time>2026-04-25T12:43:42.228Z</time></trkpt><trkpt lat="45.64781" lon="9.9094817"><ele>239.0</ele><time>2026-04-25T12:43:43.227Z</time></trkpt><trkpt lat="45.6476917" lon="9.9095083"><ele>238.25</ele><time>2026-04-25T12:43:44.229Z</time></trkpt><trkpt lat="45.64757" lon="9.909535"><ele>237.5</ele><time>2026-04-25T12:43:45.228Z</time></trkpt><trkpt lat="45.647445" lon="9.9095583"><ele>236.75</ele><time>2026-04-25T12:43:46.228Z</time></trkpt><trkpt lat="45.647315" lon="9.909585"><ele>236.0</ele><time>2026-04-25T12:43:47.227Z</time></trkpt><trkpt lat="45.6471833" lon="9.9096117"><ele>236.0</ele><time>2026-04-25T12:43:48.228Z</time></trkpt><trkpt lat="45.64705" lon="9.9096417"><ele>236.0</ele><time>2026-04-25T12:43:49.228Z</time></trkpt><trkpt lat="45.6469283" lon="9.9096583"><ele>236.0</ele><time>2026-04-25T12:43:50.227Z</time></trkpt><trkpt lat="45.6468067" lon="9.9096667"><ele>236.0</ele><time>2026-04-25T12:43:51.23Z</time></trkpt><trkpt lat="45.6466817" lon="9.9096683"><ele>236.0</ele><time>2026-04-25T12:43:52.228Z</time></trkpt><trkpt lat="45.6465583" lon="9.909645"><ele>236.0</ele><time>2026-04-25T12:43:53.228Z</time></trkpt><trkpt lat="45.6464333" lon="9.9096117"><ele>236.0</ele><time>2026-04-25T12:43:54.228Z</time></trkpt><trkpt lat="45.646315" lon="9.9095783"><ele>236.0</ele><time>2026-04-25T12:43:55.227Z</time></trkpt><trkpt lat="45.6461983" lon="9.9095467"><ele>235.5</ele><time>2026-04-25T12:43:56.227Z</time></trkpt><trkpt lat="45.6460817" lon="9.90951"><ele>235.0</ele><time>2026-04-25T12:43:57.229Z</time></trkpt><trkpt lat="45.64596" lon="9.9094783"><ele>234.5</ele><time>2026-04-25T12:43:58.23Z</time></trkpt><trkpt lat="45.6458333" lon="9.9094417"><ele>234.0</ele><time>2026-04-25T12:43:59.23Z</time></trkpt><trkpt lat="45.6456983" lon="9.9094033"><ele>234.0</ele><time>2026-04-25T12:44:00.228Z</time></trkpt><trkpt lat="45.64556" lon="9.909365"><ele>234.0</ele><time>2026-04-25T12:44:01.228Z</time></trkpt><trkpt lat="45.6454183" lon="9.9093233"><ele>234.0</ele><time>2026-04-25T12:44:02.228Z</time></trkpt><trkpt lat="45.645275" lon="9.9092833"><ele>234.0</ele><time>2026-04-25T12:44:03.23Z</time></trkpt><trkpt lat="45.6451333" lon="9.9092433"><ele>233.5</ele><time>2026-04-25T12:44:04.229Z</time></trkpt><trkpt lat="45.6449917" lon="9.9092033"><ele>233.0</ele><time>2026-04-25T12:44:05.229Z</time></trkpt><trkpt lat="45.6448517" lon="9.9091633"><ele>232.5</ele><time>2026-04-25T12:44:06.232Z</time></trkpt><trkpt lat="45.6447117" lon="9.9091233"><ele>232.0</ele><time>2026-04-25T12:44:07.229Z</time></trkpt><trkpt lat="45.6445733" lon="9.9090833"><ele>232.0</ele><time>2026-04-25T12:44:08.229Z</time></trkpt><trkpt lat="45.644435" lon="9.90904"><ele>232.0</ele><time>2026-04-25T12:44:09.228Z</time></trkpt><trkpt lat="45.6442983" lon="9.909"><ele>232.0</ele><time>2026-04-25T12:44:10.228Z</time></trkpt><trkpt lat="45.64416" lon="9.90896"><ele>232.0</ele><time>2026-04-25T12:44:11.229Z</time></trkpt><trkpt lat="45.6440167" lon="9.9089167"><ele>232.0</ele><time>2026-04-25T12:44:12.23Z</time></trkpt><trkpt lat="45.6438767" lon="9.9088767"><ele>232.0</ele><time>2026-04-25T12:44:13.229Z</time></trkpt><trkpt lat="45.64374" lon="9.908835"><ele>232.0</ele><time>2026-04-25T12:44:14.228Z</time></trkpt><trkpt lat="45.643605" lon="9.908795"><ele>232.0</ele><time>2026-04-25T12:44:15.229Z</time></trkpt><trkpt lat="45.6434717" lon="9.9087583"><ele>231.5</ele><time>2026-04-25T12:44:16.227Z</time></trkpt><trkpt lat="45.6433433" lon="9.9087217"><ele>231.0</ele><time>2026-04-25T12:44:17.229Z</time></trkpt><trkpt lat="45.6432167" lon="9.908685"><ele>230.5</ele><time>2026-04-25T12:44:18.228Z</time></trkpt><trkpt lat="45.643095" lon="9.9086517"><ele>230.0</ele><time>2026-04-25T12:44:19.229Z</time></trkpt><trkpt lat="45.6429833" lon="9.90862"><ele>230.0</ele><time>2026-04-25T12:44:20.229Z</time></trkpt><trkpt lat="45.642875" lon="9.9085917"><ele>230.0</ele><time>2026-04-25T12:44:21.228Z</time></trkpt><trkpt lat="45.6427717" lon="9.90856"><ele>230.0</ele><time>2026-04-25T12:44:22.227Z</time></trkpt><trkpt lat="45.6426667" lon="9.9085283"><ele>230.0</ele><time>2026-04-25T12:44:23.228Z</time></trkpt><trkpt lat="45.6425633" lon="9.9084883"><ele>230.0</ele><time>2026-04-25T12:44:24.228Z</time></trkpt><trkpt lat="45.642465" lon="9.908445"><ele>229.4</ele><time>2026-04-25T12:44:25.228Z</time></trkpt><trkpt lat="45.6423683" lon="9.9084017"><ele>228.8</ele><time>2026-04-25T12:44:26.23Z</time></trkpt><trkpt lat="45.6422833" lon="9.908365"><ele>228.2</ele><time>2026-04-25T12:44:27.23Z</time></trkpt><trkpt lat="45.6422117" lon="9.9083317"><ele>227.6</ele><time>2026-04-25T12:44:28.229Z</time></trkpt><trkpt lat="45.64215" lon="9.9083017"><ele>227.0</ele><time>2026-04-25T12:44:29.23Z</time></trkpt><trkpt lat="45.6420367" lon="9.9082117"><ele>227.00000000000003</ele><time>2026-04-25T12:44:31.23Z</time></trkpt><trkpt lat="45.6419733" lon="9.90816"><ele>227.0</ele><time>2026-04-25T12:44:32.233Z</time></trkpt><trkpt lat="45.6419017" lon="9.9081283"><ele>227.0</ele><time>2026-04-25T12:44:33.231Z</time></trkpt><trkpt lat="45.6418317" lon="9.90812"><ele>227.0</ele><time>2026-04-25T12:44:34.229Z</time></trkpt><trkpt lat="45.6417683" lon="9.908115"><ele>227.00000000000003</ele><time>2026-04-25T12:44:35.231Z</time></trkpt><trkpt lat="45.6416683" lon="9.908075"><ele>227.0</ele><time>2026-04-25T12:44:37.228Z</time></trkpt><trkpt lat="45.6415983" lon="9.9079783"><ele>227.0</ele><time>2026-04-25T12:44:39.228Z</time></trkpt><trkpt lat="45.64156" lon="9.90781"><ele>227.0</ele><time>2026-04-25T12:44:41.227Z</time></trkpt><trkpt lat="45.6415367" lon="9.9077017"><ele>227.0</ele><time>2026-04-25T12:44:42.229Z</time></trkpt><trkpt lat="45.6415133" lon="9.90759"><ele>227.0</ele><time>2026-04-25T12:44:43.228Z</time></trkpt><trkpt lat="45.6414883" lon="9.907475"><ele>227.0</ele><time>2026-04-25T12:44:44.227Z</time></trkpt><trkpt lat="45.641465" lon="9.90736"><ele>227.0</ele><time>2026-04-25T12:44:45.228Z</time></trkpt><trkpt lat="45.6414317" lon="9.9072233"><ele>227.0</ele><time>2026-04-25T12:44:46.228Z</time></trkpt><trkpt lat="45.641395" lon="9.90708"><ele>227.0</ele><time>2026-04-25T12:44:47.228Z</time></trkpt><trkpt lat="45.6413583" lon="9.906935"><ele>227.0</ele><time>2026-04-25T12:44:48.227Z</time></trkpt><trkpt lat="45.6413233" lon="9.9067917"><ele>227.0</ele><time>2026-04-25T12:44:49.228Z</time></trkpt><trkpt lat="45.6412933" lon="9.906645"><ele>227.0</ele><time>2026-04-25T12:44:50.228Z</time></trkpt><trkpt lat="45.64126" lon="9.906495"><ele>227.0</ele><time>2026-04-25T12:44:51.232Z</time></trkpt><trkpt lat="45.6412267" lon="9.9063467"><ele>227.0</ele><time>2026-04-25T12:44:52.227Z</time></trkpt><trkpt lat="45.6411917" lon="9.906195"><ele>227.0</ele><time>2026-04-25T12:44:53.231Z</time></trkpt><trkpt lat="45.6411617" lon="9.9060383"><ele>227.0</ele><time>2026-04-25T12:44:54.227Z</time></trkpt><trkpt lat="45.6411333" lon="9.905875"><ele>227.16666666666669</ele><time>2026-04-25T12:44:55.23Z</time></trkpt><trkpt lat="45.641105" lon="9.9057233"><ele>227.33333333333334</ele><time>2026-04-25T12:44:56.228Z</time></trkpt><trkpt lat="45.6410833" lon="9.9055917"><ele>227.5</ele><time>2026-04-25T12:44:57.227Z</time></trkpt><trkpt lat="45.64106" lon="9.905475"><ele>227.66666666666669</ele><time>2026-04-25T12:44:58.228Z</time></trkpt><trkpt lat="45.6410417" lon="9.9053733"><ele>227.83333333333334</ele><time>2026-04-25T12:44:59.228Z</time></trkpt><trkpt lat="45.6410233" lon="9.905285"><ele>228.0</ele><time>2026-04-25T12:45:00.229Z</time></trkpt><trkpt lat="45.640985" lon="9.905135"><ele>228.0</ele><time>2026-04-25T12:45:02.227Z</time></trkpt><trkpt lat="45.6409633" lon="9.90498"><ele>228.0</ele><time>2026-04-25T12:45:04.228Z</time></trkpt><trkpt lat="45.6409367" lon="9.9048283"><ele>228.0</ele><time>2026-04-25T12:45:06.229Z</time></trkpt><trkpt lat="45.6409017" lon="9.9046883"><ele>228.0</ele><time>2026-04-25T12:45:08.229Z</time></trkpt><trkpt lat="45.64086" lon="9.9045683"><ele>228.0</ele><time>2026-04-25T12:45:10.228Z</time></trkpt><trkpt lat="45.6408183" lon="9.9044617"><ele>228.0</ele><time>2026-04-25T12:45:12.228Z</time></trkpt><trkpt lat="45.64079" lon="9.9043083"><ele>228.0</ele><time>2026-04-25T12:45:14.228Z</time></trkpt><trkpt lat="45.6407683" lon="9.90421"><ele>228.0</ele><time>2026-04-25T12:45:15.228Z</time></trkpt><trkpt lat="45.640745" lon="9.904105"><ele>228.0</ele><time>2026-04-25T12:45:16.228Z</time></trkpt><trkpt lat="45.6407217" lon="9.9039917"><ele>228.0</ele><time>2026-04-25T12:45:17.229Z</time></trkpt><trkpt lat="45.640695" lon="9.9038717"><ele>228.0</ele><time>2026-04-25T12:45:18.229Z</time></trkpt><trkpt lat="45.6406683" lon="9.9037517"><ele>228.0</ele><time>2026-04-25T12:45:19.227Z</time></trkpt><trkpt lat="45.6406433" lon="9.9036333"><ele>228.0</ele><time>2026-04-25T12:45:20.229Z</time></trkpt><trkpt lat="45.6406233" lon="9.903515"><ele>228.0</ele><time>2026-04-25T12:45:21.228Z</time></trkpt><trkpt lat="45.640605" lon="9.9034033"><ele>228.0</ele><time>2026-04-25T12:45:22.227Z</time></trkpt><trkpt lat="45.6405833" lon="9.9033017"><ele>228.0</ele><time>2026-04-25T12:45:23.228Z</time></trkpt><trkpt lat="45.6405667" lon="9.9032017"><ele>228.0</ele><time>2026-04-25T12:45:24.227Z</time></trkpt><trkpt lat="45.6405467" lon="9.903105"><ele>228.0</ele><time>2026-04-25T12:45:25.227Z</time></trkpt><trkpt lat="45.6405267" lon="9.903005"><ele>228.0</ele><time>2026-04-25T12:45:26.227Z</time></trkpt><trkpt lat="45.640505" lon="9.9029017"><ele>228.0</ele><time>2026-04-25T12:45:27.23Z</time></trkpt><trkpt lat="45.6404833" lon="9.9027967"><ele>228.0</ele><time>2026-04-25T12:45:28.23Z</time></trkpt><trkpt lat="45.6404583" lon="9.90269"><ele>228.0</ele><time>2026-04-25T12:45:29.227Z</time></trkpt><trkpt lat="45.6404317" lon="9.9025833"><ele>228.0</ele><time>2026-04-25T12:45:30.229Z</time></trkpt><trkpt lat="45.6404067" lon="9.9024717"><ele>228.2</ele><time>2026-04-25T12:45:31.23Z</time></trkpt><trkpt lat="45.6403867" lon="9.902355"><ele>228.4</ele><time>2026-04-25T12:45:32.231Z</time></trkpt><trkpt lat="45.6403667" lon="9.90223"><ele>228.59999999999997</ele><time>2026-04-25T12:45:33.229Z</time></trkpt><trkpt lat="45.6403483" lon="9.90209"><ele>228.79999999999998</ele><time>2026-04-25T12:45:34.228Z</time></trkpt><trkpt lat="45.6403283" lon="9.90194"><ele>229.0</ele><time>2026-04-25T12:45:35.228Z</time></trkpt><trkpt lat="45.640305" lon="9.90178"><ele>228.79999999999998</ele><time>2026-04-25T12:45:36.227Z</time></trkpt><trkpt lat="45.6402783" lon="9.9016233"><ele>228.59999999999997</ele><time>2026-04-25T12:45:37.227Z</time></trkpt><trkpt lat="45.6402567" lon="9.90147"><ele>228.4</ele><time>2026-04-25T12:45:38.228Z</time></trkpt><trkpt lat="45.6402317" lon="9.9013183"><ele>228.2</ele><time>2026-04-25T12:45:39.228Z</time></trkpt><trkpt lat="45.640205" lon="9.9011617"><ele>228.0</ele><time>2026-04-25T12:45:40.227Z</time></trkpt><trkpt lat="45.6401767" lon="9.9009983"><ele>227.8</ele><time>2026-04-25T12:45:41.229Z</time></trkpt><trkpt lat="45.6401483" lon="9.9008317"><ele>227.60000000000002</ele><time>2026-04-25T12:45:42.227Z</time></trkpt><trkpt lat="45.6401217" lon="9.900675"><ele>227.39999999999998</ele><time>2026-04-25T12:45:43.228Z</time></trkpt><trkpt lat="45.6400983" lon="9.900525"><ele>227.2</ele><time>2026-04-25T12:45:44.227Z</time></trkpt><trkpt lat="45.6400783" lon="9.9003817"><ele>227.0</ele><time>2026-04-25T12:45:45.227Z</time></trkpt><trkpt lat="45.6400583" lon="9.9002433"><ele>227.0</ele><time>2026-04-25T12:45:46.229Z</time></trkpt><trkpt lat="45.640035" lon="9.9001033"><ele>227.0</ele><time>2026-04-25T12:45:47.228Z</time></trkpt><trkpt lat="45.6400083" lon="9.89996"><ele>227.0</ele><time>2026-04-25T12:45:48.228Z</time></trkpt><trkpt lat="45.639985" lon="9.8998167"><ele>227.0</ele><time>2026-04-25T12:45:49.228Z</time></trkpt><trkpt lat="45.63996" lon="9.8996717"><ele>227.0</ele><time>2026-04-25T12:45:50.229Z</time></trkpt><trkpt lat="45.6399333" lon="9.8995283"><ele>227.0</ele><time>2026-04-25T12:45:51.23Z</time></trkpt><trkpt lat="45.6399083" lon="9.899385"><ele>227.0</ele><time>2026-04-25T12:45:52.231Z</time></trkpt><trkpt lat="45.639885" lon="9.8992417"><ele>227.0</ele><time>2026-04-25T12:45:53.228Z</time></trkpt><trkpt lat="45.63986" lon="9.8990983"><ele>227.0</ele><time>2026-04-25T12:45:54.227Z</time></trkpt><trkpt lat="45.639835" lon="9.8989583"><ele>227.0</ele><time>2026-04-25T12:45:55.227Z</time></trkpt><trkpt lat="45.6398133" lon="9.8988183"><ele>227.0</ele><time>2026-04-25T12:45:56.229Z</time></trkpt><trkpt lat="45.63979" lon="9.898675"><ele>227.0</ele><time>2026-04-25T12:45:57.228Z</time></trkpt><trkpt lat="45.6397617" lon="9.8985317"><ele>227.0</ele><time>2026-04-25T12:45:58.227Z</time></trkpt><trkpt lat="45.6397433" lon="9.8983833"><ele>227.0</ele><time>2026-04-25T12:45:59.229Z</time></trkpt><trkpt lat="45.639715" lon="9.8982233"><ele>227.0</ele><time>2026-04-25T12:46:00.228Z</time></trkpt><trkpt lat="45.63969" lon="9.8980667"><ele>226.6</ele><time>2026-04-25T12:46:01.228Z</time></trkpt><trkpt lat="45.6396633" lon="9.8979133"><ele>226.2</ele><time>2026-04-25T12:46:02.23Z</time></trkpt><trkpt lat="45.6396367" lon="9.897765"><ele>225.8</ele><time>2026-04-25T12:46:03.229Z</time></trkpt><trkpt lat="45.6396133" lon="9.897615"><ele>225.4</ele><time>2026-04-25T12:46:04.23Z</time></trkpt><trkpt lat="45.6395867" lon="9.8974633"><ele>225.0</ele><time>2026-04-25T12:46:05.232Z</time></trkpt><trkpt lat="45.639565" lon="9.8973217"><ele>225.0</ele><time>2026-04-25T12:46:06.23Z</time></trkpt><trkpt lat="45.6395433" lon="9.8971983"><ele>225.0</ele><time>2026-04-25T12:46:07.23Z</time></trkpt><trkpt lat="45.6395233" lon="9.8970883"><ele>225.0</ele><time>2026-04-25T12:46:08.23Z</time></trkpt><trkpt lat="45.6395083" lon="9.8969817"><ele>225.0</ele><time>2026-04-25T12:46:09.231Z</time></trkpt><trkpt lat="45.6394983" lon="9.896885"><ele>225.0</ele><time>2026-04-25T12:46:10.229Z</time></trkpt><trkpt lat="45.639495" lon="9.8967917"><ele>225.0</ele><time>2026-04-25T12:46:11.228Z</time></trkpt><trkpt lat="45.6394933" lon="9.89662"><ele>224.6</ele><time>2026-04-25T12:46:13.229Z</time></trkpt><trkpt lat="45.6394533" lon="9.8964783"><ele>224.2</ele><time>2026-04-25T12:46:15.228Z</time></trkpt><trkpt lat="45.6393917" lon="9.8963417"><ele>223.8</ele><time>2026-04-25T12:46:17.229Z</time></trkpt><trkpt lat="45.6393617" lon="9.896255"><ele>223.4</ele><time>2026-04-25T12:46:18.229Z</time></trkpt><trkpt lat="45.6393333" lon="9.8961367"><ele>223.0</ele><time>2026-04-25T12:46:19.227Z</time></trkpt><trkpt lat="45.6393117" lon="9.8960017"><ele>223.25</ele><time>2026-04-25T12:46:20.228Z</time></trkpt><trkpt lat="45.6392883" lon="9.8958583"><ele>223.5</ele><time>2026-04-25T12:46:21.228Z</time></trkpt><trkpt lat="45.6392617" lon="9.8956983"><ele>223.75</ele><time>2026-04-25T12:46:22.228Z</time></trkpt><trkpt lat="45.63923" lon="9.8955033"><ele>224.0</ele><time>2026-04-25T12:46:23.229Z</time></trkpt><trkpt lat="45.6391867" lon="9.8952667"><ele>223.33333333333334</ele><time>2026-04-25T12:46:24.228Z</time></trkpt><trkpt lat="45.6391433" lon="9.8949983"><ele>222.66666666666669</ele><time>2026-04-25T12:46:25.227Z</time></trkpt><trkpt lat="45.6391033" lon="9.8947133"><ele>222.0</ele><time>2026-04-25T12:46:26.228Z</time></trkpt><trkpt lat="45.6390667" lon="9.8944167"><ele>221.66666666666669</ele><time>2026-04-25T12:46:27.227Z</time></trkpt><trkpt lat="45.6390317" lon="9.8941217"><ele>221.33333333333334</ele><time>2026-04-25T12:46:28.232Z</time></trkpt><trkpt lat="45.6389917" lon="9.89383"><ele>221.0</ele><time>2026-04-25T12:46:29.229Z</time></trkpt><trkpt lat="45.6389467" lon="9.8935383"><ele>221.66666666666669</ele><time>2026-04-25T12:46:30.228Z</time></trkpt><trkpt lat="45.6388983" lon="9.8932467"><ele>222.33333333333331</ele><time>2026-04-25T12:46:31.227Z</time></trkpt><trkpt lat="45.6388483" lon="9.89295"><ele>223.0</ele><time>2026-04-25T12:46:32.228Z</time></trkpt><trkpt lat="45.6388" lon="9.8926567"><ele>222.66666666666666</ele><time>2026-04-25T12:46:33.228Z</time></trkpt><trkpt lat="45.6387533" lon="9.892375"><ele>222.33333333333331</ele><time>2026-04-25T12:46:34.228Z</time></trkpt><trkpt lat="45.6387117" lon="9.89211"><ele>222.0</ele><time>2026-04-25T12:46:35.23Z</time></trkpt><trkpt lat="45.638675" lon="9.891865"><ele>222.66666666666669</ele><time>2026-04-25T12:46:36.227Z</time></trkpt><trkpt lat="45.6386433" lon="9.891635"><ele>223.33333333333334</ele><time>2026-04-25T12:46:37.227Z</time></trkpt><trkpt lat="45.6386133" lon="9.8914067"><ele>224.0</ele><time>2026-04-25T12:46:38.228Z</time></trkpt><trkpt lat="45.63858" lon="9.8911817"><ele>222.66666666666669</ele><time>2026-04-25T12:46:39.227Z</time></trkpt><trkpt lat="45.6385467" lon="9.89095"><ele>221.33333333333331</ele><time>2026-04-25T12:46:40.228Z</time></trkpt><trkpt lat="45.6385117" lon="9.89072"><ele>220.0</ele><time>2026-04-25T12:46:41.228Z</time></trkpt><trkpt lat="45.6384783" lon="9.8905"><ele>219.75</ele><time>2026-04-25T12:46:42.23Z</time></trkpt><trkpt lat="45.6384467" lon="9.8902917"><ele>219.5</ele><time>2026-04-25T12:46:43.227Z</time></trkpt><trkpt lat="45.63842" lon="9.890095"><ele>219.25</ele><time>2026-04-25T12:46:44.228Z</time></trkpt><trkpt lat="45.6383983" lon="9.8899217"><ele>219.0</ele><time>2026-04-25T12:46:45.228Z</time></trkpt><trkpt lat="45.6383783" lon="9.8897683"><ele>218.83333333333334</ele><time>2026-04-25T12:46:46.23Z</time></trkpt><trkpt lat="45.6383617" lon="9.8896317"><ele>218.66666666666669</ele><time>2026-04-25T12:46:47.228Z</time></trkpt><trkpt lat="45.6383517" lon="9.889505"><ele>218.5</ele><time>2026-04-25T12:46:48.232Z</time></trkpt><trkpt lat="45.638355" lon="9.889385"><ele>218.33333333333334</ele><time>2026-04-25T12:46:49.227Z</time></trkpt><trkpt lat="45.6383717" lon="9.8892633"><ele>218.16666666666669</ele><time>2026-04-25T12:46:50.229Z</time></trkpt><trkpt lat="45.638385" lon="9.8891417"><ele>218.0</ele><time>2026-04-25T12:46:51.229Z</time></trkpt><trkpt lat="45.638375" lon="9.88902"><ele>217.75</ele><time>2026-04-25T12:46:52.228Z</time></trkpt><trkpt lat="45.6383283" lon="9.8888883"><ele>217.5</ele><time>2026-04-25T12:46:53.228Z</time></trkpt><trkpt lat="45.6382717" lon="9.8887417"><ele>217.25</ele><time>2026-04-25T12:46:54.228Z</time></trkpt><trkpt lat="45.638225" lon="9.8885733"><ele>217.0</ele><time>2026-04-25T12:46:55.229Z</time></trkpt><trkpt lat="45.63819" lon="9.888385"><ele>217.0</ele><time>2026-04-25T12:46:56.228Z</time></trkpt><trkpt lat="45.638155" lon="9.8881767"><ele>217.0</ele><time>2026-04-25T12:46:57.23Z</time></trkpt><trkpt lat="45.63812" lon="9.88795"><ele>217.0</ele><time>2026-04-25T12:46:58.227Z</time></trkpt><trkpt lat="45.638085" lon="9.8877067"><ele>217.33333333333331</ele><time>2026-04-25T12:46:59.229Z</time></trkpt><trkpt lat="45.6380533" lon="9.8874583"><ele>217.66666666666669</ele><time>2026-04-25T12:47:00.229Z</time></trkpt><trkpt lat="45.63802" lon="9.8872267"><ele>218.0</ele><time>2026-04-25T12:47:01.229Z</time></trkpt><trkpt lat="45.637985" lon="9.8870133"><ele>218.0</ele><time>2026-04-25T12:47:02.23Z</time></trkpt><trkpt lat="45.637955" lon="9.88681"><ele>218.0</ele><time>2026-04-25T12:47:03.228Z</time></trkpt><trkpt lat="45.6379283" lon="9.8866283"><ele>218.0</ele><time>2026-04-25T12:47:04.229Z</time></trkpt><trkpt lat="45.637905" lon="9.88647"><ele>218.0</ele><time>2026-04-25T12:47:05.229Z</time></trkpt><trkpt lat="45.6378867" lon="9.8863283"><ele>217.8</ele><time>2026-04-25T12:47:06.231Z</time></trkpt><trkpt lat="45.6378783" lon="9.8861967"><ele>217.60000000000002</ele><time>2026-04-25T12:47:07.228Z</time></trkpt><trkpt lat="45.6378833" lon="9.886065"><ele>217.39999999999998</ele><time>2026-04-25T12:47:08.229Z</time></trkpt><trkpt lat="45.6379167" lon="9.88593"><ele>217.2</ele><time>2026-04-25T12:47:09.229Z</time></trkpt><trkpt lat="45.6379517" lon="9.8857917"><ele>217.0</ele><time>2026-04-25T12:47:10.227Z</time></trkpt><trkpt lat="45.63797" lon="9.885655"><ele>216.6</ele><time>2026-04-25T12:47:11.228Z</time></trkpt><trkpt lat="45.63796" lon="9.885525"><ele>216.2</ele><time>2026-04-25T12:47:12.228Z</time></trkpt><trkpt lat="45.6379217" lon="9.885405"><ele>215.8</ele><time>2026-04-25T12:47:13.228Z</time></trkpt><trkpt lat="45.6378517" lon="9.8852917"><ele>215.4</ele><time>2026-04-25T12:47:14.229Z</time></trkpt><trkpt lat="45.637785" lon="9.88518"><ele>215.0</ele><time>2026-04-25T12:47:15.228Z</time></trkpt><trkpt lat="45.6377283" lon="9.885065"><ele>214.75</ele><time>2026-04-25T12:47:16.229Z</time></trkpt><trkpt lat="45.637695" lon="9.8849333"><ele>214.5</ele><time>2026-04-25T12:47:17.228Z</time></trkpt><trkpt lat="45.6376717" lon="9.8847833"><ele>214.25</ele><time>2026-04-25T12:47:18.23Z</time></trkpt><trkpt lat="45.63765" lon="9.88461"><ele>214.0</ele><time>2026-04-25T12:47:19.228Z</time></trkpt><trkpt lat="45.637625" lon="9.8844167"><ele>213.66666666666666</ele><time>2026-04-25T12:47:20.23Z</time></trkpt><trkpt lat="45.6376" lon="9.8842067"><ele>213.33333333333331</ele><time>2026-04-25T12:47:21.228Z</time></trkpt><trkpt lat="45.6375683" lon="9.883985"><ele>213.0</ele><time>2026-04-25T12:47:22.23Z</time></trkpt><trkpt lat="45.6375367" lon="9.8837633"><ele>213.0</ele><time>2026-04-25T12:47:23.229Z</time></trkpt><trkpt lat="45.637505" lon="9.8835433"><ele>213.0</ele><time>2026-04-25T12:47:24.229Z</time></trkpt><trkpt lat="45.637475" lon="9.8833217"><ele>213.0</ele><time>2026-04-25T12:47:25.228Z</time></trkpt><trkpt lat="45.6374417" lon="9.8830983"><ele>213.0</ele><time>2026-04-25T12:47:26.228Z</time></trkpt><trkpt lat="45.6374067" lon="9.88287"><ele>213.0</ele><time>2026-04-25T12:47:27.228Z</time></trkpt><trkpt lat="45.6373717" lon="9.8826333"><ele>213.0</ele><time>2026-04-25T12:47:28.228Z</time></trkpt><trkpt lat="45.63734" lon="9.8823933"><ele>213.0</ele><time>2026-04-25T12:47:29.227Z</time></trkpt><trkpt lat="45.6373067" lon="9.8821517"><ele>213.0</ele><time>2026-04-25T12:47:30.228Z</time></trkpt><trkpt lat="45.6372733" lon="9.88191"><ele>213.0</ele><time>2026-04-25T12:47:31.227Z</time></trkpt><trkpt lat="45.63724" lon="9.8816683"><ele>213.0</ele><time>2026-04-25T12:47:32.229Z</time></trkpt><trkpt lat="45.6372067" lon="9.8814367"><ele>213.0</ele><time>2026-04-25T12:47:33.229Z</time></trkpt><trkpt lat="45.6371733" lon="9.8812183"><ele>213.0</ele><time>2026-04-25T12:47:34.229Z</time></trkpt><trkpt lat="45.6371433" lon="9.8810133"><ele>213.0</ele><time>2026-04-25T12:47:35.229Z</time></trkpt><trkpt lat="45.637115" lon="9.8808217"><ele>213.0</ele><time>2026-04-25T12:47:36.229Z</time></trkpt><trkpt lat="45.6370867" lon="9.8806417"><ele>213.0</ele><time>2026-04-25T12:47:37.229Z</time></trkpt><trkpt lat="45.6370617" lon="9.8804783"><ele>213.0</ele><time>2026-04-25T12:47:38.227Z</time></trkpt><trkpt lat="45.6370433" lon="9.8803433"><ele>213.0</ele><time>2026-04-25T12:47:39.229Z</time></trkpt><trkpt lat="45.637035" lon="9.880235"><ele>213.0</ele><time>2026-04-25T12:47:40.229Z</time></trkpt><trkpt lat="45.6370367" lon="9.8801383"><ele>213.0</ele><time>2026-04-25T12:47:41.228Z</time></trkpt><trkpt lat="45.6370333" lon="9.879955"><ele>213.0</ele><time>2026-04-25T12:47:43.23Z</time></trkpt><trkpt lat="45.6370017" lon="9.879845"><ele>213.0</ele><time>2026-04-25T12:47:44.228Z</time></trkpt><trkpt lat="45.6369633" lon="9.8797283"><ele>213.0</ele><time>2026-04-25T12:47:45.229Z</time></trkpt><trkpt lat="45.6369283" lon="9.8796067"><ele>212.83333333333334</ele><time>2026-04-25T12:47:46.228Z</time></trkpt><trkpt lat="45.6368983" lon="9.8794767"><ele>212.66666666666669</ele><time>2026-04-25T12:47:47.23Z</time></trkpt><trkpt lat="45.63688" lon="9.87935"><ele>212.5</ele><time>2026-04-25T12:47:48.228Z</time></trkpt><trkpt lat="45.6368633" lon="9.8792383"><ele>212.33333333333334</ele><time>2026-04-25T12:47:49.228Z</time></trkpt><trkpt lat="45.6368483" lon="9.8791233"><ele>212.16666666666669</ele><time>2026-04-25T12:47:50.229Z</time></trkpt><trkpt lat="45.63683" lon="9.879"><ele>212.0</ele><time>2026-04-25T12:47:51.229Z</time></trkpt><trkpt lat="45.63681" lon="9.878865"><ele>212.0</ele><time>2026-04-25T12:47:52.229Z</time></trkpt><trkpt lat="45.6367883" lon="9.87872"><ele>212.0</ele><time>2026-04-25T12:47:53.23Z</time></trkpt><trkpt lat="45.6367617" lon="9.8785583"><ele>212.0</ele><time>2026-04-25T12:47:54.229Z</time></trkpt><trkpt lat="45.6367283" lon="9.878375"><ele>212.0</ele><time>2026-04-25T12:47:55.228Z</time></trkpt><trkpt lat="45.6366933" lon="9.8781683"><ele>212.0</ele><time>2026-04-25T12:47:56.228Z</time></trkpt><trkpt lat="45.63666" lon="9.8779433"><ele>212.0</ele><time>2026-04-25T12:47:57.23Z</time></trkpt><trkpt lat="45.636635" lon="9.8777083"><ele>212.0</ele><time>2026-04-25T12:47:58.228Z</time></trkpt><trkpt lat="45.6366083" lon="9.8774683"><ele>212.0</ele><time>2026-04-25T12:47:59.229Z</time></trkpt><trkpt lat="45.6365817" lon="9.8772383"><ele>212.0</ele><time>2026-04-25T12:48:00.228Z</time></trkpt><trkpt lat="45.6365583" lon="9.877025"><ele>212.0</ele><time>2026-04-25T12:48:01.228Z</time></trkpt><trkpt lat="45.636535" lon="9.8768217"><ele>211.75</ele><time>2026-04-25T12:48:02.228Z</time></trkpt><trkpt lat="45.6365167" lon="9.8766333"><ele>211.5</ele><time>2026-04-25T12:48:03.228Z</time></trkpt><trkpt lat="45.6365033" lon="9.8764517"><ele>211.25</ele><time>2026-04-25T12:48:04.229Z</time></trkpt><trkpt lat="45.6364917" lon="9.87628"><ele>211.0</ele><time>2026-04-25T12:48:05.23Z</time></trkpt><trkpt lat="45.6364733" lon="9.8761217"><ele>211.0</ele><time>2026-04-25T12:48:06.229Z</time></trkpt><trkpt lat="45.6364567" lon="9.8759733"><ele>211.0</ele><time>2026-04-25T12:48:07.228Z</time></trkpt><trkpt lat="45.63644" lon="9.8758333"><ele>211.0</ele><time>2026-04-25T12:48:08.228Z</time></trkpt><trkpt lat="45.63642" lon="9.8756917"><ele>211.0</ele><time>2026-04-25T12:48:09.229Z</time></trkpt><trkpt lat="45.6363983" lon="9.8755467"><ele>211.0</ele><time>2026-04-25T12:48:10.229Z</time></trkpt><trkpt lat="45.6363783" lon="9.8754017"><ele>211.0</ele><time>2026-04-25T12:48:11.23Z</time></trkpt><trkpt lat="45.6363567" lon="9.8752617"><ele>211.0</ele><time>2026-04-25T12:48:12.23Z</time></trkpt><trkpt lat="45.636335" lon="9.8751233"><ele>211.0</ele><time>2026-04-25T12:48:13.229Z</time></trkpt><trkpt lat="45.63631" lon="9.8749833"><ele>211.0</ele><time>2026-04-25T12:48:14.23Z</time></trkpt><trkpt lat="45.6362867" lon="9.8748383"><ele>211.0</ele><time>2026-04-25T12:48:15.23Z</time></trkpt><trkpt lat="45.6362633" lon="9.8746917"><ele>211.0</ele><time>2026-04-25T12:48:16.229Z</time></trkpt><trkpt lat="45.63624" lon="9.8745417"><ele>211.0</ele><time>2026-04-25T12:48:17.23Z</time></trkpt><trkpt lat="45.6362167" lon="9.8743867"><ele>211.0</ele><time>2026-04-25T12:48:18.231Z</time></trkpt><trkpt lat="45.6361917" lon="9.87423"><ele>211.0</ele><time>2026-04-25T12:48:19.232Z</time></trkpt><trkpt lat="45.6361733" lon="9.87408"><ele>211.0</ele><time>2026-04-25T12:48:20.23Z</time></trkpt><trkpt lat="45.6361533" lon="9.8739417"><ele>210.83333333333331</ele><time>2026-04-25T12:48:21.23Z</time></trkpt><trkpt lat="45.6361383" lon="9.87381"><ele>210.66666666666666</ele><time>2026-04-25T12:48:22.228Z</time></trkpt><trkpt lat="45.636125" lon="9.8736833"><ele>210.5</ele><time>2026-04-25T12:48:23.23Z</time></trkpt><trkpt lat="45.6361083" lon="9.8735633"><ele>210.33333333333331</ele><time>2026-04-25T12:48:24.23Z</time></trkpt><trkpt lat="45.6360917" lon="9.8734483"><ele>210.16666666666666</ele><time>2026-04-25T12:48:25.23Z</time></trkpt><trkpt lat="45.6360733" lon="9.8733433"><ele>210.0</ele><time>2026-04-25T12:48:26.231Z</time></trkpt><trkpt lat="45.6360583" lon="9.8732483"><ele>209.8</ele><time>2026-04-25T12:48:27.23Z</time></trkpt><trkpt lat="45.636045" lon="9.87316"><ele>209.6</ele><time>2026-04-25T12:48:28.23Z</time></trkpt><trkpt lat="45.6360267" lon="9.873005"><ele>209.39999999999998</ele><time>2026-04-25T12:48:30.231Z</time></trkpt><trkpt lat="45.6360117" lon="9.8728783"><ele>209.2</ele><time>2026-04-25T12:48:32.229Z</time></trkpt><trkpt lat="45.6359967" lon="9.8727417"><ele>209.0</ele><time>2026-04-25T12:48:34.23Z</time></trkpt><trkpt lat="45.6359867" lon="9.87258"><ele>209.0</ele><time>2026-04-25T12:48:36.229Z</time></trkpt><trkpt lat="45.6359833" lon="9.8724833"><ele>209.0</ele><time>2026-04-25T12:48:37.229Z</time></trkpt><trkpt lat="45.6359817" lon="9.8723883"><ele>209.0</ele><time>2026-04-25T12:48:38.23Z</time></trkpt><trkpt lat="45.635985" lon="9.8722167"><ele>209.0</ele><time>2026-04-25T12:48:40.23Z</time></trkpt><trkpt lat="45.63599" lon="9.8720517"><ele>209.0</ele><time>2026-04-25T12:48:42.228Z</time></trkpt><trkpt lat="45.6360033" lon="9.8718683"><ele>209.16666666666669</ele><time>2026-04-25T12:48:44.229Z</time></trkpt><trkpt lat="45.6360117" lon="9.8717683"><ele>209.33333333333334</ele><time>2026-04-25T12:48:45.228Z</time></trkpt><trkpt lat="45.636025" lon="9.8716567"><ele>209.5</ele><time>2026-04-25T12:48:46.227Z</time></trkpt><trkpt lat="45.6360367" lon="9.8715367"><ele>209.66666666666669</ele><time>2026-04-25T12:48:47.228Z</time></trkpt><trkpt lat="45.6360483" lon="9.8714167"><ele>209.83333333333334</ele><time>2026-04-25T12:48:48.229Z</time></trkpt><trkpt lat="45.6360567" lon="9.871305"><ele>210.0</ele><time>2026-04-25T12:48:49.228Z</time></trkpt><trkpt lat="45.636065" lon="9.8712067"><ele>210.0</ele><time>2026-04-25T12:48:50.229Z</time></trkpt><trkpt lat="45.6360733" lon="9.8711133"><ele>210.0</ele><time>2026-04-25T12:48:51.229Z</time></trkpt><trkpt lat="45.6360783" lon="9.87102"><ele>210.0</ele><time>2026-04-25T12:48:52.229Z</time></trkpt><trkpt lat="45.636085" lon="9.8709267"><ele>210.0</ele><time>2026-04-25T12:48:53.228Z</time></trkpt><trkpt lat="45.636095" lon="9.8708267"><ele>210.0</ele><time>2026-04-25T12:48:54.232Z</time></trkpt><trkpt lat="45.6361083" lon="9.8707233"><ele>210.0</ele><time>2026-04-25T12:48:55.229Z</time></trkpt><trkpt lat="45.636115" lon="9.8706167"><ele>210.0</ele><time>2026-04-25T12:48:56.229Z</time></trkpt><trkpt lat="45.6361217" lon="9.870515"><ele>210.0</ele><time>2026-04-25T12:48:57.23Z</time></trkpt><trkpt lat="45.6361333" lon="9.8704117"><ele>210.0</ele><time>2026-04-25T12:48:58.229Z</time></trkpt><trkpt lat="45.6361433" lon="9.8702967"><ele>210.0</ele><time>2026-04-25T12:48:59.228Z</time></trkpt><trkpt lat="45.6361533" lon="9.8701783"><ele>210.0</ele><time>2026-04-25T12:49:00.229Z</time></trkpt><trkpt lat="45.63616" lon="9.8700617"><ele>210.0</ele><time>2026-04-25T12:49:01.228Z</time></trkpt><trkpt lat="45.6361667" lon="9.8699517"><ele>210.0</ele><time>2026-04-25T12:49:02.227Z</time></trkpt><trkpt lat="45.636175" lon="9.8698517"><ele>211.0</ele><time>2026-04-25T12:49:03.229Z</time></trkpt><trkpt lat="45.63618" lon="9.8697567"><ele>212.0</ele><time>2026-04-25T12:49:04.229Z</time></trkpt><trkpt lat="45.6361867" lon="9.8696583"><ele>213.0</ele><time>2026-04-25T12:49:05.229Z</time></trkpt><trkpt lat="45.63619" lon="9.8695633"><ele>214.0</ele><time>2026-04-25T12:49:06.23Z</time></trkpt><trkpt lat="45.6361933" lon="9.86947"><ele>215.0</ele><time>2026-04-25T12:49:07.228Z</time></trkpt><trkpt lat="45.6362" lon="9.8693083"><ele>216.0</ele><time>2026-04-25T12:49:09.231Z</time></trkpt><trkpt lat="45.6362283" lon="9.869215"><ele>216.0</ele><time>2026-04-25T12:49:11.232Z</time></trkpt><trkpt lat="45.6362983" lon="9.8692117"><ele>216.0</ele><time>2026-04-25T12:49:13.228Z</time></trkpt><trkpt lat="45.636355" lon="9.8692533"><ele>216.0</ele><time>2026-04-25T12:49:14.229Z</time></trkpt><trkpt lat="45.6364167" lon="9.8692933"><ele>216.0</ele><time>2026-04-25T12:49:15.229Z</time></trkpt><trkpt lat="45.636485" lon="9.869345"><ele>216.0</ele><time>2026-04-25T12:49:16.228Z</time></trkpt><trkpt lat="45.6365633" lon="9.8694067"><ele>216.0</ele><time>2026-04-25T12:49:17.228Z</time></trkpt><trkpt lat="45.6366567" lon="9.869475"><ele>216.5</ele><time>2026-04-25T12:49:18.231Z</time></trkpt><trkpt lat="45.636765" lon="9.8695333"><ele>217.0</ele><time>2026-04-25T12:49:19.23Z</time></trkpt><trkpt lat="45.6368967" lon="9.8695767"><ele>217.5</ele><time>2026-04-25T12:49:20.23Z</time></trkpt><trkpt lat="45.6370383" lon="9.869605"><ele>218.0</ele><time>2026-04-25T12:49:21.232Z</time></trkpt><trkpt lat="45.6371817" lon="9.8696317"><ele>220.0</ele><time>2026-04-25T12:49:22.23Z</time></trkpt><trkpt lat="45.63732" lon="9.8696583"><ele>222.0</ele><time>2026-04-25T12:49:23.23Z</time></trkpt><trkpt lat="45.6374533" lon="9.86968"><ele>224.0</ele><time>2026-04-25T12:49:24.23Z</time></trkpt><trkpt lat="45.6375633" lon="9.869695"><ele>226.0</ele><time>2026-04-25T12:49:25.228Z</time></trkpt><trkpt lat="45.6376567" lon="9.8696983"><ele>226.0</ele><time>2026-04-25T12:49:26.229Z</time></trkpt><trkpt lat="45.6377517" lon="9.8696933"><ele>226.00000000000003</ele><time>2026-04-25T12:49:27.231Z</time></trkpt><trkpt lat="45.6378517" lon="9.869675"><ele>226.00000000000003</ele><time>2026-04-25T12:49:28.23Z</time></trkpt><trkpt lat="45.637955" lon="9.869645"><ele>226.0</ele><time>2026-04-25T12:49:29.229Z</time></trkpt><trkpt lat="45.6380717" lon="9.86961"><ele>226.0</ele><time>2026-04-25T12:49:30.235Z</time></trkpt><trkpt lat="45.63818" lon="9.8695617"><ele>225.75</ele><time>2026-04-25T12:49:31.228Z</time></trkpt><trkpt lat="45.638295" lon="9.869525"><ele>225.5</ele><time>2026-04-25T12:49:32.228Z</time></trkpt><trkpt lat="45.6384" lon="9.8694967"><ele>225.25</ele><time>2026-04-25T12:49:33.229Z</time></trkpt><trkpt lat="45.6385117" lon="9.8694733"><ele>225.0</ele><time>2026-04-25T12:49:34.228Z</time></trkpt><trkpt lat="45.638625" lon="9.8694517"><ele>224.5</ele><time>2026-04-25T12:49:35.227Z</time></trkpt><trkpt lat="45.6387433" lon="9.8694367"><ele>224.0</ele><time>2026-04-25T12:49:36.227Z</time></trkpt><trkpt lat="45.6388667" lon="9.8694417"><ele>223.5</ele><time>2026-04-25T12:49:37.227Z</time></trkpt><trkpt lat="45.6389833" lon="9.8694533"><ele>223.0</ele><time>2026-04-25T12:49:38.227Z</time></trkpt><trkpt lat="45.6391067" lon="9.8694717"><ele>223.0</ele><time>2026-04-25T12:49:39.227Z</time></trkpt><trkpt lat="45.63924" lon="9.8694967"><ele>223.0</ele><time>2026-04-25T12:49:40.227Z</time></trkpt><trkpt lat="45.639385" lon="9.86953"><ele>223.0</ele><time>2026-04-25T12:49:41.23Z</time></trkpt><trkpt lat="45.639535" lon="9.86956"><ele>223.0</ele><time>2026-04-25T12:49:42.227Z</time></trkpt><trkpt lat="45.63969" lon="9.8695833"><ele>224.0</ele><time>2026-04-25T12:49:43.228Z</time></trkpt><trkpt lat="45.6398367" lon="9.8695917"><ele>225.0</ele><time>2026-04-25T12:49:44.227Z</time></trkpt><trkpt lat="45.6399783" lon="9.8695817"><ele>226.0</ele><time>2026-04-25T12:49:45.227Z</time></trkpt><trkpt lat="45.6401183" lon="9.8695517"><ele>227.0</ele><time>2026-04-25T12:49:46.228Z</time></trkpt><trkpt lat="45.6402617" lon="9.869505"><ele>227.0</ele><time>2026-04-25T12:49:47.227Z</time></trkpt><trkpt lat="45.640405" lon="9.8694383"><ele>227.0</ele><time>2026-04-25T12:49:48.229Z</time></trkpt><trkpt lat="45.6405417" lon="9.8693683"><ele>227.0</ele><time>2026-04-25T12:49:49.227Z</time></trkpt><trkpt lat="45.6406583" lon="9.8692983"><ele>227.0</ele><time>2026-04-25T12:49:50.229Z</time></trkpt><trkpt lat="45.640765" lon="9.86923"><ele>228.8</ele><time>2026-04-25T12:49:51.23Z</time></trkpt><trkpt lat="45.6408583" lon="9.8691733"><ele>230.6</ele><time>2026-04-25T12:49:52.228Z</time></trkpt><trkpt lat="45.640935" lon="9.8691367"><ele>232.40000000000003</ele><time>2026-04-25T12:49:53.23Z</time></trkpt><trkpt lat="45.6410017" lon="9.8691133"><ele>234.20000000000002</ele><time>2026-04-25T12:49:54.227Z</time></trkpt><trkpt lat="45.6411033" lon="9.8691283"><ele>236.0</ele><time>2026-04-25T12:49:56.227Z</time></trkpt><trkpt lat="45.641205" lon="9.869135"><ele>236.00000000000003</ele><time>2026-04-25T12:49:58.227Z</time></trkpt><trkpt lat="45.6412583" lon="9.8690417"><ele>236.0</ele><time>2026-04-25T12:50:00.228Z</time></trkpt><trkpt lat="45.64132" lon="9.8688983"><ele>236.0</ele><time>2026-04-25T12:50:02.229Z</time></trkpt><trkpt lat="45.6413783" lon="9.8688483"><ele>236.0</ele><time>2026-04-25T12:50:03.228Z</time></trkpt><trkpt lat="45.6414533" lon="9.8688083"><ele>236.00000000000003</ele><time>2026-04-25T12:50:04.228Z</time></trkpt><trkpt lat="45.6415433" lon="9.868785"><ele>236.0</ele><time>2026-04-25T12:50:05.228Z</time></trkpt><trkpt lat="45.641645" lon="9.8687583"><ele>236.0</ele><time>2026-04-25T12:50:06.227Z</time></trkpt><trkpt lat="45.6417533" lon="9.8687317"><ele>236.0</ele><time>2026-04-25T12:50:07.227Z</time></trkpt><trkpt lat="45.64187" lon="9.8687067"><ele>236.0</ele><time>2026-04-25T12:50:08.228Z</time></trkpt><trkpt lat="45.6419933" lon="9.868685"><ele>236.0</ele><time>2026-04-25T12:50:09.228Z</time></trkpt><trkpt lat="45.6421083" lon="9.868665"><ele>237.25</ele><time>2026-04-25T12:50:10.229Z</time></trkpt><trkpt lat="45.6422167" lon="9.868635"><ele>238.5</ele><time>2026-04-25T12:50:11.228Z</time></trkpt><trkpt lat="45.642325" lon="9.8685833"><ele>239.75</ele><time>2026-04-25T12:50:12.227Z</time></trkpt><trkpt lat="45.6424333" lon="9.8685183"><ele>241.0</ele><time>2026-04-25T12:50:13.227Z</time></trkpt><trkpt lat="45.6425417" lon="9.86844"><ele>245.25</ele><time>2026-04-25T12:50:14.228Z</time></trkpt><trkpt lat="45.6426517" lon="9.8683467"><ele>249.5</ele><time>2026-04-25T12:50:15.228Z</time></trkpt><trkpt lat="45.6427617" lon="9.86825"><ele>253.75</ele><time>2026-04-25T12:50:16.228Z</time></trkpt><trkpt lat="45.6428683" lon="9.8681567"><ele>258.0</ele><time>2026-04-25T12:50:17.227Z</time></trkpt><trkpt lat="45.6429583" lon="9.8680667"><ele>258.4</ele><time>2026-04-25T12:50:18.228Z</time></trkpt><trkpt lat="45.6430383" lon="9.8679667"><ele>258.8</ele><time>2026-04-25T12:50:19.229Z</time></trkpt><trkpt lat="45.64311" lon="9.86785"><ele>259.2</ele><time>2026-04-25T12:50:20.228Z</time></trkpt><trkpt lat="45.6431767" lon="9.8677267"><ele>259.6</ele><time>2026-04-25T12:50:21.229Z</time></trkpt><trkpt lat="45.64324" lon="9.867615"><ele>260.0</ele><time>2026-04-25T12:50:22.229Z</time></trkpt><trkpt lat="45.643305" lon="9.867515"><ele>261.6</ele><time>2026-04-25T12:50:23.229Z</time></trkpt><trkpt lat="45.6433833" lon="9.86743"><ele>263.2</ele><time>2026-04-25T12:50:24.228Z</time></trkpt><trkpt lat="45.6434767" lon="9.8673667"><ele>264.8</ele><time>2026-04-25T12:50:25.229Z</time></trkpt><trkpt lat="45.643585" lon="9.8673267"><ele>266.4</ele><time>2026-04-25T12:50:26.23Z</time></trkpt><trkpt lat="45.6436967" lon="9.8673067"><ele>268.0</ele><time>2026-04-25T12:50:27.228Z</time></trkpt><trkpt lat="45.6438133" lon="9.8672983"><ele>270.4</ele><time>2026-04-25T12:50:28.227Z</time></trkpt><trkpt lat="45.6439233" lon="9.8673017"><ele>272.8</ele><time>2026-04-25T12:50:29.229Z</time></trkpt><trkpt lat="45.64403" lon="9.86732"><ele>275.2</ele><time>2026-04-25T12:50:30.227Z</time></trkpt><trkpt lat="45.6441167" lon="9.867345"><ele>277.6</ele><time>2026-04-25T12:50:31.227Z</time></trkpt><trkpt lat="45.6441983" lon="9.867385"><ele>280.0</ele><time>2026-04-25T12:50:32.228Z</time></trkpt><trkpt lat="45.64427" lon="9.8674433"><ele>280.0</ele><time>2026-04-25T12:50:33.23Z</time></trkpt><trkpt lat="45.644345" lon="9.8675083"><ele>280.0</ele><time>2026-04-25T12:50:34.228Z</time></trkpt><trkpt lat="45.6444317" lon="9.8675733"><ele>280.0</ele><time>2026-04-25T12:50:35.227Z</time></trkpt><trkpt lat="45.6445217" lon="9.8676317"><ele>280.0</ele><time>2026-04-25T12:50:36.228Z</time></trkpt><trkpt lat="45.644605" lon="9.86768"><ele>280.0</ele><time>2026-04-25T12:50:37.228Z</time></trkpt><trkpt lat="45.6446933" lon="9.8677267"><ele>280.0</ele><time>2026-04-25T12:50:38.228Z</time></trkpt><trkpt lat="45.64479" lon="9.867775"><ele>280.0</ele><time>2026-04-25T12:50:39.23Z</time></trkpt><trkpt lat="45.6448917" lon="9.86782"><ele>280.0</ele><time>2026-04-25T12:50:40.227Z</time></trkpt><trkpt lat="45.6450033" lon="9.867865"><ele>280.0</ele><time>2026-04-25T12:50:41.229Z</time></trkpt><trkpt lat="45.6451167" lon="9.8679217"><ele>280.0</ele><time>2026-04-25T12:50:42.229Z</time></trkpt><trkpt lat="45.645235" lon="9.8679817"><ele>283.4</ele><time>2026-04-25T12:50:43.231Z</time></trkpt><trkpt lat="45.6453467" lon="9.8680417"><ele>286.8</ele><time>2026-04-25T12:50:44.227Z</time></trkpt><trkpt lat="45.6454433" lon="9.8681017"><ele>290.2</ele><time>2026-04-25T12:50:45.227Z</time></trkpt><trkpt lat="45.6455283" lon="9.86817"><ele>293.6</ele><time>2026-04-25T12:50:46.228Z</time></trkpt><trkpt lat="45.6456017" lon="9.868255"><ele>297.0</ele><time>2026-04-25T12:50:47.227Z</time></trkpt><trkpt lat="45.6456717" lon="9.868355"><ele>295.6</ele><time>2026-04-25T12:50:48.227Z</time></trkpt><trkpt lat="45.6457383" lon="9.8684717"><ele>294.2</ele><time>2026-04-25T12:50:49.227Z</time></trkpt><trkpt lat="45.6458017" lon="9.8685917"><ele>292.8</ele><time>2026-04-25T12:50:50.227Z</time></trkpt><trkpt lat="45.64586" lon="9.8686983"><ele>291.4</ele><time>2026-04-25T12:50:51.228Z</time></trkpt><trkpt lat="45.6459083" lon="9.8687883"><ele>290.0</ele><time>2026-04-25T12:50:52.228Z</time></trkpt><trkpt lat="45.6459583" lon="9.8688633"><ele>290.0</ele><time>2026-04-25T12:50:53.227Z</time></trkpt><trkpt lat="45.6460267" lon="9.8689067"><ele>290.0</ele><time>2026-04-25T12:50:54.228Z</time></trkpt><trkpt lat="45.6461083" lon="9.8689267"><ele>290.0</ele><time>2026-04-25T12:50:55.228Z</time></trkpt><trkpt lat="45.6462083" lon="9.868945"><ele>290.0</ele><time>2026-04-25T12:50:56.228Z</time></trkpt><trkpt lat="45.6463117" lon="9.8689583"><ele>290.0</ele><time>2026-04-25T12:50:57.227Z</time></trkpt><trkpt lat="45.6464" lon="9.8689717"><ele>292.1666666666667</ele><time>2026-04-25T12:50:58.227Z</time></trkpt><trkpt lat="45.6464733" lon="9.8689733"><ele>294.33333333333337</ele><time>2026-04-25T12:50:59.23Z</time></trkpt><trkpt lat="45.6465383" lon="9.8689583"><ele>296.5</ele><time>2026-04-25T12:51:00.227Z</time></trkpt><trkpt lat="45.6466133" lon="9.8688767"><ele>298.6666666666667</ele><time>2026-04-25T12:51:02.239Z</time></trkpt><trkpt lat="45.6466133" lon="9.8687217"><ele>300.8333333333333</ele><time>2026-04-25T12:51:04.229Z</time></trkpt><trkpt lat="45.6465633" lon="9.86865"><ele>303.0</ele><time>2026-04-25T12:51:05.232Z</time></trkpt><trkpt lat="45.6464967" lon="9.868585"><ele>303.0</ele><time>2026-04-25T12:51:06.227Z</time></trkpt><trkpt lat="45.646425" lon="9.86852"><ele>303.0</ele><time>2026-04-25T12:51:07.228Z</time></trkpt><trkpt lat="45.64637" lon="9.868445"><ele>303.0</ele><time>2026-04-25T12:51:08.228Z</time></trkpt><trkpt lat="45.6463517" lon="9.86832"><ele>303.0</ele><time>2026-04-25T12:51:10.228Z</time></trkpt><trkpt lat="45.64645" lon="9.8682217"><ele>303.0</ele><time>2026-04-25T12:51:12.227Z</time></trkpt><trkpt lat="45.6465233" lon="9.8681617"><ele>304.8333333333333</ele><time>2026-04-25T12:51:13.229Z</time></trkpt><trkpt lat="45.6465967" lon="9.8681017"><ele>306.6666666666667</ele><time>2026-04-25T12:51:14.227Z</time></trkpt><trkpt lat="45.6466717" lon="9.8680333"><ele>308.5</ele><time>2026-04-25T12:51:15.229Z</time></trkpt><trkpt lat="45.6467433" lon="9.86798"><ele>310.33333333333337</ele><time>2026-04-25T12:51:16.228Z</time></trkpt><trkpt lat="45.6468033" lon="9.86795"><ele>312.1666666666667</ele><time>2026-04-25T12:51:17.227Z</time></trkpt><trkpt lat="45.6469017" lon="9.867975"><ele>314.0</ele><time>2026-04-25T12:51:19.228Z</time></trkpt><trkpt lat="45.6470033" lon="9.8680617"><ele>314.4</ele><time>2026-04-25T12:51:21.228Z</time></trkpt><trkpt lat="45.6470733" lon="9.8681417"><ele>314.79999999999995</ele><time>2026-04-25T12:51:22.227Z</time></trkpt><trkpt lat="45.6471583" lon="9.8682233"><ele>315.20000000000005</ele><time>2026-04-25T12:51:23.227Z</time></trkpt><trkpt lat="45.64724" lon="9.8683167"><ele>315.6</ele><time>2026-04-25T12:51:24.229Z</time></trkpt><trkpt lat="45.6473167" lon="9.8684267"><ele>316.0</ele><time>2026-04-25T12:51:25.228Z</time></trkpt><trkpt lat="45.6473767" lon="9.868535"><ele>316.0</ele><time>2026-04-25T12:51:26.227Z</time></trkpt><trkpt lat="45.647425" lon="9.868635"><ele>316.0</ele><time>2026-04-25T12:51:27.229Z</time></trkpt><trkpt lat="45.6474733" lon="9.8687217"><ele>316.0</ele><time>2026-04-25T12:51:28.228Z</time></trkpt><trkpt lat="45.6475233" lon="9.8688117"><ele>316.0</ele><time>2026-04-25T12:51:29.228Z</time></trkpt><trkpt lat="45.6475833" lon="9.86891"><ele>316.0</ele><time>2026-04-25T12:51:30.228Z</time></trkpt><trkpt lat="45.6476517" lon="9.8690133"><ele>316.0</ele><time>2026-04-25T12:51:31.229Z</time></trkpt><trkpt lat="45.6477217" lon="9.8691133"><ele>316.0</ele><time>2026-04-25T12:51:32.228Z</time></trkpt><trkpt lat="45.64779" lon="9.8692217"><ele>316.0</ele><time>2026-04-25T12:51:33.228Z</time></trkpt><trkpt lat="45.6478533" lon="9.8693333"><ele>316.0</ele><time>2026-04-25T12:51:34.227Z</time></trkpt><trkpt lat="45.6479217" lon="9.8694433"><ele>316.0</ele><time>2026-04-25T12:51:35.23Z</time></trkpt><trkpt lat="45.6479933" lon="9.8695533"><ele>316.0</ele><time>2026-04-25T12:51:36.227Z</time></trkpt><trkpt lat="45.6480583" lon="9.8696583"><ele>315.66666666666663</ele><time>2026-04-25T12:51:37.228Z</time></trkpt><trkpt lat="45.6481167" lon="9.8697633"><ele>315.3333333333333</ele><time>2026-04-25T12:51:38.227Z</time></trkpt><trkpt lat="45.6481633" lon="9.8698667"><ele>315.0</ele><time>2026-04-25T12:51:39.228Z</time></trkpt><trkpt lat="45.648205" lon="9.869965"><ele>314.6666666666667</ele><time>2026-04-25T12:51:40.227Z</time></trkpt><trkpt lat="45.6482417" lon="9.87006"><ele>314.33333333333337</ele><time>2026-04-25T12:51:41.23Z</time></trkpt><trkpt lat="45.6482817" lon="9.8701617"><ele>314.0</ele><time>2026-04-25T12:51:42.228Z</time></trkpt><trkpt lat="45.648325" lon="9.8702667"><ele>314.0</ele><time>2026-04-25T12:51:43.227Z</time></trkpt><trkpt lat="45.648375" lon="9.8703683"><ele>314.0</ele><time>2026-04-25T12:51:44.227Z</time></trkpt><trkpt lat="45.6484367" lon="9.8704617"><ele>314.0</ele><time>2026-04-25T12:51:45.228Z</time></trkpt><trkpt lat="45.64851" lon="9.8705367"><ele>314.0</ele><time>2026-04-25T12:51:46.228Z</time></trkpt><trkpt lat="45.64859" lon="9.8706117"><ele>314.0</ele><time>2026-04-25T12:51:47.227Z</time></trkpt><trkpt lat="45.6486733" lon="9.8706867"><ele>314.2</ele><time>2026-04-25T12:51:48.227Z</time></trkpt><trkpt lat="45.6487567" lon="9.87077"><ele>314.4</ele><time>2026-04-25T12:51:49.229Z</time></trkpt><trkpt lat="45.6488367" lon="9.8708517"><ele>314.6</ele><time>2026-04-25T12:51:50.229Z</time></trkpt><trkpt lat="45.6489167" lon="9.87092"><ele>314.8</ele><time>2026-04-25T12:51:51.231Z</time></trkpt><trkpt lat="45.6489817" lon="9.87099"><ele>315.0</ele><time>2026-04-25T12:51:52.229Z</time></trkpt><trkpt lat="45.6490467" lon="9.87105"><ele>314.5</ele><time>2026-04-25T12:51:53.228Z</time></trkpt><trkpt lat="45.6491133" lon="9.8711083"><ele>314.0</ele><time>2026-04-25T12:51:54.23Z</time></trkpt><trkpt lat="45.64918" lon="9.8711617"><ele>313.5</ele><time>2026-04-25T12:51:55.229Z</time></trkpt><trkpt lat="45.64925" lon="9.87121"><ele>313.0</ele><time>2026-04-25T12:51:56.23Z</time></trkpt><trkpt lat="45.6493167" lon="9.87126"><ele>312.5</ele><time>2026-04-25T12:51:57.233Z</time></trkpt><trkpt lat="45.6493883" lon="9.871315"><ele>312.0</ele><time>2026-04-25T12:51:58.23Z</time></trkpt><trkpt lat="45.6494667" lon="9.8713683"><ele>312.0</ele><time>2026-04-25T12:51:59.229Z</time></trkpt><trkpt lat="45.6495483" lon="9.8714233"><ele>312.0</ele><time>2026-04-25T12:52:00.229Z</time></trkpt><trkpt lat="45.64963" lon="9.8714767"><ele>312.0</ele><time>2026-04-25T12:52:01.231Z</time></trkpt><trkpt lat="45.6496967" lon="9.8715417"><ele>312.0</ele><time>2026-04-25T12:52:02.229Z</time></trkpt><trkpt lat="45.6497517" lon="9.8716283"><ele>312.0</ele><time>2026-04-25T12:52:03.23Z</time></trkpt><trkpt lat="45.649805" lon="9.8717217"><ele>312.0</ele><time>2026-04-25T12:52:04.229Z</time></trkpt><trkpt lat="45.649865" lon="9.871825"><ele>312.0</ele><time>2026-04-25T12:52:05.23Z</time></trkpt><trkpt lat="45.6499317" lon="9.8719383"><ele>312.0</ele><time>2026-04-25T12:52:06.229Z</time></trkpt><trkpt lat="45.6500083" lon="9.87205"><ele>312.0</ele><time>2026-04-25T12:52:07.229Z</time></trkpt><trkpt lat="45.65008" lon="9.8721533"><ele>312.0</ele><time>2026-04-25T12:52:08.229Z</time></trkpt><trkpt lat="45.650145" lon="9.8722483"><ele>312.0</ele><time>2026-04-25T12:52:09.23Z</time></trkpt><trkpt lat="45.650205" lon="9.872315"><ele>312.0</ele><time>2026-04-25T12:52:10.23Z</time></trkpt><trkpt lat="45.650255" lon="9.8723817"><ele>312.0</ele><time>2026-04-25T12:52:11.231Z</time></trkpt><trkpt lat="45.6503017" lon="9.8724433"><ele>312.0</ele><time>2026-04-25T12:52:12.23Z</time></trkpt><trkpt lat="45.6503517" lon="9.8725017"><ele>312.0</ele><time>2026-04-25T12:52:13.229Z</time></trkpt><trkpt lat="45.6504017" lon="9.87257"><ele>312.0</ele><time>2026-04-25T12:52:14.23Z</time></trkpt><trkpt lat="45.65046" lon="9.872655"><ele>312.0</ele><time>2026-04-25T12:52:15.23Z</time></trkpt><trkpt lat="45.6505233" lon="9.8727567"><ele>312.0</ele><time>2026-04-25T12:52:16.23Z</time></trkpt><trkpt lat="45.6505933" lon="9.87287"><ele>314.5</ele><time>2026-04-25T12:52:17.229Z</time></trkpt><trkpt lat="45.6506717" lon="9.8729983"><ele>317.0</ele><time>2026-04-25T12:52:18.227Z</time></trkpt><trkpt lat="45.650755" lon="9.8731383"><ele>319.5</ele><time>2026-04-25T12:52:19.231Z</time></trkpt><trkpt lat="45.6508417" lon="9.8732833"><ele>322.0</ele><time>2026-04-25T12:52:20.228Z</time></trkpt><trkpt lat="45.650925" lon="9.8734367"><ele>322.5</ele><time>2026-04-25T12:52:21.228Z</time></trkpt><trkpt lat="45.6509917" lon="9.8736033"><ele>323.0</ele><time>2026-04-25T12:52:22.23Z</time></trkpt><trkpt lat="45.65105" lon="9.873785"><ele>323.5</ele><time>2026-04-25T12:52:23.23Z</time></trkpt><trkpt lat="45.6510933" lon="9.8739783"><ele>324.0</ele><time>2026-04-25T12:52:24.229Z</time></trkpt><trkpt lat="45.65112" lon="9.8741767"><ele>330.5</ele><time>2026-04-25T12:52:25.229Z</time></trkpt><trkpt lat="45.65114" lon="9.874365"><ele>337.0</ele><time>2026-04-25T12:52:26.23Z</time></trkpt><trkpt lat="45.6511517" lon="9.8745417"><ele>343.5</ele><time>2026-04-25T12:52:27.231Z</time></trkpt><trkpt lat="45.651175" lon="9.8747117"><ele>350.0</ele><time>2026-04-25T12:52:28.23Z</time></trkpt><trkpt lat="45.6512117" lon="9.8748783"><ele>350.0</ele><time>2026-04-25T12:52:29.229Z</time></trkpt><trkpt lat="45.6512633" lon="9.8750417"><ele>350.0</ele><time>2026-04-25T12:52:30.229Z</time></trkpt><trkpt lat="45.6513283" lon="9.875195"><ele>350.0</ele><time>2026-04-25T12:52:31.231Z</time></trkpt><trkpt lat="45.651395" lon="9.8753283"><ele>350.0</ele><time>2026-04-25T12:52:32.229Z</time></trkpt><trkpt lat="45.6514617" lon="9.87546"><ele>350.4</ele><time>2026-04-25T12:52:33.231Z</time></trkpt><trkpt lat="45.6515117" lon="9.87559"><ele>350.8</ele><time>2026-04-25T12:52:34.23Z</time></trkpt><trkpt lat="45.6515283" lon="9.87573"><ele>351.20000000000005</ele><time>2026-04-25T12:52:35.227Z</time></trkpt><trkpt lat="45.6515267" lon="9.8758783"><ele>351.6</ele><time>2026-04-25T12:52:36.227Z</time></trkpt><trkpt lat="45.6515167" lon="9.8760383"><ele>352.0</ele><time>2026-04-25T12:52:37.229Z</time></trkpt><trkpt lat="45.6515017" lon="9.876205"><ele>353.5</ele><time>2026-04-25T12:52:38.229Z</time></trkpt><trkpt lat="45.6514817" lon="9.8763767"><ele>355.0</ele><time>2026-04-25T12:52:39.233Z</time></trkpt><trkpt lat="45.651465" lon="9.8765383"><ele>356.5</ele><time>2026-04-25T12:52:40.229Z</time></trkpt><trkpt lat="45.6514417" lon="9.87672"><ele>358.0</ele><time>2026-04-25T12:52:41.23Z</time></trkpt><trkpt lat="45.6514217" lon="9.8768917"><ele>358.25</ele><time>2026-04-25T12:52:42.229Z</time></trkpt><trkpt lat="45.6513983" lon="9.87707"><ele>358.5</ele><time>2026-04-25T12:52:43.229Z</time></trkpt><trkpt lat="45.6513733" lon="9.87724"><ele>358.75</ele><time>2026-04-25T12:52:44.23Z</time></trkpt><trkpt lat="45.6513517" lon="9.8773967"><ele>359.0</ele><time>2026-04-25T12:52:45.229Z</time></trkpt><trkpt lat="45.6513467" lon="9.8775567"><ele>357.75</ele><time>2026-04-25T12:52:46.228Z</time></trkpt><trkpt lat="45.6513667" lon="9.8777183"><ele>356.5</ele><time>2026-04-25T12:52:47.227Z</time></trkpt><trkpt lat="45.6514117" lon="9.8778767"><ele>355.25</ele><time>2026-04-25T12:52:48.23Z</time></trkpt><trkpt lat="45.6514733" lon="9.8780383"><ele>354.0</ele><time>2026-04-25T12:52:49.229Z</time></trkpt><trkpt lat="45.6515417" lon="9.87821"><ele>354.0</ele><time>2026-04-25T12:52:50.245Z</time></trkpt><trkpt lat="45.651615" lon="9.87839"><ele>354.0</ele><time>2026-04-25T12:52:51.231Z</time></trkpt><trkpt lat="45.65169" lon="9.8785767"><ele>354.0</ele><time>2026-04-25T12:52:52.229Z</time></trkpt><trkpt lat="45.651765" lon="9.878765"><ele>354.0</ele><time>2026-04-25T12:52:53.229Z</time></trkpt><trkpt lat="45.6518467" lon="9.8789567"><ele>352.75</ele><time>2026-04-25T12:52:54.229Z</time></trkpt><trkpt lat="45.6519233" lon="9.8791467"><ele>351.5</ele><time>2026-04-25T12:52:55.231Z</time></trkpt><trkpt lat="45.6519967" lon="9.87933"><ele>350.25</ele><time>2026-04-25T12:52:56.229Z</time></trkpt><trkpt lat="45.65206" lon="9.879505"><ele>349.0</ele><time>2026-04-25T12:52:57.229Z</time></trkpt><trkpt lat="45.6520967" lon="9.87968"><ele>355.25</ele><time>2026-04-25T12:52:58.244Z</time></trkpt><trkpt lat="45.652105" lon="9.8798633"><ele>361.5</ele><time>2026-04-25T12:52:59.229Z</time></trkpt><trkpt lat="45.6520933" lon="9.8800517"><ele>367.75</ele><time>2026-04-25T12:53:00.229Z</time></trkpt><trkpt lat="45.6520733" lon="9.880245"><ele>374.0</ele><time>2026-04-25T12:53:01.227Z</time></trkpt><trkpt lat="45.6520567" lon="9.8804317"><ele>374.75</ele><time>2026-04-25T12:53:02.228Z</time></trkpt><trkpt lat="45.652055" lon="9.8806167"><ele>375.5</ele><time>2026-04-25T12:53:03.228Z</time></trkpt><trkpt lat="45.6520733" lon="9.8808"><ele>376.25</ele><time>2026-04-25T12:53:04.229Z</time></trkpt><trkpt lat="45.6521017" lon="9.880985"><ele>377.0</ele><time>2026-04-25T12:53:05.228Z</time></trkpt><trkpt lat="45.6521417" lon="9.8811667"><ele>377.25</ele><time>2026-04-25T12:53:06.228Z</time></trkpt><trkpt lat="45.6521917" lon="9.8813383"><ele>377.5</ele><time>2026-04-25T12:53:07.227Z</time></trkpt><trkpt lat="45.6522567" lon="9.88148"><ele>377.75</ele><time>2026-04-25T12:53:08.229Z</time></trkpt><trkpt lat="45.6523283" lon="9.8816"><ele>378.0</ele><time>2026-04-25T12:53:09.228Z</time></trkpt><trkpt lat="45.652395" lon="9.8817083"><ele>379.3333333333333</ele><time>2026-04-25T12:53:10.228Z</time></trkpt><trkpt lat="45.652435" lon="9.8818233"><ele>380.66666666666663</ele><time>2026-04-25T12:53:11.231Z</time></trkpt><trkpt lat="45.65245" lon="9.8819367"><ele>382.0</ele><time>2026-04-25T12:53:12.229Z</time></trkpt><trkpt lat="45.6524433" lon="9.882045"><ele>383.3333333333333</ele><time>2026-04-25T12:53:13.23Z</time></trkpt><trkpt lat="45.6524167" lon="9.8821483"><ele>384.66666666666663</ele><time>2026-04-25T12:53:14.228Z</time></trkpt><trkpt lat="45.652375" lon="9.882235"><ele>386.0</ele><time>2026-04-25T12:53:15.232Z</time></trkpt><trkpt lat="45.6523317" lon="9.8823333"><ele>386.0</ele><time>2026-04-25T12:53:16.228Z</time></trkpt><trkpt lat="45.6522983" lon="9.8824483"><ele>386.0</ele><time>2026-04-25T12:53:17.228Z</time></trkpt><trkpt lat="45.6522867" lon="9.8825883"><ele>386.0</ele><time>2026-04-25T12:53:18.23Z</time></trkpt><trkpt lat="45.6522883" lon="9.8827483"><ele>386.0</ele><time>2026-04-25T12:53:19.229Z</time></trkpt><trkpt lat="45.6522967" lon="9.88292"><ele>386.0</ele><time>2026-04-25T12:53:20.23Z</time></trkpt><trkpt lat="45.65231" lon="9.8831067"><ele>387.5</ele><time>2026-04-25T12:53:21.229Z</time></trkpt><trkpt lat="45.652325" lon="9.8832967"><ele>389.0</ele><time>2026-04-25T12:53:22.23Z</time></trkpt><trkpt lat="45.6523267" lon="9.8834967"><ele>390.5</ele><time>2026-04-25T12:53:23.23Z</time></trkpt><trkpt lat="45.6523167" lon="9.8837017"><ele>392.0</ele><time>2026-04-25T12:53:24.231Z</time></trkpt><trkpt lat="45.6522967" lon="9.8839133"><ele>394.0</ele><time>2026-04-25T12:53:25.229Z</time></trkpt><trkpt lat="45.6522683" lon="9.8841333"><ele>396.0</ele><time>2026-04-25T12:53:26.227Z</time></trkpt><trkpt lat="45.6522367" lon="9.8843617"><ele>398.0</ele><time>2026-04-25T12:53:27.229Z</time></trkpt><trkpt lat="45.6522017" lon="9.88459"><ele>400.75</ele><time>2026-04-25T12:53:28.227Z</time></trkpt><trkpt lat="45.65217" lon="9.88481"><ele>403.5</ele><time>2026-04-25T12:53:29.227Z</time></trkpt><trkpt lat="45.6521417" lon="9.8850067"><ele>406.25</ele><time>2026-04-25T12:53:30.228Z</time></trkpt><trkpt lat="45.6521217" lon="9.8851833"><ele>409.0</ele><time>2026-04-25T12:53:31.227Z</time></trkpt><trkpt lat="45.6521083" lon="9.885345"><ele>409.79999999999995</ele><time>2026-04-25T12:53:32.227Z</time></trkpt><trkpt lat="45.6521167" lon="9.8854967"><ele>410.59999999999997</ele><time>2026-04-25T12:53:33.227Z</time></trkpt><trkpt lat="45.652155" lon="9.8856467"><ele>411.4</ele><time>2026-04-25T12:53:34.228Z</time></trkpt><trkpt lat="45.6522167" lon="9.885785"><ele>412.2</ele><time>2026-04-25T12:53:35.228Z</time></trkpt><trkpt lat="45.652285" lon="9.885905"><ele>413.0</ele><time>2026-04-25T12:53:36.227Z</time></trkpt><trkpt lat="45.65234" lon="9.8860183"><ele>414.0</ele><time>2026-04-25T12:53:37.227Z</time></trkpt><trkpt lat="45.6523767" lon="9.8861383"><ele>415.0</ele><time>2026-04-25T12:53:38.228Z</time></trkpt><trkpt lat="45.652395" lon="9.8862733"><ele>416.0</ele><time>2026-04-25T12:53:39.229Z</time></trkpt><trkpt lat="45.6524017" lon="9.8864167"><ele>417.0</ele><time>2026-04-25T12:53:40.227Z</time></trkpt><trkpt lat="45.6523967" lon="9.8865783"><ele>418.0</ele><time>2026-04-25T12:53:41.229Z</time></trkpt><trkpt lat="45.6523867" lon="9.8867533"><ele>421.5</ele><time>2026-04-25T12:53:42.227Z</time></trkpt><trkpt lat="45.6523767" lon="9.886935"><ele>425.0</ele><time>2026-04-25T12:53:43.228Z</time></trkpt><trkpt lat="45.6523617" lon="9.8871217"><ele>428.5</ele><time>2026-04-25T12:53:44.232Z</time></trkpt><trkpt lat="45.6523517" lon="9.887305"><ele>432.0</ele><time>2026-04-25T12:53:45.23Z</time></trkpt><trkpt lat="45.6523433" lon="9.8874667"><ele>435.40000000000003</ele><time>2026-04-25T12:53:46.228Z</time></trkpt><trkpt lat="45.65233" lon="9.8876033"><ele>438.80000000000007</ele><time>2026-04-25T12:53:47.228Z</time></trkpt><trkpt lat="45.6522967" lon="9.88773"><ele>442.2</ele><time>2026-04-25T12:53:48.228Z</time></trkpt><trkpt lat="45.6522433" lon="9.887845"><ele>445.6</ele><time>2026-04-25T12:53:49.228Z</time></trkpt><trkpt lat="45.6521633" lon="9.887935"><ele>449.0</ele><time>2026-04-25T12:53:50.23Z</time></trkpt><trkpt lat="45.6520733" lon="9.8880217"><ele>449.0</ele><time>2026-04-25T12:53:51.228Z</time></trkpt><trkpt lat="45.6519733" lon="9.8881067"><ele>449.0</ele><time>2026-04-25T12:53:52.227Z</time></trkpt><trkpt lat="45.6518617" lon="9.88819"><ele>449.0</ele><time>2026-04-25T12:53:53.229Z</time></trkpt><trkpt lat="45.651745" lon="9.8882667"><ele>449.0</ele><time>2026-04-25T12:53:54.228Z</time></trkpt><trkpt lat="45.6516217" lon="9.88833"><ele>444.0</ele><time>2026-04-25T12:53:55.228Z</time></trkpt><trkpt lat="45.6514933" lon="9.8883717"><ele>439.0</ele><time>2026-04-25T12:53:56.228Z</time></trkpt><trkpt lat="45.65136" lon="9.8884"><ele>434.0</ele><time>2026-04-25T12:53:57.229Z</time></trkpt><trkpt lat="45.6512267" lon="9.8884217"><ele>429.0</ele><time>2026-04-25T12:53:58.229Z</time></trkpt><trkpt lat="45.6510983" lon="9.88844"><ele>429.0</ele><time>2026-04-25T12:53:59.228Z</time></trkpt><trkpt lat="45.6509883" lon="9.8884667"><ele>429.0</ele><time>2026-04-25T12:54:00.227Z</time></trkpt><trkpt lat="45.6508867" lon="9.8884933"><ele>429.0</ele><time>2026-04-25T12:54:01.228Z</time></trkpt><trkpt lat="45.6508083" lon="9.88853"><ele>429.0</ele><time>2026-04-25T12:54:02.227Z</time></trkpt><trkpt lat="45.6507333" lon="9.88857"><ele>429.0</ele><time>2026-04-25T12:54:03.229Z</time></trkpt><trkpt lat="45.6506767" lon="9.8886383"><ele>429.0</ele><time>2026-04-25T12:54:04.227Z</time></trkpt><trkpt lat="45.650695" lon="9.8887917"><ele>429.0</ele><time>2026-04-25T12:54:06.227Z</time></trkpt><trkpt lat="45.6507383" lon="9.8888717"><ele>429.0</ele><time>2026-04-25T12:54:07.227Z</time></trkpt><trkpt lat="45.650805" lon="9.8889433"><ele>429.0</ele><time>2026-04-25T12:54:08.228Z</time></trkpt><trkpt lat="45.6508883" lon="9.889015"><ele>429.0</ele><time>2026-04-25T12:54:09.325Z</time></trkpt><trkpt lat="45.650985" lon="9.8890967"><ele>429.0</ele><time>2026-04-25T12:54:10.228Z</time></trkpt><trkpt lat="45.6510833" lon="9.8891983"><ele>429.0</ele><time>2026-04-25T12:54:11.229Z</time></trkpt><trkpt lat="45.651185" lon="9.8893217"><ele>429.0</ele><time>2026-04-25T12:54:12.227Z</time></trkpt><trkpt lat="45.6512867" lon="9.8894517"><ele>429.0</ele><time>2026-04-25T12:54:13.227Z</time></trkpt><trkpt lat="45.65139" lon="9.889585"><ele>431.75</ele><time>2026-04-25T12:54:14.227Z</time></trkpt><trkpt lat="45.6514967" lon="9.8897283"><ele>434.5</ele><time>2026-04-25T12:54:15.228Z</time></trkpt><trkpt lat="45.6516" lon="9.88988"><ele>437.25</ele><time>2026-04-25T12:54:16.228Z</time></trkpt><trkpt lat="45.6517017" lon="9.8900417"><ele>440.0</ele><time>2026-04-25T12:54:17.228Z</time></trkpt><trkpt lat="45.6517967" lon="9.8902033"><ele>440.0</ele><time>2026-04-25T12:54:18.23Z</time></trkpt><trkpt lat="45.6518883" lon="9.89036"><ele>440.0</ele><time>2026-04-25T12:54:19.229Z</time></trkpt><trkpt lat="45.6519767" lon="9.890515"><ele>440.0</ele><time>2026-04-25T12:54:20.23Z</time></trkpt><trkpt lat="45.65207" lon="9.89067"><ele>440.0</ele><time>2026-04-25T12:54:21.228Z</time></trkpt><trkpt lat="45.65216" lon="9.8908267"><ele>445.0</ele><time>2026-04-25T12:54:22.23Z</time></trkpt><trkpt lat="45.6522467" lon="9.8909933"><ele>450.0</ele><time>2026-04-25T12:54:23.228Z</time></trkpt><trkpt lat="45.652325" lon="9.891165"><ele>455.0</ele><time>2026-04-25T12:54:24.231Z</time></trkpt><trkpt lat="45.6523917" lon="9.891345"><ele>460.0</ele><time>2026-04-25T12:54:25.23Z</time></trkpt><trkpt lat="45.652455" lon="9.891535"><ele>460.0</ele><time>2026-04-25T12:54:26.232Z</time></trkpt><trkpt lat="45.652515" lon="9.8917367"><ele>460.0</ele><time>2026-04-25T12:54:27.228Z</time></trkpt><trkpt lat="45.65258" lon="9.8919433"><ele>460.0</ele><time>2026-04-25T12:54:28.229Z</time></trkpt><trkpt lat="45.6526467" lon="9.8921517"><ele>459.0</ele><time>2026-04-25T12:54:29.229Z</time></trkpt><trkpt lat="45.652715" lon="9.8923617"><ele>458.0</ele><time>2026-04-25T12:54:30.23Z</time></trkpt><trkpt lat="45.6527867" lon="9.8925783"><ele>457.0</ele><time>2026-04-25T12:54:31.229Z</time></trkpt><trkpt lat="45.6528567" lon="9.8928033"><ele>460.33333333333337</ele><time>2026-04-25T12:54:32.229Z</time></trkpt><trkpt lat="45.6529317" lon="9.89303"><ele>463.66666666666663</ele><time>2026-04-25T12:54:33.228Z</time></trkpt><trkpt lat="45.6530067" lon="9.8932483"><ele>467.0</ele><time>2026-04-25T12:54:34.229Z</time></trkpt><trkpt lat="45.6530767" lon="9.8934433"><ele>467.0</ele><time>2026-04-25T12:54:35.231Z</time></trkpt><trkpt lat="45.6531367" lon="9.8936183"><ele>467.0</ele><time>2026-04-25T12:54:36.227Z</time></trkpt><trkpt lat="45.653195" lon="9.89378"><ele>467.0</ele><time>2026-04-25T12:54:37.228Z</time></trkpt><trkpt lat="45.65325" lon="9.8939217"><ele>467.0</ele><time>2026-04-25T12:54:38.229Z</time></trkpt><trkpt lat="45.6533167" lon="9.89404"><ele>466.99999999999994</ele><time>2026-04-25T12:54:39.228Z</time></trkpt><trkpt lat="45.6533817" lon="9.894145"><ele>467.0</ele><time>2026-04-25T12:54:40.227Z</time></trkpt><trkpt lat="45.653445" lon="9.8942267"><ele>467.0</ele><time>2026-04-25T12:54:41.232Z</time></trkpt><trkpt lat="45.6535083" lon="9.8942833"><ele>467.0</ele><time>2026-04-25T12:54:42.232Z</time></trkpt><trkpt lat="45.653565" lon="9.89433"><ele>466.99999999999994</ele><time>2026-04-25T12:54:43.229Z</time></trkpt><trkpt lat="45.6536283" lon="9.8943933"><ele>467.0</ele><time>2026-04-25T12:54:45.229Z</time></trkpt><trkpt lat="45.6536867" lon="9.8944583"><ele>466.99999999999994</ele><time>2026-04-25T12:54:49.228Z</time></trkpt><trkpt lat="45.6537083" lon="9.8943533"><ele>467.0</ele><time>2026-04-25T12:54:53.228Z</time></trkpt><trkpt lat="45.653675" lon="9.8942517"><ele>467.0</ele><time>2026-04-25T12:54:57.229Z</time></trkpt><trkpt lat="45.6535883" lon="9.8942917"><ele>467.0</ele><time>2026-04-25T12:56:14.228Z</time></trkpt><trkpt lat="45.6534767" lon="9.8942533"><ele>466.99999999999994</ele><time>2026-04-25T12:58:24.229Z</time></trkpt><trkpt lat="45.653415" lon="9.894185"><ele>467.0</ele><time>2026-04-25T12:58:25.228Z</time></trkpt><trkpt lat="45.6533517" lon="9.8941033"><ele>467.0</ele><time>2026-04-25T12:58:26.229Z</time></trkpt><trkpt lat="45.6532867" lon="9.893995"><ele>467.0</ele><time>2026-04-25T12:58:27.228Z</time></trkpt><trkpt lat="45.6532267" lon="9.89382"><ele>467.0</ele><time>2026-04-25T12:58:28.228Z</time></trkpt><trkpt lat="45.6531683" lon="9.89365"><ele>467.0</ele><time>2026-04-25T12:58:29.229Z</time></trkpt><trkpt lat="45.6531133" lon="9.8934817"><ele>469.75</ele><time>2026-04-25T12:58:30.229Z</time></trkpt><trkpt lat="45.653065" lon="9.8933083"><ele>472.5</ele><time>2026-04-25T12:58:31.229Z</time></trkpt><trkpt lat="45.6530117" lon="9.89313"><ele>475.25</ele><time>2026-04-25T12:58:32.227Z</time></trkpt><trkpt lat="45.6529567" lon="9.8929367"><ele>478.0</ele><time>2026-04-25T12:58:33.228Z</time></trkpt><trkpt lat="45.6528967" lon="9.8927317"><ele>480.0</ele><time>2026-04-25T12:58:34.228Z</time></trkpt><trkpt lat="45.6528267" lon="9.8925333"><ele>482.0</ele><time>2026-04-25T12:58:35.228Z</time></trkpt><trkpt lat="45.652765" lon="9.8923333"><ele>484.0</ele><time>2026-04-25T12:58:36.228Z</time></trkpt><trkpt lat="45.6527" lon="9.8921367"><ele>476.0</ele><time>2026-04-25T12:58:37.227Z</time></trkpt><trkpt lat="45.6526383" lon="9.8919417"><ele>468.0</ele><time>2026-04-25T12:58:38.229Z</time></trkpt><trkpt lat="45.6525733" lon="9.891745"><ele>460.0</ele><time>2026-04-25T12:58:39.23Z</time></trkpt><trkpt lat="45.6525067" lon="9.891555"><ele>460.0</ele><time>2026-04-25T12:58:40.228Z</time></trkpt><trkpt lat="45.6524383" lon="9.891375"><ele>460.0</ele><time>2026-04-25T12:58:41.228Z</time></trkpt><trkpt lat="45.6523683" lon="9.8911983"><ele>460.0</ele><time>2026-04-25T12:58:42.228Z</time></trkpt><trkpt lat="45.6522867" lon="9.8910167"><ele>460.0</ele><time>2026-04-25T12:58:43.228Z</time></trkpt><trkpt lat="45.652195" lon="9.890835"><ele>461.0</ele><time>2026-04-25T12:58:44.229Z</time></trkpt><trkpt lat="45.6520917" lon="9.890655"><ele>462.0</ele><time>2026-04-25T12:58:45.23Z</time></trkpt><trkpt lat="45.651985" lon="9.8904783"><ele>463.0</ele><time>2026-04-25T12:58:46.228Z</time></trkpt><trkpt lat="45.6518783" lon="9.8903067"><ele>459.33333333333337</ele><time>2026-04-25T12:58:47.229Z</time></trkpt><trkpt lat="45.6517733" lon="9.890145"><ele>455.66666666666663</ele><time>2026-04-25T12:58:48.228Z</time></trkpt><trkpt lat="45.65167" lon="9.8899883"><ele>452.0</ele><time>2026-04-25T12:58:49.228Z</time></trkpt><trkpt lat="45.651565" lon="9.889835"><ele>452.0</ele><time>2026-04-25T12:58:50.228Z</time></trkpt><trkpt lat="45.6514617" lon="9.8896917"><ele>452.0</ele><time>2026-04-25T12:58:51.229Z</time></trkpt><trkpt lat="45.6513567" lon="9.8895583"><ele>452.0</ele><time>2026-04-25T12:58:52.228Z</time></trkpt><trkpt lat="45.6512633" lon="9.88944"><ele>452.0</ele><time>2026-04-25T12:58:53.23Z</time></trkpt><trkpt lat="45.65118" lon="9.889325"><ele>447.40000000000003</ele><time>2026-04-25T12:58:54.228Z</time></trkpt><trkpt lat="45.6510383" lon="9.88913"><ele>442.80000000000007</ele><time>2026-04-25T12:58:56.228Z</time></trkpt><trkpt lat="45.6509683" lon="9.88905"><ele>438.2</ele><time>2026-04-25T12:58:57.228Z</time></trkpt><trkpt lat="45.6508983" lon="9.8889867"><ele>433.6</ele><time>2026-04-25T12:58:58.228Z</time></trkpt><trkpt lat="45.6508283" lon="9.8889317"><ele>429.0</ele><time>2026-04-25T12:58:59.232Z</time></trkpt><trkpt lat="45.6507667" lon="9.8888717"><ele>429.0</ele><time>2026-04-25T12:59:00.228Z</time></trkpt><trkpt lat="45.6507167" lon="9.8888017"><ele>429.0</ele><time>2026-04-25T12:59:01.228Z</time></trkpt><trkpt lat="45.65069" lon="9.88866"><ele>429.0</ele><time>2026-04-25T12:59:03.228Z</time></trkpt><trkpt lat="45.6507683" lon="9.8885617"><ele>429.0</ele><time>2026-04-25T12:59:05.227Z</time></trkpt><trkpt lat="45.65088" lon="9.8885033"><ele>429.0</ele><time>2026-04-25T12:59:07.229Z</time></trkpt><trkpt lat="45.65095" lon="9.8884817"><ele>429.0</ele><time>2026-04-25T12:59:08.228Z</time></trkpt><trkpt lat="45.651035" lon="9.8884667"><ele>429.0</ele><time>2026-04-25T12:59:09.231Z</time></trkpt><trkpt lat="45.6511233" lon="9.8884533"><ele>429.0</ele><time>2026-04-25T12:59:10.229Z</time></trkpt><trkpt lat="45.651215" lon="9.888445"><ele>429.0</ele><time>2026-04-25T12:59:11.227Z</time></trkpt><trkpt lat="45.651305" lon="9.8884367"><ele>429.0</ele><time>2026-04-25T12:59:12.227Z</time></trkpt><trkpt lat="45.6513983" lon="9.8884267"><ele>429.0</ele><time>2026-04-25T12:59:13.227Z</time></trkpt><trkpt lat="45.6514917" lon="9.8883967"><ele>429.0</ele><time>2026-04-25T12:59:14.229Z</time></trkpt><trkpt lat="45.6515833" lon="9.888355"><ele>429.0</ele><time>2026-04-25T12:59:15.229Z</time></trkpt><trkpt lat="45.651675" lon="9.8883017"><ele>429.0</ele><time>2026-04-25T12:59:16.228Z</time></trkpt><trkpt lat="45.6517667" lon="9.88824"><ele>429.0</ele><time>2026-04-25T12:59:17.229Z</time></trkpt><trkpt lat="45.65185" lon="9.888175"><ele>429.0</ele><time>2026-04-25T12:59:18.232Z</time></trkpt><trkpt lat="45.6519383" lon="9.888115"><ele>429.0</ele><time>2026-04-25T12:59:19.229Z</time></trkpt><trkpt lat="45.6520167" lon="9.8880533"><ele>429.0</ele><time>2026-04-25T12:59:20.228Z</time></trkpt><trkpt lat="45.6520867" lon="9.8879983"><ele>429.0</ele><time>2026-04-25T12:59:21.229Z</time></trkpt><trkpt lat="45.65214" lon="9.887935"><ele>429.0</ele><time>2026-04-25T12:59:22.228Z</time></trkpt><trkpt lat="45.6522067" lon="9.887865"><ele>429.0</ele><time>2026-04-25T12:59:23.229Z</time></trkpt><trkpt lat="45.6522467" lon="9.887775"><ele>429.6</ele><time>2026-04-25T12:59:24.229Z</time></trkpt><trkpt lat="45.6522833" lon="9.8876767"><ele>430.2</ele><time>2026-04-25T12:59:25.229Z</time></trkpt><trkpt lat="45.65232" lon="9.8875733"><ele>430.80000000000007</ele><time>2026-04-25T12:59:26.229Z</time></trkpt><trkpt lat="45.6523417" lon="9.8874567"><ele>431.40000000000003</ele><time>2026-04-25T12:59:27.233Z</time></trkpt><trkpt lat="45.6523633" lon="9.8873233"><ele>432.0</ele><time>2026-04-25T12:59:28.229Z</time></trkpt><trkpt lat="45.6523667" lon="9.8871483"><ele>432.0</ele><time>2026-04-25T12:59:29.229Z</time></trkpt><trkpt lat="45.6523717" lon="9.8869683"><ele>432.0</ele><time>2026-04-25T12:59:30.228Z</time></trkpt><trkpt lat="45.65238" lon="9.8867683"><ele>432.0</ele><time>2026-04-25T12:59:31.229Z</time></trkpt><trkpt lat="45.6524" lon="9.886565"><ele>432.0</ele><time>2026-04-25T12:59:32.229Z</time></trkpt><trkpt lat="45.65241" lon="9.8863733"><ele>429.20000000000005</ele><time>2026-04-25T12:59:33.23Z</time></trkpt><trkpt lat="45.6524017" lon="9.88621"><ele>426.40000000000003</ele><time>2026-04-25T12:59:34.228Z</time></trkpt><trkpt lat="45.652375" lon="9.8860617"><ele>423.6</ele><time>2026-04-25T12:59:35.231Z</time></trkpt><trkpt lat="45.65232" lon="9.8859383"><ele>420.79999999999995</ele><time>2026-04-25T12:59:36.228Z</time></trkpt><trkpt lat="45.6522583" lon="9.8858133"><ele>418.0</ele><time>2026-04-25T12:59:37.229Z</time></trkpt><trkpt lat="45.6522" lon="9.8856883"><ele>417.0</ele><time>2026-04-25T12:59:38.228Z</time></trkpt><trkpt lat="45.6521533" lon="9.8855483"><ele>416.0</ele><time>2026-04-25T12:59:39.228Z</time></trkpt><trkpt lat="45.6521333" lon="9.8854"><ele>415.0</ele><time>2026-04-25T12:59:40.229Z</time></trkpt><trkpt lat="45.6521383" lon="9.88524"><ele>414.0</ele><time>2026-04-25T12:59:41.228Z</time></trkpt><trkpt lat="45.65215" lon="9.8850683"><ele>413.0</ele><time>2026-04-25T12:59:42.228Z</time></trkpt><trkpt lat="45.6521717" lon="9.8848967"><ele>412.0</ele><time>2026-04-25T12:59:43.229Z</time></trkpt><trkpt lat="45.6521983" lon="9.8847217"><ele>411.0</ele><time>2026-04-25T12:59:44.228Z</time></trkpt><trkpt lat="45.6522233" lon="9.8845417"><ele>410.0</ele><time>2026-04-25T12:59:45.228Z</time></trkpt><trkpt lat="45.652255" lon="9.8843567"><ele>409.0</ele><time>2026-04-25T12:59:46.229Z</time></trkpt><trkpt lat="45.6522833" lon="9.8841617"><ele>406.25</ele><time>2026-04-25T12:59:47.23Z</time></trkpt><trkpt lat="45.652315" lon="9.8839633"><ele>403.5</ele><time>2026-04-25T12:59:48.229Z</time></trkpt><trkpt lat="45.65234" lon="9.8837583"><ele>400.75</ele><time>2026-04-25T12:59:49.228Z</time></trkpt><trkpt lat="45.65235" lon="9.8835483"><ele>398.0</ele><time>2026-04-25T12:59:50.229Z</time></trkpt><trkpt lat="45.6523467" lon="9.8833367"><ele>396.5</ele><time>2026-04-25T12:59:51.23Z</time></trkpt><trkpt lat="45.6523367" lon="9.8831317"><ele>395.0</ele><time>2026-04-25T12:59:52.228Z</time></trkpt><trkpt lat="45.6523233" lon="9.882935"><ele>393.5</ele><time>2026-04-25T12:59:53.23Z</time></trkpt><trkpt lat="45.652315" lon="9.8827617"><ele>392.0</ele><time>2026-04-25T12:59:54.228Z</time></trkpt><trkpt lat="45.6523117" lon="9.882605"><ele>390.8</ele><time>2026-04-25T12:59:55.229Z</time></trkpt><trkpt lat="45.65232" lon="9.882455"><ele>389.6</ele><time>2026-04-25T12:59:56.228Z</time></trkpt><trkpt lat="45.65235" lon="9.882315"><ele>388.40000000000003</ele><time>2026-04-25T12:59:57.228Z</time></trkpt><trkpt lat="45.6523967" lon="9.8821883"><ele>387.20000000000005</ele><time>2026-04-25T12:59:58.229Z</time></trkpt><trkpt lat="45.6524567" lon="9.8820733"><ele>386.0</ele><time>2026-04-25T12:59:59.228Z</time></trkpt><trkpt lat="45.6524867" lon="9.8819533"><ele>386.0</ele><time>2026-04-25T13:00:00.229Z</time></trkpt><trkpt lat="45.6524967" lon="9.88184"><ele>386.0</ele><time>2026-04-25T13:00:01.229Z</time></trkpt><trkpt lat="45.6524783" lon="9.8817217"><ele>386.0</ele><time>2026-04-25T13:00:02.229Z</time></trkpt><trkpt lat="45.652425" lon="9.8816033"><ele>386.0</ele><time>2026-04-25T13:00:03.23Z</time></trkpt><trkpt lat="45.6523517" lon="9.8814917"><ele>386.0</ele><time>2026-04-25T13:00:04.23Z</time></trkpt><trkpt lat="45.6522783" lon="9.8813767"><ele>384.0</ele><time>2026-04-25T13:00:05.229Z</time></trkpt><trkpt lat="45.6522167" lon="9.8812367"><ele>382.0</ele><time>2026-04-25T13:00:06.23Z</time></trkpt><trkpt lat="45.65217" lon="9.8810733"><ele>380.0</ele><time>2026-04-25T13:00:07.23Z</time></trkpt><trkpt lat="45.65213" lon="9.88091"><ele>378.0</ele><time>2026-04-25T13:00:08.229Z</time></trkpt><trkpt lat="45.652095" lon="9.880745"><ele>377.75</ele><time>2026-04-25T13:00:09.229Z</time></trkpt><trkpt lat="45.652075" lon="9.880575"><ele>377.5</ele><time>2026-04-25T13:00:10.229Z</time></trkpt><trkpt lat="45.652075" lon="9.8803967"><ele>377.25</ele><time>2026-04-25T13:00:11.23Z</time></trkpt><trkpt lat="45.652085" lon="9.8802117"><ele>377.0</ele><time>2026-04-25T13:00:12.229Z</time></trkpt><trkpt lat="45.652105" lon="9.8800233"><ele>376.25</ele><time>2026-04-25T13:00:13.229Z</time></trkpt><trkpt lat="45.6521183" lon="9.8798267"><ele>375.5</ele><time>2026-04-25T13:00:14.228Z</time></trkpt><trkpt lat="45.652115" lon="9.8796317"><ele>374.75</ele><time>2026-04-25T13:00:15.229Z</time></trkpt><trkpt lat="45.65208" lon="9.87945"><ele>374.0</ele><time>2026-04-25T13:00:16.228Z</time></trkpt><trkpt lat="45.65202" lon="9.8792817"><ele>365.6666666666667</ele><time>2026-04-25T13:00:17.229Z</time></trkpt><trkpt lat="45.6519467" lon="9.879105"><ele>357.3333333333333</ele><time>2026-04-25T13:00:18.23Z</time></trkpt><trkpt lat="45.6518683" lon="9.8789167"><ele>349.0</ele><time>2026-04-25T13:00:19.229Z</time></trkpt><trkpt lat="45.6517833" lon="9.8787183"><ele>349.0</ele><time>2026-04-25T13:00:20.23Z</time></trkpt><trkpt lat="45.6516983" lon="9.8785183"><ele>349.0</ele><time>2026-04-25T13:00:21.23Z</time></trkpt><trkpt lat="45.6516183" lon="9.8783283"><ele>349.0</ele><time>2026-04-25T13:00:22.229Z</time></trkpt><trkpt lat="45.6515433" lon="9.8781483"><ele>350.25</ele><time>2026-04-25T13:00:23.229Z</time></trkpt><trkpt lat="45.651475" lon="9.8779767"><ele>351.5</ele><time>2026-04-25T13:00:24.23Z</time></trkpt><trkpt lat="45.6514133" lon="9.87781"><ele>352.75</ele><time>2026-04-25T13:00:25.229Z</time></trkpt><trkpt lat="45.6513717" lon="9.8776467"><ele>354.0</ele><time>2026-04-25T13:00:26.228Z</time></trkpt><trkpt lat="45.651355" lon="9.877485"><ele>355.0</ele><time>2026-04-25T13:00:27.229Z</time></trkpt><trkpt lat="45.6513633" lon="9.8773183"><ele>356.0</ele><time>2026-04-25T13:00:28.229Z</time></trkpt><trkpt lat="45.6513833" lon="9.8771333"><ele>357.0</ele><time>2026-04-25T13:00:29.228Z</time></trkpt><trkpt lat="45.65141" lon="9.876935"><ele>358.0</ele><time>2026-04-25T13:00:30.23Z</time></trkpt><trkpt lat="45.6514367" lon="9.8767267"><ele>358.0</ele><time>2026-04-25T13:00:31.228Z</time></trkpt><trkpt lat="45.6514617" lon="9.8765167"><ele>358.0</ele><time>2026-04-25T13:00:32.229Z</time></trkpt><trkpt lat="45.6514917" lon="9.876305"><ele>358.0</ele><time>2026-04-25T13:00:33.229Z</time></trkpt><trkpt lat="45.6515183" lon="9.8761017"><ele>358.0</ele><time>2026-04-25T13:00:34.229Z</time></trkpt><trkpt lat="45.6515383" lon="9.8759183"><ele>356.5</ele><time>2026-04-25T13:00:35.229Z</time></trkpt><trkpt lat="45.6515483" lon="9.8757533"><ele>355.0</ele><time>2026-04-25T13:00:36.229Z</time></trkpt><trkpt lat="45.651535" lon="9.8755967"><ele>353.5</ele><time>2026-04-25T13:00:37.228Z</time></trkpt><trkpt lat="45.6514983" lon="9.8754417"><ele>352.0</ele><time>2026-04-25T13:00:38.229Z</time></trkpt><trkpt lat="45.6514417" lon="9.8752833"><ele>352.0</ele><time>2026-04-25T13:00:39.23Z</time></trkpt><trkpt lat="45.6513733" lon="9.87513"><ele>352.0</ele><time>2026-04-25T13:00:40.228Z</time></trkpt><trkpt lat="45.6513067" lon="9.87498"><ele>352.0</ele><time>2026-04-25T13:00:41.23Z</time></trkpt><trkpt lat="45.651255" lon="9.8748283"><ele>352.0</ele><time>2026-04-25T13:00:42.231Z</time></trkpt><trkpt lat="45.65121" lon="9.8746717"><ele>351.5</ele><time>2026-04-25T13:00:43.229Z</time></trkpt><trkpt lat="45.65118" lon="9.8745117"><ele>351.0</ele><time>2026-04-25T13:00:44.23Z</time></trkpt><trkpt lat="45.6511617" lon="9.8743433"><ele>350.5</ele><time>2026-04-25T13:00:45.23Z</time></trkpt><trkpt lat="45.6511483" lon="9.87417"><ele>350.0</ele><time>2026-04-25T13:00:46.228Z</time></trkpt><trkpt lat="45.651125" lon="9.8739983"><ele>343.5</ele><time>2026-04-25T13:00:47.237Z</time></trkpt><trkpt lat="45.65109" lon="9.873825"><ele>337.0</ele><time>2026-04-25T13:00:48.231Z</time></trkpt><trkpt lat="45.651045" lon="9.8736567"><ele>330.5</ele><time>2026-04-25T13:00:49.228Z</time></trkpt><trkpt lat="45.6509933" lon="9.8735017"><ele>324.0</ele><time>2026-04-25T13:00:50.229Z</time></trkpt><trkpt lat="45.650925" lon="9.8733533"><ele>323.5</ele><time>2026-04-25T13:00:51.229Z</time></trkpt><trkpt lat="45.6508483" lon="9.8732083"><ele>323.0</ele><time>2026-04-25T13:00:52.229Z</time></trkpt><trkpt lat="45.6507633" lon="9.8730733"><ele>322.5</ele><time>2026-04-25T13:00:53.233Z</time></trkpt><trkpt lat="45.6506717" lon="9.8729417"><ele>322.0</ele><time>2026-04-25T13:00:54.23Z</time></trkpt><trkpt lat="45.6505833" lon="9.87281"><ele>322.0</ele><time>2026-04-25T13:00:55.228Z</time></trkpt><trkpt lat="45.6504917" lon="9.8726867"><ele>322.0</ele><time>2026-04-25T13:00:56.23Z</time></trkpt><trkpt lat="45.6503983" lon="9.8725667"><ele>322.0</ele><time>2026-04-25T13:00:57.247Z</time></trkpt><trkpt lat="45.6503117" lon="9.8724533"><ele>322.0</ele><time>2026-04-25T13:00:58.227Z</time></trkpt><trkpt lat="45.6502333" lon="9.87234"><ele>320.0</ele><time>2026-04-25T13:00:59.23Z</time></trkpt><trkpt lat="45.650155" lon="9.8722317"><ele>318.0</ele><time>2026-04-25T13:01:00.231Z</time></trkpt><trkpt lat="45.65008" lon="9.87213"><ele>316.0</ele><time>2026-04-25T13:01:01.23Z</time></trkpt><trkpt lat="45.6500117" lon="9.8720283"><ele>314.0</ele><time>2026-04-25T13:01:02.231Z</time></trkpt><trkpt lat="45.6499433" lon="9.87192"><ele>312.0</ele><time>2026-04-25T13:01:03.231Z</time></trkpt><trkpt lat="45.649875" lon="9.8718083"><ele>311.75</ele><time>2026-04-25T13:01:04.23Z</time></trkpt><trkpt lat="45.6498083" lon="9.8716867"><ele>311.5</ele><time>2026-04-25T13:01:05.229Z</time></trkpt><trkpt lat="45.649735" lon="9.8715617"><ele>311.25</ele><time>2026-04-25T13:01:06.229Z</time></trkpt><trkpt lat="45.6496417" lon="9.8714517"><ele>311.0</ele><time>2026-04-25T13:01:07.229Z</time></trkpt><trkpt lat="45.6495317" lon="9.8713567"><ele>311.25</ele><time>2026-04-25T13:01:08.327Z</time></trkpt><trkpt lat="45.649415" lon="9.87127"><ele>311.5</ele><time>2026-04-25T13:01:09.23Z</time></trkpt><trkpt lat="45.6493033" lon="9.87119"><ele>311.75</ele><time>2026-04-25T13:01:10.229Z</time></trkpt><trkpt lat="45.6492033" lon="9.8711167"><ele>312.0</ele><time>2026-04-25T13:01:11.23Z</time></trkpt><trkpt lat="45.649115" lon="9.8710483"><ele>312.0</ele><time>2026-04-25T13:01:12.228Z</time></trkpt><trkpt lat="45.6490383" lon="9.8709867"><ele>312.0</ele><time>2026-04-25T13:01:13.228Z</time></trkpt><trkpt lat="45.64896" lon="9.870925"><ele>312.0</ele><time>2026-04-25T13:01:14.229Z</time></trkpt><trkpt lat="45.6488783" lon="9.8708583"><ele>312.0</ele><time>2026-04-25T13:01:15.231Z</time></trkpt><trkpt lat="45.6488017" lon="9.8707917"><ele>312.0</ele><time>2026-04-25T13:01:16.229Z</time></trkpt><trkpt lat="45.6487317" lon="9.8707217"><ele>312.0</ele><time>2026-04-25T13:01:17.229Z</time></trkpt><trkpt lat="45.6486717" lon="9.870665"><ele>312.2857142857143</ele><time>2026-04-25T13:01:18.229Z</time></trkpt><trkpt lat="45.6486183" lon="9.87061"><ele>312.57142857142856</ele><time>2026-04-25T13:01:19.229Z</time></trkpt><trkpt lat="45.6485583" lon="9.8705617"><ele>312.85714285714283</ele><time>2026-04-25T13:01:20.229Z</time></trkpt><trkpt lat="45.6485017" lon="9.87051"><ele>313.1428571428571</ele><time>2026-04-25T13:01:21.23Z</time></trkpt><trkpt lat="45.6484483" lon="9.8704483"><ele>313.42857142857144</ele><time>2026-04-25T13:01:22.228Z</time></trkpt><trkpt lat="45.6483967" lon="9.8703717"><ele>313.71428571428567</ele><time>2026-04-25T13:01:23.229Z</time></trkpt><trkpt lat="45.6483467" lon="9.8702867"><ele>314.0</ele><time>2026-04-25T13:01:24.229Z</time></trkpt><trkpt lat="45.6482967" lon="9.8701817"><ele>315.33333333333337</ele><time>2026-04-25T13:01:25.229Z</time></trkpt><trkpt lat="45.6482483" lon="9.8700717"><ele>316.6666666666667</ele><time>2026-04-25T13:01:26.23Z</time></trkpt><trkpt lat="45.6482033" lon="9.8699583"><ele>318.0</ele><time>2026-04-25T13:01:27.229Z</time></trkpt><trkpt lat="45.6481567" lon="9.869855"><ele>319.3333333333333</ele><time>2026-04-25T13:01:28.229Z</time></trkpt><trkpt lat="45.6481083" lon="9.8697533"><ele>320.66666666666663</ele><time>2026-04-25T13:01:29.228Z</time></trkpt><trkpt lat="45.6480617" lon="9.86966"><ele>322.0</ele><time>2026-04-25T13:01:30.229Z</time></trkpt><trkpt lat="45.6480117" lon="9.8695733"><ele>322.0</ele><time>2026-04-25T13:01:31.228Z</time></trkpt><trkpt lat="45.64796" lon="9.86949"><ele>322.0</ele><time>2026-04-25T13:01:32.229Z</time></trkpt><trkpt lat="45.6479067" lon="9.86941"><ele>322.0</ele><time>2026-04-25T13:01:33.231Z</time></trkpt><trkpt lat="45.647855" lon="9.8693267"><ele>322.0</ele><time>2026-04-25T13:01:34.229Z</time></trkpt><trkpt lat="45.647805" lon="9.8692333"><ele>322.0</ele><time>2026-04-25T13:01:35.23Z</time></trkpt><trkpt lat="45.6477483" lon="9.869135"><ele>322.0</ele><time>2026-04-25T13:01:36.228Z</time></trkpt><trkpt lat="45.6476883" lon="9.86903"><ele>321.0</ele><time>2026-04-25T13:01:37.23Z</time></trkpt><trkpt lat="45.647625" lon="9.86892"><ele>320.0</ele><time>2026-04-25T13:01:38.229Z</time></trkpt><trkpt lat="45.6475633" lon="9.8688133"><ele>319.0</ele><time>2026-04-25T13:01:39.228Z</time></trkpt><trkpt lat="45.6475067" lon="9.8687117"><ele>318.0</ele><time>2026-04-25T13:01:40.228Z</time></trkpt><trkpt lat="45.647455" lon="9.8686217"><ele>317.0</ele><time>2026-04-25T13:01:41.23Z</time></trkpt><trkpt lat="45.6474117" lon="9.8685417"><ele>316.0</ele><time>2026-04-25T13:01:42.228Z</time></trkpt><trkpt lat="45.647365" lon="9.868465"><ele>317.5</ele><time>2026-04-25T13:01:43.228Z</time></trkpt><trkpt lat="45.6473117" lon="9.8683883"><ele>319.0</ele><time>2026-04-25T13:01:44.228Z</time></trkpt><trkpt lat="45.64725" lon="9.8683067"><ele>320.5</ele><time>2026-04-25T13:01:45.229Z</time></trkpt><trkpt lat="45.64718" lon="9.8682267"><ele>322.0</ele><time>2026-04-25T13:01:46.229Z</time></trkpt><trkpt lat="45.647115" lon="9.868155"><ele>323.5</ele><time>2026-04-25T13:01:47.228Z</time></trkpt><trkpt lat="45.647035" lon="9.8680767"><ele>325.0</ele><time>2026-04-25T13:01:48.229Z</time></trkpt><trkpt lat="45.6469633" lon="9.868005"><ele>323.4285714285714</ele><time>2026-04-25T13:01:49.228Z</time></trkpt><trkpt lat="45.6468967" lon="9.8679533"><ele>321.8571428571429</ele><time>2026-04-25T13:01:50.228Z</time></trkpt><trkpt lat="45.646835" lon="9.8679317"><ele>320.2857142857143</ele><time>2026-04-25T13:01:51.228Z</time></trkpt><trkpt lat="45.6467667" lon="9.8679367"><ele>318.71428571428567</ele><time>2026-04-25T13:01:52.229Z</time></trkpt><trkpt lat="45.6467017" lon="9.867965"><ele>317.1428571428571</ele><time>2026-04-25T13:01:53.23Z</time></trkpt><trkpt lat="45.64665" lon="9.8680217"><ele>315.57142857142856</ele><time>2026-04-25T13:01:54.229Z</time></trkpt><trkpt lat="45.6465867" lon="9.868085"><ele>314.0</ele><time>2026-04-25T13:01:55.23Z</time></trkpt><trkpt lat="45.6465217" lon="9.8681483"><ele>314.0</ele><time>2026-04-25T13:01:56.23Z</time></trkpt><trkpt lat="45.64645" lon="9.8682167"><ele>314.0</ele><time>2026-04-25T13:01:57.228Z</time></trkpt><trkpt lat="45.646385" lon="9.868285"><ele>314.0</ele><time>2026-04-25T13:01:58.228Z</time></trkpt><trkpt lat="45.64634" lon="9.86835"><ele>314.0</ele><time>2026-04-25T13:01:59.23Z</time></trkpt><trkpt lat="45.64633" lon="9.86849"><ele>314.0</ele><time>2026-04-25T13:02:01.228Z</time></trkpt><trkpt lat="45.64642" lon="9.868595"><ele>314.0</ele><time>2026-04-25T13:02:03.229Z</time></trkpt><trkpt lat="45.6465267" lon="9.868685"><ele>311.8</ele><time>2026-04-25T13:02:05.23Z</time></trkpt><trkpt lat="45.6465967" lon="9.8688"><ele>309.59999999999997</ele><time>2026-04-25T13:02:07.229Z</time></trkpt><trkpt lat="45.646545" lon="9.8689133"><ele>307.4</ele><time>2026-04-25T13:02:09.229Z</time></trkpt><trkpt lat="45.6464283" lon="9.8689367"><ele>305.2</ele><time>2026-04-25T13:02:11.231Z</time></trkpt><trkpt lat="45.6463533" lon="9.868925"><ele>303.0</ele><time>2026-04-25T13:02:12.229Z</time></trkpt><trkpt lat="45.6462733" lon="9.8689167"><ele>303.0</ele><time>2026-04-25T13:02:13.229Z</time></trkpt><trkpt lat="45.64619" lon="9.868905"><ele>303.0</ele><time>2026-04-25T13:02:14.228Z</time></trkpt><trkpt lat="45.64611" lon="9.868895"><ele>303.0</ele><time>2026-04-25T13:02:15.229Z</time></trkpt><trkpt lat="45.64604" lon="9.8688767"><ele>303.0</ele><time>2026-04-25T13:02:16.229Z</time></trkpt><trkpt lat="45.6459733" lon="9.8688417"><ele>303.0</ele><time>2026-04-25T13:02:17.228Z</time></trkpt><trkpt lat="45.6459133" lon="9.86878"><ele>303.0</ele><time>2026-04-25T13:02:18.228Z</time></trkpt><trkpt lat="45.6458583" lon="9.8687"><ele>301.8</ele><time>2026-04-25T13:02:19.23Z</time></trkpt><trkpt lat="45.645805" lon="9.8686067"><ele>300.6</ele><time>2026-04-25T13:02:20.228Z</time></trkpt><trkpt lat="45.6457483" lon="9.8685033"><ele>299.4</ele><time>2026-04-25T13:02:21.229Z</time></trkpt><trkpt lat="45.64569" lon="9.8684"><ele>298.2</ele><time>2026-04-25T13:02:22.229Z</time></trkpt><trkpt lat="45.6456333" lon="9.868295"><ele>297.0</ele><time>2026-04-25T13:02:23.228Z</time></trkpt><trkpt lat="45.6455683" lon="9.8682033"><ele>297.0</ele><time>2026-04-25T13:02:24.229Z</time></trkpt><trkpt lat="45.6454983" lon="9.8681267"><ele>297.0</ele><time>2026-04-25T13:02:25.229Z</time></trkpt><trkpt lat="45.645425" lon="9.8680567"><ele>297.0</ele><time>2026-04-25T13:02:26.229Z</time></trkpt><trkpt lat="45.64533" lon="9.867995"><ele>297.0</ele><time>2026-04-25T13:02:27.229Z</time></trkpt><trkpt lat="45.6452233" lon="9.8679367"><ele>297.0</ele><time>2026-04-25T13:02:28.229Z</time></trkpt><trkpt lat="45.6451133" lon="9.8678817"><ele>292.75</ele><time>2026-04-25T13:02:29.23Z</time></trkpt><trkpt lat="45.6449983" lon="9.8678333"><ele>288.5</ele><time>2026-04-25T13:02:30.23Z</time></trkpt><trkpt lat="45.6448833" lon="9.8677767"><ele>284.25</ele><time>2026-04-25T13:02:31.228Z</time></trkpt><trkpt lat="45.6447733" lon="9.8677267"><ele>280.0</ele><time>2026-04-25T13:02:32.23Z</time></trkpt><trkpt lat="45.64467" lon="9.8676767"><ele>280.0</ele><time>2026-04-25T13:02:33.23Z</time></trkpt><trkpt lat="45.6445783" lon="9.8676283"><ele>280.0</ele><time>2026-04-25T13:02:34.228Z</time></trkpt><trkpt lat="45.6444917" lon="9.86758"><ele>280.0</ele><time>2026-04-25T13:02:35.228Z</time></trkpt><trkpt lat="45.6444067" lon="9.8675367"><ele>280.0</ele><time>2026-04-25T13:02:36.229Z</time></trkpt><trkpt lat="45.6443233" lon="9.8674883"><ele>280.0</ele><time>2026-04-25T13:02:37.228Z</time></trkpt><trkpt lat="45.644245" lon="9.8674333"><ele>280.0</ele><time>2026-04-25T13:02:38.228Z</time></trkpt><trkpt lat="45.6441633" lon="9.8673733"><ele>280.0</ele><time>2026-04-25T13:02:39.229Z</time></trkpt><trkpt lat="45.644085" lon="9.8673183"><ele>280.0</ele><time>2026-04-25T13:02:40.228Z</time></trkpt><trkpt lat="45.6440017" lon="9.8672767"><ele>280.0</ele><time>2026-04-25T13:02:41.228Z</time></trkpt><trkpt lat="45.6439067" lon="9.86726"><ele>280.0</ele><time>2026-04-25T13:02:42.229Z</time></trkpt><trkpt lat="45.643805" lon="9.8672633"><ele>280.0</ele><time>2026-04-25T13:02:43.23Z</time></trkpt><trkpt lat="45.6437" lon="9.8672767"><ele>280.0</ele><time>2026-04-25T13:02:44.229Z</time></trkpt><trkpt lat="45.643595" lon="9.8672983"><ele>280.0</ele><time>2026-04-25T13:02:45.23Z</time></trkpt><trkpt lat="45.6434917" lon="9.86733"><ele>280.0</ele><time>2026-04-25T13:02:46.237Z</time></trkpt><trkpt lat="45.6433983" lon="9.8673783"><ele>280.0</ele><time>2026-04-25T13:02:47.229Z</time></trkpt><trkpt lat="45.64332" lon="9.8674467"><ele>277.6</ele><time>2026-04-25T13:02:48.229Z</time></trkpt><trkpt lat="45.6432567" lon="9.8675367"><ele>275.2</ele><time>2026-04-25T13:02:49.229Z</time></trkpt><trkpt lat="45.6431983" lon="9.867645"><ele>272.8</ele><time>2026-04-25T13:02:50.228Z</time></trkpt><trkpt lat="45.6431417" lon="9.8677583"><ele>270.4</ele><time>2026-04-25T13:02:51.229Z</time></trkpt><trkpt lat="45.6430817" lon="9.8678733"><ele>268.0</ele><time>2026-04-25T13:02:52.229Z</time></trkpt><trkpt lat="45.6430133" lon="9.8679833"><ele>266.4</ele><time>2026-04-25T13:02:53.23Z</time></trkpt><trkpt lat="45.6429383" lon="9.868085"><ele>264.8</ele><time>2026-04-25T13:02:54.228Z</time></trkpt><trkpt lat="45.6428533" lon="9.8681717"><ele>263.2</ele><time>2026-04-25T13:02:55.229Z</time></trkpt><trkpt lat="45.6427617" lon="9.8682533"><ele>261.6</ele><time>2026-04-25T13:02:56.23Z</time></trkpt><trkpt lat="45.6426667" lon="9.8683333"><ele>260.0</ele><time>2026-04-25T13:02:57.229Z</time></trkpt><trkpt lat="45.64257" lon="9.8684083"><ele>256.2</ele><time>2026-04-25T13:02:58.229Z</time></trkpt><trkpt lat="45.6424733" lon="9.868485"><ele>252.4</ele><time>2026-04-25T13:02:59.228Z</time></trkpt><trkpt lat="45.6423767" lon="9.8685517"><ele>248.60000000000002</ele><time>2026-04-25T13:03:00.23Z</time></trkpt><trkpt lat="45.6422833" lon="9.8686067"><ele>244.8</ele><time>2026-04-25T13:03:01.228Z</time></trkpt><trkpt lat="45.642185" lon="9.868645"><ele>241.0</ele><time>2026-04-25T13:03:02.228Z</time></trkpt><trkpt lat="45.6420783" lon="9.86867"><ele>239.75</ele><time>2026-04-25T13:03:03.23Z</time></trkpt><trkpt lat="45.6419617" lon="9.8686883"><ele>238.5</ele><time>2026-04-25T13:03:04.229Z</time></trkpt><trkpt lat="45.64184" lon="9.8687033"><ele>237.25</ele><time>2026-04-25T13:03:05.229Z</time></trkpt><trkpt lat="45.6417167" lon="9.8687217"><ele>236.0</ele><time>2026-04-25T13:03:06.229Z</time></trkpt><trkpt lat="45.6416017" lon="9.868745"><ele>236.0</ele><time>2026-04-25T13:03:07.229Z</time></trkpt><trkpt lat="45.6414967" lon="9.8687717"><ele>236.00000000000003</ele><time>2026-04-25T13:03:08.229Z</time></trkpt><trkpt lat="45.6414" lon="9.868815"><ele>236.00000000000003</ele><time>2026-04-25T13:03:09.229Z</time></trkpt><trkpt lat="45.6413117" lon="9.868875"><ele>236.0</ele><time>2026-04-25T13:03:10.227Z</time></trkpt><trkpt lat="45.6412267" lon="9.8689367"><ele>236.0</ele><time>2026-04-25T13:03:11.228Z</time></trkpt><trkpt lat="45.6411417" lon="9.86899"><ele>236.20000000000002</ele><time>2026-04-25T13:03:12.229Z</time></trkpt><trkpt lat="45.6410517" lon="9.8690367"><ele>236.40000000000003</ele><time>2026-04-25T13:03:13.228Z</time></trkpt><trkpt lat="45.640955" lon="9.8690817"><ele>236.6</ele><time>2026-04-25T13:03:14.228Z</time></trkpt><trkpt lat="45.6408517" lon="9.8691283"><ele>236.8</ele><time>2026-04-25T13:03:15.229Z</time></trkpt><trkpt lat="45.64074" lon="9.86919"><ele>237.0</ele><time>2026-04-25T13:03:16.227Z</time></trkpt><trkpt lat="45.6406133" lon="9.8692683"><ele>234.5</ele><time>2026-04-25T13:03:17.227Z</time></trkpt><trkpt lat="45.6404783" lon="9.8693567"><ele>232.0</ele><time>2026-04-25T13:03:18.228Z</time></trkpt><trkpt lat="45.6403383" lon="9.8694317"><ele>229.5</ele><time>2026-04-25T13:03:19.228Z</time></trkpt><trkpt lat="45.640195" lon="9.8694817"><ele>227.0</ele><time>2026-04-25T13:03:20.228Z</time></trkpt><trkpt lat="45.6400533" lon="9.8695183"><ele>227.0</ele><time>2026-04-25T13:03:21.23Z</time></trkpt><trkpt lat="45.6399133" lon="9.869545"><ele>227.0</ele><time>2026-04-25T13:03:22.228Z</time></trkpt><trkpt lat="45.6397717" lon="9.869555"><ele>227.0</ele><time>2026-04-25T13:03:23.227Z</time></trkpt><trkpt lat="45.6396267" lon="9.86955"><ele>227.0</ele><time>2026-04-25T13:03:24.229Z</time></trkpt><trkpt lat="45.6394783" lon="9.8695317"><ele>226.0</ele><time>2026-04-25T13:03:25.228Z</time></trkpt><trkpt lat="45.63933" lon="9.86951"><ele>225.0</ele><time>2026-04-25T13:03:26.229Z</time></trkpt><trkpt lat="45.639185" lon="9.8694917"><ele>224.0</ele><time>2026-04-25T13:03:27.228Z</time></trkpt><trkpt lat="45.6390483" lon="9.8694733"><ele>223.0</ele><time>2026-04-25T13:03:28.229Z</time></trkpt><trkpt lat="45.6389217" lon="9.8694583"><ele>223.0</ele><time>2026-04-25T13:03:29.228Z</time></trkpt><trkpt lat="45.6388017" lon="9.86945"><ele>223.0</ele><time>2026-04-25T13:03:30.229Z</time></trkpt><trkpt lat="45.6386883" lon="9.869455"><ele>223.0</ele><time>2026-04-25T13:03:31.229Z</time></trkpt><trkpt lat="45.6385733" lon="9.8694717"><ele>223.0</ele><time>2026-04-25T13:03:32.229Z</time></trkpt><trkpt lat="45.63846" lon="9.8694967"><ele>223.4</ele><time>2026-04-25T13:03:33.228Z</time></trkpt><trkpt lat="45.6383467" lon="9.8695283"><ele>223.8</ele><time>2026-04-25T13:03:34.228Z</time></trkpt><trkpt lat="45.6382383" lon="9.86956"><ele>224.2</ele><time>2026-04-25T13:03:35.229Z</time></trkpt><trkpt lat="45.638135" lon="9.8695917"><ele>224.6</ele><time>2026-04-25T13:03:36.229Z</time></trkpt><trkpt lat="45.6380283" lon="9.869625"><ele>225.0</ele><time>2026-04-25T13:03:37.227Z</time></trkpt><trkpt lat="45.6379183" lon="9.86966"><ele>225.0</ele><time>2026-04-25T13:03:38.227Z</time></trkpt><trkpt lat="45.637815" lon="9.8696817"><ele>225.0</ele><time>2026-04-25T13:03:39.227Z</time></trkpt><trkpt lat="45.6377133" lon="9.86969"><ele>225.0</ele><time>2026-04-25T13:03:40.228Z</time></trkpt><trkpt lat="45.637615" lon="9.869685"><ele>225.0</ele><time>2026-04-25T13:03:41.227Z</time></trkpt><trkpt lat="45.63751" lon="9.8696783"><ele>225.0</ele><time>2026-04-25T13:03:42.227Z</time></trkpt><trkpt lat="45.637405" lon="9.8696683"><ele>225.2</ele><time>2026-04-25T13:03:43.227Z</time></trkpt><trkpt lat="45.6372967" lon="9.8696517"><ele>225.4</ele><time>2026-04-25T13:03:44.228Z</time></trkpt><trkpt lat="45.6371867" lon="9.8696383"><ele>225.60000000000002</ele><time>2026-04-25T13:03:45.229Z</time></trkpt><trkpt lat="45.6370733" lon="9.8696283"><ele>225.8</ele><time>2026-04-25T13:03:46.227Z</time></trkpt><trkpt lat="45.6369633" lon="9.8696183"><ele>226.0</ele><time>2026-04-25T13:03:47.228Z</time></trkpt><trkpt lat="45.63686" lon="9.8695967"><ele>224.4</ele><time>2026-04-25T13:03:48.227Z</time></trkpt><trkpt lat="45.6367683" lon="9.86957"><ele>222.8</ele><time>2026-04-25T13:03:49.228Z</time></trkpt><trkpt lat="45.6366717" lon="9.8695183"><ele>221.20000000000002</ele><time>2026-04-25T13:03:50.229Z</time></trkpt><trkpt lat="45.63658" lon="9.869445"><ele>219.60000000000002</ele><time>2026-04-25T13:03:51.23Z</time></trkpt><trkpt lat="45.6365017" lon="9.8693767"><ele>218.0</ele><time>2026-04-25T13:03:52.228Z</time></trkpt><trkpt lat="45.6364333" lon="9.8693217"><ele>217.71428571428572</ele><time>2026-04-25T13:03:53.228Z</time></trkpt><trkpt lat="45.6363733" lon="9.8692717"><ele>217.42857142857144</ele><time>2026-04-25T13:03:54.228Z</time></trkpt><trkpt lat="45.6363217" lon="9.8692183"><ele>217.14285714285714</ele><time>2026-04-25T13:03:55.227Z</time></trkpt><trkpt lat="45.6362733" lon="9.86915"><ele>216.85714285714286</ele><time>2026-04-25T13:03:56.228Z</time></trkpt><trkpt lat="45.6362167" lon="9.86907"><ele>216.57142857142856</ele><time>2026-04-25T13:03:57.23Z</time></trkpt><trkpt lat="45.6361517" lon="9.869005"><ele>216.28571428571428</ele><time>2026-04-25T13:03:58.23Z</time></trkpt><trkpt lat="45.6360767" lon="9.8689583"><ele>216.0</ele><time>2026-04-25T13:03:59.228Z</time></trkpt><trkpt lat="45.635995" lon="9.8689167"><ele>214.66666666666666</ele><time>2026-04-25T13:04:00.228Z</time></trkpt><trkpt lat="45.6359167" lon="9.8688567"><ele>213.33333333333331</ele><time>2026-04-25T13:04:01.227Z</time></trkpt><trkpt lat="45.6358467" lon="9.86877"><ele>212.0</ele><time>2026-04-25T13:04:02.228Z</time></trkpt><trkpt lat="45.63579" lon="9.86867"><ele>210.66666666666666</ele><time>2026-04-25T13:04:03.228Z</time></trkpt><trkpt lat="45.6357383" lon="9.86857"><ele>209.33333333333331</ele><time>2026-04-25T13:04:04.228Z</time></trkpt><trkpt lat="45.6356917" lon="9.8684633"><ele>208.0</ele><time>2026-04-25T13:04:05.228Z</time></trkpt><trkpt lat="45.63564" lon="9.868345"><ele>207.75</ele><time>2026-04-25T13:04:06.227Z</time></trkpt><trkpt lat="45.6355867" lon="9.8682183"><ele>207.5</ele><time>2026-04-25T13:04:07.227Z</time></trkpt><trkpt lat="45.6355283" lon="9.8680783"><ele>207.25</ele><time>2026-04-25T13:04:08.228Z</time></trkpt><trkpt lat="45.6354667" lon="9.8679383"><ele>207.0</ele><time>2026-04-25T13:04:09.228Z</time></trkpt><trkpt lat="45.6354" lon="9.867795"><ele>207.0</ele><time>2026-04-25T13:04:10.229Z</time></trkpt><trkpt lat="45.6353333" lon="9.867645"><ele>207.0</ele><time>2026-04-25T13:04:11.229Z</time></trkpt><trkpt lat="45.6352633" lon="9.8674967"><ele>207.0</ele><time>2026-04-25T13:04:12.228Z</time></trkpt><trkpt lat="45.6352017" lon="9.8673617"><ele>207.0</ele><time>2026-04-25T13:04:13.229Z</time></trkpt><trkpt lat="45.635145" lon="9.8672417"><ele>206.8</ele><time>2026-04-25T13:04:14.228Z</time></trkpt><trkpt lat="45.635095" lon="9.8671367"><ele>206.6</ele><time>2026-04-25T13:04:15.23Z</time></trkpt><trkpt lat="45.635045" lon="9.867035"><ele>206.4</ele><time>2026-04-25T13:04:16.229Z</time></trkpt><trkpt lat="45.63499" lon="9.8669267"><ele>206.20000000000002</ele><time>2026-04-25T13:04:17.228Z</time></trkpt><trkpt lat="45.6349267" lon="9.8667983"><ele>206.0</ele><time>2026-04-25T13:04:18.228Z</time></trkpt><trkpt lat="45.6348567" lon="9.8666433"><ele>206.0</ele><time>2026-04-25T13:04:19.228Z</time></trkpt><trkpt lat="45.6347817" lon="9.8664617"><ele>206.0</ele><time>2026-04-25T13:04:20.229Z</time></trkpt><trkpt lat="45.6347017" lon="9.8662667"><ele>206.0</ele><time>2026-04-25T13:04:21.229Z</time></trkpt><trkpt lat="45.6346233" lon="9.8660683"><ele>206.0</ele><time>2026-04-25T13:04:22.231Z</time></trkpt><trkpt lat="45.6345383" lon="9.86587"><ele>206.0</ele><time>2026-04-25T13:04:23.229Z</time></trkpt><trkpt lat="45.6344517" lon="9.86567"><ele>206.0</ele><time>2026-04-25T13:04:24.229Z</time></trkpt><trkpt lat="45.6343617" lon="9.8654717"><ele>205.75</ele><time>2026-04-25T13:04:25.229Z</time></trkpt><trkpt lat="45.6342767" lon="9.8652833"><ele>205.5</ele><time>2026-04-25T13:04:26.23Z</time></trkpt><trkpt lat="45.6341983" lon="9.865105"><ele>205.25</ele><time>2026-04-25T13:04:27.23Z</time></trkpt><trkpt lat="45.6341267" lon="9.86494"><ele>205.0</ele><time>2026-04-25T13:04:28.23Z</time></trkpt><trkpt lat="45.63406" lon="9.864785"><ele>205.0</ele><time>2026-04-25T13:04:29.23Z</time></trkpt><trkpt lat="45.634005" lon="9.8646433"><ele>205.0</ele><time>2026-04-25T13:04:30.229Z</time></trkpt><trkpt lat="45.6339517" lon="9.8645133"><ele>205.0</ele><time>2026-04-25T13:04:31.228Z</time></trkpt><trkpt lat="45.6338433" lon="9.8642617"><ele>205.0</ele><time>2026-04-25T13:04:33.229Z</time></trkpt><trkpt lat="45.633795" lon="9.8641367"><ele>204.8</ele><time>2026-04-25T13:04:34.228Z</time></trkpt><trkpt lat="45.6337567" lon="9.8640067"><ele>204.6</ele><time>2026-04-25T13:04:35.228Z</time></trkpt><trkpt lat="45.6337333" lon="9.863875"><ele>204.39999999999998</ele><time>2026-04-25T13:04:36.23Z</time></trkpt><trkpt lat="45.6337217" lon="9.86374"><ele>204.2</ele><time>2026-04-25T13:04:37.228Z</time></trkpt><trkpt lat="45.6337267" lon="9.86361"><ele>204.0</ele><time>2026-04-25T13:04:38.228Z</time></trkpt><trkpt lat="45.633735" lon="9.86348"><ele>203.83333333333334</ele><time>2026-04-25T13:04:39.23Z</time></trkpt><trkpt lat="45.6337433" lon="9.86335"><ele>203.66666666666669</ele><time>2026-04-25T13:04:40.228Z</time></trkpt><trkpt lat="45.6337383" lon="9.8632317"><ele>203.5</ele><time>2026-04-25T13:04:41.228Z</time></trkpt><trkpt lat="45.633735" lon="9.863125"><ele>203.33333333333334</ele><time>2026-04-25T13:04:42.229Z</time></trkpt><trkpt lat="45.6337283" lon="9.8630117"><ele>203.16666666666669</ele><time>2026-04-25T13:04:43.229Z</time></trkpt><trkpt lat="45.6337233" lon="9.8628867"><ele>203.0</ele><time>2026-04-25T13:04:44.228Z</time></trkpt><trkpt lat="45.6337167" lon="9.8627583"><ele>203.00000000000003</ele><time>2026-04-25T13:04:45.229Z</time></trkpt><trkpt lat="45.6337117" lon="9.86264"><ele>203.0</ele><time>2026-04-25T13:04:46.229Z</time></trkpt><trkpt lat="45.6337133" lon="9.86253"><ele>203.0</ele><time>2026-04-25T13:04:47.229Z</time></trkpt><trkpt lat="45.63372" lon="9.8624283"><ele>203.0</ele><time>2026-04-25T13:04:48.234Z</time></trkpt><trkpt lat="45.633715" lon="9.8622683"><ele>203.00000000000003</ele><time>2026-04-25T13:04:50.23Z</time></trkpt><trkpt lat="45.6336317" lon="9.8621967"><ele>203.0</ele><time>2026-04-25T13:04:52.229Z</time></trkpt><trkpt lat="45.633515" lon="9.8622567"><ele>202.0</ele><time>2026-04-25T13:04:54.228Z</time></trkpt><trkpt lat="45.63339" lon="9.8622917"><ele>201.0</ele><time>2026-04-25T13:04:56.23Z</time></trkpt><trkpt lat="45.6333083" lon="9.8622733"><ele>200.0</ele><time>2026-04-25T13:04:57.228Z</time></trkpt><trkpt lat="45.6332183" lon="9.862245"><ele>199.0</ele><time>2026-04-25T13:04:58.228Z</time></trkpt><trkpt lat="45.6331283" lon="9.86221"><ele>198.0</ele><time>2026-04-25T13:04:59.228Z</time></trkpt><trkpt lat="45.6330467" lon="9.862175"><ele>198.0</ele><time>2026-04-25T13:05:00.228Z</time></trkpt><trkpt lat="45.6329783" lon="9.8621383"><ele>198.0</ele><time>2026-04-25T13:05:01.229Z</time></trkpt><trkpt lat="45.6328833" lon="9.8620633"><ele>198.0</ele><time>2026-04-25T13:05:03.228Z</time></trkpt><trkpt lat="45.6328167" lon="9.861975"><ele>198.0</ele><time>2026-04-25T13:05:05.227Z</time></trkpt><trkpt lat="45.63275" lon="9.8618217"><ele>198.0</ele><time>2026-04-25T13:05:07.227Z</time></trkpt><trkpt lat="45.632715" lon="9.86171"><ele>197.8</ele><time>2026-04-25T13:05:08.229Z</time></trkpt><trkpt lat="45.63269" lon="9.861585"><ele>197.60000000000002</ele><time>2026-04-25T13:05:09.229Z</time></trkpt><trkpt lat="45.63269" lon="9.8614533"><ele>197.39999999999998</ele><time>2026-04-25T13:05:10.229Z</time></trkpt><trkpt lat="45.6327133" lon="9.86131"><ele>197.2</ele><time>2026-04-25T13:05:11.229Z</time></trkpt><trkpt lat="45.6327617" lon="9.8611533"><ele>197.0</ele><time>2026-04-25T13:05:12.229Z</time></trkpt><trkpt lat="45.632825" lon="9.8609883"><ele>196.75</ele><time>2026-04-25T13:05:13.227Z</time></trkpt><trkpt lat="45.6328967" lon="9.86083"><ele>196.5</ele><time>2026-04-25T13:05:14.229Z</time></trkpt><trkpt lat="45.6329783" lon="9.8606717"><ele>196.25</ele><time>2026-04-25T13:05:15.229Z</time></trkpt><trkpt lat="45.6330717" lon="9.8605117"><ele>196.0</ele><time>2026-04-25T13:05:16.228Z</time></trkpt><trkpt lat="45.6331683" lon="9.86035"><ele>196.0</ele><time>2026-04-25T13:05:17.228Z</time></trkpt><trkpt lat="45.63328" lon="9.86019"><ele>196.0</ele><time>2026-04-25T13:05:18.229Z</time></trkpt><trkpt lat="45.6333967" lon="9.8600383"><ele>196.0</ele><time>2026-04-25T13:05:19.227Z</time></trkpt><trkpt lat="45.6335167" lon="9.8598967"><ele>196.66666666666666</ele><time>2026-04-25T13:05:20.228Z</time></trkpt><trkpt lat="45.6336433" lon="9.8597617"><ele>197.33333333333331</ele><time>2026-04-25T13:05:21.228Z</time></trkpt><trkpt lat="45.6337717" lon="9.859635"><ele>198.0</ele><time>2026-04-25T13:05:22.228Z</time></trkpt><trkpt lat="45.6339" lon="9.8595167"><ele>198.0</ele><time>2026-04-25T13:05:23.228Z</time></trkpt><trkpt lat="45.6340267" lon="9.8594017"><ele>198.0</ele><time>2026-04-25T13:05:24.228Z</time></trkpt><trkpt lat="45.634155" lon="9.8592883"><ele>198.0</ele><time>2026-04-25T13:05:25.228Z</time></trkpt><trkpt lat="45.6342833" lon="9.85918"><ele>198.25</ele><time>2026-04-25T13:05:26.229Z</time></trkpt><trkpt lat="45.6344117" lon="9.8590717"><ele>198.5</ele><time>2026-04-25T13:05:27.228Z</time></trkpt><trkpt lat="45.6345383" lon="9.8589633"><ele>198.75</ele><time>2026-04-25T13:05:28.228Z</time></trkpt><trkpt lat="45.6346617" lon="9.858855"><ele>199.0</ele><time>2026-04-25T13:05:29.227Z</time></trkpt><trkpt lat="45.634785" lon="9.858745"><ele>199.0</ele><time>2026-04-25T13:05:30.227Z</time></trkpt><trkpt lat="45.6349033" lon="9.8586383"><ele>199.0</ele><time>2026-04-25T13:05:31.229Z</time></trkpt><trkpt lat="45.6350233" lon="9.85853"><ele>199.0</ele><time>2026-04-25T13:05:32.227Z</time></trkpt><trkpt lat="45.6351383" lon="9.8584133"><ele>199.0</ele><time>2026-04-25T13:05:33.229Z</time></trkpt><trkpt lat="45.6352533" lon="9.858295"><ele>198.75</ele><time>2026-04-25T13:05:34.229Z</time></trkpt><trkpt lat="45.6353667" lon="9.8581683"><ele>198.5</ele><time>2026-04-25T13:05:35.228Z</time></trkpt><trkpt lat="45.63548" lon="9.8580383"><ele>198.25</ele><time>2026-04-25T13:05:36.229Z</time></trkpt><trkpt lat="45.6355933" lon="9.8579017"><ele>198.0</ele><time>2026-04-25T13:05:37.229Z</time></trkpt><trkpt lat="45.6356983" lon="9.8577583"><ele>197.75</ele><time>2026-04-25T13:05:38.227Z</time></trkpt><trkpt lat="45.6357967" lon="9.8576083"><ele>197.5</ele><time>2026-04-25T13:05:39.228Z</time></trkpt><trkpt lat="45.635895" lon="9.8574517"><ele>197.25</ele><time>2026-04-25T13:05:40.229Z</time></trkpt><trkpt lat="45.6359967" lon="9.8572867"><ele>197.0</ele><time>2026-04-25T13:05:41.229Z</time></trkpt><trkpt lat="45.6360967" lon="9.8571067"><ele>197.0</ele><time>2026-04-25T13:05:42.228Z</time></trkpt><trkpt lat="45.6361967" lon="9.856905"><ele>197.0</ele><time>2026-04-25T13:05:43.228Z</time></trkpt><trkpt lat="45.6362967" lon="9.8566733"><ele>197.0</ele><time>2026-04-25T13:05:44.227Z</time></trkpt><trkpt lat="45.6364067" lon="9.85642"><ele>197.0</ele><time>2026-04-25T13:05:45.229Z</time></trkpt><trkpt lat="45.6365267" lon="9.8561517"><ele>197.0</ele><time>2026-04-25T13:05:46.228Z</time></trkpt><trkpt lat="45.636645" lon="9.8558767"><ele>197.0</ele><time>2026-04-25T13:05:47.228Z</time></trkpt><trkpt lat="45.6367533" lon="9.8556017"><ele>196.66666666666669</ele><time>2026-04-25T13:05:48.228Z</time></trkpt><trkpt lat="45.6368533" lon="9.8553383"><ele>196.33333333333331</ele><time>2026-04-25T13:05:49.227Z</time></trkpt><trkpt lat="45.63694" lon="9.855085"><ele>196.0</ele><time>2026-04-25T13:05:50.23Z</time></trkpt><trkpt lat="45.6370133" lon="9.8548433"><ele>195.33333333333331</ele><time>2026-04-25T13:05:51.229Z</time></trkpt><trkpt lat="45.6370767" lon="9.85461"><ele>194.66666666666669</ele><time>2026-04-25T13:05:52.229Z</time></trkpt><trkpt lat="45.6371317" lon="9.85439"><ele>194.0</ele><time>2026-04-25T13:05:53.228Z</time></trkpt><trkpt lat="45.637175" lon="9.854175"><ele>194.0</ele><time>2026-04-25T13:05:54.228Z</time></trkpt><trkpt lat="45.6372117" lon="9.8539683"><ele>194.0</ele><time>2026-04-25T13:05:55.23Z</time></trkpt><trkpt lat="45.6372433" lon="9.8537883"><ele>194.0</ele><time>2026-04-25T13:05:56.228Z</time></trkpt><trkpt lat="45.63728" lon="9.85363"><ele>194.0</ele><time>2026-04-25T13:05:57.23Z</time></trkpt><trkpt lat="45.6373233" lon="9.8534817"><ele>194.25</ele><time>2026-04-25T13:05:58.228Z</time></trkpt><trkpt lat="45.6373817" lon="9.85334"><ele>194.5</ele><time>2026-04-25T13:05:59.229Z</time></trkpt><trkpt lat="45.63745" lon="9.8532067"><ele>194.75</ele><time>2026-04-25T13:06:00.228Z</time></trkpt><trkpt lat="45.6375183" lon="9.853075"><ele>195.0</ele><time>2026-04-25T13:06:01.229Z</time></trkpt><trkpt lat="45.637565" lon="9.85293"><ele>195.0</ele><time>2026-04-25T13:06:02.228Z</time></trkpt><trkpt lat="45.6375767" lon="9.852775"><ele>195.0</ele><time>2026-04-25T13:06:03.23Z</time></trkpt><trkpt lat="45.6375567" lon="9.8526133"><ele>195.0</ele><time>2026-04-25T13:06:04.227Z</time></trkpt><trkpt lat="45.63752" lon="9.8524483"><ele>195.0</ele><time>2026-04-25T13:06:05.229Z</time></trkpt><trkpt lat="45.63748" lon="9.8522733"><ele>194.75</ele><time>2026-04-25T13:06:06.232Z</time></trkpt><trkpt lat="45.6374417" lon="9.8520933"><ele>194.5</ele><time>2026-04-25T13:06:07.229Z</time></trkpt><trkpt lat="45.6374217" lon="9.8519067"><ele>194.25</ele><time>2026-04-25T13:06:08.228Z</time></trkpt><trkpt lat="45.6374317" lon="9.8517067"><ele>194.0</ele><time>2026-04-25T13:06:09.229Z</time></trkpt><trkpt lat="45.6374567" lon="9.8514883"><ele>194.66666666666669</ele><time>2026-04-25T13:06:10.228Z</time></trkpt><trkpt lat="45.6374917" lon="9.8512617"><ele>195.33333333333331</ele><time>2026-04-25T13:06:11.229Z</time></trkpt><trkpt lat="45.637525" lon="9.8510333"><ele>196.0</ele><time>2026-04-25T13:06:12.228Z</time></trkpt><trkpt lat="45.6375617" lon="9.8508033"><ele>196.33333333333331</ele><time>2026-04-25T13:06:13.228Z</time></trkpt><trkpt lat="45.6375933" lon="9.85057"><ele>196.66666666666669</ele><time>2026-04-25T13:06:14.227Z</time></trkpt><trkpt lat="45.637625" lon="9.8503367"><ele>197.0</ele><time>2026-04-25T13:06:15.228Z</time></trkpt><trkpt lat="45.637665" lon="9.8501"><ele>196.33333333333334</ele><time>2026-04-25T13:06:16.228Z</time></trkpt><trkpt lat="45.6377033" lon="9.8498633"><ele>195.66666666666669</ele><time>2026-04-25T13:06:17.23Z</time></trkpt><trkpt lat="45.63774" lon="9.84963"><ele>195.0</ele><time>2026-04-25T13:06:18.228Z</time></trkpt><trkpt lat="45.637775" lon="9.8493983"><ele>196.66666666666669</ele><time>2026-04-25T13:06:19.229Z</time></trkpt><trkpt lat="45.6378083" lon="9.8491683"><ele>198.33333333333334</ele><time>2026-04-25T13:06:20.23Z</time></trkpt><trkpt lat="45.637835" lon="9.8489367"><ele>200.0</ele><time>2026-04-25T13:06:21.229Z</time></trkpt><trkpt lat="45.6378483" lon="9.8487017"><ele>200.0</ele><time>2026-04-25T13:06:22.229Z</time></trkpt><trkpt lat="45.637855" lon="9.848465"><ele>200.0</ele><time>2026-04-25T13:06:23.229Z</time></trkpt><trkpt lat="45.6378567" lon="9.8482317"><ele>200.0</ele><time>2026-04-25T13:06:24.227Z</time></trkpt><trkpt lat="45.6378583" lon="9.8480067"><ele>200.25</ele><time>2026-04-25T13:06:25.229Z</time></trkpt><trkpt lat="45.6378617" lon="9.8477933"><ele>200.5</ele><time>2026-04-25T13:06:26.228Z</time></trkpt><trkpt lat="45.637865" lon="9.8475917"><ele>200.75</ele><time>2026-04-25T13:06:27.229Z</time></trkpt><trkpt lat="45.6378683" lon="9.8473983"><ele>201.0</ele><time>2026-04-25T13:06:28.229Z</time></trkpt><trkpt lat="45.63787" lon="9.8472133"><ele>200.5</ele><time>2026-04-25T13:06:29.228Z</time></trkpt><trkpt lat="45.63787" lon="9.847035"><ele>200.0</ele><time>2026-04-25T13:06:30.228Z</time></trkpt><trkpt lat="45.6378717" lon="9.8468683"><ele>199.5</ele><time>2026-04-25T13:06:31.229Z</time></trkpt><trkpt lat="45.6378717" lon="9.84671"><ele>199.0</ele><time>2026-04-25T13:06:32.229Z</time></trkpt><trkpt lat="45.6378733" lon="9.84656"><ele>198.79999999999998</ele><time>2026-04-25T13:06:33.231Z</time></trkpt><trkpt lat="45.637875" lon="9.8464133"><ele>198.6</ele><time>2026-04-25T13:06:34.228Z</time></trkpt><trkpt lat="45.6378783" lon="9.8462717"><ele>198.4</ele><time>2026-04-25T13:06:35.228Z</time></trkpt><trkpt lat="45.63788" lon="9.846135"><ele>198.2</ele><time>2026-04-25T13:06:36.227Z</time></trkpt><trkpt lat="45.6378767" lon="9.8460067"><ele>198.0</ele><time>2026-04-25T13:06:37.229Z</time></trkpt><trkpt lat="45.6378767" lon="9.845885"><ele>197.66666666666666</ele><time>2026-04-25T13:06:38.228Z</time></trkpt><trkpt lat="45.6378783" lon="9.8457683"><ele>197.33333333333331</ele><time>2026-04-25T13:06:39.23Z</time></trkpt><trkpt lat="45.6378867" lon="9.8456567"><ele>197.0</ele><time>2026-04-25T13:06:40.228Z</time></trkpt><trkpt lat="45.6379067" lon="9.84555"><ele>196.66666666666666</ele><time>2026-04-25T13:06:41.229Z</time></trkpt><trkpt lat="45.63794" lon="9.8454433"><ele>196.33333333333331</ele><time>2026-04-25T13:06:42.229Z</time></trkpt><trkpt lat="45.63798" lon="9.8453383"><ele>196.0</ele><time>2026-04-25T13:06:43.228Z</time></trkpt><trkpt lat="45.638025" lon="9.84524"><ele>195.99999999999997</ele><time>2026-04-25T13:06:44.228Z</time></trkpt><trkpt lat="45.6380617" lon="9.845135"><ele>196.0</ele><time>2026-04-25T13:06:45.229Z</time></trkpt><trkpt lat="45.638085" lon="9.8450217"><ele>196.0</ele><time>2026-04-25T13:06:46.228Z</time></trkpt><trkpt lat="45.6380917" lon="9.8449067"><ele>196.0</ele><time>2026-04-25T13:06:47.229Z</time></trkpt><trkpt lat="45.63808" lon="9.844805"><ele>195.99999999999997</ele><time>2026-04-25T13:06:48.228Z</time></trkpt><trkpt lat="45.6380433" lon="9.8447083"><ele>196.0</ele><time>2026-04-25T13:06:49.229Z</time></trkpt><trkpt lat="45.637975" lon="9.8446233"><ele>196.0</ele><time>2026-04-25T13:06:50.23Z</time></trkpt><trkpt lat="45.6378867" lon="9.8445617"><ele>196.0</ele><time>2026-04-25T13:06:51.231Z</time></trkpt><trkpt lat="45.637795" lon="9.8445"><ele>196.0</ele><time>2026-04-25T13:06:52.228Z</time></trkpt><trkpt lat="45.6377117" lon="9.84441"><ele>196.0</ele><time>2026-04-25T13:06:53.229Z</time></trkpt><trkpt lat="45.6376367" lon="9.8442933"><ele>196.0</ele><time>2026-04-25T13:06:54.228Z</time></trkpt><trkpt lat="45.6375667" lon="9.84416"><ele>196.0</ele><time>2026-04-25T13:06:55.23Z</time></trkpt><trkpt lat="45.6374983" lon="9.8440167"><ele>196.0</ele><time>2026-04-25T13:06:56.23Z</time></trkpt><trkpt lat="45.6374317" lon="9.84387"><ele>196.0</ele><time>2026-04-25T13:06:57.229Z</time></trkpt><trkpt lat="45.6373617" lon="9.8437083"><ele>196.0</ele><time>2026-04-25T13:06:58.228Z</time></trkpt><trkpt lat="45.6372917" lon="9.8435383"><ele>196.5</ele><time>2026-04-25T13:06:59.23Z</time></trkpt><trkpt lat="45.6372217" lon="9.8433633"><ele>197.0</ele><time>2026-04-25T13:07:00.229Z</time></trkpt><trkpt lat="45.6371533" lon="9.84318"><ele>197.5</ele><time>2026-04-25T13:07:01.227Z</time></trkpt><trkpt lat="45.63709" lon="9.8429983"><ele>198.0</ele><time>2026-04-25T13:07:02.228Z</time></trkpt><trkpt lat="45.6370383" lon="9.8428167"><ele>197.66666666666669</ele><time>2026-04-25T13:07:03.228Z</time></trkpt><trkpt lat="45.636945" lon="9.84245"><ele>197.33333333333334</ele><time>2026-04-25T13:07:05.228Z</time></trkpt><trkpt lat="45.636905" lon="9.8422617"><ele>197.0</ele><time>2026-04-25T13:07:06.229Z</time></trkpt><trkpt lat="45.6368633" lon="9.842065"><ele>197.0</ele><time>2026-04-25T13:07:07.227Z</time></trkpt><trkpt lat="45.6368267" lon="9.8418567"><ele>197.0</ele><time>2026-04-25T13:07:08.228Z</time></trkpt><trkpt lat="45.6367967" lon="9.8416333"><ele>197.0</ele><time>2026-04-25T13:07:09.229Z</time></trkpt><trkpt lat="45.6367733" lon="9.8413983"><ele>198.0</ele><time>2026-04-25T13:07:10.229Z</time></trkpt><trkpt lat="45.6367583" lon="9.841155"><ele>199.0</ele><time>2026-04-25T13:07:11.228Z</time></trkpt><trkpt lat="45.6367517" lon="9.8409067"><ele>200.0</ele><time>2026-04-25T13:07:12.231Z</time></trkpt><trkpt lat="45.6367533" lon="9.84066"><ele>200.0</ele><time>2026-04-25T13:07:13.228Z</time></trkpt><trkpt lat="45.6367633" lon="9.84041"><ele>200.0</ele><time>2026-04-25T13:07:14.228Z</time></trkpt><trkpt lat="45.63678" lon="9.8401533"><ele>200.0</ele><time>2026-04-25T13:07:15.23Z</time></trkpt><trkpt lat="45.6368083" lon="9.8398933"><ele>199.66666666666669</ele><time>2026-04-25T13:07:16.231Z</time></trkpt><trkpt lat="45.6368483" lon="9.839635"><ele>199.33333333333331</ele><time>2026-04-25T13:07:17.228Z</time></trkpt><trkpt lat="45.6368933" lon="9.8393783"><ele>199.0</ele><time>2026-04-25T13:07:18.228Z</time></trkpt><trkpt lat="45.63694" lon="9.8391233"><ele>199.66666666666666</ele><time>2026-04-25T13:07:19.229Z</time></trkpt><trkpt lat="45.63699" lon="9.8388633"><ele>200.33333333333331</ele><time>2026-04-25T13:07:20.228Z</time></trkpt><trkpt lat="45.6370483" lon="9.8386033"><ele>201.0</ele><time>2026-04-25T13:07:21.23Z</time></trkpt><trkpt lat="45.6371117" lon="9.83834"><ele>201.0</ele><time>2026-04-25T13:07:22.229Z</time></trkpt><trkpt lat="45.6371733" lon="9.8380767"><ele>201.0</ele><time>2026-04-25T13:07:23.229Z</time></trkpt><trkpt lat="45.6372317" lon="9.8378183"><ele>201.0</ele><time>2026-04-25T13:07:24.228Z</time></trkpt><trkpt lat="45.6372867" lon="9.8375633"><ele>200.33333333333331</ele><time>2026-04-25T13:07:25.231Z</time></trkpt><trkpt lat="45.6373433" lon="9.8373167"><ele>199.66666666666666</ele><time>2026-04-25T13:07:26.228Z</time></trkpt><trkpt lat="45.6373967" lon="9.837075"><ele>199.0</ele><time>2026-04-25T13:07:27.229Z</time></trkpt><trkpt lat="45.6374483" lon="9.836835"><ele>199.33333333333331</ele><time>2026-04-25T13:07:28.228Z</time></trkpt><trkpt lat="45.6375" lon="9.8366033"><ele>199.66666666666669</ele><time>2026-04-25T13:07:29.229Z</time></trkpt><trkpt lat="45.6375533" lon="9.83638"><ele>200.0</ele><time>2026-04-25T13:07:30.229Z</time></trkpt><trkpt lat="45.637605" lon="9.836165"><ele>200.33333333333334</ele><time>2026-04-25T13:07:31.229Z</time></trkpt><trkpt lat="45.6376533" lon="9.8359583"><ele>200.66666666666669</ele><time>2026-04-25T13:07:32.229Z</time></trkpt><trkpt lat="45.6377" lon="9.83575"><ele>201.0</ele><time>2026-04-25T13:07:33.228Z</time></trkpt><trkpt lat="45.6377483" lon="9.8355383"><ele>201.0</ele><time>2026-04-25T13:07:34.227Z</time></trkpt><trkpt lat="45.637795" lon="9.8353283"><ele>201.0</ele><time>2026-04-25T13:07:35.228Z</time></trkpt><trkpt lat="45.6378467" lon="9.8351167"><ele>201.0</ele><time>2026-04-25T13:07:36.227Z</time></trkpt><trkpt lat="45.6378967" lon="9.834905"><ele>200.33333333333331</ele><time>2026-04-25T13:07:37.228Z</time></trkpt><trkpt lat="45.6379433" lon="9.8346983"><ele>199.66666666666666</ele><time>2026-04-25T13:07:38.229Z</time></trkpt><trkpt lat="45.63799" lon="9.8344883"><ele>199.0</ele><time>2026-04-25T13:07:39.229Z</time></trkpt><trkpt lat="45.6380333" lon="9.8342783"><ele>199.0</ele><time>2026-04-25T13:07:40.229Z</time></trkpt><trkpt lat="45.63808" lon="9.834065"><ele>199.0</ele><time>2026-04-25T13:07:41.228Z</time></trkpt><trkpt lat="45.6381267" lon="9.8338483"><ele>199.0</ele><time>2026-04-25T13:07:42.229Z</time></trkpt><trkpt lat="45.638175" lon="9.8336267"><ele>199.66666666666666</ele><time>2026-04-25T13:07:43.228Z</time></trkpt><trkpt lat="45.6382217" lon="9.8334067"><ele>200.33333333333331</ele><time>2026-04-25T13:07:44.228Z</time></trkpt><trkpt lat="45.6382683" lon="9.8331867"><ele>201.0</ele><time>2026-04-25T13:07:45.228Z</time></trkpt><trkpt lat="45.6383167" lon="9.8329633"><ele>201.0</ele><time>2026-04-25T13:07:46.228Z</time></trkpt><trkpt lat="45.63837" lon="9.8327383"><ele>201.0</ele><time>2026-04-25T13:07:47.228Z</time></trkpt><trkpt lat="45.6384233" lon="9.8325067"><ele>201.0</ele><time>2026-04-25T13:07:48.228Z</time></trkpt><trkpt lat="45.6384767" lon="9.832275"><ele>200.66666666666669</ele><time>2026-04-25T13:07:49.229Z</time></trkpt><trkpt lat="45.6385317" lon="9.8320417"><ele>200.33333333333334</ele><time>2026-04-25T13:07:50.229Z</time></trkpt><trkpt lat="45.6385817" lon="9.83181"><ele>200.0</ele><time>2026-04-25T13:07:51.229Z</time></trkpt><trkpt lat="45.6386333" lon="9.831575"><ele>200.33333333333334</ele><time>2026-04-25T13:07:52.229Z</time></trkpt><trkpt lat="45.63869" lon="9.8313367"><ele>200.66666666666669</ele><time>2026-04-25T13:07:53.228Z</time></trkpt><trkpt lat="45.6387433" lon="9.8310983"><ele>201.0</ele><time>2026-04-25T13:07:54.228Z</time></trkpt><trkpt lat="45.6387967" lon="9.830855"><ele>201.0</ele><time>2026-04-25T13:07:55.228Z</time></trkpt><trkpt lat="45.6388517" lon="9.8306083"><ele>201.0</ele><time>2026-04-25T13:07:56.228Z</time></trkpt><trkpt lat="45.6389083" lon="9.8303567"><ele>201.0</ele><time>2026-04-25T13:07:57.228Z</time></trkpt><trkpt lat="45.638965" lon="9.8301033"><ele>201.33333333333331</ele><time>2026-04-25T13:07:58.228Z</time></trkpt><trkpt lat="45.6390233" lon="9.8298433"><ele>201.66666666666666</ele><time>2026-04-25T13:07:59.228Z</time></trkpt><trkpt lat="45.6390833" lon="9.82958"><ele>202.0</ele><time>2026-04-25T13:08:00.227Z</time></trkpt><trkpt lat="45.6391467" lon="9.8293133"><ele>202.66666666666666</ele><time>2026-04-25T13:08:01.228Z</time></trkpt><trkpt lat="45.63921" lon="9.8290417"><ele>203.33333333333331</ele><time>2026-04-25T13:08:02.229Z</time></trkpt><trkpt lat="45.6392717" lon="9.8287667"><ele>204.0</ele><time>2026-04-25T13:08:03.23Z</time></trkpt><trkpt lat="45.6393333" lon="9.8284917"><ele>204.0</ele><time>2026-04-25T13:08:04.227Z</time></trkpt><trkpt lat="45.6393967" lon="9.828215"><ele>204.0</ele><time>2026-04-25T13:08:05.227Z</time></trkpt><trkpt lat="45.6394617" lon="9.82794"><ele>204.0</ele><time>2026-04-25T13:08:06.227Z</time></trkpt><trkpt lat="45.6395267" lon="9.8276683"><ele>204.0</ele><time>2026-04-25T13:08:07.229Z</time></trkpt><trkpt lat="45.6395917" lon="9.8273933"><ele>204.0</ele><time>2026-04-25T13:08:08.227Z</time></trkpt><trkpt lat="45.6396567" lon="9.827125"><ele>204.0</ele><time>2026-04-25T13:08:09.228Z</time></trkpt><trkpt lat="45.63973" lon="9.8268583"><ele>204.0</ele><time>2026-04-25T13:08:10.229Z</time></trkpt><trkpt lat="45.6398067" lon="9.8265933"><ele>204.0</ele><time>2026-04-25T13:08:11.228Z</time></trkpt><trkpt lat="45.639885" lon="9.8263333"><ele>204.0</ele><time>2026-04-25T13:08:12.227Z</time></trkpt><trkpt lat="45.6399717" lon="9.8260783"><ele>203.66666666666669</ele><time>2026-04-25T13:08:13.229Z</time></trkpt><trkpt lat="45.6400667" lon="9.8258283"><ele>203.33333333333334</ele><time>2026-04-25T13:08:14.227Z</time></trkpt><trkpt lat="45.640165" lon="9.825585"><ele>203.0</ele><time>2026-04-25T13:08:15.229Z</time></trkpt><trkpt lat="45.6402683" lon="9.8253467"><ele>203.33333333333334</ele><time>2026-04-25T13:08:16.228Z</time></trkpt><trkpt lat="45.64038" lon="9.82511"><ele>203.66666666666669</ele><time>2026-04-25T13:08:17.228Z</time></trkpt><trkpt lat="45.6404967" lon="9.8248767"><ele>204.0</ele><time>2026-04-25T13:08:18.228Z</time></trkpt><trkpt lat="45.64062" lon="9.8246483"><ele>204.0</ele><time>2026-04-25T13:08:19.228Z</time></trkpt><trkpt lat="45.6407467" lon="9.8244283"><ele>204.0</ele><time>2026-04-25T13:08:20.228Z</time></trkpt><trkpt lat="45.6408783" lon="9.8242183"><ele>204.0</ele><time>2026-04-25T13:08:21.229Z</time></trkpt><trkpt lat="45.641015" lon="9.8240133"><ele>203.66666666666669</ele><time>2026-04-25T13:08:22.229Z</time></trkpt><trkpt lat="45.641155" lon="9.8238167"><ele>203.33333333333334</ele><time>2026-04-25T13:08:23.227Z</time></trkpt><trkpt lat="45.6413" lon="9.8236267"><ele>203.0</ele><time>2026-04-25T13:08:24.228Z</time></trkpt><trkpt lat="45.6414467" lon="9.8234467"><ele>203.0</ele><time>2026-04-25T13:08:25.227Z</time></trkpt><trkpt lat="45.641595" lon="9.8232767"><ele>203.0</ele><time>2026-04-25T13:08:26.227Z</time></trkpt><trkpt lat="45.641745" lon="9.8231167"><ele>203.0</ele><time>2026-04-25T13:08:27.228Z</time></trkpt><trkpt lat="45.6419" lon="9.8229633"><ele>203.33333333333334</ele><time>2026-04-25T13:08:28.228Z</time></trkpt><trkpt lat="45.6420533" lon="9.8228183"><ele>203.66666666666669</ele><time>2026-04-25T13:08:29.227Z</time></trkpt><trkpt lat="45.64221" lon="9.8226783"><ele>204.0</ele><time>2026-04-25T13:08:30.227Z</time></trkpt><trkpt lat="45.64237" lon="9.822545"><ele>204.33333333333331</ele><time>2026-04-25T13:08:31.228Z</time></trkpt><trkpt lat="45.6425333" lon="9.822415"><ele>204.66666666666666</ele><time>2026-04-25T13:08:32.228Z</time></trkpt><trkpt lat="45.6427033" lon="9.8222967"><ele>205.0</ele><time>2026-04-25T13:08:33.228Z</time></trkpt><trkpt lat="45.64288" lon="9.822185"><ele>205.0</ele><time>2026-04-25T13:08:34.228Z</time></trkpt><trkpt lat="45.6430667" lon="9.8220817"><ele>205.0</ele><time>2026-04-25T13:08:35.228Z</time></trkpt><trkpt lat="45.643255" lon="9.8219867"><ele>205.0</ele><time>2026-04-25T13:08:36.228Z</time></trkpt><trkpt lat="45.6434467" lon="9.8218967"><ele>205.66666666666666</ele><time>2026-04-25T13:08:37.228Z</time></trkpt><trkpt lat="45.64364" lon="9.8218133"><ele>206.33333333333331</ele><time>2026-04-25T13:08:38.228Z</time></trkpt><trkpt lat="45.643835" lon="9.8217383"><ele>207.0</ele><time>2026-04-25T13:08:39.229Z</time></trkpt><trkpt lat="45.6440317" lon="9.8216733"><ele>207.0</ele><time>2026-04-25T13:08:40.228Z</time></trkpt><trkpt lat="45.6442283" lon="9.8216167"><ele>207.0</ele><time>2026-04-25T13:08:41.231Z</time></trkpt><trkpt lat="45.644425" lon="9.8215667"><ele>207.0</ele><time>2026-04-25T13:08:42.229Z</time></trkpt><trkpt lat="45.6446217" lon="9.82152"><ele>208.0</ele><time>2026-04-25T13:08:43.228Z</time></trkpt><trkpt lat="45.64482" lon="9.8214767"><ele>209.0</ele><time>2026-04-25T13:08:44.228Z</time></trkpt><trkpt lat="45.6450133" lon="9.8214367"><ele>210.0</ele><time>2026-04-25T13:08:45.229Z</time></trkpt><trkpt lat="45.6451933" lon="9.8213967"><ele>209.66666666666669</ele><time>2026-04-25T13:08:46.228Z</time></trkpt><trkpt lat="45.6453617" lon="9.8213533"><ele>209.33333333333334</ele><time>2026-04-25T13:08:47.228Z</time></trkpt><trkpt lat="45.6455233" lon="9.8213067"><ele>209.0</ele><time>2026-04-25T13:08:48.228Z</time></trkpt><trkpt lat="45.6456833" lon="9.8212533"><ele>209.0</ele><time>2026-04-25T13:08:49.228Z</time></trkpt><trkpt lat="45.645845" lon="9.8211933"><ele>209.0</ele><time>2026-04-25T13:08:50.228Z</time></trkpt><trkpt lat="45.646005" lon="9.8211267"><ele>209.0</ele><time>2026-04-25T13:08:51.228Z</time></trkpt><trkpt lat="45.6461633" lon="9.821055"><ele>209.33333333333334</ele><time>2026-04-25T13:08:52.229Z</time></trkpt><trkpt lat="45.64632" lon="9.820975"><ele>209.66666666666669</ele><time>2026-04-25T13:08:53.229Z</time></trkpt><trkpt lat="45.6464733" lon="9.8208883"><ele>210.0</ele><time>2026-04-25T13:08:54.229Z</time></trkpt><trkpt lat="45.6466183" lon="9.8208017"><ele>210.0</ele><time>2026-04-25T13:08:55.228Z</time></trkpt><trkpt lat="45.6467533" lon="9.8207167"><ele>210.0</ele><time>2026-04-25T13:08:56.227Z</time></trkpt><trkpt lat="45.6468783" lon="9.8206333"><ele>210.0</ele><time>2026-04-25T13:08:57.233Z</time></trkpt><trkpt lat="45.6469917" lon="9.8205567"><ele>210.0</ele><time>2026-04-25T13:08:58.228Z</time></trkpt><trkpt lat="45.6470917" lon="9.8204917"><ele>210.33333333333334</ele><time>2026-04-25T13:08:59.227Z</time></trkpt><trkpt lat="45.6471867" lon="9.8204383"><ele>210.66666666666669</ele><time>2026-04-25T13:09:00.228Z</time></trkpt><trkpt lat="45.6472733" lon="9.8203933"><ele>211.0</ele><time>2026-04-25T13:09:01.228Z</time></trkpt><trkpt lat="45.6473567" lon="9.8203567"><ele>211.33333333333334</ele><time>2026-04-25T13:09:02.229Z</time></trkpt><trkpt lat="45.647435" lon="9.8203283"><ele>211.66666666666669</ele><time>2026-04-25T13:09:03.229Z</time></trkpt><trkpt lat="45.64751" lon="9.8203117"><ele>212.0</ele><time>2026-04-25T13:09:04.228Z</time></trkpt><trkpt lat="45.6475917" lon="9.82031"><ele>212.0</ele><time>2026-04-25T13:09:05.228Z</time></trkpt><trkpt lat="45.64768" lon="9.82031"><ele>212.0</ele><time>2026-04-25T13:09:06.23Z</time></trkpt><trkpt lat="45.6477683" lon="9.8202833"><ele>212.0</ele><time>2026-04-25T13:09:07.228Z</time></trkpt><trkpt lat="45.6478467" lon="9.820225"><ele>212.0</ele><time>2026-04-25T13:09:08.229Z</time></trkpt><trkpt lat="45.647915" lon="9.8201367"><ele>212.0</ele><time>2026-04-25T13:09:09.228Z</time></trkpt><trkpt lat="45.647965" lon="9.8200183"><ele>211.39999999999998</ele><time>2026-04-25T13:09:10.228Z</time></trkpt><trkpt lat="45.6479983" lon="9.819885"><ele>210.79999999999998</ele><time>2026-04-25T13:09:11.228Z</time></trkpt><trkpt lat="45.6480283" lon="9.8197433"><ele>210.2</ele><time>2026-04-25T13:09:12.228Z</time></trkpt><trkpt lat="45.6480667" lon="9.8196117"><ele>209.6</ele><time>2026-04-25T13:09:13.229Z</time></trkpt><trkpt lat="45.648125" lon="9.8194983"><ele>209.0</ele><time>2026-04-25T13:09:14.229Z</time></trkpt><trkpt lat="45.648205" lon="9.8193983"><ele>209.5</ele><time>2026-04-25T13:09:15.23Z</time></trkpt><trkpt lat="45.64829" lon="9.8192967"><ele>210.0</ele><time>2026-04-25T13:09:16.23Z</time></trkpt><trkpt lat="45.6483833" lon="9.8191967"><ele>210.5</ele><time>2026-04-25T13:09:17.229Z</time></trkpt><trkpt lat="45.6484833" lon="9.8190883"><ele>211.0</ele><time>2026-04-25T13:09:18.228Z</time></trkpt><trkpt lat="45.6485917" lon="9.8189733"><ele>211.66666666666666</ele><time>2026-04-25T13:09:19.228Z</time></trkpt><trkpt lat="45.6487067" lon="9.8188517"><ele>212.33333333333331</ele><time>2026-04-25T13:09:20.229Z</time></trkpt><trkpt lat="45.6488317" lon="9.8187217"><ele>213.0</ele><time>2026-04-25T13:09:21.228Z</time></trkpt><trkpt lat="45.648955" lon="9.8185917"><ele>212.66666666666669</ele><time>2026-04-25T13:09:22.229Z</time></trkpt><trkpt lat="45.6490783" lon="9.818465"><ele>212.33333333333334</ele><time>2026-04-25T13:09:23.228Z</time></trkpt><trkpt lat="45.6492033" lon="9.8183333"><ele>212.0</ele><time>2026-04-25T13:09:24.229Z</time></trkpt><trkpt lat="45.6493317" lon="9.8181983"><ele>210.66666666666669</ele><time>2026-04-25T13:09:25.23Z</time></trkpt><trkpt lat="45.6494667" lon="9.81806"><ele>209.33333333333331</ele><time>2026-04-25T13:09:26.23Z</time></trkpt><trkpt lat="45.6496017" lon="9.817915"><ele>208.0</ele><time>2026-04-25T13:09:27.228Z</time></trkpt><trkpt lat="45.6497433" lon="9.817765"><ele>208.33333333333331</ele><time>2026-04-25T13:09:28.228Z</time></trkpt><trkpt lat="45.6498883" lon="9.8176133"><ele>208.66666666666669</ele><time>2026-04-25T13:09:29.228Z</time></trkpt><trkpt lat="45.65003" lon="9.817465"><ele>209.0</ele><time>2026-04-25T13:09:30.228Z</time></trkpt><trkpt lat="45.6501717" lon="9.817315"><ele>209.33333333333334</ele><time>2026-04-25T13:09:31.228Z</time></trkpt><trkpt lat="45.650315" lon="9.81716"><ele>209.66666666666669</ele><time>2026-04-25T13:09:32.229Z</time></trkpt><trkpt lat="45.6504633" lon="9.8170017"><ele>210.0</ele><time>2026-04-25T13:09:33.23Z</time></trkpt><trkpt lat="45.6506167" lon="9.81684"><ele>209.66666666666669</ele><time>2026-04-25T13:09:34.229Z</time></trkpt><trkpt lat="45.650775" lon="9.816675"><ele>209.33333333333334</ele><time>2026-04-25T13:09:35.23Z</time></trkpt><trkpt lat="45.6509333" lon="9.81651"><ele>209.0</ele><time>2026-04-25T13:09:36.227Z</time></trkpt><trkpt lat="45.6510883" lon="9.8163433"><ele>209.66666666666669</ele><time>2026-04-25T13:09:37.229Z</time></trkpt><trkpt lat="45.6512333" lon="9.816175"><ele>210.33333333333331</ele><time>2026-04-25T13:09:38.229Z</time></trkpt><trkpt lat="45.6513767" lon="9.816005"><ele>211.0</ele><time>2026-04-25T13:09:39.23Z</time></trkpt><trkpt lat="45.6515183" lon="9.8158317"><ele>211.0</ele><time>2026-04-25T13:09:40.231Z</time></trkpt><trkpt lat="45.6516583" lon="9.8156567"><ele>211.0</ele><time>2026-04-25T13:09:41.228Z</time></trkpt><trkpt lat="45.6517933" lon="9.8154783"><ele>211.0</ele><time>2026-04-25T13:09:42.229Z</time></trkpt><trkpt lat="45.65193" lon="9.8152967"><ele>210.66666666666666</ele><time>2026-04-25T13:09:43.229Z</time></trkpt><trkpt lat="45.6520617" lon="9.8151083"><ele>210.33333333333331</ele><time>2026-04-25T13:09:44.228Z</time></trkpt><trkpt lat="45.652195" lon="9.8149117"><ele>210.0</ele><time>2026-04-25T13:09:45.229Z</time></trkpt><trkpt lat="45.65233" lon="9.8147067"><ele>210.0</ele><time>2026-04-25T13:09:46.228Z</time></trkpt><trkpt lat="45.652465" lon="9.8144983"><ele>210.0</ele><time>2026-04-25T13:09:47.229Z</time></trkpt><trkpt lat="45.6526" lon="9.814285"><ele>210.0</ele><time>2026-04-25T13:09:48.229Z</time></trkpt><trkpt lat="45.6527317" lon="9.8140717"><ele>210.33333333333331</ele><time>2026-04-25T13:09:49.228Z</time></trkpt><trkpt lat="45.652855" lon="9.8138633"><ele>210.66666666666666</ele><time>2026-04-25T13:09:50.228Z</time></trkpt><trkpt lat="45.6529717" lon="9.8136667"><ele>211.0</ele><time>2026-04-25T13:09:51.229Z</time></trkpt><trkpt lat="45.6530817" lon="9.8134783"><ele>212.0</ele><time>2026-04-25T13:09:52.228Z</time></trkpt><trkpt lat="45.6531917" lon="9.8132967"><ele>213.0</ele><time>2026-04-25T13:09:53.228Z</time></trkpt><trkpt lat="45.6533" lon="9.813115"><ele>214.0</ele><time>2026-04-25T13:09:54.228Z</time></trkpt><trkpt lat="45.6534067" lon="9.8129333"><ele>214.0</ele><time>2026-04-25T13:09:55.229Z</time></trkpt><trkpt lat="45.653515" lon="9.8127517"><ele>214.0</ele><time>2026-04-25T13:09:56.229Z</time></trkpt><trkpt lat="45.6536217" lon="9.81257"><ele>214.0</ele><time>2026-04-25T13:09:57.228Z</time></trkpt><trkpt lat="45.65373" lon="9.8123883"><ele>214.0</ele><time>2026-04-25T13:09:58.229Z</time></trkpt><trkpt lat="45.6538367" lon="9.8122067"><ele>214.0</ele><time>2026-04-25T13:09:59.228Z</time></trkpt><trkpt lat="45.653945" lon="9.8120233"><ele>214.0</ele><time>2026-04-25T13:10:00.23Z</time></trkpt><trkpt lat="45.6540533" lon="9.81184"><ele>213.66666666666666</ele><time>2026-04-25T13:10:01.23Z</time></trkpt><trkpt lat="45.65416" lon="9.8116583"><ele>213.33333333333331</ele><time>2026-04-25T13:10:02.228Z</time></trkpt><trkpt lat="45.65427" lon="9.811475"><ele>213.0</ele><time>2026-04-25T13:10:03.229Z</time></trkpt><trkpt lat="45.6543767" lon="9.811295"><ele>213.33333333333331</ele><time>2026-04-25T13:10:04.228Z</time></trkpt><trkpt lat="45.6544833" lon="9.811115"><ele>213.66666666666666</ele><time>2026-04-25T13:10:05.228Z</time></trkpt><trkpt lat="45.6545883" lon="9.8109333"><ele>214.0</ele><time>2026-04-25T13:10:06.229Z</time></trkpt><trkpt lat="45.65469" lon="9.81075"><ele>214.0</ele><time>2026-04-25T13:10:07.228Z</time></trkpt><trkpt lat="45.65479" lon="9.810565"><ele>214.0</ele><time>2026-04-25T13:10:08.228Z</time></trkpt><trkpt lat="45.654885" lon="9.8103783"><ele>214.0</ele><time>2026-04-25T13:10:09.229Z</time></trkpt><trkpt lat="45.6549733" lon="9.8101917"><ele>214.25</ele><time>2026-04-25T13:10:10.227Z</time></trkpt><trkpt lat="45.655055" lon="9.8100083"><ele>214.5</ele><time>2026-04-25T13:10:11.229Z</time></trkpt><trkpt lat="45.6551283" lon="9.809835"><ele>214.75</ele><time>2026-04-25T13:10:12.228Z</time></trkpt><trkpt lat="45.6551933" lon="9.8096717"><ele>215.0</ele><time>2026-04-25T13:10:13.229Z</time></trkpt><trkpt lat="45.65525" lon="9.8095133"><ele>215.0</ele><time>2026-04-25T13:10:14.228Z</time></trkpt><trkpt lat="45.6553017" lon="9.8093633"><ele>215.0</ele><time>2026-04-25T13:10:15.229Z</time></trkpt><trkpt lat="45.65535" lon="9.8092267"><ele>215.0</ele><time>2026-04-25T13:10:16.228Z</time></trkpt><trkpt lat="45.65539" lon="9.8091117"><ele>215.0</ele><time>2026-04-25T13:10:17.228Z</time></trkpt><trkpt lat="45.65542" lon="9.80902"><ele>215.0</ele><time>2026-04-25T13:10:18.228Z</time></trkpt><trkpt lat="45.6554717" lon="9.8088917"><ele>215.00000000000003</ele><time>2026-04-25T13:10:20.229Z</time></trkpt><trkpt lat="45.6555267" lon="9.80879"><ele>215.0</ele><time>2026-04-25T13:10:22.229Z</time></trkpt><trkpt lat="45.65558" lon="9.8087083"><ele>215.0</ele><time>2026-04-25T13:10:25.23Z</time></trkpt><trkpt lat="45.6556317" lon="9.80865"><ele>215.0</ele><time>2026-04-25T13:10:28.228Z</time></trkpt><trkpt lat="45.6557383" lon="9.8085667"><ele>215.00000000000003</ele><time>2026-04-25T13:10:30.23Z</time></trkpt><trkpt lat="45.6558017" lon="9.8085033"><ele>215.0</ele><time>2026-04-25T13:10:31.229Z</time></trkpt><trkpt lat="45.655855" lon="9.808425"><ele>215.00000000000003</ele><time>2026-04-25T13:10:32.229Z</time></trkpt><trkpt lat="45.655895" lon="9.8083317"><ele>215.0</ele><time>2026-04-25T13:10:33.228Z</time></trkpt><trkpt lat="45.65592" lon="9.8082283"><ele>215.0</ele><time>2026-04-25T13:10:34.228Z</time></trkpt><trkpt lat="45.65593" lon="9.808115"><ele>215.0</ele><time>2026-04-25T13:10:35.229Z</time></trkpt><trkpt lat="45.6559167" lon="9.8080067"><ele>215.00000000000003</ele><time>2026-04-25T13:10:36.23Z</time></trkpt><trkpt lat="45.655885" lon="9.8078917"><ele>215.0</ele><time>2026-04-25T13:10:37.228Z</time></trkpt><trkpt lat="45.6558433" lon="9.807775"><ele>215.4</ele><time>2026-04-25T13:10:38.229Z</time></trkpt><trkpt lat="45.6558033" lon="9.80765"><ele>215.8</ele><time>2026-04-25T13:10:39.23Z</time></trkpt><trkpt lat="45.655785" lon="9.8075083"><ele>216.2</ele><time>2026-04-25T13:10:40.228Z</time></trkpt><trkpt lat="45.6557817" lon="9.8073567"><ele>216.6</ele><time>2026-04-25T13:10:41.228Z</time></trkpt><trkpt lat="45.6557783" lon="9.80717"><ele>217.0</ele><time>2026-04-25T13:10:42.228Z</time></trkpt><trkpt lat="45.6557817" lon="9.806945"><ele>217.0</ele><time>2026-04-25T13:10:43.229Z</time></trkpt><trkpt lat="45.6557883" lon="9.8066967"><ele>217.0</ele><time>2026-04-25T13:10:44.229Z</time></trkpt><trkpt lat="45.6558" lon="9.8064333"><ele>217.0</ele><time>2026-04-25T13:10:45.229Z</time></trkpt><trkpt lat="45.6558167" lon="9.8061533"><ele>217.33333333333331</ele><time>2026-04-25T13:10:46.228Z</time></trkpt><trkpt lat="45.6558333" lon="9.805865"><ele>217.66666666666669</ele><time>2026-04-25T13:10:47.228Z</time></trkpt><trkpt lat="45.6558467" lon="9.805575"><ele>218.0</ele><time>2026-04-25T13:10:48.229Z</time></trkpt><trkpt lat="45.6558583" lon="9.8052817"><ele>217.66666666666669</ele><time>2026-04-25T13:10:49.228Z</time></trkpt><trkpt lat="45.65587" lon="9.8049883"><ele>217.33333333333331</ele><time>2026-04-25T13:10:50.229Z</time></trkpt><trkpt lat="45.6558833" lon="9.8047"><ele>217.0</ele><time>2026-04-25T13:10:51.23Z</time></trkpt><trkpt lat="45.655895" lon="9.8044167"><ele>216.0</ele><time>2026-04-25T13:10:52.228Z</time></trkpt><trkpt lat="45.655905" lon="9.8041283"><ele>215.0</ele><time>2026-04-25T13:10:53.229Z</time></trkpt><trkpt lat="45.6559133" lon="9.8038283"><ele>214.0</ele><time>2026-04-25T13:10:54.229Z</time></trkpt><trkpt lat="45.6559233" lon="9.80351"><ele>214.0</ele><time>2026-04-25T13:10:55.229Z</time></trkpt><trkpt lat="45.6559367" lon="9.80318"><ele>214.0</ele><time>2026-04-25T13:10:56.229Z</time></trkpt><trkpt lat="45.655955" lon="9.8028483"><ele>215.0</ele><time>2026-04-25T13:10:57.231Z</time></trkpt><trkpt lat="45.655975" lon="9.8025283"><ele>216.0</ele><time>2026-04-25T13:10:58.229Z</time></trkpt><trkpt lat="45.655995" lon="9.8022333"><ele>217.0</ele><time>2026-04-25T13:10:59.23Z</time></trkpt><trkpt lat="45.6560117" lon="9.801955"><ele>217.0</ele><time>2026-04-25T13:11:00.229Z</time></trkpt><trkpt lat="45.6560267" lon="9.8016933"><ele>217.0</ele><time>2026-04-25T13:11:01.229Z</time></trkpt><trkpt lat="45.6560417" lon="9.8014433"><ele>217.0</ele><time>2026-04-25T13:11:02.228Z</time></trkpt><trkpt lat="45.656055" lon="9.8011917"><ele>216.33333333333331</ele><time>2026-04-25T13:11:03.23Z</time></trkpt><trkpt lat="45.6560683" lon="9.8009417"><ele>215.66666666666669</ele><time>2026-04-25T13:11:04.229Z</time></trkpt><trkpt lat="45.65608" lon="9.8006917"><ele>215.0</ele><time>2026-04-25T13:11:05.228Z</time></trkpt><trkpt lat="45.6560917" lon="9.8004433"><ele>215.5</ele><time>2026-04-25T13:11:06.23Z</time></trkpt><trkpt lat="45.6561133" lon="9.7999933"><ele>216.0</ele><time>2026-04-25T13:11:08.228Z</time></trkpt><trkpt lat="45.65612" lon="9.79979"><ele>216.0</ele><time>2026-04-25T13:11:09.228Z</time></trkpt><trkpt lat="45.65613" lon="9.799595"><ele>216.0</ele><time>2026-04-25T13:11:10.229Z</time></trkpt><trkpt lat="45.6561367" lon="9.79942"><ele>216.0</ele><time>2026-04-25T13:11:11.23Z</time></trkpt><trkpt lat="45.65614" lon="9.7992617"><ele>216.0</ele><time>2026-04-25T13:11:12.228Z</time></trkpt><trkpt lat="45.6561417" lon="9.799115"><ele>216.0</ele><time>2026-04-25T13:11:13.229Z</time></trkpt><trkpt lat="45.656145" lon="9.79899"><ele>216.00000000000003</ele><time>2026-04-25T13:11:14.228Z</time></trkpt><trkpt lat="45.6561483" lon="9.7988883"><ele>216.00000000000003</ele><time>2026-04-25T13:11:15.231Z</time></trkpt><trkpt lat="45.65616" lon="9.7987417"><ele>216.0</ele><time>2026-04-25T13:11:17.228Z</time></trkpt><trkpt lat="45.656185" lon="9.7985883"><ele>216.0</ele><time>2026-04-25T13:11:23.23Z</time></trkpt><trkpt lat="45.6562317" lon="9.79847"><ele>215.85714285714286</ele><time>2026-04-25T13:11:25.23Z</time></trkpt><trkpt lat="45.656275" lon="9.7983917"><ele>215.71428571428572</ele><time>2026-04-25T13:11:26.228Z</time></trkpt><trkpt lat="45.6563183" lon="9.7982983"><ele>215.57142857142856</ele><time>2026-04-25T13:11:27.228Z</time></trkpt><trkpt lat="45.65635" lon="9.7982017"><ele>215.42857142857144</ele><time>2026-04-25T13:11:28.229Z</time></trkpt><trkpt lat="45.6563667" lon="9.798105"><ele>215.2857142857143</ele><time>2026-04-25T13:11:29.228Z</time></trkpt><trkpt lat="45.6563667" lon="9.798"><ele>215.14285714285714</ele><time>2026-04-25T13:11:30.229Z</time></trkpt><trkpt lat="45.656345" lon="9.7978867"><ele>215.0</ele><time>2026-04-25T13:11:31.229Z</time></trkpt><trkpt lat="45.6563017" lon="9.7977833"><ele>215.0</ele><time>2026-04-25T13:11:32.229Z</time></trkpt><trkpt lat="45.656235" lon="9.7976883"><ele>215.0</ele><time>2026-04-25T13:11:33.229Z</time></trkpt><trkpt lat="45.6561667" lon="9.797595"><ele>215.0</ele><time>2026-04-25T13:11:34.228Z</time></trkpt><trkpt lat="45.656105" lon="9.7974883"><ele>215.0</ele><time>2026-04-25T13:11:35.229Z</time></trkpt><trkpt lat="45.6560533" lon="9.79736"><ele>215.0</ele><time>2026-04-25T13:11:36.23Z</time></trkpt><trkpt lat="45.6560117" lon="9.7972083"><ele>214.5</ele><time>2026-04-25T13:11:37.228Z</time></trkpt><trkpt lat="45.6559733" lon="9.7970383"><ele>214.0</ele><time>2026-04-25T13:11:38.229Z</time></trkpt><trkpt lat="45.655935" lon="9.796865"><ele>213.5</ele><time>2026-04-25T13:11:39.23Z</time></trkpt><trkpt lat="45.6559" lon="9.7966967"><ele>213.0</ele><time>2026-04-25T13:11:40.228Z</time></trkpt><trkpt lat="45.6558617" lon="9.7965317"><ele>213.0</ele><time>2026-04-25T13:11:41.228Z</time></trkpt><trkpt lat="45.655825" lon="9.7963617"><ele>213.0</ele><time>2026-04-25T13:11:42.229Z</time></trkpt><trkpt lat="45.655785" lon="9.7961767"><ele>213.0</ele><time>2026-04-25T13:11:43.229Z</time></trkpt><trkpt lat="45.65574" lon="9.7959817"><ele>213.0</ele><time>2026-04-25T13:11:44.23Z</time></trkpt><trkpt lat="45.655695" lon="9.7957733"><ele>213.0</ele><time>2026-04-25T13:11:45.231Z</time></trkpt><trkpt lat="45.6556483" lon="9.7955567"><ele>213.0</ele><time>2026-04-25T13:11:46.229Z</time></trkpt><trkpt lat="45.655605" lon="9.7953467"><ele>213.0</ele><time>2026-04-25T13:11:47.23Z</time></trkpt><trkpt lat="45.65556" lon="9.7951433"><ele>212.75</ele><time>2026-04-25T13:11:48.229Z</time></trkpt><trkpt lat="45.6555183" lon="9.79495"><ele>212.5</ele><time>2026-04-25T13:11:49.228Z</time></trkpt><trkpt lat="45.6554767" lon="9.794755"><ele>212.25</ele><time>2026-04-25T13:11:50.228Z</time></trkpt><trkpt lat="45.655435" lon="9.7945617"><ele>212.0</ele><time>2026-04-25T13:11:51.23Z</time></trkpt><trkpt lat="45.655395" lon="9.79437"><ele>211.75</ele><time>2026-04-25T13:11:52.229Z</time></trkpt><trkpt lat="45.6553567" lon="9.7941817"><ele>211.5</ele><time>2026-04-25T13:11:53.23Z</time></trkpt><trkpt lat="45.65532" lon="9.7939967"><ele>211.25</ele><time>2026-04-25T13:11:54.23Z</time></trkpt><trkpt lat="45.6552867" lon="9.7938117"><ele>211.0</ele><time>2026-04-25T13:11:55.229Z</time></trkpt><trkpt lat="45.6552533" lon="9.7936283"><ele>210.75</ele><time>2026-04-25T13:11:56.229Z</time></trkpt><trkpt lat="45.65522" lon="9.7934433"><ele>210.5</ele><time>2026-04-25T13:11:57.229Z</time></trkpt><trkpt lat="45.6551867" lon="9.793255"><ele>210.25</ele><time>2026-04-25T13:11:58.228Z</time></trkpt><trkpt lat="45.6551533" lon="9.7930567"><ele>210.0</ele><time>2026-04-25T13:11:59.23Z</time></trkpt><trkpt lat="45.6551217" lon="9.7928417"><ele>210.33333333333331</ele><time>2026-04-25T13:12:00.23Z</time></trkpt><trkpt lat="45.6550933" lon="9.79261"><ele>210.66666666666666</ele><time>2026-04-25T13:12:01.229Z</time></trkpt><trkpt lat="45.6550683" lon="9.792365"><ele>211.0</ele><time>2026-04-25T13:12:02.231Z</time></trkpt><trkpt lat="45.6550533" lon="9.7921033"><ele>211.33333333333331</ele><time>2026-04-25T13:12:03.23Z</time></trkpt><trkpt lat="45.655045" lon="9.7918267"><ele>211.66666666666669</ele><time>2026-04-25T13:12:04.228Z</time></trkpt><trkpt lat="45.6550417" lon="9.7915383"><ele>212.0</ele><time>2026-04-25T13:12:05.23Z</time></trkpt><trkpt lat="45.65504" lon="9.79125"><ele>212.33333333333334</ele><time>2026-04-25T13:12:06.229Z</time></trkpt><trkpt lat="45.6550417" lon="9.7909617"><ele>212.66666666666669</ele><time>2026-04-25T13:12:07.23Z</time></trkpt><trkpt lat="45.6550517" lon="9.790665"><ele>213.0</ele><time>2026-04-25T13:12:08.228Z</time></trkpt><trkpt lat="45.6550667" lon="9.790365"><ele>212.33333333333331</ele><time>2026-04-25T13:12:09.231Z</time></trkpt><trkpt lat="45.65508" lon="9.7900617"><ele>211.66666666666666</ele><time>2026-04-25T13:12:10.231Z</time></trkpt><trkpt lat="45.65509" lon="9.78975"><ele>211.0</ele><time>2026-04-25T13:12:11.23Z</time></trkpt><trkpt lat="45.6550967" lon="9.78944"><ele>211.0</ele><time>2026-04-25T13:12:12.229Z</time></trkpt><trkpt lat="45.6551" lon="9.7891333"><ele>211.0</ele><time>2026-04-25T13:12:13.229Z</time></trkpt><trkpt lat="45.655105" lon="9.788825"><ele>211.0</ele><time>2026-04-25T13:12:14.228Z</time></trkpt><trkpt lat="45.6551117" lon="9.7885117"><ele>211.0</ele><time>2026-04-25T13:12:15.229Z</time></trkpt><trkpt lat="45.6551217" lon="9.788195"><ele>211.0</ele><time>2026-04-25T13:12:16.229Z</time></trkpt><trkpt lat="45.6551333" lon="9.7878783"><ele>211.0</ele><time>2026-04-25T13:12:17.229Z</time></trkpt><trkpt lat="45.655145" lon="9.787555"><ele>211.0</ele><time>2026-04-25T13:12:18.228Z</time></trkpt><trkpt lat="45.6551617" lon="9.7872283"><ele>211.0</ele><time>2026-04-25T13:12:19.229Z</time></trkpt><trkpt lat="45.65518" lon="9.7868967"><ele>211.0</ele><time>2026-04-25T13:12:20.229Z</time></trkpt><trkpt lat="45.6552033" lon="9.78656"><ele>211.0</ele><time>2026-04-25T13:12:21.228Z</time></trkpt><trkpt lat="45.655225" lon="9.7862217"><ele>211.5</ele><time>2026-04-25T13:12:22.228Z</time></trkpt><trkpt lat="45.655245" lon="9.7858817"><ele>212.0</ele><time>2026-04-25T13:12:23.228Z</time></trkpt><trkpt lat="45.6552667" lon="9.7855383"><ele>213.0</ele><time>2026-04-25T13:12:24.229Z</time></trkpt><trkpt lat="45.6552917" lon="9.78519"><ele>214.0</ele><time>2026-04-25T13:12:25.23Z</time></trkpt><trkpt lat="45.65532" lon="9.7848417"><ele>214.0</ele><time>2026-04-25T13:12:26.228Z</time></trkpt><trkpt lat="45.6553467" lon="9.7844917"><ele>214.0</ele><time>2026-04-25T13:12:27.228Z</time></trkpt><trkpt lat="45.6553683" lon="9.7841433"><ele>214.0</ele><time>2026-04-25T13:12:28.227Z</time></trkpt><trkpt lat="45.65539" lon="9.7837933"><ele>214.0</ele><time>2026-04-25T13:12:29.23Z</time></trkpt><trkpt lat="45.65541" lon="9.7834433"><ele>213.5</ele><time>2026-04-25T13:12:30.228Z</time></trkpt><trkpt lat="45.6554333" lon="9.7830933"><ele>213.0</ele><time>2026-04-25T13:12:31.23Z</time></trkpt><trkpt lat="45.6554567" lon="9.782745"><ele>213.5</ele><time>2026-04-25T13:12:32.229Z</time></trkpt><trkpt lat="45.65548" lon="9.7823933"><ele>214.0</ele><time>2026-04-25T13:12:33.23Z</time></trkpt><trkpt lat="45.6555033" lon="9.7820433"><ele>214.5</ele><time>2026-04-25T13:12:34.229Z</time></trkpt><trkpt lat="45.6555267" lon="9.78169"><ele>215.0</ele><time>2026-04-25T13:12:35.228Z</time></trkpt><trkpt lat="45.6555483" lon="9.7813367"><ele>214.5</ele><time>2026-04-25T13:12:36.228Z</time></trkpt><trkpt lat="45.6555717" lon="9.7809817"><ele>214.0</ele><time>2026-04-25T13:12:37.229Z</time></trkpt><trkpt lat="45.6555933" lon="9.7806267"><ele>214.0</ele><time>2026-04-25T13:12:38.229Z</time></trkpt><trkpt lat="45.6556167" lon="9.7802733"><ele>214.0</ele><time>2026-04-25T13:12:39.229Z</time></trkpt><trkpt lat="45.6556383" lon="9.7799183"><ele>214.0</ele><time>2026-04-25T13:12:40.23Z</time></trkpt><trkpt lat="45.6556617" lon="9.779565"><ele>214.0</ele><time>2026-04-25T13:12:41.229Z</time></trkpt><trkpt lat="45.65569" lon="9.7792267"><ele>213.66666666666666</ele><time>2026-04-25T13:12:42.228Z</time></trkpt><trkpt lat="45.6557167" lon="9.7789117"><ele>213.33333333333331</ele><time>2026-04-25T13:12:43.229Z</time></trkpt><trkpt lat="45.6557467" lon="9.7786183"><ele>213.0</ele><time>2026-04-25T13:12:44.229Z</time></trkpt><trkpt lat="45.6557783" lon="9.7783483"><ele>213.66666666666669</ele><time>2026-04-25T13:12:45.229Z</time></trkpt><trkpt lat="45.65581" lon="9.7781083"><ele>214.33333333333334</ele><time>2026-04-25T13:12:46.229Z</time></trkpt><trkpt lat="45.6558417" lon="9.777895"><ele>215.0</ele><time>2026-04-25T13:12:47.228Z</time></trkpt><trkpt lat="45.655875" lon="9.7776967"><ele>215.0</ele><time>2026-04-25T13:12:48.228Z</time></trkpt><trkpt lat="45.65591" lon="9.7775083"><ele>215.0</ele><time>2026-04-25T13:12:49.229Z</time></trkpt><trkpt lat="45.6559483" lon="9.7773383"><ele>215.0</ele><time>2026-04-25T13:12:50.23Z</time></trkpt><trkpt lat="45.655995" lon="9.777185"><ele>215.0</ele><time>2026-04-25T13:12:51.23Z</time></trkpt><trkpt lat="45.6560517" lon="9.777055"><ele>215.0</ele><time>2026-04-25T13:12:52.228Z</time></trkpt><trkpt lat="45.6561183" lon="9.7769467"><ele>215.0</ele><time>2026-04-25T13:12:53.228Z</time></trkpt><trkpt lat="45.656205" lon="9.7768567"><ele>215.0</ele><time>2026-04-25T13:12:54.229Z</time></trkpt><trkpt lat="45.6562917" lon="9.7767733"><ele>215.0</ele><time>2026-04-25T13:12:55.23Z</time></trkpt><trkpt lat="45.6563667" lon="9.7766733"><ele>215.0</ele><time>2026-04-25T13:12:56.229Z</time></trkpt><trkpt lat="45.6564133" lon="9.776555"><ele>215.0</ele><time>2026-04-25T13:12:57.23Z</time></trkpt><trkpt lat="45.6564317" lon="9.7764333"><ele>215.0</ele><time>2026-04-25T13:12:58.23Z</time></trkpt><trkpt lat="45.65643" lon="9.7763"><ele>215.0</ele><time>2026-04-25T13:12:59.229Z</time></trkpt><trkpt lat="45.656415" lon="9.77615"><ele>215.0</ele><time>2026-04-25T13:13:00.23Z</time></trkpt><trkpt lat="45.6564033" lon="9.77599"><ele>215.0</ele><time>2026-04-25T13:13:01.229Z</time></trkpt><trkpt lat="45.6564133" lon="9.77582"><ele>215.0</ele><time>2026-04-25T13:13:02.229Z</time></trkpt><trkpt lat="45.6564533" lon="9.7756467"><ele>215.0</ele><time>2026-04-25T13:13:03.229Z</time></trkpt><trkpt lat="45.65651" lon="9.7754683"><ele>215.0</ele><time>2026-04-25T13:13:04.228Z</time></trkpt><trkpt lat="45.65658" lon="9.7752867"><ele>215.0</ele><time>2026-04-25T13:13:05.23Z</time></trkpt><trkpt lat="45.6566617" lon="9.7750967"><ele>215.33333333333334</ele><time>2026-04-25T13:13:06.229Z</time></trkpt><trkpt lat="45.6567533" lon="9.7748967"><ele>215.66666666666669</ele><time>2026-04-25T13:13:07.229Z</time></trkpt><trkpt lat="45.6568583" lon="9.7746867"><ele>216.0</ele><time>2026-04-25T13:13:08.228Z</time></trkpt><trkpt lat="45.6569733" lon="9.774465"><ele>216.66666666666669</ele><time>2026-04-25T13:13:09.229Z</time></trkpt><trkpt lat="45.6570983" lon="9.7742367"><ele>217.33333333333334</ele><time>2026-04-25T13:13:10.229Z</time></trkpt><trkpt lat="45.6572283" lon="9.7740067"><ele>218.0</ele><time>2026-04-25T13:13:11.229Z</time></trkpt><trkpt lat="45.6573617" lon="9.7737717"><ele>218.0</ele><time>2026-04-25T13:13:12.228Z</time></trkpt><trkpt lat="45.6574983" lon="9.77353"><ele>218.0</ele><time>2026-04-25T13:13:13.229Z</time></trkpt><trkpt lat="45.6576383" lon="9.77328"><ele>218.0</ele><time>2026-04-25T13:13:14.229Z</time></trkpt><trkpt lat="45.6577783" lon="9.7730267"><ele>219.0</ele><time>2026-04-25T13:13:15.228Z</time></trkpt><trkpt lat="45.657915" lon="9.7727733"><ele>220.0</ele><time>2026-04-25T13:13:16.229Z</time></trkpt><trkpt lat="45.658055" lon="9.7725183"><ele>220.0</ele><time>2026-04-25T13:13:17.229Z</time></trkpt><trkpt lat="45.6582017" lon="9.7722583"><ele>220.0</ele><time>2026-04-25T13:13:18.23Z</time></trkpt><trkpt lat="45.65835" lon="9.771995"><ele>220.0</ele><time>2026-04-25T13:13:19.228Z</time></trkpt><trkpt lat="45.6584967" lon="9.77173"><ele>220.0</ele><time>2026-04-25T13:13:20.23Z</time></trkpt><trkpt lat="45.6586467" lon="9.77146"><ele>220.0</ele><time>2026-04-25T13:13:21.229Z</time></trkpt><trkpt lat="45.6588017" lon="9.771185"><ele>220.0</ele><time>2026-04-25T13:13:22.229Z</time></trkpt><trkpt lat="45.6589567" lon="9.7709083"><ele>219.5</ele><time>2026-04-25T13:13:23.229Z</time></trkpt><trkpt lat="45.6591133" lon="9.7706283"><ele>219.0</ele><time>2026-04-25T13:13:24.23Z</time></trkpt><trkpt lat="45.65927" lon="9.77035"><ele>220.0</ele><time>2026-04-25T13:13:25.23Z</time></trkpt><trkpt lat="45.6594267" lon="9.7700683"><ele>221.0</ele><time>2026-04-25T13:13:26.228Z</time></trkpt><trkpt lat="45.659585" lon="9.769785"><ele>221.5</ele><time>2026-04-25T13:13:27.23Z</time></trkpt><trkpt lat="45.6597383" lon="9.769505"><ele>222.0</ele><time>2026-04-25T13:13:28.229Z</time></trkpt><trkpt lat="45.6598867" lon="9.7692333"><ele>222.0</ele><time>2026-04-25T13:13:29.229Z</time></trkpt><trkpt lat="45.6600283" lon="9.7689717"><ele>222.0</ele><time>2026-04-25T13:13:30.229Z</time></trkpt><trkpt lat="45.6601683" lon="9.7687167"><ele>222.5</ele><time>2026-04-25T13:13:31.23Z</time></trkpt><trkpt lat="45.66031" lon="9.768465"><ele>223.0</ele><time>2026-04-25T13:13:32.229Z</time></trkpt><trkpt lat="45.6604533" lon="9.7682133"><ele>223.0</ele><time>2026-04-25T13:13:33.23Z</time></trkpt><trkpt lat="45.660595" lon="9.767965"><ele>223.0</ele><time>2026-04-25T13:13:34.228Z</time></trkpt><trkpt lat="45.6607367" lon="9.767715"><ele>223.0</ele><time>2026-04-25T13:13:35.229Z</time></trkpt><trkpt lat="45.6608767" lon="9.7674667"><ele>223.0</ele><time>2026-04-25T13:13:36.23Z</time></trkpt><trkpt lat="45.6610133" lon="9.76722"><ele>223.0</ele><time>2026-04-25T13:13:37.228Z</time></trkpt><trkpt lat="45.6611467" lon="9.7669733"><ele>223.0</ele><time>2026-04-25T13:13:38.23Z</time></trkpt><trkpt lat="45.6612833" lon="9.7667283"><ele>223.0</ele><time>2026-04-25T13:13:39.23Z</time></trkpt><trkpt lat="45.6614217" lon="9.766485"><ele>223.0</ele><time>2026-04-25T13:13:40.228Z</time></trkpt><trkpt lat="45.6615567" lon="9.7662467"><ele>223.0</ele><time>2026-04-25T13:13:41.229Z</time></trkpt><trkpt lat="45.6616967" lon="9.76601"><ele>223.33333333333331</ele><time>2026-04-25T13:13:42.23Z</time></trkpt><trkpt lat="45.6618383" lon="9.7657733"><ele>223.66666666666669</ele><time>2026-04-25T13:13:43.228Z</time></trkpt><trkpt lat="45.6619817" lon="9.765535"><ele>224.0</ele><time>2026-04-25T13:13:44.23Z</time></trkpt><trkpt lat="45.6621267" lon="9.765295"><ele>225.0</ele><time>2026-04-25T13:13:45.229Z</time></trkpt><trkpt lat="45.662275" lon="9.7650517"><ele>226.0</ele><time>2026-04-25T13:13:46.229Z</time></trkpt><trkpt lat="45.6624233" lon="9.76481"><ele>226.0</ele><time>2026-04-25T13:13:47.228Z</time></trkpt><trkpt lat="45.6625733" lon="9.7645683"><ele>226.0</ele><time>2026-04-25T13:13:48.229Z</time></trkpt><trkpt lat="45.6627283" lon="9.7643217"><ele>225.0</ele><time>2026-04-25T13:13:49.229Z</time></trkpt><trkpt lat="45.6628833" lon="9.7640717"><ele>224.0</ele><time>2026-04-25T13:13:50.228Z</time></trkpt><trkpt lat="45.6630383" lon="9.76382"><ele>224.0</ele><time>2026-04-25T13:13:51.229Z</time></trkpt><trkpt lat="45.6631933" lon="9.7635633"><ele>224.0</ele><time>2026-04-25T13:13:52.228Z</time></trkpt><trkpt lat="45.6633517" lon="9.7633067"><ele>224.5</ele><time>2026-04-25T13:13:53.228Z</time></trkpt><trkpt lat="45.6635133" lon="9.7630467"><ele>225.0</ele><time>2026-04-25T13:13:54.229Z</time></trkpt><trkpt lat="45.6636783" lon="9.7627883"><ele>225.0</ele><time>2026-04-25T13:13:55.229Z</time></trkpt><trkpt lat="45.66384" lon="9.76253"><ele>225.0</ele><time>2026-04-25T13:13:56.229Z</time></trkpt><trkpt lat="45.664" lon="9.76227"><ele>225.0</ele><time>2026-04-25T13:13:57.229Z</time></trkpt><trkpt lat="45.66416" lon="9.7620083"><ele>225.0</ele><time>2026-04-25T13:13:58.228Z</time></trkpt><trkpt lat="45.6643233" lon="9.7617483"><ele>223.5</ele><time>2026-04-25T13:13:59.228Z</time></trkpt><trkpt lat="45.6644867" lon="9.7614883"><ele>222.0</ele><time>2026-04-25T13:14:00.228Z</time></trkpt><trkpt lat="45.6646517" lon="9.7612283"><ele>221.5</ele><time>2026-04-25T13:14:01.229Z</time></trkpt><trkpt lat="45.6648133" lon="9.76097"><ele>221.0</ele><time>2026-04-25T13:14:02.229Z</time></trkpt><trkpt lat="45.664975" lon="9.7607133"><ele>221.0</ele><time>2026-04-25T13:14:03.231Z</time></trkpt><trkpt lat="45.665135" lon="9.760455"><ele>221.0</ele><time>2026-04-25T13:14:04.23Z</time></trkpt><trkpt lat="45.6652933" lon="9.7602017"><ele>223.0</ele><time>2026-04-25T13:14:05.228Z</time></trkpt><trkpt lat="45.665445" lon="9.7599583"><ele>225.0</ele><time>2026-04-25T13:14:06.228Z</time></trkpt><trkpt lat="45.6655917" lon="9.7597317"><ele>227.0</ele><time>2026-04-25T13:14:07.228Z</time></trkpt><trkpt lat="45.6657333" lon="9.759515"><ele>227.0</ele><time>2026-04-25T13:14:08.229Z</time></trkpt><trkpt lat="45.6658717" lon="9.7593"><ele>227.0</ele><time>2026-04-25T13:14:09.231Z</time></trkpt><trkpt lat="45.6660133" lon="9.7590833"><ele>227.0</ele><time>2026-04-25T13:14:10.229Z</time></trkpt><trkpt lat="45.6661533" lon="9.758865"><ele>227.0</ele><time>2026-04-25T13:14:11.229Z</time></trkpt><trkpt lat="45.6662933" lon="9.7586433"><ele>227.0</ele><time>2026-04-25T13:14:12.228Z</time></trkpt><trkpt lat="45.6664333" lon="9.75842"><ele>227.0</ele><time>2026-04-25T13:14:13.229Z</time></trkpt><trkpt lat="45.6665767" lon="9.7581967"><ele>227.33333333333334</ele><time>2026-04-25T13:14:14.228Z</time></trkpt><trkpt lat="45.6667167" lon="9.757975"><ele>227.66666666666669</ele><time>2026-04-25T13:14:15.228Z</time></trkpt><trkpt lat="45.6668567" lon="9.7577533"><ele>228.0</ele><time>2026-04-25T13:14:16.227Z</time></trkpt><trkpt lat="45.6669917" lon="9.7575383"><ele>228.0</ele><time>2026-04-25T13:14:17.227Z</time></trkpt><trkpt lat="45.667125" lon="9.757325"><ele>228.0</ele><time>2026-04-25T13:14:18.227Z</time></trkpt><trkpt lat="45.6672533" lon="9.7571167"><ele>228.0</ele><time>2026-04-25T13:14:19.227Z</time></trkpt><trkpt lat="45.6673817" lon="9.75691"><ele>228.66666666666669</ele><time>2026-04-25T13:14:20.228Z</time></trkpt><trkpt lat="45.6675033" lon="9.75671"><ele>229.33333333333334</ele><time>2026-04-25T13:14:21.23Z</time></trkpt><trkpt lat="45.6676233" lon="9.75652"><ele>230.0</ele><time>2026-04-25T13:14:22.228Z</time></trkpt><trkpt lat="45.6677367" lon="9.7563417"><ele>230.66666666666669</ele><time>2026-04-25T13:14:23.229Z</time></trkpt><trkpt lat="45.6678417" lon="9.7561717"><ele>231.33333333333331</ele><time>2026-04-25T13:14:24.229Z</time></trkpt><trkpt lat="45.66794" lon="9.7560133"><ele>232.0</ele><time>2026-04-25T13:14:25.227Z</time></trkpt><trkpt lat="45.6680383" lon="9.7558583"><ele>232.0</ele><time>2026-04-25T13:14:26.228Z</time></trkpt><trkpt lat="45.668135" lon="9.7557083"><ele>232.0</ele><time>2026-04-25T13:14:27.228Z</time></trkpt><trkpt lat="45.6682267" lon="9.7555667"><ele>232.0</ele><time>2026-04-25T13:14:28.227Z</time></trkpt><trkpt lat="45.6683133" lon="9.7554383"><ele>232.0</ele><time>2026-04-25T13:14:29.229Z</time></trkpt><trkpt lat="45.668405" lon="9.7553167"><ele>232.0</ele><time>2026-04-25T13:14:30.228Z</time></trkpt><trkpt lat="45.6685" lon="9.7552017"><ele>232.0</ele><time>2026-04-25T13:14:31.227Z</time></trkpt><trkpt lat="45.668595" lon="9.755095"><ele>232.0</ele><time>2026-04-25T13:14:32.227Z</time></trkpt><trkpt lat="45.6686833" lon="9.7549983"><ele>232.0</ele><time>2026-04-25T13:14:33.228Z</time></trkpt><trkpt lat="45.6687617" lon="9.7549117"><ele>232.33333333333331</ele><time>2026-04-25T13:14:34.227Z</time></trkpt><trkpt lat="45.668835" lon="9.7548333"><ele>232.66666666666666</ele><time>2026-04-25T13:14:35.229Z</time></trkpt><trkpt lat="45.6688983" lon="9.7547633"><ele>233.0</ele><time>2026-04-25T13:14:36.228Z</time></trkpt><trkpt lat="45.6689533" lon="9.7547017"><ele>233.33333333333331</ele><time>2026-04-25T13:14:37.228Z</time></trkpt><trkpt lat="45.6690033" lon="9.7546467"><ele>233.66666666666666</ele><time>2026-04-25T13:14:38.228Z</time></trkpt><trkpt lat="45.6691017" lon="9.754535"><ele>234.0</ele><time>2026-04-25T13:14:40.227Z</time></trkpt><trkpt lat="45.6691617" lon="9.75447"><ele>234.0</ele><time>2026-04-25T13:14:41.228Z</time></trkpt><trkpt lat="45.6692267" lon="9.7543983"><ele>234.0</ele><time>2026-04-25T13:14:42.227Z</time></trkpt><trkpt lat="45.66929" lon="9.7543267"><ele>234.0</ele><time>2026-04-25T13:14:43.227Z</time></trkpt><trkpt lat="45.66935" lon="9.7542567"><ele>234.0</ele><time>2026-04-25T13:14:44.227Z</time></trkpt><trkpt lat="45.669405" lon="9.7541917"><ele>234.0</ele><time>2026-04-25T13:14:45.229Z</time></trkpt><trkpt lat="45.66946" lon="9.75413"><ele>234.0</ele><time>2026-04-25T13:14:46.228Z</time></trkpt><trkpt lat="45.66952" lon="9.7540633"><ele>234.39999999999998</ele><time>2026-04-25T13:14:47.229Z</time></trkpt><trkpt lat="45.66959" lon="9.7539817"><ele>234.79999999999998</ele><time>2026-04-25T13:14:48.227Z</time></trkpt><trkpt lat="45.669665" lon="9.7538867"><ele>235.20000000000002</ele><time>2026-04-25T13:14:49.231Z</time></trkpt><trkpt lat="45.6697383" lon="9.7537733"><ele>235.60000000000002</ele><time>2026-04-25T13:14:50.227Z</time></trkpt><trkpt lat="45.6698133" lon="9.7536483"><ele>236.0</ele><time>2026-04-25T13:14:51.229Z</time></trkpt><trkpt lat="45.6698833" lon="9.7535117"><ele>236.0</ele><time>2026-04-25T13:14:52.227Z</time></trkpt><trkpt lat="45.6699533" lon="9.7533717"><ele>236.0</ele><time>2026-04-25T13:14:53.228Z</time></trkpt><trkpt lat="45.6700333" lon="9.7532383"><ele>236.0</ele><time>2026-04-25T13:14:54.227Z</time></trkpt><trkpt lat="45.6701233" lon="9.75312"><ele>236.0</ele><time>2026-04-25T13:14:55.227Z</time></trkpt><trkpt lat="45.670225" lon="9.7530217"><ele>235.5</ele><time>2026-04-25T13:14:56.228Z</time></trkpt><trkpt lat="45.67033" lon="9.7529383"><ele>235.0</ele><time>2026-04-25T13:14:57.228Z</time></trkpt><trkpt lat="45.67044" lon="9.7528683"><ele>234.5</ele><time>2026-04-25T13:14:58.227Z</time></trkpt><trkpt lat="45.670565" lon="9.7528167"><ele>234.0</ele><time>2026-04-25T13:14:59.228Z</time></trkpt><trkpt lat="45.6707033" lon="9.752785"><ele>234.0</ele><time>2026-04-25T13:15:00.228Z</time></trkpt><trkpt lat="45.6708483" lon="9.7527667"><ele>234.0</ele><time>2026-04-25T13:15:01.229Z</time></trkpt><trkpt lat="45.6709983" lon="9.7527567"><ele>234.0</ele><time>2026-04-25T13:15:02.227Z</time></trkpt><trkpt lat="45.6711483" lon="9.7527483"><ele>234.0</ele><time>2026-04-25T13:15:03.229Z</time></trkpt><trkpt lat="45.6713" lon="9.7527433"><ele>234.66666666666669</ele><time>2026-04-25T13:15:04.229Z</time></trkpt><trkpt lat="45.6714567" lon="9.7527367"><ele>235.33333333333334</ele><time>2026-04-25T13:15:05.229Z</time></trkpt><trkpt lat="45.6716117" lon="9.7527267"><ele>236.0</ele><time>2026-04-25T13:15:06.228Z</time></trkpt><trkpt lat="45.6717717" lon="9.7527133"><ele>236.0</ele><time>2026-04-25T13:15:07.228Z</time></trkpt><trkpt lat="45.671935" lon="9.7527017"><ele>236.0</ele><time>2026-04-25T13:15:08.227Z</time></trkpt><trkpt lat="45.6721" lon="9.75269"><ele>236.0</ele><time>2026-04-25T13:15:09.228Z</time></trkpt><trkpt lat="45.6722667" lon="9.75268"><ele>235.66666666666669</ele><time>2026-04-25T13:15:10.228Z</time></trkpt><trkpt lat="45.6724367" lon="9.75267"><ele>235.33333333333331</ele><time>2026-04-25T13:15:11.228Z</time></trkpt><trkpt lat="45.6726067" lon="9.752655"><ele>235.0</ele><time>2026-04-25T13:15:12.228Z</time></trkpt><trkpt lat="45.6727817" lon="9.7526383"><ele>235.66666666666666</ele><time>2026-04-25T13:15:13.228Z</time></trkpt><trkpt lat="45.67296" lon="9.752615"><ele>236.33333333333331</ele><time>2026-04-25T13:15:14.229Z</time></trkpt><trkpt lat="45.6731383" lon="9.7525833"><ele>237.0</ele><time>2026-04-25T13:15:15.228Z</time></trkpt><trkpt lat="45.6733167" lon="9.7525417"><ele>237.0</ele><time>2026-04-25T13:15:16.227Z</time></trkpt><trkpt lat="45.6734967" lon="9.7524933"><ele>237.0</ele><time>2026-04-25T13:15:17.228Z</time></trkpt><trkpt lat="45.6736717" lon="9.75244"><ele>237.0</ele><time>2026-04-25T13:15:18.229Z</time></trkpt><trkpt lat="45.6738433" lon="9.7523833"><ele>237.0</ele><time>2026-04-25T13:15:19.228Z</time></trkpt><trkpt lat="45.674015" lon="9.7523233"><ele>237.0</ele><time>2026-04-25T13:15:20.227Z</time></trkpt><trkpt lat="45.674185" lon="9.75226"><ele>237.0</ele><time>2026-04-25T13:15:21.228Z</time></trkpt><trkpt lat="45.6743517" lon="9.7521967"><ele>237.33333333333331</ele><time>2026-04-25T13:15:22.229Z</time></trkpt><trkpt lat="45.674515" lon="9.7521333"><ele>237.66666666666666</ele><time>2026-04-25T13:15:23.227Z</time></trkpt><trkpt lat="45.6746783" lon="9.7520667"><ele>238.0</ele><time>2026-04-25T13:15:24.227Z</time></trkpt><trkpt lat="45.67484" lon="9.7520017"><ele>238.0</ele><time>2026-04-25T13:15:25.227Z</time></trkpt><trkpt lat="45.6750017" lon="9.7519383"><ele>238.0</ele><time>2026-04-25T13:15:26.229Z</time></trkpt><trkpt lat="45.6751683" lon="9.7518733"><ele>238.0</ele><time>2026-04-25T13:15:27.228Z</time></trkpt><trkpt lat="45.6753333" lon="9.75181"><ele>238.33333333333331</ele><time>2026-04-25T13:15:28.227Z</time></trkpt><trkpt lat="45.6754967" lon="9.7517483"><ele>238.66666666666669</ele><time>2026-04-25T13:15:29.229Z</time></trkpt><trkpt lat="45.6756533" lon="9.7516833"><ele>239.0</ele><time>2026-04-25T13:15:30.229Z</time></trkpt><trkpt lat="45.6757933" lon="9.7516267"><ele>239.0</ele><time>2026-04-25T13:15:31.228Z</time></trkpt><trkpt lat="45.6759183" lon="9.7515767"><ele>239.0</ele><time>2026-04-25T13:15:32.227Z</time></trkpt><trkpt lat="45.6760383" lon="9.75153"><ele>239.0</ele><time>2026-04-25T13:15:33.228Z</time></trkpt><trkpt lat="45.676145" lon="9.7514783"><ele>239.0</ele><time>2026-04-25T13:15:34.227Z</time></trkpt><trkpt lat="45.6762317" lon="9.7514117"><ele>238.83333333333334</ele><time>2026-04-25T13:15:35.227Z</time></trkpt><trkpt lat="45.6762883" lon="9.7513217"><ele>238.66666666666669</ele><time>2026-04-25T13:15:36.228Z</time></trkpt><trkpt lat="45.676315" lon="9.7512233"><ele>238.5</ele><time>2026-04-25T13:15:37.228Z</time></trkpt><trkpt lat="45.6763183" lon="9.7511217"><ele>238.33333333333331</ele><time>2026-04-25T13:15:38.228Z</time></trkpt><trkpt lat="45.67631" lon="9.751025"><ele>238.16666666666666</ele><time>2026-04-25T13:15:39.228Z</time></trkpt><trkpt lat="45.6762967" lon="9.7509233"><ele>238.0</ele><time>2026-04-25T13:15:40.228Z</time></trkpt><trkpt lat="45.6762767" lon="9.7508117"><ele>238.0</ele><time>2026-04-25T13:15:41.229Z</time></trkpt><trkpt lat="45.676255" lon="9.75069"><ele>238.0</ele><time>2026-04-25T13:15:42.229Z</time></trkpt><trkpt lat="45.67623" lon="9.7505633"><ele>238.0</ele><time>2026-04-25T13:15:43.231Z</time></trkpt><trkpt lat="45.6762167" lon="9.7504283"><ele>238.0</ele><time>2026-04-25T13:15:44.231Z</time></trkpt><trkpt lat="45.6762233" lon="9.7502933"><ele>238.0</ele><time>2026-04-25T13:15:45.23Z</time></trkpt><trkpt lat="45.6762517" lon="9.7501533"><ele>238.5</ele><time>2026-04-25T13:15:46.228Z</time></trkpt><trkpt lat="45.67629" lon="9.7500083"><ele>239.0</ele><time>2026-04-25T13:15:47.229Z</time></trkpt><trkpt lat="45.67634" lon="9.7498467"><ele>239.5</ele><time>2026-04-25T13:15:48.227Z</time></trkpt><trkpt lat="45.6763933" lon="9.749685"><ele>240.0</ele><time>2026-04-25T13:15:49.227Z</time></trkpt><trkpt lat="45.6764483" lon="9.7495317"><ele>240.0</ele><time>2026-04-25T13:15:50.228Z</time></trkpt><trkpt lat="45.676505" lon="9.7493783"><ele>240.0</ele><time>2026-04-25T13:15:51.228Z</time></trkpt><trkpt lat="45.67656" lon="9.7492367"><ele>240.0</ele><time>2026-04-25T13:15:52.228Z</time></trkpt><trkpt lat="45.6766033" lon="9.7491033"><ele>240.0</ele><time>2026-04-25T13:15:53.228Z</time></trkpt><trkpt lat="45.6766417" lon="9.748985"><ele>240.0</ele><time>2026-04-25T13:15:54.229Z</time></trkpt><trkpt lat="45.6766683" lon="9.7488883"><ele>240.5</ele><time>2026-04-25T13:15:55.23Z</time></trkpt><trkpt lat="45.6767033" lon="9.7487567"><ele>241.0</ele><time>2026-04-25T13:15:57.23Z</time></trkpt><trkpt lat="45.6767367" lon="9.7486467"><ele>241.5</ele><time>2026-04-25T13:15:59.229Z</time></trkpt><trkpt lat="45.676765" lon="9.748545"><ele>242.0</ele><time>2026-04-25T13:16:03.229Z</time></trkpt><trkpt lat="45.6768017" lon="9.7484317"><ele>242.5</ele><time>2026-04-25T13:16:06.227Z</time></trkpt><trkpt lat="45.6768433" lon="9.7483483"><ele>243.0</ele><time>2026-04-25T13:16:08.229Z</time></trkpt><trkpt lat="45.6768883" lon="9.7482567"><ele>243.0</ele><time>2026-04-25T13:16:11.227Z</time></trkpt><trkpt lat="45.676935" lon="9.7481467"><ele>243.0</ele><time>2026-04-25T13:16:13.228Z</time></trkpt><trkpt lat="45.677" lon="9.7480333"><ele>243.0</ele><time>2026-04-25T13:16:15.229Z</time></trkpt><trkpt lat="45.6770617" lon="9.7479733"><ele>243.0</ele><time>2026-04-25T13:16:17.228Z</time></trkpt><trkpt lat="45.6771533" lon="9.74792"><ele>243.0</ele><time>2026-04-25T13:16:19.229Z</time></trkpt><trkpt lat="45.6772183" lon="9.7478767"><ele>243.0</ele><time>2026-04-25T13:16:20.228Z</time></trkpt><trkpt lat="45.677285" lon="9.7478133"><ele>243.0</ele><time>2026-04-25T13:16:21.228Z</time></trkpt><trkpt lat="45.677335" lon="9.7477317"><ele>243.0</ele><time>2026-04-25T13:16:22.227Z</time></trkpt><trkpt lat="45.6773583" lon="9.7476367"><ele>243.0</ele><time>2026-04-25T13:16:23.229Z</time></trkpt><trkpt lat="45.677355" lon="9.7475367"><ele>243.0</ele><time>2026-04-25T13:16:24.228Z</time></trkpt><trkpt lat="45.6773217" lon="9.747445"><ele>243.0</ele><time>2026-04-25T13:16:25.23Z</time></trkpt><trkpt lat="45.67727" lon="9.74736"><ele>243.0</ele><time>2026-04-25T13:16:26.228Z</time></trkpt><trkpt lat="45.677215" lon="9.7472667"><ele>243.0</ele><time>2026-04-25T13:16:27.229Z</time></trkpt><trkpt lat="45.6771667" lon="9.747155"><ele>243.0</ele><time>2026-04-25T13:16:28.227Z</time></trkpt><trkpt lat="45.6771417" lon="9.74703"><ele>243.0</ele><time>2026-04-25T13:16:29.228Z</time></trkpt><trkpt lat="45.67714" lon="9.7469"><ele>243.0</ele><time>2026-04-25T13:16:30.228Z</time></trkpt><trkpt lat="45.677155" lon="9.7467633"><ele>243.0</ele><time>2026-04-25T13:16:31.227Z</time></trkpt><trkpt lat="45.6771783" lon="9.7466233"><ele>243.25</ele><time>2026-04-25T13:16:32.228Z</time></trkpt><trkpt lat="45.6772067" lon="9.746485"><ele>243.5</ele><time>2026-04-25T13:16:33.229Z</time></trkpt><trkpt lat="45.677255" lon="9.746305"><ele>243.75</ele><time>2026-04-25T13:16:34.228Z</time></trkpt><trkpt lat="45.6773083" lon="9.7461083"><ele>244.0</ele><time>2026-04-25T13:16:35.227Z</time></trkpt><trkpt lat="45.6773517" lon="9.7459083"><ele>244.0</ele><time>2026-04-25T13:16:36.229Z</time></trkpt><trkpt lat="45.6773933" lon="9.7457017"><ele>244.0</ele><time>2026-04-25T13:16:37.228Z</time></trkpt><trkpt lat="45.677435" lon="9.745495"><ele>244.0</ele><time>2026-04-25T13:16:38.229Z</time></trkpt><trkpt lat="45.6774767" lon="9.7453"><ele>244.0</ele><time>2026-04-25T13:16:39.229Z</time></trkpt><trkpt lat="45.6775167" lon="9.74512"><ele>243.5</ele><time>2026-04-25T13:16:40.227Z</time></trkpt><trkpt lat="45.677555" lon="9.7449533"><ele>243.0</ele><time>2026-04-25T13:16:41.23Z</time></trkpt><trkpt lat="45.6775917" lon="9.744795"><ele>242.5</ele><time>2026-04-25T13:16:42.228Z</time></trkpt><trkpt lat="45.6776267" lon="9.7446367"><ele>242.0</ele><time>2026-04-25T13:16:43.228Z</time></trkpt><trkpt lat="45.6776617" lon="9.7444717"><ele>242.25</ele><time>2026-04-25T13:16:44.228Z</time></trkpt><trkpt lat="45.6776967" lon="9.7443033"><ele>242.5</ele><time>2026-04-25T13:16:45.229Z</time></trkpt><trkpt lat="45.6777333" lon="9.7441333"><ele>242.75</ele><time>2026-04-25T13:16:46.229Z</time></trkpt><trkpt lat="45.67777" lon="9.7439567"><ele>243.0</ele><time>2026-04-25T13:16:47.228Z</time></trkpt><trkpt lat="45.6778083" lon="9.7437733"><ele>243.25</ele><time>2026-04-25T13:16:48.227Z</time></trkpt><trkpt lat="45.67785" lon="9.743585"><ele>243.5</ele><time>2026-04-25T13:16:49.228Z</time></trkpt><trkpt lat="45.6778933" lon="9.74339"><ele>243.75</ele><time>2026-04-25T13:16:50.229Z</time></trkpt><trkpt lat="45.6779417" lon="9.7431883"><ele>244.0</ele><time>2026-04-25T13:16:51.23Z</time></trkpt><trkpt lat="45.6779883" lon="9.7429933"><ele>244.0</ele><time>2026-04-25T13:16:52.228Z</time></trkpt><trkpt lat="45.6780367" lon="9.7427967"><ele>244.0</ele><time>2026-04-25T13:16:53.23Z</time></trkpt><trkpt lat="45.678085" lon="9.74259"><ele>244.0</ele><time>2026-04-25T13:16:54.229Z</time></trkpt><trkpt lat="45.678135" lon="9.742375"><ele>244.0</ele><time>2026-04-25T13:16:55.229Z</time></trkpt><trkpt lat="45.678185" lon="9.7421517"><ele>244.0</ele><time>2026-04-25T13:16:56.229Z</time></trkpt><trkpt lat="45.67824" lon="9.7419217"><ele>244.0</ele><time>2026-04-25T13:16:57.229Z</time></trkpt><trkpt lat="45.6782967" lon="9.74169"><ele>244.0</ele><time>2026-04-25T13:16:58.229Z</time></trkpt><trkpt lat="45.67835" lon="9.7414633"><ele>244.0</ele><time>2026-04-25T13:16:59.229Z</time></trkpt><trkpt lat="45.6784" lon="9.7412533"><ele>244.0</ele><time>2026-04-25T13:17:00.229Z</time></trkpt><trkpt lat="45.6784433" lon="9.7410683"><ele>243.99999999999997</ele><time>2026-04-25T13:17:01.23Z</time></trkpt><trkpt lat="45.6784817" lon="9.74091"><ele>244.0</ele><time>2026-04-25T13:17:02.23Z</time></trkpt><trkpt lat="45.6785167" lon="9.7407733"><ele>244.0</ele><time>2026-04-25T13:17:03.231Z</time></trkpt><trkpt lat="45.6785467" lon="9.7406567"><ele>244.0</ele><time>2026-04-25T13:17:04.229Z</time></trkpt><trkpt lat="45.6785733" lon="9.740555"><ele>243.99999999999997</ele><time>2026-04-25T13:17:05.229Z</time></trkpt><trkpt lat="45.678595" lon="9.740465"><ele>244.0</ele><time>2026-04-25T13:17:06.23Z</time></trkpt><trkpt lat="45.678625" lon="9.7403167"><ele>244.39999999999998</ele><time>2026-04-25T13:17:08.23Z</time></trkpt><trkpt lat="45.6786533" lon="9.7402083"><ele>244.79999999999998</ele><time>2026-04-25T13:17:10.229Z</time></trkpt><trkpt lat="45.6787017" lon="9.7400183"><ele>245.20000000000002</ele><time>2026-04-25T13:17:13.23Z</time></trkpt><trkpt lat="45.6787333" lon="9.73991"><ele>245.60000000000002</ele><time>2026-04-25T13:17:14.231Z</time></trkpt><trkpt lat="45.6787667" lon="9.7397817"><ele>246.0</ele><time>2026-04-25T13:17:15.231Z</time></trkpt><trkpt lat="45.67881" lon="9.7396167"><ele>246.0</ele><time>2026-04-25T13:17:16.23Z</time></trkpt><trkpt lat="45.6788567" lon="9.7394383"><ele>246.0</ele><time>2026-04-25T13:17:17.23Z</time></trkpt><trkpt lat="45.6789033" lon="9.7392583"><ele>246.0</ele><time>2026-04-25T13:17:18.23Z</time></trkpt><trkpt lat="45.6789517" lon="9.7390683"><ele>246.0</ele><time>2026-04-25T13:17:19.23Z</time></trkpt><trkpt lat="45.6790017" lon="9.7388583"><ele>246.0</ele><time>2026-04-25T13:17:20.231Z</time></trkpt><trkpt lat="45.6790517" lon="9.738645"><ele>246.0</ele><time>2026-04-25T13:17:21.23Z</time></trkpt><trkpt lat="45.679105" lon="9.738425"><ele>246.0</ele><time>2026-04-25T13:17:22.229Z</time></trkpt><trkpt lat="45.6791583" lon="9.738205"><ele>246.33333333333331</ele><time>2026-04-25T13:17:23.23Z</time></trkpt><trkpt lat="45.6792117" lon="9.73798"><ele>246.66666666666666</ele><time>2026-04-25T13:17:24.23Z</time></trkpt><trkpt lat="45.6792667" lon="9.7377617"><ele>247.0</ele><time>2026-04-25T13:17:25.23Z</time></trkpt><trkpt lat="45.6793183" lon="9.7375517"><ele>247.0</ele><time>2026-04-25T13:17:26.231Z</time></trkpt><trkpt lat="45.6793683" lon="9.73735"><ele>247.0</ele><time>2026-04-25T13:17:27.231Z</time></trkpt><trkpt lat="45.679415" lon="9.737145"><ele>247.0</ele><time>2026-04-25T13:17:28.229Z</time></trkpt><trkpt lat="45.679455" lon="9.7369383"><ele>246.66666666666666</ele><time>2026-04-25T13:17:29.229Z</time></trkpt><trkpt lat="45.6794867" lon="9.736725"><ele>246.33333333333331</ele><time>2026-04-25T13:17:30.229Z</time></trkpt><trkpt lat="45.679515" lon="9.7365017"><ele>246.0</ele><time>2026-04-25T13:17:31.23Z</time></trkpt><trkpt lat="45.679535" lon="9.7362733"><ele>244.66666666666669</ele><time>2026-04-25T13:17:32.231Z</time></trkpt><trkpt lat="45.6795483" lon="9.73604"><ele>243.33333333333334</ele><time>2026-04-25T13:17:33.23Z</time></trkpt><trkpt lat="45.6795483" lon="9.7358"><ele>242.0</ele><time>2026-04-25T13:17:34.228Z</time></trkpt><trkpt lat="45.679535" lon="9.7355583"><ele>242.0</ele><time>2026-04-25T13:17:35.228Z</time></trkpt><trkpt lat="45.679515" lon="9.7353117"><ele>242.0</ele><time>2026-04-25T13:17:36.229Z</time></trkpt><trkpt lat="45.6794883" lon="9.7350617"><ele>242.0</ele><time>2026-04-25T13:17:37.228Z</time></trkpt><trkpt lat="45.679455" lon="9.7348033"><ele>241.0</ele><time>2026-04-25T13:17:38.228Z</time></trkpt><trkpt lat="45.6794183" lon="9.734545"><ele>240.0</ele><time>2026-04-25T13:17:39.229Z</time></trkpt><trkpt lat="45.679385" lon="9.7342917"><ele>239.0</ele><time>2026-04-25T13:17:40.229Z</time></trkpt><trkpt lat="45.6793517" lon="9.7340467"><ele>239.0</ele><time>2026-04-25T13:17:41.229Z</time></trkpt><trkpt lat="45.6793167" lon="9.733815"><ele>239.0</ele><time>2026-04-25T13:17:42.228Z</time></trkpt><trkpt lat="45.6792883" lon="9.7335933"><ele>239.0</ele><time>2026-04-25T13:17:43.228Z</time></trkpt><trkpt lat="45.6792617" lon="9.7333783"><ele>239.0</ele><time>2026-04-25T13:17:44.228Z</time></trkpt><trkpt lat="45.679245" lon="9.733155"><ele>239.0</ele><time>2026-04-25T13:17:45.23Z</time></trkpt><trkpt lat="45.679235" lon="9.7329167"><ele>239.0</ele><time>2026-04-25T13:17:46.229Z</time></trkpt><trkpt lat="45.6792317" lon="9.7326717"><ele>239.0</ele><time>2026-04-25T13:17:47.228Z</time></trkpt><trkpt lat="45.6792333" lon="9.7324233"><ele>239.0</ele><time>2026-04-25T13:17:48.228Z</time></trkpt><trkpt lat="45.679235" lon="9.7321783"><ele>239.0</ele><time>2026-04-25T13:17:49.228Z</time></trkpt><trkpt lat="45.679235" lon="9.731935"><ele>239.0</ele><time>2026-04-25T13:17:50.228Z</time></trkpt><trkpt lat="45.679235" lon="9.7316867"><ele>239.0</ele><time>2026-04-25T13:17:51.229Z</time></trkpt><trkpt lat="45.6792367" lon="9.731425"><ele>239.0</ele><time>2026-04-25T13:17:52.228Z</time></trkpt><trkpt lat="45.6792333" lon="9.7311683"><ele>239.25</ele><time>2026-04-25T13:17:53.227Z</time></trkpt><trkpt lat="45.6792267" lon="9.7309383"><ele>239.5</ele><time>2026-04-25T13:17:54.231Z</time></trkpt><trkpt lat="45.679215" lon="9.730735"><ele>239.75</ele><time>2026-04-25T13:17:55.229Z</time></trkpt><trkpt lat="45.6792067" lon="9.730565"><ele>240.0</ele><time>2026-04-25T13:17:56.228Z</time></trkpt><trkpt lat="45.6791967" lon="9.7304267"><ele>240.0</ele><time>2026-04-25T13:17:57.229Z</time></trkpt><trkpt lat="45.679185" lon="9.73031"><ele>240.0</ele><time>2026-04-25T13:17:58.228Z</time></trkpt><trkpt lat="45.6791817" lon="9.7302"><ele>240.0</ele><time>2026-04-25T13:17:59.23Z</time></trkpt><trkpt lat="45.6791867" lon="9.730095"><ele>240.0</ele><time>2026-04-25T13:18:00.228Z</time></trkpt><trkpt lat="45.6791883" lon="9.7299783"><ele>240.0</ele><time>2026-04-25T13:18:01.229Z</time></trkpt><trkpt lat="45.67918" lon="9.7298567"><ele>240.0</ele><time>2026-04-25T13:18:02.23Z</time></trkpt><trkpt lat="45.6791633" lon="9.7297317"><ele>240.16666666666666</ele><time>2026-04-25T13:18:03.229Z</time></trkpt><trkpt lat="45.679145" lon="9.72961"><ele>240.33333333333331</ele><time>2026-04-25T13:18:04.228Z</time></trkpt><trkpt lat="45.6791317" lon="9.7295"><ele>240.5</ele><time>2026-04-25T13:18:05.23Z</time></trkpt><trkpt lat="45.67912" lon="9.72939"><ele>240.66666666666666</ele><time>2026-04-25T13:18:06.228Z</time></trkpt><trkpt lat="45.6791117" lon="9.7292767"><ele>240.83333333333331</ele><time>2026-04-25T13:18:07.229Z</time></trkpt><trkpt lat="45.6790967" lon="9.7291633"><ele>241.0</ele><time>2026-04-25T13:18:08.228Z</time></trkpt><trkpt lat="45.679085" lon="9.7290517"><ele>240.99999999999997</ele><time>2026-04-25T13:18:09.228Z</time></trkpt><trkpt lat="45.6790733" lon="9.7289417"><ele>241.0</ele><time>2026-04-25T13:18:10.229Z</time></trkpt><trkpt lat="45.6790617" lon="9.7288283"><ele>241.0</ele><time>2026-04-25T13:18:11.23Z</time></trkpt><trkpt lat="45.6790483" lon="9.7287033"><ele>241.0</ele><time>2026-04-25T13:18:12.228Z</time></trkpt><trkpt lat="45.6790383" lon="9.7285683"><ele>240.99999999999997</ele><time>2026-04-25T13:18:13.227Z</time></trkpt><trkpt lat="45.6790267" lon="9.7284267"><ele>241.0</ele><time>2026-04-25T13:18:14.229Z</time></trkpt><trkpt lat="45.679015" lon="9.728275"><ele>241.0</ele><time>2026-04-25T13:18:15.229Z</time></trkpt><trkpt lat="45.6790067" lon="9.7281233"><ele>241.00000000000003</ele><time>2026-04-25T13:18:16.229Z</time></trkpt><trkpt lat="45.6790117" lon="9.7279767"><ele>241.00000000000003</ele><time>2026-04-25T13:18:17.228Z</time></trkpt><trkpt lat="45.6790267" lon="9.727835"><ele>241.0</ele><time>2026-04-25T13:18:18.229Z</time></trkpt><trkpt lat="45.679055" lon="9.7276967"><ele>241.0</ele><time>2026-04-25T13:18:19.229Z</time></trkpt><trkpt lat="45.679105" lon="9.7275667"><ele>240.60000000000002</ele><time>2026-04-25T13:18:20.229Z</time></trkpt><trkpt lat="45.6791617" lon="9.7274483"><ele>240.20000000000002</ele><time>2026-04-25T13:18:21.231Z</time></trkpt><trkpt lat="45.6792183" lon="9.7273467"><ele>239.79999999999998</ele><time>2026-04-25T13:18:22.228Z</time></trkpt><trkpt lat="45.6792783" lon="9.727255"><ele>239.39999999999998</ele><time>2026-04-25T13:18:23.228Z</time></trkpt><trkpt lat="45.6793367" lon="9.727165"><ele>239.0</ele><time>2026-04-25T13:18:24.229Z</time></trkpt><trkpt lat="45.679395" lon="9.7270733"><ele>239.16666666666669</ele><time>2026-04-25T13:18:25.228Z</time></trkpt><trkpt lat="45.6794533" lon="9.72698"><ele>239.33333333333334</ele><time>2026-04-25T13:18:26.228Z</time></trkpt><trkpt lat="45.679515" lon="9.7268833"><ele>239.5</ele><time>2026-04-25T13:18:27.228Z</time></trkpt><trkpt lat="45.6795767" lon="9.726785"><ele>239.66666666666669</ele><time>2026-04-25T13:18:28.228Z</time></trkpt><trkpt lat="45.679635" lon="9.7266967"><ele>239.83333333333334</ele><time>2026-04-25T13:18:29.229Z</time></trkpt><trkpt lat="45.6796933" lon="9.72661"><ele>240.0</ele><time>2026-04-25T13:18:30.23Z</time></trkpt><trkpt lat="45.6797533" lon="9.7265217"><ele>240.14285714285717</ele><time>2026-04-25T13:18:31.228Z</time></trkpt><trkpt lat="45.67981" lon="9.7264333"><ele>240.28571428571428</ele><time>2026-04-25T13:18:32.229Z</time></trkpt><trkpt lat="45.6798617" lon="9.7263483"><ele>240.42857142857144</ele><time>2026-04-25T13:18:33.229Z</time></trkpt><trkpt lat="45.67991" lon="9.7262683"><ele>240.57142857142858</ele><time>2026-04-25T13:18:34.227Z</time></trkpt><trkpt lat="45.6799567" lon="9.726195"><ele>240.71428571428572</ele><time>2026-04-25T13:18:35.228Z</time></trkpt><trkpt lat="45.6800017" lon="9.7261233"><ele>240.85714285714286</ele><time>2026-04-25T13:18:36.229Z</time></trkpt><trkpt lat="45.6800483" lon="9.72605"><ele>241.0</ele><time>2026-04-25T13:18:37.228Z</time></trkpt><trkpt lat="45.6800967" lon="9.725975"><ele>240.99999999999997</ele><time>2026-04-25T13:18:38.228Z</time></trkpt><trkpt lat="45.680145" lon="9.725895"><ele>241.0</ele><time>2026-04-25T13:18:39.229Z</time></trkpt><trkpt lat="45.6802" lon="9.7258067"><ele>241.0</ele><time>2026-04-25T13:18:40.227Z</time></trkpt><trkpt lat="45.6802517" lon="9.7257167"><ele>241.0</ele><time>2026-04-25T13:18:41.228Z</time></trkpt><trkpt lat="45.680295" lon="9.72563"><ele>240.99999999999997</ele><time>2026-04-25T13:18:42.228Z</time></trkpt><trkpt lat="45.6803233" lon="9.7255433"><ele>241.0</ele><time>2026-04-25T13:18:43.228Z</time></trkpt><trkpt lat="45.6803283" lon="9.7253867"><ele>241.0</ele><time>2026-04-25T13:18:45.228Z</time></trkpt><trkpt lat="45.6802667" lon="9.7252567"><ele>241.00000000000003</ele><time>2026-04-25T13:18:47.23Z</time></trkpt><trkpt lat="45.6801783" lon="9.7251217"><ele>241.00000000000003</ele><time>2026-04-25T13:18:49.229Z</time></trkpt><trkpt lat="45.6801167" lon="9.7250367"><ele>241.0</ele><time>2026-04-25T13:18:50.228Z</time></trkpt><trkpt lat="45.68005" lon="9.7249333"><ele>241.0</ele><time>2026-04-25T13:18:51.228Z</time></trkpt><trkpt lat="45.6799783" lon="9.7248133"><ele>240.5</ele><time>2026-04-25T13:18:52.228Z</time></trkpt><trkpt lat="45.6799017" lon="9.7246833"><ele>240.0</ele><time>2026-04-25T13:18:53.227Z</time></trkpt><trkpt lat="45.679825" lon="9.7245433"><ele>239.5</ele><time>2026-04-25T13:18:54.228Z</time></trkpt><trkpt lat="45.6797483" lon="9.724395"><ele>239.0</ele><time>2026-04-25T13:18:55.227Z</time></trkpt><trkpt lat="45.6796683" lon="9.7242367"><ele>238.75</ele><time>2026-04-25T13:18:56.228Z</time></trkpt><trkpt lat="45.6795867" lon="9.7240767"><ele>238.5</ele><time>2026-04-25T13:18:57.229Z</time></trkpt><trkpt lat="45.67951" lon="9.7239167"><ele>238.25</ele><time>2026-04-25T13:18:58.227Z</time></trkpt><trkpt lat="45.6794383" lon="9.7237667"><ele>238.0</ele><time>2026-04-25T13:18:59.229Z</time></trkpt><trkpt lat="45.6793733" lon="9.7236283"><ele>238.2</ele><time>2026-04-25T13:19:00.23Z</time></trkpt><trkpt lat="45.67932" lon="9.72349"><ele>238.4</ele><time>2026-04-25T13:19:01.23Z</time></trkpt><trkpt lat="45.6792833" lon="9.723355"><ele>238.59999999999997</ele><time>2026-04-25T13:19:02.227Z</time></trkpt><trkpt lat="45.6792617" lon="9.7232183"><ele>238.79999999999998</ele><time>2026-04-25T13:19:03.229Z</time></trkpt><trkpt lat="45.67926" lon="9.7230683"><ele>239.0</ele><time>2026-04-25T13:19:04.229Z</time></trkpt><trkpt lat="45.679275" lon="9.7229083"><ele>239.0</ele><time>2026-04-25T13:19:05.228Z</time></trkpt><trkpt lat="45.679305" lon="9.7227417"><ele>239.0</ele><time>2026-04-25T13:19:06.229Z</time></trkpt><trkpt lat="45.679345" lon="9.7225717"><ele>239.0</ele><time>2026-04-25T13:19:07.229Z</time></trkpt><trkpt lat="45.6793867" lon="9.7223967"><ele>239.0</ele><time>2026-04-25T13:19:08.228Z</time></trkpt><trkpt lat="45.6794233" lon="9.722225"><ele>239.39999999999998</ele><time>2026-04-25T13:19:09.228Z</time></trkpt><trkpt lat="45.6794583" lon="9.7220583"><ele>239.79999999999998</ele><time>2026-04-25T13:19:10.228Z</time></trkpt><trkpt lat="45.6794867" lon="9.7219067"><ele>240.20000000000002</ele><time>2026-04-25T13:19:11.228Z</time></trkpt><trkpt lat="45.6795083" lon="9.721765"><ele>240.60000000000002</ele><time>2026-04-25T13:19:12.228Z</time></trkpt><trkpt lat="45.67953" lon="9.7216333"><ele>241.0</ele><time>2026-04-25T13:19:13.23Z</time></trkpt><trkpt lat="45.6795483" lon="9.7215017"><ele>241.4</ele><time>2026-04-25T13:19:14.23Z</time></trkpt><trkpt lat="45.6795717" lon="9.7213667"><ele>241.8</ele><time>2026-04-25T13:19:15.23Z</time></trkpt><trkpt lat="45.679595" lon="9.7212367"><ele>242.20000000000002</ele><time>2026-04-25T13:19:16.229Z</time></trkpt><trkpt lat="45.67962" lon="9.7211183"><ele>242.60000000000002</ele><time>2026-04-25T13:19:17.229Z</time></trkpt><trkpt lat="45.6796417" lon="9.7210167"><ele>243.0</ele><time>2026-04-25T13:19:18.228Z</time></trkpt><trkpt lat="45.6796733" lon="9.720845"><ele>243.0</ele><time>2026-04-25T13:19:20.229Z</time></trkpt><trkpt lat="45.6796967" lon="9.7207383"><ele>243.0</ele><time>2026-04-25T13:19:21.23Z</time></trkpt><trkpt lat="45.6797217" lon="9.7206017"><ele>243.0</ele><time>2026-04-25T13:19:22.228Z</time></trkpt><trkpt lat="45.67976" lon="9.7204217"><ele>243.0</ele><time>2026-04-25T13:19:23.229Z</time></trkpt><trkpt lat="45.6798" lon="9.7202083"><ele>242.66666666666669</ele><time>2026-04-25T13:19:24.228Z</time></trkpt><trkpt lat="45.67984" lon="9.719975"><ele>242.33333333333334</ele><time>2026-04-25T13:19:25.228Z</time></trkpt><trkpt lat="45.6798783" lon="9.7197267"><ele>242.0</ele><time>2026-04-25T13:19:26.229Z</time></trkpt><trkpt lat="45.6799133" lon="9.7194683"><ele>242.0</ele><time>2026-04-25T13:19:27.229Z</time></trkpt><trkpt lat="45.6799517" lon="9.7192117"><ele>242.0</ele><time>2026-04-25T13:19:28.227Z</time></trkpt><trkpt lat="45.6799933" lon="9.7189567"><ele>242.0</ele><time>2026-04-25T13:19:29.229Z</time></trkpt><trkpt lat="45.68003" lon="9.71869"><ele>243.0</ele><time>2026-04-25T13:19:30.228Z</time></trkpt><trkpt lat="45.6800683" lon="9.7184233"><ele>244.0</ele><time>2026-04-25T13:19:31.228Z</time></trkpt><trkpt lat="45.6801083" lon="9.718165"><ele>245.0</ele><time>2026-04-25T13:19:32.229Z</time></trkpt><trkpt lat="45.6801433" lon="9.7179167"><ele>245.66666666666669</ele><time>2026-04-25T13:19:33.228Z</time></trkpt><trkpt lat="45.6801767" lon="9.7176717"><ele>246.33333333333331</ele><time>2026-04-25T13:19:34.227Z</time></trkpt><trkpt lat="45.6802133" lon="9.7174283"><ele>247.0</ele><time>2026-04-25T13:19:35.229Z</time></trkpt><trkpt lat="45.680255" lon="9.7171867"><ele>247.33333333333331</ele><time>2026-04-25T13:19:36.229Z</time></trkpt><trkpt lat="45.6802983" lon="9.716945"><ele>247.66666666666669</ele><time>2026-04-25T13:19:37.227Z</time></trkpt><trkpt lat="45.6803317" lon="9.7167033"><ele>248.0</ele><time>2026-04-25T13:19:38.228Z</time></trkpt><trkpt lat="45.6803667" lon="9.7164667"><ele>248.33333333333334</ele><time>2026-04-25T13:19:39.229Z</time></trkpt><trkpt lat="45.6804" lon="9.716235"><ele>248.66666666666669</ele><time>2026-04-25T13:19:40.229Z</time></trkpt><trkpt lat="45.68043" lon="9.716015"><ele>249.0</ele><time>2026-04-25T13:19:41.228Z</time></trkpt><trkpt lat="45.6804583" lon="9.7158183"><ele>249.0</ele><time>2026-04-25T13:19:42.228Z</time></trkpt><trkpt lat="45.68048" lon="9.7156433"><ele>248.99999999999997</ele><time>2026-04-25T13:19:43.228Z</time></trkpt><trkpt lat="45.6805017" lon="9.7155"><ele>248.99999999999997</ele><time>2026-04-25T13:19:44.227Z</time></trkpt><trkpt lat="45.6805183" lon="9.7153833"><ele>249.0</ele><time>2026-04-25T13:19:45.229Z</time></trkpt><trkpt lat="45.680535" lon="9.7152867"><ele>249.0</ele><time>2026-04-25T13:19:46.228Z</time></trkpt><trkpt lat="45.6805667" lon="9.71513"><ele>249.0</ele><time>2026-04-25T13:19:48.227Z</time></trkpt><trkpt lat="45.68061" lon="9.7150033"><ele>248.99999999999997</ele><time>2026-04-25T13:19:50.229Z</time></trkpt><trkpt lat="45.6806383" lon="9.7148417"><ele>248.99999999999997</ele><time>2026-04-25T13:19:52.229Z</time></trkpt><trkpt lat="45.6806483" lon="9.7147333"><ele>249.0</ele><time>2026-04-25T13:19:53.23Z</time></trkpt><trkpt lat="45.6806517" lon="9.7146067"><ele>249.0</ele><time>2026-04-25T13:19:54.228Z</time></trkpt><trkpt lat="45.6806667" lon="9.71446"><ele>249.25</ele><time>2026-04-25T13:19:55.229Z</time></trkpt><trkpt lat="45.6807" lon="9.714285"><ele>249.5</ele><time>2026-04-25T13:19:56.23Z</time></trkpt><trkpt lat="45.6807233" lon="9.7140983"><ele>249.75</ele><time>2026-04-25T13:19:57.229Z</time></trkpt><trkpt lat="45.6807483" lon="9.7139167"><ele>250.0</ele><time>2026-04-25T13:19:58.229Z</time></trkpt><trkpt lat="45.6807783" lon="9.713745"><ele>250.0</ele><time>2026-04-25T13:19:59.231Z</time></trkpt><trkpt lat="45.6808067" lon="9.7135733"><ele>250.0</ele><time>2026-04-25T13:20:00.228Z</time></trkpt><trkpt lat="45.6808383" lon="9.71341"><ele>250.0</ele><time>2026-04-25T13:20:01.228Z</time></trkpt><trkpt lat="45.68087" lon="9.7132417"><ele>250.0</ele><time>2026-04-25T13:20:02.228Z</time></trkpt><trkpt lat="45.6809" lon="9.71307"><ele>250.0</ele><time>2026-04-25T13:20:03.228Z</time></trkpt><trkpt lat="45.6809283" lon="9.7128933"><ele>250.0</ele><time>2026-04-25T13:20:04.229Z</time></trkpt><trkpt lat="45.6809583" lon="9.7127233"><ele>250.0</ele><time>2026-04-25T13:20:05.229Z</time></trkpt><trkpt lat="45.680985" lon="9.7125633"><ele>250.0</ele><time>2026-04-25T13:20:06.228Z</time></trkpt><trkpt lat="45.6810067" lon="9.7124117"><ele>250.0</ele><time>2026-04-25T13:20:07.228Z</time></trkpt><trkpt lat="45.68103" lon="9.712275"><ele>250.0</ele><time>2026-04-25T13:20:08.228Z</time></trkpt><trkpt lat="45.6810517" lon="9.7121433"><ele>250.0</ele><time>2026-04-25T13:20:09.229Z</time></trkpt><trkpt lat="45.6810733" lon="9.712015"><ele>250.0</ele><time>2026-04-25T13:20:10.228Z</time></trkpt><trkpt lat="45.681095" lon="9.7118933"><ele>250.0</ele><time>2026-04-25T13:20:11.229Z</time></trkpt><trkpt lat="45.6811167" lon="9.711775"><ele>250.2</ele><time>2026-04-25T13:20:12.228Z</time></trkpt><trkpt lat="45.6811417" lon="9.7116567"><ele>250.4</ele><time>2026-04-25T13:20:13.229Z</time></trkpt><trkpt lat="45.681165" lon="9.7115383"><ele>250.60000000000002</ele><time>2026-04-25T13:20:14.229Z</time></trkpt><trkpt lat="45.68119" lon="9.711405"><ele>250.8</ele><time>2026-04-25T13:20:15.228Z</time></trkpt><trkpt lat="45.6812167" lon="9.7112483"><ele>251.0</ele><time>2026-04-25T13:20:16.23Z</time></trkpt><trkpt lat="45.6812467" lon="9.7110867"><ele>251.0</ele><time>2026-04-25T13:20:17.229Z</time></trkpt><trkpt lat="45.6812767" lon="9.710915"><ele>251.0</ele><time>2026-04-25T13:20:18.228Z</time></trkpt><trkpt lat="45.6813117" lon="9.71074"><ele>251.0</ele><time>2026-04-25T13:20:19.229Z</time></trkpt><trkpt lat="45.6813483" lon="9.7105567"><ele>251.0</ele><time>2026-04-25T13:20:20.229Z</time></trkpt><trkpt lat="45.6813917" lon="9.7103667"><ele>251.0</ele><time>2026-04-25T13:20:21.23Z</time></trkpt><trkpt lat="45.6814383" lon="9.7101767"><ele>251.0</ele><time>2026-04-25T13:20:22.228Z</time></trkpt><trkpt lat="45.68149" lon="9.7099917"><ele>251.0</ele><time>2026-04-25T13:20:23.229Z</time></trkpt><trkpt lat="45.68155" lon="9.7098017"><ele>251.0</ele><time>2026-04-25T13:20:24.229Z</time></trkpt><trkpt lat="45.6816133" lon="9.7096083"><ele>250.66666666666669</ele><time>2026-04-25T13:20:25.228Z</time></trkpt><trkpt lat="45.681685" lon="9.7094083"><ele>250.33333333333331</ele><time>2026-04-25T13:20:26.228Z</time></trkpt><trkpt lat="45.6817583" lon="9.709205"><ele>250.0</ele><time>2026-04-25T13:20:27.23Z</time></trkpt><trkpt lat="45.681835" lon="9.7090017"><ele>250.0</ele><time>2026-04-25T13:20:28.229Z</time></trkpt><trkpt lat="45.68191" lon="9.7088"><ele>250.0</ele><time>2026-04-25T13:20:29.228Z</time></trkpt><trkpt lat="45.681985" lon="9.7086"><ele>250.0</ele><time>2026-04-25T13:20:30.229Z</time></trkpt><trkpt lat="45.6820633" lon="9.7084"><ele>250.5</ele><time>2026-04-25T13:20:31.23Z</time></trkpt><trkpt lat="45.6821383" lon="9.7082083"><ele>251.0</ele><time>2026-04-25T13:20:32.228Z</time></trkpt><trkpt lat="45.6822117" lon="9.7080233"><ele>251.5</ele><time>2026-04-25T13:20:33.229Z</time></trkpt><trkpt lat="45.68228" lon="9.70784"><ele>252.0</ele><time>2026-04-25T13:20:34.228Z</time></trkpt><trkpt lat="45.6823417" lon="9.707655"><ele>252.0</ele><time>2026-04-25T13:20:35.229Z</time></trkpt><trkpt lat="45.6824033" lon="9.7074667"><ele>252.0</ele><time>2026-04-25T13:20:36.228Z</time></trkpt><trkpt lat="45.682455" lon="9.70727"><ele>252.0</ele><time>2026-04-25T13:20:37.229Z</time></trkpt><trkpt lat="45.6825" lon="9.70707"><ele>252.0</ele><time>2026-04-25T13:20:38.228Z</time></trkpt><trkpt lat="45.6825367" lon="9.7068667"><ele>251.25</ele><time>2026-04-25T13:20:39.229Z</time></trkpt><trkpt lat="45.682565" lon="9.7066633"><ele>250.5</ele><time>2026-04-25T13:20:40.228Z</time></trkpt><trkpt lat="45.6825833" lon="9.7064617"><ele>249.75</ele><time>2026-04-25T13:20:41.229Z</time></trkpt><trkpt lat="45.6825883" lon="9.7062717"><ele>249.0</ele><time>2026-04-25T13:20:42.229Z</time></trkpt><trkpt lat="45.682585" lon="9.706085"><ele>249.25</ele><time>2026-04-25T13:20:43.229Z</time></trkpt><trkpt lat="45.6825733" lon="9.70589"><ele>249.5</ele><time>2026-04-25T13:20:44.228Z</time></trkpt><trkpt lat="45.6825583" lon="9.7056933"><ele>249.75</ele><time>2026-04-25T13:20:45.228Z</time></trkpt><trkpt lat="45.6825383" lon="9.70549"><ele>250.0</ele><time>2026-04-25T13:20:46.228Z</time></trkpt><trkpt lat="45.682515" lon="9.7052783"><ele>250.0</ele><time>2026-04-25T13:20:47.228Z</time></trkpt><trkpt lat="45.6824933" lon="9.705065"><ele>250.0</ele><time>2026-04-25T13:20:48.228Z</time></trkpt><trkpt lat="45.68247" lon="9.7048417"><ele>250.0</ele><time>2026-04-25T13:20:49.228Z</time></trkpt><trkpt lat="45.68245" lon="9.7046183"><ele>250.0</ele><time>2026-04-25T13:20:50.228Z</time></trkpt><trkpt lat="45.6824267" lon="9.7043933"><ele>250.0</ele><time>2026-04-25T13:20:51.229Z</time></trkpt><trkpt lat="45.6824067" lon="9.704175"><ele>250.0</ele><time>2026-04-25T13:20:52.229Z</time></trkpt><trkpt lat="45.6823867" lon="9.7039717"><ele>250.0</ele><time>2026-04-25T13:20:53.227Z</time></trkpt><trkpt lat="45.68237" lon="9.7037833"><ele>250.0</ele><time>2026-04-25T13:20:54.228Z</time></trkpt><trkpt lat="45.6823533" lon="9.7035933"><ele>250.0</ele><time>2026-04-25T13:20:55.229Z</time></trkpt><trkpt lat="45.682335" lon="9.7034117"><ele>250.0</ele><time>2026-04-25T13:20:56.229Z</time></trkpt><trkpt lat="45.682325" lon="9.7032483"><ele>249.6</ele><time>2026-04-25T13:20:57.229Z</time></trkpt><trkpt lat="45.68232" lon="9.7030983"><ele>249.2</ele><time>2026-04-25T13:20:58.229Z</time></trkpt><trkpt lat="45.6823217" lon="9.7029583"><ele>248.8</ele><time>2026-04-25T13:20:59.228Z</time></trkpt><trkpt lat="45.6823283" lon="9.702825"><ele>248.4</ele><time>2026-04-25T13:21:00.228Z</time></trkpt><trkpt lat="45.6823433" lon="9.7027033"><ele>248.0</ele><time>2026-04-25T13:21:01.229Z</time></trkpt><trkpt lat="45.6823583" lon="9.7025883"><ele>248.00000000000003</ele><time>2026-04-25T13:21:02.229Z</time></trkpt><trkpt lat="45.6823583" lon="9.7024783"><ele>248.0</ele><time>2026-04-25T13:21:03.229Z</time></trkpt><trkpt lat="45.6823417" lon="9.7023733"><ele>248.0</ele><time>2026-04-25T13:21:04.23Z</time></trkpt><trkpt lat="45.68231" lon="9.702265"><ele>248.0</ele><time>2026-04-25T13:21:05.229Z</time></trkpt><trkpt lat="45.6822717" lon="9.702145"><ele>248.00000000000003</ele><time>2026-04-25T13:21:06.229Z</time></trkpt><trkpt lat="45.6822383" lon="9.702005"><ele>248.0</ele><time>2026-04-25T13:21:07.229Z</time></trkpt><trkpt lat="45.6822083" lon="9.7018533"><ele>248.0</ele><time>2026-04-25T13:21:08.229Z</time></trkpt><trkpt lat="45.68218" lon="9.7016933"><ele>248.0</ele><time>2026-04-25T13:21:09.229Z</time></trkpt><trkpt lat="45.6821567" lon="9.7015233"><ele>248.0</ele><time>2026-04-25T13:21:10.228Z</time></trkpt><trkpt lat="45.682135" lon="9.7013467"><ele>248.0</ele><time>2026-04-25T13:21:11.228Z</time></trkpt><trkpt lat="45.6821183" lon="9.7011567"><ele>247.5</ele><time>2026-04-25T13:21:12.23Z</time></trkpt><trkpt lat="45.6821083" lon="9.700955"><ele>247.0</ele><time>2026-04-25T13:21:13.229Z</time></trkpt><trkpt lat="45.6821067" lon="9.7007483"><ele>246.5</ele><time>2026-04-25T13:21:14.228Z</time></trkpt><trkpt lat="45.682115" lon="9.7005417"><ele>246.0</ele><time>2026-04-25T13:21:15.229Z</time></trkpt><trkpt lat="45.68214" lon="9.700345"><ele>245.75</ele><time>2026-04-25T13:21:16.23Z</time></trkpt><trkpt lat="45.682175" lon="9.700165"><ele>245.5</ele><time>2026-04-25T13:21:17.228Z</time></trkpt><trkpt lat="45.6822167" lon="9.7"><ele>245.25</ele><time>2026-04-25T13:21:18.229Z</time></trkpt><trkpt lat="45.6822633" lon="9.699855"><ele>245.0</ele><time>2026-04-25T13:21:19.229Z</time></trkpt><trkpt lat="45.6823133" lon="9.6997283"><ele>245.00000000000003</ele><time>2026-04-25T13:21:20.228Z</time></trkpt><trkpt lat="45.68237" lon="9.6996167"><ele>245.0</ele><time>2026-04-25T13:21:21.229Z</time></trkpt><trkpt lat="45.68243" lon="9.699515"><ele>245.0</ele><time>2026-04-25T13:21:22.228Z</time></trkpt><trkpt lat="45.682485" lon="9.699425"><ele>245.0</ele><time>2026-04-25T13:21:23.232Z</time></trkpt><trkpt lat="45.682535" lon="9.6993517"><ele>245.00000000000003</ele><time>2026-04-25T13:21:24.229Z</time></trkpt><trkpt lat="45.682615" lon="9.6992717"><ele>245.0</ele><time>2026-04-25T13:21:26.228Z</time></trkpt><trkpt lat="45.6826883" lon="9.6992467"><ele>245.50000000000003</ele><time>2026-04-25T13:21:32.228Z</time></trkpt><trkpt lat="45.6828017" lon="9.6992617"><ele>246.0</ele><time>2026-04-25T13:21:35.228Z</time></trkpt><trkpt lat="45.6828667" lon="9.6992833"><ele>246.5</ele><time>2026-04-25T13:21:36.228Z</time></trkpt><trkpt lat="45.6829417" lon="9.6993"><ele>247.0</ele><time>2026-04-25T13:21:37.228Z</time></trkpt><trkpt lat="45.6830133" lon="9.6992867"><ele>247.50000000000003</ele><time>2026-04-25T13:21:38.228Z</time></trkpt><trkpt lat="45.6830783" lon="9.6992383"><ele>248.0</ele><time>2026-04-25T13:21:39.229Z</time></trkpt><trkpt lat="45.683125" lon="9.6991533"><ele>248.00000000000003</ele><time>2026-04-25T13:21:40.228Z</time></trkpt><trkpt lat="45.6831567" lon="9.69904"><ele>248.0</ele><time>2026-04-25T13:21:41.228Z</time></trkpt><trkpt lat="45.6831833" lon="9.6989317"><ele>248.0</ele><time>2026-04-25T13:21:42.23Z</time></trkpt><trkpt lat="45.6831867" lon="9.698815"><ele>248.0</ele><time>2026-04-25T13:21:43.23Z</time></trkpt><trkpt lat="45.6832017" lon="9.6987083"><ele>248.00000000000003</ele><time>2026-04-25T13:21:44.229Z</time></trkpt><trkpt lat="45.6832317" lon="9.6986117"><ele>248.0</ele><time>2026-04-25T13:21:45.228Z</time></trkpt><trkpt lat="45.6832767" lon="9.69853"><ele>248.2</ele><time>2026-04-25T13:21:46.228Z</time></trkpt><trkpt lat="45.6833333" lon="9.6984483"><ele>248.4</ele><time>2026-04-25T13:21:47.229Z</time></trkpt><trkpt lat="45.6833967" lon="9.69836"><ele>248.59999999999997</ele><time>2026-04-25T13:21:48.228Z</time></trkpt><trkpt lat="45.6834733" lon="9.6982683"><ele>248.79999999999998</ele><time>2026-04-25T13:21:49.228Z</time></trkpt><trkpt lat="45.68356" lon="9.6981733"><ele>249.0</ele><time>2026-04-25T13:21:50.228Z</time></trkpt><trkpt lat="45.683655" lon="9.6980733"><ele>249.0</ele><time>2026-04-25T13:21:51.228Z</time></trkpt><trkpt lat="45.6837533" lon="9.697965"><ele>249.0</ele><time>2026-04-25T13:21:52.228Z</time></trkpt><trkpt lat="45.6838567" lon="9.697855"><ele>249.0</ele><time>2026-04-25T13:21:53.228Z</time></trkpt><trkpt lat="45.683965" lon="9.6977383"><ele>249.0</ele><time>2026-04-25T13:21:54.228Z</time></trkpt><trkpt lat="45.6840833" lon="9.6976133"><ele>249.0</ele><time>2026-04-25T13:21:55.229Z</time></trkpt><trkpt lat="45.6842033" lon="9.697485"><ele>249.0</ele><time>2026-04-25T13:21:56.228Z</time></trkpt><trkpt lat="45.68432" lon="9.6973617"><ele>249.0</ele><time>2026-04-25T13:21:57.229Z</time></trkpt><trkpt lat="45.6844367" lon="9.6972367"><ele>249.0</ele><time>2026-04-25T13:21:58.229Z</time></trkpt><trkpt lat="45.6845567" lon="9.69711"><ele>249.0</ele><time>2026-04-25T13:21:59.228Z</time></trkpt><trkpt lat="45.6846817" lon="9.6969783"><ele>249.0</ele><time>2026-04-25T13:22:00.229Z</time></trkpt><trkpt lat="45.68481" lon="9.696845"><ele>249.0</ele><time>2026-04-25T13:22:01.229Z</time></trkpt><trkpt lat="45.6849367" lon="9.69671"><ele>249.33333333333331</ele><time>2026-04-25T13:22:02.229Z</time></trkpt><trkpt lat="45.6850667" lon="9.6965733"><ele>249.66666666666666</ele><time>2026-04-25T13:22:03.23Z</time></trkpt><trkpt lat="45.685195" lon="9.6964367"><ele>250.0</ele><time>2026-04-25T13:22:04.228Z</time></trkpt><trkpt lat="45.6853217" lon="9.6963017"><ele>250.0</ele><time>2026-04-25T13:22:05.228Z</time></trkpt><trkpt lat="45.6854433" lon="9.6961683"><ele>250.0</ele><time>2026-04-25T13:22:06.228Z</time></trkpt><trkpt lat="45.6855617" lon="9.6960383"><ele>250.0</ele><time>2026-04-25T13:22:07.231Z</time></trkpt><trkpt lat="45.6856767" lon="9.6959133"><ele>250.0</ele><time>2026-04-25T13:22:08.229Z</time></trkpt><trkpt lat="45.6857867" lon="9.6957933"><ele>249.75</ele><time>2026-04-25T13:22:09.229Z</time></trkpt><trkpt lat="45.6858983" lon="9.6956733"><ele>249.5</ele><time>2026-04-25T13:22:10.229Z</time></trkpt><trkpt lat="45.6860017" lon="9.6955517"><ele>249.25</ele><time>2026-04-25T13:22:11.228Z</time></trkpt><trkpt lat="45.686105" lon="9.6954233"><ele>249.0</ele><time>2026-04-25T13:22:12.229Z</time></trkpt><trkpt lat="45.6861983" lon="9.69529"><ele>249.66666666666669</ele><time>2026-04-25T13:22:13.228Z</time></trkpt><trkpt lat="45.6862917" lon="9.69515"><ele>250.33333333333334</ele><time>2026-04-25T13:22:14.23Z</time></trkpt><trkpt lat="45.6863783" lon="9.6950083"><ele>251.0</ele><time>2026-04-25T13:22:15.229Z</time></trkpt><trkpt lat="45.68653" lon="9.69473"><ele>251.0</ele><time>2026-04-25T13:22:17.228Z</time></trkpt><trkpt lat="45.68659" lon="9.6946017"><ele>251.00000000000003</ele><time>2026-04-25T13:22:18.228Z</time></trkpt><trkpt lat="45.6866433" lon="9.6944783"><ele>251.00000000000003</ele><time>2026-04-25T13:22:19.228Z</time></trkpt><trkpt lat="45.6866967" lon="9.6943567"><ele>251.0</ele><time>2026-04-25T13:22:20.229Z</time></trkpt><trkpt lat="45.68675" lon="9.694235"><ele>251.0</ele><time>2026-04-25T13:22:21.231Z</time></trkpt><trkpt lat="45.6868" lon="9.6941167"><ele>251.00000000000003</ele><time>2026-04-25T13:22:22.229Z</time></trkpt><trkpt lat="45.68685" lon="9.6940033"><ele>251.0</ele><time>2026-04-25T13:22:23.228Z</time></trkpt><trkpt lat="45.6868983" lon="9.693895"><ele>251.0</ele><time>2026-04-25T13:22:24.231Z</time></trkpt><trkpt lat="45.6869433" lon="9.693795"><ele>251.0</ele><time>2026-04-25T13:22:25.228Z</time></trkpt><trkpt lat="45.6869817" lon="9.6937067"><ele>251.00000000000003</ele><time>2026-04-25T13:22:26.23Z</time></trkpt><trkpt lat="45.687015" lon="9.6936283"><ele>251.0</ele><time>2026-04-25T13:22:27.23Z</time></trkpt><trkpt lat="45.687065" lon="9.6935017"><ele>251.33333333333334</ele><time>2026-04-25T13:22:29.23Z</time></trkpt><trkpt lat="45.6871167" lon="9.6934"><ele>251.66666666666669</ele><time>2026-04-25T13:22:31.229Z</time></trkpt><trkpt lat="45.6871833" lon="9.6933417"><ele>252.0</ele><time>2026-04-25T13:22:33.229Z</time></trkpt><trkpt lat="45.6872783" lon="9.6933617"><ele>252.33333333333331</ele><time>2026-04-25T13:22:35.229Z</time></trkpt><trkpt lat="45.6873467" lon="9.693465"><ele>252.66666666666666</ele><time>2026-04-25T13:22:37.228Z</time></trkpt><trkpt lat="45.6873883" lon="9.693535"><ele>253.0</ele><time>2026-04-25T13:22:38.228Z</time></trkpt><trkpt lat="45.6874367" lon="9.6936033"><ele>253.0</ele><time>2026-04-25T13:22:39.23Z</time></trkpt><trkpt lat="45.6875333" lon="9.693665"><ele>253.0</ele><time>2026-04-25T13:22:41.228Z</time></trkpt><trkpt lat="45.6876217" lon="9.69355"><ele>253.0</ele><time>2026-04-25T13:22:43.236Z</time></trkpt><trkpt lat="45.687665" lon="9.6934583"><ele>253.0</ele><time>2026-04-25T13:22:44.228Z</time></trkpt><trkpt lat="45.6877183" lon="9.69335"><ele>253.0</ele><time>2026-04-25T13:22:45.23Z</time></trkpt><trkpt lat="45.6877833" lon="9.6932317"><ele>253.0</ele><time>2026-04-25T13:22:46.229Z</time></trkpt><trkpt lat="45.6878567" lon="9.693105"><ele>253.0</ele><time>2026-04-25T13:22:47.23Z</time></trkpt><trkpt lat="45.6879367" lon="9.6929867"><ele>253.0</ele><time>2026-04-25T13:22:48.229Z</time></trkpt><trkpt lat="45.68801" lon="9.69287"><ele>253.0</ele><time>2026-04-25T13:22:49.23Z</time></trkpt><trkpt lat="45.68808" lon="9.6927633"><ele>253.0</ele><time>2026-04-25T13:22:50.228Z</time></trkpt><trkpt lat="45.688155" lon="9.6926717"><ele>253.0</ele><time>2026-04-25T13:22:51.231Z</time></trkpt><trkpt lat="45.688225" lon="9.6925783"><ele>253.0</ele><time>2026-04-25T13:22:52.229Z</time></trkpt><trkpt lat="45.6882967" lon="9.6924833"><ele>253.0</ele><time>2026-04-25T13:22:53.228Z</time></trkpt><trkpt lat="45.6883633" lon="9.69238"><ele>253.0</ele><time>2026-04-25T13:22:54.229Z</time></trkpt><trkpt lat="45.6884367" lon="9.692265"><ele>253.0</ele><time>2026-04-25T13:22:55.229Z</time></trkpt><trkpt lat="45.688515" lon="9.6921517"><ele>253.0</ele><time>2026-04-25T13:22:56.227Z</time></trkpt><trkpt lat="45.6885917" lon="9.6920233"><ele>253.0</ele><time>2026-04-25T13:22:57.229Z</time></trkpt><trkpt lat="45.6886767" lon="9.6919017"><ele>253.0</ele><time>2026-04-25T13:22:58.229Z</time></trkpt><trkpt lat="45.6887617" lon="9.691775"><ele>253.0</ele><time>2026-04-25T13:22:59.228Z</time></trkpt><trkpt lat="45.68885" lon="9.691645"><ele>252.75</ele><time>2026-04-25T13:23:00.229Z</time></trkpt><trkpt lat="45.6889367" lon="9.6915133"><ele>252.5</ele><time>2026-04-25T13:23:01.228Z</time></trkpt><trkpt lat="45.6890283" lon="9.6913833"><ele>252.25</ele><time>2026-04-25T13:23:02.228Z</time></trkpt><trkpt lat="45.6891067" lon="9.6912433"><ele>252.0</ele><time>2026-04-25T13:23:03.229Z</time></trkpt><trkpt lat="45.68918" lon="9.6911167"><ele>252.0</ele><time>2026-04-25T13:23:04.228Z</time></trkpt><trkpt lat="45.6892583" lon="9.690995"><ele>252.0</ele><time>2026-04-25T13:23:05.229Z</time></trkpt><trkpt lat="45.6893383" lon="9.6908717"><ele>252.0</ele><time>2026-04-25T13:23:06.229Z</time></trkpt><trkpt lat="45.6894167" lon="9.6907483"><ele>252.0</ele><time>2026-04-25T13:23:07.229Z</time></trkpt><trkpt lat="45.6894883" lon="9.6906333"><ele>252.0</ele><time>2026-04-25T13:23:08.228Z</time></trkpt><trkpt lat="45.6895583" lon="9.6905233"><ele>252.0</ele><time>2026-04-25T13:23:09.228Z</time></trkpt><trkpt lat="45.689625" lon="9.69042"><ele>252.0</ele><time>2026-04-25T13:23:10.228Z</time></trkpt><trkpt lat="45.689685" lon="9.6903217"><ele>252.0</ele><time>2026-04-25T13:23:11.228Z</time></trkpt><trkpt lat="45.6897467" lon="9.69023"><ele>252.0</ele><time>2026-04-25T13:23:12.228Z</time></trkpt><trkpt lat="45.6898117" lon="9.6901383"><ele>252.0</ele><time>2026-04-25T13:23:13.229Z</time></trkpt><trkpt lat="45.689875" lon="9.6900383"><ele>252.0</ele><time>2026-04-25T13:23:14.227Z</time></trkpt><trkpt lat="45.6899367" lon="9.689935"><ele>252.0</ele><time>2026-04-25T13:23:15.229Z</time></trkpt><trkpt lat="45.6900033" lon="9.6898383"><ele>252.0</ele><time>2026-04-25T13:23:16.228Z</time></trkpt><trkpt lat="45.6900617" lon="9.6897433"><ele>252.0</ele><time>2026-04-25T13:23:17.228Z</time></trkpt><trkpt lat="45.6901133" lon="9.6896533"><ele>252.0</ele><time>2026-04-25T13:23:18.229Z</time></trkpt><trkpt lat="45.6901633" lon="9.689565"><ele>252.0</ele><time>2026-04-25T13:23:19.229Z</time></trkpt><trkpt lat="45.69021" lon="9.6894783"><ele>252.0</ele><time>2026-04-25T13:23:20.228Z</time></trkpt><trkpt lat="45.690245" lon="9.6893833"><ele>252.0</ele><time>2026-04-25T13:23:21.228Z</time></trkpt><trkpt lat="45.690265" lon="9.6892733"><ele>252.0</ele><time>2026-04-25T13:23:22.229Z</time></trkpt><trkpt lat="45.6903" lon="9.6891533"><ele>252.0</ele><time>2026-04-25T13:23:23.228Z</time></trkpt><trkpt lat="45.6903433" lon="9.6890217"><ele>252.6</ele><time>2026-04-25T13:23:24.228Z</time></trkpt><trkpt lat="45.6903917" lon="9.6888883"><ele>253.2</ele><time>2026-04-25T13:23:25.229Z</time></trkpt><trkpt lat="45.690435" lon="9.6887583"><ele>253.8</ele><time>2026-04-25T13:23:26.228Z</time></trkpt><trkpt lat="45.6904783" lon="9.688635"><ele>254.4</ele><time>2026-04-25T13:23:27.229Z</time></trkpt><trkpt lat="45.6905167" lon="9.68853"><ele>255.0</ele><time>2026-04-25T13:23:28.229Z</time></trkpt><trkpt lat="45.6905517" lon="9.6884333"><ele>255.0</ele><time>2026-04-25T13:23:29.228Z</time></trkpt><trkpt lat="45.6905817" lon="9.68835"><ele>255.0</ele><time>2026-04-25T13:23:30.229Z</time></trkpt><trkpt lat="45.6906133" lon="9.6882283"><ele>255.0</ele><time>2026-04-25T13:23:32.229Z</time></trkpt><trkpt lat="45.6906467" lon="9.6881117"><ele>255.0</ele><time>2026-04-25T13:23:34.229Z</time></trkpt><trkpt lat="45.69069" lon="9.6879833"><ele>255.0</ele><time>2026-04-25T13:23:36.229Z</time></trkpt><trkpt lat="45.69073" lon="9.68789"><ele>255.0</ele><time>2026-04-25T13:23:39.229Z</time></trkpt><trkpt lat="45.6907767" lon="9.6878183"><ele>254.75</ele><time>2026-04-25T13:23:54.229Z</time></trkpt><trkpt lat="45.69084" lon="9.6876317"><ele>254.5</ele><time>2026-04-25T13:23:56.231Z</time></trkpt><trkpt lat="45.6908617" lon="9.6875033"><ele>254.25</ele><time>2026-04-25T13:23:57.229Z</time></trkpt><trkpt lat="45.6908717" lon="9.6873567"><ele>254.0</ele><time>2026-04-25T13:23:58.228Z</time></trkpt><trkpt lat="45.6908817" lon="9.6871883"><ele>254.0</ele><time>2026-04-25T13:23:59.229Z</time></trkpt><trkpt lat="45.6908883" lon="9.6870033"><ele>254.0</ele><time>2026-04-25T13:24:00.228Z</time></trkpt><trkpt lat="45.6908933" lon="9.68681"><ele>254.0</ele><time>2026-04-25T13:24:01.229Z</time></trkpt><trkpt lat="45.6908967" lon="9.6866083"><ele>254.0</ele><time>2026-04-25T13:24:02.228Z</time></trkpt><trkpt lat="45.6908967" lon="9.6863967"><ele>253.66666666666669</ele><time>2026-04-25T13:24:03.23Z</time></trkpt><trkpt lat="45.6908917" lon="9.6861733"><ele>253.33333333333331</ele><time>2026-04-25T13:24:04.228Z</time></trkpt><trkpt lat="45.690885" lon="9.6859467"><ele>253.0</ele><time>2026-04-25T13:24:05.228Z</time></trkpt><trkpt lat="45.69087" lon="9.6857183"><ele>253.0</ele><time>2026-04-25T13:24:06.231Z</time></trkpt><trkpt lat="45.6908533" lon="9.6854833"><ele>253.0</ele><time>2026-04-25T13:24:07.23Z</time></trkpt><trkpt lat="45.690835" lon="9.685245"><ele>253.0</ele><time>2026-04-25T13:24:08.23Z</time></trkpt><trkpt lat="45.69082" lon="9.684995"><ele>252.33333333333331</ele><time>2026-04-25T13:24:09.229Z</time></trkpt><trkpt lat="45.6908033" lon="9.6847383"><ele>251.66666666666669</ele><time>2026-04-25T13:24:10.229Z</time></trkpt><trkpt lat="45.6907883" lon="9.68448"><ele>251.0</ele><time>2026-04-25T13:24:11.229Z</time></trkpt><trkpt lat="45.6907667" lon="9.6842217"><ele>250.66666666666669</ele><time>2026-04-25T13:24:12.229Z</time></trkpt><trkpt lat="45.6907467" lon="9.6839633"><ele>250.33333333333331</ele><time>2026-04-25T13:24:13.229Z</time></trkpt><trkpt lat="45.6907283" lon="9.6837067"><ele>250.0</ele><time>2026-04-25T13:24:14.228Z</time></trkpt><trkpt lat="45.6907133" lon="9.6834433"><ele>250.0</ele><time>2026-04-25T13:24:15.23Z</time></trkpt><trkpt lat="45.690695" lon="9.6831767"><ele>250.0</ele><time>2026-04-25T13:24:16.229Z</time></trkpt><trkpt lat="45.690675" lon="9.6829067"><ele>250.0</ele><time>2026-04-25T13:24:17.227Z</time></trkpt><trkpt lat="45.6906583" lon="9.68263"><ele>249.33333333333331</ele><time>2026-04-25T13:24:18.228Z</time></trkpt><trkpt lat="45.69064" lon="9.6823533"><ele>248.66666666666669</ele><time>2026-04-25T13:24:19.229Z</time></trkpt><trkpt lat="45.69061" lon="9.6820817"><ele>248.0</ele><time>2026-04-25T13:24:20.231Z</time></trkpt><trkpt lat="45.6905667" lon="9.6818183"><ele>247.66666666666669</ele><time>2026-04-25T13:24:21.23Z</time></trkpt><trkpt lat="45.6905117" lon="9.68157"><ele>247.33333333333331</ele><time>2026-04-25T13:24:22.229Z</time></trkpt><trkpt lat="45.690445" lon="9.681335"><ele>247.0</ele><time>2026-04-25T13:24:23.229Z</time></trkpt><trkpt lat="45.6903617" lon="9.68111"><ele>247.33333333333331</ele><time>2026-04-25T13:24:24.23Z</time></trkpt><trkpt lat="45.69027" lon="9.680895"><ele>247.66666666666669</ele><time>2026-04-25T13:24:25.229Z</time></trkpt><trkpt lat="45.69016" lon="9.6806817"><ele>248.0</ele><time>2026-04-25T13:24:26.228Z</time></trkpt><trkpt lat="45.690045" lon="9.6804733"><ele>248.33333333333334</ele><time>2026-04-25T13:24:27.229Z</time></trkpt><trkpt lat="45.6899267" lon="9.6802683"><ele>248.66666666666669</ele><time>2026-04-25T13:24:28.228Z</time></trkpt><trkpt lat="45.6898067" lon="9.68007"><ele>249.0</ele><time>2026-04-25T13:24:29.23Z</time></trkpt><trkpt lat="45.6896883" lon="9.679875"><ele>249.0</ele><time>2026-04-25T13:24:30.229Z</time></trkpt><trkpt lat="45.6895717" lon="9.679685"><ele>249.0</ele><time>2026-04-25T13:24:31.228Z</time></trkpt><trkpt lat="45.6894617" lon="9.6795033"><ele>249.0</ele><time>2026-04-25T13:24:32.229Z</time></trkpt><trkpt lat="45.689355" lon="9.67933"><ele>249.0</ele><time>2026-04-25T13:24:33.229Z</time></trkpt><trkpt lat="45.689255" lon="9.6791667"><ele>249.0</ele><time>2026-04-25T13:24:34.237Z</time></trkpt><trkpt lat="45.6891617" lon="9.679005"><ele>249.0</ele><time>2026-04-25T13:24:35.229Z</time></trkpt><trkpt lat="45.68907" lon="9.67885"><ele>249.0</ele><time>2026-04-25T13:24:36.23Z</time></trkpt><trkpt lat="45.6889833" lon="9.6787067"><ele>248.25</ele><time>2026-04-25T13:24:37.229Z</time></trkpt><trkpt lat="45.6889067" lon="9.6785633"><ele>247.5</ele><time>2026-04-25T13:24:38.229Z</time></trkpt><trkpt lat="45.6888367" lon="9.67842"><ele>246.75</ele><time>2026-04-25T13:24:39.228Z</time></trkpt><trkpt lat="45.688765" lon="9.6782633"><ele>246.0</ele><time>2026-04-25T13:24:40.229Z</time></trkpt><trkpt lat="45.6886967" lon="9.6781033"><ele>246.0</ele><time>2026-04-25T13:24:41.229Z</time></trkpt><trkpt lat="45.6886233" lon="9.6779383"><ele>246.0</ele><time>2026-04-25T13:24:42.229Z</time></trkpt><trkpt lat="45.6885467" lon="9.6777683"><ele>246.0</ele><time>2026-04-25T13:24:43.228Z</time></trkpt><trkpt lat="45.6884733" lon="9.6775933"><ele>246.0</ele><time>2026-04-25T13:24:44.229Z</time></trkpt><trkpt lat="45.6883983" lon="9.67741"><ele>246.0</ele><time>2026-04-25T13:24:45.229Z</time></trkpt><trkpt lat="45.6883217" lon="9.677225"><ele>246.0</ele><time>2026-04-25T13:24:46.228Z</time></trkpt><trkpt lat="45.6882483" lon="9.6770433"><ele>246.0</ele><time>2026-04-25T13:24:47.23Z</time></trkpt><trkpt lat="45.6881733" lon="9.6768583"><ele>246.0</ele><time>2026-04-25T13:24:48.23Z</time></trkpt><trkpt lat="45.6881" lon="9.6766633"><ele>246.0</ele><time>2026-04-25T13:24:49.227Z</time></trkpt><trkpt lat="45.6880317" lon="9.6764667"><ele>246.0</ele><time>2026-04-25T13:24:50.229Z</time></trkpt><trkpt lat="45.68797" lon="9.6762683"><ele>246.0</ele><time>2026-04-25T13:24:51.232Z</time></trkpt><trkpt lat="45.68792" lon="9.6760667"><ele>246.0</ele><time>2026-04-25T13:24:52.229Z</time></trkpt><trkpt lat="45.68788" lon="9.67586"><ele>246.0</ele><time>2026-04-25T13:24:53.229Z</time></trkpt><trkpt lat="45.6878517" lon="9.67565"><ele>246.0</ele><time>2026-04-25T13:24:54.229Z</time></trkpt><trkpt lat="45.6878367" lon="9.6754367"><ele>246.0</ele><time>2026-04-25T13:24:55.229Z</time></trkpt><trkpt lat="45.68784" lon="9.67522"><ele>246.66666666666669</ele><time>2026-04-25T13:24:56.228Z</time></trkpt><trkpt lat="45.68784" lon="9.6750017"><ele>247.33333333333334</ele><time>2026-04-25T13:24:57.227Z</time></trkpt><trkpt lat="45.6878367" lon="9.6747767"><ele>248.0</ele><time>2026-04-25T13:24:58.229Z</time></trkpt><trkpt lat="45.6878317" lon="9.6745433"><ele>247.33333333333334</ele><time>2026-04-25T13:24:59.226Z</time></trkpt><trkpt lat="45.6878333" lon="9.674305"><ele>246.66666666666669</ele><time>2026-04-25T13:25:00.227Z</time></trkpt><trkpt lat="45.68783" lon="9.674065"><ele>246.0</ele><time>2026-04-25T13:25:01.228Z</time></trkpt><trkpt lat="45.6878283" lon="9.6738267"><ele>245.66666666666669</ele><time>2026-04-25T13:25:02.228Z</time></trkpt><trkpt lat="45.6878183" lon="9.6736017"><ele>245.33333333333334</ele><time>2026-04-25T13:25:03.228Z</time></trkpt><trkpt lat="45.687805" lon="9.673385"><ele>245.0</ele><time>2026-04-25T13:25:04.226Z</time></trkpt><trkpt lat="45.6877967" lon="9.6731783"><ele>245.0</ele><time>2026-04-25T13:25:05.227Z</time></trkpt><trkpt lat="45.6877883" lon="9.6729833"><ele>245.0</ele><time>2026-04-25T13:25:06.227Z</time></trkpt><trkpt lat="45.6877783" lon="9.6728017"><ele>245.0</ele><time>2026-04-25T13:25:07.227Z</time></trkpt><trkpt lat="45.68777" lon="9.6726383"><ele>245.0</ele><time>2026-04-25T13:25:08.228Z</time></trkpt><trkpt lat="45.6877633" lon="9.6725033"><ele>245.2</ele><time>2026-04-25T13:25:09.227Z</time></trkpt><trkpt lat="45.68776" lon="9.6723917"><ele>245.4</ele><time>2026-04-25T13:25:10.227Z</time></trkpt><trkpt lat="45.68775" lon="9.67224"><ele>245.60000000000002</ele><time>2026-04-25T13:25:12.229Z</time></trkpt><trkpt lat="45.6877517" lon="9.67212"><ele>245.8</ele><time>2026-04-25T13:25:24.227Z</time></trkpt><trkpt lat="45.68778" lon="9.6719367"><ele>246.0</ele><time>2026-04-25T13:25:26.227Z</time></trkpt><trkpt lat="45.687785" lon="9.671835"><ele>246.0</ele><time>2026-04-25T13:25:27.228Z</time></trkpt><trkpt lat="45.6877717" lon="9.6717433"><ele>246.0</ele><time>2026-04-25T13:25:28.228Z</time></trkpt><trkpt lat="45.6877367" lon="9.671655"><ele>246.0</ele><time>2026-04-25T13:25:29.227Z</time></trkpt><trkpt lat="45.68769" lon="9.6715633"><ele>246.0</ele><time>2026-04-25T13:25:30.228Z</time></trkpt><trkpt lat="45.687635" lon="9.6714517"><ele>246.0</ele><time>2026-04-25T13:25:31.227Z</time></trkpt><trkpt lat="45.6875783" lon="9.6713233"><ele>246.0</ele><time>2026-04-25T13:25:32.228Z</time></trkpt><trkpt lat="45.6875117" lon="9.671195"><ele>245.25</ele><time>2026-04-25T13:25:33.228Z</time></trkpt><trkpt lat="45.6874367" lon="9.67107"><ele>244.5</ele><time>2026-04-25T13:25:34.228Z</time></trkpt><trkpt lat="45.68736" lon="9.670945"><ele>243.75</ele><time>2026-04-25T13:25:35.228Z</time></trkpt><trkpt lat="45.68727" lon="9.67082"><ele>243.0</ele><time>2026-04-25T13:25:36.23Z</time></trkpt><trkpt lat="45.68718" lon="9.670685"><ele>243.0</ele><time>2026-04-25T13:25:37.228Z</time></trkpt><trkpt lat="45.6870817" lon="9.67054"><ele>243.0</ele><time>2026-04-25T13:25:38.228Z</time></trkpt><trkpt lat="45.6869867" lon="9.670395"><ele>243.0</ele><time>2026-04-25T13:25:39.228Z</time></trkpt><trkpt lat="45.6868967" lon="9.6702583"><ele>243.0</ele><time>2026-04-25T13:25:40.227Z</time></trkpt><trkpt lat="45.6868117" lon="9.6701333"><ele>242.60000000000002</ele><time>2026-04-25T13:25:41.229Z</time></trkpt><trkpt lat="45.6867317" lon="9.670015"><ele>242.20000000000002</ele><time>2026-04-25T13:25:42.227Z</time></trkpt><trkpt lat="45.6866533" lon="9.6699117"><ele>241.8</ele><time>2026-04-25T13:25:43.228Z</time></trkpt><trkpt lat="45.68658" lon="9.6697967"><ele>241.4</ele><time>2026-04-25T13:25:44.228Z</time></trkpt><trkpt lat="45.6865117" lon="9.6696717"><ele>241.0</ele><time>2026-04-25T13:25:45.229Z</time></trkpt><trkpt lat="45.68645" lon="9.6695467"><ele>241.16666666666666</ele><time>2026-04-25T13:25:46.228Z</time></trkpt><trkpt lat="45.6863967" lon="9.6694333"><ele>241.33333333333331</ele><time>2026-04-25T13:25:47.232Z</time></trkpt><trkpt lat="45.686345" lon="9.6693267"><ele>241.5</ele><time>2026-04-25T13:25:48.228Z</time></trkpt><trkpt lat="45.686295" lon="9.6692233"><ele>241.66666666666669</ele><time>2026-04-25T13:25:49.227Z</time></trkpt><trkpt lat="45.68625" lon="9.6691183"><ele>241.83333333333334</ele><time>2026-04-25T13:25:50.228Z</time></trkpt><trkpt lat="45.6862217" lon="9.6690083"><ele>242.0</ele><time>2026-04-25T13:25:51.227Z</time></trkpt><trkpt lat="45.6862033" lon="9.6688967"><ele>242.00000000000003</ele><time>2026-04-25T13:25:52.228Z</time></trkpt><trkpt lat="45.6862083" lon="9.6687867"><ele>242.0</ele><time>2026-04-25T13:25:53.229Z</time></trkpt><trkpt lat="45.6862417" lon="9.6687017"><ele>242.0</ele><time>2026-04-25T13:25:54.228Z</time></trkpt><trkpt lat="45.6862917" lon="9.668625"><ele>242.0</ele><time>2026-04-25T13:25:55.229Z</time></trkpt><trkpt lat="45.68636" lon="9.6685683"><ele>242.00000000000003</ele><time>2026-04-25T13:25:56.228Z</time></trkpt><trkpt lat="45.6864433" lon="9.66851"><ele>242.0</ele><time>2026-04-25T13:25:57.228Z</time></trkpt><trkpt lat="45.6865467" lon="9.66844"><ele>242.0</ele><time>2026-04-25T13:25:58.227Z</time></trkpt><trkpt lat="45.68666" lon="9.6683567"><ele>242.0</ele><time>2026-04-25T13:25:59.228Z</time></trkpt><trkpt lat="45.6867833" lon="9.668265"><ele>242.0</ele><time>2026-04-25T13:26:00.227Z</time></trkpt><trkpt lat="45.686915" lon="9.6681667"><ele>242.0</ele><time>2026-04-25T13:26:01.227Z</time></trkpt><trkpt lat="45.6870417" lon="9.66807"><ele>241.75</ele><time>2026-04-25T13:26:02.227Z</time></trkpt><trkpt lat="45.68716" lon="9.66798"><ele>241.5</ele><time>2026-04-25T13:26:03.229Z</time></trkpt><trkpt lat="45.6872717" lon="9.6679083"><ele>241.25</ele><time>2026-04-25T13:26:04.228Z</time></trkpt><trkpt lat="45.6873683" lon="9.6678383"><ele>241.0</ele><time>2026-04-25T13:26:05.227Z</time></trkpt><trkpt lat="45.68745" lon="9.66778"><ele>240.99999999999997</ele><time>2026-04-25T13:26:06.228Z</time></trkpt><trkpt lat="45.6875217" lon="9.6677333"><ele>241.0</ele><time>2026-04-25T13:26:07.228Z</time></trkpt><trkpt lat="45.6876133" lon="9.66768"><ele>241.0</ele><time>2026-04-25T13:26:09.227Z</time></trkpt><trkpt lat="45.6876783" lon="9.667645"><ele>241.0</ele><time>2026-04-25T13:26:12.228Z</time></trkpt><trkpt lat="45.6877333" lon="9.66754"><ele>240.99999999999997</ele><time>2026-04-25T13:27:12.23Z</time></trkpt><trkpt lat="45.6877583" lon="9.6674133"><ele>241.0</ele><time>2026-04-25T13:27:13.229Z</time></trkpt><trkpt lat="45.6877767" lon="9.66728"><ele>240.99999999999997</ele><time>2026-04-25T13:27:14.228Z</time></trkpt><trkpt lat="45.6877767" lon="9.6671567"><ele>241.0</ele><time>2026-04-25T13:27:15.23Z</time></trkpt><trkpt lat="45.68775" lon="9.6670333"><ele>241.0</ele><time>2026-04-25T13:27:16.227Z</time></trkpt><trkpt lat="45.687715" lon="9.6669133"><ele>241.0</ele><time>2026-04-25T13:27:17.228Z</time></trkpt><trkpt lat="45.6876817" lon="9.666805"><ele>240.99999999999997</ele><time>2026-04-25T13:27:18.228Z</time></trkpt><trkpt lat="45.687655" lon="9.6667133"><ele>241.0</ele><time>2026-04-25T13:27:19.227Z</time></trkpt><trkpt lat="45.6876183" lon="9.666585"><ele>241.0</ele><time>2026-04-25T13:27:21.228Z</time></trkpt><trkpt lat="45.687655" lon="9.666475"><ele>241.00000000000003</ele><time>2026-04-25T13:27:44.228Z</time></trkpt><trkpt lat="45.687605" lon="9.6662817"><ele>241.00000000000003</ele><time>2026-04-25T13:27:46.229Z</time></trkpt><trkpt lat="45.687565" lon="9.6661567"><ele>241.0</ele><time>2026-04-25T13:27:47.228Z</time></trkpt><trkpt lat="45.6875233" lon="9.66602"><ele>241.0</ele><time>2026-04-25T13:27:48.228Z</time></trkpt><trkpt lat="45.687475" lon="9.665865"><ele>241.0</ele><time>2026-04-25T13:27:49.227Z</time></trkpt><trkpt lat="45.68742" lon="9.66569"><ele>241.0</ele><time>2026-04-25T13:27:50.229Z</time></trkpt><trkpt lat="45.6873633" lon="9.6655067"><ele>241.0</ele><time>2026-04-25T13:27:51.229Z</time></trkpt><trkpt lat="45.68731" lon="9.6653217"><ele>241.0</ele><time>2026-04-25T13:27:52.227Z</time></trkpt><trkpt lat="45.68725" lon="9.6651317"><ele>241.0</ele><time>2026-04-25T13:27:53.228Z</time></trkpt><trkpt lat="45.687185" lon="9.6649267"><ele>241.0</ele><time>2026-04-25T13:27:54.229Z</time></trkpt><trkpt lat="45.6871167" lon="9.6647167"><ele>241.0</ele><time>2026-04-25T13:27:55.227Z</time></trkpt><trkpt lat="45.6870517" lon="9.6645083"><ele>241.0</ele><time>2026-04-25T13:27:56.227Z</time></trkpt><trkpt lat="45.68699" lon="9.6643133"><ele>241.0</ele><time>2026-04-25T13:27:57.228Z</time></trkpt><trkpt lat="45.686935" lon="9.6641333"><ele>241.0</ele><time>2026-04-25T13:27:58.227Z</time></trkpt><trkpt lat="45.6868883" lon="9.6639717"><ele>241.0</ele><time>2026-04-25T13:27:59.229Z</time></trkpt><trkpt lat="45.68684" lon="9.6638217"><ele>240.99999999999997</ele><time>2026-04-25T13:28:00.229Z</time></trkpt><trkpt lat="45.686795" lon="9.66368"><ele>241.0</ele><time>2026-04-25T13:28:01.227Z</time></trkpt><trkpt lat="45.6867583" lon="9.66355"><ele>241.0</ele><time>2026-04-25T13:28:02.228Z</time></trkpt><trkpt lat="45.6867317" lon="9.663435"><ele>241.0</ele><time>2026-04-25T13:28:03.229Z</time></trkpt><trkpt lat="45.686705" lon="9.6633317"><ele>240.99999999999997</ele><time>2026-04-25T13:28:04.229Z</time></trkpt><trkpt lat="45.68669" lon="9.6632367"><ele>241.0</ele><time>2026-04-25T13:28:05.229Z</time></trkpt><trkpt lat="45.6867317" lon="9.663085"><ele>240.99999999999997</ele><time>2026-04-25T13:28:07.228Z</time></trkpt><trkpt lat="45.6867767" lon="9.6629967"><ele>241.0</ele><time>2026-04-25T13:28:08.228Z</time></trkpt><trkpt lat="45.6868333" lon="9.6629017"><ele>241.0</ele><time>2026-04-25T13:28:09.23Z</time></trkpt><trkpt lat="45.68689" lon="9.6628067"><ele>241.0</ele><time>2026-04-25T13:28:10.228Z</time></trkpt><trkpt lat="45.686945" lon="9.6627167"><ele>240.99999999999997</ele><time>2026-04-25T13:28:11.228Z</time></trkpt><trkpt lat="45.6869967" lon="9.662635"><ele>241.0</ele><time>2026-04-25T13:28:12.228Z</time></trkpt><trkpt lat="45.6870383" lon="9.6625633"><ele>240.8</ele><time>2026-04-25T13:28:13.227Z</time></trkpt><trkpt lat="45.68709" lon="9.6624767"><ele>240.60000000000002</ele><time>2026-04-25T13:28:15.229Z</time></trkpt><trkpt lat="45.6871517" lon="9.6623533"><ele>240.4</ele><time>2026-04-25T13:28:37.228Z</time></trkpt><trkpt lat="45.6872017" lon="9.6622467"><ele>240.2</ele><time>2026-04-25T13:28:38.228Z</time></trkpt><trkpt lat="45.68727" lon="9.662115"><ele>240.0</ele><time>2026-04-25T13:28:39.229Z</time></trkpt><trkpt lat="45.6873433" lon="9.661965"><ele>239.5</ele><time>2026-04-25T13:28:40.228Z</time></trkpt><trkpt lat="45.6874233" lon="9.6618033"><ele>239.0</ele><time>2026-04-25T13:28:41.229Z</time></trkpt><trkpt lat="45.687505" lon="9.6616383"><ele>238.5</ele><time>2026-04-25T13:28:42.229Z</time></trkpt><trkpt lat="45.6875867" lon="9.6614667"><ele>238.0</ele><time>2026-04-25T13:28:43.228Z</time></trkpt><trkpt lat="45.6876783" lon="9.6612817"><ele>238.0</ele><time>2026-04-25T13:28:44.229Z</time></trkpt><trkpt lat="45.68776" lon="9.661115"><ele>238.0</ele><time>2026-04-25T13:28:45.228Z</time></trkpt><trkpt lat="45.6878367" lon="9.66096"><ele>238.0</ele><time>2026-04-25T13:28:46.227Z</time></trkpt><trkpt lat="45.6879133" lon="9.6608067"><ele>238.0</ele><time>2026-04-25T13:28:47.229Z</time></trkpt><trkpt lat="45.6879783" lon="9.660665"><ele>238.4</ele><time>2026-04-25T13:28:48.229Z</time></trkpt><trkpt lat="45.6880383" lon="9.66054"><ele>238.8</ele><time>2026-04-25T13:28:49.229Z</time></trkpt><trkpt lat="45.6880833" lon="9.660445"><ele>239.2</ele><time>2026-04-25T13:28:50.229Z</time></trkpt><trkpt lat="45.6881483" lon="9.66033"><ele>239.6</ele><time>2026-04-25T13:28:52.229Z</time></trkpt><trkpt lat="45.6882133" lon="9.66023"><ele>240.0</ele><time>2026-04-25T13:29:46.228Z</time></trkpt><trkpt lat="45.6882533" lon="9.6601283"><ele>240.0</ele><time>2026-04-25T13:29:47.228Z</time></trkpt><trkpt lat="45.6883067" lon="9.6600083"><ele>240.0</ele><time>2026-04-25T13:29:48.23Z</time></trkpt><trkpt lat="45.68837" lon="9.65986"><ele>240.0</ele><time>2026-04-25T13:29:49.229Z</time></trkpt><trkpt lat="45.6884417" lon="9.6596933"><ele>240.0</ele><time>2026-04-25T13:29:50.229Z</time></trkpt><trkpt lat="45.688515" lon="9.6595117"><ele>240.0</ele><time>2026-04-25T13:29:51.23Z</time></trkpt><trkpt lat="45.6885867" lon="9.6593183"><ele>240.0</ele><time>2026-04-25T13:29:52.228Z</time></trkpt><trkpt lat="45.6886583" lon="9.6591067"><ele>240.0</ele><time>2026-04-25T13:29:53.229Z</time></trkpt><trkpt lat="45.6887267" lon="9.6588867"><ele>240.0</ele><time>2026-04-25T13:29:54.231Z</time></trkpt><trkpt lat="45.6887933" lon="9.6586667"><ele>240.0</ele><time>2026-04-25T13:29:55.228Z</time></trkpt><trkpt lat="45.6888517" lon="9.6584483"><ele>240.0</ele><time>2026-04-25T13:29:56.228Z</time></trkpt><trkpt lat="45.6889067" lon="9.6582233"><ele>240.0</ele><time>2026-04-25T13:29:57.228Z</time></trkpt><trkpt lat="45.6889567" lon="9.6579983"><ele>240.0</ele><time>2026-04-25T13:29:58.228Z</time></trkpt><trkpt lat="45.6890067" lon="9.6577683"><ele>240.0</ele><time>2026-04-25T13:29:59.23Z</time></trkpt><trkpt lat="45.68905" lon="9.6575417"><ele>240.0</ele><time>2026-04-25T13:30:00.228Z</time></trkpt><trkpt lat="45.689085" lon="9.6573317"><ele>240.0</ele><time>2026-04-25T13:30:01.227Z</time></trkpt><trkpt lat="45.6891233" lon="9.6571267"><ele>240.0</ele><time>2026-04-25T13:30:02.228Z</time></trkpt><trkpt lat="45.689155" lon="9.6569417"><ele>240.0</ele><time>2026-04-25T13:30:03.229Z</time></trkpt><trkpt lat="45.689175" lon="9.6567633"><ele>239.2</ele><time>2026-04-25T13:30:04.228Z</time></trkpt><trkpt lat="45.6891917" lon="9.656595"><ele>238.4</ele><time>2026-04-25T13:30:05.23Z</time></trkpt><trkpt lat="45.6892017" lon="9.6564333"><ele>237.60000000000002</ele><time>2026-04-25T13:30:06.229Z</time></trkpt><trkpt lat="45.6892117" lon="9.656285"><ele>236.8</ele><time>2026-04-25T13:30:07.229Z</time></trkpt><trkpt lat="45.6892183" lon="9.65615"><ele>236.0</ele><time>2026-04-25T13:30:08.228Z</time></trkpt><trkpt lat="45.6892133" lon="9.6560167"><ele>235.75</ele><time>2026-04-25T13:30:09.229Z</time></trkpt><trkpt lat="45.689205" lon="9.655865"><ele>235.5</ele><time>2026-04-25T13:30:10.228Z</time></trkpt><trkpt lat="45.6891967" lon="9.6556883"><ele>235.25</ele><time>2026-04-25T13:30:11.231Z</time></trkpt><trkpt lat="45.68919" lon="9.6554917"><ele>235.0</ele><time>2026-04-25T13:30:12.228Z</time></trkpt><trkpt lat="45.6891833" lon="9.6552817"><ele>235.66666666666666</ele><time>2026-04-25T13:30:13.23Z</time></trkpt><trkpt lat="45.6891733" lon="9.6550517"><ele>236.33333333333331</ele><time>2026-04-25T13:30:14.228Z</time></trkpt><trkpt lat="45.6891717" lon="9.6548183"><ele>237.0</ele><time>2026-04-25T13:30:15.229Z</time></trkpt><trkpt lat="45.6891683" lon="9.65458"><ele>237.0</ele><time>2026-04-25T13:30:16.228Z</time></trkpt><trkpt lat="45.689165" lon="9.65433"><ele>237.0</ele><time>2026-04-25T13:30:17.228Z</time></trkpt><trkpt lat="45.6891617" lon="9.6540667"><ele>237.0</ele><time>2026-04-25T13:30:18.228Z</time></trkpt><trkpt lat="45.689165" lon="9.6537967"><ele>236.33333333333331</ele><time>2026-04-25T13:30:19.228Z</time></trkpt><trkpt lat="45.6891633" lon="9.65353"><ele>235.66666666666666</ele><time>2026-04-25T13:30:20.229Z</time></trkpt><trkpt lat="45.6891617" lon="9.653265"><ele>235.0</ele><time>2026-04-25T13:30:21.228Z</time></trkpt><trkpt lat="45.6891617" lon="9.653005"><ele>235.0</ele><time>2026-04-25T13:30:22.23Z</time></trkpt><trkpt lat="45.6891633" lon="9.6527417"><ele>235.0</ele><time>2026-04-25T13:30:23.227Z</time></trkpt><trkpt lat="45.6891667" lon="9.652475"><ele>235.0</ele><time>2026-04-25T13:30:24.228Z</time></trkpt><trkpt lat="45.68917" lon="9.6522017"><ele>234.33333333333331</ele><time>2026-04-25T13:30:25.229Z</time></trkpt><trkpt lat="45.68917" lon="9.65192"><ele>233.66666666666669</ele><time>2026-04-25T13:30:26.229Z</time></trkpt><trkpt lat="45.6891683" lon="9.65163"><ele>233.0</ele><time>2026-04-25T13:30:27.229Z</time></trkpt><trkpt lat="45.6891717" lon="9.6513383"><ele>232.33333333333334</ele><time>2026-04-25T13:30:28.228Z</time></trkpt><trkpt lat="45.6891717" lon="9.6510383"><ele>231.66666666666669</ele><time>2026-04-25T13:30:29.229Z</time></trkpt><trkpt lat="45.6891733" lon="9.6507333"><ele>231.0</ele><time>2026-04-25T13:30:30.229Z</time></trkpt><trkpt lat="45.6891767" lon="9.6504283"><ele>230.0</ele><time>2026-04-25T13:30:31.228Z</time></trkpt><trkpt lat="45.68918" lon="9.6501233"><ele>229.0</ele><time>2026-04-25T13:30:32.229Z</time></trkpt><trkpt lat="45.689185" lon="9.649815"><ele>228.0</ele><time>2026-04-25T13:30:33.228Z</time></trkpt><trkpt lat="45.6891867" lon="9.64952"><ele>228.33333333333331</ele><time>2026-04-25T13:30:34.228Z</time></trkpt><trkpt lat="45.6891867" lon="9.6492367"><ele>228.66666666666666</ele><time>2026-04-25T13:30:35.229Z</time></trkpt><trkpt lat="45.6891883" lon="9.6489783"><ele>229.0</ele><time>2026-04-25T13:30:36.228Z</time></trkpt><trkpt lat="45.6891883" lon="9.64875"><ele>229.5</ele><time>2026-04-25T13:30:37.228Z</time></trkpt><trkpt lat="45.6891883" lon="9.6485467"><ele>230.0</ele><time>2026-04-25T13:30:38.228Z</time></trkpt><trkpt lat="45.6891883" lon="9.6483667"><ele>230.5</ele><time>2026-04-25T13:30:39.229Z</time></trkpt><trkpt lat="45.68919" lon="9.6482"><ele>231.0</ele><time>2026-04-25T13:30:40.228Z</time></trkpt><trkpt lat="45.6891917" lon="9.64805"><ele>231.0</ele><time>2026-04-25T13:30:41.228Z</time></trkpt><trkpt lat="45.6891933" lon="9.6479167"><ele>231.0</ele><time>2026-04-25T13:30:42.23Z</time></trkpt><trkpt lat="45.689195" lon="9.647805"><ele>231.0</ele><time>2026-04-25T13:30:43.228Z</time></trkpt><trkpt lat="45.6891917" lon="9.6477083"><ele>231.0</ele><time>2026-04-25T13:30:44.229Z</time></trkpt><trkpt lat="45.68919" lon="9.6475717"><ele>231.0</ele><time>2026-04-25T13:30:46.23Z</time></trkpt><trkpt lat="45.6891883" lon="9.64747"><ele>231.0</ele><time>2026-04-25T13:30:49.227Z</time></trkpt><trkpt lat="45.6891917" lon="9.64736"><ele>231.25</ele><time>2026-04-25T13:30:58.228Z</time></trkpt><trkpt lat="45.6891967" lon="9.64716"><ele>231.5</ele><time>2026-04-25T13:31:00.228Z</time></trkpt><trkpt lat="45.6892" lon="9.64702"><ele>231.75</ele><time>2026-04-25T13:31:01.229Z</time></trkpt><trkpt lat="45.6891983" lon="9.6468433"><ele>232.0</ele><time>2026-04-25T13:31:02.229Z</time></trkpt><trkpt lat="45.6891983" lon="9.6466567"><ele>232.0</ele><time>2026-04-25T13:31:03.229Z</time></trkpt><trkpt lat="45.6891983" lon="9.6464733"><ele>232.0</ele><time>2026-04-25T13:31:04.229Z</time></trkpt><trkpt lat="45.6891933" lon="9.6462833"><ele>232.0</ele><time>2026-04-25T13:31:05.228Z</time></trkpt><trkpt lat="45.689195" lon="9.6460933"><ele>232.0</ele><time>2026-04-25T13:31:06.231Z</time></trkpt><trkpt lat="45.689195" lon="9.6458967"><ele>231.33333333333331</ele><time>2026-04-25T13:31:07.229Z</time></trkpt><trkpt lat="45.689195" lon="9.6456883"><ele>230.66666666666669</ele><time>2026-04-25T13:31:08.229Z</time></trkpt><trkpt lat="45.6891967" lon="9.6454717"><ele>230.0</ele><time>2026-04-25T13:31:09.229Z</time></trkpt><trkpt lat="45.6891983" lon="9.6452483"><ele>230.0</ele><time>2026-04-25T13:31:10.229Z</time></trkpt><trkpt lat="45.6891983" lon="9.645015"><ele>230.0</ele><time>2026-04-25T13:31:11.229Z</time></trkpt><trkpt lat="45.689195" lon="9.6447733"><ele>230.0</ele><time>2026-04-25T13:31:12.229Z</time></trkpt><trkpt lat="45.689195" lon="9.6445267"><ele>230.33333333333334</ele><time>2026-04-25T13:31:13.23Z</time></trkpt><trkpt lat="45.6891983" lon="9.644275"><ele>230.66666666666669</ele><time>2026-04-25T13:31:14.228Z</time></trkpt><trkpt lat="45.6892033" lon="9.644015"><ele>231.0</ele><time>2026-04-25T13:31:15.229Z</time></trkpt><trkpt lat="45.6892083" lon="9.6437483"><ele>231.33333333333331</ele><time>2026-04-25T13:31:16.228Z</time></trkpt><trkpt lat="45.689215" lon="9.6434767"><ele>231.66666666666666</ele><time>2026-04-25T13:31:17.229Z</time></trkpt><trkpt lat="45.6892183" lon="9.6432017"><ele>232.0</ele><time>2026-04-25T13:31:18.23Z</time></trkpt><trkpt lat="45.6892217" lon="9.6429217"><ele>232.33333333333331</ele><time>2026-04-25T13:31:19.229Z</time></trkpt><trkpt lat="45.68922" lon="9.6426283"><ele>232.66666666666669</ele><time>2026-04-25T13:31:20.23Z</time></trkpt><trkpt lat="45.6892167" lon="9.64232"><ele>233.0</ele><time>2026-04-25T13:31:21.229Z</time></trkpt><trkpt lat="45.68922" lon="9.6420033"><ele>233.0</ele><time>2026-04-25T13:31:22.229Z</time></trkpt><trkpt lat="45.68923" lon="9.6416883"><ele>233.0</ele><time>2026-04-25T13:31:23.228Z</time></trkpt><trkpt lat="45.6892433" lon="9.6413817"><ele>233.0</ele><time>2026-04-25T13:31:24.228Z</time></trkpt><trkpt lat="45.6892533" lon="9.6410917"><ele>233.0</ele><time>2026-04-25T13:31:25.228Z</time></trkpt><trkpt lat="45.6892567" lon="9.6408167"><ele>233.0</ele><time>2026-04-25T13:31:26.231Z</time></trkpt><trkpt lat="45.6892633" lon="9.640545"><ele>233.0</ele><time>2026-04-25T13:31:27.229Z</time></trkpt><trkpt lat="45.6892733" lon="9.640275"><ele>232.33333333333334</ele><time>2026-04-25T13:31:28.23Z</time></trkpt><trkpt lat="45.689285" lon="9.6399983"><ele>231.66666666666669</ele><time>2026-04-25T13:31:29.231Z</time></trkpt><trkpt lat="45.6893033" lon="9.6397167"><ele>231.0</ele><time>2026-04-25T13:31:30.23Z</time></trkpt><trkpt lat="45.6893267" lon="9.6394317"><ele>231.0</ele><time>2026-04-25T13:31:31.229Z</time></trkpt><trkpt lat="45.6893533" lon="9.6391467"><ele>231.0</ele><time>2026-04-25T13:31:32.231Z</time></trkpt><trkpt lat="45.6893867" lon="9.63886"><ele>231.0</ele><time>2026-04-25T13:31:33.231Z</time></trkpt><trkpt lat="45.6894267" lon="9.6385683"><ele>230.66666666666669</ele><time>2026-04-25T13:31:34.23Z</time></trkpt><trkpt lat="45.6894667" lon="9.63827"><ele>230.33333333333334</ele><time>2026-04-25T13:31:35.23Z</time></trkpt><trkpt lat="45.6895067" lon="9.6379683"><ele>230.0</ele><time>2026-04-25T13:31:36.23Z</time></trkpt><trkpt lat="45.68955" lon="9.6376617"><ele>230.66666666666669</ele><time>2026-04-25T13:31:37.229Z</time></trkpt><trkpt lat="45.6895933" lon="9.6373567"><ele>231.33333333333331</ele><time>2026-04-25T13:31:38.23Z</time></trkpt><trkpt lat="45.6896367" lon="9.6370633"><ele>232.0</ele><time>2026-04-25T13:31:39.231Z</time></trkpt><trkpt lat="45.689675" lon="9.63679"><ele>232.66666666666666</ele><time>2026-04-25T13:31:40.231Z</time></trkpt><trkpt lat="45.6897117" lon="9.6365383"><ele>233.33333333333331</ele><time>2026-04-25T13:31:41.23Z</time></trkpt><trkpt lat="45.6897467" lon="9.636295"><ele>234.0</ele><time>2026-04-25T13:31:42.229Z</time></trkpt><trkpt lat="45.6897817" lon="9.6360517"><ele>235.0</ele><time>2026-04-25T13:31:43.229Z</time></trkpt><trkpt lat="45.68982" lon="9.6358083"><ele>236.0</ele><time>2026-04-25T13:31:44.231Z</time></trkpt><trkpt lat="45.689855" lon="9.635565"><ele>237.0</ele><time>2026-04-25T13:31:45.229Z</time></trkpt><trkpt lat="45.6898917" lon="9.6353233"><ele>237.33333333333331</ele><time>2026-04-25T13:31:46.229Z</time></trkpt><trkpt lat="45.689925" lon="9.63509"><ele>237.66666666666666</ele><time>2026-04-25T13:31:47.229Z</time></trkpt><trkpt lat="45.6899583" lon="9.634875"><ele>238.0</ele><time>2026-04-25T13:31:48.229Z</time></trkpt><trkpt lat="45.6899883" lon="9.634665"><ele>239.0</ele><time>2026-04-25T13:31:49.229Z</time></trkpt><trkpt lat="45.6900167" lon="9.6344533"><ele>240.0</ele><time>2026-04-25T13:31:50.228Z</time></trkpt><trkpt lat="45.6900483" lon="9.6342367"><ele>241.0</ele><time>2026-04-25T13:31:51.229Z</time></trkpt><trkpt lat="45.69008" lon="9.6340183"><ele>241.0</ele><time>2026-04-25T13:31:52.229Z</time></trkpt><trkpt lat="45.6901167" lon="9.633795"><ele>241.0</ele><time>2026-04-25T13:31:53.229Z</time></trkpt><trkpt lat="45.6901533" lon="9.6335717"><ele>241.0</ele><time>2026-04-25T13:31:54.23Z</time></trkpt><trkpt lat="45.690185" lon="9.63335"><ele>241.33333333333331</ele><time>2026-04-25T13:31:55.229Z</time></trkpt><trkpt lat="45.690215" lon="9.633125"><ele>241.66666666666669</ele><time>2026-04-25T13:31:56.229Z</time></trkpt><trkpt lat="45.69025" lon="9.632905"><ele>242.0</ele><time>2026-04-25T13:31:57.229Z</time></trkpt><trkpt lat="45.6902817" lon="9.632695"><ele>241.5</ele><time>2026-04-25T13:31:58.228Z</time></trkpt><trkpt lat="45.6903083" lon="9.63249"><ele>241.0</ele><time>2026-04-25T13:31:59.229Z</time></trkpt><trkpt lat="45.6903383" lon="9.6323017"><ele>240.5</ele><time>2026-04-25T13:32:00.228Z</time></trkpt><trkpt lat="45.6903617" lon="9.63212"><ele>240.0</ele><time>2026-04-25T13:32:01.229Z</time></trkpt><trkpt lat="45.6903833" lon="9.63194"><ele>239.6</ele><time>2026-04-25T13:32:02.229Z</time></trkpt><trkpt lat="45.6904017" lon="9.6317633"><ele>239.2</ele><time>2026-04-25T13:32:03.229Z</time></trkpt><trkpt lat="45.6904167" lon="9.6315967"><ele>238.8</ele><time>2026-04-25T13:32:04.228Z</time></trkpt><trkpt lat="45.690425" lon="9.6314433"><ele>238.4</ele><time>2026-04-25T13:32:05.229Z</time></trkpt><trkpt lat="45.69043" lon="9.6313083"><ele>238.0</ele><time>2026-04-25T13:32:06.23Z</time></trkpt><trkpt lat="45.6904317" lon="9.631195"><ele>238.16666666666666</ele><time>2026-04-25T13:32:07.23Z</time></trkpt><trkpt lat="45.690435" lon="9.6311"><ele>238.33333333333331</ele><time>2026-04-25T13:32:08.229Z</time></trkpt><trkpt lat="45.6904467" lon="9.63096"><ele>238.5</ele><time>2026-04-25T13:32:10.228Z</time></trkpt><trkpt lat="45.6904867" lon="9.6308433"><ele>238.66666666666669</ele><time>2026-04-25T13:32:12.229Z</time></trkpt><trkpt lat="45.690525" lon="9.63075"><ele>238.83333333333334</ele><time>2026-04-25T13:32:13.228Z</time></trkpt><trkpt lat="45.6905733" lon="9.63063"><ele>239.0</ele><time>2026-04-25T13:32:14.23Z</time></trkpt><trkpt lat="45.69061" lon="9.6305017"><ele>239.0</ele><time>2026-04-25T13:32:15.23Z</time></trkpt><trkpt lat="45.6906283" lon="9.6303633"><ele>238.99999999999997</ele><time>2026-04-25T13:32:16.228Z</time></trkpt><trkpt lat="45.69063" lon="9.63022"><ele>238.99999999999997</ele><time>2026-04-25T13:32:17.228Z</time></trkpt><trkpt lat="45.69062" lon="9.630065"><ele>239.0</ele><time>2026-04-25T13:32:18.23Z</time></trkpt><trkpt lat="45.6906167" lon="9.6299083"><ele>239.0</ele><time>2026-04-25T13:32:19.228Z</time></trkpt><trkpt lat="45.6906367" lon="9.6297483"><ele>238.5</ele><time>2026-04-25T13:32:20.229Z</time></trkpt><trkpt lat="45.6906817" lon="9.629585"><ele>238.0</ele><time>2026-04-25T13:32:21.228Z</time></trkpt><trkpt lat="45.6907283" lon="9.62942"><ele>237.5</ele><time>2026-04-25T13:32:22.229Z</time></trkpt><trkpt lat="45.6907667" lon="9.629265"><ele>237.0</ele><time>2026-04-25T13:32:23.229Z</time></trkpt><trkpt lat="45.6907967" lon="9.6291217"><ele>236.6</ele><time>2026-04-25T13:32:24.228Z</time></trkpt><trkpt lat="45.6908417" lon="9.6288683"><ele>236.2</ele><time>2026-04-25T13:32:26.228Z</time></trkpt><trkpt lat="45.6908583" lon="9.62875"><ele>235.8</ele><time>2026-04-25T13:32:27.229Z</time></trkpt><trkpt lat="45.690875" lon="9.62863"><ele>235.4</ele><time>2026-04-25T13:32:28.229Z</time></trkpt><trkpt lat="45.690895" lon="9.6285017"><ele>235.0</ele><time>2026-04-25T13:32:29.228Z</time></trkpt><trkpt lat="45.690915" lon="9.6283633"><ele>234.8</ele><time>2026-04-25T13:32:30.229Z</time></trkpt><trkpt lat="45.690935" lon="9.62822"><ele>234.6</ele><time>2026-04-25T13:32:31.229Z</time></trkpt><trkpt lat="45.6909567" lon="9.62807"><ele>234.39999999999998</ele><time>2026-04-25T13:32:32.229Z</time></trkpt><trkpt lat="45.6909783" lon="9.6279167"><ele>234.2</ele><time>2026-04-25T13:32:33.229Z</time></trkpt><trkpt lat="45.6910017" lon="9.62776"><ele>234.0</ele><time>2026-04-25T13:32:34.229Z</time></trkpt><trkpt lat="45.6910267" lon="9.62761"><ele>233.79999999999998</ele><time>2026-04-25T13:32:35.228Z</time></trkpt><trkpt lat="45.69105" lon="9.62747"><ele>233.59999999999997</ele><time>2026-04-25T13:32:36.23Z</time></trkpt><trkpt lat="45.6910717" lon="9.6273383"><ele>233.4</ele><time>2026-04-25T13:32:37.228Z</time></trkpt><trkpt lat="45.69109" lon="9.6272117"><ele>233.2</ele><time>2026-04-25T13:32:38.228Z</time></trkpt><trkpt lat="45.69111" lon="9.6270867"><ele>233.0</ele><time>2026-04-25T13:32:39.23Z</time></trkpt><trkpt lat="45.69113" lon="9.6269617"><ele>233.4</ele><time>2026-04-25T13:32:40.228Z</time></trkpt><trkpt lat="45.6911483" lon="9.6268333"><ele>233.8</ele><time>2026-04-25T13:32:41.228Z</time></trkpt><trkpt lat="45.6911683" lon="9.6267033"><ele>234.2</ele><time>2026-04-25T13:32:42.231Z</time></trkpt><trkpt lat="45.69119" lon="9.6265733"><ele>234.6</ele><time>2026-04-25T13:32:43.229Z</time></trkpt><trkpt lat="45.6912117" lon="9.6264433"><ele>235.0</ele><time>2026-04-25T13:32:44.23Z</time></trkpt><trkpt lat="45.6912317" lon="9.626315"><ele>234.99999999999997</ele><time>2026-04-25T13:32:45.23Z</time></trkpt><trkpt lat="45.6912533" lon="9.626185"><ele>235.0</ele><time>2026-04-25T13:32:46.229Z</time></trkpt><trkpt lat="45.6912717" lon="9.6260583"><ele>235.0</ele><time>2026-04-25T13:32:47.228Z</time></trkpt><trkpt lat="45.6912883" lon="9.62594"><ele>235.0</ele><time>2026-04-25T13:32:48.23Z</time></trkpt><trkpt lat="45.6913017" lon="9.625845"><ele>234.99999999999997</ele><time>2026-04-25T13:32:49.229Z</time></trkpt><trkpt lat="45.691315" lon="9.6257433"><ele>235.0</ele><time>2026-04-25T13:32:51.23Z</time></trkpt><trkpt lat="45.6913317" lon="9.625625"><ele>234.99999999999997</ele><time>2026-04-25T13:32:58.228Z</time></trkpt><trkpt lat="45.6913533" lon="9.625495"><ele>235.0</ele><time>2026-04-25T13:33:00.228Z</time></trkpt><trkpt lat="45.69138" lon="9.62532"><ele>235.0</ele><time>2026-04-25T13:33:02.229Z</time></trkpt><trkpt lat="45.6913983" lon="9.625215"><ele>235.0</ele><time>2026-04-25T13:33:03.23Z</time></trkpt><trkpt lat="45.691415" lon="9.62511"><ele>234.99999999999997</ele><time>2026-04-25T13:33:04.228Z</time></trkpt><trkpt lat="45.6914317" lon="9.6250083"><ele>235.0</ele><time>2026-04-25T13:33:05.228Z</time></trkpt><trkpt lat="45.6914467" lon="9.62491"><ele>234.99999999999997</ele><time>2026-04-25T13:33:06.23Z</time></trkpt><trkpt lat="45.6914633" lon="9.6248117"><ele>235.0</ele><time>2026-04-25T13:33:07.228Z</time></trkpt><trkpt lat="45.6914817" lon="9.624705"><ele>235.0</ele><time>2026-04-25T13:33:08.229Z</time></trkpt><trkpt lat="45.6915033" lon="9.6245817"><ele>235.0</ele><time>2026-04-25T13:33:09.23Z</time></trkpt><trkpt lat="45.6915233" lon="9.62444"><ele>234.99999999999997</ele><time>2026-04-25T13:33:10.228Z</time></trkpt><trkpt lat="45.6915417" lon="9.6242833"><ele>235.0</ele><time>2026-04-25T13:33:11.228Z</time></trkpt><trkpt lat="45.6915617" lon="9.62411"><ele>235.25</ele><time>2026-04-25T13:33:12.23Z</time></trkpt><trkpt lat="45.6915867" lon="9.6239267"><ele>235.5</ele><time>2026-04-25T13:33:13.228Z</time></trkpt><trkpt lat="45.6916133" lon="9.6237367"><ele>235.75</ele><time>2026-04-25T13:33:14.23Z</time></trkpt><trkpt lat="45.6916417" lon="9.6235367"><ele>236.0</ele><time>2026-04-25T13:33:15.229Z</time></trkpt><trkpt lat="45.6916733" lon="9.6233283"><ele>236.25</ele><time>2026-04-25T13:33:16.229Z</time></trkpt><trkpt lat="45.6917033" lon="9.62312"><ele>236.5</ele><time>2026-04-25T13:33:17.229Z</time></trkpt><trkpt lat="45.6917317" lon="9.6229117"><ele>236.75</ele><time>2026-04-25T13:33:18.228Z</time></trkpt><trkpt lat="45.6917583" lon="9.6226967"><ele>237.0</ele><time>2026-04-25T13:33:19.23Z</time></trkpt><trkpt lat="45.6917883" lon="9.6224733"><ele>237.0</ele><time>2026-04-25T13:33:20.229Z</time></trkpt><trkpt lat="45.69182" lon="9.6222583"><ele>237.0</ele><time>2026-04-25T13:33:21.231Z</time></trkpt><trkpt lat="45.6918517" lon="9.62206"><ele>237.0</ele><time>2026-04-25T13:33:22.23Z</time></trkpt><trkpt lat="45.69188" lon="9.621885"><ele>237.0</ele><time>2026-04-25T13:33:23.23Z</time></trkpt><trkpt lat="45.6919033" lon="9.6217267"><ele>237.0</ele><time>2026-04-25T13:33:24.228Z</time></trkpt><trkpt lat="45.691925" lon="9.621565"><ele>237.0</ele><time>2026-04-25T13:33:25.228Z</time></trkpt><trkpt lat="45.69197" lon="9.6212417"><ele>237.0</ele><time>2026-04-25T13:33:27.23Z</time></trkpt><trkpt lat="45.6919917" lon="9.6210833"><ele>237.0</ele><time>2026-04-25T13:33:28.229Z</time></trkpt><trkpt lat="45.6920167" lon="9.6209283"><ele>237.0</ele><time>2026-04-25T13:33:29.229Z</time></trkpt><trkpt lat="45.6920367" lon="9.6207983"><ele>237.0</ele><time>2026-04-25T13:33:30.23Z</time></trkpt><trkpt lat="45.6920517" lon="9.6206983"><ele>237.0</ele><time>2026-04-25T13:33:31.232Z</time></trkpt><trkpt lat="45.692085" lon="9.6205533"><ele>237.0</ele><time>2026-04-25T13:33:33.229Z</time></trkpt><trkpt lat="45.69216" lon="9.6203983"><ele>237.0</ele><time>2026-04-25T13:33:35.23Z</time></trkpt><trkpt lat="45.6922067" lon="9.6203083"><ele>237.0</ele><time>2026-04-25T13:33:36.23Z</time></trkpt><trkpt lat="45.6922417" lon="9.62022"><ele>237.0</ele><time>2026-04-25T13:33:37.229Z</time></trkpt><trkpt lat="45.69226" lon="9.6201333"><ele>237.0</ele><time>2026-04-25T13:33:38.228Z</time></trkpt><trkpt lat="45.6922583" lon="9.620035"><ele>237.0</ele><time>2026-04-25T13:33:39.23Z</time></trkpt><trkpt lat="45.6922517" lon="9.619905"><ele>237.0</ele><time>2026-04-25T13:33:40.228Z</time></trkpt><trkpt lat="45.692245" lon="9.6197233"><ele>237.0</ele><time>2026-04-25T13:33:41.229Z</time></trkpt><trkpt lat="45.692255" lon="9.61953"><ele>237.0</ele><time>2026-04-25T13:33:42.23Z</time></trkpt><trkpt lat="45.69227" lon="9.61934"><ele>237.0</ele><time>2026-04-25T13:33:43.23Z</time></trkpt><trkpt lat="45.6922867" lon="9.6191617"><ele>237.0</ele><time>2026-04-25T13:33:44.23Z</time></trkpt><trkpt lat="45.6923083" lon="9.618995"><ele>237.25</ele><time>2026-04-25T13:33:45.231Z</time></trkpt><trkpt lat="45.6923317" lon="9.618825"><ele>237.5</ele><time>2026-04-25T13:33:46.229Z</time></trkpt><trkpt lat="45.6923583" lon="9.6186433"><ele>237.75</ele><time>2026-04-25T13:33:47.229Z</time></trkpt><trkpt lat="45.6923833" lon="9.618445"><ele>238.0</ele><time>2026-04-25T13:33:48.23Z</time></trkpt><trkpt lat="45.6924167" lon="9.61823"><ele>238.33333333333331</ele><time>2026-04-25T13:33:49.229Z</time></trkpt><trkpt lat="45.69245" lon="9.618"><ele>238.66666666666669</ele><time>2026-04-25T13:33:50.229Z</time></trkpt><trkpt lat="45.6924833" lon="9.6177717"><ele>239.0</ele><time>2026-04-25T13:33:51.229Z</time></trkpt><trkpt lat="45.6925133" lon="9.6175483"><ele>239.0</ele><time>2026-04-25T13:33:52.228Z</time></trkpt><trkpt lat="45.6925417" lon="9.617325"><ele>239.0</ele><time>2026-04-25T13:33:53.23Z</time></trkpt><trkpt lat="45.69257" lon="9.617095"><ele>239.0</ele><time>2026-04-25T13:33:54.228Z</time></trkpt><trkpt lat="45.6926" lon="9.6168583"><ele>238.66666666666669</ele><time>2026-04-25T13:33:55.23Z</time></trkpt><trkpt lat="45.6926383" lon="9.6166183"><ele>238.33333333333331</ele><time>2026-04-25T13:33:56.23Z</time></trkpt><trkpt lat="45.6926817" lon="9.6163683"><ele>238.0</ele><time>2026-04-25T13:33:57.229Z</time></trkpt><trkpt lat="45.692725" lon="9.6161267"><ele>238.66666666666666</ele><time>2026-04-25T13:33:58.228Z</time></trkpt><trkpt lat="45.6927633" lon="9.6159"><ele>239.33333333333331</ele><time>2026-04-25T13:33:59.23Z</time></trkpt><trkpt lat="45.6928017" lon="9.6156883"><ele>240.0</ele><time>2026-04-25T13:34:00.23Z</time></trkpt><trkpt lat="45.692835" lon="9.6154967"><ele>240.0</ele><time>2026-04-25T13:34:01.229Z</time></trkpt><trkpt lat="45.6928717" lon="9.615325"><ele>240.0</ele><time>2026-04-25T13:34:02.228Z</time></trkpt><trkpt lat="45.6929133" lon="9.6151717"><ele>240.0</ele><time>2026-04-25T13:34:03.23Z</time></trkpt><trkpt lat="45.6929517" lon="9.615025"><ele>240.0</ele><time>2026-04-25T13:34:04.228Z</time></trkpt><trkpt lat="45.69297" lon="9.614865"><ele>240.25</ele><time>2026-04-25T13:34:05.23Z</time></trkpt><trkpt lat="45.6929817" lon="9.614685"><ele>240.5</ele><time>2026-04-25T13:34:06.229Z</time></trkpt><trkpt lat="45.6929983" lon="9.61449"><ele>240.75</ele><time>2026-04-25T13:34:07.229Z</time></trkpt><trkpt lat="45.6930233" lon="9.6142783"><ele>241.0</ele><time>2026-04-25T13:34:08.23Z</time></trkpt><trkpt lat="45.6930533" lon="9.6140533"><ele>241.33333333333331</ele><time>2026-04-25T13:34:09.23Z</time></trkpt><trkpt lat="45.6930883" lon="9.6138167"><ele>241.66666666666669</ele><time>2026-04-25T13:34:10.23Z</time></trkpt><trkpt lat="45.6931267" lon="9.613575"><ele>242.0</ele><time>2026-04-25T13:34:11.231Z</time></trkpt><trkpt lat="45.6931617" lon="9.6133433"><ele>242.5</ele><time>2026-04-25T13:34:12.23Z</time></trkpt><trkpt lat="45.6931917" lon="9.6131283"><ele>243.0</ele><time>2026-04-25T13:34:13.231Z</time></trkpt><trkpt lat="45.6932217" lon="9.6129317"><ele>243.5</ele><time>2026-04-25T13:34:14.23Z</time></trkpt><trkpt lat="45.69325" lon="9.6127517"><ele>244.0</ele><time>2026-04-25T13:34:15.23Z</time></trkpt><trkpt lat="45.693275" lon="9.612595"><ele>244.39999999999998</ele><time>2026-04-25T13:34:16.229Z</time></trkpt><trkpt lat="45.6933017" lon="9.6124617"><ele>244.79999999999998</ele><time>2026-04-25T13:34:17.23Z</time></trkpt><trkpt lat="45.6933317" lon="9.6123583"><ele>245.20000000000002</ele><time>2026-04-25T13:34:18.232Z</time></trkpt><trkpt lat="45.6934083" lon="9.6122317"><ele>245.60000000000002</ele><time>2026-04-25T13:34:20.229Z</time></trkpt><trkpt lat="45.693485" lon="9.6121117"><ele>246.0</ele><time>2026-04-25T13:34:22.228Z</time></trkpt><trkpt lat="45.6935217" lon="9.61195"><ele>246.0</ele><time>2026-04-25T13:34:24.231Z</time></trkpt><trkpt lat="45.6935133" lon="9.6118467"><ele>246.00000000000003</ele><time>2026-04-25T13:34:25.229Z</time></trkpt><trkpt lat="45.6934983" lon="9.6117283"><ele>246.00000000000003</ele><time>2026-04-25T13:34:26.228Z</time></trkpt><trkpt lat="45.6934767" lon="9.61159"><ele>246.0</ele><time>2026-04-25T13:34:27.229Z</time></trkpt><trkpt lat="45.693455" lon="9.611435"><ele>246.0</ele><time>2026-04-25T13:34:28.228Z</time></trkpt><trkpt lat="45.6934317" lon="9.611265"><ele>246.20000000000002</ele><time>2026-04-25T13:34:29.229Z</time></trkpt><trkpt lat="45.693405" lon="9.611085"><ele>246.40000000000003</ele><time>2026-04-25T13:34:30.228Z</time></trkpt><trkpt lat="45.6933817" lon="9.6109167"><ele>246.6</ele><time>2026-04-25T13:34:31.229Z</time></trkpt><trkpt lat="45.6933583" lon="9.61077"><ele>246.8</ele><time>2026-04-25T13:34:32.23Z</time></trkpt><trkpt lat="45.6933383" lon="9.6106533"><ele>247.0</ele><time>2026-04-25T13:34:33.229Z</time></trkpt><trkpt lat="45.693315" lon="9.6105083"><ele>247.0</ele><time>2026-04-25T13:34:35.227Z</time></trkpt><trkpt lat="45.6932967" lon="9.6104133"><ele>247.0</ele><time>2026-04-25T13:34:39.229Z</time></trkpt><trkpt lat="45.6932867" lon="9.6103233"><ele>247.0</ele><time>2026-04-25T13:34:41.229Z</time></trkpt><trkpt lat="45.6932767" lon="9.6101833"><ele>247.0</ele><time>2026-04-25T13:34:43.227Z</time></trkpt><trkpt lat="45.69327" lon="9.61009"><ele>247.0</ele><time>2026-04-25T13:34:44.229Z</time></trkpt><trkpt lat="45.6932633" lon="9.6099883"><ele>247.0</ele><time>2026-04-25T13:34:45.228Z</time></trkpt><trkpt lat="45.6932567" lon="9.6098917"><ele>247.0</ele><time>2026-04-25T13:34:46.227Z</time></trkpt><trkpt lat="45.6932517" lon="9.6098017"><ele>247.6</ele><time>2026-04-25T13:34:47.229Z</time></trkpt><trkpt lat="45.69324" lon="9.6096317"><ele>248.2</ele><time>2026-04-25T13:34:49.228Z</time></trkpt><trkpt lat="45.69323" lon="9.60946"><ele>248.8</ele><time>2026-04-25T13:34:51.229Z</time></trkpt><trkpt lat="45.69322" lon="9.609275"><ele>249.4</ele><time>2026-04-25T13:34:53.228Z</time></trkpt><trkpt lat="45.6932167" lon="9.60917"><ele>250.0</ele><time>2026-04-25T13:34:54.228Z</time></trkpt><trkpt lat="45.6932117" lon="9.6090667"><ele>250.16666666666666</ele><time>2026-04-25T13:34:55.228Z</time></trkpt><trkpt lat="45.693205" lon="9.6089683"><ele>250.33333333333331</ele><time>2026-04-25T13:34:56.229Z</time></trkpt><trkpt lat="45.6932" lon="9.608875"><ele>250.5</ele><time>2026-04-25T13:34:57.228Z</time></trkpt><trkpt lat="45.6931933" lon="9.6087767"><ele>250.66666666666669</ele><time>2026-04-25T13:34:58.229Z</time></trkpt><trkpt lat="45.6931883" lon="9.6086733"><ele>250.83333333333334</ele><time>2026-04-25T13:34:59.228Z</time></trkpt><trkpt lat="45.6931833" lon="9.6085717"><ele>251.0</ele><time>2026-04-25T13:35:00.228Z</time></trkpt><trkpt lat="45.6931767" lon="9.6084033"><ele>250.50000000000003</ele><time>2026-04-25T13:35:02.228Z</time></trkpt><trkpt lat="45.6931683" lon="9.6082683"><ele>250.0</ele><time>2026-04-25T13:35:04.227Z</time></trkpt><trkpt lat="45.69316" lon="9.60814"><ele>249.5</ele><time>2026-04-25T13:35:06.228Z</time></trkpt><trkpt lat="45.6931567" lon="9.6080267"><ele>249.0</ele><time>2026-04-25T13:35:08.228Z</time></trkpt><trkpt lat="45.69315" lon="9.6079317"><ele>248.50000000000003</ele><time>2026-04-25T13:35:10.229Z</time></trkpt><trkpt lat="45.6931433" lon="9.6078267"><ele>248.0</ele><time>2026-04-25T13:35:12.228Z</time></trkpt><trkpt lat="45.693135" lon="9.6076917"><ele>248.00000000000003</ele><time>2026-04-25T13:35:14.228Z</time></trkpt><trkpt lat="45.6931217" lon="9.60754"><ele>248.0</ele><time>2026-04-25T13:35:16.228Z</time></trkpt><trkpt lat="45.693115" lon="9.607425"><ele>248.0</ele><time>2026-04-25T13:35:18.227Z</time></trkpt><trkpt lat="45.6931067" lon="9.6073083"><ele>248.0</ele><time>2026-04-25T13:35:21.228Z</time></trkpt><trkpt lat="45.6931017" lon="9.607175"><ele>248.00000000000003</ele><time>2026-04-25T13:36:04.227Z</time></trkpt><trkpt lat="45.6931067" lon="9.60707"><ele>248.0</ele><time>2026-04-25T13:36:05.229Z</time></trkpt><trkpt lat="45.6931033" lon="9.6069417"><ele>247.60000000000002</ele><time>2026-04-25T13:36:06.228Z</time></trkpt><trkpt lat="45.6930933" lon="9.6068033"><ele>247.20000000000002</ele><time>2026-04-25T13:36:07.227Z</time></trkpt><trkpt lat="45.6930883" lon="9.6066717"><ele>246.8</ele><time>2026-04-25T13:36:08.228Z</time></trkpt><trkpt lat="45.6930783" lon="9.6065367"><ele>246.4</ele><time>2026-04-25T13:36:09.228Z</time></trkpt><trkpt lat="45.6930617" lon="9.6063867"><ele>246.0</ele><time>2026-04-25T13:36:10.228Z</time></trkpt><trkpt lat="45.6930617" lon="9.60624"><ele>245.5</ele><time>2026-04-25T13:36:11.228Z</time></trkpt><trkpt lat="45.6930533" lon="9.6060867"><ele>245.0</ele><time>2026-04-25T13:36:12.229Z</time></trkpt><trkpt lat="45.6930417" lon="9.6059117"><ele>244.5</ele><time>2026-04-25T13:36:13.227Z</time></trkpt><trkpt lat="45.69304" lon="9.60572"><ele>244.0</ele><time>2026-04-25T13:36:14.228Z</time></trkpt><trkpt lat="45.6930417" lon="9.605515"><ele>243.25</ele><time>2026-04-25T13:36:15.228Z</time></trkpt><trkpt lat="45.6930467" lon="9.6053017"><ele>242.5</ele><time>2026-04-25T13:36:16.228Z</time></trkpt><trkpt lat="45.6930583" lon="9.6050933"><ele>241.75</ele><time>2026-04-25T13:36:17.227Z</time></trkpt><trkpt lat="45.693075" lon="9.6048833"><ele>241.0</ele><time>2026-04-25T13:36:18.228Z</time></trkpt><trkpt lat="45.6930967" lon="9.6046733"><ele>241.0</ele><time>2026-04-25T13:36:19.229Z</time></trkpt><trkpt lat="45.693125" lon="9.60447"><ele>241.0</ele><time>2026-04-25T13:36:20.229Z</time></trkpt><trkpt lat="45.6931583" lon="9.6042667"><ele>241.0</ele><time>2026-04-25T13:36:21.229Z</time></trkpt><trkpt lat="45.6932" lon="9.6040633"><ele>241.0</ele><time>2026-04-25T13:36:22.229Z</time></trkpt><trkpt lat="45.6932467" lon="9.603865"><ele>241.0</ele><time>2026-04-25T13:36:23.228Z</time></trkpt><trkpt lat="45.6933017" lon="9.60367"><ele>241.0</ele><time>2026-04-25T13:36:24.228Z</time></trkpt><trkpt lat="45.693365" lon="9.6034717"><ele>241.0</ele><time>2026-04-25T13:36:25.227Z</time></trkpt><trkpt lat="45.69343" lon="9.6032733"><ele>241.25</ele><time>2026-04-25T13:36:26.229Z</time></trkpt><trkpt lat="45.69349" lon="9.6030833"><ele>241.5</ele><time>2026-04-25T13:36:27.228Z</time></trkpt><trkpt lat="45.693545" lon="9.6029067"><ele>241.75</ele><time>2026-04-25T13:36:28.227Z</time></trkpt><trkpt lat="45.693595" lon="9.6027383"><ele>242.0</ele><time>2026-04-25T13:36:29.229Z</time></trkpt><trkpt lat="45.6936317" lon="9.6025683"><ele>241.6</ele><time>2026-04-25T13:36:30.228Z</time></trkpt><trkpt lat="45.6936617" lon="9.6024183"><ele>241.2</ele><time>2026-04-25T13:36:31.228Z</time></trkpt><trkpt lat="45.6937033" lon="9.6022833"><ele>240.8</ele><time>2026-04-25T13:36:32.23Z</time></trkpt><trkpt lat="45.693755" lon="9.60215"><ele>240.4</ele><time>2026-04-25T13:36:33.229Z</time></trkpt><trkpt lat="45.6938183" lon="9.6020033"><ele>240.0</ele><time>2026-04-25T13:36:34.227Z</time></trkpt><trkpt lat="45.6938817" lon="9.601845"><ele>239.5</ele><time>2026-04-25T13:36:35.228Z</time></trkpt><trkpt lat="45.6939467" lon="9.60167"><ele>239.0</ele><time>2026-04-25T13:36:36.227Z</time></trkpt><trkpt lat="45.69401" lon="9.6014767"><ele>238.5</ele><time>2026-04-25T13:36:37.228Z</time></trkpt><trkpt lat="45.6940733" lon="9.6012683"><ele>238.0</ele><time>2026-04-25T13:36:38.229Z</time></trkpt><trkpt lat="45.6941383" lon="9.6010567"><ele>237.66666666666666</ele><time>2026-04-25T13:36:39.228Z</time></trkpt><trkpt lat="45.6942067" lon="9.6008467"><ele>237.33333333333331</ele><time>2026-04-25T13:36:40.228Z</time></trkpt><trkpt lat="45.6942733" lon="9.6006367"><ele>237.0</ele><time>2026-04-25T13:36:41.227Z</time></trkpt><trkpt lat="45.69434" lon="9.600425"><ele>237.0</ele><time>2026-04-25T13:36:42.228Z</time></trkpt><trkpt lat="45.6944067" lon="9.6002083"><ele>237.0</ele><time>2026-04-25T13:36:43.228Z</time></trkpt><trkpt lat="45.6944733" lon="9.599985"><ele>237.0</ele><time>2026-04-25T13:36:44.227Z</time></trkpt><trkpt lat="45.6945433" lon="9.5997567"><ele>236.0</ele><time>2026-04-25T13:36:45.229Z</time></trkpt><trkpt lat="45.6946167" lon="9.59952"><ele>235.0</ele><time>2026-04-25T13:36:46.227Z</time></trkpt><trkpt lat="45.6946917" lon="9.5992833"><ele>234.0</ele><time>2026-04-25T13:36:47.229Z</time></trkpt><trkpt lat="45.694765" lon="9.5990517"><ele>233.0</ele><time>2026-04-25T13:36:48.227Z</time></trkpt><trkpt lat="45.6948383" lon="9.598825"><ele>232.0</ele><time>2026-04-25T13:36:49.229Z</time></trkpt><trkpt lat="45.69492" lon="9.5986"><ele>231.0</ele><time>2026-04-25T13:36:50.229Z</time></trkpt><trkpt lat="45.6950083" lon="9.5983817"><ele>230.0</ele><time>2026-04-25T13:36:51.229Z</time></trkpt><trkpt lat="45.695105" lon="9.59817"><ele>229.0</ele><time>2026-04-25T13:36:52.228Z</time></trkpt><trkpt lat="45.695205" lon="9.5979617"><ele>228.0</ele><time>2026-04-25T13:36:53.229Z</time></trkpt><trkpt lat="45.69531" lon="9.5977533"><ele>226.0</ele><time>2026-04-25T13:36:54.228Z</time></trkpt><trkpt lat="45.6954167" lon="9.5975467"><ele>224.0</ele><time>2026-04-25T13:36:55.229Z</time></trkpt><trkpt lat="45.6955317" lon="9.5973533"><ele>222.0</ele><time>2026-04-25T13:36:56.23Z</time></trkpt><trkpt lat="45.69566" lon="9.5971683"><ele>221.66666666666669</ele><time>2026-04-25T13:36:57.229Z</time></trkpt><trkpt lat="45.6957867" lon="9.596995"><ele>221.33333333333334</ele><time>2026-04-25T13:36:58.228Z</time></trkpt><trkpt lat="45.6959133" lon="9.5968317"><ele>221.0</ele><time>2026-04-25T13:36:59.228Z</time></trkpt><trkpt lat="45.6960383" lon="9.5966767"><ele>221.33333333333334</ele><time>2026-04-25T13:37:00.228Z</time></trkpt><trkpt lat="45.696165" lon="9.5965317"><ele>221.66666666666669</ele><time>2026-04-25T13:37:01.227Z</time></trkpt><trkpt lat="45.6962833" lon="9.596395"><ele>222.0</ele><time>2026-04-25T13:37:02.228Z</time></trkpt><trkpt lat="45.6963967" lon="9.596265"><ele>221.33333333333331</ele><time>2026-04-25T13:37:03.23Z</time></trkpt><trkpt lat="45.69651" lon="9.596135"><ele>220.66666666666666</ele><time>2026-04-25T13:37:04.228Z</time></trkpt><trkpt lat="45.6966317" lon="9.5960033"><ele>220.0</ele><time>2026-04-25T13:37:05.228Z</time></trkpt><trkpt lat="45.6967517" lon="9.5958667"><ele>220.0</ele><time>2026-04-25T13:37:06.227Z</time></trkpt><trkpt lat="45.696875" lon="9.5957317"><ele>220.0</ele><time>2026-04-25T13:37:07.227Z</time></trkpt><trkpt lat="45.6969983" lon="9.5956017"><ele>220.0</ele><time>2026-04-25T13:37:08.228Z</time></trkpt><trkpt lat="45.6971283" lon="9.59548"><ele>219.66666666666666</ele><time>2026-04-25T13:37:09.229Z</time></trkpt><trkpt lat="45.6972633" lon="9.59537"><ele>219.33333333333331</ele><time>2026-04-25T13:37:10.229Z</time></trkpt><trkpt lat="45.6974017" lon="9.595265"><ele>219.0</ele><time>2026-04-25T13:37:11.227Z</time></trkpt><trkpt lat="45.6975417" lon="9.595165"><ele>219.0</ele><time>2026-04-25T13:37:12.228Z</time></trkpt><trkpt lat="45.6976883" lon="9.5950767"><ele>219.0</ele><time>2026-04-25T13:37:13.228Z</time></trkpt><trkpt lat="45.6978383" lon="9.5949983"><ele>219.0</ele><time>2026-04-25T13:37:14.228Z</time></trkpt><trkpt lat="45.6979883" lon="9.5949317"><ele>219.0</ele><time>2026-04-25T13:37:15.229Z</time></trkpt><trkpt lat="45.698135" lon="9.594875"><ele>219.0</ele><time>2026-04-25T13:37:16.227Z</time></trkpt><trkpt lat="45.6982733" lon="9.5948267"><ele>219.0</ele><time>2026-04-25T13:37:17.229Z</time></trkpt><trkpt lat="45.698405" lon="9.5947867"><ele>219.0</ele><time>2026-04-25T13:37:18.229Z</time></trkpt><trkpt lat="45.6985267" lon="9.5947517"><ele>219.5</ele><time>2026-04-25T13:37:19.228Z</time></trkpt><trkpt lat="45.6986467" lon="9.5947233"><ele>220.0</ele><time>2026-04-25T13:37:20.228Z</time></trkpt><trkpt lat="45.698765" lon="9.594695"><ele>220.5</ele><time>2026-04-25T13:37:21.228Z</time></trkpt><trkpt lat="45.6988817" lon="9.594665"><ele>221.0</ele><time>2026-04-25T13:37:22.228Z</time></trkpt><trkpt lat="45.6989933" lon="9.5946283"><ele>221.0</ele><time>2026-04-25T13:37:23.228Z</time></trkpt><trkpt lat="45.6991" lon="9.5945833"><ele>221.0</ele><time>2026-04-25T13:37:24.228Z</time></trkpt><trkpt lat="45.699205" lon="9.5945283"><ele>221.0</ele><time>2026-04-25T13:37:25.229Z</time></trkpt><trkpt lat="45.6993133" lon="9.5944617"><ele>221.0</ele><time>2026-04-25T13:37:26.228Z</time></trkpt><trkpt lat="45.699415" lon="9.5943867"><ele>221.33333333333334</ele><time>2026-04-25T13:37:27.229Z</time></trkpt><trkpt lat="45.6995067" lon="9.5943033"><ele>221.66666666666669</ele><time>2026-04-25T13:37:28.228Z</time></trkpt><trkpt lat="45.699585" lon="9.5942183"><ele>222.0</ele><time>2026-04-25T13:37:29.228Z</time></trkpt><trkpt lat="45.69965" lon="9.5941383"><ele>222.33333333333331</ele><time>2026-04-25T13:37:30.227Z</time></trkpt><trkpt lat="45.6997033" lon="9.5940617"><ele>222.66666666666666</ele><time>2026-04-25T13:37:31.228Z</time></trkpt><trkpt lat="45.6997533" lon="9.59399"><ele>223.0</ele><time>2026-04-25T13:37:32.227Z</time></trkpt><trkpt lat="45.6997967" lon="9.5939233"><ele>223.0</ele><time>2026-04-25T13:37:33.229Z</time></trkpt><trkpt lat="45.69984" lon="9.5938567"><ele>223.0</ele><time>2026-04-25T13:37:34.229Z</time></trkpt><trkpt lat="45.6999167" lon="9.593735"><ele>223.0</ele><time>2026-04-25T13:37:36.227Z</time></trkpt><trkpt lat="45.6999717" lon="9.5936283"><ele>223.0</ele><time>2026-04-25T13:37:38.229Z</time></trkpt><trkpt lat="45.7000183" lon="9.593525"><ele>223.0</ele><time>2026-04-25T13:37:40.228Z</time></trkpt><trkpt lat="45.7000783" lon="9.5934183"><ele>223.8</ele><time>2026-04-25T13:37:42.228Z</time></trkpt><trkpt lat="45.700165" lon="9.59333"><ele>224.60000000000002</ele><time>2026-04-25T13:37:44.229Z</time></trkpt><trkpt lat="45.7003033" lon="9.5933383"><ele>225.39999999999998</ele><time>2026-04-25T13:37:46.228Z</time></trkpt><trkpt lat="45.7003867" lon="9.59335"><ele>226.2</ele><time>2026-04-25T13:37:47.229Z</time></trkpt><trkpt lat="45.7004717" lon="9.5933517"><ele>227.0</ele><time>2026-04-25T13:37:48.228Z</time></trkpt><trkpt lat="45.7005483" lon="9.5933367"><ele>227.00000000000003</ele><time>2026-04-25T13:37:49.228Z</time></trkpt><trkpt lat="45.7006217" lon="9.5933083"><ele>227.0</ele><time>2026-04-25T13:37:50.228Z</time></trkpt><trkpt lat="45.7006817" lon="9.5932583"><ele>227.0</ele><time>2026-04-25T13:37:51.228Z</time></trkpt><trkpt lat="45.7007217" lon="9.5931883"><ele>227.0</ele><time>2026-04-25T13:37:52.227Z</time></trkpt><trkpt lat="45.7007583" lon="9.5930317"><ele>227.00000000000003</ele><time>2026-04-25T13:37:54.23Z</time></trkpt><trkpt lat="45.7007283" lon="9.5928683"><ele>227.0</ele><time>2026-04-25T13:37:56.229Z</time></trkpt><trkpt lat="45.7006633" lon="9.5927067"><ele>227.0</ele><time>2026-04-25T13:37:58.227Z</time></trkpt><trkpt lat="45.700625" lon="9.5925933"><ele>227.0</ele><time>2026-04-25T13:37:59.231Z</time></trkpt><trkpt lat="45.7006017" lon="9.5924717"><ele>227.0</ele><time>2026-04-25T13:38:00.228Z</time></trkpt><trkpt lat="45.7006017" lon="9.5923417"><ele>227.0</ele><time>2026-04-25T13:38:01.228Z</time></trkpt><trkpt lat="45.7006433" lon="9.5922033"><ele>227.0</ele><time>2026-04-25T13:38:02.228Z</time></trkpt><trkpt lat="45.7006933" lon="9.592055"><ele>227.75</ele><time>2026-04-25T13:38:03.227Z</time></trkpt><trkpt lat="45.7007383" lon="9.5919067"><ele>228.5</ele><time>2026-04-25T13:38:04.229Z</time></trkpt><trkpt lat="45.7007733" lon="9.5917567"><ele>229.25</ele><time>2026-04-25T13:38:05.227Z</time></trkpt><trkpt lat="45.7007967" lon="9.591595"><ele>230.0</ele><time>2026-04-25T13:38:06.229Z</time></trkpt><trkpt lat="45.7008067" lon="9.59142"><ele>230.0</ele><time>2026-04-25T13:38:07.227Z</time></trkpt><trkpt lat="45.7007967" lon="9.5912367"><ele>230.0</ele><time>2026-04-25T13:38:08.228Z</time></trkpt><trkpt lat="45.7007733" lon="9.5910483"><ele>230.0</ele><time>2026-04-25T13:38:09.227Z</time></trkpt><trkpt lat="45.700735" lon="9.590855"><ele>230.0</ele><time>2026-04-25T13:38:10.227Z</time></trkpt><trkpt lat="45.700685" lon="9.5906533"><ele>230.0</ele><time>2026-04-25T13:38:11.228Z</time></trkpt><trkpt lat="45.700625" lon="9.5904517"><ele>230.0</ele><time>2026-04-25T13:38:12.229Z</time></trkpt><trkpt lat="45.7005633" lon="9.59025"><ele>230.0</ele><time>2026-04-25T13:38:13.228Z</time></trkpt><trkpt lat="45.700505" lon="9.5900617"><ele>229.75</ele><time>2026-04-25T13:38:14.228Z</time></trkpt><trkpt lat="45.700455" lon="9.5898783"><ele>229.5</ele><time>2026-04-25T13:38:15.229Z</time></trkpt><trkpt lat="45.700405" lon="9.589695"><ele>229.25</ele><time>2026-04-25T13:38:16.227Z</time></trkpt><trkpt lat="45.7003567" lon="9.589515"><ele>229.0</ele><time>2026-04-25T13:38:17.229Z</time></trkpt><trkpt lat="45.70031" lon="9.5893283"><ele>229.5</ele><time>2026-04-25T13:38:18.228Z</time></trkpt><trkpt lat="45.700265" lon="9.5891333"><ele>230.0</ele><time>2026-04-25T13:38:19.228Z</time></trkpt><trkpt lat="45.700225" lon="9.5889317"><ele>230.5</ele><time>2026-04-25T13:38:20.228Z</time></trkpt><trkpt lat="45.7001867" lon="9.5887217"><ele>231.0</ele><time>2026-04-25T13:38:21.23Z</time></trkpt><trkpt lat="45.700145" lon="9.5885033"><ele>230.0</ele><time>2026-04-25T13:38:22.228Z</time></trkpt><trkpt lat="45.7001067" lon="9.58828"><ele>229.0</ele><time>2026-04-25T13:38:23.229Z</time></trkpt><trkpt lat="45.7000683" lon="9.5880567"><ele>228.0</ele><time>2026-04-25T13:38:24.229Z</time></trkpt><trkpt lat="45.7000267" lon="9.587835"><ele>228.0</ele><time>2026-04-25T13:38:25.229Z</time></trkpt><trkpt lat="45.6999833" lon="9.5876117"><ele>228.0</ele><time>2026-04-25T13:38:26.228Z</time></trkpt><trkpt lat="45.6999383" lon="9.58739"><ele>228.0</ele><time>2026-04-25T13:38:27.229Z</time></trkpt><trkpt lat="45.699895" lon="9.5871683"><ele>231.33333333333331</ele><time>2026-04-25T13:38:28.227Z</time></trkpt><trkpt lat="45.6998517" lon="9.5869433"><ele>234.66666666666666</ele><time>2026-04-25T13:38:29.228Z</time></trkpt><trkpt lat="45.6998117" lon="9.5867167"><ele>238.0</ele><time>2026-04-25T13:38:30.227Z</time></trkpt><trkpt lat="45.6997717" lon="9.5865"><ele>238.0</ele><time>2026-04-25T13:38:31.227Z</time></trkpt><trkpt lat="45.699735" lon="9.5862867"><ele>238.0</ele><time>2026-04-25T13:38:32.229Z</time></trkpt><trkpt lat="45.6997" lon="9.5860783"><ele>238.0</ele><time>2026-04-25T13:38:33.229Z</time></trkpt><trkpt lat="45.6996633" lon="9.5858667"><ele>239.66666666666666</ele><time>2026-04-25T13:38:34.228Z</time></trkpt><trkpt lat="45.6996267" lon="9.5856517"><ele>241.33333333333331</ele><time>2026-04-25T13:38:35.228Z</time></trkpt><trkpt lat="45.6995883" lon="9.5854383"><ele>243.0</ele><time>2026-04-25T13:38:36.229Z</time></trkpt><trkpt lat="45.6995533" lon="9.5852317"><ele>243.0</ele><time>2026-04-25T13:38:37.229Z</time></trkpt><trkpt lat="45.6995283" lon="9.5850267"><ele>243.0</ele><time>2026-04-25T13:38:38.228Z</time></trkpt><trkpt lat="45.6995117" lon="9.5848133"><ele>243.0</ele><time>2026-04-25T13:38:39.229Z</time></trkpt><trkpt lat="45.6995017" lon="9.5846033"><ele>243.0</ele><time>2026-04-25T13:38:40.227Z</time></trkpt><trkpt lat="45.6995" lon="9.5843967"><ele>243.0</ele><time>2026-04-25T13:38:41.228Z</time></trkpt><trkpt lat="45.6995033" lon="9.5841883"><ele>243.0</ele><time>2026-04-25T13:38:42.228Z</time></trkpt><trkpt lat="45.6995183" lon="9.583985"><ele>243.0</ele><time>2026-04-25T13:38:43.229Z</time></trkpt><trkpt lat="45.6995333" lon="9.58377"><ele>243.0</ele><time>2026-04-25T13:38:44.228Z</time></trkpt><trkpt lat="45.699555" lon="9.5835617"><ele>243.0</ele><time>2026-04-25T13:38:45.229Z</time></trkpt><trkpt lat="45.6995817" lon="9.5833417"><ele>243.0</ele><time>2026-04-25T13:38:46.228Z</time></trkpt><trkpt lat="45.6996133" lon="9.58312"><ele>243.0</ele><time>2026-04-25T13:38:47.228Z</time></trkpt><trkpt lat="45.6996517" lon="9.5829033"><ele>242.0</ele><time>2026-04-25T13:38:48.229Z</time></trkpt><trkpt lat="45.6996967" lon="9.5826883"><ele>241.0</ele><time>2026-04-25T13:38:49.23Z</time></trkpt><trkpt lat="45.699745" lon="9.582475"><ele>240.0</ele><time>2026-04-25T13:38:50.229Z</time></trkpt><trkpt lat="45.6997967" lon="9.5822583"><ele>240.0</ele><time>2026-04-25T13:38:51.228Z</time></trkpt><trkpt lat="45.6998483" lon="9.5820467"><ele>240.0</ele><time>2026-04-25T13:38:52.228Z</time></trkpt><trkpt lat="45.6998983" lon="9.5818367"><ele>240.0</ele><time>2026-04-25T13:38:53.229Z</time></trkpt><trkpt lat="45.699945" lon="9.5816367"><ele>240.0</ele><time>2026-04-25T13:38:54.229Z</time></trkpt><trkpt lat="45.6999883" lon="9.5814467"><ele>240.0</ele><time>2026-04-25T13:38:55.228Z</time></trkpt><trkpt lat="45.7000267" lon="9.5812633"><ele>240.0</ele><time>2026-04-25T13:38:56.228Z</time></trkpt><trkpt lat="45.7000667" lon="9.5810767"><ele>240.0</ele><time>2026-04-25T13:38:57.23Z</time></trkpt><trkpt lat="45.70011" lon="9.5808883"><ele>239.75</ele><time>2026-04-25T13:38:58.228Z</time></trkpt><trkpt lat="45.7001533" lon="9.5806967"><ele>239.5</ele><time>2026-04-25T13:38:59.229Z</time></trkpt><trkpt lat="45.7001983" lon="9.5805017"><ele>239.25</ele><time>2026-04-25T13:39:00.228Z</time></trkpt><trkpt lat="45.7002433" lon="9.58031"><ele>239.0</ele><time>2026-04-25T13:39:01.228Z</time></trkpt><trkpt lat="45.7002867" lon="9.58013"><ele>239.5</ele><time>2026-04-25T13:39:02.229Z</time></trkpt><trkpt lat="45.70033" lon="9.57996"><ele>240.0</ele><time>2026-04-25T13:39:03.229Z</time></trkpt><trkpt lat="45.70037" lon="9.5797967"><ele>240.5</ele><time>2026-04-25T13:39:04.227Z</time></trkpt><trkpt lat="45.70041" lon="9.5796283"><ele>241.0</ele><time>2026-04-25T13:39:05.229Z</time></trkpt><trkpt lat="45.7004467" lon="9.5794583"><ele>241.8</ele><time>2026-04-25T13:39:06.228Z</time></trkpt><trkpt lat="45.70048" lon="9.57929"><ele>242.60000000000002</ele><time>2026-04-25T13:39:07.228Z</time></trkpt><trkpt lat="45.70051" lon="9.57913"><ele>243.4</ele><time>2026-04-25T13:39:08.228Z</time></trkpt><trkpt lat="45.7005367" lon="9.578985"><ele>244.2</ele><time>2026-04-25T13:39:09.228Z</time></trkpt><trkpt lat="45.7005483" lon="9.5788733"><ele>245.0</ele><time>2026-04-25T13:39:10.227Z</time></trkpt><trkpt lat="45.7005533" lon="9.5787183"><ele>245.16666666666669</ele><time>2026-04-25T13:39:12.228Z</time></trkpt><trkpt lat="45.700555" lon="9.5786117"><ele>245.33333333333334</ele><time>2026-04-25T13:39:14.228Z</time></trkpt><trkpt lat="45.700585" lon="9.578475"><ele>245.5</ele><time>2026-04-25T13:39:16.228Z</time></trkpt><trkpt lat="45.7006167" lon="9.5783767"><ele>245.66666666666669</ele><time>2026-04-25T13:39:17.23Z</time></trkpt><trkpt lat="45.700645" lon="9.5782533"><ele>245.83333333333334</ele><time>2026-04-25T13:39:18.229Z</time></trkpt><trkpt lat="45.700645" lon="9.5781283"><ele>246.0</ele><time>2026-04-25T13:39:19.228Z</time></trkpt><trkpt lat="45.7006267" lon="9.578015"><ele>246.0</ele><time>2026-04-25T13:39:20.23Z</time></trkpt><trkpt lat="45.7005817" lon="9.5779217"><ele>246.0</ele><time>2026-04-25T13:39:21.228Z</time></trkpt><trkpt lat="45.7005233" lon="9.577835"><ele>246.0</ele><time>2026-04-25T13:39:22.229Z</time></trkpt><trkpt lat="45.7004683" lon="9.5777533"><ele>246.0</ele><time>2026-04-25T13:39:23.229Z</time></trkpt><trkpt lat="45.7004317" lon="9.57767"><ele>246.0</ele><time>2026-04-25T13:39:24.228Z</time></trkpt><trkpt lat="45.70041" lon="9.577575"><ele>246.0</ele><time>2026-04-25T13:39:25.23Z</time></trkpt><trkpt lat="45.70041" lon="9.5774667"><ele>245.60000000000002</ele><time>2026-04-25T13:39:26.228Z</time></trkpt><trkpt lat="45.7004333" lon="9.577335"><ele>245.20000000000002</ele><time>2026-04-25T13:39:27.231Z</time></trkpt><trkpt lat="45.7004633" lon="9.57719"><ele>244.79999999999998</ele><time>2026-04-25T13:39:28.228Z</time></trkpt><trkpt lat="45.7004833" lon="9.5770383"><ele>244.39999999999998</ele><time>2026-04-25T13:39:29.228Z</time></trkpt><trkpt lat="45.70048" lon="9.5768967"><ele>244.0</ele><time>2026-04-25T13:39:30.23Z</time></trkpt><trkpt lat="45.70045" lon="9.5767633"><ele>243.99999999999997</ele><time>2026-04-25T13:39:31.228Z</time></trkpt><trkpt lat="45.7003967" lon="9.57664"><ele>244.0</ele><time>2026-04-25T13:39:32.23Z</time></trkpt><trkpt lat="45.7003317" lon="9.57654"><ele>244.0</ele><time>2026-04-25T13:39:33.229Z</time></trkpt><trkpt lat="45.70027" lon="9.5764583"><ele>244.0</ele><time>2026-04-25T13:39:34.229Z</time></trkpt><trkpt lat="45.7002217" lon="9.5763967"><ele>243.99999999999997</ele><time>2026-04-25T13:39:35.228Z</time></trkpt><trkpt lat="45.70018" lon="9.576325"><ele>244.0</ele><time>2026-04-25T13:39:37.23Z</time></trkpt><trkpt lat="45.7001983" lon="9.5762033"><ele>244.0</ele><time>2026-04-25T13:39:42.228Z</time></trkpt><trkpt lat="45.7002383" lon="9.5761283"><ele>243.99999999999997</ele><time>2026-04-25T13:39:43.229Z</time></trkpt><trkpt lat="45.700305" lon="9.57603"><ele>243.99999999999997</ele><time>2026-04-25T13:39:44.228Z</time></trkpt><trkpt lat="45.70039" lon="9.57591"><ele>244.0</ele><time>2026-04-25T13:39:45.231Z</time></trkpt><trkpt lat="45.7004867" lon="9.5757767"><ele>244.0</ele><time>2026-04-25T13:39:46.23Z</time></trkpt><trkpt lat="45.70059" lon="9.5756283"><ele>244.0</ele><time>2026-04-25T13:39:47.229Z</time></trkpt><trkpt lat="45.7006817" lon="9.57546"><ele>244.0</ele><time>2026-04-25T13:39:48.228Z</time></trkpt><trkpt lat="45.7007533" lon="9.5752667"><ele>244.0</ele><time>2026-04-25T13:39:49.228Z</time></trkpt><trkpt lat="45.7008167" lon="9.5750633"><ele>244.0</ele><time>2026-04-25T13:39:50.23Z</time></trkpt><trkpt lat="45.7008833" lon="9.5748667"><ele>244.0</ele><time>2026-04-25T13:39:51.229Z</time></trkpt><trkpt lat="45.70095" lon="9.57469"><ele>244.0</ele><time>2026-04-25T13:39:52.229Z</time></trkpt><trkpt lat="45.7010217" lon="9.574535"><ele>244.0</ele><time>2026-04-25T13:39:53.228Z</time></trkpt><trkpt lat="45.7010983" lon="9.5743967"><ele>243.75</ele><time>2026-04-25T13:39:54.229Z</time></trkpt><trkpt lat="45.7011767" lon="9.5742783"><ele>243.5</ele><time>2026-04-25T13:39:55.229Z</time></trkpt><trkpt lat="45.7012633" lon="9.5741817"><ele>243.25</ele><time>2026-04-25T13:39:56.229Z</time></trkpt><trkpt lat="45.7013667" lon="9.5741083"><ele>243.0</ele><time>2026-04-25T13:39:57.23Z</time></trkpt><trkpt lat="45.7014833" lon="9.5740567"><ele>243.0</ele><time>2026-04-25T13:39:58.228Z</time></trkpt><trkpt lat="45.7016" lon="9.5740133"><ele>243.0</ele><time>2026-04-25T13:39:59.23Z</time></trkpt><trkpt lat="45.70171" lon="9.573965"><ele>243.0</ele><time>2026-04-25T13:40:00.227Z</time></trkpt><trkpt lat="45.7018" lon="9.5739"><ele>243.0</ele><time>2026-04-25T13:40:01.229Z</time></trkpt><trkpt lat="45.7018733" lon="9.573815"><ele>243.0</ele><time>2026-04-25T13:40:02.23Z</time></trkpt><trkpt lat="45.70193" lon="9.5736933"><ele>243.25</ele><time>2026-04-25T13:40:03.229Z</time></trkpt><trkpt lat="45.701975" lon="9.5735417"><ele>243.5</ele><time>2026-04-25T13:40:04.228Z</time></trkpt><trkpt lat="45.702015" lon="9.5733717"><ele>243.75</ele><time>2026-04-25T13:40:05.228Z</time></trkpt><trkpt lat="45.70206" lon="9.5731917"><ele>244.0</ele><time>2026-04-25T13:40:06.227Z</time></trkpt><trkpt lat="45.7021067" lon="9.573005"><ele>244.0</ele><time>2026-04-25T13:40:07.228Z</time></trkpt><trkpt lat="45.70215" lon="9.5728183"><ele>244.0</ele><time>2026-04-25T13:40:08.229Z</time></trkpt><trkpt lat="45.7021867" lon="9.5726383"><ele>244.0</ele><time>2026-04-25T13:40:09.229Z</time></trkpt><trkpt lat="45.7022233" lon="9.5724583"><ele>244.0</ele><time>2026-04-25T13:40:10.227Z</time></trkpt><trkpt lat="45.7022567" lon="9.5722733"><ele>244.0</ele><time>2026-04-25T13:40:11.229Z</time></trkpt><trkpt lat="45.7022783" lon="9.57209"><ele>244.0</ele><time>2026-04-25T13:40:12.228Z</time></trkpt><trkpt lat="45.7022983" lon="9.5719167"><ele>244.0</ele><time>2026-04-25T13:40:13.228Z</time></trkpt><trkpt lat="45.7023133" lon="9.5717533"><ele>244.0</ele><time>2026-04-25T13:40:14.229Z</time></trkpt><trkpt lat="45.7023233" lon="9.571605"><ele>243.83333333333331</ele><time>2026-04-25T13:40:15.229Z</time></trkpt><trkpt lat="45.70233" lon="9.5714733"><ele>243.66666666666666</ele><time>2026-04-25T13:40:16.228Z</time></trkpt><trkpt lat="45.7023383" lon="9.5713567"><ele>243.5</ele><time>2026-04-25T13:40:17.229Z</time></trkpt><trkpt lat="45.7023567" lon="9.5712467"><ele>243.33333333333331</ele><time>2026-04-25T13:40:18.228Z</time></trkpt><trkpt lat="45.7023833" lon="9.571155"><ele>243.16666666666666</ele><time>2026-04-25T13:40:19.228Z</time></trkpt><trkpt lat="45.702415" lon="9.5710683"><ele>243.0</ele><time>2026-04-25T13:40:20.229Z</time></trkpt><trkpt lat="45.702435" lon="9.5709817"><ele>243.0</ele><time>2026-04-25T13:40:21.228Z</time></trkpt><trkpt lat="45.702405" lon="9.570825"><ele>243.0</ele><time>2026-04-25T13:40:23.228Z</time></trkpt><trkpt lat="45.7023683" lon="9.5707267"><ele>243.0</ele><time>2026-04-25T13:40:24.23Z</time></trkpt><trkpt lat="45.7023467" lon="9.5706033"><ele>243.0</ele><time>2026-04-25T13:40:25.229Z</time></trkpt><trkpt lat="45.70234" lon="9.5704533"><ele>243.0</ele><time>2026-04-25T13:40:26.228Z</time></trkpt><trkpt lat="45.7023433" lon="9.5702783"><ele>243.0</ele><time>2026-04-25T13:40:27.23Z</time></trkpt><trkpt lat="45.7023483" lon="9.57009"><ele>243.0</ele><time>2026-04-25T13:40:28.229Z</time></trkpt><trkpt lat="45.70235" lon="9.569895"><ele>243.0</ele><time>2026-04-25T13:40:29.229Z</time></trkpt><trkpt lat="45.7023517" lon="9.5697"><ele>243.0</ele><time>2026-04-25T13:40:30.228Z</time></trkpt><trkpt lat="45.7023517" lon="9.56949"><ele>242.66666666666669</ele><time>2026-04-25T13:40:31.228Z</time></trkpt><trkpt lat="45.7023467" lon="9.5692767"><ele>242.33333333333334</ele><time>2026-04-25T13:40:32.229Z</time></trkpt><trkpt lat="45.70234" lon="9.5690567"><ele>242.0</ele><time>2026-04-25T13:40:33.228Z</time></trkpt><trkpt lat="45.7023367" lon="9.5688367"><ele>242.0</ele><time>2026-04-25T13:40:34.228Z</time></trkpt><trkpt lat="45.7023283" lon="9.5686133"><ele>242.0</ele><time>2026-04-25T13:40:35.233Z</time></trkpt><trkpt lat="45.7023183" lon="9.568395"><ele>242.0</ele><time>2026-04-25T13:40:36.229Z</time></trkpt><trkpt lat="45.7023033" lon="9.56818"><ele>242.0</ele><time>2026-04-25T13:40:37.229Z</time></trkpt><trkpt lat="45.70229" lon="9.56798"><ele>242.0</ele><time>2026-04-25T13:40:38.228Z</time></trkpt><trkpt lat="45.70227" lon="9.56779"><ele>242.0</ele><time>2026-04-25T13:40:39.231Z</time></trkpt><trkpt lat="45.702245" lon="9.5676033"><ele>242.0</ele><time>2026-04-25T13:40:40.228Z</time></trkpt><trkpt lat="45.702205" lon="9.5674183"><ele>242.0</ele><time>2026-04-25T13:40:41.23Z</time></trkpt><trkpt lat="45.7021583" lon="9.5672367"><ele>242.0</ele><time>2026-04-25T13:40:42.228Z</time></trkpt><trkpt lat="45.7021117" lon="9.5670633"><ele>242.0</ele><time>2026-04-25T13:40:43.227Z</time></trkpt><trkpt lat="45.7020783" lon="9.566905"><ele>242.0</ele><time>2026-04-25T13:40:44.228Z</time></trkpt><trkpt lat="45.7020567" lon="9.5667633"><ele>242.50000000000003</ele><time>2026-04-25T13:40:45.23Z</time></trkpt><trkpt lat="45.7020433" lon="9.5666317"><ele>243.0</ele><time>2026-04-25T13:40:46.228Z</time></trkpt><trkpt lat="45.7020333" lon="9.5665033"><ele>243.5</ele><time>2026-04-25T13:40:47.228Z</time></trkpt><trkpt lat="45.7020367" lon="9.5663867"><ele>244.0</ele><time>2026-04-25T13:40:48.229Z</time></trkpt><trkpt lat="45.7020483" lon="9.56628"><ele>244.50000000000003</ele><time>2026-04-25T13:40:49.228Z</time></trkpt><trkpt lat="45.7020933" lon="9.5662033"><ele>245.0</ele><time>2026-04-25T13:40:50.23Z</time></trkpt><trkpt lat="45.70216" lon="9.5661483"><ele>245.0</ele><time>2026-04-25T13:40:51.229Z</time></trkpt><trkpt lat="45.702265" lon="9.566115"><ele>245.0</ele><time>2026-04-25T13:40:52.229Z</time></trkpt><trkpt lat="45.702385" lon="9.5660917"><ele>245.0</ele><time>2026-04-25T13:40:53.229Z</time></trkpt><trkpt lat="45.70251" lon="9.5660683"><ele>245.0</ele><time>2026-04-25T13:40:54.23Z</time></trkpt><trkpt lat="45.7026317" lon="9.5660467"><ele>245.0</ele><time>2026-04-25T13:40:55.229Z</time></trkpt><trkpt lat="45.7027483" lon="9.5660233"><ele>245.0</ele><time>2026-04-25T13:40:56.231Z</time></trkpt><trkpt lat="45.7028517" lon="9.5659967"><ele>245.0</ele><time>2026-04-25T13:40:57.23Z</time></trkpt><trkpt lat="45.7029533" lon="9.5659733"><ele>245.0</ele><time>2026-04-25T13:40:58.229Z</time></trkpt><trkpt lat="45.7030483" lon="9.5659483"><ele>245.0</ele><time>2026-04-25T13:40:59.228Z</time></trkpt><trkpt lat="45.7031483" lon="9.565925"><ele>245.0</ele><time>2026-04-25T13:41:00.228Z</time></trkpt><trkpt lat="45.7032417" lon="9.5658933"><ele>245.0</ele><time>2026-04-25T13:41:01.229Z</time></trkpt><trkpt lat="45.703345" lon="9.56586"><ele>245.0</ele><time>2026-04-25T13:41:02.229Z</time></trkpt><trkpt lat="45.703445" lon="9.5658217"><ele>245.0</ele><time>2026-04-25T13:41:03.228Z</time></trkpt><trkpt lat="45.7035367" lon="9.56579"><ele>245.0</ele><time>2026-04-25T13:41:04.228Z</time></trkpt><trkpt lat="45.7036233" lon="9.565765"><ele>245.50000000000003</ele><time>2026-04-25T13:41:05.229Z</time></trkpt><trkpt lat="45.7037067" lon="9.56575"><ele>246.0</ele><time>2026-04-25T13:41:06.23Z</time></trkpt><trkpt lat="45.7037867" lon="9.565725"><ele>246.5</ele><time>2026-04-25T13:41:07.229Z</time></trkpt><trkpt lat="45.7038683" lon="9.5656983"><ele>247.0</ele><time>2026-04-25T13:41:08.23Z</time></trkpt><trkpt lat="45.7039567" lon="9.565675"><ele>247.50000000000003</ele><time>2026-04-25T13:41:09.23Z</time></trkpt><trkpt lat="45.7040483" lon="9.5656483"><ele>248.0</ele><time>2026-04-25T13:41:10.23Z</time></trkpt><trkpt lat="45.7041383" lon="9.5656233"><ele>248.00000000000003</ele><time>2026-04-25T13:41:11.229Z</time></trkpt><trkpt lat="45.7042217" lon="9.5656033"><ele>248.0</ele><time>2026-04-25T13:41:12.228Z</time></trkpt><trkpt lat="45.7042983" lon="9.565585"><ele>248.0</ele><time>2026-04-25T13:41:13.228Z</time></trkpt><trkpt lat="45.7043683" lon="9.56557"><ele>248.0</ele><time>2026-04-25T13:41:14.229Z</time></trkpt><trkpt lat="45.704465" lon="9.565555"><ele>248.00000000000003</ele><time>2026-04-25T13:41:16.228Z</time></trkpt><trkpt lat="45.7045233" lon="9.5655067"><ele>248.0</ele><time>2026-04-25T13:41:27.229Z</time></trkpt><trkpt lat="45.70452" lon="9.565385"><ele>248.2</ele><time>2026-04-25T13:41:29.229Z</time></trkpt><trkpt lat="45.704495" lon="9.5652217"><ele>248.4</ele><time>2026-04-25T13:41:31.228Z</time></trkpt><trkpt lat="45.7044783" lon="9.565125"><ele>248.59999999999997</ele><time>2026-04-25T13:41:32.229Z</time></trkpt><trkpt lat="45.7044617" lon="9.565015"><ele>248.79999999999998</ele><time>2026-04-25T13:41:33.227Z</time></trkpt><trkpt lat="45.7044433" lon="9.5648867"><ele>249.0</ele><time>2026-04-25T13:41:34.228Z</time></trkpt><trkpt lat="45.7044217" lon="9.564735"><ele>249.0</ele><time>2026-04-25T13:41:35.228Z</time></trkpt><trkpt lat="45.7043917" lon="9.56457"><ele>249.0</ele><time>2026-04-25T13:41:36.228Z</time></trkpt><trkpt lat="45.7043617" lon="9.56439"><ele>249.0</ele><time>2026-04-25T13:41:37.227Z</time></trkpt><trkpt lat="45.704335" lon="9.5642033"><ele>249.0</ele><time>2026-04-25T13:41:38.228Z</time></trkpt><trkpt lat="45.7043033" lon="9.5640217"><ele>249.0</ele><time>2026-04-25T13:41:39.229Z</time></trkpt><trkpt lat="45.7042733" lon="9.5638517"><ele>248.99999999999997</ele><time>2026-04-25T13:41:40.229Z</time></trkpt><trkpt lat="45.7042483" lon="9.5637"><ele>248.99999999999997</ele><time>2026-04-25T13:41:41.229Z</time></trkpt><trkpt lat="45.704225" lon="9.5635617"><ele>249.0</ele><time>2026-04-25T13:41:42.229Z</time></trkpt><trkpt lat="45.7042" lon="9.5634183"><ele>249.0</ele><time>2026-04-25T13:41:43.228Z</time></trkpt><trkpt lat="45.704175" lon="9.5632733"><ele>249.0</ele><time>2026-04-25T13:41:44.229Z</time></trkpt><trkpt lat="45.70415" lon="9.56312"><ele>249.0</ele><time>2026-04-25T13:41:45.229Z</time></trkpt><trkpt lat="45.7041217" lon="9.562955"><ele>249.0</ele><time>2026-04-25T13:41:46.23Z</time></trkpt><trkpt lat="45.7040883" lon="9.5627817"><ele>249.0</ele><time>2026-04-25T13:41:47.23Z</time></trkpt><trkpt lat="45.7040567" lon="9.56262"><ele>249.0</ele><time>2026-04-25T13:41:48.229Z</time></trkpt><trkpt lat="45.704025" lon="9.56246"><ele>248.99999999999997</ele><time>2026-04-25T13:41:49.231Z</time></trkpt><trkpt lat="45.7039933" lon="9.5623183"><ele>248.99999999999997</ele><time>2026-04-25T13:41:50.229Z</time></trkpt><trkpt lat="45.7039717" lon="9.56219"><ele>249.0</ele><time>2026-04-25T13:41:51.23Z</time></trkpt><trkpt lat="45.7039533" lon="9.5620683"><ele>249.0</ele><time>2026-04-25T13:41:52.229Z</time></trkpt><trkpt lat="45.703945" lon="9.561955"><ele>249.0</ele><time>2026-04-25T13:41:53.23Z</time></trkpt><trkpt lat="45.7039467" lon="9.56185"><ele>249.0</ele><time>2026-04-25T13:41:54.229Z</time></trkpt><trkpt lat="45.7039417" lon="9.56175"><ele>249.0</ele><time>2026-04-25T13:41:55.229Z</time></trkpt><trkpt lat="45.70392" lon="9.561655"><ele>249.0</ele><time>2026-04-25T13:41:56.231Z</time></trkpt><trkpt lat="45.7038883" lon="9.5615517"><ele>249.0</ele><time>2026-04-25T13:41:57.23Z</time></trkpt><trkpt lat="45.7038617" lon="9.5614267"><ele>249.0</ele><time>2026-04-25T13:41:58.229Z</time></trkpt><trkpt lat="45.7038483" lon="9.561285"><ele>249.0</ele><time>2026-04-25T13:41:59.231Z</time></trkpt><trkpt lat="45.7038333" lon="9.561125"><ele>249.0</ele><time>2026-04-25T13:42:00.231Z</time></trkpt><trkpt lat="45.703815" lon="9.5609483"><ele>249.0</ele><time>2026-04-25T13:42:01.231Z</time></trkpt><trkpt lat="45.7037933" lon="9.56076"><ele>249.0</ele><time>2026-04-25T13:42:02.229Z</time></trkpt><trkpt lat="45.7037667" lon="9.5605617"><ele>248.66666666666669</ele><time>2026-04-25T13:42:03.229Z</time></trkpt><trkpt lat="45.7037367" lon="9.5603533"><ele>248.33333333333334</ele><time>2026-04-25T13:42:04.23Z</time></trkpt><trkpt lat="45.7037067" lon="9.5601367"><ele>248.0</ele><time>2026-04-25T13:42:05.23Z</time></trkpt><trkpt lat="45.7036767" lon="9.5599083"><ele>248.0</ele><time>2026-04-25T13:42:06.229Z</time></trkpt><trkpt lat="45.7036433" lon="9.559675"><ele>248.0</ele><time>2026-04-25T13:42:07.229Z</time></trkpt><trkpt lat="45.7036117" lon="9.55944"><ele>248.0</ele><time>2026-04-25T13:42:08.248Z</time></trkpt><trkpt lat="45.70358" lon="9.5592083"><ele>248.0</ele><time>2026-04-25T13:42:09.229Z</time></trkpt><trkpt lat="45.7035517" lon="9.558975"><ele>248.0</ele><time>2026-04-25T13:42:10.229Z</time></trkpt><trkpt lat="45.7035217" lon="9.558745"><ele>248.0</ele><time>2026-04-25T13:42:11.229Z</time></trkpt><trkpt lat="45.7034933" lon="9.5585167"><ele>248.0</ele><time>2026-04-25T13:42:12.229Z</time></trkpt><trkpt lat="45.703465" lon="9.5582967"><ele>248.0</ele><time>2026-04-25T13:42:13.23Z</time></trkpt><trkpt lat="45.7034333" lon="9.5580767"><ele>248.0</ele><time>2026-04-25T13:42:14.23Z</time></trkpt><trkpt lat="45.7034" lon="9.5578583"><ele>247.66666666666669</ele><time>2026-04-25T13:42:15.23Z</time></trkpt><trkpt lat="45.7033683" lon="9.5576417"><ele>247.33333333333331</ele><time>2026-04-25T13:42:16.229Z</time></trkpt><trkpt lat="45.7033367" lon="9.557425"><ele>247.0</ele><time>2026-04-25T13:42:17.229Z</time></trkpt><trkpt lat="45.7033067" lon="9.55721"><ele>247.33333333333331</ele><time>2026-04-25T13:42:18.229Z</time></trkpt><trkpt lat="45.703275" lon="9.5569983"><ele>247.66666666666669</ele><time>2026-04-25T13:42:19.229Z</time></trkpt><trkpt lat="45.7032433" lon="9.556785"><ele>248.0</ele><time>2026-04-25T13:42:20.23Z</time></trkpt><trkpt lat="45.7032117" lon="9.5565717"><ele>248.0</ele><time>2026-04-25T13:42:21.229Z</time></trkpt><trkpt lat="45.7031783" lon="9.5563583"><ele>248.0</ele><time>2026-04-25T13:42:22.229Z</time></trkpt><trkpt lat="45.7031467" lon="9.556145"><ele>248.0</ele><time>2026-04-25T13:42:23.228Z</time></trkpt><trkpt lat="45.7031133" lon="9.5559333"><ele>248.0</ele><time>2026-04-25T13:42:24.228Z</time></trkpt><trkpt lat="45.70308" lon="9.5557217"><ele>248.0</ele><time>2026-04-25T13:42:25.229Z</time></trkpt><trkpt lat="45.7030483" lon="9.5555067"><ele>248.0</ele><time>2026-04-25T13:42:26.229Z</time></trkpt><trkpt lat="45.703015" lon="9.55529"><ele>247.66666666666669</ele><time>2026-04-25T13:42:27.229Z</time></trkpt><trkpt lat="45.702985" lon="9.555075"><ele>247.33333333333331</ele><time>2026-04-25T13:42:28.229Z</time></trkpt><trkpt lat="45.7029567" lon="9.5548583"><ele>247.0</ele><time>2026-04-25T13:42:29.23Z</time></trkpt><trkpt lat="45.7029267" lon="9.554645"><ele>246.5</ele><time>2026-04-25T13:42:30.23Z</time></trkpt><trkpt lat="45.702895" lon="9.5544383"><ele>246.0</ele><time>2026-04-25T13:42:31.229Z</time></trkpt><trkpt lat="45.7028633" lon="9.55424"><ele>245.5</ele><time>2026-04-25T13:42:32.229Z</time></trkpt><trkpt lat="45.702835" lon="9.554055"><ele>245.0</ele><time>2026-04-25T13:42:33.229Z</time></trkpt><trkpt lat="45.7028067" lon="9.55388"><ele>245.0</ele><time>2026-04-25T13:42:34.228Z</time></trkpt><trkpt lat="45.7027783" lon="9.5537183"><ele>245.0</ele><time>2026-04-25T13:42:35.228Z</time></trkpt><trkpt lat="45.7027483" lon="9.55357"><ele>245.0</ele><time>2026-04-25T13:42:36.228Z</time></trkpt><trkpt lat="45.7027083" lon="9.5534367"><ele>245.0</ele><time>2026-04-25T13:42:37.228Z</time></trkpt><trkpt lat="45.7026533" lon="9.5533233"><ele>245.0</ele><time>2026-04-25T13:42:38.229Z</time></trkpt><trkpt lat="45.7025833" lon="9.553225"><ele>244.75</ele><time>2026-04-25T13:42:39.229Z</time></trkpt><trkpt lat="45.7024983" lon="9.5531383"><ele>244.5</ele><time>2026-04-25T13:42:40.229Z</time></trkpt><trkpt lat="45.7024" lon="9.55307"><ele>244.25</ele><time>2026-04-25T13:42:41.229Z</time></trkpt><trkpt lat="45.7022867" lon="9.5530217"><ele>244.0</ele><time>2026-04-25T13:42:42.228Z</time></trkpt><trkpt lat="45.7021617" lon="9.552995"><ele>244.0</ele><time>2026-04-25T13:42:43.229Z</time></trkpt><trkpt lat="45.7020267" lon="9.5529833"><ele>244.0</ele><time>2026-04-25T13:42:44.229Z</time></trkpt><trkpt lat="45.7018867" lon="9.5529733"><ele>244.0</ele><time>2026-04-25T13:42:45.229Z</time></trkpt><trkpt lat="45.70174" lon="9.5529633"><ele>244.0</ele><time>2026-04-25T13:42:46.229Z</time></trkpt><trkpt lat="45.701585" lon="9.5529517"><ele>244.33333333333331</ele><time>2026-04-25T13:42:47.227Z</time></trkpt><trkpt lat="45.701425" lon="9.55294"><ele>244.66666666666669</ele><time>2026-04-25T13:42:48.229Z</time></trkpt><trkpt lat="45.7012583" lon="9.5529317"><ele>245.0</ele><time>2026-04-25T13:42:49.228Z</time></trkpt><trkpt lat="45.7010833" lon="9.5529267"><ele>245.0</ele><time>2026-04-25T13:42:50.229Z</time></trkpt><trkpt lat="45.7009033" lon="9.5529217"><ele>245.0</ele><time>2026-04-25T13:42:51.231Z</time></trkpt><trkpt lat="45.7007233" lon="9.552915"><ele>245.0</ele><time>2026-04-25T13:42:52.23Z</time></trkpt><trkpt lat="45.7005417" lon="9.5529083"><ele>245.0</ele><time>2026-04-25T13:42:53.228Z</time></trkpt><trkpt lat="45.70036" lon="9.5529"><ele>245.0</ele><time>2026-04-25T13:42:54.229Z</time></trkpt><trkpt lat="45.7001733" lon="9.55289"><ele>245.0</ele><time>2026-04-25T13:42:55.229Z</time></trkpt><trkpt lat="45.6999833" lon="9.552885"><ele>244.66666666666669</ele><time>2026-04-25T13:42:56.23Z</time></trkpt><trkpt lat="45.6997867" lon="9.5528833"><ele>244.33333333333331</ele><time>2026-04-25T13:42:57.23Z</time></trkpt><trkpt lat="45.6995883" lon="9.552885"><ele>244.0</ele><time>2026-04-25T13:42:58.231Z</time></trkpt><trkpt lat="45.6993867" lon="9.5528917"><ele>243.66666666666666</ele><time>2026-04-25T13:42:59.23Z</time></trkpt><trkpt lat="45.6991883" lon="9.5529033"><ele>243.33333333333331</ele><time>2026-04-25T13:43:00.229Z</time></trkpt><trkpt lat="45.6990017" lon="9.552915"><ele>243.0</ele><time>2026-04-25T13:43:01.23Z</time></trkpt><trkpt lat="45.698825" lon="9.5529283"><ele>243.0</ele><time>2026-04-25T13:43:02.23Z</time></trkpt><trkpt lat="45.6986583" lon="9.5529433"><ele>243.0</ele><time>2026-04-25T13:43:03.23Z</time></trkpt><trkpt lat="45.6985" lon="9.5529583"><ele>243.0</ele><time>2026-04-25T13:43:04.228Z</time></trkpt><trkpt lat="45.698345" lon="9.552975"><ele>243.33333333333331</ele><time>2026-04-25T13:43:05.228Z</time></trkpt><trkpt lat="45.69819" lon="9.5529933"><ele>243.66666666666666</ele><time>2026-04-25T13:43:06.229Z</time></trkpt><trkpt lat="45.6980367" lon="9.5530133"><ele>244.0</ele><time>2026-04-25T13:43:07.228Z</time></trkpt><trkpt lat="45.6978783" lon="9.553035"><ele>243.33333333333331</ele><time>2026-04-25T13:43:08.229Z</time></trkpt><trkpt lat="45.69772" lon="9.55306"><ele>242.66666666666669</ele><time>2026-04-25T13:43:09.228Z</time></trkpt><trkpt lat="45.6975633" lon="9.5530867"><ele>242.0</ele><time>2026-04-25T13:43:10.229Z</time></trkpt><trkpt lat="45.69741" lon="9.5531283"><ele>242.0</ele><time>2026-04-25T13:43:11.228Z</time></trkpt><trkpt lat="45.6972583" lon="9.5531867"><ele>242.0</ele><time>2026-04-25T13:43:12.228Z</time></trkpt><trkpt lat="45.6971083" lon="9.5532517"><ele>242.0</ele><time>2026-04-25T13:43:13.228Z</time></trkpt><trkpt lat="45.6969567" lon="9.5533217"><ele>242.0</ele><time>2026-04-25T13:43:14.228Z</time></trkpt><trkpt lat="45.6968" lon="9.553395"><ele>242.0</ele><time>2026-04-25T13:43:15.228Z</time></trkpt><trkpt lat="45.69664" lon="9.5534683"><ele>242.0</ele><time>2026-04-25T13:43:16.228Z</time></trkpt><trkpt lat="45.69648" lon="9.553545"><ele>242.0</ele><time>2026-04-25T13:43:17.229Z</time></trkpt><trkpt lat="45.6963167" lon="9.5536233"><ele>242.0</ele><time>2026-04-25T13:43:18.229Z</time></trkpt><trkpt lat="45.6961517" lon="9.5536983"><ele>242.0</ele><time>2026-04-25T13:43:19.229Z</time></trkpt><trkpt lat="45.6959867" lon="9.55377"><ele>242.33333333333334</ele><time>2026-04-25T13:43:20.23Z</time></trkpt><trkpt lat="45.6958267" lon="9.5538417"><ele>242.66666666666669</ele><time>2026-04-25T13:43:21.23Z</time></trkpt><trkpt lat="45.6956733" lon="9.5539017"><ele>243.0</ele><time>2026-04-25T13:43:22.228Z</time></trkpt><trkpt lat="45.6955233" lon="9.5539583"><ele>243.0</ele><time>2026-04-25T13:43:23.231Z</time></trkpt><trkpt lat="45.6953833" lon="9.5540067"><ele>243.0</ele><time>2026-04-25T13:43:24.229Z</time></trkpt><trkpt lat="45.69525" lon="9.5540517"><ele>243.0</ele><time>2026-04-25T13:43:25.229Z</time></trkpt><trkpt lat="45.6951317" lon="9.5540867"><ele>243.0</ele><time>2026-04-25T13:43:26.23Z</time></trkpt><trkpt lat="45.695035" lon="9.55411"><ele>243.0</ele><time>2026-04-25T13:43:27.229Z</time></trkpt><trkpt lat="45.694955" lon="9.5541283"><ele>243.0</ele><time>2026-04-25T13:43:28.229Z</time></trkpt><trkpt lat="45.69489" lon="9.5541283"><ele>243.0</ele><time>2026-04-25T13:43:29.229Z</time></trkpt><trkpt lat="45.6948017" lon="9.5540883"><ele>243.0</ele><time>2026-04-25T13:43:31.228Z</time></trkpt><trkpt lat="45.6947583" lon="9.5539317"><ele>243.0</ele><time>2026-04-25T13:43:33.228Z</time></trkpt><trkpt lat="45.694755" lon="9.5537817"><ele>243.0</ele><time>2026-04-25T13:43:34.228Z</time></trkpt><trkpt lat="45.6947367" lon="9.5536117"><ele>243.0</ele><time>2026-04-25T13:43:35.228Z</time></trkpt><trkpt lat="45.6947067" lon="9.553415"><ele>243.0</ele><time>2026-04-25T13:43:36.228Z</time></trkpt><trkpt lat="45.69467" lon="9.5532183"><ele>243.0</ele><time>2026-04-25T13:43:37.228Z</time></trkpt><trkpt lat="45.6946433" lon="9.5530083"><ele>241.33333333333331</ele><time>2026-04-25T13:43:38.228Z</time></trkpt><trkpt lat="45.69461" lon="9.5527917"><ele>239.66666666666666</ele><time>2026-04-25T13:43:39.228Z</time></trkpt><trkpt lat="45.6945783" lon="9.552565"><ele>238.0</ele><time>2026-04-25T13:43:40.228Z</time></trkpt><trkpt lat="45.6945417" lon="9.5523367"><ele>238.0</ele><time>2026-04-25T13:43:41.228Z</time></trkpt><trkpt lat="45.6945083" lon="9.5521067"><ele>238.0</ele><time>2026-04-25T13:43:42.228Z</time></trkpt><trkpt lat="45.694475" lon="9.5518783"><ele>238.0</ele><time>2026-04-25T13:43:43.228Z</time></trkpt><trkpt lat="45.69444" lon="9.5516517"><ele>236.33333333333331</ele><time>2026-04-25T13:43:44.229Z</time></trkpt><trkpt lat="45.6944033" lon="9.5514217"><ele>234.66666666666669</ele><time>2026-04-25T13:43:45.229Z</time></trkpt><trkpt lat="45.6943683" lon="9.5511883"><ele>233.0</ele><time>2026-04-25T13:43:46.227Z</time></trkpt><trkpt lat="45.6943367" lon="9.5509483"><ele>233.0</ele><time>2026-04-25T13:43:47.229Z</time></trkpt><trkpt lat="45.6943033" lon="9.550705"><ele>233.0</ele><time>2026-04-25T13:43:48.229Z</time></trkpt><trkpt lat="45.6942667" lon="9.5504567"><ele>233.0</ele><time>2026-04-25T13:43:49.228Z</time></trkpt><trkpt lat="45.6942283" lon="9.5502117"><ele>233.33333333333334</ele><time>2026-04-25T13:43:50.229Z</time></trkpt><trkpt lat="45.6941917" lon="9.549975"><ele>233.66666666666669</ele><time>2026-04-25T13:43:51.229Z</time></trkpt><trkpt lat="45.6941583" lon="9.5497533"><ele>234.0</ele><time>2026-04-25T13:43:52.229Z</time></trkpt><trkpt lat="45.6941267" lon="9.5495417"><ele>233.33333333333331</ele><time>2026-04-25T13:43:53.228Z</time></trkpt><trkpt lat="45.6940933" lon="9.54933"><ele>232.66666666666666</ele><time>2026-04-25T13:43:54.229Z</time></trkpt><trkpt lat="45.6940617" lon="9.5491117"><ele>232.0</ele><time>2026-04-25T13:43:55.228Z</time></trkpt><trkpt lat="45.6940317" lon="9.5489"><ele>232.5</ele><time>2026-04-25T13:43:56.229Z</time></trkpt><trkpt lat="45.6940017" lon="9.5487067"><ele>233.0</ele><time>2026-04-25T13:43:57.232Z</time></trkpt><trkpt lat="45.6939767" lon="9.5485367"><ele>233.5</ele><time>2026-04-25T13:43:58.228Z</time></trkpt><trkpt lat="45.6939417" lon="9.5483883"><ele>234.0</ele><time>2026-04-25T13:43:59.228Z</time></trkpt><trkpt lat="45.6938917" lon="9.5482583"><ele>234.0</ele><time>2026-04-25T13:44:00.229Z</time></trkpt><trkpt lat="45.6938317" lon="9.5481533"><ele>233.99999999999997</ele><time>2026-04-25T13:44:01.23Z</time></trkpt><trkpt lat="45.693765" lon="9.5480583"><ele>233.99999999999997</ele><time>2026-04-25T13:44:02.228Z</time></trkpt><trkpt lat="45.6937117" lon="9.5479567"><ele>234.0</ele><time>2026-04-25T13:44:03.232Z</time></trkpt><trkpt lat="45.6936783" lon="9.5478417"><ele>234.0</ele><time>2026-04-25T13:44:04.23Z</time></trkpt><trkpt lat="45.693655" lon="9.5477117"><ele>234.2</ele><time>2026-04-25T13:44:05.233Z</time></trkpt><trkpt lat="45.6936317" lon="9.5475717"><ele>234.39999999999998</ele><time>2026-04-25T13:44:06.227Z</time></trkpt><trkpt lat="45.6936083" lon="9.5474183"><ele>234.6</ele><time>2026-04-25T13:44:07.227Z</time></trkpt><trkpt lat="45.6935817" lon="9.5472567"><ele>234.8</ele><time>2026-04-25T13:44:08.229Z</time></trkpt><trkpt lat="45.6935483" lon="9.5471017"><ele>235.0</ele><time>2026-04-25T13:44:09.228Z</time></trkpt><trkpt lat="45.69352" lon="9.54696"><ele>235.2</ele><time>2026-04-25T13:44:10.23Z</time></trkpt><trkpt lat="45.6934917" lon="9.5468383"><ele>235.4</ele><time>2026-04-25T13:44:11.229Z</time></trkpt><trkpt lat="45.693455" lon="9.5467167"><ele>235.60000000000002</ele><time>2026-04-25T13:44:12.227Z</time></trkpt><trkpt lat="45.6934067" lon="9.5465817"><ele>235.8</ele><time>2026-04-25T13:44:13.229Z</time></trkpt><trkpt lat="45.69335" lon="9.5464467"><ele>236.0</ele><time>2026-04-25T13:44:14.228Z</time></trkpt><trkpt lat="45.6932967" lon="9.5463167"><ele>235.8</ele><time>2026-04-25T13:44:15.23Z</time></trkpt><trkpt lat="45.6932517" lon="9.5461917"><ele>235.60000000000002</ele><time>2026-04-25T13:44:16.228Z</time></trkpt><trkpt lat="45.6931983" lon="9.5460667"><ele>235.4</ele><time>2026-04-25T13:44:17.23Z</time></trkpt><trkpt lat="45.6931467" lon="9.5459383"><ele>235.2</ele><time>2026-04-25T13:44:18.228Z</time></trkpt><trkpt lat="45.6931083" lon="9.5458067"><ele>235.0</ele><time>2026-04-25T13:44:19.23Z</time></trkpt><trkpt lat="45.69307" lon="9.5456817"><ele>235.0</ele><time>2026-04-25T13:44:20.228Z</time></trkpt><trkpt lat="45.693035" lon="9.54556"><ele>235.0</ele><time>2026-04-25T13:44:21.229Z</time></trkpt><trkpt lat="45.692995" lon="9.5454383"><ele>235.0</ele><time>2026-04-25T13:44:22.229Z</time></trkpt><trkpt lat="45.6929533" lon="9.5453133"><ele>235.0</ele><time>2026-04-25T13:44:23.228Z</time></trkpt><trkpt lat="45.6929017" lon="9.5451867"><ele>235.0</ele><time>2026-04-25T13:44:24.23Z</time></trkpt><trkpt lat="45.6928333" lon="9.545055"><ele>235.0</ele><time>2026-04-25T13:44:25.23Z</time></trkpt><trkpt lat="45.69276" lon="9.54492"><ele>235.0</ele><time>2026-04-25T13:44:26.228Z</time></trkpt><trkpt lat="45.6926817" lon="9.5447833"><ele>235.0</ele><time>2026-04-25T13:44:27.229Z</time></trkpt><trkpt lat="45.6925967" lon="9.54465"><ele>235.0</ele><time>2026-04-25T13:44:28.227Z</time></trkpt><trkpt lat="45.6925133" lon="9.5445233"><ele>235.0</ele><time>2026-04-25T13:44:29.228Z</time></trkpt><trkpt lat="45.6924367" lon="9.54441"><ele>235.0</ele><time>2026-04-25T13:44:30.234Z</time></trkpt><trkpt lat="45.6923583" lon="9.54431"><ele>235.0</ele><time>2026-04-25T13:44:31.227Z</time></trkpt><trkpt lat="45.6922783" lon="9.544215"><ele>235.0</ele><time>2026-04-25T13:44:32.232Z</time></trkpt><trkpt lat="45.6922033" lon="9.5441217"><ele>235.0</ele><time>2026-04-25T13:44:33.229Z</time></trkpt><trkpt lat="45.6921367" lon="9.5440283"><ele>234.99999999999997</ele><time>2026-04-25T13:44:34.228Z</time></trkpt><trkpt lat="45.69208" lon="9.5439367"><ele>235.0</ele><time>2026-04-25T13:44:35.229Z</time></trkpt><trkpt lat="45.6920383" lon="9.5438383"><ele>235.0</ele><time>2026-04-25T13:44:36.228Z</time></trkpt><trkpt lat="45.6920167" lon="9.54373"><ele>235.0</ele><time>2026-04-25T13:44:37.228Z</time></trkpt><trkpt lat="45.691995" lon="9.54362"><ele>234.99999999999997</ele><time>2026-04-25T13:44:38.228Z</time></trkpt><trkpt lat="45.6919633" lon="9.5435317"><ele>235.0</ele><time>2026-04-25T13:44:39.228Z</time></trkpt><trkpt lat="45.6919183" lon="9.5434667"><ele>235.2</ele><time>2026-04-25T13:44:40.229Z</time></trkpt><trkpt lat="45.691835" lon="9.5434267"><ele>235.4</ele><time>2026-04-25T13:44:41.228Z</time></trkpt><trkpt lat="45.69174" lon="9.5433967"><ele>235.60000000000002</ele><time>2026-04-25T13:44:42.229Z</time></trkpt><trkpt lat="45.6916433" lon="9.5433683"><ele>235.8</ele><time>2026-04-25T13:44:43.227Z</time></trkpt><trkpt lat="45.691555" lon="9.5433383"><ele>236.0</ele><time>2026-04-25T13:44:44.229Z</time></trkpt><trkpt lat="45.69148" lon="9.5432933"><ele>236.00000000000003</ele><time>2026-04-25T13:44:45.228Z</time></trkpt><trkpt lat="45.6914117" lon="9.5432233"><ele>236.0</ele><time>2026-04-25T13:44:46.229Z</time></trkpt><trkpt lat="45.6913633" lon="9.5431317"><ele>236.0</ele><time>2026-04-25T13:44:47.229Z</time></trkpt><trkpt lat="45.6913333" lon="9.5430267"><ele>236.0</ele><time>2026-04-25T13:44:48.229Z</time></trkpt><trkpt lat="45.6913233" lon="9.54291"><ele>236.00000000000003</ele><time>2026-04-25T13:44:49.228Z</time></trkpt><trkpt lat="45.69131" lon="9.5427733"><ele>236.0</ele><time>2026-04-25T13:44:50.23Z</time></trkpt><trkpt lat="45.6912917" lon="9.5426183"><ele>235.75</ele><time>2026-04-25T13:44:51.23Z</time></trkpt><trkpt lat="45.6912717" lon="9.54245"><ele>235.5</ele><time>2026-04-25T13:44:52.229Z</time></trkpt><trkpt lat="45.6912467" lon="9.5422683"><ele>235.25</ele><time>2026-04-25T13:44:53.229Z</time></trkpt><trkpt lat="45.6912183" lon="9.5420783"><ele>235.0</ele><time>2026-04-25T13:44:54.229Z</time></trkpt><trkpt lat="45.6911933" lon="9.5418983"><ele>234.8</ele><time>2026-04-25T13:44:55.229Z</time></trkpt><trkpt lat="45.6911717" lon="9.5417333"><ele>234.6</ele><time>2026-04-25T13:44:56.228Z</time></trkpt><trkpt lat="45.6911533" lon="9.54158"><ele>234.39999999999998</ele><time>2026-04-25T13:44:57.23Z</time></trkpt><trkpt lat="45.6911367" lon="9.5414283"><ele>234.2</ele><time>2026-04-25T13:44:58.229Z</time></trkpt><trkpt lat="45.6911183" lon="9.5412767"><ele>234.0</ele><time>2026-04-25T13:44:59.229Z</time></trkpt><trkpt lat="45.6911" lon="9.5411333"><ele>233.79999999999998</ele><time>2026-04-25T13:45:00.23Z</time></trkpt><trkpt lat="45.6910833" lon="9.5409983"><ele>233.59999999999997</ele><time>2026-04-25T13:45:01.228Z</time></trkpt><trkpt lat="45.69107" lon="9.54087"><ele>233.4</ele><time>2026-04-25T13:45:02.231Z</time></trkpt><trkpt lat="45.6910567" lon="9.540735"><ele>233.2</ele><time>2026-04-25T13:45:03.23Z</time></trkpt><trkpt lat="45.6910417" lon="9.5405867"><ele>233.0</ele><time>2026-04-25T13:45:04.23Z</time></trkpt><trkpt lat="45.6910233" lon="9.5404233"><ele>232.75</ele><time>2026-04-25T13:45:05.228Z</time></trkpt><trkpt lat="45.6910017" lon="9.5402383"><ele>232.5</ele><time>2026-04-25T13:45:06.228Z</time></trkpt><trkpt lat="45.690975" lon="9.54004"><ele>232.25</ele><time>2026-04-25T13:45:07.228Z</time></trkpt><trkpt lat="45.6909467" lon="9.5398283"><ele>232.0</ele><time>2026-04-25T13:45:08.228Z</time></trkpt><trkpt lat="45.6909233" lon="9.539625"><ele>232.5</ele><time>2026-04-25T13:45:09.231Z</time></trkpt><trkpt lat="45.6909017" lon="9.5394367"><ele>233.0</ele><time>2026-04-25T13:45:10.236Z</time></trkpt><trkpt lat="45.69088" lon="9.53926"><ele>233.5</ele><time>2026-04-25T13:45:11.228Z</time></trkpt><trkpt lat="45.69086" lon="9.539095"><ele>234.0</ele><time>2026-04-25T13:45:12.229Z</time></trkpt><trkpt lat="45.69084" lon="9.5389433"><ele>234.0</ele><time>2026-04-25T13:45:13.228Z</time></trkpt><trkpt lat="45.6908233" lon="9.5388083"><ele>233.99999999999997</ele><time>2026-04-25T13:45:14.229Z</time></trkpt><trkpt lat="45.6908117" lon="9.538695"><ele>233.99999999999997</ele><time>2026-04-25T13:45:15.229Z</time></trkpt><trkpt lat="45.6908067" lon="9.538605"><ele>234.0</ele><time>2026-04-25T13:45:16.229Z</time></trkpt><trkpt lat="45.6908083" lon="9.5384483"><ele>234.0</ele><time>2026-04-25T13:45:18.228Z</time></trkpt><trkpt lat="45.6908467" lon="9.538285"><ele>234.0</ele><time>2026-04-25T13:45:20.228Z</time></trkpt><trkpt lat="45.6908967" lon="9.538195"><ele>233.99999999999997</ele><time>2026-04-25T13:45:21.23Z</time></trkpt><trkpt lat="45.6909633" lon="9.538095"><ele>233.99999999999997</ele><time>2026-04-25T13:45:22.228Z</time></trkpt><trkpt lat="45.6910417" lon="9.5379817"><ele>234.0</ele><time>2026-04-25T13:45:23.229Z</time></trkpt><trkpt lat="45.69113" lon="9.5378533"><ele>234.0</ele><time>2026-04-25T13:45:24.229Z</time></trkpt><trkpt lat="45.6912267" lon="9.5377233"><ele>233.5</ele><time>2026-04-25T13:45:25.228Z</time></trkpt><trkpt lat="45.6913283" lon="9.5376"><ele>233.0</ele><time>2026-04-25T13:45:26.229Z</time></trkpt><trkpt lat="45.691435" lon="9.53748"><ele>232.5</ele><time>2026-04-25T13:45:27.23Z</time></trkpt><trkpt lat="45.6915433" lon="9.537375"><ele>232.0</ele><time>2026-04-25T13:45:28.229Z</time></trkpt><trkpt lat="45.6916483" lon="9.5372833"><ele>232.0</ele><time>2026-04-25T13:45:29.229Z</time></trkpt><trkpt lat="45.691755" lon="9.5372017"><ele>232.0</ele><time>2026-04-25T13:45:30.229Z</time></trkpt><trkpt lat="45.6918667" lon="9.5371283"><ele>232.0</ele><time>2026-04-25T13:45:31.228Z</time></trkpt><trkpt lat="45.69199" lon="9.5370783"><ele>232.0</ele><time>2026-04-25T13:45:32.229Z</time></trkpt><trkpt lat="45.69212" lon="9.537055"><ele>231.5</ele><time>2026-04-25T13:45:33.228Z</time></trkpt><trkpt lat="45.6922483" lon="9.5370483"><ele>231.0</ele><time>2026-04-25T13:45:34.228Z</time></trkpt><trkpt lat="45.6923783" lon="9.5370467"><ele>230.5</ele><time>2026-04-25T13:45:35.228Z</time></trkpt><trkpt lat="45.6925183" lon="9.5370433"><ele>230.0</ele><time>2026-04-25T13:45:36.227Z</time></trkpt><trkpt lat="45.69266" lon="9.537035"><ele>230.75</ele><time>2026-04-25T13:45:37.228Z</time></trkpt><trkpt lat="45.6927983" lon="9.5370267"><ele>231.5</ele><time>2026-04-25T13:45:38.228Z</time></trkpt><trkpt lat="45.6929283" lon="9.5370217"><ele>232.25</ele><time>2026-04-25T13:45:39.231Z</time></trkpt><trkpt lat="45.6930467" lon="9.537015"><ele>233.0</ele><time>2026-04-25T13:45:40.228Z</time></trkpt><trkpt lat="45.6931583" lon="9.53701"><ele>233.0</ele><time>2026-04-25T13:45:41.228Z</time></trkpt><trkpt lat="45.6932667" lon="9.5370033"><ele>233.0</ele><time>2026-04-25T13:45:42.229Z</time></trkpt><trkpt lat="45.693375" lon="9.5369967"><ele>233.0</ele><time>2026-04-25T13:45:43.229Z</time></trkpt><trkpt lat="45.693485" lon="9.5369883"><ele>233.0</ele><time>2026-04-25T13:45:44.228Z</time></trkpt><trkpt lat="45.6936017" lon="9.5369767"><ele>233.0</ele><time>2026-04-25T13:45:45.229Z</time></trkpt><trkpt lat="45.69372" lon="9.53695"><ele>233.5</ele><time>2026-04-25T13:45:46.229Z</time></trkpt><trkpt lat="45.693845" lon="9.5369217"><ele>234.0</ele><time>2026-04-25T13:45:47.229Z</time></trkpt><trkpt lat="45.6939733" lon="9.53689"><ele>234.5</ele><time>2026-04-25T13:45:48.228Z</time></trkpt><trkpt lat="45.6940983" lon="9.5368567"><ele>235.0</ele><time>2026-04-25T13:45:49.229Z</time></trkpt><trkpt lat="45.69422" lon="9.5368233"><ele>235.0</ele><time>2026-04-25T13:45:50.23Z</time></trkpt><trkpt lat="45.694345" lon="9.53679"><ele>235.0</ele><time>2026-04-25T13:45:51.23Z</time></trkpt><trkpt lat="45.694475" lon="9.5367583"><ele>235.0</ele><time>2026-04-25T13:45:52.229Z</time></trkpt><trkpt lat="45.6946067" lon="9.536725"><ele>235.0</ele><time>2026-04-25T13:45:53.229Z</time></trkpt><trkpt lat="45.6947383" lon="9.5366917"><ele>235.25</ele><time>2026-04-25T13:45:54.228Z</time></trkpt><trkpt lat="45.6948717" lon="9.5366567"><ele>235.5</ele><time>2026-04-25T13:45:55.227Z</time></trkpt><trkpt lat="45.6950033" lon="9.5366217"><ele>235.75</ele><time>2026-04-25T13:45:56.227Z</time></trkpt><trkpt lat="45.695135" lon="9.53659"><ele>236.0</ele><time>2026-04-25T13:45:57.228Z</time></trkpt><trkpt lat="45.6952633" lon="9.5365567"><ele>236.4</ele><time>2026-04-25T13:45:58.228Z</time></trkpt><trkpt lat="45.695385" lon="9.5365333"><ele>236.8</ele><time>2026-04-25T13:45:59.228Z</time></trkpt><trkpt lat="45.6954983" lon="9.5365083"><ele>237.20000000000002</ele><time>2026-04-25T13:46:00.228Z</time></trkpt><trkpt lat="45.695605" lon="9.536485"><ele>237.60000000000002</ele><time>2026-04-25T13:46:01.228Z</time></trkpt><trkpt lat="45.6957033" lon="9.53646"><ele>238.0</ele><time>2026-04-25T13:46:02.228Z</time></trkpt><trkpt lat="45.6958" lon="9.5364367"><ele>238.0</ele><time>2026-04-25T13:46:03.228Z</time></trkpt><trkpt lat="45.6958917" lon="9.536415"><ele>238.0</ele><time>2026-04-25T13:46:04.228Z</time></trkpt><trkpt lat="45.69598" lon="9.5363933"><ele>238.0</ele><time>2026-04-25T13:46:05.227Z</time></trkpt><trkpt lat="45.6960667" lon="9.5363717"><ele>238.0</ele><time>2026-04-25T13:46:06.228Z</time></trkpt><trkpt lat="45.6961567" lon="9.53635"><ele>238.0</ele><time>2026-04-25T13:46:07.23Z</time></trkpt><trkpt lat="45.6962433" lon="9.5363267"><ele>238.0</ele><time>2026-04-25T13:46:08.228Z</time></trkpt><trkpt lat="45.69632" lon="9.5363"><ele>238.0</ele><time>2026-04-25T13:46:09.228Z</time></trkpt><trkpt lat="45.6963917" lon="9.5362583"><ele>238.0</ele><time>2026-04-25T13:46:10.227Z</time></trkpt><trkpt lat="45.6964517" lon="9.5361967"><ele>238.0</ele><time>2026-04-25T13:46:11.227Z</time></trkpt><trkpt lat="45.696495" lon="9.5361217"><ele>238.0</ele><time>2026-04-25T13:46:12.229Z</time></trkpt><trkpt lat="45.6965117" lon="9.5360317"><ele>238.0</ele><time>2026-04-25T13:46:13.228Z</time></trkpt><trkpt lat="45.6965133" lon="9.5359383"><ele>238.0</ele><time>2026-04-25T13:46:14.227Z</time></trkpt><trkpt lat="45.69651" lon="9.535845"><ele>237.99999999999997</ele><time>2026-04-25T13:46:15.228Z</time></trkpt><trkpt lat="45.6964867" lon="9.5357483"><ele>238.0</ele><time>2026-04-25T13:46:16.227Z</time></trkpt><trkpt lat="45.69648" lon="9.5356533"><ele>238.0</ele><time>2026-04-25T13:46:17.228Z</time></trkpt><trkpt lat="45.696465" lon="9.5355533"><ele>238.0</ele><time>2026-04-25T13:46:18.228Z</time></trkpt><trkpt lat="45.69645" lon="9.53545"><ele>237.99999999999997</ele><time>2026-04-25T13:46:19.227Z</time></trkpt><trkpt lat="45.6964333" lon="9.535335"><ele>238.0</ele><time>2026-04-25T13:46:20.229Z</time></trkpt><trkpt lat="45.6964167" lon="9.5352133"><ele>237.99999999999997</ele><time>2026-04-25T13:46:21.229Z</time></trkpt><trkpt lat="45.6964033" lon="9.5350867"><ele>238.0</ele><time>2026-04-25T13:46:22.229Z</time></trkpt><trkpt lat="45.69639" lon="9.534955"><ele>238.0</ele><time>2026-04-25T13:46:23.227Z</time></trkpt><trkpt lat="45.6963833" lon="9.534825"><ele>238.0</ele><time>2026-04-25T13:46:24.227Z</time></trkpt><trkpt lat="45.6963767" lon="9.5347017"><ele>237.99999999999997</ele><time>2026-04-25T13:46:25.227Z</time></trkpt><trkpt lat="45.69637" lon="9.534575"><ele>238.0</ele><time>2026-04-25T13:46:26.227Z</time></trkpt><trkpt lat="45.6963683" lon="9.53447"><ele>237.99999999999997</ele><time>2026-04-25T13:46:27.228Z</time></trkpt><trkpt lat="45.6963733" lon="9.534375"><ele>238.0</ele><time>2026-04-25T13:46:28.228Z</time></trkpt><trkpt lat="45.6963983" lon="9.534235"><ele>238.0</ele><time>2026-04-25T13:46:30.228Z</time></trkpt><trkpt lat="45.6964383" lon="9.5341217"><ele>238.0</ele><time>2026-04-25T13:46:32.23Z</time></trkpt><trkpt lat="45.6965133" lon="9.53401"><ele>237.99999999999997</ele><time>2026-04-25T13:46:34.228Z</time></trkpt><trkpt lat="45.6965717" lon="9.5339533"><ele>238.0</ele><time>2026-04-25T13:46:35.229Z</time></trkpt><trkpt lat="45.6966417" lon="9.5338983"><ele>237.99999999999997</ele><time>2026-04-25T13:46:36.228Z</time></trkpt><trkpt lat="45.6967167" lon="9.53386"><ele>238.0</ele><time>2026-04-25T13:46:37.227Z</time></trkpt><trkpt lat="45.696785" lon="9.5338317"><ele>238.0</ele><time>2026-04-25T13:46:38.227Z</time></trkpt><trkpt lat="45.69685" lon="9.533805"><ele>238.0</ele><time>2026-04-25T13:46:39.229Z</time></trkpt><trkpt lat="45.6969117" lon="9.533775"><ele>237.99999999999997</ele><time>2026-04-25T13:46:40.228Z</time></trkpt><trkpt lat="45.697025" lon="9.5337217"><ele>238.0</ele><time>2026-04-25T13:46:42.227Z</time></trkpt><trkpt lat="45.6971433" lon="9.5336633"><ele>239.0</ele><time>2026-04-25T13:46:44.228Z</time></trkpt><trkpt lat="45.6972183" lon="9.533625"><ele>240.0</ele><time>2026-04-25T13:46:45.229Z</time></trkpt><trkpt lat="45.6973017" lon="9.5335767"><ele>241.0</ele><time>2026-04-25T13:46:46.228Z</time></trkpt><trkpt lat="45.6973833" lon="9.53351"><ele>242.0</ele><time>2026-04-25T13:46:47.229Z</time></trkpt><trkpt lat="45.6974617" lon="9.5334267"><ele>243.0</ele><time>2026-04-25T13:46:48.228Z</time></trkpt><trkpt lat="45.6975383" lon="9.5333283"><ele>243.0</ele><time>2026-04-25T13:46:49.227Z</time></trkpt><trkpt lat="45.6976183" lon="9.53322"><ele>243.0</ele><time>2026-04-25T13:46:50.232Z</time></trkpt><trkpt lat="45.6977083" lon="9.5331067"><ele>243.0</ele><time>2026-04-25T13:46:51.228Z</time></trkpt><trkpt lat="45.697805" lon="9.533"><ele>243.0</ele><time>2026-04-25T13:46:52.228Z</time></trkpt><trkpt lat="45.6979" lon="9.5329117"><ele>242.8</ele><time>2026-04-25T13:46:53.227Z</time></trkpt><trkpt lat="45.6979867" lon="9.5328467"><ele>242.60000000000002</ele><time>2026-04-25T13:46:54.228Z</time></trkpt><trkpt lat="45.698075" lon="9.5328167"><ele>242.39999999999998</ele><time>2026-04-25T13:46:55.227Z</time></trkpt><trkpt lat="45.6981717" lon="9.5328083"><ele>242.2</ele><time>2026-04-25T13:46:56.228Z</time></trkpt><trkpt lat="45.6982733" lon="9.53281"><ele>242.0</ele><time>2026-04-25T13:46:57.229Z</time></trkpt><trkpt lat="45.6983683" lon="9.53281"><ele>242.00000000000003</ele><time>2026-04-25T13:46:58.228Z</time></trkpt><trkpt lat="45.6984533" lon="9.5327917"><ele>242.0</ele><time>2026-04-25T13:46:59.229Z</time></trkpt><trkpt lat="45.69853" lon="9.532765"><ele>242.0</ele><time>2026-04-25T13:47:00.228Z</time></trkpt><trkpt lat="45.6985983" lon="9.532695"><ele>242.0</ele><time>2026-04-25T13:47:01.227Z</time></trkpt><trkpt lat="45.698655" lon="9.5326017"><ele>242.00000000000003</ele><time>2026-04-25T13:47:02.228Z</time></trkpt><trkpt lat="45.6987067" lon="9.5324867"><ele>242.0</ele><time>2026-04-25T13:47:03.227Z</time></trkpt><trkpt lat="45.69875" lon="9.5323617"><ele>243.00000000000003</ele><time>2026-04-25T13:47:04.227Z</time></trkpt><trkpt lat="45.6987733" lon="9.5322133"><ele>244.0</ele><time>2026-04-25T13:47:05.227Z</time></trkpt><trkpt lat="45.698805" lon="9.5320833"><ele>245.0</ele><time>2026-04-25T13:47:06.23Z</time></trkpt><trkpt lat="45.6988317" lon="9.5319567"><ele>246.0</ele><time>2026-04-25T13:47:07.228Z</time></trkpt><trkpt lat="45.69886" lon="9.5318517"><ele>247.00000000000003</ele><time>2026-04-25T13:47:08.228Z</time></trkpt><trkpt lat="45.6988933" lon="9.5317567"><ele>248.0</ele><time>2026-04-25T13:47:09.229Z</time></trkpt><trkpt lat="45.6989233" lon="9.5316667"><ele>248.0</ele><time>2026-04-25T13:47:10.229Z</time></trkpt><trkpt lat="45.6989517" lon="9.5315833"><ele>248.00000000000003</ele><time>2026-04-25T13:47:11.229Z</time></trkpt><trkpt lat="45.6989833" lon="9.5315017"><ele>248.0</ele><time>2026-04-25T13:47:12.229Z</time></trkpt><trkpt lat="45.6990183" lon="9.5314133"><ele>248.0</ele><time>2026-04-25T13:47:13.229Z</time></trkpt><trkpt lat="45.6990583" lon="9.5313233"><ele>248.00000000000003</ele><time>2026-04-25T13:47:14.229Z</time></trkpt><trkpt lat="45.699095" lon="9.531225"><ele>248.0</ele><time>2026-04-25T13:47:15.23Z</time></trkpt><trkpt lat="45.699135" lon="9.531145"><ele>248.0</ele><time>2026-04-25T13:47:16.23Z</time></trkpt><trkpt lat="45.6992017" lon="9.531015"><ele>247.33333333333334</ele><time>2026-04-25T13:47:18.229Z</time></trkpt><trkpt lat="45.6992467" lon="9.5309167"><ele>246.66666666666669</ele><time>2026-04-25T13:47:20.228Z</time></trkpt><trkpt lat="45.69929" lon="9.5308283"><ele>246.0</ele><time>2026-04-25T13:47:23.229Z</time></trkpt><trkpt lat="45.6993317" lon="9.5307567"><ele>245.33333333333331</ele><time>2026-04-25T13:47:25.229Z</time></trkpt><trkpt lat="45.6993683" lon="9.5306267"><ele>244.66666666666666</ele><time>2026-04-25T13:47:27.227Z</time></trkpt><trkpt lat="45.6993933" lon="9.530495"><ele>244.0</ele><time>2026-04-25T13:47:29.229Z</time></trkpt><trkpt lat="45.6993617" lon="9.5303883"><ele>243.79999999999998</ele><time>2026-04-25T13:47:32.228Z</time></trkpt><trkpt lat="45.699255" lon="9.5304367"><ele>243.59999999999997</ele><time>2026-04-25T13:47:40.233Z</time></trkpt><trkpt lat="45.6991633" lon="9.5305033"><ele>243.4</ele><time>2026-04-25T13:47:42.228Z</time></trkpt><trkpt lat="45.6990883" lon="9.5305617"><ele>243.2</ele><time>2026-04-25T13:47:45.228Z</time></trkpt><trkpt lat="45.69902" lon="9.5305783"><ele>243.0</ele><time>2026-04-25T13:47:58.228Z</time></trkpt><trkpt lat="45.6991117" lon="9.5304883"><ele>243.0</ele><time>2026-04-25T13:59:54.231Z</time></trkpt><trkpt lat="45.6992" lon="9.530455"><ele>243.0</ele><time>2026-04-25T13:59:56.229Z</time></trkpt><trkpt lat="45.6992783" lon="9.5304583"><ele>243.0</ele><time>2026-04-25T13:59:58.228Z</time></trkpt><trkpt lat="45.6993317" lon="9.53052"><ele>243.0</ele><time>2026-04-25T14:00:00.229Z</time></trkpt><trkpt lat="45.6993417" lon="9.5306267"><ele>243.0</ele><time>2026-04-25T14:00:02.233Z</time></trkpt><trkpt lat="45.69931" lon="9.5307467"><ele>243.0</ele><time>2026-04-25T14:00:04.228Z</time></trkpt><trkpt lat="45.6992467" lon="9.5308683"><ele>243.0</ele><time>2026-04-25T14:00:06.229Z</time></trkpt><trkpt lat="45.6992" lon="9.53093"><ele>243.0</ele><time>2026-04-25T14:00:07.229Z</time></trkpt><trkpt lat="45.69915" lon="9.531005"><ele>243.0</ele><time>2026-04-25T14:00:08.23Z</time></trkpt><trkpt lat="45.6991017" lon="9.5310983"><ele>243.0</ele><time>2026-04-25T14:00:09.229Z</time></trkpt><trkpt lat="45.6990617" lon="9.531185"><ele>243.0</ele><time>2026-04-25T14:00:10.228Z</time></trkpt><trkpt lat="45.69902" lon="9.5312867"><ele>243.0</ele><time>2026-04-25T14:00:11.23Z</time></trkpt><trkpt lat="45.6989767" lon="9.5313933"><ele>244.0</ele><time>2026-04-25T14:00:12.228Z</time></trkpt><trkpt lat="45.6989383" lon="9.5315033"><ele>245.0</ele><time>2026-04-25T14:00:13.228Z</time></trkpt><trkpt lat="45.6989067" lon="9.531625"><ele>246.0</ele><time>2026-04-25T14:00:14.228Z</time></trkpt><trkpt lat="45.6988733" lon="9.5317483"><ele>247.0</ele><time>2026-04-25T14:00:15.229Z</time></trkpt><trkpt lat="45.6988383" lon="9.5318733"><ele>248.0</ele><time>2026-04-25T14:00:16.228Z</time></trkpt><trkpt lat="45.6988033" lon="9.5319967"><ele>248.50000000000003</ele><time>2026-04-25T14:00:17.228Z</time></trkpt><trkpt lat="45.698765" lon="9.5321183"><ele>249.0</ele><time>2026-04-25T14:00:18.229Z</time></trkpt><trkpt lat="45.6987367" lon="9.5322417"><ele>249.5</ele><time>2026-04-25T14:00:19.228Z</time></trkpt><trkpt lat="45.6987083" lon="9.532355"><ele>250.0</ele><time>2026-04-25T14:00:20.229Z</time></trkpt><trkpt lat="45.6986767" lon="9.532455"><ele>250.50000000000003</ele><time>2026-04-25T14:00:21.23Z</time></trkpt><trkpt lat="45.6986383" lon="9.5325483"><ele>251.0</ele><time>2026-04-25T14:00:22.228Z</time></trkpt><trkpt lat="45.6985933" lon="9.5326367"><ele>249.50000000000003</ele><time>2026-04-25T14:00:23.228Z</time></trkpt><trkpt lat="45.6985467" lon="9.5327183"><ele>248.0</ele><time>2026-04-25T14:00:24.231Z</time></trkpt><trkpt lat="45.6984817" lon="9.532775"><ele>246.5</ele><time>2026-04-25T14:00:25.229Z</time></trkpt><trkpt lat="45.6984017" lon="9.5328"><ele>245.0</ele><time>2026-04-25T14:00:26.229Z</time></trkpt><trkpt lat="45.6983117" lon="9.5328067"><ele>243.50000000000003</ele><time>2026-04-25T14:00:27.229Z</time></trkpt><trkpt lat="45.6982217" lon="9.5328083"><ele>242.0</ele><time>2026-04-25T14:00:28.228Z</time></trkpt><trkpt lat="45.6981317" lon="9.5328183"><ele>242.0</ele><time>2026-04-25T14:00:29.228Z</time></trkpt><trkpt lat="45.6980417" lon="9.53284"><ele>242.0</ele><time>2026-04-25T14:00:30.229Z</time></trkpt><trkpt lat="45.69795" lon="9.532875"><ele>242.0</ele><time>2026-04-25T14:00:31.228Z</time></trkpt><trkpt lat="45.6978683" lon="9.5329333"><ele>242.0</ele><time>2026-04-25T14:00:32.23Z</time></trkpt><trkpt lat="45.6977933" lon="9.533005"><ele>242.0</ele><time>2026-04-25T14:00:33.228Z</time></trkpt><trkpt lat="45.69772" lon="9.533085"><ele>242.2</ele><time>2026-04-25T14:00:34.23Z</time></trkpt><trkpt lat="45.69765" lon="9.53317"><ele>242.39999999999998</ele><time>2026-04-25T14:00:35.229Z</time></trkpt><trkpt lat="45.69758" lon="9.5332567"><ele>242.60000000000002</ele><time>2026-04-25T14:00:36.228Z</time></trkpt><trkpt lat="45.69751" lon="9.533345"><ele>242.8</ele><time>2026-04-25T14:00:37.229Z</time></trkpt><trkpt lat="45.6974367" lon="9.5334333"><ele>243.0</ele><time>2026-04-25T14:00:38.229Z</time></trkpt><trkpt lat="45.69727" lon="9.533575"><ele>243.0</ele><time>2026-04-25T14:00:40.228Z</time></trkpt><trkpt lat="45.6971817" lon="9.5336217"><ele>243.0</ele><time>2026-04-25T14:00:41.228Z</time></trkpt><trkpt lat="45.6970933" lon="9.5336633"><ele>243.0</ele><time>2026-04-25T14:00:42.229Z</time></trkpt><trkpt lat="45.6970067" lon="9.5337017"><ele>243.0</ele><time>2026-04-25T14:00:43.231Z</time></trkpt><trkpt lat="45.6969183" lon="9.5337383"><ele>243.0</ele><time>2026-04-25T14:00:44.229Z</time></trkpt><trkpt lat="45.696835" lon="9.5337733"><ele>242.28571428571428</ele><time>2026-04-25T14:00:45.228Z</time></trkpt><trkpt lat="45.696755" lon="9.5338033"><ele>241.57142857142858</ele><time>2026-04-25T14:00:46.228Z</time></trkpt><trkpt lat="45.69668" lon="9.5338317"><ele>240.85714285714286</ele><time>2026-04-25T14:00:47.23Z</time></trkpt><trkpt lat="45.6966117" lon="9.5338683"><ele>240.14285714285714</ele><time>2026-04-25T14:00:48.23Z</time></trkpt><trkpt lat="45.6965483" lon="9.5339167"><ele>239.42857142857144</ele><time>2026-04-25T14:00:49.228Z</time></trkpt><trkpt lat="45.69649" lon="9.53398"><ele>238.71428571428572</ele><time>2026-04-25T14:00:50.228Z</time></trkpt><trkpt lat="45.6964433" lon="9.5340567"><ele>238.0</ele><time>2026-04-25T14:00:51.23Z</time></trkpt><trkpt lat="45.6964067" lon="9.5341383"><ele>237.99999999999997</ele><time>2026-04-25T14:00:52.228Z</time></trkpt><trkpt lat="45.6963783" lon="9.5342283"><ele>238.0</ele><time>2026-04-25T14:00:53.23Z</time></trkpt><trkpt lat="45.6963617" lon="9.5343233"><ele>238.0</ele><time>2026-04-25T14:00:54.229Z</time></trkpt><trkpt lat="45.6963517" lon="9.5344183"><ele>238.0</ele><time>2026-04-25T14:00:55.229Z</time></trkpt><trkpt lat="45.69635" lon="9.534515"><ele>237.99999999999997</ele><time>2026-04-25T14:00:56.229Z</time></trkpt><trkpt lat="45.6963517" lon="9.5346083"><ele>238.0</ele><time>2026-04-25T14:00:57.229Z</time></trkpt><trkpt lat="45.6963583" lon="9.53478"><ele>238.0</ele><time>2026-04-25T14:00:59.23Z</time></trkpt><trkpt lat="45.6963667" lon="9.5349367"><ele>238.0</ele><time>2026-04-25T14:01:01.229Z</time></trkpt><trkpt lat="45.6963817" lon="9.5350833"><ele>238.0</ele><time>2026-04-25T14:01:03.23Z</time></trkpt><trkpt lat="45.6964" lon="9.53527"><ele>238.0</ele><time>2026-04-25T14:01:05.228Z</time></trkpt><trkpt lat="45.69641" lon="9.5353733"><ele>238.0</ele><time>2026-04-25T14:01:06.23Z</time></trkpt><trkpt lat="45.69642" lon="9.5354817"><ele>237.99999999999997</ele><time>2026-04-25T14:01:07.229Z</time></trkpt><trkpt lat="45.69643" lon="9.5355933"><ele>238.0</ele><time>2026-04-25T14:01:08.228Z</time></trkpt><trkpt lat="45.6964383" lon="9.5357133"><ele>238.0</ele><time>2026-04-25T14:01:09.23Z</time></trkpt><trkpt lat="45.696445" lon="9.53583"><ele>238.0</ele><time>2026-04-25T14:01:10.229Z</time></trkpt><trkpt lat="45.6964517" lon="9.5359383"><ele>237.99999999999997</ele><time>2026-04-25T14:01:11.228Z</time></trkpt><trkpt lat="45.6964467" lon="9.5360383"><ele>238.0</ele><time>2026-04-25T14:01:12.229Z</time></trkpt><trkpt lat="45.6964283" lon="9.5361267"><ele>237.99999999999997</ele><time>2026-04-25T14:01:13.228Z</time></trkpt><trkpt lat="45.6963583" lon="9.5362317"><ele>238.0</ele><time>2026-04-25T14:01:15.229Z</time></trkpt><trkpt lat="45.6962433" lon="9.5362733"><ele>238.0</ele><time>2026-04-25T14:01:17.228Z</time></trkpt><trkpt lat="45.6961783" lon="9.5362917"><ele>238.0</ele><time>2026-04-25T14:01:18.229Z</time></trkpt><trkpt lat="45.6961067" lon="9.53631"><ele>237.99999999999997</ele><time>2026-04-25T14:01:19.229Z</time></trkpt><trkpt lat="45.6960283" lon="9.536335"><ele>238.0</ele><time>2026-04-25T14:01:20.23Z</time></trkpt><trkpt lat="45.6959417" lon="9.53636"><ele>238.0</ele><time>2026-04-25T14:01:21.229Z</time></trkpt><trkpt lat="45.69585" lon="9.536385"><ele>238.0</ele><time>2026-04-25T14:01:22.229Z</time></trkpt><trkpt lat="45.6957583" lon="9.53641"><ele>238.0</ele><time>2026-04-25T14:01:23.229Z</time></trkpt><trkpt lat="45.6956633" lon="9.5364317"><ele>238.0</ele><time>2026-04-25T14:01:24.229Z</time></trkpt><trkpt lat="45.6955667" lon="9.536455"><ele>238.0</ele><time>2026-04-25T14:01:25.23Z</time></trkpt><trkpt lat="45.6954683" lon="9.536475"><ele>238.0</ele><time>2026-04-25T14:01:26.229Z</time></trkpt><trkpt lat="45.6953667" lon="9.5364967"><ele>238.0</ele><time>2026-04-25T14:01:27.229Z</time></trkpt><trkpt lat="45.6952633" lon="9.53652"><ele>238.0</ele><time>2026-04-25T14:01:28.229Z</time></trkpt><trkpt lat="45.695155" lon="9.536545"><ele>238.0</ele><time>2026-04-25T14:01:29.229Z</time></trkpt><trkpt lat="45.695045" lon="9.5365717"><ele>238.0</ele><time>2026-04-25T14:01:30.23Z</time></trkpt><trkpt lat="45.69493" lon="9.5365983"><ele>237.5</ele><time>2026-04-25T14:01:31.228Z</time></trkpt><trkpt lat="45.6948167" lon="9.5366267"><ele>237.0</ele><time>2026-04-25T14:01:32.229Z</time></trkpt><trkpt lat="45.6947017" lon="9.5366567"><ele>236.5</ele><time>2026-04-25T14:01:33.229Z</time></trkpt><trkpt lat="45.694585" lon="9.53669"><ele>236.0</ele><time>2026-04-25T14:01:34.229Z</time></trkpt><trkpt lat="45.6944733" lon="9.5367217"><ele>235.8</ele><time>2026-04-25T14:01:35.229Z</time></trkpt><trkpt lat="45.694365" lon="9.53675"><ele>235.60000000000002</ele><time>2026-04-25T14:01:36.229Z</time></trkpt><trkpt lat="45.6942583" lon="9.53678"><ele>235.4</ele><time>2026-04-25T14:01:37.228Z</time></trkpt><trkpt lat="45.6941533" lon="9.5368067"><ele>235.2</ele><time>2026-04-25T14:01:38.229Z</time></trkpt><trkpt lat="45.6940517" lon="9.5368333"><ele>235.0</ele><time>2026-04-25T14:01:39.229Z</time></trkpt><trkpt lat="45.6939483" lon="9.5368583"><ele>235.0</ele><time>2026-04-25T14:01:40.229Z</time></trkpt><trkpt lat="45.693845" lon="9.53688"><ele>235.0</ele><time>2026-04-25T14:01:41.229Z</time></trkpt><trkpt lat="45.69374" lon="9.5369017"><ele>235.0</ele><time>2026-04-25T14:01:42.229Z</time></trkpt><trkpt lat="45.6936333" lon="9.5369233"><ele>235.0</ele><time>2026-04-25T14:01:43.23Z</time></trkpt><trkpt lat="45.6935233" lon="9.53694"><ele>235.0</ele><time>2026-04-25T14:01:44.229Z</time></trkpt><trkpt lat="45.6934167" lon="9.5369533"><ele>234.6</ele><time>2026-04-25T14:01:45.23Z</time></trkpt><trkpt lat="45.6933117" lon="9.53696"><ele>234.2</ele><time>2026-04-25T14:01:46.229Z</time></trkpt><trkpt lat="45.6932133" lon="9.5369667"><ele>233.8</ele><time>2026-04-25T14:01:47.229Z</time></trkpt><trkpt lat="45.6931183" lon="9.5369733"><ele>233.4</ele><time>2026-04-25T14:01:48.232Z</time></trkpt><trkpt lat="45.6930183" lon="9.5369767"><ele>233.0</ele><time>2026-04-25T14:01:49.227Z</time></trkpt><trkpt lat="45.6929117" lon="9.53698"><ele>233.0</ele><time>2026-04-25T14:01:50.227Z</time></trkpt><trkpt lat="45.6928" lon="9.536985"><ele>233.0</ele><time>2026-04-25T14:01:51.229Z</time></trkpt><trkpt lat="45.6926867" lon="9.5369917"><ele>233.0</ele><time>2026-04-25T14:01:52.228Z</time></trkpt><trkpt lat="45.69257" lon="9.5369967"><ele>233.0</ele><time>2026-04-25T14:01:53.228Z</time></trkpt><trkpt lat="45.6924483" lon="9.5370033"><ele>233.25</ele><time>2026-04-25T14:01:54.23Z</time></trkpt><trkpt lat="45.692325" lon="9.5370083"><ele>233.5</ele><time>2026-04-25T14:01:55.229Z</time></trkpt><trkpt lat="45.6921983" lon="9.5370167"><ele>233.75</ele><time>2026-04-25T14:01:56.227Z</time></trkpt><trkpt lat="45.6920717" lon="9.537035"><ele>234.0</ele><time>2026-04-25T14:01:57.229Z</time></trkpt><trkpt lat="45.6919483" lon="9.5370683"><ele>233.5</ele><time>2026-04-25T14:01:58.228Z</time></trkpt><trkpt lat="45.6918267" lon="9.5371217"><ele>233.0</ele><time>2026-04-25T14:01:59.229Z</time></trkpt><trkpt lat="45.69171" lon="9.5371933"><ele>232.5</ele><time>2026-04-25T14:02:00.227Z</time></trkpt><trkpt lat="45.6915983" lon="9.5372833"><ele>232.0</ele><time>2026-04-25T14:02:01.228Z</time></trkpt><trkpt lat="45.6914883" lon="9.537385"><ele>232.0</ele><time>2026-04-25T14:02:02.228Z</time></trkpt><trkpt lat="45.6913833" lon="9.5374967"><ele>232.0</ele><time>2026-04-25T14:02:03.227Z</time></trkpt><trkpt lat="45.6912817" lon="9.5376133"><ele>232.0</ele><time>2026-04-25T14:02:04.229Z</time></trkpt><trkpt lat="45.6911833" lon="9.53774"><ele>232.0</ele><time>2026-04-25T14:02:05.229Z</time></trkpt><trkpt lat="45.6910883" lon="9.5378733"><ele>232.5</ele><time>2026-04-25T14:02:06.227Z</time></trkpt><trkpt lat="45.6909967" lon="9.53801"><ele>233.0</ele><time>2026-04-25T14:02:07.227Z</time></trkpt><trkpt lat="45.69091" lon="9.5381483"><ele>233.5</ele><time>2026-04-25T14:02:08.228Z</time></trkpt><trkpt lat="45.6908283" lon="9.5382933"><ele>234.0</ele><time>2026-04-25T14:02:09.229Z</time></trkpt><trkpt lat="45.69075" lon="9.538445"><ele>234.0</ele><time>2026-04-25T14:02:10.228Z</time></trkpt><trkpt lat="45.690675" lon="9.5386"><ele>234.0</ele><time>2026-04-25T14:02:11.228Z</time></trkpt><trkpt lat="45.6906017" lon="9.5387567"><ele>234.0</ele><time>2026-04-25T14:02:12.227Z</time></trkpt><trkpt lat="45.6905283" lon="9.5389083"><ele>234.0</ele><time>2026-04-25T14:02:13.228Z</time></trkpt><trkpt lat="45.690455" lon="9.5390567"><ele>234.0</ele><time>2026-04-25T14:02:14.228Z</time></trkpt><trkpt lat="45.690375" lon="9.539205"><ele>234.0</ele><time>2026-04-25T14:02:15.228Z</time></trkpt><trkpt lat="45.690295" lon="9.5393517"><ele>234.0</ele><time>2026-04-25T14:02:16.229Z</time></trkpt><trkpt lat="45.6902067" lon="9.5394917"><ele>234.0</ele><time>2026-04-25T14:02:17.227Z</time></trkpt><trkpt lat="45.6901167" lon="9.539625"><ele>233.75</ele><time>2026-04-25T14:02:18.227Z</time></trkpt><trkpt lat="45.6900233" lon="9.5397533"><ele>233.5</ele><time>2026-04-25T14:02:19.227Z</time></trkpt><trkpt lat="45.6899283" lon="9.539875"><ele>233.25</ele><time>2026-04-25T14:02:20.227Z</time></trkpt><trkpt lat="45.6898317" lon="9.5399967"><ele>233.0</ele><time>2026-04-25T14:02:21.229Z</time></trkpt><trkpt lat="45.689735" lon="9.5401083"><ele>233.0</ele><time>2026-04-25T14:02:22.228Z</time></trkpt><trkpt lat="45.6896383" lon="9.5402017"><ele>233.0</ele><time>2026-04-25T14:02:23.227Z</time></trkpt><trkpt lat="45.6895483" lon="9.540285"><ele>233.0</ele><time>2026-04-25T14:02:24.227Z</time></trkpt><trkpt lat="45.6894617" lon="9.5403533"><ele>233.0</ele><time>2026-04-25T14:02:25.227Z</time></trkpt><trkpt lat="45.6893733" lon="9.5404117"><ele>233.0</ele><time>2026-04-25T14:02:26.228Z</time></trkpt><trkpt lat="45.689285" lon="9.5404583"><ele>232.83333333333334</ele><time>2026-04-25T14:02:27.228Z</time></trkpt><trkpt lat="45.689195" lon="9.540495"><ele>232.66666666666669</ele><time>2026-04-25T14:02:28.228Z</time></trkpt><trkpt lat="45.689105" lon="9.5405217"><ele>232.5</ele><time>2026-04-25T14:02:29.228Z</time></trkpt><trkpt lat="45.6890183" lon="9.540535"><ele>232.33333333333331</ele><time>2026-04-25T14:02:30.229Z</time></trkpt><trkpt lat="45.68893" lon="9.5405467"><ele>232.16666666666666</ele><time>2026-04-25T14:02:31.227Z</time></trkpt><trkpt lat="45.688845" lon="9.5405567"><ele>232.0</ele><time>2026-04-25T14:02:32.229Z</time></trkpt><trkpt lat="45.6887583" lon="9.5405667"><ele>232.0</ele><time>2026-04-25T14:02:33.229Z</time></trkpt><trkpt lat="45.688665" lon="9.5405817"><ele>232.0</ele><time>2026-04-25T14:02:34.229Z</time></trkpt><trkpt lat="45.688565" lon="9.5406"><ele>232.0</ele><time>2026-04-25T14:02:35.229Z</time></trkpt><trkpt lat="45.6884583" lon="9.54062"><ele>232.0</ele><time>2026-04-25T14:02:36.23Z</time></trkpt><trkpt lat="45.6883467" lon="9.5406417"><ele>232.0</ele><time>2026-04-25T14:02:37.227Z</time></trkpt><trkpt lat="45.6882333" lon="9.5406617"><ele>232.2</ele><time>2026-04-25T14:02:38.228Z</time></trkpt><trkpt lat="45.688125" lon="9.54068"><ele>232.39999999999998</ele><time>2026-04-25T14:02:39.228Z</time></trkpt><trkpt lat="45.688025" lon="9.5406983"><ele>232.60000000000002</ele><time>2026-04-25T14:02:40.228Z</time></trkpt><trkpt lat="45.68793" lon="9.5407133"><ele>232.8</ele><time>2026-04-25T14:02:41.228Z</time></trkpt><trkpt lat="45.68784" lon="9.5407267"><ele>233.0</ele><time>2026-04-25T14:02:42.227Z</time></trkpt><trkpt lat="45.6877583" lon="9.540735"><ele>232.16666666666669</ele><time>2026-04-25T14:02:43.228Z</time></trkpt><trkpt lat="45.68769" lon="9.54074"><ele>231.33333333333334</ele><time>2026-04-25T14:02:44.228Z</time></trkpt><trkpt lat="45.6876017" lon="9.540745"><ele>230.5</ele><time>2026-04-25T14:02:46.228Z</time></trkpt><trkpt lat="45.6875133" lon="9.5407067"><ele>229.66666666666669</ele><time>2026-04-25T14:02:49.228Z</time></trkpt><trkpt lat="45.6874467" lon="9.5405883"><ele>228.83333333333334</ele><time>2026-04-25T14:02:51.228Z</time></trkpt><trkpt lat="45.6874167" lon="9.540495"><ele>228.0</ele><time>2026-04-25T14:02:52.227Z</time></trkpt><trkpt lat="45.6873967" lon="9.540375"><ele>228.0</ele><time>2026-04-25T14:02:53.227Z</time></trkpt><trkpt lat="45.6873767" lon="9.540245"><ele>228.0</ele><time>2026-04-25T14:02:54.227Z</time></trkpt><trkpt lat="45.6873517" lon="9.5401017"><ele>228.0</ele><time>2026-04-25T14:02:55.227Z</time></trkpt><trkpt lat="45.687325" lon="9.5399467"><ele>228.0</ele><time>2026-04-25T14:02:56.228Z</time></trkpt><trkpt lat="45.687295" lon="9.5397717"><ele>228.0</ele><time>2026-04-25T14:02:57.227Z</time></trkpt><trkpt lat="45.687265" lon="9.5395983"><ele>228.75</ele><time>2026-04-25T14:02:58.228Z</time></trkpt><trkpt lat="45.6872383" lon="9.5394283"><ele>229.5</ele><time>2026-04-25T14:02:59.228Z</time></trkpt><trkpt lat="45.6872133" lon="9.5392567"><ele>230.25</ele><time>2026-04-25T14:03:00.228Z</time></trkpt><trkpt lat="45.687185" lon="9.5390833"><ele>231.0</ele><time>2026-04-25T14:03:01.229Z</time></trkpt><trkpt lat="45.6871533" lon="9.5389083"><ele>231.0</ele><time>2026-04-25T14:03:02.229Z</time></trkpt><trkpt lat="45.6871233" lon="9.53873"><ele>231.0</ele><time>2026-04-25T14:03:03.229Z</time></trkpt><trkpt lat="45.6870917" lon="9.5385433"><ele>231.0</ele><time>2026-04-25T14:03:04.228Z</time></trkpt><trkpt lat="45.6870633" lon="9.5383483"><ele>231.0</ele><time>2026-04-25T14:03:05.228Z</time></trkpt><trkpt lat="45.6870333" lon="9.53815"><ele>231.0</ele><time>2026-04-25T14:03:06.228Z</time></trkpt><trkpt lat="45.6870017" lon="9.5379517"><ele>231.0</ele><time>2026-04-25T14:03:07.228Z</time></trkpt><trkpt lat="45.68697" lon="9.5377533"><ele>231.0</ele><time>2026-04-25T14:03:08.228Z</time></trkpt><trkpt lat="45.6869367" lon="9.5375567"><ele>231.0</ele><time>2026-04-25T14:03:09.228Z</time></trkpt><trkpt lat="45.686905" lon="9.53737"><ele>230.75</ele><time>2026-04-25T14:03:10.228Z</time></trkpt><trkpt lat="45.6868733" lon="9.53719"><ele>230.5</ele><time>2026-04-25T14:03:11.227Z</time></trkpt><trkpt lat="45.686845" lon="9.5370117"><ele>230.25</ele><time>2026-04-25T14:03:12.228Z</time></trkpt><trkpt lat="45.686815" lon="9.5368333"><ele>230.0</ele><time>2026-04-25T14:03:13.228Z</time></trkpt><trkpt lat="45.6867867" lon="9.5366483"><ele>229.5</ele><time>2026-04-25T14:03:14.227Z</time></trkpt><trkpt lat="45.6867567" lon="9.5364583"><ele>229.0</ele><time>2026-04-25T14:03:15.228Z</time></trkpt><trkpt lat="45.6867233" lon="9.536265"><ele>228.5</ele><time>2026-04-25T14:03:16.227Z</time></trkpt><trkpt lat="45.68669" lon="9.536065"><ele>228.0</ele><time>2026-04-25T14:03:17.227Z</time></trkpt><trkpt lat="45.6866567" lon="9.5358633"><ele>228.0</ele><time>2026-04-25T14:03:18.227Z</time></trkpt><trkpt lat="45.6866217" lon="9.53566"><ele>228.0</ele><time>2026-04-25T14:03:19.228Z</time></trkpt><trkpt lat="45.6865867" lon="9.5354533"><ele>228.0</ele><time>2026-04-25T14:03:20.229Z</time></trkpt><trkpt lat="45.686555" lon="9.535245"><ele>228.0</ele><time>2026-04-25T14:03:21.228Z</time></trkpt><trkpt lat="45.68652" lon="9.53504"><ele>228.5</ele><time>2026-04-25T14:03:22.229Z</time></trkpt><trkpt lat="45.6864867" lon="9.5348333"><ele>229.0</ele><time>2026-04-25T14:03:23.229Z</time></trkpt><trkpt lat="45.6864533" lon="9.534625"><ele>229.5</ele><time>2026-04-25T14:03:24.229Z</time></trkpt><trkpt lat="45.6864183" lon="9.5344183"><ele>230.0</ele><time>2026-04-25T14:03:25.229Z</time></trkpt><trkpt lat="45.6863833" lon="9.5342117"><ele>230.0</ele><time>2026-04-25T14:03:26.229Z</time></trkpt><trkpt lat="45.6863483" lon="9.5340083"><ele>230.0</ele><time>2026-04-25T14:03:27.23Z</time></trkpt><trkpt lat="45.6863183" lon="9.53381"><ele>230.0</ele><time>2026-04-25T14:03:28.229Z</time></trkpt><trkpt lat="45.686295" lon="9.5336117"><ele>230.0</ele><time>2026-04-25T14:03:29.229Z</time></trkpt><trkpt lat="45.6862683" lon="9.533415"><ele>229.5</ele><time>2026-04-25T14:03:30.229Z</time></trkpt><trkpt lat="45.6862417" lon="9.533225"><ele>229.0</ele><time>2026-04-25T14:03:31.229Z</time></trkpt><trkpt lat="45.68622" lon="9.5330467"><ele>228.5</ele><time>2026-04-25T14:03:32.229Z</time></trkpt><trkpt lat="45.6862117" lon="9.5328817"><ele>228.0</ele><time>2026-04-25T14:03:33.228Z</time></trkpt><trkpt lat="45.6862133" lon="9.5327233"><ele>228.0</ele><time>2026-04-25T14:03:34.228Z</time></trkpt><trkpt lat="45.686225" lon="9.5325783"><ele>228.0</ele><time>2026-04-25T14:03:35.229Z</time></trkpt><trkpt lat="45.686245" lon="9.532445"><ele>228.0</ele><time>2026-04-25T14:03:36.229Z</time></trkpt><trkpt lat="45.6862833" lon="9.532325"><ele>228.0</ele><time>2026-04-25T14:03:37.228Z</time></trkpt><trkpt lat="45.6863333" lon="9.5322233"><ele>228.0</ele><time>2026-04-25T14:03:38.228Z</time></trkpt><trkpt lat="45.6863833" lon="9.5321317"><ele>228.2</ele><time>2026-04-25T14:03:39.228Z</time></trkpt><trkpt lat="45.6864317" lon="9.53203"><ele>228.4</ele><time>2026-04-25T14:03:40.227Z</time></trkpt><trkpt lat="45.6864617" lon="9.531915"><ele>228.59999999999997</ele><time>2026-04-25T14:03:41.228Z</time></trkpt><trkpt lat="45.6864717" lon="9.5317767"><ele>228.79999999999998</ele><time>2026-04-25T14:03:42.229Z</time></trkpt><trkpt lat="45.6864817" lon="9.5316283"><ele>229.0</ele><time>2026-04-25T14:03:43.229Z</time></trkpt><trkpt lat="45.6865033" lon="9.5314717"><ele>229.0</ele><time>2026-04-25T14:03:44.229Z</time></trkpt><trkpt lat="45.6865433" lon="9.5313283"><ele>228.99999999999997</ele><time>2026-04-25T14:03:45.228Z</time></trkpt><trkpt lat="45.6865933" lon="9.5312083"><ele>228.99999999999997</ele><time>2026-04-25T14:03:46.227Z</time></trkpt><trkpt lat="45.6866417" lon="9.5311017"><ele>229.0</ele><time>2026-04-25T14:03:47.228Z</time></trkpt><trkpt lat="45.68669" lon="9.5310017"><ele>229.0</ele><time>2026-04-25T14:03:48.227Z</time></trkpt><trkpt lat="45.6867383" lon="9.530905"><ele>228.99999999999997</ele><time>2026-04-25T14:03:49.228Z</time></trkpt><trkpt lat="45.68679" lon="9.530815"><ele>229.0</ele><time>2026-04-25T14:03:50.228Z</time></trkpt><trkpt lat="45.68684" lon="9.5307283"><ele>229.0</ele><time>2026-04-25T14:03:51.229Z</time></trkpt><trkpt lat="45.6868883" lon="9.5306433"><ele>229.0</ele><time>2026-04-25T14:03:52.23Z</time></trkpt><trkpt lat="45.6869367" lon="9.530565"><ele>228.99999999999997</ele><time>2026-04-25T14:03:53.228Z</time></trkpt><trkpt lat="45.6869783" lon="9.5304967"><ele>229.0</ele><time>2026-04-25T14:03:54.228Z</time></trkpt><trkpt lat="45.68705" lon="9.5303883"><ele>228.83333333333331</ele><time>2026-04-25T14:03:56.23Z</time></trkpt><trkpt lat="45.6871083" lon="9.5303067"><ele>228.66666666666666</ele><time>2026-04-25T14:03:58.228Z</time></trkpt><trkpt lat="45.6871617" lon="9.53023"><ele>228.5</ele><time>2026-04-25T14:04:00.228Z</time></trkpt><trkpt lat="45.6872417" lon="9.5301183"><ele>228.33333333333331</ele><time>2026-04-25T14:04:02.229Z</time></trkpt><trkpt lat="45.68729" lon="9.53005"><ele>228.16666666666666</ele><time>2026-04-25T14:04:03.229Z</time></trkpt><trkpt lat="45.687345" lon="9.5299717"><ele>228.0</ele><time>2026-04-25T14:04:04.227Z</time></trkpt><trkpt lat="45.6874017" lon="9.52989"><ele>228.0</ele><time>2026-04-25T14:04:05.229Z</time></trkpt><trkpt lat="45.6874633" lon="9.5297933"><ele>228.0</ele><time>2026-04-25T14:04:06.229Z</time></trkpt><trkpt lat="45.687535" lon="9.529675"><ele>228.0</ele><time>2026-04-25T14:04:07.228Z</time></trkpt><trkpt lat="45.68762" lon="9.5295317"><ele>228.0</ele><time>2026-04-25T14:04:08.228Z</time></trkpt><trkpt lat="45.6877267" lon="9.529365"><ele>229.33333333333331</ele><time>2026-04-25T14:04:09.228Z</time></trkpt><trkpt lat="45.68785" lon="9.5291833"><ele>230.66666666666666</ele><time>2026-04-25T14:04:10.228Z</time></trkpt><trkpt lat="45.6879833" lon="9.52899"><ele>232.0</ele><time>2026-04-25T14:04:11.229Z</time></trkpt><trkpt lat="45.688125" lon="9.528785"><ele>231.66666666666666</ele><time>2026-04-25T14:04:12.229Z</time></trkpt><trkpt lat="45.6882717" lon="9.5285683"><ele>231.33333333333331</ele><time>2026-04-25T14:04:13.228Z</time></trkpt><trkpt lat="45.6884217" lon="9.528345"><ele>231.0</ele><time>2026-04-25T14:04:14.229Z</time></trkpt><trkpt lat="45.6885717" lon="9.52812"><ele>232.66666666666669</ele><time>2026-04-25T14:04:15.229Z</time></trkpt><trkpt lat="45.6887217" lon="9.5278933"><ele>234.33333333333334</ele><time>2026-04-25T14:04:16.228Z</time></trkpt><trkpt lat="45.688865" lon="9.5276667"><ele>236.0</ele><time>2026-04-25T14:04:17.229Z</time></trkpt><trkpt lat="45.6890033" lon="9.527435"><ele>236.0</ele><time>2026-04-25T14:04:18.228Z</time></trkpt><trkpt lat="45.689135" lon="9.5271933"><ele>236.0</ele><time>2026-04-25T14:04:19.228Z</time></trkpt><trkpt lat="45.689255" lon="9.5269467"><ele>236.0</ele><time>2026-04-25T14:04:20.228Z</time></trkpt><trkpt lat="45.6893683" lon="9.5266917"><ele>239.0</ele><time>2026-04-25T14:04:21.228Z</time></trkpt><trkpt lat="45.6894733" lon="9.5264333"><ele>242.0</ele><time>2026-04-25T14:04:22.228Z</time></trkpt><trkpt lat="45.689565" lon="9.52616"><ele>245.0</ele><time>2026-04-25T14:04:23.23Z</time></trkpt><trkpt lat="45.68965" lon="9.5258783"><ele>245.0</ele><time>2026-04-25T14:04:24.229Z</time></trkpt><trkpt lat="45.6897233" lon="9.52559"><ele>245.0</ele><time>2026-04-25T14:04:25.228Z</time></trkpt><trkpt lat="45.68979" lon="9.5252967"><ele>245.0</ele><time>2026-04-25T14:04:26.228Z</time></trkpt><trkpt lat="45.6898517" lon="9.525005"><ele>246.0</ele><time>2026-04-25T14:04:27.232Z</time></trkpt><trkpt lat="45.6899" lon="9.5247117"><ele>247.0</ele><time>2026-04-25T14:04:28.229Z</time></trkpt><trkpt lat="45.6899417" lon="9.5244083"><ele>248.0</ele><time>2026-04-25T14:04:29.229Z</time></trkpt><trkpt lat="45.6899867" lon="9.5241167"><ele>248.0</ele><time>2026-04-25T14:04:30.23Z</time></trkpt><trkpt lat="45.6900333" lon="9.5238133"><ele>248.0</ele><time>2026-04-25T14:04:31.228Z</time></trkpt><trkpt lat="45.69007" lon="9.523525"><ele>248.0</ele><time>2026-04-25T14:04:32.229Z</time></trkpt><trkpt lat="45.6901117" lon="9.5232367"><ele>248.0</ele><time>2026-04-25T14:04:33.229Z</time></trkpt><trkpt lat="45.690155" lon="9.5229483"><ele>248.0</ele><time>2026-04-25T14:04:34.229Z</time></trkpt><trkpt lat="45.690195" lon="9.5226617"><ele>248.0</ele><time>2026-04-25T14:04:35.229Z</time></trkpt><trkpt lat="45.6902333" lon="9.5223783"><ele>248.33333333333334</ele><time>2026-04-25T14:04:36.227Z</time></trkpt><trkpt lat="45.6902733" lon="9.5220967"><ele>248.66666666666669</ele><time>2026-04-25T14:04:37.229Z</time></trkpt><trkpt lat="45.6903233" lon="9.5218167"><ele>249.0</ele><time>2026-04-25T14:04:38.228Z</time></trkpt><trkpt lat="45.6903817" lon="9.52154"><ele>249.0</ele><time>2026-04-25T14:04:39.23Z</time></trkpt><trkpt lat="45.6904467" lon="9.5212733"><ele>249.0</ele><time>2026-04-25T14:04:40.229Z</time></trkpt><trkpt lat="45.6905133" lon="9.5210167"><ele>249.0</ele><time>2026-04-25T14:04:41.227Z</time></trkpt><trkpt lat="45.690585" lon="9.52077"><ele>249.0</ele><time>2026-04-25T14:04:42.229Z</time></trkpt><trkpt lat="45.69066" lon="9.52053"><ele>249.0</ele><time>2026-04-25T14:04:43.227Z</time></trkpt><trkpt lat="45.6907383" lon="9.5202967"><ele>249.0</ele><time>2026-04-25T14:04:44.229Z</time></trkpt><trkpt lat="45.690815" lon="9.5200683"><ele>249.66666666666669</ele><time>2026-04-25T14:04:45.228Z</time></trkpt><trkpt lat="45.6908917" lon="9.5198417"><ele>250.33333333333334</ele><time>2026-04-25T14:04:46.228Z</time></trkpt><trkpt lat="45.6909683" lon="9.5196167"><ele>251.0</ele><time>2026-04-25T14:04:47.229Z</time></trkpt><trkpt lat="45.691045" lon="9.51939"><ele>251.66666666666669</ele><time>2026-04-25T14:04:48.228Z</time></trkpt><trkpt lat="45.6911217" lon="9.519165"><ele>252.33333333333331</ele><time>2026-04-25T14:04:49.229Z</time></trkpt><trkpt lat="45.691195" lon="9.51894"><ele>253.0</ele><time>2026-04-25T14:04:50.228Z</time></trkpt><trkpt lat="45.6912683" lon="9.518715"><ele>254.0</ele><time>2026-04-25T14:04:51.228Z</time></trkpt><trkpt lat="45.6913467" lon="9.5184917"><ele>255.0</ele><time>2026-04-25T14:04:52.228Z</time></trkpt><trkpt lat="45.691425" lon="9.5182733"><ele>256.0</ele><time>2026-04-25T14:04:53.228Z</time></trkpt><trkpt lat="45.6914983" lon="9.5180617"><ele>256.25</ele><time>2026-04-25T14:04:54.228Z</time></trkpt><trkpt lat="45.6915683" lon="9.51787"><ele>256.5</ele><time>2026-04-25T14:04:55.228Z</time></trkpt><trkpt lat="45.6916333" lon="9.517695"><ele>256.75</ele><time>2026-04-25T14:04:56.229Z</time></trkpt><trkpt lat="45.691695" lon="9.517525"><ele>257.0</ele><time>2026-04-25T14:04:57.229Z</time></trkpt><trkpt lat="45.6917517" lon="9.5173533"><ele>257.0</ele><time>2026-04-25T14:04:58.229Z</time></trkpt><trkpt lat="45.6918083" lon="9.5171733"><ele>257.0</ele><time>2026-04-25T14:04:59.228Z</time></trkpt><trkpt lat="45.6918683" lon="9.516985"><ele>257.0</ele><time>2026-04-25T14:05:00.229Z</time></trkpt><trkpt lat="45.6919317" lon="9.5167883"><ele>257.0</ele><time>2026-04-25T14:05:01.229Z</time></trkpt><trkpt lat="45.6919967" lon="9.5165817"><ele>256.6666666666667</ele><time>2026-04-25T14:05:02.228Z</time></trkpt><trkpt lat="45.692065" lon="9.5163733"><ele>256.3333333333333</ele><time>2026-04-25T14:05:03.23Z</time></trkpt><trkpt lat="45.6921367" lon="9.5161567"><ele>256.0</ele><time>2026-04-25T14:05:04.229Z</time></trkpt><trkpt lat="45.6922133" lon="9.51594"><ele>255.66666666666666</ele><time>2026-04-25T14:05:05.229Z</time></trkpt><trkpt lat="45.6922933" lon="9.5157233"><ele>255.33333333333331</ele><time>2026-04-25T14:05:06.229Z</time></trkpt><trkpt lat="45.6923817" lon="9.51551"><ele>255.0</ele><time>2026-04-25T14:05:07.229Z</time></trkpt><trkpt lat="45.6924833" lon="9.515305"><ele>255.0</ele><time>2026-04-25T14:05:08.227Z</time></trkpt><trkpt lat="45.6925967" lon="9.5151133"><ele>255.0</ele><time>2026-04-25T14:05:09.23Z</time></trkpt><trkpt lat="45.6927083" lon="9.51494"><ele>255.0</ele><time>2026-04-25T14:05:10.228Z</time></trkpt><trkpt lat="45.6928083" lon="9.5147867"><ele>255.5</ele><time>2026-04-25T14:05:11.229Z</time></trkpt><trkpt lat="45.6928983" lon="9.5146567"><ele>256.0</ele><time>2026-04-25T14:05:12.229Z</time></trkpt><trkpt lat="45.692985" lon="9.5145467"><ele>256.5</ele><time>2026-04-25T14:05:13.228Z</time></trkpt><trkpt lat="45.6930767" lon="9.5144567"><ele>257.0</ele><time>2026-04-25T14:05:14.228Z</time></trkpt><trkpt lat="45.6931683" lon="9.5143883"><ele>257.2</ele><time>2026-04-25T14:05:15.228Z</time></trkpt><trkpt lat="45.6932567" lon="9.5143283"><ele>257.4</ele><time>2026-04-25T14:05:16.228Z</time></trkpt><trkpt lat="45.6933383" lon="9.51426"><ele>257.6</ele><time>2026-04-25T14:05:17.229Z</time></trkpt><trkpt lat="45.6934017" lon="9.514165"><ele>257.8</ele><time>2026-04-25T14:05:18.228Z</time></trkpt><trkpt lat="45.693445" lon="9.5140433"><ele>258.0</ele><time>2026-04-25T14:05:19.229Z</time></trkpt><trkpt lat="45.69347" lon="9.513895"><ele>258.0</ele><time>2026-04-25T14:05:20.229Z</time></trkpt><trkpt lat="45.6935017" lon="9.5137367"><ele>258.0</ele><time>2026-04-25T14:05:21.229Z</time></trkpt><trkpt lat="45.6935533" lon="9.51358"><ele>258.0</ele><time>2026-04-25T14:05:22.228Z</time></trkpt><trkpt lat="45.693625" lon="9.513425"><ele>258.0</ele><time>2026-04-25T14:05:23.229Z</time></trkpt><trkpt lat="45.693705" lon="9.5132633"><ele>258.3333333333333</ele><time>2026-04-25T14:05:24.228Z</time></trkpt><trkpt lat="45.6937883" lon="9.5130867"><ele>258.66666666666663</ele><time>2026-04-25T14:05:25.228Z</time></trkpt><trkpt lat="45.693875" lon="9.512895"><ele>259.0</ele><time>2026-04-25T14:05:26.228Z</time></trkpt><trkpt lat="45.6939583" lon="9.5126917"><ele>259.0</ele><time>2026-04-25T14:05:27.231Z</time></trkpt><trkpt lat="45.6940433" lon="9.5124733"><ele>259.0</ele><time>2026-04-25T14:05:28.229Z</time></trkpt><trkpt lat="45.6941283" lon="9.5122483"><ele>259.0</ele><time>2026-04-25T14:05:29.229Z</time></trkpt><trkpt lat="45.694215" lon="9.5120217"><ele>258.66666666666663</ele><time>2026-04-25T14:05:30.228Z</time></trkpt><trkpt lat="45.6943017" lon="9.5117917"><ele>258.3333333333333</ele><time>2026-04-25T14:05:31.23Z</time></trkpt><trkpt lat="45.69439" lon="9.5115533"><ele>258.0</ele><time>2026-04-25T14:05:32.228Z</time></trkpt><trkpt lat="45.6944783" lon="9.5113083"><ele>259.0</ele><time>2026-04-25T14:05:33.229Z</time></trkpt><trkpt lat="45.6945667" lon="9.5110567"><ele>260.0</ele><time>2026-04-25T14:05:34.231Z</time></trkpt><trkpt lat="45.6946617" lon="9.5108033"><ele>261.0</ele><time>2026-04-25T14:05:35.23Z</time></trkpt><trkpt lat="45.694765" lon="9.5105517"><ele>262.0</ele><time>2026-04-25T14:05:36.23Z</time></trkpt><trkpt lat="45.69487" lon="9.5103"><ele>263.0</ele><time>2026-04-25T14:05:37.231Z</time></trkpt><trkpt lat="45.6949667" lon="9.5100433"><ele>264.0</ele><time>2026-04-25T14:05:38.231Z</time></trkpt><trkpt lat="45.695055" lon="9.509775"><ele>263.0</ele><time>2026-04-25T14:05:39.23Z</time></trkpt><trkpt lat="45.6951267" lon="9.5094917"><ele>262.0</ele><time>2026-04-25T14:05:40.23Z</time></trkpt><trkpt lat="45.6951867" lon="9.5092"><ele>261.0</ele><time>2026-04-25T14:05:41.23Z</time></trkpt><trkpt lat="45.6952383" lon="9.5089017"><ele>262.0</ele><time>2026-04-25T14:05:42.23Z</time></trkpt><trkpt lat="45.6952883" lon="9.508605"><ele>263.0</ele><time>2026-04-25T14:05:43.229Z</time></trkpt><trkpt lat="45.6953367" lon="9.5083117"><ele>264.0</ele><time>2026-04-25T14:05:44.229Z</time></trkpt><trkpt lat="45.6953883" lon="9.5080167"><ele>264.3333333333333</ele><time>2026-04-25T14:05:45.23Z</time></trkpt><trkpt lat="45.6954383" lon="9.5077217"><ele>264.66666666666663</ele><time>2026-04-25T14:05:46.229Z</time></trkpt><trkpt lat="45.69549" lon="9.5074167"><ele>265.0</ele><time>2026-04-25T14:05:47.229Z</time></trkpt><trkpt lat="45.6955417" lon="9.507115"><ele>265.0</ele><time>2026-04-25T14:05:48.23Z</time></trkpt><trkpt lat="45.6955917" lon="9.506825"><ele>265.0</ele><time>2026-04-25T14:05:49.231Z</time></trkpt><trkpt lat="45.69564" lon="9.50655"><ele>265.0</ele><time>2026-04-25T14:05:50.229Z</time></trkpt><trkpt lat="45.6956867" lon="9.50629"><ele>264.66666666666663</ele><time>2026-04-25T14:05:51.23Z</time></trkpt><trkpt lat="45.69573" lon="9.5060433"><ele>264.3333333333333</ele><time>2026-04-25T14:05:52.23Z</time></trkpt><trkpt lat="45.695775" lon="9.5058133"><ele>264.0</ele><time>2026-04-25T14:05:53.23Z</time></trkpt><trkpt lat="45.69582" lon="9.5056067"><ele>264.0</ele><time>2026-04-25T14:05:54.23Z</time></trkpt><trkpt lat="45.695865" lon="9.5054217"><ele>264.0</ele><time>2026-04-25T14:05:55.232Z</time></trkpt><trkpt lat="45.69591" lon="9.5052617"><ele>264.0</ele><time>2026-04-25T14:05:56.233Z</time></trkpt><trkpt lat="45.695965" lon="9.5051283"><ele>264.0</ele><time>2026-04-25T14:05:57.229Z</time></trkpt><trkpt lat="45.6960317" lon="9.505025"><ele>264.6666666666667</ele><time>2026-04-25T14:05:58.228Z</time></trkpt><trkpt lat="45.6961067" lon="9.5049483"><ele>265.3333333333333</ele><time>2026-04-25T14:05:59.228Z</time></trkpt><trkpt lat="45.696185" lon="9.5048917"><ele>266.0</ele><time>2026-04-25T14:06:00.229Z</time></trkpt><trkpt lat="45.69626" lon="9.5048433"><ele>266.66666666666663</ele><time>2026-04-25T14:06:01.229Z</time></trkpt><trkpt lat="45.6963267" lon="9.50478"><ele>267.3333333333333</ele><time>2026-04-25T14:06:02.229Z</time></trkpt><trkpt lat="45.6963533" lon="9.5046817"><ele>268.0</ele><time>2026-04-25T14:06:03.228Z</time></trkpt><trkpt lat="45.6963633" lon="9.504575"><ele>268.4</ele><time>2026-04-25T14:06:04.229Z</time></trkpt><trkpt lat="45.696345" lon="9.5044483"><ele>268.8</ele><time>2026-04-25T14:06:05.229Z</time></trkpt><trkpt lat="45.6963217" lon="9.5043083"><ele>269.2</ele><time>2026-04-25T14:06:06.229Z</time></trkpt><trkpt lat="45.6963233" lon="9.5041483"><ele>269.6</ele><time>2026-04-25T14:06:07.228Z</time></trkpt><trkpt lat="45.6963467" lon="9.5039767"><ele>270.0</ele><time>2026-04-25T14:06:08.227Z</time></trkpt><trkpt lat="45.6963933" lon="9.50379"><ele>269.0</ele><time>2026-04-25T14:06:09.229Z</time></trkpt><trkpt lat="45.696455" lon="9.5035933"><ele>268.0</ele><time>2026-04-25T14:06:10.229Z</time></trkpt><trkpt lat="45.6965233" lon="9.5033967"><ele>267.0</ele><time>2026-04-25T14:06:11.229Z</time></trkpt><trkpt lat="45.6965967" lon="9.503195"><ele>267.0</ele><time>2026-04-25T14:06:12.228Z</time></trkpt><trkpt lat="45.696675" lon="9.5029883"><ele>267.0</ele><time>2026-04-25T14:06:13.229Z</time></trkpt><trkpt lat="45.6967567" lon="9.5027767"><ele>267.0</ele><time>2026-04-25T14:06:14.228Z</time></trkpt><trkpt lat="45.6968383" lon="9.5025683"><ele>267.0</ele><time>2026-04-25T14:06:15.229Z</time></trkpt><trkpt lat="45.6969167" lon="9.502365"><ele>267.0</ele><time>2026-04-25T14:06:16.228Z</time></trkpt><trkpt lat="45.696995" lon="9.5021583"><ele>267.0</ele><time>2026-04-25T14:06:17.228Z</time></trkpt><trkpt lat="45.697075" lon="9.5019467"><ele>267.0</ele><time>2026-04-25T14:06:18.228Z</time></trkpt><trkpt lat="45.6971567" lon="9.5017317"><ele>267.0</ele><time>2026-04-25T14:06:19.228Z</time></trkpt><trkpt lat="45.69724" lon="9.5015117"><ele>267.0</ele><time>2026-04-25T14:06:20.229Z</time></trkpt><trkpt lat="45.6973267" lon="9.5012917"><ele>267.6666666666667</ele><time>2026-04-25T14:06:21.228Z</time></trkpt><trkpt lat="45.697415" lon="9.501065"><ele>268.33333333333337</ele><time>2026-04-25T14:06:22.229Z</time></trkpt><trkpt lat="45.6975017" lon="9.5008383"><ele>269.0</ele><time>2026-04-25T14:06:23.229Z</time></trkpt><trkpt lat="45.69759" lon="9.5006117"><ele>269.33333333333337</ele><time>2026-04-25T14:06:24.229Z</time></trkpt><trkpt lat="45.6976767" lon="9.5003817"><ele>269.6666666666667</ele><time>2026-04-25T14:06:25.229Z</time></trkpt><trkpt lat="45.697765" lon="9.5001483"><ele>270.0</ele><time>2026-04-25T14:06:26.228Z</time></trkpt><trkpt lat="45.697855" lon="9.4999133"><ele>270.6666666666667</ele><time>2026-04-25T14:06:27.229Z</time></trkpt><trkpt lat="45.6979483" lon="9.4996733"><ele>271.33333333333337</ele><time>2026-04-25T14:06:28.228Z</time></trkpt><trkpt lat="45.6980417" lon="9.4994333"><ele>272.0</ele><time>2026-04-25T14:06:29.228Z</time></trkpt><trkpt lat="45.6981317" lon="9.4991967"><ele>272.33333333333337</ele><time>2026-04-25T14:06:30.229Z</time></trkpt><trkpt lat="45.6982183" lon="9.4989633"><ele>272.6666666666667</ele><time>2026-04-25T14:06:31.228Z</time></trkpt><trkpt lat="45.6983067" lon="9.49873"><ele>273.0</ele><time>2026-04-25T14:06:32.229Z</time></trkpt><trkpt lat="45.6983933" lon="9.4985017"><ele>273.0</ele><time>2026-04-25T14:06:33.229Z</time></trkpt><trkpt lat="45.6984817" lon="9.4982767"><ele>273.0</ele><time>2026-04-25T14:06:34.228Z</time></trkpt><trkpt lat="45.69857" lon="9.4980533"><ele>273.0</ele><time>2026-04-25T14:06:35.229Z</time></trkpt><trkpt lat="45.6986567" lon="9.4978333"><ele>273.3333333333333</ele><time>2026-04-25T14:06:36.228Z</time></trkpt><trkpt lat="45.6987417" lon="9.4976117"><ele>273.66666666666663</ele><time>2026-04-25T14:06:37.229Z</time></trkpt><trkpt lat="45.6988267" lon="9.4973917"><ele>274.0</ele><time>2026-04-25T14:06:38.23Z</time></trkpt><trkpt lat="45.69891" lon="9.49717"><ele>274.0</ele><time>2026-04-25T14:06:39.23Z</time></trkpt><trkpt lat="45.6989967" lon="9.49695"><ele>274.0</ele><time>2026-04-25T14:06:40.228Z</time></trkpt><trkpt lat="45.6990833" lon="9.49673"><ele>274.0</ele><time>2026-04-25T14:06:41.229Z</time></trkpt><trkpt lat="45.69917" lon="9.49651"><ele>274.0</ele><time>2026-04-25T14:06:42.228Z</time></trkpt><trkpt lat="45.6992583" lon="9.49629"><ele>274.0</ele><time>2026-04-25T14:06:43.228Z</time></trkpt><trkpt lat="45.6993433" lon="9.496065"><ele>274.0</ele><time>2026-04-25T14:06:44.228Z</time></trkpt><trkpt lat="45.69943" lon="9.4958433"><ele>274.3333333333333</ele><time>2026-04-25T14:06:45.228Z</time></trkpt><trkpt lat="45.69951" lon="9.49563"><ele>274.6666666666667</ele><time>2026-04-25T14:06:46.228Z</time></trkpt><trkpt lat="45.6995867" lon="9.4954333"><ele>275.0</ele><time>2026-04-25T14:06:47.229Z</time></trkpt><trkpt lat="45.6996583" lon="9.4952483"><ele>274.6</ele><time>2026-04-25T14:06:48.231Z</time></trkpt><trkpt lat="45.6997233" lon="9.49508"><ele>274.2</ele><time>2026-04-25T14:06:49.231Z</time></trkpt><trkpt lat="45.6997833" lon="9.4949333"><ele>273.8</ele><time>2026-04-25T14:06:50.231Z</time></trkpt><trkpt lat="45.6998383" lon="9.4948083"><ele>273.4</ele><time>2026-04-25T14:06:51.23Z</time></trkpt><trkpt lat="45.6998967" lon="9.4947083"><ele>273.0</ele><time>2026-04-25T14:06:52.229Z</time></trkpt><trkpt lat="45.69996" lon="9.4946333"><ele>273.0</ele><time>2026-04-25T14:06:53.229Z</time></trkpt><trkpt lat="45.700035" lon="9.4945883"><ele>273.0</ele><time>2026-04-25T14:06:54.229Z</time></trkpt><trkpt lat="45.7001167" lon="9.4945667"><ele>273.0</ele><time>2026-04-25T14:06:55.229Z</time></trkpt><trkpt lat="45.7001917" lon="9.4945333"><ele>273.0</ele><time>2026-04-25T14:06:56.229Z</time></trkpt><trkpt lat="45.7002567" lon="9.4944783"><ele>273.0</ele><time>2026-04-25T14:06:57.228Z</time></trkpt><trkpt lat="45.7002883" lon="9.49439"><ele>273.0</ele><time>2026-04-25T14:06:58.228Z</time></trkpt><trkpt lat="45.700295" lon="9.4942817"><ele>273.0</ele><time>2026-04-25T14:06:59.228Z</time></trkpt><trkpt lat="45.7002733" lon="9.4941533"><ele>273.0</ele><time>2026-04-25T14:07:00.229Z</time></trkpt><trkpt lat="45.7002417" lon="9.494015"><ele>273.0</ele><time>2026-04-25T14:07:01.228Z</time></trkpt><trkpt lat="45.7002183" lon="9.4938583"><ele>273.0</ele><time>2026-04-25T14:07:02.23Z</time></trkpt><trkpt lat="45.7002167" lon="9.4936917"><ele>273.0</ele><time>2026-04-25T14:07:03.237Z</time></trkpt><trkpt lat="45.7002317" lon="9.4935133"><ele>274.5</ele><time>2026-04-25T14:07:04.23Z</time></trkpt><trkpt lat="45.700255" lon="9.493325"><ele>276.0</ele><time>2026-04-25T14:07:05.228Z</time></trkpt><trkpt lat="45.700285" lon="9.4931333"><ele>277.5</ele><time>2026-04-25T14:07:06.229Z</time></trkpt><trkpt lat="45.700315" lon="9.4929433"><ele>279.0</ele><time>2026-04-25T14:07:07.229Z</time></trkpt><trkpt lat="45.7003333" lon="9.4927433"><ele>279.0</ele><time>2026-04-25T14:07:08.232Z</time></trkpt><trkpt lat="45.7003483" lon="9.4925317"><ele>279.0</ele><time>2026-04-25T14:07:09.23Z</time></trkpt><trkpt lat="45.70036" lon="9.49231"><ele>279.0</ele><time>2026-04-25T14:07:10.23Z</time></trkpt><trkpt lat="45.7003683" lon="9.4920917"><ele>279.25</ele><time>2026-04-25T14:07:11.228Z</time></trkpt><trkpt lat="45.7003767" lon="9.491875"><ele>279.5</ele><time>2026-04-25T14:07:12.23Z</time></trkpt><trkpt lat="45.700385" lon="9.49167"><ele>279.75</ele><time>2026-04-25T14:07:13.231Z</time></trkpt><trkpt lat="45.7003933" lon="9.491465"><ele>280.0</ele><time>2026-04-25T14:07:14.231Z</time></trkpt><trkpt lat="45.7004017" lon="9.4912583"><ele>280.25</ele><time>2026-04-25T14:07:15.232Z</time></trkpt><trkpt lat="45.70041" lon="9.4910517"><ele>280.5</ele><time>2026-04-25T14:07:16.228Z</time></trkpt><trkpt lat="45.7004183" lon="9.49085"><ele>280.75</ele><time>2026-04-25T14:07:17.229Z</time></trkpt><trkpt lat="45.700425" lon="9.490655"><ele>281.0</ele><time>2026-04-25T14:07:18.228Z</time></trkpt><trkpt lat="45.7004317" lon="9.4904683"><ele>280.75</ele><time>2026-04-25T14:07:19.228Z</time></trkpt><trkpt lat="45.7004433" lon="9.4902767"><ele>280.5</ele><time>2026-04-25T14:07:20.23Z</time></trkpt><trkpt lat="45.700455" lon="9.4900783"><ele>280.25</ele><time>2026-04-25T14:07:21.229Z</time></trkpt><trkpt lat="45.700465" lon="9.4898783"><ele>280.0</ele><time>2026-04-25T14:07:22.229Z</time></trkpt><trkpt lat="45.700475" lon="9.4896783"><ele>280.0</ele><time>2026-04-25T14:07:23.229Z</time></trkpt><trkpt lat="45.7004867" lon="9.48947"><ele>280.0</ele><time>2026-04-25T14:07:24.229Z</time></trkpt><trkpt lat="45.700495" lon="9.4892633"><ele>280.0</ele><time>2026-04-25T14:07:25.228Z</time></trkpt><trkpt lat="45.7005067" lon="9.4890533"><ele>280.0</ele><time>2026-04-25T14:07:26.229Z</time></trkpt><trkpt lat="45.7005217" lon="9.4888483"><ele>279.75</ele><time>2026-04-25T14:07:27.229Z</time></trkpt><trkpt lat="45.700535" lon="9.4886433"><ele>279.5</ele><time>2026-04-25T14:07:28.229Z</time></trkpt><trkpt lat="45.7005517" lon="9.4884317"><ele>279.25</ele><time>2026-04-25T14:07:29.228Z</time></trkpt><trkpt lat="45.700565" lon="9.4882233"><ele>279.0</ele><time>2026-04-25T14:07:30.229Z</time></trkpt><trkpt lat="45.7005733" lon="9.48802"><ele>278.5</ele><time>2026-04-25T14:07:31.229Z</time></trkpt><trkpt lat="45.7005817" lon="9.4878117"><ele>278.0</ele><time>2026-04-25T14:07:32.228Z</time></trkpt><trkpt lat="45.7005917" lon="9.4876017"><ele>277.5</ele><time>2026-04-25T14:07:33.229Z</time></trkpt><trkpt lat="45.7006" lon="9.4873883"><ele>277.0</ele><time>2026-04-25T14:07:34.228Z</time></trkpt><trkpt lat="45.70061" lon="9.4871733"><ele>276.25</ele><time>2026-04-25T14:07:35.229Z</time></trkpt><trkpt lat="45.70062" lon="9.48696"><ele>275.5</ele><time>2026-04-25T14:07:36.228Z</time></trkpt><trkpt lat="45.7006267" lon="9.4867483"><ele>274.75</ele><time>2026-04-25T14:07:37.227Z</time></trkpt><trkpt lat="45.7006333" lon="9.4865367"><ele>274.0</ele><time>2026-04-25T14:07:38.229Z</time></trkpt><trkpt lat="45.7006383" lon="9.4863217"><ele>273.66666666666663</ele><time>2026-04-25T14:07:39.229Z</time></trkpt><trkpt lat="45.7006433" lon="9.4861083"><ele>273.3333333333333</ele><time>2026-04-25T14:07:40.229Z</time></trkpt><trkpt lat="45.70065" lon="9.4858917"><ele>273.0</ele><time>2026-04-25T14:07:41.228Z</time></trkpt><trkpt lat="45.700655" lon="9.4856767"><ele>273.0</ele><time>2026-04-25T14:07:42.228Z</time></trkpt><trkpt lat="45.700665" lon="9.48546"><ele>273.0</ele><time>2026-04-25T14:07:43.228Z</time></trkpt><trkpt lat="45.700675" lon="9.485245"><ele>273.0</ele><time>2026-04-25T14:07:44.23Z</time></trkpt><trkpt lat="45.7006983" lon="9.4848167"><ele>273.5</ele><time>2026-04-25T14:07:46.229Z</time></trkpt><trkpt lat="45.7007083" lon="9.484615"><ele>274.0</ele><time>2026-04-25T14:07:47.228Z</time></trkpt><trkpt lat="45.7007183" lon="9.4844217"><ele>274.5</ele><time>2026-04-25T14:07:48.228Z</time></trkpt><trkpt lat="45.70073" lon="9.4842333"><ele>275.0</ele><time>2026-04-25T14:07:49.229Z</time></trkpt><trkpt lat="45.7007383" lon="9.484045"><ele>275.25</ele><time>2026-04-25T14:07:50.229Z</time></trkpt><trkpt lat="45.7007467" lon="9.4838583"><ele>275.5</ele><time>2026-04-25T14:07:51.229Z</time></trkpt><trkpt lat="45.700755" lon="9.483675"><ele>275.75</ele><time>2026-04-25T14:07:52.229Z</time></trkpt><trkpt lat="45.7007617" lon="9.4834933"><ele>276.0</ele><time>2026-04-25T14:07:53.228Z</time></trkpt><trkpt lat="45.7007733" lon="9.4833083"><ele>276.0</ele><time>2026-04-25T14:07:54.228Z</time></trkpt><trkpt lat="45.700785" lon="9.483125"><ele>276.0</ele><time>2026-04-25T14:07:55.228Z</time></trkpt><trkpt lat="45.7007967" lon="9.4829433"><ele>276.0</ele><time>2026-04-25T14:07:56.228Z</time></trkpt><trkpt lat="45.7008067" lon="9.4827567"><ele>276.0</ele><time>2026-04-25T14:07:57.229Z</time></trkpt><trkpt lat="45.700815" lon="9.4825717"><ele>276.0</ele><time>2026-04-25T14:07:58.23Z</time></trkpt><trkpt lat="45.7008217" lon="9.4823867"><ele>276.0</ele><time>2026-04-25T14:07:59.229Z</time></trkpt><trkpt lat="45.7008283" lon="9.48221"><ele>276.0</ele><time>2026-04-25T14:08:00.229Z</time></trkpt><trkpt lat="45.7008367" lon="9.4820417"><ele>276.0</ele><time>2026-04-25T14:08:01.23Z</time></trkpt><trkpt lat="45.7008433" lon="9.481885"><ele>276.2</ele><time>2026-04-25T14:08:02.23Z</time></trkpt><trkpt lat="45.70085" lon="9.4817333"><ele>276.40000000000003</ele><time>2026-04-25T14:08:03.229Z</time></trkpt><trkpt lat="45.7008567" lon="9.481585"><ele>276.6</ele><time>2026-04-25T14:08:04.228Z</time></trkpt><trkpt lat="45.7008633" lon="9.4814383"><ele>276.8</ele><time>2026-04-25T14:08:05.229Z</time></trkpt><trkpt lat="45.70087" lon="9.481295"><ele>277.0</ele><time>2026-04-25T14:08:06.228Z</time></trkpt><trkpt lat="45.7008783" lon="9.4811583"><ele>277.4</ele><time>2026-04-25T14:08:07.228Z</time></trkpt><trkpt lat="45.7008867" lon="9.481025"><ele>277.79999999999995</ele><time>2026-04-25T14:08:08.228Z</time></trkpt><trkpt lat="45.7008933" lon="9.4808917"><ele>278.2</ele><time>2026-04-25T14:08:09.23Z</time></trkpt><trkpt lat="45.7009" lon="9.4807583"><ele>278.59999999999997</ele><time>2026-04-25T14:08:10.23Z</time></trkpt><trkpt lat="45.7009067" lon="9.48063"><ele>279.0</ele><time>2026-04-25T14:08:11.229Z</time></trkpt><trkpt lat="45.7009183" lon="9.480505"><ele>279.1666666666667</ele><time>2026-04-25T14:08:12.229Z</time></trkpt><trkpt lat="45.700935" lon="9.4803883"><ele>279.3333333333333</ele><time>2026-04-25T14:08:13.228Z</time></trkpt><trkpt lat="45.7009533" lon="9.480275"><ele>279.5</ele><time>2026-04-25T14:08:14.228Z</time></trkpt><trkpt lat="45.7009767" lon="9.4801717"><ele>279.66666666666663</ele><time>2026-04-25T14:08:15.229Z</time></trkpt><trkpt lat="45.7010183" lon="9.4800933"><ele>279.8333333333333</ele><time>2026-04-25T14:08:16.228Z</time></trkpt><trkpt lat="45.7010467" lon="9.48001"><ele>280.0</ele><time>2026-04-25T14:08:17.228Z</time></trkpt><trkpt lat="45.7010533" lon="9.47985"><ele>280.0</ele><time>2026-04-25T14:08:19.23Z</time></trkpt><trkpt lat="45.7009567" lon="9.479765"><ele>280.0</ele><time>2026-04-25T14:08:21.229Z</time></trkpt><trkpt lat="45.7008867" lon="9.47976"><ele>280.0</ele><time>2026-04-25T14:08:22.229Z</time></trkpt><trkpt lat="45.7008117" lon="9.4797717"><ele>280.0</ele><time>2026-04-25T14:08:23.228Z</time></trkpt><trkpt lat="45.7007333" lon="9.4797917"><ele>280.0</ele><time>2026-04-25T14:08:24.228Z</time></trkpt><trkpt lat="45.7006517" lon="9.4798033"><ele>280.0</ele><time>2026-04-25T14:08:25.231Z</time></trkpt><trkpt lat="45.7005633" lon="9.479805"><ele>280.0</ele><time>2026-04-25T14:08:26.229Z</time></trkpt><trkpt lat="45.70047" lon="9.4798"><ele>280.0</ele><time>2026-04-25T14:08:27.229Z</time></trkpt><trkpt lat="45.70037" lon="9.4798"><ele>280.0</ele><time>2026-04-25T14:08:28.228Z</time></trkpt><trkpt lat="45.7002667" lon="9.4798067"><ele>280.0</ele><time>2026-04-25T14:08:29.229Z</time></trkpt><trkpt lat="45.7001633" lon="9.47982"><ele>280.0</ele><time>2026-04-25T14:08:30.228Z</time></trkpt><trkpt lat="45.7000567" lon="9.479835"><ele>279.75</ele><time>2026-04-25T14:08:31.228Z</time></trkpt><trkpt lat="45.699945" lon="9.4798533"><ele>279.5</ele><time>2026-04-25T14:08:32.229Z</time></trkpt><trkpt lat="45.6998317" lon="9.4798717"><ele>279.25</ele><time>2026-04-25T14:08:33.229Z</time></trkpt><trkpt lat="45.699715" lon="9.4798883"><ele>279.0</ele><time>2026-04-25T14:08:34.228Z</time></trkpt><trkpt lat="45.6995933" lon="9.4799067"><ele>279.0</ele><time>2026-04-25T14:08:35.228Z</time></trkpt><trkpt lat="45.69947" lon="9.4799267"><ele>279.0</ele><time>2026-04-25T14:08:36.228Z</time></trkpt><trkpt lat="45.699345" lon="9.479945"><ele>279.0</ele><time>2026-04-25T14:08:37.229Z</time></trkpt><trkpt lat="45.6992233" lon="9.479965"><ele>279.0</ele><time>2026-04-25T14:08:38.229Z</time></trkpt><trkpt lat="45.6991017" lon="9.4799867"><ele>279.75</ele><time>2026-04-25T14:08:39.228Z</time></trkpt><trkpt lat="45.69898" lon="9.4800067"><ele>280.5</ele><time>2026-04-25T14:08:40.227Z</time></trkpt><trkpt lat="45.6988583" lon="9.48003"><ele>281.25</ele><time>2026-04-25T14:08:41.229Z</time></trkpt><trkpt lat="45.698735" lon="9.4800583"><ele>282.0</ele><time>2026-04-25T14:08:42.227Z</time></trkpt><trkpt lat="45.6986133" lon="9.48008"><ele>282.0</ele><time>2026-04-25T14:08:43.228Z</time></trkpt><trkpt lat="45.6984817" lon="9.48011"><ele>282.0</ele><time>2026-04-25T14:08:44.228Z</time></trkpt><trkpt lat="45.6983517" lon="9.4801417"><ele>282.0</ele><time>2026-04-25T14:08:45.229Z</time></trkpt><trkpt lat="45.6982283" lon="9.4801717"><ele>282.0</ele><time>2026-04-25T14:08:46.229Z</time></trkpt><trkpt lat="45.698105" lon="9.4801983"><ele>282.0</ele><time>2026-04-25T14:08:47.229Z</time></trkpt><trkpt lat="45.69798" lon="9.4802233"><ele>282.0</ele><time>2026-04-25T14:08:48.229Z</time></trkpt><trkpt lat="45.6978533" lon="9.4802517"><ele>282.0</ele><time>2026-04-25T14:08:49.228Z</time></trkpt><trkpt lat="45.6977267" lon="9.48028"><ele>282.0</ele><time>2026-04-25T14:08:50.228Z</time></trkpt><trkpt lat="45.6976033" lon="9.48031"><ele>282.2</ele><time>2026-04-25T14:08:51.228Z</time></trkpt><trkpt lat="45.6974883" lon="9.4803367"><ele>282.4</ele><time>2026-04-25T14:08:52.229Z</time></trkpt><trkpt lat="45.69738" lon="9.4803633"><ele>282.6</ele><time>2026-04-25T14:08:53.229Z</time></trkpt><trkpt lat="45.6972733" lon="9.4803867"><ele>282.8</ele><time>2026-04-25T14:08:54.228Z</time></trkpt><trkpt lat="45.6971617" lon="9.4804117"><ele>283.0</ele><time>2026-04-25T14:08:55.228Z</time></trkpt><trkpt lat="45.697045" lon="9.48044"><ele>283.0</ele><time>2026-04-25T14:08:56.228Z</time></trkpt><trkpt lat="45.6969283" lon="9.4804667"><ele>283.0</ele><time>2026-04-25T14:08:57.23Z</time></trkpt><trkpt lat="45.69681" lon="9.4804933"><ele>283.0</ele><time>2026-04-25T14:08:58.228Z</time></trkpt><trkpt lat="45.6966967" lon="9.48052"><ele>283.0</ele><time>2026-04-25T14:08:59.238Z</time></trkpt><trkpt lat="45.6965867" lon="9.4805483"><ele>282.6</ele><time>2026-04-25T14:09:00.229Z</time></trkpt><trkpt lat="45.69648" lon="9.4805783"><ele>282.20000000000005</ele><time>2026-04-25T14:09:01.229Z</time></trkpt><trkpt lat="45.6963783" lon="9.4806133"><ele>281.8</ele><time>2026-04-25T14:09:02.228Z</time></trkpt><trkpt lat="45.696285" lon="9.4806533"><ele>281.40000000000003</ele><time>2026-04-25T14:09:03.229Z</time></trkpt><trkpt lat="45.6961933" lon="9.48069"><ele>281.0</ele><time>2026-04-25T14:09:04.229Z</time></trkpt><trkpt lat="45.6961083" lon="9.4807217"><ele>280.5</ele><time>2026-04-25T14:09:05.228Z</time></trkpt><trkpt lat="45.69603" lon="9.4807483"><ele>280.0</ele><time>2026-04-25T14:09:06.228Z</time></trkpt><trkpt lat="45.6959583" lon="9.4807667"><ele>279.5</ele><time>2026-04-25T14:09:07.23Z</time></trkpt><trkpt lat="45.695885" lon="9.4807833"><ele>279.0</ele><time>2026-04-25T14:09:08.228Z</time></trkpt><trkpt lat="45.6958133" lon="9.4807883"><ele>278.5</ele><time>2026-04-25T14:09:09.228Z</time></trkpt><trkpt lat="45.6957383" lon="9.4807817"><ele>278.0</ele><time>2026-04-25T14:09:10.229Z</time></trkpt><trkpt lat="45.6956567" lon="9.480775"><ele>278.0</ele><time>2026-04-25T14:09:11.228Z</time></trkpt><trkpt lat="45.6955717" lon="9.4807867"><ele>278.0</ele><time>2026-04-25T14:09:12.229Z</time></trkpt><trkpt lat="45.6954883" lon="9.4808117"><ele>278.0</ele><time>2026-04-25T14:09:13.228Z</time></trkpt><trkpt lat="45.6954067" lon="9.4808333"><ele>278.0</ele><time>2026-04-25T14:09:14.228Z</time></trkpt><trkpt lat="45.6953167" lon="9.4808433"><ele>278.0</ele><time>2026-04-25T14:09:15.229Z</time></trkpt><trkpt lat="45.6952267" lon="9.4808467"><ele>278.0</ele><time>2026-04-25T14:09:16.228Z</time></trkpt><trkpt lat="45.6951417" lon="9.4808483"><ele>278.1428571428571</ele><time>2026-04-25T14:09:17.229Z</time></trkpt><trkpt lat="45.69506" lon="9.48084"><ele>278.2857142857143</ele><time>2026-04-25T14:09:18.228Z</time></trkpt><trkpt lat="45.6949817" lon="9.4808217"><ele>278.42857142857144</ele><time>2026-04-25T14:09:19.229Z</time></trkpt><trkpt lat="45.6949117" lon="9.48079"><ele>278.57142857142856</ele><time>2026-04-25T14:09:20.228Z</time></trkpt><trkpt lat="45.6948533" lon="9.4807417"><ele>278.7142857142857</ele><time>2026-04-25T14:09:21.229Z</time></trkpt><trkpt lat="45.6948017" lon="9.4806767"><ele>278.85714285714283</ele><time>2026-04-25T14:09:22.229Z</time></trkpt><trkpt lat="45.6947683" lon="9.4805833"><ele>279.0</ele><time>2026-04-25T14:09:23.228Z</time></trkpt><trkpt lat="45.6947483" lon="9.4804633"><ele>279.0</ele><time>2026-04-25T14:09:24.228Z</time></trkpt><trkpt lat="45.6947383" lon="9.48032"><ele>279.0</ele><time>2026-04-25T14:09:25.228Z</time></trkpt><trkpt lat="45.6947417" lon="9.480155"><ele>279.0</ele><time>2026-04-25T14:09:26.23Z</time></trkpt><trkpt lat="45.69476" lon="9.479975"><ele>279.0</ele><time>2026-04-25T14:09:27.23Z</time></trkpt><trkpt lat="45.6947883" lon="9.479785"><ele>279.0</ele><time>2026-04-25T14:09:28.228Z</time></trkpt><trkpt lat="45.6948183" lon="9.4795767"><ele>279.0</ele><time>2026-04-25T14:09:29.229Z</time></trkpt><trkpt lat="45.6948517" lon="9.4793583"><ele>279.0</ele><time>2026-04-25T14:09:30.228Z</time></trkpt><trkpt lat="45.6948867" lon="9.4791267"><ele>279.0</ele><time>2026-04-25T14:09:31.23Z</time></trkpt><trkpt lat="45.694925" lon="9.478885"><ele>279.0</ele><time>2026-04-25T14:09:32.23Z</time></trkpt><trkpt lat="45.69496" lon="9.4786367"><ele>279.0</ele><time>2026-04-25T14:09:33.229Z</time></trkpt><trkpt lat="45.69499" lon="9.4784017"><ele>280.3333333333333</ele><time>2026-04-25T14:09:34.229Z</time></trkpt><trkpt lat="45.695025" lon="9.4781733"><ele>281.66666666666663</ele><time>2026-04-25T14:09:35.229Z</time></trkpt><trkpt lat="45.6950667" lon="9.4779433"><ele>283.0</ele><time>2026-04-25T14:09:36.229Z</time></trkpt><trkpt lat="45.6951217" lon="9.47772"><ele>283.3333333333333</ele><time>2026-04-25T14:09:37.23Z</time></trkpt><trkpt lat="45.6951983" lon="9.4775083"><ele>283.6666666666667</ele><time>2026-04-25T14:09:38.229Z</time></trkpt><trkpt lat="45.6952983" lon="9.4773067"><ele>284.0</ele><time>2026-04-25T14:09:39.228Z</time></trkpt><trkpt lat="45.6954217" lon="9.4771267"><ele>286.0</ele><time>2026-04-25T14:09:40.228Z</time></trkpt><trkpt lat="45.6955667" lon="9.4769767"><ele>288.0</ele><time>2026-04-25T14:09:41.228Z</time></trkpt><trkpt lat="45.6957217" lon="9.47686"><ele>290.0</ele><time>2026-04-25T14:09:42.228Z</time></trkpt><trkpt lat="45.6958867" lon="9.4767817"><ele>290.0</ele><time>2026-04-25T14:09:43.229Z</time></trkpt><trkpt lat="45.6960567" lon="9.4767417"><ele>290.0</ele><time>2026-04-25T14:09:44.228Z</time></trkpt><trkpt lat="45.6962333" lon="9.4767317"><ele>290.0</ele><time>2026-04-25T14:09:45.229Z</time></trkpt><trkpt lat="45.6964183" lon="9.4767383"><ele>291.33333333333337</ele><time>2026-04-25T14:09:46.228Z</time></trkpt><trkpt lat="45.6966133" lon="9.476755"><ele>292.6666666666667</ele><time>2026-04-25T14:09:47.229Z</time></trkpt><trkpt lat="45.6968133" lon="9.47678"><ele>294.0</ele><time>2026-04-25T14:09:48.229Z</time></trkpt><trkpt lat="45.6970217" lon="9.4768133"><ele>295.3333333333333</ele><time>2026-04-25T14:09:49.229Z</time></trkpt><trkpt lat="45.6972267" lon="9.4768467"><ele>296.66666666666663</ele><time>2026-04-25T14:09:50.228Z</time></trkpt><trkpt lat="45.6974333" lon="9.4768783"><ele>298.0</ele><time>2026-04-25T14:09:51.228Z</time></trkpt><trkpt lat="45.69764" lon="9.47691"><ele>298.66666666666663</ele><time>2026-04-25T14:09:52.229Z</time></trkpt><trkpt lat="45.6978367" lon="9.4769383"><ele>299.3333333333333</ele><time>2026-04-25T14:09:53.229Z</time></trkpt><trkpt lat="45.6980217" lon="9.47696"><ele>300.0</ele><time>2026-04-25T14:09:54.228Z</time></trkpt><trkpt lat="45.6981983" lon="9.4769683"><ele>300.0</ele><time>2026-04-25T14:09:55.228Z</time></trkpt><trkpt lat="45.6983683" lon="9.47696"><ele>300.0</ele><time>2026-04-25T14:09:56.228Z</time></trkpt><trkpt lat="45.698535" lon="9.476935"><ele>300.0</ele><time>2026-04-25T14:09:57.228Z</time></trkpt><trkpt lat="45.6986967" lon="9.476895"><ele>300.0</ele><time>2026-04-25T14:09:58.228Z</time></trkpt><trkpt lat="45.6988567" lon="9.4768417"><ele>300.0</ele><time>2026-04-25T14:09:59.228Z</time></trkpt><trkpt lat="45.6990167" lon="9.476775"><ele>300.0</ele><time>2026-04-25T14:10:00.227Z</time></trkpt><trkpt lat="45.6991733" lon="9.4766867"><ele>300.0</ele><time>2026-04-25T14:10:01.227Z</time></trkpt><trkpt lat="45.699335" lon="9.47657"><ele>300.0</ele><time>2026-04-25T14:10:02.228Z</time></trkpt><trkpt lat="45.6995033" lon="9.476435"><ele>300.0</ele><time>2026-04-25T14:10:03.227Z</time></trkpt><trkpt lat="45.6996817" lon="9.47629"><ele>300.0</ele><time>2026-04-25T14:10:04.227Z</time></trkpt><trkpt lat="45.6998683" lon="9.4761417"><ele>300.0</ele><time>2026-04-25T14:10:05.227Z</time></trkpt><trkpt lat="45.7000583" lon="9.4759933"><ele>300.0</ele><time>2026-04-25T14:10:06.227Z</time></trkpt><trkpt lat="45.70025" lon="9.4758367"><ele>300.0</ele><time>2026-04-25T14:10:07.227Z</time></trkpt><trkpt lat="45.700435" lon="9.475675"><ele>300.0</ele><time>2026-04-25T14:10:08.234Z</time></trkpt><trkpt lat="45.70061" lon="9.475505"><ele>300.0</ele><time>2026-04-25T14:10:09.229Z</time></trkpt><trkpt lat="45.700775" lon="9.4753217"><ele>300.6666666666667</ele><time>2026-04-25T14:10:10.229Z</time></trkpt><trkpt lat="45.70093" lon="9.4751217"><ele>301.33333333333337</ele><time>2026-04-25T14:10:11.228Z</time></trkpt><trkpt lat="45.7010767" lon="9.4749117"><ele>302.0</ele><time>2026-04-25T14:10:12.227Z</time></trkpt><trkpt lat="45.7012183" lon="9.47469"><ele>303.33333333333337</ele><time>2026-04-25T14:10:13.227Z</time></trkpt><trkpt lat="45.7013583" lon="9.4744567"><ele>304.6666666666667</ele><time>2026-04-25T14:10:14.228Z</time></trkpt><trkpt lat="45.7014933" lon="9.474215"><ele>306.0</ele><time>2026-04-25T14:10:15.227Z</time></trkpt><trkpt lat="45.7016283" lon="9.47397"><ele>307.0</ele><time>2026-04-25T14:10:16.227Z</time></trkpt><trkpt lat="45.7017617" lon="9.4737217"><ele>308.0</ele><time>2026-04-25T14:10:17.226Z</time></trkpt><trkpt lat="45.7018933" lon="9.4734717"><ele>309.0</ele><time>2026-04-25T14:10:18.227Z</time></trkpt><trkpt lat="45.70204" lon="9.4731983"><ele>311.5</ele><time>2026-04-25T14:10:19.228Z</time></trkpt><trkpt lat="45.70219" lon="9.472915"><ele>314.0</ele><time>2026-04-25T14:10:20.228Z</time></trkpt><trkpt lat="45.7076367" lon="9.46372"><ele>293.33333333333337</ele><time>2026-04-25T14:11:05.228Z</time></trkpt><trkpt lat="45.7077567" lon="9.4635667"><ele>272.6666666666667</ele><time>2026-04-25T14:11:06.228Z</time></trkpt><trkpt lat="45.70789" lon="9.4633933"><ele>252.0</ele><time>2026-04-25T14:11:07.228Z</time></trkpt><trkpt lat="45.7080233" lon="9.4632167"><ele>252.0</ele><time>2026-04-25T14:11:08.23Z</time></trkpt><trkpt lat="45.7081483" lon="9.463035"><ele>252.0</ele><time>2026-04-25T14:11:09.23Z</time></trkpt><trkpt lat="45.708275" lon="9.4628467"><ele>252.0</ele><time>2026-04-25T14:11:10.227Z</time></trkpt><trkpt lat="45.7084033" lon="9.4626567"><ele>252.0</ele><time>2026-04-25T14:11:11.229Z</time></trkpt><trkpt lat="45.7085383" lon="9.462455"><ele>252.0</ele><time>2026-04-25T14:11:12.227Z</time></trkpt><trkpt lat="45.7086767" lon="9.462245"><ele>252.0</ele><time>2026-04-25T14:11:13.228Z</time></trkpt><trkpt lat="45.7088167" lon="9.4620317"><ele>249.0</ele><time>2026-04-25T14:11:14.228Z</time></trkpt><trkpt lat="45.70896" lon="9.4618217"><ele>246.0</ele><time>2026-04-25T14:11:15.228Z</time></trkpt><trkpt lat="45.7090983" lon="9.4616167"><ele>243.0</ele><time>2026-04-25T14:11:16.227Z</time></trkpt><trkpt lat="45.7092333" lon="9.4614133"><ele>242.0</ele><time>2026-04-25T14:11:17.228Z</time></trkpt><trkpt lat="45.7093633" lon="9.4612183"><ele>241.0</ele><time>2026-04-25T14:11:18.229Z</time></trkpt><trkpt lat="45.7094917" lon="9.4610317"><ele>240.0</ele><time>2026-04-25T14:11:19.228Z</time></trkpt><trkpt lat="45.709615" lon="9.46085"><ele>239.66666666666669</ele><time>2026-04-25T14:11:20.228Z</time></trkpt><trkpt lat="45.7097367" lon="9.46067"><ele>239.33333333333334</ele><time>2026-04-25T14:11:21.229Z</time></trkpt><trkpt lat="45.70986" lon="9.4604917"><ele>239.0</ele><time>2026-04-25T14:11:22.229Z</time></trkpt><trkpt lat="45.7099833" lon="9.4603117"><ele>238.0</ele><time>2026-04-25T14:11:23.227Z</time></trkpt><trkpt lat="45.7101117" lon="9.4601333"><ele>237.0</ele><time>2026-04-25T14:11:24.229Z</time></trkpt><trkpt lat="45.7102417" lon="9.4599583"><ele>236.0</ele><time>2026-04-25T14:11:25.228Z</time></trkpt><trkpt lat="45.7103783" lon="9.45979"><ele>236.0</ele><time>2026-04-25T14:11:26.227Z</time></trkpt><trkpt lat="45.7105217" lon="9.459625"><ele>236.0</ele><time>2026-04-25T14:11:27.227Z</time></trkpt><trkpt lat="45.7106717" lon="9.4594667"><ele>236.0</ele><time>2026-04-25T14:11:28.227Z</time></trkpt><trkpt lat="45.7108233" lon="9.4593117"><ele>235.33333333333334</ele><time>2026-04-25T14:11:29.227Z</time></trkpt><trkpt lat="45.71098" lon="9.459165"><ele>234.66666666666669</ele><time>2026-04-25T14:11:30.228Z</time></trkpt><trkpt lat="45.7111367" lon="9.459025"><ele>234.0</ele><time>2026-04-25T14:11:31.227Z</time></trkpt><trkpt lat="45.7112883" lon="9.4588933"><ele>233.0</ele><time>2026-04-25T14:11:32.229Z</time></trkpt><trkpt lat="45.711435" lon="9.4587733"><ele>232.0</ele><time>2026-04-25T14:11:33.228Z</time></trkpt><trkpt lat="45.711575" lon="9.45866"><ele>231.0</ele><time>2026-04-25T14:11:34.229Z</time></trkpt><trkpt lat="45.71171" lon="9.4585533"><ele>231.0</ele><time>2026-04-25T14:11:35.227Z</time></trkpt><trkpt lat="45.7118383" lon="9.4584533"><ele>231.0</ele><time>2026-04-25T14:11:36.229Z</time></trkpt><trkpt lat="45.71196" lon="9.4583567"><ele>231.0</ele><time>2026-04-25T14:11:37.232Z</time></trkpt><trkpt lat="45.71208" lon="9.4582583"><ele>231.0</ele><time>2026-04-25T14:11:38.228Z</time></trkpt><trkpt lat="45.7122" lon="9.4581583"><ele>231.5</ele><time>2026-04-25T14:11:39.228Z</time></trkpt><trkpt lat="45.7123133" lon="9.4580683"><ele>232.0</ele><time>2026-04-25T14:11:40.227Z</time></trkpt><trkpt lat="45.712415" lon="9.45799"><ele>232.5</ele><time>2026-04-25T14:11:41.228Z</time></trkpt><trkpt lat="45.7125133" lon="9.4579217"><ele>233.0</ele><time>2026-04-25T14:11:42.229Z</time></trkpt><trkpt lat="45.7126117" lon="9.4578717"><ele>233.0</ele><time>2026-04-25T14:11:43.228Z</time></trkpt><trkpt lat="45.7127133" lon="9.4578417"><ele>233.0</ele><time>2026-04-25T14:11:44.229Z</time></trkpt><trkpt lat="45.7128117" lon="9.4578283"><ele>233.0</ele><time>2026-04-25T14:11:45.227Z</time></trkpt><trkpt lat="45.712905" lon="9.4578183"><ele>233.0</ele><time>2026-04-25T14:11:46.229Z</time></trkpt><trkpt lat="45.712995" lon="9.4577817"><ele>233.0</ele><time>2026-04-25T14:11:47.227Z</time></trkpt><trkpt lat="45.7130733" lon="9.457715"><ele>232.60000000000002</ele><time>2026-04-25T14:11:48.228Z</time></trkpt><trkpt lat="45.7131367" lon="9.4576233"><ele>232.20000000000002</ele><time>2026-04-25T14:11:49.228Z</time></trkpt><trkpt lat="45.7131783" lon="9.4575067"><ele>231.8</ele><time>2026-04-25T14:11:50.227Z</time></trkpt><trkpt lat="45.71321" lon="9.4573767"><ele>231.4</ele><time>2026-04-25T14:11:51.228Z</time></trkpt><trkpt lat="45.71324" lon="9.4572467"><ele>231.0</ele><time>2026-04-25T14:11:52.228Z</time></trkpt><trkpt lat="45.7132833" lon="9.4571267"><ele>231.0</ele><time>2026-04-25T14:11:53.23Z</time></trkpt><trkpt lat="45.7133433" lon="9.4570183"><ele>231.00000000000003</ele><time>2026-04-25T14:11:54.229Z</time></trkpt><trkpt lat="45.7134233" lon="9.4569233"><ele>231.00000000000003</ele><time>2026-04-25T14:11:55.229Z</time></trkpt><trkpt lat="45.713515" lon="9.4568333"><ele>231.0</ele><time>2026-04-25T14:11:56.227Z</time></trkpt><trkpt lat="45.7136133" lon="9.4567517"><ele>231.0</ele><time>2026-04-25T14:11:57.227Z</time></trkpt><trkpt lat="45.713715" lon="9.4566783"><ele>231.0</ele><time>2026-04-25T14:11:58.229Z</time></trkpt><trkpt lat="45.7138217" lon="9.456615"><ele>231.0</ele><time>2026-04-25T14:11:59.228Z</time></trkpt><trkpt lat="45.713935" lon="9.4565617"><ele>231.0</ele><time>2026-04-25T14:12:00.229Z</time></trkpt><trkpt lat="45.7140583" lon="9.4565217"><ele>231.0</ele><time>2026-04-25T14:12:01.229Z</time></trkpt><trkpt lat="45.7141867" lon="9.4564933"><ele>231.0</ele><time>2026-04-25T14:12:02.227Z</time></trkpt><trkpt lat="45.714325" lon="9.4564783"><ele>231.0</ele><time>2026-04-25T14:12:03.228Z</time></trkpt><trkpt lat="45.71447" lon="9.4564717"><ele>231.0</ele><time>2026-04-25T14:12:04.227Z</time></trkpt><trkpt lat="45.71461" lon="9.45647"><ele>231.0</ele><time>2026-04-25T14:12:05.228Z</time></trkpt><trkpt lat="45.7147417" lon="9.4564667"><ele>231.0</ele><time>2026-04-25T14:12:06.227Z</time></trkpt><trkpt lat="45.714865" lon="9.4564667"><ele>231.0</ele><time>2026-04-25T14:12:07.227Z</time></trkpt><trkpt lat="45.71498" lon="9.4564667"><ele>231.0</ele><time>2026-04-25T14:12:08.228Z</time></trkpt><trkpt lat="45.7150883" lon="9.4564633"><ele>231.0</ele><time>2026-04-25T14:12:09.227Z</time></trkpt><trkpt lat="45.7151933" lon="9.4564617"><ele>231.5</ele><time>2026-04-25T14:12:10.228Z</time></trkpt><trkpt lat="45.7153033" lon="9.45646"><ele>232.0</ele><time>2026-04-25T14:12:11.227Z</time></trkpt><trkpt lat="45.7154183" lon="9.4564583"><ele>232.5</ele><time>2026-04-25T14:12:12.228Z</time></trkpt><trkpt lat="45.7155333" lon="9.456455"><ele>233.0</ele><time>2026-04-25T14:12:13.228Z</time></trkpt><trkpt lat="45.7156533" lon="9.4564517"><ele>233.0</ele><time>2026-04-25T14:12:14.228Z</time></trkpt><trkpt lat="45.7157733" lon="9.4564467"><ele>233.0</ele><time>2026-04-25T14:12:15.227Z</time></trkpt><trkpt lat="45.715895" lon="9.4564433"><ele>233.0</ele><time>2026-04-25T14:12:16.228Z</time></trkpt><trkpt lat="45.71602" lon="9.45644"><ele>233.0</ele><time>2026-04-25T14:12:17.228Z</time></trkpt><trkpt lat="45.71615" lon="9.4564317"><ele>233.33333333333334</ele><time>2026-04-25T14:12:18.229Z</time></trkpt><trkpt lat="45.71629" lon="9.4564167"><ele>233.66666666666669</ele><time>2026-04-25T14:12:19.227Z</time></trkpt><trkpt lat="45.7164417" lon="9.4564017"><ele>234.0</ele><time>2026-04-25T14:12:20.229Z</time></trkpt><trkpt lat="45.7166067" lon="9.4563883"><ele>234.0</ele><time>2026-04-25T14:12:21.227Z</time></trkpt><trkpt lat="45.7167767" lon="9.4563867"><ele>234.0</ele><time>2026-04-25T14:12:22.228Z</time></trkpt><trkpt lat="45.71695" lon="9.4563883"><ele>234.0</ele><time>2026-04-25T14:12:23.229Z</time></trkpt><trkpt lat="45.7171183" lon="9.4563917"><ele>234.0</ele><time>2026-04-25T14:12:24.228Z</time></trkpt><trkpt lat="45.7172783" lon="9.45639"><ele>234.0</ele><time>2026-04-25T14:12:25.228Z</time></trkpt><trkpt lat="45.71743" lon="9.45639"><ele>234.0</ele><time>2026-04-25T14:12:26.228Z</time></trkpt><trkpt lat="45.7175733" lon="9.4563867"><ele>234.0</ele><time>2026-04-25T14:12:27.229Z</time></trkpt><trkpt lat="45.71771" lon="9.456385"><ele>234.0</ele><time>2026-04-25T14:12:28.228Z</time></trkpt><trkpt lat="45.717845" lon="9.4563817"><ele>234.0</ele><time>2026-04-25T14:12:29.228Z</time></trkpt><trkpt lat="45.717985" lon="9.4563733"><ele>234.0</ele><time>2026-04-25T14:12:30.229Z</time></trkpt><trkpt lat="45.7181283" lon="9.4563667"><ele>233.75</ele><time>2026-04-25T14:12:31.227Z</time></trkpt><trkpt lat="45.7182717" lon="9.4563583"><ele>233.5</ele><time>2026-04-25T14:12:32.229Z</time></trkpt><trkpt lat="45.7184133" lon="9.4563483"><ele>233.25</ele><time>2026-04-25T14:12:33.227Z</time></trkpt><trkpt lat="45.71855" lon="9.4563367"><ele>233.0</ele><time>2026-04-25T14:12:34.227Z</time></trkpt><trkpt lat="45.7186833" lon="9.4563267"><ele>233.75</ele><time>2026-04-25T14:12:35.227Z</time></trkpt><trkpt lat="45.71882" lon="9.4563167"><ele>234.5</ele><time>2026-04-25T14:12:36.227Z</time></trkpt><trkpt lat="45.718955" lon="9.4563133"><ele>235.25</ele><time>2026-04-25T14:12:37.228Z</time></trkpt><trkpt lat="45.7190883" lon="9.4563083"><ele>236.0</ele><time>2026-04-25T14:12:38.228Z</time></trkpt><trkpt lat="45.719215" lon="9.456305"><ele>236.0</ele><time>2026-04-25T14:12:39.228Z</time></trkpt><trkpt lat="45.7193417" lon="9.4562967"><ele>236.0</ele><time>2026-04-25T14:12:40.227Z</time></trkpt><trkpt lat="45.7194733" lon="9.4562867"><ele>236.0</ele><time>2026-04-25T14:12:41.229Z</time></trkpt><trkpt lat="45.7196167" lon="9.45627"><ele>236.0</ele><time>2026-04-25T14:12:42.229Z</time></trkpt><trkpt lat="45.71977" lon="9.456255"><ele>235.33333333333334</ele><time>2026-04-25T14:12:43.228Z</time></trkpt><trkpt lat="45.7199367" lon="9.456245"><ele>234.66666666666669</ele><time>2026-04-25T14:12:44.227Z</time></trkpt><trkpt lat="45.7201083" lon="9.4562433"><ele>234.0</ele><time>2026-04-25T14:12:45.227Z</time></trkpt><trkpt lat="45.72028" lon="9.4562483"><ele>234.0</ele><time>2026-04-25T14:12:46.227Z</time></trkpt><trkpt lat="45.720445" lon="9.45625"><ele>234.0</ele><time>2026-04-25T14:12:47.228Z</time></trkpt><trkpt lat="45.720605" lon="9.4562483"><ele>234.0</ele><time>2026-04-25T14:12:48.228Z</time></trkpt><trkpt lat="45.7207583" lon="9.456245"><ele>234.0</ele><time>2026-04-25T14:12:49.227Z</time></trkpt><trkpt lat="45.7209083" lon="9.4562417"><ele>234.0</ele><time>2026-04-25T14:12:50.227Z</time></trkpt><trkpt lat="45.72105" lon="9.456235"><ele>234.0</ele><time>2026-04-25T14:12:51.227Z</time></trkpt><trkpt lat="45.72119" lon="9.4562283"><ele>234.0</ele><time>2026-04-25T14:12:52.227Z</time></trkpt><trkpt lat="45.7213317" lon="9.4562233"><ele>234.0</ele><time>2026-04-25T14:12:53.228Z</time></trkpt><trkpt lat="45.7214717" lon="9.4562167"><ele>234.0</ele><time>2026-04-25T14:12:54.228Z</time></trkpt><trkpt lat="45.7216133" lon="9.4562117"><ele>234.0</ele><time>2026-04-25T14:12:55.228Z</time></trkpt><trkpt lat="45.721755" lon="9.4562067"><ele>234.0</ele><time>2026-04-25T14:12:56.228Z</time></trkpt><trkpt lat="45.7218983" lon="9.4562033"><ele>234.0</ele><time>2026-04-25T14:12:57.227Z</time></trkpt><trkpt lat="45.7220467" lon="9.4561983"><ele>234.0</ele><time>2026-04-25T14:12:58.229Z</time></trkpt><trkpt lat="45.7222" lon="9.4561917"><ele>234.0</ele><time>2026-04-25T14:12:59.228Z</time></trkpt><trkpt lat="45.7223533" lon="9.4561833"><ele>234.0</ele><time>2026-04-25T14:13:00.227Z</time></trkpt><trkpt lat="45.72251" lon="9.45618"><ele>234.0</ele><time>2026-04-25T14:13:01.228Z</time></trkpt><trkpt lat="45.722665" lon="9.4561733"><ele>234.0</ele><time>2026-04-25T14:13:02.229Z</time></trkpt><trkpt lat="45.7228217" lon="9.4561667"><ele>235.66666666666669</ele><time>2026-04-25T14:13:03.229Z</time></trkpt><trkpt lat="45.7229767" lon="9.45616"><ele>237.33333333333334</ele><time>2026-04-25T14:13:04.229Z</time></trkpt><trkpt lat="45.72313" lon="9.456155"><ele>239.0</ele><time>2026-04-25T14:13:05.228Z</time></trkpt><trkpt lat="45.7232867" lon="9.4561533"><ele>239.0</ele><time>2026-04-25T14:13:06.228Z</time></trkpt><trkpt lat="45.7234383" lon="9.456145"><ele>239.0</ele><time>2026-04-25T14:13:07.227Z</time></trkpt><trkpt lat="45.7235833" lon="9.456135"><ele>239.0</ele><time>2026-04-25T14:13:08.227Z</time></trkpt><trkpt lat="45.72372" lon="9.4561267"><ele>239.0</ele><time>2026-04-25T14:13:09.229Z</time></trkpt><trkpt lat="45.72385" lon="9.456115"><ele>239.0</ele><time>2026-04-25T14:13:10.228Z</time></trkpt><trkpt lat="45.7239867" lon="9.456105"><ele>239.0</ele><time>2026-04-25T14:13:11.229Z</time></trkpt><trkpt lat="45.72413" lon="9.456095"><ele>239.0</ele><time>2026-04-25T14:13:12.227Z</time></trkpt><trkpt lat="45.7242817" lon="9.4560867"><ele>239.0</ele><time>2026-04-25T14:13:13.227Z</time></trkpt><trkpt lat="45.72444" lon="9.4560683"><ele>238.66666666666669</ele><time>2026-04-25T14:13:14.228Z</time></trkpt><trkpt lat="45.7245967" lon="9.456035"><ele>238.33333333333331</ele><time>2026-04-25T14:13:15.228Z</time></trkpt><trkpt lat="45.7247467" lon="9.455985"><ele>238.0</ele><time>2026-04-25T14:13:16.227Z</time></trkpt><trkpt lat="45.7248867" lon="9.4559217"><ele>238.0</ele><time>2026-04-25T14:13:17.228Z</time></trkpt><trkpt lat="45.72502" lon="9.4558467"><ele>238.0</ele><time>2026-04-25T14:13:18.228Z</time></trkpt><trkpt lat="45.7251383" lon="9.4557533"><ele>238.0</ele><time>2026-04-25T14:13:19.228Z</time></trkpt><trkpt lat="45.7252433" lon="9.4556283"><ele>238.0</ele><time>2026-04-25T14:13:20.229Z</time></trkpt><trkpt lat="45.7253317" lon="9.4554783"><ele>236.25</ele><time>2026-04-25T14:13:21.229Z</time></trkpt><trkpt lat="45.7254067" lon="9.4553217"><ele>234.5</ele><time>2026-04-25T14:13:22.227Z</time></trkpt><trkpt lat="45.7254783" lon="9.45517"><ele>232.75</ele><time>2026-04-25T14:13:23.228Z</time></trkpt><trkpt lat="45.72555" lon="9.4550417"><ele>231.0</ele><time>2026-04-25T14:13:24.228Z</time></trkpt><trkpt lat="45.7256283" lon="9.4549533"><ele>231.0</ele><time>2026-04-25T14:13:25.228Z</time></trkpt><trkpt lat="45.7257217" lon="9.4548883"><ele>231.0</ele><time>2026-04-25T14:13:26.229Z</time></trkpt><trkpt lat="45.7258383" lon="9.4548517"><ele>231.0</ele><time>2026-04-25T14:13:27.227Z</time></trkpt><trkpt lat="45.7259683" lon="9.4548383"><ele>231.0</ele><time>2026-04-25T14:13:28.228Z</time></trkpt><trkpt lat="45.7261067" lon="9.454835"><ele>231.5</ele><time>2026-04-25T14:13:29.227Z</time></trkpt><trkpt lat="45.726245" lon="9.45483"><ele>232.0</ele><time>2026-04-25T14:13:30.228Z</time></trkpt><trkpt lat="45.7263783" lon="9.4548067"><ele>232.5</ele><time>2026-04-25T14:13:31.228Z</time></trkpt><trkpt lat="45.7265033" lon="9.4547617"><ele>233.0</ele><time>2026-04-25T14:13:32.228Z</time></trkpt><trkpt lat="45.7266167" lon="9.4546867"><ele>230.0</ele><time>2026-04-25T14:13:33.229Z</time></trkpt><trkpt lat="45.7267117" lon="9.4545817"><ele>227.0</ele><time>2026-04-25T14:13:34.228Z</time></trkpt><trkpt lat="45.7267967" lon="9.4544483"><ele>224.0</ele><time>2026-04-25T14:13:35.228Z</time></trkpt><trkpt lat="45.72688" lon="9.4543017"><ele>221.0</ele><time>2026-04-25T14:13:36.229Z</time></trkpt><trkpt lat="45.726955" lon="9.4541483"><ele>221.0</ele><time>2026-04-25T14:13:37.228Z</time></trkpt><trkpt lat="45.72702" lon="9.4539917"><ele>221.0</ele><time>2026-04-25T14:13:38.229Z</time></trkpt><trkpt lat="45.7270717" lon="9.4538267"><ele>221.0</ele><time>2026-04-25T14:13:39.228Z</time></trkpt><trkpt lat="45.7271117" lon="9.4536617"><ele>221.0</ele><time>2026-04-25T14:13:40.229Z</time></trkpt><trkpt lat="45.7271433" lon="9.45351"><ele>219.4</ele><time>2026-04-25T14:13:41.227Z</time></trkpt><trkpt lat="45.7271833" lon="9.4533767"><ele>217.8</ele><time>2026-04-25T14:13:42.228Z</time></trkpt><trkpt lat="45.727235" lon="9.453265"><ele>216.20000000000002</ele><time>2026-04-25T14:13:43.229Z</time></trkpt><trkpt lat="45.727305" lon="9.4531717"><ele>214.60000000000002</ele><time>2026-04-25T14:13:44.228Z</time></trkpt><trkpt lat="45.7273917" lon="9.4531267"><ele>213.0</ele><time>2026-04-25T14:13:45.229Z</time></trkpt><trkpt lat="45.7274783" lon="9.453105"><ele>213.0</ele><time>2026-04-25T14:13:46.229Z</time></trkpt><trkpt lat="45.7275783" lon="9.45311"><ele>213.0</ele><time>2026-04-25T14:13:47.227Z</time></trkpt><trkpt lat="45.7277033" lon="9.45314"><ele>213.0</ele><time>2026-04-25T14:13:48.228Z</time></trkpt><trkpt lat="45.7278417" lon="9.4531567"><ele>213.0</ele><time>2026-04-25T14:13:49.228Z</time></trkpt><trkpt lat="45.7279933" lon="9.453155"><ele>209.66666666666669</ele><time>2026-04-25T14:13:50.227Z</time></trkpt><trkpt lat="45.728155" lon="9.4531433"><ele>206.33333333333334</ele><time>2026-04-25T14:13:51.228Z</time></trkpt><trkpt lat="45.728325" lon="9.4531233"><ele>203.0</ele><time>2026-04-25T14:13:52.228Z</time></trkpt><trkpt lat="45.7285067" lon="9.4531033"><ele>202.0</ele><time>2026-04-25T14:13:53.229Z</time></trkpt><trkpt lat="45.7286733" lon="9.45308"><ele>201.0</ele><time>2026-04-25T14:13:54.228Z</time></trkpt><trkpt lat="45.7288417" lon="9.4530567"><ele>200.0</ele><time>2026-04-25T14:13:55.229Z</time></trkpt><trkpt lat="45.7290017" lon="9.4530367"><ele>200.0</ele><time>2026-04-25T14:13:56.228Z</time></trkpt><trkpt lat="45.7291367" lon="9.4530183"><ele>200.0</ele><time>2026-04-25T14:13:57.228Z</time></trkpt><trkpt lat="45.7292283" lon="9.453"><ele>200.0</ele><time>2026-04-25T14:13:58.229Z</time></trkpt><trkpt lat="45.72931" lon="9.452975"><ele>200.0</ele><time>2026-04-25T14:13:59.227Z</time></trkpt><trkpt lat="45.729395" lon="9.4529517"><ele>200.0</ele><time>2026-04-25T14:14:00.227Z</time></trkpt><trkpt lat="45.7295" lon="9.452925"><ele>199.5</ele><time>2026-04-25T14:14:01.228Z</time></trkpt><trkpt lat="45.7296233" lon="9.45289"><ele>199.0</ele><time>2026-04-25T14:14:02.228Z</time></trkpt><trkpt lat="45.729755" lon="9.452835"><ele>198.5</ele><time>2026-04-25T14:14:03.229Z</time></trkpt><trkpt lat="45.729895" lon="9.4527633"><ele>198.0</ele><time>2026-04-25T14:14:04.227Z</time></trkpt><trkpt lat="45.7300367" lon="9.45269"><ele>198.0</ele><time>2026-04-25T14:14:05.228Z</time></trkpt><trkpt lat="45.7301817" lon="9.4526167"><ele>198.0</ele><time>2026-04-25T14:14:06.227Z</time></trkpt><trkpt lat="45.7303233" lon="9.45256"><ele>198.0</ele><time>2026-04-25T14:14:07.228Z</time></trkpt><trkpt lat="45.73046" lon="9.452525"><ele>198.0</ele><time>2026-04-25T14:14:08.228Z</time></trkpt><trkpt lat="45.7305883" lon="9.4525133"><ele>197.75</ele><time>2026-04-25T14:14:09.227Z</time></trkpt><trkpt lat="45.73071" lon="9.4525217"><ele>197.5</ele><time>2026-04-25T14:14:10.228Z</time></trkpt><trkpt lat="45.7308267" lon="9.452535"><ele>197.25</ele><time>2026-04-25T14:14:11.228Z</time></trkpt><trkpt lat="45.7309383" lon="9.4525533"><ele>197.0</ele><time>2026-04-25T14:14:12.228Z</time></trkpt><trkpt lat="45.73104" lon="9.452575"><ele>197.00000000000003</ele><time>2026-04-25T14:14:13.229Z</time></trkpt><trkpt lat="45.7311317" lon="9.4526033"><ele>197.0</ele><time>2026-04-25T14:14:14.229Z</time></trkpt><trkpt lat="45.7312117" lon="9.4526467"><ele>197.0</ele><time>2026-04-25T14:14:15.229Z</time></trkpt><trkpt lat="45.7312833" lon="9.4526983"><ele>197.0</ele><time>2026-04-25T14:14:16.227Z</time></trkpt><trkpt lat="45.7313517" lon="9.4527583"><ele>197.00000000000003</ele><time>2026-04-25T14:14:17.227Z</time></trkpt><trkpt lat="45.731425" lon="9.4528067"><ele>197.0</ele><time>2026-04-25T14:14:18.227Z</time></trkpt><trkpt lat="45.7315033" lon="9.4528217"><ele>197.0</ele><time>2026-04-25T14:14:19.227Z</time></trkpt><trkpt lat="45.7315833" lon="9.4528"><ele>197.0</ele><time>2026-04-25T14:14:20.228Z</time></trkpt><trkpt lat="45.7316617" lon="9.4527167"><ele>197.0</ele><time>2026-04-25T14:14:21.229Z</time></trkpt><trkpt lat="45.731745" lon="9.45263"><ele>197.0</ele><time>2026-04-25T14:14:22.227Z</time></trkpt><trkpt lat="45.73184" lon="9.4525517"><ele>197.0</ele><time>2026-04-25T14:14:23.228Z</time></trkpt><trkpt lat="45.7319467" lon="9.452495"><ele>196.75</ele><time>2026-04-25T14:14:24.229Z</time></trkpt><trkpt lat="45.7320633" lon="9.452435"><ele>196.5</ele><time>2026-04-25T14:14:25.228Z</time></trkpt><trkpt lat="45.73218" lon="9.4523617"><ele>196.25</ele><time>2026-04-25T14:14:26.229Z</time></trkpt><trkpt lat="45.7322967" lon="9.4522683"><ele>196.0</ele><time>2026-04-25T14:14:27.228Z</time></trkpt><trkpt lat="45.732415" lon="9.4521517"><ele>196.25</ele><time>2026-04-25T14:14:28.229Z</time></trkpt><trkpt lat="45.7325333" lon="9.45202"><ele>196.5</ele><time>2026-04-25T14:14:29.229Z</time></trkpt><trkpt lat="45.7326483" lon="9.4518883"><ele>196.75</ele><time>2026-04-25T14:14:30.228Z</time></trkpt><trkpt lat="45.732765" lon="9.4517683"><ele>197.0</ele><time>2026-04-25T14:14:31.228Z</time></trkpt><trkpt lat="45.7328867" lon="9.4516583"><ele>197.66666666666669</ele><time>2026-04-25T14:14:32.229Z</time></trkpt><trkpt lat="45.733025" lon="9.451575"><ele>198.33333333333331</ele><time>2026-04-25T14:14:33.227Z</time></trkpt><trkpt lat="45.73317" lon="9.45151"><ele>199.0</ele><time>2026-04-25T14:14:34.227Z</time></trkpt><trkpt lat="45.7333233" lon="9.4514683"><ele>199.0</ele><time>2026-04-25T14:14:35.228Z</time></trkpt><trkpt lat="45.7334833" lon="9.45144"><ele>199.0</ele><time>2026-04-25T14:14:36.228Z</time></trkpt><trkpt lat="45.73365" lon="9.45143"><ele>199.0</ele><time>2026-04-25T14:14:37.227Z</time></trkpt><trkpt lat="45.73382" lon="9.4514383"><ele>199.66666666666666</ele><time>2026-04-25T14:14:38.228Z</time></trkpt><trkpt lat="45.7339967" lon="9.45146"><ele>200.33333333333331</ele><time>2026-04-25T14:14:39.229Z</time></trkpt><trkpt lat="45.73417" lon="9.451485"><ele>201.0</ele><time>2026-04-25T14:14:40.227Z</time></trkpt><trkpt lat="45.7343417" lon="9.4515067"><ele>200.0</ele><time>2026-04-25T14:14:41.23Z</time></trkpt><trkpt lat="45.7345183" lon="9.4515333"><ele>199.0</ele><time>2026-04-25T14:14:42.229Z</time></trkpt><trkpt lat="45.7346967" lon="9.4515567"><ele>198.0</ele><time>2026-04-25T14:14:43.229Z</time></trkpt><trkpt lat="45.73487" lon="9.4515783"><ele>198.0</ele><time>2026-04-25T14:14:44.229Z</time></trkpt><trkpt lat="45.7350333" lon="9.4515883"><ele>198.0</ele><time>2026-04-25T14:14:45.229Z</time></trkpt><trkpt lat="45.7351933" lon="9.4515883"><ele>198.0</ele><time>2026-04-25T14:14:46.229Z</time></trkpt><trkpt lat="45.7353517" lon="9.45157"><ele>198.33333333333331</ele><time>2026-04-25T14:14:47.228Z</time></trkpt><trkpt lat="45.7355117" lon="9.4515267"><ele>198.66666666666666</ele><time>2026-04-25T14:14:48.229Z</time></trkpt><trkpt lat="45.7356733" lon="9.4514667"><ele>199.0</ele><time>2026-04-25T14:14:49.228Z</time></trkpt><trkpt lat="45.73583" lon="9.4513933"><ele>199.0</ele><time>2026-04-25T14:14:50.23Z</time></trkpt><trkpt lat="45.7359767" lon="9.45131"><ele>199.0</ele><time>2026-04-25T14:14:51.231Z</time></trkpt><trkpt lat="45.7361133" lon="9.4512217"><ele>199.0</ele><time>2026-04-25T14:14:52.227Z</time></trkpt><trkpt lat="45.73624" lon="9.45114"><ele>199.0</ele><time>2026-04-25T14:14:53.228Z</time></trkpt><trkpt lat="45.736365" lon="9.4510733"><ele>198.75</ele><time>2026-04-25T14:14:54.228Z</time></trkpt><trkpt lat="45.7364917" lon="9.45102"><ele>198.5</ele><time>2026-04-25T14:14:55.228Z</time></trkpt><trkpt lat="45.7366267" lon="9.4509817"><ele>198.25</ele><time>2026-04-25T14:14:56.229Z</time></trkpt><trkpt lat="45.7367683" lon="9.4509483"><ele>198.0</ele><time>2026-04-25T14:14:57.228Z</time></trkpt><trkpt lat="45.7369167" lon="9.450915"><ele>198.0</ele><time>2026-04-25T14:14:58.228Z</time></trkpt><trkpt lat="45.73707" lon="9.45088"><ele>198.0</ele><time>2026-04-25T14:14:59.228Z</time></trkpt><trkpt lat="45.737225" lon="9.4508433"><ele>198.0</ele><time>2026-04-25T14:15:00.227Z</time></trkpt><trkpt lat="45.7373867" lon="9.450805"><ele>198.0</ele><time>2026-04-25T14:15:01.23Z</time></trkpt><trkpt lat="45.7375433" lon="9.4507733"><ele>198.0</ele><time>2026-04-25T14:15:02.227Z</time></trkpt><trkpt lat="45.7376933" lon="9.4507467"><ele>198.0</ele><time>2026-04-25T14:15:03.228Z</time></trkpt><trkpt lat="45.7378333" lon="9.4507317"><ele>198.5</ele><time>2026-04-25T14:15:04.227Z</time></trkpt><trkpt lat="45.7379717" lon="9.4507217"><ele>199.0</ele><time>2026-04-25T14:15:05.229Z</time></trkpt><trkpt lat="45.7381017" lon="9.450705"><ele>199.5</ele><time>2026-04-25T14:15:06.227Z</time></trkpt><trkpt lat="45.73823" lon="9.45069"><ele>200.0</ele><time>2026-04-25T14:15:07.228Z</time></trkpt><trkpt lat="45.7383517" lon="9.4506667"><ele>200.0</ele><time>2026-04-25T14:15:08.229Z</time></trkpt><trkpt lat="45.7384667" lon="9.4506483"><ele>200.0</ele><time>2026-04-25T14:15:09.228Z</time></trkpt><trkpt lat="45.73858" lon="9.4506317"><ele>200.0</ele><time>2026-04-25T14:15:10.228Z</time></trkpt><trkpt lat="45.7386933" lon="9.4506217"><ele>200.0</ele><time>2026-04-25T14:15:11.227Z</time></trkpt><trkpt lat="45.7387967" lon="9.4506133"><ele>200.0</ele><time>2026-04-25T14:15:12.228Z</time></trkpt><trkpt lat="45.73889" lon="9.4506067"><ele>199.85714285714286</ele><time>2026-04-25T14:15:13.228Z</time></trkpt><trkpt lat="45.738975" lon="9.45061"><ele>199.71428571428572</ele><time>2026-04-25T14:15:14.229Z</time></trkpt><trkpt lat="45.7390517" lon="9.4506317"><ele>199.57142857142856</ele><time>2026-04-25T14:15:15.229Z</time></trkpt><trkpt lat="45.7391217" lon="9.450665"><ele>199.42857142857144</ele><time>2026-04-25T14:15:16.229Z</time></trkpt><trkpt lat="45.7391833" lon="9.4507033"><ele>199.28571428571428</ele><time>2026-04-25T14:15:17.227Z</time></trkpt><trkpt lat="45.7392483" lon="9.45074"><ele>199.14285714285714</ele><time>2026-04-25T14:15:18.227Z</time></trkpt><trkpt lat="45.7393133" lon="9.4507483"><ele>199.0</ele><time>2026-04-25T14:15:19.227Z</time></trkpt><trkpt lat="45.7394067" lon="9.4506533"><ele>199.0</ele><time>2026-04-25T14:15:21.228Z</time></trkpt><trkpt lat="45.7394333" lon="9.450505"><ele>199.0</ele><time>2026-04-25T14:15:23.227Z</time></trkpt><trkpt lat="45.7394033" lon="9.4503883"><ele>199.0</ele><time>2026-04-25T14:15:24.23Z</time></trkpt><trkpt lat="45.7393667" lon="9.450265"><ele>199.0</ele><time>2026-04-25T14:15:25.227Z</time></trkpt><trkpt lat="45.7393367" lon="9.4501367"><ele>199.0</ele><time>2026-04-25T14:15:26.229Z</time></trkpt><trkpt lat="45.7393133" lon="9.45001"><ele>199.16666666666666</ele><time>2026-04-25T14:15:27.229Z</time></trkpt><trkpt lat="45.7392917" lon="9.44988"><ele>199.33333333333331</ele><time>2026-04-25T14:15:28.228Z</time></trkpt><trkpt lat="45.73928" lon="9.4497483"><ele>199.5</ele><time>2026-04-25T14:15:29.229Z</time></trkpt><trkpt lat="45.7392733" lon="9.4496217"><ele>199.66666666666669</ele><time>2026-04-25T14:15:30.228Z</time></trkpt><trkpt lat="45.7392717" lon="9.4495033"><ele>199.83333333333334</ele><time>2026-04-25T14:15:31.229Z</time></trkpt><trkpt lat="45.7392767" lon="9.4493867"><ele>200.0</ele><time>2026-04-25T14:15:32.231Z</time></trkpt><trkpt lat="45.739285" lon="9.4492667"><ele>199.2</ele><time>2026-04-25T14:15:33.228Z</time></trkpt><trkpt lat="45.739295" lon="9.44914"><ele>198.4</ele><time>2026-04-25T14:15:34.229Z</time></trkpt><trkpt lat="45.7393033" lon="9.4490033"><ele>197.60000000000002</ele><time>2026-04-25T14:15:35.229Z</time></trkpt><trkpt lat="45.7393133" lon="9.44887"><ele>196.8</ele><time>2026-04-25T14:15:36.228Z</time></trkpt><trkpt lat="45.739325" lon="9.44874"><ele>196.0</ele><time>2026-04-25T14:15:37.23Z</time></trkpt><trkpt lat="45.7393367" lon="9.4486183"><ele>195.66666666666666</ele><time>2026-04-25T14:15:38.229Z</time></trkpt><trkpt lat="45.739345" lon="9.4485017"><ele>195.33333333333331</ele><time>2026-04-25T14:15:39.23Z</time></trkpt><trkpt lat="45.73935" lon="9.4483817"><ele>195.0</ele><time>2026-04-25T14:15:40.23Z</time></trkpt><trkpt lat="45.7393583" lon="9.4482633"><ele>194.66666666666669</ele><time>2026-04-25T14:15:41.231Z</time></trkpt><trkpt lat="45.739365" lon="9.44815"><ele>194.33333333333334</ele><time>2026-04-25T14:15:42.231Z</time></trkpt><trkpt lat="45.73937" lon="9.4480333"><ele>194.0</ele><time>2026-04-25T14:15:43.23Z</time></trkpt><trkpt lat="45.7393783" lon="9.4479133"><ele>196.0</ele><time>2026-04-25T14:15:44.229Z</time></trkpt><trkpt lat="45.7393883" lon="9.4477917"><ele>198.0</ele><time>2026-04-25T14:15:45.231Z</time></trkpt><trkpt lat="45.739395" lon="9.4476633"><ele>200.0</ele><time>2026-04-25T14:15:46.23Z</time></trkpt><trkpt lat="45.7394067" lon="9.4475317"><ele>202.0</ele><time>2026-04-25T14:15:47.23Z</time></trkpt><trkpt lat="45.73942" lon="9.4473967"><ele>204.0</ele><time>2026-04-25T14:15:48.23Z</time></trkpt><trkpt lat="45.7394417" lon="9.4472517"><ele>204.79999999999998</ele><time>2026-04-25T14:15:49.231Z</time></trkpt><trkpt lat="45.73948" lon="9.4471133"><ele>205.6</ele><time>2026-04-25T14:15:50.229Z</time></trkpt><trkpt lat="45.7395317" lon="9.44697"><ele>206.4</ele><time>2026-04-25T14:15:51.23Z</time></trkpt><trkpt lat="45.7396" lon="9.4468417"><ele>207.2</ele><time>2026-04-25T14:15:52.23Z</time></trkpt><trkpt lat="45.73968" lon="9.446725"><ele>208.0</ele><time>2026-04-25T14:15:53.229Z</time></trkpt><trkpt lat="45.739755" lon="9.4466167"><ele>208.0</ele><time>2026-04-25T14:15:54.229Z</time></trkpt><trkpt lat="45.739845" lon="9.4465217"><ele>208.0</ele><time>2026-04-25T14:15:55.23Z</time></trkpt><trkpt lat="45.7399417" lon="9.4464417"><ele>208.0</ele><time>2026-04-25T14:15:56.23Z</time></trkpt><trkpt lat="45.74004" lon="9.4463717"><ele>208.0</ele><time>2026-04-25T14:15:57.229Z</time></trkpt><trkpt lat="45.74014" lon="9.4463067"><ele>208.0</ele><time>2026-04-25T14:15:58.229Z</time></trkpt><trkpt lat="45.740245" lon="9.4462533"><ele>208.8</ele><time>2026-04-25T14:15:59.229Z</time></trkpt><trkpt lat="45.7403433" lon="9.4462067"><ele>209.60000000000002</ele><time>2026-04-25T14:16:00.231Z</time></trkpt><trkpt lat="45.7404333" lon="9.44616"><ele>210.39999999999998</ele><time>2026-04-25T14:16:01.23Z</time></trkpt><trkpt lat="45.74052" lon="9.446115"><ele>211.2</ele><time>2026-04-25T14:16:02.229Z</time></trkpt><trkpt lat="45.7406033" lon="9.44607"><ele>212.0</ele><time>2026-04-25T14:16:03.23Z</time></trkpt><trkpt lat="45.740685" lon="9.4460267"><ele>212.0</ele><time>2026-04-25T14:16:04.229Z</time></trkpt><trkpt lat="45.740765" lon="9.4459833"><ele>212.0</ele><time>2026-04-25T14:16:05.227Z</time></trkpt><trkpt lat="45.740855" lon="9.44594"><ele>212.0</ele><time>2026-04-25T14:16:06.228Z</time></trkpt><trkpt lat="45.7409517" lon="9.4459"><ele>212.0</ele><time>2026-04-25T14:16:07.228Z</time></trkpt><trkpt lat="45.7410517" lon="9.4458717"><ele>212.0</ele><time>2026-04-25T14:16:08.228Z</time></trkpt><trkpt lat="45.7411467" lon="9.4458483"><ele>211.0</ele><time>2026-04-25T14:16:09.228Z</time></trkpt><trkpt lat="45.7412467" lon="9.4458233"><ele>210.0</ele><time>2026-04-25T14:16:10.229Z</time></trkpt><trkpt lat="45.741345" lon="9.4458083"><ele>209.0</ele><time>2026-04-25T14:16:11.229Z</time></trkpt><trkpt lat="45.7414383" lon="9.4457967"><ele>208.0</ele><time>2026-04-25T14:16:12.229Z</time></trkpt><trkpt lat="45.7415283" lon="9.4457867"><ele>207.0</ele><time>2026-04-25T14:16:13.229Z</time></trkpt><trkpt lat="45.7416117" lon="9.445775"><ele>207.0</ele><time>2026-04-25T14:16:14.227Z</time></trkpt><trkpt lat="45.7416883" lon="9.4457633"><ele>207.0</ele><time>2026-04-25T14:16:15.228Z</time></trkpt><trkpt lat="45.74176" lon="9.445755"><ele>207.0</ele><time>2026-04-25T14:16:16.227Z</time></trkpt><trkpt lat="45.7418717" lon="9.4457533"><ele>207.0</ele><time>2026-04-25T14:16:18.234Z</time></trkpt><trkpt lat="45.7419633" lon="9.4457583"><ele>207.0</ele><time>2026-04-25T14:16:20.227Z</time></trkpt><trkpt lat="45.742085" lon="9.44576"><ele>207.5</ele><time>2026-04-25T14:16:22.227Z</time></trkpt><trkpt lat="45.7421583" lon="9.4457383"><ele>208.0</ele><time>2026-04-25T14:16:23.228Z</time></trkpt><trkpt lat="45.7422333" lon="9.445705"><ele>208.5</ele><time>2026-04-25T14:16:24.231Z</time></trkpt><trkpt lat="45.742315" lon="9.4456683"><ele>209.0</ele><time>2026-04-25T14:16:25.228Z</time></trkpt><trkpt lat="45.7424083" lon="9.4456217"><ele>209.5</ele><time>2026-04-25T14:16:26.228Z</time></trkpt><trkpt lat="45.7425" lon="9.44556"><ele>210.0</ele><time>2026-04-25T14:16:27.228Z</time></trkpt><trkpt lat="45.74259" lon="9.4454833"><ele>210.4</ele><time>2026-04-25T14:16:28.227Z</time></trkpt><trkpt lat="45.74267" lon="9.4453933"><ele>210.8</ele><time>2026-04-25T14:16:29.228Z</time></trkpt><trkpt lat="45.7427433" lon="9.4452933"><ele>211.2</ele><time>2026-04-25T14:16:30.228Z</time></trkpt><trkpt lat="45.7428117" lon="9.4451767"><ele>211.6</ele><time>2026-04-25T14:16:31.228Z</time></trkpt><trkpt lat="45.7428817" lon="9.4450517"><ele>212.0</ele><time>2026-04-25T14:16:32.227Z</time></trkpt><trkpt lat="45.74295" lon="9.444925"><ele>212.0</ele><time>2026-04-25T14:16:33.232Z</time></trkpt><trkpt lat="45.74302" lon="9.4448"><ele>212.0</ele><time>2026-04-25T14:16:34.227Z</time></trkpt><trkpt lat="45.7430883" lon="9.4446783"><ele>212.0</ele><time>2026-04-25T14:16:35.227Z</time></trkpt><trkpt lat="45.743155" lon="9.4445583"><ele>212.0</ele><time>2026-04-25T14:16:36.227Z</time></trkpt><trkpt lat="45.7432183" lon="9.444435"><ele>212.0</ele><time>2026-04-25T14:16:37.227Z</time></trkpt><trkpt lat="45.7432833" lon="9.4443167"><ele>213.0</ele><time>2026-04-25T14:16:38.228Z</time></trkpt><trkpt lat="45.7433517" lon="9.4442"><ele>214.0</ele><time>2026-04-25T14:16:39.228Z</time></trkpt><trkpt lat="45.74342" lon="9.444085"><ele>215.0</ele><time>2026-04-25T14:16:40.227Z</time></trkpt><trkpt lat="45.743485" lon="9.4439683"><ele>216.0</ele><time>2026-04-25T14:16:41.228Z</time></trkpt><trkpt lat="45.74354" lon="9.4438467"><ele>217.0</ele><time>2026-04-25T14:16:42.229Z</time></trkpt><trkpt lat="45.7435817" lon="9.4437133"><ele>217.6</ele><time>2026-04-25T14:16:43.228Z</time></trkpt><trkpt lat="45.7436133" lon="9.4435683"><ele>218.2</ele><time>2026-04-25T14:16:44.227Z</time></trkpt><trkpt lat="45.7436333" lon="9.443415"><ele>218.8</ele><time>2026-04-25T14:16:45.228Z</time></trkpt><trkpt lat="45.7436333" lon="9.443255"><ele>219.4</ele><time>2026-04-25T14:16:46.227Z</time></trkpt><trkpt lat="45.743615" lon="9.443095"><ele>220.0</ele><time>2026-04-25T14:16:47.228Z</time></trkpt><trkpt lat="45.743585" lon="9.44293"><ele>221.0</ele><time>2026-04-25T14:16:48.228Z</time></trkpt><trkpt lat="45.7435533" lon="9.442755"><ele>222.0</ele><time>2026-04-25T14:16:49.229Z</time></trkpt><trkpt lat="45.7435083" lon="9.4425583"><ele>223.0</ele><time>2026-04-25T14:16:50.229Z</time></trkpt><trkpt lat="45.74346" lon="9.44234"><ele>224.0</ele><time>2026-04-25T14:16:51.228Z</time></trkpt><trkpt lat="45.7434083" lon="9.4420967"><ele>224.33333333333334</ele><time>2026-04-25T14:16:52.229Z</time></trkpt><trkpt lat="45.7433617" lon="9.4418367"><ele>224.66666666666669</ele><time>2026-04-25T14:16:53.229Z</time></trkpt><trkpt lat="45.7433183" lon="9.4415733"><ele>225.0</ele><time>2026-04-25T14:16:54.228Z</time></trkpt><trkpt lat="45.7432733" lon="9.4412983"><ele>225.33333333333331</ele><time>2026-04-25T14:16:55.229Z</time></trkpt><trkpt lat="45.743225" lon="9.44102"><ele>225.66666666666666</ele><time>2026-04-25T14:16:56.228Z</time></trkpt><trkpt lat="45.743175" lon="9.44075"><ele>226.0</ele><time>2026-04-25T14:16:57.228Z</time></trkpt><trkpt lat="45.743125" lon="9.4405033"><ele>226.25</ele><time>2026-04-25T14:16:58.228Z</time></trkpt><trkpt lat="45.7430717" lon="9.440285"><ele>226.5</ele><time>2026-04-25T14:16:59.227Z</time></trkpt><trkpt lat="45.743015" lon="9.4401033"><ele>226.75</ele><time>2026-04-25T14:17:00.231Z</time></trkpt><trkpt lat="45.7429517" lon="9.4399417"><ele>227.0</ele><time>2026-04-25T14:17:01.228Z</time></trkpt><trkpt lat="45.7428683" lon="9.4398083"><ele>227.0</ele><time>2026-04-25T14:17:02.228Z</time></trkpt><trkpt lat="45.74277" lon="9.4396917"><ele>227.0</ele><time>2026-04-25T14:17:03.23Z</time></trkpt><trkpt lat="45.74266" lon="9.43959"><ele>227.0</ele><time>2026-04-25T14:17:04.229Z</time></trkpt><trkpt lat="45.7425417" lon="9.4394817"><ele>227.0</ele><time>2026-04-25T14:17:05.227Z</time></trkpt><trkpt lat="45.7424167" lon="9.4393717"><ele>225.33333333333334</ele><time>2026-04-25T14:17:06.228Z</time></trkpt><trkpt lat="45.7422883" lon="9.439255"><ele>223.66666666666669</ele><time>2026-04-25T14:17:07.228Z</time></trkpt><trkpt lat="45.7421583" lon="9.4391417"><ele>222.0</ele><time>2026-04-25T14:17:08.229Z</time></trkpt><trkpt lat="45.7420267" lon="9.439025"><ele>222.0</ele><time>2026-04-25T14:17:09.228Z</time></trkpt><trkpt lat="45.7418933" lon="9.4389083"><ele>222.0</ele><time>2026-04-25T14:17:10.228Z</time></trkpt><trkpt lat="45.74176" lon="9.43879"><ele>222.0</ele><time>2026-04-25T14:17:11.228Z</time></trkpt><trkpt lat="45.741625" lon="9.43867"><ele>220.66666666666669</ele><time>2026-04-25T14:17:12.228Z</time></trkpt><trkpt lat="45.74149" lon="9.43855"><ele>219.33333333333334</ele><time>2026-04-25T14:17:13.229Z</time></trkpt><trkpt lat="45.7413533" lon="9.4384333"><ele>218.0</ele><time>2026-04-25T14:17:14.229Z</time></trkpt><trkpt lat="45.7412167" lon="9.4383117"><ele>218.0</ele><time>2026-04-25T14:17:15.228Z</time></trkpt><trkpt lat="45.7410833" lon="9.4381917"><ele>218.0</ele><time>2026-04-25T14:17:16.229Z</time></trkpt><trkpt lat="45.7409517" lon="9.43807"><ele>218.0</ele><time>2026-04-25T14:17:17.229Z</time></trkpt><trkpt lat="45.7408217" lon="9.437955"><ele>219.0</ele><time>2026-04-25T14:17:18.229Z</time></trkpt><trkpt lat="45.7406933" lon="9.437845"><ele>220.0</ele><time>2026-04-25T14:17:19.227Z</time></trkpt><trkpt lat="45.7405617" lon="9.43774"><ele>221.0</ele><time>2026-04-25T14:17:20.228Z</time></trkpt><trkpt lat="45.7404283" lon="9.43765"><ele>222.0</ele><time>2026-04-25T14:17:21.228Z</time></trkpt><trkpt lat="45.740295" lon="9.43757"><ele>224.5</ele><time>2026-04-25T14:17:22.228Z</time></trkpt><trkpt lat="45.7401533" lon="9.4375033"><ele>227.0</ele><time>2026-04-25T14:17:23.229Z</time></trkpt><trkpt lat="45.7398667" lon="9.4373733"><ele>227.0</ele><time>2026-04-25T14:17:25.228Z</time></trkpt><trkpt lat="45.7397183" lon="9.437305"><ele>227.0</ele><time>2026-04-25T14:17:26.228Z</time></trkpt><trkpt lat="45.7395733" lon="9.4372417"><ele>227.0</ele><time>2026-04-25T14:17:27.23Z</time></trkpt><trkpt lat="45.7394267" lon="9.4371783"><ele>225.0</ele><time>2026-04-25T14:17:28.228Z</time></trkpt><trkpt lat="45.7392817" lon="9.4371183"><ele>223.0</ele><time>2026-04-25T14:17:29.228Z</time></trkpt><trkpt lat="45.7391383" lon="9.4370533"><ele>221.0</ele><time>2026-04-25T14:17:30.229Z</time></trkpt><trkpt lat="45.7389933" lon="9.4369883"><ele>221.0</ele><time>2026-04-25T14:17:31.228Z</time></trkpt><trkpt lat="45.73885" lon="9.4369267"><ele>221.0</ele><time>2026-04-25T14:17:32.229Z</time></trkpt><trkpt lat="45.7387067" lon="9.436865"><ele>221.0</ele><time>2026-04-25T14:17:33.229Z</time></trkpt><trkpt lat="45.7385633" lon="9.4368033"><ele>221.0</ele><time>2026-04-25T14:17:34.227Z</time></trkpt><trkpt lat="45.7384167" lon="9.43674"><ele>223.33333333333334</ele><time>2026-04-25T14:17:35.229Z</time></trkpt><trkpt lat="45.7382717" lon="9.436675"><ele>225.66666666666669</ele><time>2026-04-25T14:17:36.228Z</time></trkpt><trkpt lat="45.7381283" lon="9.4366083"><ele>228.0</ele><time>2026-04-25T14:17:37.228Z</time></trkpt><trkpt lat="45.7379783" lon="9.4365433"><ele>228.0</ele><time>2026-04-25T14:17:38.228Z</time></trkpt><trkpt lat="45.7378283" lon="9.4364783"><ele>228.0</ele><time>2026-04-25T14:17:39.228Z</time></trkpt><trkpt lat="45.737675" lon="9.4364117"><ele>228.0</ele><time>2026-04-25T14:17:40.228Z</time></trkpt><trkpt lat="45.7375283" lon="9.4363433"><ele>228.25</ele><time>2026-04-25T14:17:41.228Z</time></trkpt><trkpt lat="45.7373867" lon="9.4362817"><ele>228.5</ele><time>2026-04-25T14:17:42.228Z</time></trkpt><trkpt lat="45.737255" lon="9.436225"><ele>228.75</ele><time>2026-04-25T14:17:43.228Z</time></trkpt><trkpt lat="45.7371283" lon="9.4361683"><ele>229.0</ele><time>2026-04-25T14:17:44.228Z</time></trkpt><trkpt lat="45.737" lon="9.4361083"><ele>228.75</ele><time>2026-04-25T14:17:45.229Z</time></trkpt><trkpt lat="45.7368667" lon="9.4360367"><ele>228.5</ele><time>2026-04-25T14:17:46.227Z</time></trkpt><trkpt lat="45.7367317" lon="9.4359483"><ele>228.25</ele><time>2026-04-25T14:17:47.229Z</time></trkpt><trkpt lat="45.7365967" lon="9.4358417"><ele>228.0</ele><time>2026-04-25T14:17:48.229Z</time></trkpt><trkpt lat="45.7364617" lon="9.435715"><ele>228.0</ele><time>2026-04-25T14:17:49.229Z</time></trkpt><trkpt lat="45.73633" lon="9.4355733"><ele>228.0</ele><time>2026-04-25T14:17:50.228Z</time></trkpt><trkpt lat="45.7362" lon="9.4354217"><ele>228.0</ele><time>2026-04-25T14:17:51.229Z</time></trkpt><trkpt lat="45.7360783" lon="9.43526"><ele>227.0</ele><time>2026-04-25T14:17:52.23Z</time></trkpt><trkpt lat="45.7359667" lon="9.435085"><ele>226.0</ele><time>2026-04-25T14:17:53.229Z</time></trkpt><trkpt lat="45.7358667" lon="9.434905"><ele>225.0</ele><time>2026-04-25T14:17:54.228Z</time></trkpt><trkpt lat="45.7357783" lon="9.4347183"><ele>224.0</ele><time>2026-04-25T14:17:55.229Z</time></trkpt><trkpt lat="45.7356967" lon="9.43453"><ele>223.0</ele><time>2026-04-25T14:17:56.228Z</time></trkpt><trkpt lat="45.7356217" lon="9.4343367"><ele>222.0</ele><time>2026-04-25T14:17:57.23Z</time></trkpt><trkpt lat="45.7355467" lon="9.43414"><ele>222.0</ele><time>2026-04-25T14:17:58.228Z</time></trkpt><trkpt lat="45.735475" lon="9.433945"><ele>222.0</ele><time>2026-04-25T14:17:59.228Z</time></trkpt><trkpt lat="45.7354033" lon="9.433745"><ele>222.0</ele><time>2026-04-25T14:18:00.229Z</time></trkpt><trkpt lat="45.7353317" lon="9.433545"><ele>222.0</ele><time>2026-04-25T14:18:01.229Z</time></trkpt><trkpt lat="45.7352633" lon="9.4333433"><ele>222.0</ele><time>2026-04-25T14:18:02.229Z</time></trkpt><trkpt lat="45.7351933" lon="9.4331433"><ele>222.0</ele><time>2026-04-25T14:18:03.229Z</time></trkpt><trkpt lat="45.7351233" lon="9.4329383"><ele>223.33333333333331</ele><time>2026-04-25T14:18:04.228Z</time></trkpt><trkpt lat="45.7350533" lon="9.4327383"><ele>224.66666666666666</ele><time>2026-04-25T14:18:05.228Z</time></trkpt><trkpt lat="45.7349833" lon="9.4325383"><ele>226.0</ele><time>2026-04-25T14:18:06.228Z</time></trkpt><trkpt lat="45.7349117" lon="9.43234"><ele>226.0</ele><time>2026-04-25T14:18:07.23Z</time></trkpt><trkpt lat="45.7348383" lon="9.432145"><ele>226.0</ele><time>2026-04-25T14:18:08.23Z</time></trkpt><trkpt lat="45.7347683" lon="9.4319517"><ele>226.0</ele><time>2026-04-25T14:18:09.228Z</time></trkpt><trkpt lat="45.7347" lon="9.4317583"><ele>226.0</ele><time>2026-04-25T14:18:10.228Z</time></trkpt><trkpt lat="45.73464" lon="9.4315617"><ele>226.0</ele><time>2026-04-25T14:18:11.228Z</time></trkpt><trkpt lat="45.7345867" lon="9.4313633"><ele>226.0</ele><time>2026-04-25T14:18:12.229Z</time></trkpt><trkpt lat="45.7345333" lon="9.4311633"><ele>226.0</ele><time>2026-04-25T14:18:13.229Z</time></trkpt><trkpt lat="45.7344833" lon="9.4309583"><ele>226.0</ele><time>2026-04-25T14:18:14.229Z</time></trkpt><trkpt lat="45.734435" lon="9.4307533"><ele>226.0</ele><time>2026-04-25T14:18:15.23Z</time></trkpt><trkpt lat="45.7343867" lon="9.4305467"><ele>226.0</ele><time>2026-04-25T14:18:16.229Z</time></trkpt><trkpt lat="45.7343417" lon="9.43034"><ele>226.66666666666666</ele><time>2026-04-25T14:18:17.229Z</time></trkpt><trkpt lat="45.7343033" lon="9.43013"><ele>227.33333333333331</ele><time>2026-04-25T14:18:18.23Z</time></trkpt><trkpt lat="45.7342717" lon="9.4299183"><ele>228.0</ele><time>2026-04-25T14:18:19.231Z</time></trkpt><trkpt lat="45.734255" lon="9.429705"><ele>228.75</ele><time>2026-04-25T14:18:20.228Z</time></trkpt><trkpt lat="45.7342567" lon="9.4294883"><ele>229.5</ele><time>2026-04-25T14:18:21.23Z</time></trkpt><trkpt lat="45.734265" lon="9.4292767"><ele>230.25</ele><time>2026-04-25T14:18:22.227Z</time></trkpt><trkpt lat="45.7342817" lon="9.4290717"><ele>231.0</ele><time>2026-04-25T14:18:23.229Z</time></trkpt><trkpt lat="45.7343033" lon="9.42888"><ele>231.0</ele><time>2026-04-25T14:18:24.228Z</time></trkpt><trkpt lat="45.734325" lon="9.4287017"><ele>231.0</ele><time>2026-04-25T14:18:25.228Z</time></trkpt><trkpt lat="45.734345" lon="9.428535"><ele>231.0</ele><time>2026-04-25T14:18:26.229Z</time></trkpt><trkpt lat="45.7343683" lon="9.42837"><ele>231.0</ele><time>2026-04-25T14:18:27.229Z</time></trkpt><trkpt lat="45.7343933" lon="9.4282"><ele>230.4</ele><time>2026-04-25T14:18:28.227Z</time></trkpt><trkpt lat="45.7344167" lon="9.4280383"><ele>229.8</ele><time>2026-04-25T14:18:29.228Z</time></trkpt><trkpt lat="45.73444" lon="9.4278817"><ele>229.20000000000002</ele><time>2026-04-25T14:18:30.229Z</time></trkpt><trkpt lat="45.7344633" lon="9.4277283"><ele>228.60000000000002</ele><time>2026-04-25T14:18:31.229Z</time></trkpt><trkpt lat="45.7344867" lon="9.4275833"><ele>228.0</ele><time>2026-04-25T14:18:32.228Z</time></trkpt><trkpt lat="45.7345117" lon="9.4274433"><ele>228.0</ele><time>2026-04-25T14:18:33.229Z</time></trkpt><trkpt lat="45.7345333" lon="9.427305"><ele>228.0</ele><time>2026-04-25T14:18:34.228Z</time></trkpt><trkpt lat="45.734555" lon="9.4271633"><ele>228.0</ele><time>2026-04-25T14:18:35.228Z</time></trkpt><trkpt lat="45.73457" lon="9.4270067"><ele>228.0</ele><time>2026-04-25T14:18:36.227Z</time></trkpt><trkpt lat="45.73457" lon="9.4268417"><ele>228.0</ele><time>2026-04-25T14:18:37.227Z</time></trkpt><trkpt lat="45.7345583" lon="9.4266633"><ele>228.5</ele><time>2026-04-25T14:18:38.229Z</time></trkpt><trkpt lat="45.73455" lon="9.4264867"><ele>229.0</ele><time>2026-04-25T14:18:39.229Z</time></trkpt><trkpt lat="45.734555" lon="9.4263167"><ele>229.5</ele><time>2026-04-25T14:18:40.229Z</time></trkpt><trkpt lat="45.7345633" lon="9.4261467"><ele>230.0</ele><time>2026-04-25T14:18:41.228Z</time></trkpt><trkpt lat="45.7345717" lon="9.42598"><ele>230.25</ele><time>2026-04-25T14:18:42.228Z</time></trkpt><trkpt lat="45.7345767" lon="9.425815"><ele>230.5</ele><time>2026-04-25T14:18:43.228Z</time></trkpt><trkpt lat="45.734585" lon="9.4256367"><ele>230.75</ele><time>2026-04-25T14:18:44.228Z</time></trkpt><trkpt lat="45.73459" lon="9.4254483"><ele>231.0</ele><time>2026-04-25T14:18:45.229Z</time></trkpt><trkpt lat="45.7345933" lon="9.4252467"><ele>231.0</ele><time>2026-04-25T14:18:46.228Z</time></trkpt><trkpt lat="45.7345967" lon="9.42502"><ele>231.0</ele><time>2026-04-25T14:18:47.229Z</time></trkpt><trkpt lat="45.7346" lon="9.424765"><ele>231.0</ele><time>2026-04-25T14:18:48.229Z</time></trkpt><trkpt lat="45.7346083" lon="9.4244867"><ele>230.66666666666669</ele><time>2026-04-25T14:18:49.231Z</time></trkpt><trkpt lat="45.7346267" lon="9.4242033"><ele>230.33333333333334</ele><time>2026-04-25T14:18:50.231Z</time></trkpt><trkpt lat="45.7346467" lon="9.42391"><ele>230.0</ele><time>2026-04-25T14:18:51.23Z</time></trkpt><trkpt lat="45.73466" lon="9.42362"><ele>229.33333333333334</ele><time>2026-04-25T14:18:52.228Z</time></trkpt><trkpt lat="45.7346683" lon="9.423345"><ele>228.66666666666669</ele><time>2026-04-25T14:18:53.228Z</time></trkpt><trkpt lat="45.7346783" lon="9.4230767"><ele>228.0</ele><time>2026-04-25T14:18:54.229Z</time></trkpt><trkpt lat="45.7346867" lon="9.4228083"><ele>228.0</ele><time>2026-04-25T14:18:55.228Z</time></trkpt><trkpt lat="45.734695" lon="9.422545"><ele>228.0</ele><time>2026-04-25T14:18:56.228Z</time></trkpt><trkpt lat="45.7347" lon="9.4222783"><ele>228.0</ele><time>2026-04-25T14:18:57.23Z</time></trkpt><trkpt lat="45.7347067" lon="9.4220117"><ele>227.33333333333331</ele><time>2026-04-25T14:18:58.228Z</time></trkpt><trkpt lat="45.7347117" lon="9.4217467"><ele>226.66666666666666</ele><time>2026-04-25T14:18:59.229Z</time></trkpt><trkpt lat="45.7347217" lon="9.4214767"><ele>226.0</ele><time>2026-04-25T14:19:00.229Z</time></trkpt><trkpt lat="45.7347317" lon="9.421205"><ele>226.0</ele><time>2026-04-25T14:19:01.228Z</time></trkpt><trkpt lat="45.7347433" lon="9.4209367"><ele>226.0</ele><time>2026-04-25T14:19:02.228Z</time></trkpt><trkpt lat="45.7347533" lon="9.4206767"><ele>226.0</ele><time>2026-04-25T14:19:03.23Z</time></trkpt><trkpt lat="45.7347633" lon="9.4204183"><ele>226.0</ele><time>2026-04-25T14:19:04.229Z</time></trkpt><trkpt lat="45.7347717" lon="9.4201717"><ele>226.0</ele><time>2026-04-25T14:19:05.229Z</time></trkpt><trkpt lat="45.7347783" lon="9.4199367"><ele>226.0</ele><time>2026-04-25T14:19:06.229Z</time></trkpt><trkpt lat="45.734785" lon="9.419715"><ele>225.5</ele><time>2026-04-25T14:19:07.23Z</time></trkpt><trkpt lat="45.73479" lon="9.4195083"><ele>225.0</ele><time>2026-04-25T14:19:08.229Z</time></trkpt><trkpt lat="45.7347967" lon="9.419315"><ele>224.5</ele><time>2026-04-25T14:19:09.228Z</time></trkpt><trkpt lat="45.734795" lon="9.419135"><ele>224.0</ele><time>2026-04-25T14:19:10.228Z</time></trkpt><trkpt lat="45.73479" lon="9.41896"><ele>224.0</ele><time>2026-04-25T14:19:11.229Z</time></trkpt><trkpt lat="45.734785" lon="9.418805"><ele>223.99999999999997</ele><time>2026-04-25T14:19:12.229Z</time></trkpt><trkpt lat="45.7347917" lon="9.4186667"><ele>223.99999999999997</ele><time>2026-04-25T14:19:13.229Z</time></trkpt><trkpt lat="45.7348183" lon="9.4185433"><ele>224.0</ele><time>2026-04-25T14:19:14.229Z</time></trkpt><trkpt lat="45.734855" lon="9.41844"><ele>224.0</ele><time>2026-04-25T14:19:15.229Z</time></trkpt><trkpt lat="45.73489" lon="9.4183383"><ele>224.00000000000003</ele><time>2026-04-25T14:19:16.231Z</time></trkpt><trkpt lat="45.7349067" lon="9.4182283"><ele>224.0</ele><time>2026-04-25T14:19:17.228Z</time></trkpt><trkpt lat="45.7349017" lon="9.418125"><ele>224.0</ele><time>2026-04-25T14:19:18.228Z</time></trkpt><trkpt lat="45.734855" lon="9.4180483"><ele>224.0</ele><time>2026-04-25T14:19:19.229Z</time></trkpt><trkpt lat="45.7347917" lon="9.417985"><ele>224.00000000000003</ele><time>2026-04-25T14:19:20.228Z</time></trkpt><trkpt lat="45.7347133" lon="9.4179183"><ele>224.0</ele><time>2026-04-25T14:19:21.229Z</time></trkpt><trkpt lat="45.7346283" lon="9.4178383"><ele>223.75</ele><time>2026-04-25T14:19:22.228Z</time></trkpt><trkpt lat="45.734535" lon="9.41774"><ele>223.5</ele><time>2026-04-25T14:19:23.229Z</time></trkpt><trkpt lat="45.7344317" lon="9.417625"><ele>223.25</ele><time>2026-04-25T14:19:24.229Z</time></trkpt><trkpt lat="45.734325" lon="9.4175017"><ele>223.0</ele><time>2026-04-25T14:19:25.228Z</time></trkpt><trkpt lat="45.7342233" lon="9.4173833"><ele>224.75</ele><time>2026-04-25T14:19:26.229Z</time></trkpt><trkpt lat="45.7341217" lon="9.4172783"><ele>226.5</ele><time>2026-04-25T14:19:27.23Z</time></trkpt><trkpt lat="45.7340133" lon="9.4171883"><ele>228.25</ele><time>2026-04-25T14:19:28.23Z</time></trkpt><trkpt lat="45.7339017" lon="9.4171167"><ele>230.0</ele><time>2026-04-25T14:19:29.229Z</time></trkpt><trkpt lat="45.7337833" lon="9.4170683"><ele>230.0</ele><time>2026-04-25T14:19:30.231Z</time></trkpt><trkpt lat="45.73366" lon="9.41704"><ele>230.0</ele><time>2026-04-25T14:19:31.23Z</time></trkpt><trkpt lat="45.73353" lon="9.4170333"><ele>230.0</ele><time>2026-04-25T14:19:32.23Z</time></trkpt><trkpt lat="45.7334017" lon="9.4170517"><ele>230.0</ele><time>2026-04-25T14:19:33.229Z</time></trkpt><trkpt lat="45.7332767" lon="9.4171"><ele>233.5</ele><time>2026-04-25T14:19:34.23Z</time></trkpt><trkpt lat="45.7331567" lon="9.41718"><ele>237.0</ele><time>2026-04-25T14:19:35.23Z</time></trkpt><trkpt lat="45.7330383" lon="9.4172833"><ele>240.5</ele><time>2026-04-25T14:19:36.23Z</time></trkpt><trkpt lat="45.732935" lon="9.4174117"><ele>244.0</ele><time>2026-04-25T14:19:37.229Z</time></trkpt><trkpt lat="45.7328483" lon="9.417555"><ele>244.0</ele><time>2026-04-25T14:19:38.229Z</time></trkpt><trkpt lat="45.7327817" lon="9.4177183"><ele>244.0</ele><time>2026-04-25T14:19:39.231Z</time></trkpt><trkpt lat="45.732735" lon="9.417895"><ele>244.0</ele><time>2026-04-25T14:19:40.23Z</time></trkpt><trkpt lat="45.7326983" lon="9.4180833"><ele>244.0</ele><time>2026-04-25T14:19:41.229Z</time></trkpt><trkpt lat="45.7326767" lon="9.41827"><ele>245.5</ele><time>2026-04-25T14:19:42.231Z</time></trkpt><trkpt lat="45.7326583" lon="9.4184517"><ele>247.0</ele><time>2026-04-25T14:19:43.23Z</time></trkpt><trkpt lat="45.7326417" lon="9.4186283"><ele>248.5</ele><time>2026-04-25T14:19:44.23Z</time></trkpt><trkpt lat="45.73262" lon="9.4188033"><ele>250.0</ele><time>2026-04-25T14:19:45.231Z</time></trkpt><trkpt lat="45.73259" lon="9.4189717"><ele>250.75</ele><time>2026-04-25T14:19:46.229Z</time></trkpt><trkpt lat="45.7325483" lon="9.4191367"><ele>251.5</ele><time>2026-04-25T14:19:47.23Z</time></trkpt><trkpt lat="45.7325017" lon="9.419305"><ele>252.25</ele><time>2026-04-25T14:19:48.231Z</time></trkpt><trkpt lat="45.7324367" lon="9.4194533"><ele>253.0</ele><time>2026-04-25T14:19:49.231Z</time></trkpt><trkpt lat="45.7323633" lon="9.4195833"><ele>253.2</ele><time>2026-04-25T14:19:50.23Z</time></trkpt><trkpt lat="45.732285" lon="9.4196933"><ele>253.4</ele><time>2026-04-25T14:19:51.228Z</time></trkpt><trkpt lat="45.7321967" lon="9.41977"><ele>253.59999999999997</ele><time>2026-04-25T14:19:52.229Z</time></trkpt><trkpt lat="45.7320917" lon="9.4198267"><ele>253.79999999999998</ele><time>2026-04-25T14:19:53.227Z</time></trkpt><trkpt lat="45.7319833" lon="9.4198433"><ele>254.0</ele><time>2026-04-25T14:19:54.23Z</time></trkpt><trkpt lat="45.731865" lon="9.419835"><ele>253.5</ele><time>2026-04-25T14:19:55.228Z</time></trkpt><trkpt lat="45.7317367" lon="9.4198117"><ele>253.0</ele><time>2026-04-25T14:19:56.229Z</time></trkpt><trkpt lat="45.731615" lon="9.4197533"><ele>252.5</ele><time>2026-04-25T14:19:57.228Z</time></trkpt><trkpt lat="45.7314917" lon="9.419665"><ele>252.0</ele><time>2026-04-25T14:19:58.229Z</time></trkpt><trkpt lat="45.7313683" lon="9.4195533"><ele>252.0</ele><time>2026-04-25T14:19:59.228Z</time></trkpt><trkpt lat="45.7312383" lon="9.4194283"><ele>252.0</ele><time>2026-04-25T14:20:00.229Z</time></trkpt><trkpt lat="45.7311067" lon="9.4193"><ele>252.0</ele><time>2026-04-25T14:20:01.229Z</time></trkpt><trkpt lat="45.73098" lon="9.4191733"><ele>253.66666666666669</ele><time>2026-04-25T14:20:02.228Z</time></trkpt><trkpt lat="45.7308533" lon="9.4190467"><ele>255.33333333333334</ele><time>2026-04-25T14:20:03.229Z</time></trkpt><trkpt lat="45.730725" lon="9.4189167"><ele>257.0</ele><time>2026-04-25T14:20:04.228Z</time></trkpt><trkpt lat="45.7305967" lon="9.4187817"><ele>257.0</ele><time>2026-04-25T14:20:05.229Z</time></trkpt><trkpt lat="45.730465" lon="9.41864"><ele>257.0</ele><time>2026-04-25T14:20:06.228Z</time></trkpt><trkpt lat="45.73033" lon="9.4185017"><ele>257.0</ele><time>2026-04-25T14:20:07.228Z</time></trkpt><trkpt lat="45.7301917" lon="9.41837"><ele>259.0</ele><time>2026-04-25T14:20:08.228Z</time></trkpt><trkpt lat="45.73005" lon="9.4182433"><ele>261.0</ele><time>2026-04-25T14:20:09.228Z</time></trkpt><trkpt lat="45.72991" lon="9.4181167"><ele>263.0</ele><time>2026-04-25T14:20:10.228Z</time></trkpt><trkpt lat="45.7297683" lon="9.4179967"><ele>264.0</ele><time>2026-04-25T14:20:11.228Z</time></trkpt><trkpt lat="45.72963" lon="9.41787"><ele>265.0</ele><time>2026-04-25T14:20:12.228Z</time></trkpt><trkpt lat="45.729495" lon="9.4177367"><ele>266.0</ele><time>2026-04-25T14:20:13.228Z</time></trkpt><trkpt lat="45.7293667" lon="9.4175967"><ele>266.0</ele><time>2026-04-25T14:20:14.23Z</time></trkpt><trkpt lat="45.7292433" lon="9.4174467"><ele>266.0</ele><time>2026-04-25T14:20:15.23Z</time></trkpt><trkpt lat="45.7291317" lon="9.4172833"><ele>266.0</ele><time>2026-04-25T14:20:16.23Z</time></trkpt><trkpt lat="45.7290267" lon="9.4171133"><ele>265.0</ele><time>2026-04-25T14:20:17.23Z</time></trkpt><trkpt lat="45.7289233" lon="9.4169417"><ele>264.0</ele><time>2026-04-25T14:20:18.23Z</time></trkpt><trkpt lat="45.7288183" lon="9.4167783"><ele>263.0</ele><time>2026-04-25T14:20:19.23Z</time></trkpt><trkpt lat="45.728705" lon="9.416625"><ele>263.0</ele><time>2026-04-25T14:20:20.231Z</time></trkpt><trkpt lat="45.7285883" lon="9.4164767"><ele>263.0</ele><time>2026-04-25T14:20:21.231Z</time></trkpt><trkpt lat="45.7284633" lon="9.4163367"><ele>263.0</ele><time>2026-04-25T14:20:22.23Z</time></trkpt><trkpt lat="45.7283333" lon="9.416205"><ele>264.33333333333337</ele><time>2026-04-25T14:20:23.23Z</time></trkpt><trkpt lat="45.728195" lon="9.4160833"><ele>265.6666666666667</ele><time>2026-04-25T14:20:24.23Z</time></trkpt><trkpt lat="45.72805" lon="9.41597"><ele>267.0</ele><time>2026-04-25T14:20:25.23Z</time></trkpt><trkpt lat="45.7279" lon="9.4158633"><ele>267.0</ele><time>2026-04-25T14:20:26.231Z</time></trkpt><trkpt lat="45.7277467" lon="9.4157667"><ele>267.0</ele><time>2026-04-25T14:20:27.228Z</time></trkpt><trkpt lat="45.7275867" lon="9.4156867"><ele>267.0</ele><time>2026-04-25T14:20:28.228Z</time></trkpt><trkpt lat="45.72743" lon="9.4156217"><ele>267.6666666666667</ele><time>2026-04-25T14:20:29.229Z</time></trkpt><trkpt lat="45.7272767" lon="9.4155667"><ele>268.33333333333337</ele><time>2026-04-25T14:20:30.228Z</time></trkpt><trkpt lat="45.727125" lon="9.4155217"><ele>269.0</ele><time>2026-04-25T14:20:31.229Z</time></trkpt><trkpt lat="45.726975" lon="9.4154867"><ele>271.5</ele><time>2026-04-25T14:20:32.228Z</time></trkpt><trkpt lat="45.72683" lon="9.4154617"><ele>274.0</ele><time>2026-04-25T14:20:33.229Z</time></trkpt><trkpt lat="45.7266983" lon="9.4154433"><ele>276.5</ele><time>2026-04-25T14:20:34.228Z</time></trkpt><trkpt lat="45.726575" lon="9.415435"><ele>279.0</ele><time>2026-04-25T14:20:35.228Z</time></trkpt><trkpt lat="45.72646" lon="9.4154317"><ele>279.0</ele><time>2026-04-25T14:20:36.229Z</time></trkpt><trkpt lat="45.72635" lon="9.4154317"><ele>279.0</ele><time>2026-04-25T14:20:37.229Z</time></trkpt><trkpt lat="45.726245" lon="9.4154367"><ele>279.0</ele><time>2026-04-25T14:20:38.228Z</time></trkpt><trkpt lat="45.7261583" lon="9.4154467"><ele>279.0</ele><time>2026-04-25T14:20:39.227Z</time></trkpt><trkpt lat="45.7260883" lon="9.4154567"><ele>279.0</ele><time>2026-04-25T14:20:40.228Z</time></trkpt><trkpt lat="45.7259733" lon="9.4154817"><ele>279.1666666666667</ele><time>2026-04-25T14:20:42.228Z</time></trkpt><trkpt lat="45.7258667" lon="9.415525"><ele>279.3333333333333</ele><time>2026-04-25T14:20:44.228Z</time></trkpt><trkpt lat="45.725795" lon="9.4155567"><ele>279.5</ele><time>2026-04-25T14:20:45.23Z</time></trkpt><trkpt lat="45.7257117" lon="9.4155883"><ele>279.66666666666663</ele><time>2026-04-25T14:20:46.229Z</time></trkpt><trkpt lat="45.7256267" lon="9.4156183"><ele>279.8333333333333</ele><time>2026-04-25T14:20:47.231Z</time></trkpt><trkpt lat="45.72555" lon="9.415645"><ele>280.0</ele><time>2026-04-25T14:20:48.23Z</time></trkpt><trkpt lat="45.725485" lon="9.415665"><ele>280.0</ele><time>2026-04-25T14:20:49.229Z</time></trkpt><trkpt lat="45.72539" lon="9.4156883"><ele>280.0</ele><time>2026-04-25T14:20:51.23Z</time></trkpt><trkpt lat="45.7253183" lon="9.4157033"><ele>280.0</ele><time>2026-04-25T14:20:53.229Z</time></trkpt><trkpt lat="45.7252367" lon="9.415735"><ele>280.0</ele><time>2026-04-25T14:20:55.231Z</time></trkpt><trkpt lat="45.7251433" lon="9.4157767"><ele>280.0</ele><time>2026-04-25T14:20:57.23Z</time></trkpt><trkpt lat="45.725045" lon="9.4158117"><ele>280.8</ele><time>2026-04-25T14:20:59.23Z</time></trkpt><trkpt lat="45.7249533" lon="9.4158233"><ele>281.6</ele><time>2026-04-25T14:21:01.228Z</time></trkpt><trkpt lat="45.7249033" lon="9.4157533"><ele>282.4</ele><time>2026-04-25T14:21:03.229Z</time></trkpt><trkpt lat="45.7249083" lon="9.4155683"><ele>283.2</ele><time>2026-04-25T14:21:05.228Z</time></trkpt><trkpt lat="45.7249267" lon="9.41541"><ele>284.0</ele><time>2026-04-25T14:21:06.231Z</time></trkpt><trkpt lat="45.7249333" lon="9.4152683"><ele>284.0</ele><time>2026-04-25T14:21:07.229Z</time></trkpt><trkpt lat="45.72495" lon="9.41508"><ele>284.0</ele><time>2026-04-25T14:21:08.23Z</time></trkpt><trkpt lat="45.7249617" lon="9.41489"><ele>284.0</ele><time>2026-04-25T14:21:09.23Z</time></trkpt><trkpt lat="45.7249717" lon="9.4147017"><ele>284.0</ele><time>2026-04-25T14:21:10.231Z</time></trkpt><trkpt lat="45.72498" lon="9.4145133"><ele>284.0</ele><time>2026-04-25T14:21:11.23Z</time></trkpt><trkpt lat="45.7249933" lon="9.4143267"><ele>284.0</ele><time>2026-04-25T14:21:12.229Z</time></trkpt><trkpt lat="45.725005" lon="9.4141367"><ele>284.0</ele><time>2026-04-25T14:21:13.228Z</time></trkpt><trkpt lat="45.7250117" lon="9.41394"><ele>284.0</ele><time>2026-04-25T14:21:14.228Z</time></trkpt><trkpt lat="45.7250233" lon="9.4137283"><ele>284.33333333333337</ele><time>2026-04-25T14:21:15.228Z</time></trkpt><trkpt lat="45.72503" lon="9.4135067"><ele>284.6666666666667</ele><time>2026-04-25T14:21:16.229Z</time></trkpt><trkpt lat="45.7250383" lon="9.4132833"><ele>285.0</ele><time>2026-04-25T14:21:17.228Z</time></trkpt><trkpt lat="45.72505" lon="9.4130617"><ele>285.0</ele><time>2026-04-25T14:21:18.229Z</time></trkpt><trkpt lat="45.7250633" lon="9.41284"><ele>285.0</ele><time>2026-04-25T14:21:19.229Z</time></trkpt><trkpt lat="45.7250733" lon="9.41261"><ele>285.0</ele><time>2026-04-25T14:21:20.228Z</time></trkpt><trkpt lat="45.7250767" lon="9.4123733"><ele>285.0</ele><time>2026-04-25T14:21:21.228Z</time></trkpt><trkpt lat="45.725075" lon="9.4121367"><ele>285.0</ele><time>2026-04-25T14:21:22.229Z</time></trkpt><trkpt lat="45.72507" lon="9.411905"><ele>285.0</ele><time>2026-04-25T14:21:23.229Z</time></trkpt><trkpt lat="45.7250633" lon="9.411685"><ele>285.0</ele><time>2026-04-25T14:21:24.228Z</time></trkpt><trkpt lat="45.725055" lon="9.411475"><ele>285.0</ele><time>2026-04-25T14:21:25.228Z</time></trkpt><trkpt lat="45.7250483" lon="9.4112717"><ele>285.0</ele><time>2026-04-25T14:21:26.229Z</time></trkpt><trkpt lat="45.7250417" lon="9.411075"><ele>285.0</ele><time>2026-04-25T14:21:27.229Z</time></trkpt><trkpt lat="45.7250333" lon="9.41088"><ele>284.5</ele><time>2026-04-25T14:21:28.228Z</time></trkpt><trkpt lat="45.7250267" lon="9.4106933"><ele>284.0</ele><time>2026-04-25T14:21:29.228Z</time></trkpt><trkpt lat="45.7250233" lon="9.4105067"><ele>283.5</ele><time>2026-04-25T14:21:30.228Z</time></trkpt><trkpt lat="45.7250217" lon="9.41032"><ele>283.0</ele><time>2026-04-25T14:21:31.228Z</time></trkpt><trkpt lat="45.7250167" lon="9.410135"><ele>283.0</ele><time>2026-04-25T14:21:32.228Z</time></trkpt><trkpt lat="45.7250117" lon="9.4099483"><ele>283.0</ele><time>2026-04-25T14:21:33.229Z</time></trkpt><trkpt lat="45.725005" lon="9.40977"><ele>283.0</ele><time>2026-04-25T14:21:34.228Z</time></trkpt><trkpt lat="45.725" lon="9.4096"><ele>283.0</ele><time>2026-04-25T14:21:35.228Z</time></trkpt><trkpt lat="45.7249967" lon="9.4094317"><ele>283.0</ele><time>2026-04-25T14:21:36.228Z</time></trkpt><trkpt lat="45.72499" lon="9.4092583"><ele>283.0</ele><time>2026-04-25T14:21:37.23Z</time></trkpt><trkpt lat="45.724985" lon="9.40908"><ele>283.0</ele><time>2026-04-25T14:21:38.229Z</time></trkpt><trkpt lat="45.7249817" lon="9.4088867"><ele>283.0</ele><time>2026-04-25T14:21:39.229Z</time></trkpt><trkpt lat="45.7249817" lon="9.408695"><ele>284.0</ele><time>2026-04-25T14:21:40.227Z</time></trkpt><trkpt lat="45.72498" lon="9.4085083"><ele>285.0</ele><time>2026-04-25T14:21:41.228Z</time></trkpt><trkpt lat="45.7249817" lon="9.4083283"><ele>286.0</ele><time>2026-04-25T14:21:42.229Z</time></trkpt><trkpt lat="45.7249833" lon="9.4081633"><ele>287.0</ele><time>2026-04-25T14:21:43.229Z</time></trkpt><trkpt lat="45.7249917" lon="9.408005"><ele>287.2</ele><time>2026-04-25T14:21:44.229Z</time></trkpt><trkpt lat="45.7250083" lon="9.4078483"><ele>287.4</ele><time>2026-04-25T14:21:45.228Z</time></trkpt><trkpt lat="45.7250283" lon="9.4076983"><ele>287.6</ele><time>2026-04-25T14:21:46.228Z</time></trkpt><trkpt lat="45.7250533" lon="9.407555"><ele>287.8</ele><time>2026-04-25T14:21:47.23Z</time></trkpt><trkpt lat="45.72508" lon="9.4074183"><ele>288.0</ele><time>2026-04-25T14:21:48.229Z</time></trkpt><trkpt lat="45.7251167" lon="9.4072767"><ele>288.0</ele><time>2026-04-25T14:21:49.229Z</time></trkpt><trkpt lat="45.725165" lon="9.407135"><ele>288.0</ele><time>2026-04-25T14:21:50.231Z</time></trkpt><trkpt lat="45.72521" lon="9.406985"><ele>288.0</ele><time>2026-04-25T14:21:51.229Z</time></trkpt><trkpt lat="45.72526" lon="9.4068283"><ele>288.0</ele><time>2026-04-25T14:21:52.231Z</time></trkpt><trkpt lat="45.725315" lon="9.4066733"><ele>288.0</ele><time>2026-04-25T14:21:53.23Z</time></trkpt><trkpt lat="45.7253717" lon="9.40652"><ele>288.0</ele><time>2026-04-25T14:21:54.228Z</time></trkpt><trkpt lat="45.725435" lon="9.40637"><ele>288.0</ele><time>2026-04-25T14:21:55.23Z</time></trkpt><trkpt lat="45.7254967" lon="9.406235"><ele>288.0</ele><time>2026-04-25T14:21:56.228Z</time></trkpt><trkpt lat="45.72556" lon="9.406115"><ele>288.0</ele><time>2026-04-25T14:21:57.228Z</time></trkpt><trkpt lat="45.72562" lon="9.40601"><ele>288.0</ele><time>2026-04-25T14:21:58.23Z</time></trkpt><trkpt lat="45.7256783" lon="9.4059167"><ele>288.0</ele><time>2026-04-25T14:21:59.229Z</time></trkpt><trkpt lat="45.7257383" lon="9.4058283"><ele>288.0</ele><time>2026-04-25T14:22:00.228Z</time></trkpt><trkpt lat="45.7258" lon="9.405745"><ele>288.0</ele><time>2026-04-25T14:22:01.229Z</time></trkpt><trkpt lat="45.7258583" lon="9.4056533"><ele>288.0</ele><time>2026-04-25T14:22:02.228Z</time></trkpt><trkpt lat="45.725915" lon="9.4055367"><ele>288.0</ele><time>2026-04-25T14:22:03.229Z</time></trkpt><trkpt lat="45.72597" lon="9.4054"><ele>288.0</ele><time>2026-04-25T14:22:04.228Z</time></trkpt><trkpt lat="45.7260283" lon="9.4052667"><ele>288.0</ele><time>2026-04-25T14:22:05.228Z</time></trkpt><trkpt lat="45.72609" lon="9.4051383"><ele>288.0</ele><time>2026-04-25T14:22:06.229Z</time></trkpt><trkpt lat="45.7261617" lon="9.40501"><ele>288.0</ele><time>2026-04-25T14:22:07.227Z</time></trkpt><trkpt lat="45.7262367" lon="9.4048867"><ele>287.75</ele><time>2026-04-25T14:22:08.228Z</time></trkpt><trkpt lat="45.7263083" lon="9.40476"><ele>287.5</ele><time>2026-04-25T14:22:09.23Z</time></trkpt><trkpt lat="45.72638" lon="9.4046367"><ele>287.25</ele><time>2026-04-25T14:22:10.228Z</time></trkpt><trkpt lat="45.72645" lon="9.4045083"><ele>287.0</ele><time>2026-04-25T14:22:11.228Z</time></trkpt><trkpt lat="45.726525" lon="9.4043817"><ele>286.75</ele><time>2026-04-25T14:22:12.228Z</time></trkpt><trkpt lat="45.7265967" lon="9.4042533"><ele>286.5</ele><time>2026-04-25T14:22:13.228Z</time></trkpt><trkpt lat="45.72667" lon="9.4041217"><ele>286.25</ele><time>2026-04-25T14:22:14.229Z</time></trkpt><trkpt lat="45.7267433" lon="9.403985"><ele>286.0</ele><time>2026-04-25T14:22:15.23Z</time></trkpt><trkpt lat="45.72682" lon="9.4038483"><ele>285.75</ele><time>2026-04-25T14:22:16.228Z</time></trkpt><trkpt lat="45.7268933" lon="9.4037117"><ele>285.5</ele><time>2026-04-25T14:22:17.229Z</time></trkpt><trkpt lat="45.7269683" lon="9.4035767"><ele>285.25</ele><time>2026-04-25T14:22:18.229Z</time></trkpt><trkpt lat="45.7270417" lon="9.4034417"><ele>285.0</ele><time>2026-04-25T14:22:19.228Z</time></trkpt><trkpt lat="45.727115" lon="9.40331"><ele>285.25</ele><time>2026-04-25T14:22:20.229Z</time></trkpt><trkpt lat="45.72719" lon="9.4031783"><ele>285.5</ele><time>2026-04-25T14:22:21.229Z</time></trkpt><trkpt lat="45.7272617" lon="9.403045"><ele>285.75</ele><time>2026-04-25T14:22:22.227Z</time></trkpt><trkpt lat="45.7273367" lon="9.4029083"><ele>286.0</ele><time>2026-04-25T14:22:23.229Z</time></trkpt><trkpt lat="45.727415" lon="9.4027717"><ele>286.0</ele><time>2026-04-25T14:22:24.23Z</time></trkpt><trkpt lat="45.727495" lon="9.4026333"><ele>286.0</ele><time>2026-04-25T14:22:25.229Z</time></trkpt><trkpt lat="45.72757" lon="9.4024917"><ele>286.0</ele><time>2026-04-25T14:22:26.23Z</time></trkpt><trkpt lat="45.72764" lon="9.4023633"><ele>286.0</ele><time>2026-04-25T14:22:27.229Z</time></trkpt><trkpt lat="45.7277083" lon="9.4022383"><ele>287.8</ele><time>2026-04-25T14:22:28.228Z</time></trkpt><trkpt lat="45.7277783" lon="9.402115"><ele>289.6</ele><time>2026-04-25T14:22:29.228Z</time></trkpt><trkpt lat="45.72785" lon="9.4019917"><ele>291.4</ele><time>2026-04-25T14:22:30.229Z</time></trkpt><trkpt lat="45.727915" lon="9.4018633"><ele>293.2</ele><time>2026-04-25T14:22:31.229Z</time></trkpt><trkpt lat="45.7279817" lon="9.40173"><ele>295.0</ele><time>2026-04-25T14:22:32.228Z</time></trkpt><trkpt lat="45.7280517" lon="9.401595"><ele>295.0</ele><time>2026-04-25T14:22:33.229Z</time></trkpt><trkpt lat="45.7281267" lon="9.40146"><ele>295.0</ele><time>2026-04-25T14:22:34.228Z</time></trkpt><trkpt lat="45.7282033" lon="9.401325"><ele>295.0</ele><time>2026-04-25T14:22:35.228Z</time></trkpt><trkpt lat="45.7282833" lon="9.4011867"><ele>295.0</ele><time>2026-04-25T14:22:36.229Z</time></trkpt><trkpt lat="45.728365" lon="9.40105"><ele>295.0</ele><time>2026-04-25T14:22:37.229Z</time></trkpt><trkpt lat="45.7284417" lon="9.4009167"><ele>295.0</ele><time>2026-04-25T14:22:38.227Z</time></trkpt><trkpt lat="45.7285183" lon="9.400775"><ele>295.0</ele><time>2026-04-25T14:22:39.229Z</time></trkpt><trkpt lat="45.728595" lon="9.400635"><ele>295.0</ele><time>2026-04-25T14:22:40.228Z</time></trkpt><trkpt lat="45.7286733" lon="9.40049"><ele>295.0</ele><time>2026-04-25T14:22:41.228Z</time></trkpt><trkpt lat="45.7287517" lon="9.4003433"><ele>295.0</ele><time>2026-04-25T14:22:42.229Z</time></trkpt><trkpt lat="45.7288333" lon="9.4001933"><ele>295.0</ele><time>2026-04-25T14:22:43.228Z</time></trkpt><trkpt lat="45.728915" lon="9.4000417"><ele>295.0</ele><time>2026-04-25T14:22:44.229Z</time></trkpt><trkpt lat="45.728995" lon="9.3998883"><ele>295.0</ele><time>2026-04-25T14:22:45.229Z</time></trkpt><trkpt lat="45.7290783" lon="9.399735"><ele>295.0</ele><time>2026-04-25T14:22:46.229Z</time></trkpt><trkpt lat="45.7291667" lon="9.3995733"><ele>295.0</ele><time>2026-04-25T14:22:47.23Z</time></trkpt><trkpt lat="45.72926" lon="9.399415"><ele>295.0</ele><time>2026-04-25T14:22:48.229Z</time></trkpt><trkpt lat="45.7293567" lon="9.399255"><ele>295.5</ele><time>2026-04-25T14:22:49.229Z</time></trkpt><trkpt lat="45.72945" lon="9.3990917"><ele>296.0</ele><time>2026-04-25T14:22:50.229Z</time></trkpt><trkpt lat="45.72954" lon="9.39892"><ele>296.5</ele><time>2026-04-25T14:22:51.23Z</time></trkpt><trkpt lat="45.7296317" lon="9.3987517"><ele>297.0</ele><time>2026-04-25T14:22:52.229Z</time></trkpt><trkpt lat="45.72972" lon="9.3985817"><ele>298.0</ele><time>2026-04-25T14:22:53.231Z</time></trkpt><trkpt lat="45.7298033" lon="9.3984133"><ele>299.0</ele><time>2026-04-25T14:22:54.23Z</time></trkpt><trkpt lat="45.7298817" lon="9.39824"><ele>300.0</ele><time>2026-04-25T14:22:55.231Z</time></trkpt><trkpt lat="45.729955" lon="9.3980683"><ele>301.0</ele><time>2026-04-25T14:22:56.228Z</time></trkpt><trkpt lat="45.73002" lon="9.3979"><ele>302.0</ele><time>2026-04-25T14:22:57.229Z</time></trkpt><trkpt lat="45.73008" lon="9.3977333"><ele>303.0</ele><time>2026-04-25T14:22:58.229Z</time></trkpt><trkpt lat="45.730145" lon="9.3975617"><ele>304.0</ele><time>2026-04-25T14:22:59.229Z</time></trkpt><trkpt lat="45.730205" lon="9.3973933"><ele>305.0</ele><time>2026-04-25T14:23:00.229Z</time></trkpt><trkpt lat="45.7302567" lon="9.397215"><ele>306.0</ele><time>2026-04-25T14:23:01.23Z</time></trkpt><trkpt lat="45.7303017" lon="9.3970367"><ele>307.0</ele><time>2026-04-25T14:23:02.229Z</time></trkpt><trkpt lat="45.7303417" lon="9.3968433"><ele>308.0</ele><time>2026-04-25T14:23:03.229Z</time></trkpt><trkpt lat="45.730385" lon="9.3966517"><ele>309.0</ele><time>2026-04-25T14:23:04.229Z</time></trkpt><trkpt lat="45.7304283" lon="9.396455"><ele>310.0</ele><time>2026-04-25T14:23:05.228Z</time></trkpt><trkpt lat="45.7304617" lon="9.3962617"><ele>311.0</ele><time>2026-04-25T14:23:06.229Z</time></trkpt><trkpt lat="45.730495" lon="9.3960683"><ele>312.0</ele><time>2026-04-25T14:23:07.228Z</time></trkpt><trkpt lat="45.730525" lon="9.39586"><ele>313.0</ele><time>2026-04-25T14:23:08.23Z</time></trkpt><trkpt lat="45.7305533" lon="9.3956567"><ele>312.5</ele><time>2026-04-25T14:23:09.231Z</time></trkpt><trkpt lat="45.7305867" lon="9.3954517"><ele>312.0</ele><time>2026-04-25T14:23:10.231Z</time></trkpt><trkpt lat="45.73062" lon="9.3952483"><ele>311.5</ele><time>2026-04-25T14:23:11.231Z</time></trkpt><trkpt lat="45.7306467" lon="9.3950467"><ele>311.0</ele><time>2026-04-25T14:23:12.229Z</time></trkpt><trkpt lat="45.7306717" lon="9.394845"><ele>310.0</ele><time>2026-04-25T14:23:13.231Z</time></trkpt><trkpt lat="45.7307017" lon="9.3946517"><ele>309.0</ele><time>2026-04-25T14:23:14.231Z</time></trkpt><trkpt lat="45.73073" lon="9.394455"><ele>308.0</ele><time>2026-04-25T14:23:15.23Z</time></trkpt><trkpt lat="45.7307583" lon="9.3942583"><ele>307.0</ele><time>2026-04-25T14:23:16.228Z</time></trkpt><trkpt lat="45.7307867" lon="9.3940583"><ele>307.0</ele><time>2026-04-25T14:23:17.229Z</time></trkpt><trkpt lat="45.7308133" lon="9.393865"><ele>307.0</ele><time>2026-04-25T14:23:18.23Z</time></trkpt><trkpt lat="45.7308433" lon="9.3936683"><ele>307.0</ele><time>2026-04-25T14:23:19.228Z</time></trkpt><trkpt lat="45.7308733" lon="9.393465"><ele>307.0</ele><time>2026-04-25T14:23:20.228Z</time></trkpt><trkpt lat="45.7309017" lon="9.39326"><ele>307.25</ele><time>2026-04-25T14:23:21.229Z</time></trkpt><trkpt lat="45.73093" lon="9.3930583"><ele>307.5</ele><time>2026-04-25T14:23:22.229Z</time></trkpt><trkpt lat="45.7309617" lon="9.3928517"><ele>307.75</ele><time>2026-04-25T14:23:23.229Z</time></trkpt><trkpt lat="45.73099" lon="9.392645"><ele>308.0</ele><time>2026-04-25T14:23:24.23Z</time></trkpt><trkpt lat="45.7310183" lon="9.392445"><ele>308.0</ele><time>2026-04-25T14:23:25.23Z</time></trkpt><trkpt lat="45.7310483" lon="9.39225"><ele>308.0</ele><time>2026-04-25T14:23:26.23Z</time></trkpt><trkpt lat="45.731075" lon="9.3920667"><ele>308.0</ele><time>2026-04-25T14:23:27.231Z</time></trkpt><trkpt lat="45.7311" lon="9.39189"><ele>308.0</ele><time>2026-04-25T14:23:28.232Z</time></trkpt><trkpt lat="45.731125" lon="9.3917267"><ele>308.4</ele><time>2026-04-25T14:23:29.228Z</time></trkpt><trkpt lat="45.73115" lon="9.3915717"><ele>308.8</ele><time>2026-04-25T14:23:30.229Z</time></trkpt><trkpt lat="45.7311733" lon="9.3914233"><ele>309.2</ele><time>2026-04-25T14:23:31.229Z</time></trkpt><trkpt lat="45.731195" lon="9.391285"><ele>309.6</ele><time>2026-04-25T14:23:32.228Z</time></trkpt><trkpt lat="45.73122" lon="9.3911517"><ele>310.0</ele><time>2026-04-25T14:23:33.228Z</time></trkpt><trkpt lat="45.731245" lon="9.39103"><ele>310.66666666666663</ele><time>2026-04-25T14:23:34.228Z</time></trkpt><trkpt lat="45.7312717" lon="9.3909217"><ele>311.3333333333333</ele><time>2026-04-25T14:23:35.228Z</time></trkpt><trkpt lat="45.7312967" lon="9.3908167"><ele>312.0</ele><time>2026-04-25T14:23:36.23Z</time></trkpt><trkpt lat="45.7313167" lon="9.3907167"><ele>312.6666666666667</ele><time>2026-04-25T14:23:37.229Z</time></trkpt><trkpt lat="45.7313267" lon="9.3906117"><ele>313.33333333333337</ele><time>2026-04-25T14:23:38.228Z</time></trkpt><trkpt lat="45.73133" lon="9.390495"><ele>314.0</ele><time>2026-04-25T14:23:39.229Z</time></trkpt><trkpt lat="45.7313367" lon="9.3903667"><ele>314.25</ele><time>2026-04-25T14:23:40.229Z</time></trkpt><trkpt lat="45.7313583" lon="9.3902083"><ele>314.5</ele><time>2026-04-25T14:23:41.228Z</time></trkpt><trkpt lat="45.73139" lon="9.390035"><ele>314.75</ele><time>2026-04-25T14:23:42.229Z</time></trkpt><trkpt lat="45.7314233" lon="9.3898483"><ele>315.0</ele><time>2026-04-25T14:23:43.229Z</time></trkpt><trkpt lat="45.7314583" lon="9.3896517"><ele>315.0</ele><time>2026-04-25T14:23:44.227Z</time></trkpt><trkpt lat="45.7314917" lon="9.3894383"><ele>315.0</ele><time>2026-04-25T14:23:45.23Z</time></trkpt><trkpt lat="45.7315267" lon="9.38921"><ele>315.0</ele><time>2026-04-25T14:23:46.229Z</time></trkpt><trkpt lat="45.7315633" lon="9.3889783"><ele>315.6666666666667</ele><time>2026-04-25T14:23:47.228Z</time></trkpt><trkpt lat="45.7316133" lon="9.388755"><ele>316.33333333333337</ele><time>2026-04-25T14:23:48.23Z</time></trkpt><trkpt lat="45.7316733" lon="9.38854"><ele>317.0</ele><time>2026-04-25T14:23:49.229Z</time></trkpt><trkpt lat="45.7317467" lon="9.3883333"><ele>317.0</ele><time>2026-04-25T14:23:50.23Z</time></trkpt><trkpt lat="45.7318383" lon="9.3881383"><ele>317.0</ele><time>2026-04-25T14:23:51.23Z</time></trkpt><trkpt lat="45.7319433" lon="9.3879567"><ele>317.0</ele><time>2026-04-25T14:23:52.23Z</time></trkpt><trkpt lat="45.7320583" lon="9.3877883"><ele>318.6666666666667</ele><time>2026-04-25T14:23:53.229Z</time></trkpt><trkpt lat="45.732185" lon="9.387635"><ele>320.3333333333333</ele><time>2026-04-25T14:23:54.231Z</time></trkpt><trkpt lat="45.7323217" lon="9.387495"><ele>322.0</ele><time>2026-04-25T14:23:55.231Z</time></trkpt><trkpt lat="45.732465" lon="9.38737"><ele>322.0</ele><time>2026-04-25T14:23:56.23Z</time></trkpt><trkpt lat="45.7326117" lon="9.38726"><ele>322.0</ele><time>2026-04-25T14:23:57.231Z</time></trkpt><trkpt lat="45.73276" lon="9.387155"><ele>322.0</ele><time>2026-04-25T14:23:58.23Z</time></trkpt><trkpt lat="45.7329133" lon="9.3870483"><ele>325.3333333333333</ele><time>2026-04-25T14:23:59.229Z</time></trkpt><trkpt lat="45.73307" lon="9.3869383"><ele>328.6666666666667</ele><time>2026-04-25T14:24:00.228Z</time></trkpt><trkpt lat="45.7332283" lon="9.38683"><ele>332.0</ele><time>2026-04-25T14:24:01.23Z</time></trkpt><trkpt lat="45.7333867" lon="9.3867133"><ele>332.0</ele><time>2026-04-25T14:24:02.229Z</time></trkpt><trkpt lat="45.73354" lon="9.3865833"><ele>332.0</ele><time>2026-04-25T14:24:03.229Z</time></trkpt><trkpt lat="45.73368" lon="9.386435"><ele>332.0</ele><time>2026-04-25T14:24:04.229Z</time></trkpt><trkpt lat="45.7338067" lon="9.3862633"><ele>335.33333333333337</ele><time>2026-04-25T14:24:05.228Z</time></trkpt><trkpt lat="45.7339167" lon="9.3860717"><ele>338.6666666666667</ele><time>2026-04-25T14:24:06.228Z</time></trkpt><trkpt lat="45.7340083" lon="9.38587"><ele>342.0</ele><time>2026-04-25T14:24:07.229Z</time></trkpt><trkpt lat="45.7340867" lon="9.3856533"><ele>342.0</ele><time>2026-04-25T14:24:08.228Z</time></trkpt><trkpt lat="45.7341567" lon="9.3854283"><ele>342.0</ele><time>2026-04-25T14:24:09.228Z</time></trkpt><trkpt lat="45.734215" lon="9.3851917"><ele>342.0</ele><time>2026-04-25T14:24:10.229Z</time></trkpt><trkpt lat="45.73427" lon="9.3849517"><ele>342.0</ele><time>2026-04-25T14:24:11.229Z</time></trkpt><trkpt lat="45.734325" lon="9.3847083"><ele>342.0</ele><time>2026-04-25T14:24:12.229Z</time></trkpt><trkpt lat="45.734375" lon="9.3844583"><ele>342.0</ele><time>2026-04-25T14:24:13.229Z</time></trkpt><trkpt lat="45.7344183" lon="9.3842033"><ele>341.6666666666667</ele><time>2026-04-25T14:24:14.229Z</time></trkpt><trkpt lat="45.7344583" lon="9.3839467"><ele>341.33333333333337</ele><time>2026-04-25T14:24:15.229Z</time></trkpt><trkpt lat="45.7345017" lon="9.383685"><ele>341.0</ele><time>2026-04-25T14:24:16.23Z</time></trkpt><trkpt lat="45.7345467" lon="9.3834217"><ele>341.0</ele><time>2026-04-25T14:24:17.228Z</time></trkpt><trkpt lat="45.7346033" lon="9.383165"><ele>341.0</ele><time>2026-04-25T14:24:18.229Z</time></trkpt><trkpt lat="45.7346733" lon="9.3829167"><ele>341.0</ele><time>2026-04-25T14:24:19.228Z</time></trkpt><trkpt lat="45.73476" lon="9.3826833"><ele>341.0</ele><time>2026-04-25T14:24:20.228Z</time></trkpt><trkpt lat="45.7348533" lon="9.3824617"><ele>341.0</ele><time>2026-04-25T14:24:21.229Z</time></trkpt><trkpt lat="45.73495" lon="9.38225"><ele>341.0</ele><time>2026-04-25T14:24:22.229Z</time></trkpt><trkpt lat="45.73505" lon="9.3820483"><ele>340.33333333333337</ele><time>2026-04-25T14:24:23.229Z</time></trkpt><trkpt lat="45.73515" lon="9.381855"><ele>339.6666666666667</ele><time>2026-04-25T14:24:24.232Z</time></trkpt><trkpt lat="45.735245" lon="9.3816617"><ele>339.0</ele><time>2026-04-25T14:24:25.23Z</time></trkpt><trkpt lat="45.735335" lon="9.3814683"><ele>342.3333333333333</ele><time>2026-04-25T14:24:26.228Z</time></trkpt><trkpt lat="45.73542" lon="9.3812683"><ele>345.66666666666663</ele><time>2026-04-25T14:24:27.228Z</time></trkpt><trkpt lat="45.7354917" lon="9.381065"><ele>349.0</ele><time>2026-04-25T14:24:28.229Z</time></trkpt><trkpt lat="45.7355583" lon="9.3808533"><ele>349.0</ele><time>2026-04-25T14:24:29.227Z</time></trkpt><trkpt lat="45.735625" lon="9.3806433"><ele>349.0</ele><time>2026-04-25T14:24:30.229Z</time></trkpt><trkpt lat="45.73569" lon="9.380435"><ele>349.0</ele><time>2026-04-25T14:24:31.228Z</time></trkpt><trkpt lat="45.7357567" lon="9.380225"><ele>347.0</ele><time>2026-04-25T14:24:32.228Z</time></trkpt><trkpt lat="45.7358217" lon="9.3800117"><ele>345.0</ele><time>2026-04-25T14:24:33.23Z</time></trkpt><trkpt lat="45.735885" lon="9.3798"><ele>343.0</ele><time>2026-04-25T14:24:34.228Z</time></trkpt><trkpt lat="45.7359483" lon="9.3795917"><ele>343.0</ele><time>2026-04-25T14:24:35.228Z</time></trkpt><trkpt lat="45.73601" lon="9.3793683"><ele>343.0</ele><time>2026-04-25T14:24:36.229Z</time></trkpt><trkpt lat="45.7360733" lon="9.37913"><ele>343.0</ele><time>2026-04-25T14:24:37.228Z</time></trkpt><trkpt lat="45.7361433" lon="9.37888"><ele>346.3333333333333</ele><time>2026-04-25T14:24:38.229Z</time></trkpt><trkpt lat="45.73622" lon="9.3786183"><ele>349.6666666666667</ele><time>2026-04-25T14:24:39.231Z</time></trkpt><trkpt lat="45.7363017" lon="9.3783433"><ele>353.0</ele><time>2026-04-25T14:24:40.23Z</time></trkpt><trkpt lat="45.736385" lon="9.3780733"><ele>351.6666666666667</ele><time>2026-04-25T14:24:41.228Z</time></trkpt><trkpt lat="45.73646" lon="9.37783"><ele>350.3333333333333</ele><time>2026-04-25T14:24:42.231Z</time></trkpt><trkpt lat="45.736525" lon="9.3776217"><ele>349.0</ele><time>2026-04-25T14:24:43.229Z</time></trkpt><trkpt lat="45.7365733" lon="9.3774583"><ele>349.0</ele><time>2026-04-25T14:24:44.229Z</time></trkpt><trkpt lat="45.73661" lon="9.37732"><ele>349.0</ele><time>2026-04-25T14:24:45.229Z</time></trkpt><trkpt lat="45.7366433" lon="9.3771933"><ele>349.0</ele><time>2026-04-25T14:24:46.228Z</time></trkpt><trkpt lat="45.7366767" lon="9.3770717"><ele>349.0</ele><time>2026-04-25T14:24:47.228Z</time></trkpt><trkpt lat="45.7367117" lon="9.3769467"><ele>349.0</ele><time>2026-04-25T14:24:48.228Z</time></trkpt><trkpt lat="45.736755" lon="9.37682"><ele>349.6</ele><time>2026-04-25T14:24:49.228Z</time></trkpt><trkpt lat="45.7368017" lon="9.3766917"><ele>350.2</ele><time>2026-04-25T14:24:50.228Z</time></trkpt><trkpt lat="45.7368517" lon="9.3765633"><ele>350.8</ele><time>2026-04-25T14:24:51.228Z</time></trkpt><trkpt lat="45.736895" lon="9.37643"><ele>351.40000000000003</ele><time>2026-04-25T14:24:52.228Z</time></trkpt><trkpt lat="45.7369383" lon="9.37629"><ele>352.0</ele><time>2026-04-25T14:24:53.233Z</time></trkpt><trkpt lat="45.7369783" lon="9.3761533"><ele>352.16666666666663</ele><time>2026-04-25T14:24:54.23Z</time></trkpt><trkpt lat="45.7370133" lon="9.3760233"><ele>352.3333333333333</ele><time>2026-04-25T14:24:55.23Z</time></trkpt><trkpt lat="45.737045" lon="9.3759033"><ele>352.5</ele><time>2026-04-25T14:24:56.229Z</time></trkpt><trkpt lat="45.7370683" lon="9.3757867"><ele>352.6666666666667</ele><time>2026-04-25T14:24:57.23Z</time></trkpt><trkpt lat="45.7370883" lon="9.3756833"><ele>352.83333333333337</ele><time>2026-04-25T14:24:58.229Z</time></trkpt><trkpt lat="45.737105" lon="9.3755817"><ele>353.0</ele><time>2026-04-25T14:24:59.23Z</time></trkpt><trkpt lat="45.7371233" lon="9.375485"><ele>353.0</ele><time>2026-04-25T14:25:00.231Z</time></trkpt><trkpt lat="45.7371467" lon="9.375395"><ele>353.0</ele><time>2026-04-25T14:25:01.23Z</time></trkpt><trkpt lat="45.73717" lon="9.3753067"><ele>353.0</ele><time>2026-04-25T14:25:02.231Z</time></trkpt><trkpt lat="45.7372017" lon="9.3752233"><ele>353.0</ele><time>2026-04-25T14:25:03.231Z</time></trkpt><trkpt lat="45.73728" lon="9.37509"><ele>353.0</ele><time>2026-04-25T14:25:05.227Z</time></trkpt><trkpt lat="45.7373583" lon="9.37495"><ele>353.0</ele><time>2026-04-25T14:25:07.228Z</time></trkpt><trkpt lat="45.7373483" lon="9.3747867"><ele>353.0</ele><time>2026-04-25T14:25:09.229Z</time></trkpt><trkpt lat="45.7373117" lon="9.3747017"><ele>353.0</ele><time>2026-04-25T14:25:10.231Z</time></trkpt><trkpt lat="45.73728" lon="9.3746033"><ele>353.0</ele><time>2026-04-25T14:25:11.228Z</time></trkpt><trkpt lat="45.7372667" lon="9.3745"><ele>353.0</ele><time>2026-04-25T14:25:12.229Z</time></trkpt><trkpt lat="45.7372567" lon="9.374385"><ele>353.0</ele><time>2026-04-25T14:25:13.228Z</time></trkpt><trkpt lat="45.7372567" lon="9.37424"><ele>353.0</ele><time>2026-04-25T14:25:14.229Z</time></trkpt><trkpt lat="45.7372583" lon="9.37407"><ele>351.5</ele><time>2026-04-25T14:25:15.228Z</time></trkpt><trkpt lat="45.7372533" lon="9.3738883"><ele>350.0</ele><time>2026-04-25T14:25:16.23Z</time></trkpt><trkpt lat="45.7372517" lon="9.3737033"><ele>348.5</ele><time>2026-04-25T14:25:17.23Z</time></trkpt><trkpt lat="45.73725" lon="9.373515"><ele>347.0</ele><time>2026-04-25T14:25:18.229Z</time></trkpt><trkpt lat="45.7372467" lon="9.37333"><ele>346.0</ele><time>2026-04-25T14:25:19.229Z</time></trkpt><trkpt lat="45.7372433" lon="9.3731367"><ele>345.0</ele><time>2026-04-25T14:25:20.231Z</time></trkpt><trkpt lat="45.7372383" lon="9.3729417"><ele>344.0</ele><time>2026-04-25T14:25:21.231Z</time></trkpt><trkpt lat="45.7372317" lon="9.3727383"><ele>343.0</ele><time>2026-04-25T14:25:22.23Z</time></trkpt><trkpt lat="45.7372233" lon="9.3725217"><ele>342.0</ele><time>2026-04-25T14:25:23.23Z</time></trkpt><trkpt lat="45.7372183" lon="9.3723033"><ele>341.0</ele><time>2026-04-25T14:25:24.231Z</time></trkpt><trkpt lat="45.73722" lon="9.3720833"><ele>340.0</ele><time>2026-04-25T14:25:25.228Z</time></trkpt><trkpt lat="45.7372233" lon="9.371875"><ele>340.0</ele><time>2026-04-25T14:25:26.229Z</time></trkpt><trkpt lat="45.737225" lon="9.3716783"><ele>340.0</ele><time>2026-04-25T14:25:27.229Z</time></trkpt><trkpt lat="45.7372217" lon="9.3714917"><ele>340.0</ele><time>2026-04-25T14:25:28.229Z</time></trkpt><trkpt lat="45.737225" lon="9.37131"><ele>340.0</ele><time>2026-04-25T14:25:29.227Z</time></trkpt><trkpt lat="45.7372217" lon="9.3711467"><ele>339.8</ele><time>2026-04-25T14:25:30.228Z</time></trkpt><trkpt lat="45.73722" lon="9.37099"><ele>339.6</ele><time>2026-04-25T14:25:31.229Z</time></trkpt><trkpt lat="45.73722" lon="9.37085"><ele>339.4</ele><time>2026-04-25T14:25:32.229Z</time></trkpt><trkpt lat="45.7372217" lon="9.37073"><ele>339.2</ele><time>2026-04-25T14:25:33.229Z</time></trkpt><trkpt lat="45.7372233" lon="9.3706283"><ele>339.0</ele><time>2026-04-25T14:25:34.228Z</time></trkpt><trkpt lat="45.7372267" lon="9.370485"><ele>338.79999999999995</ele><time>2026-04-25T14:25:36.229Z</time></trkpt><trkpt lat="45.7372167" lon="9.3703283"><ele>338.59999999999997</ele><time>2026-04-25T14:25:52.228Z</time></trkpt><trkpt lat="45.7372167" lon="9.3702133"><ele>338.4</ele><time>2026-04-25T14:25:53.228Z</time></trkpt><trkpt lat="45.7372183" lon="9.3700767"><ele>338.2</ele><time>2026-04-25T14:25:54.228Z</time></trkpt><trkpt lat="45.737215" lon="9.36991"><ele>338.0</ele><time>2026-04-25T14:25:55.228Z</time></trkpt><trkpt lat="45.7372117" lon="9.3697133"><ele>337.6666666666667</ele><time>2026-04-25T14:25:56.229Z</time></trkpt><trkpt lat="45.7372033" lon="9.36951"><ele>337.3333333333333</ele><time>2026-04-25T14:25:57.228Z</time></trkpt><trkpt lat="45.7371933" lon="9.369295"><ele>337.0</ele><time>2026-04-25T14:25:58.228Z</time></trkpt><trkpt lat="45.7371867" lon="9.36907"><ele>336.3333333333333</ele><time>2026-04-25T14:25:59.229Z</time></trkpt><trkpt lat="45.73719" lon="9.3688267"><ele>335.6666666666667</ele><time>2026-04-25T14:26:00.229Z</time></trkpt><trkpt lat="45.7372017" lon="9.3685767"><ele>335.0</ele><time>2026-04-25T14:26:01.23Z</time></trkpt><trkpt lat="45.7372167" lon="9.3683233"><ele>335.0</ele><time>2026-04-25T14:26:02.227Z</time></trkpt><trkpt lat="45.7372383" lon="9.3680617"><ele>335.0</ele><time>2026-04-25T14:26:03.228Z</time></trkpt><trkpt lat="45.7372683" lon="9.3677967"><ele>335.0</ele><time>2026-04-25T14:26:04.228Z</time></trkpt><trkpt lat="45.7373067" lon="9.3675183"><ele>335.0</ele><time>2026-04-25T14:26:05.227Z</time></trkpt><trkpt lat="45.7373567" lon="9.3672417"><ele>335.0</ele><time>2026-04-25T14:26:06.227Z</time></trkpt><trkpt lat="45.7374133" lon="9.3669733"><ele>335.0</ele><time>2026-04-25T14:26:07.227Z</time></trkpt><trkpt lat="45.7374767" lon="9.3667083"><ele>335.0</ele><time>2026-04-25T14:26:08.229Z</time></trkpt><trkpt lat="45.7375483" lon="9.36644"><ele>335.0</ele><time>2026-04-25T14:26:09.228Z</time></trkpt><trkpt lat="45.7376267" lon="9.3661617"><ele>335.0</ele><time>2026-04-25T14:26:10.227Z</time></trkpt><trkpt lat="45.7377067" lon="9.3658817"><ele>335.0</ele><time>2026-04-25T14:26:11.226Z</time></trkpt><trkpt lat="45.7377833" lon="9.3656067"><ele>335.0</ele><time>2026-04-25T14:26:12.229Z</time></trkpt><trkpt lat="45.7378567" lon="9.3653333"><ele>335.0</ele><time>2026-04-25T14:26:13.227Z</time></trkpt><trkpt lat="45.737935" lon="9.3650617"><ele>334.6666666666667</ele><time>2026-04-25T14:26:14.227Z</time></trkpt><trkpt lat="45.7380133" lon="9.364785"><ele>334.3333333333333</ele><time>2026-04-25T14:26:15.229Z</time></trkpt><trkpt lat="45.73809" lon="9.3645117"><ele>334.0</ele><time>2026-04-25T14:26:16.229Z</time></trkpt><trkpt lat="45.7381633" lon="9.3642433"><ele>334.0</ele><time>2026-04-25T14:26:17.229Z</time></trkpt><trkpt lat="45.7382333" lon="9.36399"><ele>334.0</ele><time>2026-04-25T14:26:18.227Z</time></trkpt><trkpt lat="45.7382983" lon="9.36375"><ele>334.0</ele><time>2026-04-25T14:26:19.227Z</time></trkpt><trkpt lat="45.7383617" lon="9.3635183"><ele>334.0</ele><time>2026-04-25T14:26:20.229Z</time></trkpt><trkpt lat="45.7384233" lon="9.3633067"><ele>334.0</ele><time>2026-04-25T14:26:21.228Z</time></trkpt><trkpt lat="45.7384767" lon="9.3631133"><ele>334.0</ele><time>2026-04-25T14:26:22.227Z</time></trkpt><trkpt lat="45.7385217" lon="9.3629483"><ele>334.0</ele><time>2026-04-25T14:26:23.228Z</time></trkpt><trkpt lat="45.7385617" lon="9.3627983"><ele>334.25</ele><time>2026-04-25T14:26:24.227Z</time></trkpt><trkpt lat="45.7386017" lon="9.3626483"><ele>334.5</ele><time>2026-04-25T14:26:25.229Z</time></trkpt><trkpt lat="45.7386433" lon="9.3624867"><ele>334.75</ele><time>2026-04-25T14:26:26.229Z</time></trkpt><trkpt lat="45.7386917" lon="9.36231"><ele>335.0</ele><time>2026-04-25T14:26:27.228Z</time></trkpt><trkpt lat="45.7387433" lon="9.36212"><ele>336.5</ele><time>2026-04-25T14:26:28.227Z</time></trkpt><trkpt lat="45.738795" lon="9.361915"><ele>338.0</ele><time>2026-04-25T14:26:29.227Z</time></trkpt><trkpt lat="45.7389183" lon="9.3614683"><ele>337.33333333333337</ele><time>2026-04-25T14:26:31.228Z</time></trkpt><trkpt lat="45.7389867" lon="9.36123"><ele>336.6666666666667</ele><time>2026-04-25T14:26:32.229Z</time></trkpt><trkpt lat="45.739055" lon="9.36099"><ele>336.0</ele><time>2026-04-25T14:26:33.228Z</time></trkpt><trkpt lat="45.7391217" lon="9.3607433"><ele>336.6666666666667</ele><time>2026-04-25T14:26:34.228Z</time></trkpt><trkpt lat="45.7391867" lon="9.3604867"><ele>337.33333333333337</ele><time>2026-04-25T14:26:35.227Z</time></trkpt><trkpt lat="45.7392533" lon="9.3602183"><ele>338.0</ele><time>2026-04-25T14:26:36.227Z</time></trkpt><trkpt lat="45.7393233" lon="9.3599383"><ele>339.33333333333337</ele><time>2026-04-25T14:26:37.227Z</time></trkpt><trkpt lat="45.7393933" lon="9.35965"><ele>340.6666666666667</ele><time>2026-04-25T14:26:38.228Z</time></trkpt><trkpt lat="45.7394667" lon="9.3593533"><ele>342.0</ele><time>2026-04-25T14:26:39.232Z</time></trkpt><trkpt lat="45.7395417" lon="9.3590533"><ele>341.5</ele><time>2026-04-25T14:26:40.229Z</time></trkpt><trkpt lat="45.7396233" lon="9.3587433"><ele>341.0</ele><time>2026-04-25T14:26:41.227Z</time></trkpt><trkpt lat="45.7397083" lon="9.35843"><ele>341.0</ele><time>2026-04-25T14:26:42.228Z</time></trkpt><trkpt lat="45.7397967" lon="9.35811"><ele>341.0</ele><time>2026-04-25T14:26:43.228Z</time></trkpt><trkpt lat="45.739885" lon="9.3577883"><ele>343.0</ele><time>2026-04-25T14:26:44.228Z</time></trkpt><trkpt lat="45.739975" lon="9.3574633"><ele>345.0</ele><time>2026-04-25T14:26:45.228Z</time></trkpt><trkpt lat="45.7400683" lon="9.357135"><ele>346.5</ele><time>2026-04-25T14:26:46.228Z</time></trkpt><trkpt lat="45.7401567" lon="9.356815"><ele>348.0</ele><time>2026-04-25T14:26:47.228Z</time></trkpt><trkpt lat="45.7402417" lon="9.3565133"><ele>346.0</ele><time>2026-04-25T14:26:48.228Z</time></trkpt><trkpt lat="45.7403317" lon="9.3562383"><ele>344.0</ele><time>2026-04-25T14:26:49.227Z</time></trkpt><trkpt lat="45.740425" lon="9.3559867"><ele>342.0</ele><time>2026-04-25T14:26:50.228Z</time></trkpt><trkpt lat="45.7405183" lon="9.355755"><ele>342.0</ele><time>2026-04-25T14:26:51.228Z</time></trkpt><trkpt lat="45.740615" lon="9.3555383"><ele>342.0</ele><time>2026-04-25T14:26:52.227Z</time></trkpt><trkpt lat="45.7407117" lon="9.355335"><ele>342.0</ele><time>2026-04-25T14:26:53.227Z</time></trkpt><trkpt lat="45.7408117" lon="9.3551317"><ele>341.3333333333333</ele><time>2026-04-25T14:26:54.229Z</time></trkpt><trkpt lat="45.7409167" lon="9.3549267"><ele>340.66666666666663</ele><time>2026-04-25T14:26:55.227Z</time></trkpt><trkpt lat="45.7410267" lon="9.3547117"><ele>340.0</ele><time>2026-04-25T14:26:56.228Z</time></trkpt><trkpt lat="45.74114" lon="9.3544933"><ele>340.0</ele><time>2026-04-25T14:26:57.228Z</time></trkpt><trkpt lat="45.7412583" lon="9.3542733"><ele>340.0</ele><time>2026-04-25T14:26:58.228Z</time></trkpt><trkpt lat="45.7413783" lon="9.354045"><ele>340.0</ele><time>2026-04-25T14:26:59.227Z</time></trkpt><trkpt lat="45.7414983" lon="9.3538117"><ele>341.3333333333333</ele><time>2026-04-25T14:27:00.227Z</time></trkpt><trkpt lat="45.74162" lon="9.3535817"><ele>342.6666666666667</ele><time>2026-04-25T14:27:01.228Z</time></trkpt><trkpt lat="45.74174" lon="9.3533533"><ele>344.0</ele><time>2026-04-25T14:27:02.227Z</time></trkpt><trkpt lat="45.7418617" lon="9.353125"><ele>342.0</ele><time>2026-04-25T14:27:03.227Z</time></trkpt><trkpt lat="45.74198" lon="9.3528933"><ele>340.0</ele><time>2026-04-25T14:27:04.228Z</time></trkpt><trkpt lat="45.7421" lon="9.352665"><ele>338.0</ele><time>2026-04-25T14:27:05.227Z</time></trkpt><trkpt lat="45.7422183" lon="9.3524383"><ele>339.6666666666667</ele><time>2026-04-25T14:27:06.227Z</time></trkpt><trkpt lat="45.74233" lon="9.3522"><ele>341.3333333333333</ele><time>2026-04-25T14:27:07.228Z</time></trkpt><trkpt lat="45.7424317" lon="9.3519633"><ele>343.0</ele><time>2026-04-25T14:27:08.227Z</time></trkpt><trkpt lat="45.74252" lon="9.351715"><ele>343.0</ele><time>2026-04-25T14:27:09.228Z</time></trkpt><trkpt lat="45.742595" lon="9.3514633"><ele>343.0</ele><time>2026-04-25T14:27:10.228Z</time></trkpt><trkpt lat="45.74267" lon="9.3512067"><ele>343.0</ele><time>2026-04-25T14:27:11.227Z</time></trkpt><trkpt lat="45.742745" lon="9.35095"><ele>341.3333333333333</ele><time>2026-04-25T14:27:12.227Z</time></trkpt><trkpt lat="45.74282" lon="9.3506867"><ele>339.6666666666667</ele><time>2026-04-25T14:27:13.228Z</time></trkpt><trkpt lat="45.7428967" lon="9.350425"><ele>338.0</ele><time>2026-04-25T14:27:14.228Z</time></trkpt><trkpt lat="45.7429833" lon="9.3501633"><ele>338.0</ele><time>2026-04-25T14:27:15.229Z</time></trkpt><trkpt lat="45.7430833" lon="9.3499133"><ele>338.0</ele><time>2026-04-25T14:27:16.228Z</time></trkpt><trkpt lat="45.7432" lon="9.349685"><ele>338.0</ele><time>2026-04-25T14:27:17.228Z</time></trkpt><trkpt lat="45.7433333" lon="9.349475"><ele>336.0</ele><time>2026-04-25T14:27:18.229Z</time></trkpt><trkpt lat="45.7434733" lon="9.34928"><ele>334.0</ele><time>2026-04-25T14:27:19.228Z</time></trkpt><trkpt lat="45.743625" lon="9.3491"><ele>332.0</ele><time>2026-04-25T14:27:20.228Z</time></trkpt><trkpt lat="45.7437817" lon="9.3489283"><ele>336.33333333333337</ele><time>2026-04-25T14:27:21.228Z</time></trkpt><trkpt lat="45.74394" lon="9.3487467"><ele>340.6666666666667</ele><time>2026-04-25T14:27:22.228Z</time></trkpt><trkpt lat="45.7441033" lon="9.34857"><ele>345.0</ele><time>2026-04-25T14:27:23.227Z</time></trkpt><trkpt lat="45.744265" lon="9.3483917"><ele>342.0</ele><time>2026-04-25T14:27:24.229Z</time></trkpt><trkpt lat="45.744425" lon="9.348205"><ele>339.0</ele><time>2026-04-25T14:27:25.228Z</time></trkpt><trkpt lat="45.7445717" lon="9.3479917"><ele>336.0</ele><time>2026-04-25T14:27:26.23Z</time></trkpt><trkpt lat="45.7446983" lon="9.347755"><ele>336.0</ele><time>2026-04-25T14:27:27.23Z</time></trkpt><trkpt lat="45.7448083" lon="9.3475"><ele>336.0</ele><time>2026-04-25T14:27:28.228Z</time></trkpt><trkpt lat="45.7449083" lon="9.3472317"><ele>336.0</ele><time>2026-04-25T14:27:29.228Z</time></trkpt><trkpt lat="45.745005" lon="9.3469617"><ele>335.3333333333333</ele><time>2026-04-25T14:27:30.228Z</time></trkpt><trkpt lat="45.74509" lon="9.3466933"><ele>334.66666666666663</ele><time>2026-04-25T14:27:31.227Z</time></trkpt><trkpt lat="45.7451733" lon="9.3464217"><ele>334.0</ele><time>2026-04-25T14:27:32.228Z</time></trkpt><trkpt lat="45.7452533" lon="9.346155"><ele>334.0</ele><time>2026-04-25T14:27:33.229Z</time></trkpt><trkpt lat="45.7453383" lon="9.3458933"><ele>334.0</ele><time>2026-04-25T14:27:34.227Z</time></trkpt><trkpt lat="45.7454367" lon="9.34563"><ele>334.0</ele><time>2026-04-25T14:27:35.228Z</time></trkpt><trkpt lat="45.7455433" lon="9.345375"><ele>339.0</ele><time>2026-04-25T14:27:36.228Z</time></trkpt><trkpt lat="45.74566" lon="9.3451333"><ele>344.0</ele><time>2026-04-25T14:27:37.227Z</time></trkpt><trkpt lat="45.745775" lon="9.3448917"><ele>349.0</ele><time>2026-04-25T14:27:38.23Z</time></trkpt><trkpt lat="45.7458867" lon="9.3446383"><ele>350.66666666666663</ele><time>2026-04-25T14:27:39.228Z</time></trkpt><trkpt lat="45.7459933" lon="9.3443767"><ele>352.3333333333333</ele><time>2026-04-25T14:27:40.227Z</time></trkpt><trkpt lat="45.7461033" lon="9.3441183"><ele>354.0</ele><time>2026-04-25T14:27:41.229Z</time></trkpt><trkpt lat="45.7462283" lon="9.3438667"><ele>354.0</ele><time>2026-04-25T14:27:42.229Z</time></trkpt><trkpt lat="45.7463683" lon="9.3436217"><ele>354.0</ele><time>2026-04-25T14:27:43.228Z</time></trkpt><trkpt lat="45.7465083" lon="9.3433833"><ele>354.0</ele><time>2026-04-25T14:27:44.227Z</time></trkpt><trkpt lat="45.7466467" lon="9.3431367"><ele>351.3333333333333</ele><time>2026-04-25T14:27:45.228Z</time></trkpt><trkpt lat="45.74679" lon="9.342885"><ele>348.66666666666663</ele><time>2026-04-25T14:27:46.228Z</time></trkpt><trkpt lat="45.7469283" lon="9.3426417"><ele>346.0</ele><time>2026-04-25T14:27:47.228Z</time></trkpt><trkpt lat="45.74705" lon="9.3424117"><ele>348.66666666666663</ele><time>2026-04-25T14:27:48.228Z</time></trkpt><trkpt lat="45.7471567" lon="9.342185"><ele>351.3333333333333</ele><time>2026-04-25T14:27:49.227Z</time></trkpt><trkpt lat="45.7472483" lon="9.3419583"><ele>354.0</ele><time>2026-04-25T14:27:50.228Z</time></trkpt><trkpt lat="45.7473283" lon="9.3417317"><ele>354.0</ele><time>2026-04-25T14:27:51.229Z</time></trkpt><trkpt lat="45.7474067" lon="9.3414967"><ele>354.0</ele><time>2026-04-25T14:27:52.228Z</time></trkpt><trkpt lat="45.7474733" lon="9.3412483"><ele>354.0</ele><time>2026-04-25T14:27:53.228Z</time></trkpt><trkpt lat="45.7475317" lon="9.34099"><ele>354.3333333333333</ele><time>2026-04-25T14:27:54.23Z</time></trkpt><trkpt lat="45.74759" lon="9.3407217"><ele>354.66666666666663</ele><time>2026-04-25T14:27:55.229Z</time></trkpt><trkpt lat="45.7476483" lon="9.3404467"><ele>355.0</ele><time>2026-04-25T14:27:56.229Z</time></trkpt><trkpt lat="45.7477117" lon="9.3401583"><ele>353.0</ele><time>2026-04-25T14:27:57.229Z</time></trkpt><trkpt lat="45.747765" lon="9.339875"><ele>351.0</ele><time>2026-04-25T14:27:58.23Z</time></trkpt><trkpt lat="45.7478267" lon="9.339585"><ele>349.0</ele><time>2026-04-25T14:27:59.228Z</time></trkpt><trkpt lat="45.7478883" lon="9.339295"><ele>349.0</ele><time>2026-04-25T14:28:00.228Z</time></trkpt><trkpt lat="45.7479533" lon="9.3390133"><ele>349.0</ele><time>2026-04-25T14:28:01.229Z</time></trkpt><trkpt lat="45.748025" lon="9.3387467"><ele>349.0</ele><time>2026-04-25T14:28:02.229Z</time></trkpt><trkpt lat="45.7481083" lon="9.33849"><ele>350.66666666666663</ele><time>2026-04-25T14:28:03.229Z</time></trkpt><trkpt lat="45.7481983" lon="9.3382483"><ele>352.3333333333333</ele><time>2026-04-25T14:28:04.229Z</time></trkpt><trkpt lat="45.7482983" lon="9.33801"><ele>354.0</ele><time>2026-04-25T14:28:05.228Z</time></trkpt><trkpt lat="45.7484" lon="9.33777"><ele>354.6666666666667</ele><time>2026-04-25T14:28:06.227Z</time></trkpt><trkpt lat="45.7485033" lon="9.3375333"><ele>355.33333333333337</ele><time>2026-04-25T14:28:07.227Z</time></trkpt><trkpt lat="45.7486083" lon="9.337295"><ele>356.0</ele><time>2026-04-25T14:28:08.227Z</time></trkpt><trkpt lat="45.7487117" lon="9.337065"><ele>354.0</ele><time>2026-04-25T14:28:09.229Z</time></trkpt><trkpt lat="45.7488083" lon="9.3368467"><ele>352.0</ele><time>2026-04-25T14:28:10.228Z</time></trkpt><trkpt lat="45.748895" lon="9.3366417"><ele>350.0</ele><time>2026-04-25T14:28:11.228Z</time></trkpt><trkpt lat="45.74897" lon="9.33645"><ele>351.5</ele><time>2026-04-25T14:28:12.228Z</time></trkpt><trkpt lat="45.7490283" lon="9.3362733"><ele>353.0</ele><time>2026-04-25T14:28:13.227Z</time></trkpt><trkpt lat="45.7490733" lon="9.3361067"><ele>354.5</ele><time>2026-04-25T14:28:14.228Z</time></trkpt><trkpt lat="45.7491117" lon="9.3359367"><ele>356.0</ele><time>2026-04-25T14:28:15.228Z</time></trkpt><trkpt lat="45.749145" lon="9.3357567"><ele>356.0</ele><time>2026-04-25T14:28:16.229Z</time></trkpt><trkpt lat="45.7491817" lon="9.3355667"><ele>356.0</ele><time>2026-04-25T14:28:17.228Z</time></trkpt><trkpt lat="45.7492133" lon="9.3353767"><ele>356.0</ele><time>2026-04-25T14:28:18.229Z</time></trkpt><trkpt lat="45.749245" lon="9.3351917"><ele>356.0</ele><time>2026-04-25T14:28:19.229Z</time></trkpt><trkpt lat="45.7492717" lon="9.3350183"><ele>357.0</ele><time>2026-04-25T14:28:20.229Z</time></trkpt><trkpt lat="45.7492983" lon="9.3348517"><ele>358.0</ele><time>2026-04-25T14:28:21.229Z</time></trkpt><trkpt lat="45.74933" lon="9.3346933"><ele>359.0</ele><time>2026-04-25T14:28:22.228Z</time></trkpt><trkpt lat="45.7493617" lon="9.3345367"><ele>360.0</ele><time>2026-04-25T14:28:23.229Z</time></trkpt><trkpt lat="45.7493917" lon="9.33439"><ele>358.8</ele><time>2026-04-25T14:28:24.229Z</time></trkpt><trkpt lat="45.74943" lon="9.3342583"><ele>357.6</ele><time>2026-04-25T14:28:25.228Z</time></trkpt><trkpt lat="45.74947" lon="9.3341267"><ele>356.4</ele><time>2026-04-25T14:28:26.228Z</time></trkpt><trkpt lat="45.7495117" lon="9.334005"><ele>355.2</ele><time>2026-04-25T14:28:27.23Z</time></trkpt><trkpt lat="45.7495517" lon="9.3338917"><ele>354.0</ele><time>2026-04-25T14:28:28.229Z</time></trkpt><trkpt lat="45.7495883" lon="9.33379"><ele>354.0</ele><time>2026-04-25T14:28:29.23Z</time></trkpt><trkpt lat="45.74962" lon="9.333695"><ele>354.0</ele><time>2026-04-25T14:28:30.229Z</time></trkpt><trkpt lat="45.7496483" lon="9.3336133"><ele>354.0</ele><time>2026-04-25T14:28:31.23Z</time></trkpt><trkpt lat="45.7497083" lon="9.3334333"><ele>354.0</ele><time>2026-04-25T14:28:33.23Z</time></trkpt><trkpt lat="45.7497467" lon="9.3333167"><ele>354.0</ele><time>2026-04-25T14:28:34.227Z</time></trkpt><trkpt lat="45.749785" lon="9.3331967"><ele>354.0</ele><time>2026-04-25T14:28:35.228Z</time></trkpt><trkpt lat="45.7498167" lon="9.3330767"><ele>354.0</ele><time>2026-04-25T14:28:36.229Z</time></trkpt><trkpt lat="45.7498317" lon="9.3329683"><ele>354.0</ele><time>2026-04-25T14:28:37.227Z</time></trkpt><trkpt lat="45.74982" lon="9.3328617"><ele>354.0</ele><time>2026-04-25T14:28:38.228Z</time></trkpt><trkpt lat="45.7497833" lon="9.3327367"><ele>354.0</ele><time>2026-04-25T14:28:39.229Z</time></trkpt><trkpt lat="45.7497367" lon="9.3326"><ele>354.0</ele><time>2026-04-25T14:28:40.228Z</time></trkpt><trkpt lat="45.7496983" lon="9.3324233"><ele>354.0</ele><time>2026-04-25T14:28:41.228Z</time></trkpt><trkpt lat="45.7496733" lon="9.3322317"><ele>354.0</ele><time>2026-04-25T14:28:42.228Z</time></trkpt><trkpt lat="45.74967" lon="9.3320233"><ele>354.0</ele><time>2026-04-25T14:28:43.227Z</time></trkpt><trkpt lat="45.7496817" lon="9.3318"><ele>354.0</ele><time>2026-04-25T14:28:44.229Z</time></trkpt><trkpt lat="45.7496967" lon="9.3315783"><ele>354.3333333333333</ele><time>2026-04-25T14:28:45.229Z</time></trkpt><trkpt lat="45.7497117" lon="9.3313567"><ele>354.66666666666663</ele><time>2026-04-25T14:28:46.228Z</time></trkpt><trkpt lat="45.7497267" lon="9.3311267"><ele>355.0</ele><time>2026-04-25T14:28:47.227Z</time></trkpt><trkpt lat="45.7497417" lon="9.3308967"><ele>355.0</ele><time>2026-04-25T14:28:48.228Z</time></trkpt><trkpt lat="45.7497533" lon="9.3306717"><ele>355.0</ele><time>2026-04-25T14:28:49.229Z</time></trkpt><trkpt lat="45.74977" lon="9.3304367"><ele>355.0</ele><time>2026-04-25T14:28:50.228Z</time></trkpt><trkpt lat="45.7497883" lon="9.330205"><ele>355.0</ele><time>2026-04-25T14:28:51.229Z</time></trkpt><trkpt lat="45.7498067" lon="9.329985"><ele>355.0</ele><time>2026-04-25T14:28:52.227Z</time></trkpt><trkpt lat="45.7498333" lon="9.3297633"><ele>355.0</ele><time>2026-04-25T14:28:53.229Z</time></trkpt><trkpt lat="45.7498617" lon="9.3295467"><ele>355.0</ele><time>2026-04-25T14:28:54.228Z</time></trkpt><trkpt lat="45.749895" lon="9.3293267"><ele>355.0</ele><time>2026-04-25T14:28:55.229Z</time></trkpt><trkpt lat="45.749935" lon="9.3291067"><ele>355.0</ele><time>2026-04-25T14:28:56.228Z</time></trkpt><trkpt lat="45.7499817" lon="9.3288917"><ele>355.0</ele><time>2026-04-25T14:28:57.229Z</time></trkpt><trkpt lat="45.750035" lon="9.3286767"><ele>355.0</ele><time>2026-04-25T14:28:58.228Z</time></trkpt><trkpt lat="45.7500917" lon="9.328465"><ele>355.0</ele><time>2026-04-25T14:28:59.229Z</time></trkpt><trkpt lat="45.75015" lon="9.3282483"><ele>354.0</ele><time>2026-04-25T14:29:00.228Z</time></trkpt><trkpt lat="45.75021" lon="9.3280267"><ele>353.0</ele><time>2026-04-25T14:29:01.228Z</time></trkpt><trkpt lat="45.7502717" lon="9.3278017"><ele>352.0</ele><time>2026-04-25T14:29:02.228Z</time></trkpt><trkpt lat="45.750335" lon="9.32757"><ele>352.0</ele><time>2026-04-25T14:29:03.229Z</time></trkpt><trkpt lat="45.7504017" lon="9.327335"><ele>352.0</ele><time>2026-04-25T14:29:04.228Z</time></trkpt><trkpt lat="45.750465" lon="9.3271033"><ele>352.0</ele><time>2026-04-25T14:29:05.228Z</time></trkpt><trkpt lat="45.750525" lon="9.3268683"><ele>351.0</ele><time>2026-04-25T14:29:06.227Z</time></trkpt><trkpt lat="45.7505867" lon="9.326635"><ele>350.0</ele><time>2026-04-25T14:29:07.227Z</time></trkpt><trkpt lat="45.75065" lon="9.3264"><ele>349.0</ele><time>2026-04-25T14:29:08.227Z</time></trkpt><trkpt lat="45.75071" lon="9.32616"><ele>349.0</ele><time>2026-04-25T14:29:09.229Z</time></trkpt><trkpt lat="45.7507717" lon="9.32592"><ele>349.0</ele><time>2026-04-25T14:29:10.229Z</time></trkpt><trkpt lat="45.7508317" lon="9.3256867"><ele>349.0</ele><time>2026-04-25T14:29:11.227Z</time></trkpt><trkpt lat="45.7508917" lon="9.32545"><ele>349.0</ele><time>2026-04-25T14:29:12.228Z</time></trkpt><trkpt lat="45.7509533" lon="9.3252117"><ele>349.0</ele><time>2026-04-25T14:29:13.229Z</time></trkpt><trkpt lat="45.751015" lon="9.324975"><ele>349.0</ele><time>2026-04-25T14:29:14.228Z</time></trkpt><trkpt lat="45.7510783" lon="9.3247367"><ele>348.3333333333333</ele><time>2026-04-25T14:29:15.229Z</time></trkpt><trkpt lat="45.7511417" lon="9.3245"><ele>347.6666666666667</ele><time>2026-04-25T14:29:16.229Z</time></trkpt><trkpt lat="45.75121" lon="9.3242633"><ele>347.0</ele><time>2026-04-25T14:29:17.228Z</time></trkpt><trkpt lat="45.7512783" lon="9.3240267"><ele>347.0</ele><time>2026-04-25T14:29:18.228Z</time></trkpt><trkpt lat="45.751345" lon="9.3237867"><ele>347.0</ele><time>2026-04-25T14:29:19.228Z</time></trkpt><trkpt lat="45.7514083" lon="9.32355"><ele>347.0</ele><time>2026-04-25T14:29:20.229Z</time></trkpt><trkpt lat="45.75147" lon="9.323315"><ele>347.0</ele><time>2026-04-25T14:29:21.229Z</time></trkpt><trkpt lat="45.75153" lon="9.32308"><ele>347.0</ele><time>2026-04-25T14:29:22.23Z</time></trkpt><trkpt lat="45.7515883" lon="9.3228467"><ele>347.0</ele><time>2026-04-25T14:29:23.228Z</time></trkpt><trkpt lat="45.7516483" lon="9.3226133"><ele>347.0</ele><time>2026-04-25T14:29:24.229Z</time></trkpt><trkpt lat="45.7517083" lon="9.3223833"><ele>347.0</ele><time>2026-04-25T14:29:25.23Z</time></trkpt><trkpt lat="45.7517683" lon="9.3221617"><ele>347.0</ele><time>2026-04-25T14:29:26.229Z</time></trkpt><trkpt lat="45.7518267" lon="9.3219483"><ele>347.33333333333337</ele><time>2026-04-25T14:29:27.229Z</time></trkpt><trkpt lat="45.7518833" lon="9.32174"><ele>347.6666666666667</ele><time>2026-04-25T14:29:28.228Z</time></trkpt><trkpt lat="45.7519367" lon="9.3215367"><ele>348.0</ele><time>2026-04-25T14:29:29.228Z</time></trkpt><trkpt lat="45.75199" lon="9.32134"><ele>348.25</ele><time>2026-04-25T14:29:30.228Z</time></trkpt><trkpt lat="45.75204" lon="9.321155"><ele>348.5</ele><time>2026-04-25T14:29:31.227Z</time></trkpt><trkpt lat="45.7520867" lon="9.320975"><ele>348.75</ele><time>2026-04-25T14:29:32.227Z</time></trkpt><trkpt lat="45.75213" lon="9.3208033"><ele>349.0</ele><time>2026-04-25T14:29:33.228Z</time></trkpt><trkpt lat="45.7521667" lon="9.3206517"><ele>348.66666666666663</ele><time>2026-04-25T14:29:34.227Z</time></trkpt><trkpt lat="45.7521983" lon="9.3205117"><ele>348.3333333333333</ele><time>2026-04-25T14:29:35.228Z</time></trkpt><trkpt lat="45.7522233" lon="9.3203883"><ele>348.0</ele><time>2026-04-25T14:29:36.228Z</time></trkpt><trkpt lat="45.75225" lon="9.3202683"><ele>347.6666666666667</ele><time>2026-04-25T14:29:37.229Z</time></trkpt><trkpt lat="45.752275" lon="9.3201517"><ele>347.33333333333337</ele><time>2026-04-25T14:29:38.228Z</time></trkpt><trkpt lat="45.7523" lon="9.3200433"><ele>347.0</ele><time>2026-04-25T14:29:39.229Z</time></trkpt><trkpt lat="45.7523333" lon="9.31994"><ele>347.0</ele><time>2026-04-25T14:29:40.227Z</time></trkpt><trkpt lat="45.7523817" lon="9.319845"><ele>347.0</ele><time>2026-04-25T14:29:41.229Z</time></trkpt><trkpt lat="45.7524383" lon="9.3197467"><ele>347.0</ele><time>2026-04-25T14:29:42.228Z</time></trkpt><trkpt lat="45.7524883" lon="9.3196367"><ele>347.0</ele><time>2026-04-25T14:29:43.23Z</time></trkpt><trkpt lat="45.7525167" lon="9.319515"><ele>347.0</ele><time>2026-04-25T14:29:44.23Z</time></trkpt><trkpt lat="45.7525317" lon="9.31938"><ele>347.0</ele><time>2026-04-25T14:29:45.23Z</time></trkpt><trkpt lat="45.7525483" lon="9.3192367"><ele>347.0</ele><time>2026-04-25T14:29:46.228Z</time></trkpt><trkpt lat="45.75258" lon="9.3190867"><ele>347.0</ele><time>2026-04-25T14:29:47.228Z</time></trkpt><trkpt lat="45.75262" lon="9.3189267"><ele>347.0</ele><time>2026-04-25T14:29:48.23Z</time></trkpt><trkpt lat="45.7526667" lon="9.3187533"><ele>347.0</ele><time>2026-04-25T14:29:49.228Z</time></trkpt><trkpt lat="45.7527167" lon="9.3185667"><ele>346.75</ele><time>2026-04-25T14:29:50.229Z</time></trkpt><trkpt lat="45.7527667" lon="9.3183783"><ele>346.5</ele><time>2026-04-25T14:29:51.228Z</time></trkpt><trkpt lat="45.7528167" lon="9.3181867"><ele>346.25</ele><time>2026-04-25T14:29:52.229Z</time></trkpt><trkpt lat="45.7528667" lon="9.318"><ele>346.0</ele><time>2026-04-25T14:29:53.23Z</time></trkpt><trkpt lat="45.7529133" lon="9.31782"><ele>346.0</ele><time>2026-04-25T14:29:54.229Z</time></trkpt><trkpt lat="45.75296" lon="9.3176433"><ele>346.0</ele><time>2026-04-25T14:29:55.229Z</time></trkpt><trkpt lat="45.7530083" lon="9.3174633"><ele>346.0</ele><time>2026-04-25T14:29:56.229Z</time></trkpt><trkpt lat="45.75306" lon="9.31728"><ele>346.0</ele><time>2026-04-25T14:29:57.229Z</time></trkpt><trkpt lat="45.7531133" lon="9.3170917"><ele>346.0</ele><time>2026-04-25T14:29:58.227Z</time></trkpt><trkpt lat="45.7531683" lon="9.3169"><ele>346.0</ele><time>2026-04-25T14:29:59.228Z</time></trkpt><trkpt lat="45.753225" lon="9.316705"><ele>346.0</ele><time>2026-04-25T14:30:00.228Z</time></trkpt><trkpt lat="45.75328" lon="9.3165133"><ele>346.0</ele><time>2026-04-25T14:30:01.228Z</time></trkpt><trkpt lat="45.7533333" lon="9.316325"><ele>345.75</ele><time>2026-04-25T14:30:02.229Z</time></trkpt><trkpt lat="45.7533867" lon="9.3161417"><ele>345.5</ele><time>2026-04-25T14:30:03.228Z</time></trkpt><trkpt lat="45.7534367" lon="9.31596"><ele>345.25</ele><time>2026-04-25T14:30:04.231Z</time></trkpt><trkpt lat="45.7534833" lon="9.31578"><ele>345.0</ele><time>2026-04-25T14:30:05.229Z</time></trkpt><trkpt lat="45.75353" lon="9.3155967"><ele>345.0</ele><time>2026-04-25T14:30:06.228Z</time></trkpt><trkpt lat="45.7535783" lon="9.31541"><ele>345.0</ele><time>2026-04-25T14:30:07.229Z</time></trkpt><trkpt lat="45.75363" lon="9.3152183"><ele>345.0</ele><time>2026-04-25T14:30:08.229Z</time></trkpt><trkpt lat="45.7536833" lon="9.315025"><ele>345.0</ele><time>2026-04-25T14:30:09.229Z</time></trkpt><trkpt lat="45.7537367" lon="9.3148267"><ele>345.0</ele><time>2026-04-25T14:30:10.229Z</time></trkpt><trkpt lat="45.75379" lon="9.314625"><ele>345.0</ele><time>2026-04-25T14:30:11.23Z</time></trkpt><trkpt lat="45.753845" lon="9.31442"><ele>345.0</ele><time>2026-04-25T14:30:12.229Z</time></trkpt><trkpt lat="45.7539" lon="9.3142167"><ele>345.0</ele><time>2026-04-25T14:30:13.229Z</time></trkpt><trkpt lat="45.753955" lon="9.31401"><ele>345.0</ele><time>2026-04-25T14:30:14.228Z</time></trkpt><trkpt lat="45.7540117" lon="9.3137983"><ele>345.0</ele><time>2026-04-25T14:30:15.228Z</time></trkpt><trkpt lat="45.7540683" lon="9.3135867"><ele>345.3333333333333</ele><time>2026-04-25T14:30:16.227Z</time></trkpt><trkpt lat="45.754125" lon="9.3133817"><ele>345.66666666666663</ele><time>2026-04-25T14:30:17.228Z</time></trkpt><trkpt lat="45.7541783" lon="9.31317"><ele>346.0</ele><time>2026-04-25T14:30:18.228Z</time></trkpt><trkpt lat="45.7542333" lon="9.3129483"><ele>346.0</ele><time>2026-04-25T14:30:19.229Z</time></trkpt><trkpt lat="45.7542917" lon="9.31272"><ele>346.0</ele><time>2026-04-25T14:30:20.229Z</time></trkpt><trkpt lat="45.7543483" lon="9.3124917"><ele>346.0</ele><time>2026-04-25T14:30:21.228Z</time></trkpt><trkpt lat="45.7544033" lon="9.3122683"><ele>346.66666666666663</ele><time>2026-04-25T14:30:22.227Z</time></trkpt><trkpt lat="45.7544617" lon="9.312045"><ele>347.3333333333333</ele><time>2026-04-25T14:30:23.228Z</time></trkpt><trkpt lat="45.7545217" lon="9.3118167"><ele>348.0</ele><time>2026-04-25T14:30:24.228Z</time></trkpt><trkpt lat="45.75458" lon="9.3115867"><ele>348.3333333333333</ele><time>2026-04-25T14:30:25.227Z</time></trkpt><trkpt lat="45.75464" lon="9.3113617"><ele>348.66666666666663</ele><time>2026-04-25T14:30:26.229Z</time></trkpt><trkpt lat="45.7546967" lon="9.31114"><ele>349.0</ele><time>2026-04-25T14:30:27.229Z</time></trkpt><trkpt lat="45.7547533" lon="9.31092"><ele>349.0</ele><time>2026-04-25T14:30:28.228Z</time></trkpt><trkpt lat="45.7548067" lon="9.3107033"><ele>349.0</ele><time>2026-04-25T14:30:29.229Z</time></trkpt><trkpt lat="45.7548617" lon="9.3104883"><ele>349.0</ele><time>2026-04-25T14:30:30.228Z</time></trkpt><trkpt lat="45.75492" lon="9.310275"><ele>349.0</ele><time>2026-04-25T14:30:31.228Z</time></trkpt><trkpt lat="45.7549783" lon="9.3100667"><ele>349.0</ele><time>2026-04-25T14:30:32.229Z</time></trkpt><trkpt lat="45.7550317" lon="9.3098717"><ele>349.0</ele><time>2026-04-25T14:30:33.228Z</time></trkpt><trkpt lat="45.755085" lon="9.3096833"><ele>349.0</ele><time>2026-04-25T14:30:34.228Z</time></trkpt><trkpt lat="45.7551367" lon="9.3095033"><ele>349.0</ele><time>2026-04-25T14:30:35.229Z</time></trkpt><trkpt lat="45.75519" lon="9.3093183"><ele>349.0</ele><time>2026-04-25T14:30:36.228Z</time></trkpt><trkpt lat="45.7552417" lon="9.3091217"><ele>349.0</ele><time>2026-04-25T14:30:37.229Z</time></trkpt><trkpt lat="45.7552883" lon="9.3089117"><ele>349.0</ele><time>2026-04-25T14:30:38.228Z</time></trkpt><trkpt lat="45.75533" lon="9.3086917"><ele>347.5</ele><time>2026-04-25T14:30:39.229Z</time></trkpt><trkpt lat="45.7553633" lon="9.3084767"><ele>346.0</ele><time>2026-04-25T14:30:40.228Z</time></trkpt><trkpt lat="45.755385" lon="9.3082667"><ele>344.5</ele><time>2026-04-25T14:30:41.229Z</time></trkpt><trkpt lat="45.7553883" lon="9.3080583"><ele>343.0</ele><time>2026-04-25T14:30:42.228Z</time></trkpt><trkpt lat="45.7553767" lon="9.3078433"><ele>342.3333333333333</ele><time>2026-04-25T14:30:43.229Z</time></trkpt><trkpt lat="45.7553517" lon="9.3076233"><ele>341.6666666666667</ele><time>2026-04-25T14:30:44.228Z</time></trkpt><trkpt lat="45.7553183" lon="9.3074"><ele>341.0</ele><time>2026-04-25T14:30:45.229Z</time></trkpt><trkpt lat="45.7552733" lon="9.3071833"><ele>341.0</ele><time>2026-04-25T14:30:46.228Z</time></trkpt><trkpt lat="45.755215" lon="9.3069817"><ele>341.0</ele><time>2026-04-25T14:30:47.228Z</time></trkpt><trkpt lat="45.7551483" lon="9.306795"><ele>341.0</ele><time>2026-04-25T14:30:48.228Z</time></trkpt><trkpt lat="45.7550733" lon="9.3066233"><ele>341.0</ele><time>2026-04-25T14:30:49.231Z</time></trkpt><trkpt lat="45.7549917" lon="9.30647"><ele>339.5</ele><time>2026-04-25T14:30:50.23Z</time></trkpt><trkpt lat="45.7549033" lon="9.3063267"><ele>338.0</ele><time>2026-04-25T14:30:51.229Z</time></trkpt><trkpt lat="45.7548117" lon="9.3061933"><ele>336.5</ele><time>2026-04-25T14:30:52.229Z</time></trkpt><trkpt lat="45.75471" lon="9.306065"><ele>335.0</ele><time>2026-04-25T14:30:53.228Z</time></trkpt><trkpt lat="45.754595" lon="9.3059417"><ele>335.0</ele><time>2026-04-25T14:30:54.229Z</time></trkpt><trkpt lat="45.7544733" lon="9.3058167"><ele>335.0</ele><time>2026-04-25T14:30:55.228Z</time></trkpt><trkpt lat="45.75435" lon="9.30569"><ele>335.0</ele><time>2026-04-25T14:30:56.228Z</time></trkpt><trkpt lat="45.75422" lon="9.30556"><ele>334.6666666666667</ele><time>2026-04-25T14:30:57.228Z</time></trkpt><trkpt lat="45.7540867" lon="9.3054283"><ele>334.3333333333333</ele><time>2026-04-25T14:30:58.228Z</time></trkpt><trkpt lat="45.7539533" lon="9.3052983"><ele>334.0</ele><time>2026-04-25T14:30:59.229Z</time></trkpt><trkpt lat="45.7538233" lon="9.3051733"><ele>334.0</ele><time>2026-04-25T14:31:00.228Z</time></trkpt><trkpt lat="45.7536967" lon="9.30505"><ele>334.0</ele><time>2026-04-25T14:31:01.228Z</time></trkpt><trkpt lat="45.753575" lon="9.3049317"><ele>334.0</ele><time>2026-04-25T14:31:02.229Z</time></trkpt><trkpt lat="45.753455" lon="9.3048183"><ele>334.0</ele><time>2026-04-25T14:31:03.23Z</time></trkpt><trkpt lat="45.7533383" lon="9.3047067"><ele>334.5</ele><time>2026-04-25T14:31:04.229Z</time></trkpt><trkpt lat="45.753225" lon="9.3045983"><ele>335.0</ele><time>2026-04-25T14:31:05.229Z</time></trkpt><trkpt lat="45.753115" lon="9.304495"><ele>335.5</ele><time>2026-04-25T14:31:06.228Z</time></trkpt><trkpt lat="45.75301" lon="9.3043933"><ele>336.0</ele><time>2026-04-25T14:31:07.228Z</time></trkpt><trkpt lat="45.7529067" lon="9.3042933"><ele>336.0</ele><time>2026-04-25T14:31:08.228Z</time></trkpt><trkpt lat="45.7528033" lon="9.304195"><ele>336.0</ele><time>2026-04-25T14:31:09.229Z</time></trkpt><trkpt lat="45.7527" lon="9.3040867"><ele>336.0</ele><time>2026-04-25T14:31:10.229Z</time></trkpt><trkpt lat="45.7525983" lon="9.3039617"><ele>336.0</ele><time>2026-04-25T14:31:11.23Z</time></trkpt><trkpt lat="45.75251" lon="9.3038067"><ele>334.25</ele><time>2026-04-25T14:31:12.23Z</time></trkpt><trkpt lat="45.75244" lon="9.30363"><ele>332.5</ele><time>2026-04-25T14:31:13.229Z</time></trkpt><trkpt lat="45.7523883" lon="9.3034367"><ele>330.75</ele><time>2026-04-25T14:31:14.228Z</time></trkpt><trkpt lat="45.7523633" lon="9.303235"><ele>329.0</ele><time>2026-04-25T14:31:15.229Z</time></trkpt><trkpt lat="45.7523517" lon="9.3030417"><ele>328.0</ele><time>2026-04-25T14:31:16.228Z</time></trkpt><trkpt lat="45.75237" lon="9.3028517"><ele>327.0</ele><time>2026-04-25T14:31:17.229Z</time></trkpt><trkpt lat="45.752405" lon="9.3026483"><ele>326.0</ele><time>2026-04-25T14:31:18.228Z</time></trkpt><trkpt lat="45.7524717" lon="9.3024417"><ele>325.0</ele><time>2026-04-25T14:31:19.229Z</time></trkpt><trkpt lat="45.752545" lon="9.3022367"><ele>325.0</ele><time>2026-04-25T14:31:20.228Z</time></trkpt><trkpt lat="45.75262" lon="9.3020383"><ele>325.0</ele><time>2026-04-25T14:31:21.228Z</time></trkpt><trkpt lat="45.7526867" lon="9.30183"><ele>325.0</ele><time>2026-04-25T14:31:22.227Z</time></trkpt><trkpt lat="45.75274" lon="9.301605"><ele>321.66666666666663</ele><time>2026-04-25T14:31:23.227Z</time></trkpt><trkpt lat="45.7527767" lon="9.30137"><ele>318.3333333333333</ele><time>2026-04-25T14:31:24.227Z</time></trkpt><trkpt lat="45.7528" lon="9.3011333"><ele>315.0</ele><time>2026-04-25T14:31:25.227Z</time></trkpt><trkpt lat="45.7528133" lon="9.30089"><ele>315.0</ele><time>2026-04-25T14:31:26.229Z</time></trkpt><trkpt lat="45.7528217" lon="9.3006467"><ele>315.0</ele><time>2026-04-25T14:31:27.228Z</time></trkpt><trkpt lat="45.7528217" lon="9.300405"><ele>315.0</ele><time>2026-04-25T14:31:28.229Z</time></trkpt><trkpt lat="45.7528183" lon="9.30016"><ele>313.3333333333333</ele><time>2026-04-25T14:31:29.227Z</time></trkpt><trkpt lat="45.7528117" lon="9.29991"><ele>311.66666666666663</ele><time>2026-04-25T14:31:30.227Z</time></trkpt><trkpt lat="45.7528017" lon="9.2996617"><ele>310.0</ele><time>2026-04-25T14:31:31.228Z</time></trkpt><trkpt lat="45.75279" lon="9.2994183"><ele>308.3333333333333</ele><time>2026-04-25T14:31:32.228Z</time></trkpt><trkpt lat="45.7527767" lon="9.299185"><ele>306.6666666666667</ele><time>2026-04-25T14:31:33.229Z</time></trkpt><trkpt lat="45.75277" lon="9.298955"><ele>305.0</ele><time>2026-04-25T14:31:34.227Z</time></trkpt><trkpt lat="45.75276" lon="9.2987367"><ele>305.25</ele><time>2026-04-25T14:31:35.229Z</time></trkpt><trkpt lat="45.752755" lon="9.2985267"><ele>305.5</ele><time>2026-04-25T14:31:36.23Z</time></trkpt><trkpt lat="45.752745" lon="9.2983133"><ele>305.75</ele><time>2026-04-25T14:31:37.228Z</time></trkpt><trkpt lat="45.7527317" lon="9.2981033"><ele>306.0</ele><time>2026-04-25T14:31:38.227Z</time></trkpt><trkpt lat="45.7527217" lon="9.2978917"><ele>306.0</ele><time>2026-04-25T14:31:39.228Z</time></trkpt><trkpt lat="45.7527117" lon="9.2976767"><ele>306.0</ele><time>2026-04-25T14:31:40.227Z</time></trkpt><trkpt lat="45.7527033" lon="9.2974633"><ele>306.0</ele><time>2026-04-25T14:31:41.228Z</time></trkpt><trkpt lat="45.7527" lon="9.2972483"><ele>303.5</ele><time>2026-04-25T14:31:42.229Z</time></trkpt><trkpt lat="45.752695" lon="9.2970367"><ele>301.0</ele><time>2026-04-25T14:31:43.229Z</time></trkpt><trkpt lat="45.7526867" lon="9.2968267"><ele>298.5</ele><time>2026-04-25T14:31:44.229Z</time></trkpt><trkpt lat="45.75268" lon="9.2966183"><ele>296.0</ele><time>2026-04-25T14:31:45.229Z</time></trkpt><trkpt lat="45.7526733" lon="9.2964133"><ele>295.5</ele><time>2026-04-25T14:31:46.229Z</time></trkpt><trkpt lat="45.7526667" lon="9.296215"><ele>295.0</ele><time>2026-04-25T14:31:47.227Z</time></trkpt><trkpt lat="45.7526617" lon="9.2960233"><ele>294.5</ele><time>2026-04-25T14:31:48.231Z</time></trkpt><trkpt lat="45.7526567" lon="9.2958383"><ele>294.0</ele><time>2026-04-25T14:31:49.229Z</time></trkpt><trkpt lat="45.7526517" lon="9.2956683"><ele>294.2</ele><time>2026-04-25T14:31:50.229Z</time></trkpt><trkpt lat="45.7526433" lon="9.2955117"><ele>294.4</ele><time>2026-04-25T14:31:51.229Z</time></trkpt><trkpt lat="45.7526433" lon="9.29536"><ele>294.6</ele><time>2026-04-25T14:31:52.229Z</time></trkpt><trkpt lat="45.7526483" lon="9.295215"><ele>294.8</ele><time>2026-04-25T14:31:53.228Z</time></trkpt><trkpt lat="45.7526583" lon="9.29508"><ele>295.0</ele><time>2026-04-25T14:31:54.228Z</time></trkpt><trkpt lat="45.7526667" lon="9.2949567"><ele>295.0</ele><time>2026-04-25T14:31:55.23Z</time></trkpt><trkpt lat="45.75267" lon="9.2948333"><ele>295.0</ele><time>2026-04-25T14:31:56.229Z</time></trkpt><trkpt lat="45.7526567" lon="9.294705"><ele>295.0</ele><time>2026-04-25T14:31:57.229Z</time></trkpt><trkpt lat="45.752635" lon="9.2945567"><ele>295.0</ele><time>2026-04-25T14:31:58.228Z</time></trkpt><trkpt lat="45.7526183" lon="9.2943833"><ele>295.0</ele><time>2026-04-25T14:31:59.229Z</time></trkpt><trkpt lat="45.7526033" lon="9.2941983"><ele>294.75</ele><time>2026-04-25T14:32:00.228Z</time></trkpt><trkpt lat="45.7525933" lon="9.2940033"><ele>294.5</ele><time>2026-04-25T14:32:01.229Z</time></trkpt><trkpt lat="45.7525833" lon="9.2937967"><ele>294.25</ele><time>2026-04-25T14:32:02.228Z</time></trkpt><trkpt lat="45.752575" lon="9.2935883"><ele>294.0</ele><time>2026-04-25T14:32:03.229Z</time></trkpt><trkpt lat="45.7525683" lon="9.2933867"><ele>294.0</ele><time>2026-04-25T14:32:04.228Z</time></trkpt><trkpt lat="45.7525617" lon="9.2932"><ele>294.0</ele><time>2026-04-25T14:32:05.228Z</time></trkpt><trkpt lat="45.7525517" lon="9.2930233"><ele>294.0</ele><time>2026-04-25T14:32:06.229Z</time></trkpt><trkpt lat="45.7525383" lon="9.2928617"><ele>294.0</ele><time>2026-04-25T14:32:07.23Z</time></trkpt><trkpt lat="45.7525233" lon="9.292715"><ele>294.2</ele><time>2026-04-25T14:32:08.228Z</time></trkpt><trkpt lat="45.7525117" lon="9.2925767"><ele>294.4</ele><time>2026-04-25T14:32:09.23Z</time></trkpt><trkpt lat="45.752505" lon="9.2924367"><ele>294.6</ele><time>2026-04-25T14:32:10.228Z</time></trkpt><trkpt lat="45.7525033" lon="9.2922883"><ele>294.8</ele><time>2026-04-25T14:32:11.229Z</time></trkpt><trkpt lat="45.7525" lon="9.2921383"><ele>295.0</ele><time>2026-04-25T14:32:12.229Z</time></trkpt><trkpt lat="45.752495" lon="9.2919833"><ele>295.2</ele><time>2026-04-25T14:32:13.23Z</time></trkpt><trkpt lat="45.75249" lon="9.2918317"><ele>295.4</ele><time>2026-04-25T14:32:14.228Z</time></trkpt><trkpt lat="45.7524883" lon="9.2916833"><ele>295.6</ele><time>2026-04-25T14:32:15.23Z</time></trkpt><trkpt lat="45.752485" lon="9.2915383"><ele>295.8</ele><time>2026-04-25T14:32:16.229Z</time></trkpt><trkpt lat="45.7524767" lon="9.2913917"><ele>296.0</ele><time>2026-04-25T14:32:17.229Z</time></trkpt><trkpt lat="45.7524633" lon="9.291245"><ele>295.6</ele><time>2026-04-25T14:32:18.23Z</time></trkpt><trkpt lat="45.7524517" lon="9.2910917"><ele>295.20000000000005</ele><time>2026-04-25T14:32:19.228Z</time></trkpt><trkpt lat="45.7524517" lon="9.2909383"><ele>294.79999999999995</ele><time>2026-04-25T14:32:20.228Z</time></trkpt><trkpt lat="45.7524633" lon="9.2907833"><ele>294.4</ele><time>2026-04-25T14:32:21.233Z</time></trkpt><trkpt lat="45.7524733" lon="9.29062"><ele>294.0</ele><time>2026-04-25T14:32:22.228Z</time></trkpt><trkpt lat="45.7524783" lon="9.2904583"><ele>294.0</ele><time>2026-04-25T14:32:23.229Z</time></trkpt><trkpt lat="45.7524733" lon="9.2903017"><ele>294.0</ele><time>2026-04-25T14:32:24.23Z</time></trkpt><trkpt lat="45.7524617" lon="9.2901417"><ele>294.0</ele><time>2026-04-25T14:32:25.228Z</time></trkpt><trkpt lat="45.75244" lon="9.2899817"><ele>294.0</ele><time>2026-04-25T14:32:26.228Z</time></trkpt><trkpt lat="45.752415" lon="9.28982"><ele>294.75</ele><time>2026-04-25T14:32:27.228Z</time></trkpt><trkpt lat="45.7523817" lon="9.28966"><ele>295.5</ele><time>2026-04-25T14:32:28.23Z</time></trkpt><trkpt lat="45.75234" lon="9.2894967"><ele>296.25</ele><time>2026-04-25T14:32:29.229Z</time></trkpt><trkpt lat="45.75228" lon="9.2893317"><ele>297.0</ele><time>2026-04-25T14:32:30.229Z</time></trkpt><trkpt lat="45.752205" lon="9.289165"><ele>297.0</ele><time>2026-04-25T14:32:31.229Z</time></trkpt><trkpt lat="45.75212" lon="9.289"><ele>297.0</ele><time>2026-04-25T14:32:32.23Z</time></trkpt><trkpt lat="45.7520283" lon="9.2888417"><ele>297.0</ele><time>2026-04-25T14:32:33.229Z</time></trkpt><trkpt lat="45.7519317" lon="9.288695"><ele>297.0</ele><time>2026-04-25T14:32:34.228Z</time></trkpt><trkpt lat="45.751835" lon="9.288555"><ele>297.5</ele><time>2026-04-25T14:32:35.228Z</time></trkpt><trkpt lat="45.7517417" lon="9.288415"><ele>298.0</ele><time>2026-04-25T14:32:36.228Z</time></trkpt><trkpt lat="45.7516517" lon="9.2882683"><ele>298.5</ele><time>2026-04-25T14:32:37.229Z</time></trkpt><trkpt lat="45.7515617" lon="9.28812"><ele>299.0</ele><time>2026-04-25T14:32:38.229Z</time></trkpt><trkpt lat="45.75146" lon="9.287975"><ele>299.0</ele><time>2026-04-25T14:32:39.23Z</time></trkpt><trkpt lat="45.7513567" lon="9.2878333"><ele>299.0</ele><time>2026-04-25T14:32:40.229Z</time></trkpt><trkpt lat="45.75126" lon="9.2876783"><ele>299.0</ele><time>2026-04-25T14:32:41.229Z</time></trkpt><trkpt lat="45.751155" lon="9.2875217"><ele>299.0</ele><time>2026-04-25T14:32:42.228Z</time></trkpt><trkpt lat="45.75105" lon="9.2873583"><ele>295.6666666666667</ele><time>2026-04-25T14:32:43.229Z</time></trkpt><trkpt lat="45.750945" lon="9.287195"><ele>292.3333333333333</ele><time>2026-04-25T14:32:44.228Z</time></trkpt><trkpt lat="45.7508417" lon="9.2870233"><ele>289.0</ele><time>2026-04-25T14:32:45.229Z</time></trkpt><trkpt lat="45.750735" lon="9.28686"><ele>289.0</ele><time>2026-04-25T14:32:46.228Z</time></trkpt><trkpt lat="45.750645" lon="9.2867133"><ele>289.0</ele><time>2026-04-25T14:32:47.227Z</time></trkpt><trkpt lat="45.750555" lon="9.28655"><ele>289.0</ele><time>2026-04-25T14:32:48.228Z</time></trkpt><trkpt lat="45.7504567" lon="9.286385"><ele>289.0</ele><time>2026-04-25T14:32:49.228Z</time></trkpt><trkpt lat="45.7503583" lon="9.28623"><ele>289.0</ele><time>2026-04-25T14:32:50.227Z</time></trkpt><trkpt lat="45.7502683" lon="9.286075"><ele>289.0</ele><time>2026-04-25T14:32:51.229Z</time></trkpt><trkpt lat="45.7501717" lon="9.2859233"><ele>289.0</ele><time>2026-04-25T14:32:52.227Z</time></trkpt><trkpt lat="45.750075" lon="9.28577"><ele>289.0</ele><time>2026-04-25T14:32:53.227Z</time></trkpt><trkpt lat="45.749975" lon="9.2856133"><ele>287.3333333333333</ele><time>2026-04-25T14:32:54.228Z</time></trkpt><trkpt lat="45.7498767" lon="9.2854567"><ele>285.6666666666667</ele><time>2026-04-25T14:32:55.227Z</time></trkpt><trkpt lat="45.749775" lon="9.2852933"><ele>284.0</ele><time>2026-04-25T14:32:56.228Z</time></trkpt><trkpt lat="45.7496767" lon="9.285125"><ele>284.0</ele><time>2026-04-25T14:32:57.228Z</time></trkpt><trkpt lat="45.749585" lon="9.284945"><ele>284.0</ele><time>2026-04-25T14:32:58.229Z</time></trkpt><trkpt lat="45.7495" lon="9.28476"><ele>284.0</ele><time>2026-04-25T14:32:59.229Z</time></trkpt><trkpt lat="45.7494233" lon="9.2845733"><ele>283.5</ele><time>2026-04-25T14:33:00.228Z</time></trkpt><trkpt lat="45.7493533" lon="9.284385"><ele>283.0</ele><time>2026-04-25T14:33:01.229Z</time></trkpt><trkpt lat="45.7492917" lon="9.2841967"><ele>282.5</ele><time>2026-04-25T14:33:02.231Z</time></trkpt><trkpt lat="45.74924" lon="9.2840117"><ele>282.0</ele><time>2026-04-25T14:33:03.228Z</time></trkpt><trkpt lat="45.7491917" lon="9.2838217"><ele>282.0</ele><time>2026-04-25T14:33:04.227Z</time></trkpt><trkpt lat="45.7491467" lon="9.2836317"><ele>282.0</ele><time>2026-04-25T14:33:05.229Z</time></trkpt><trkpt lat="45.7491033" lon="9.2834383"><ele>282.0</ele><time>2026-04-25T14:33:06.228Z</time></trkpt><trkpt lat="45.7490633" lon="9.283245"><ele>282.0</ele><time>2026-04-25T14:33:07.228Z</time></trkpt><trkpt lat="45.7490233" lon="9.2830467"><ele>281.75</ele><time>2026-04-25T14:33:08.227Z</time></trkpt><trkpt lat="45.7489833" lon="9.2828467"><ele>281.5</ele><time>2026-04-25T14:33:09.229Z</time></trkpt><trkpt lat="45.7489433" lon="9.2826433"><ele>281.25</ele><time>2026-04-25T14:33:10.227Z</time></trkpt><trkpt lat="45.7489033" lon="9.2824417"><ele>281.0</ele><time>2026-04-25T14:33:11.229Z</time></trkpt><trkpt lat="45.748865" lon="9.2822383"><ele>281.0</ele><time>2026-04-25T14:33:12.228Z</time></trkpt><trkpt lat="45.7488233" lon="9.2820417"><ele>281.0</ele><time>2026-04-25T14:33:13.229Z</time></trkpt><trkpt lat="45.7487867" lon="9.2818467"><ele>281.0</ele><time>2026-04-25T14:33:14.229Z</time></trkpt><trkpt lat="45.7487533" lon="9.281645"><ele>281.0</ele><time>2026-04-25T14:33:15.228Z</time></trkpt><trkpt lat="45.7487167" lon="9.2814467"><ele>280.75</ele><time>2026-04-25T14:33:16.229Z</time></trkpt><trkpt lat="45.7486783" lon="9.2812567"><ele>280.5</ele><time>2026-04-25T14:33:17.228Z</time></trkpt><trkpt lat="45.7486433" lon="9.2810717"><ele>280.25</ele><time>2026-04-25T14:33:18.229Z</time></trkpt><trkpt lat="45.7486067" lon="9.2808883"><ele>280.0</ele><time>2026-04-25T14:33:19.227Z</time></trkpt><trkpt lat="45.74857" lon="9.280705"><ele>280.5</ele><time>2026-04-25T14:33:20.229Z</time></trkpt><trkpt lat="45.748535" lon="9.2805117"><ele>281.0</ele><time>2026-04-25T14:33:21.229Z</time></trkpt><trkpt lat="45.7485033" lon="9.2803167"><ele>281.5</ele><time>2026-04-25T14:33:22.227Z</time></trkpt><trkpt lat="45.7484733" lon="9.2801117"><ele>282.0</ele><time>2026-04-25T14:33:23.23Z</time></trkpt><trkpt lat="45.748435" lon="9.2798983"><ele>281.6666666666667</ele><time>2026-04-25T14:33:24.228Z</time></trkpt><trkpt lat="45.7483933" lon="9.279685"><ele>281.33333333333337</ele><time>2026-04-25T14:33:25.23Z</time></trkpt><trkpt lat="45.74835" lon="9.2794633"><ele>281.0</ele><time>2026-04-25T14:33:26.229Z</time></trkpt><trkpt lat="45.7483067" lon="9.279235"><ele>281.0</ele><time>2026-04-25T14:33:27.23Z</time></trkpt><trkpt lat="45.748265" lon="9.2790067"><ele>281.0</ele><time>2026-04-25T14:33:28.228Z</time></trkpt><trkpt lat="45.748225" lon="9.2787833"><ele>281.0</ele><time>2026-04-25T14:33:29.229Z</time></trkpt><trkpt lat="45.748185" lon="9.2785583"><ele>280.33333333333337</ele><time>2026-04-25T14:33:30.23Z</time></trkpt><trkpt lat="45.7481483" lon="9.2783367"><ele>279.6666666666667</ele><time>2026-04-25T14:33:31.227Z</time></trkpt><trkpt lat="45.7481117" lon="9.27812"><ele>279.0</ele><time>2026-04-25T14:33:32.228Z</time></trkpt><trkpt lat="45.7480783" lon="9.2779067"><ele>279.0</ele><time>2026-04-25T14:33:33.227Z</time></trkpt><trkpt lat="45.7480533" lon="9.2777033"><ele>279.0</ele><time>2026-04-25T14:33:34.228Z</time></trkpt><trkpt lat="45.7480317" lon="9.2775117"><ele>279.0</ele><time>2026-04-25T14:33:35.227Z</time></trkpt><trkpt lat="45.74801" lon="9.2773167"><ele>279.0</ele><time>2026-04-25T14:33:36.228Z</time></trkpt><trkpt lat="45.74799" lon="9.2771167"><ele>278.5</ele><time>2026-04-25T14:33:37.228Z</time></trkpt><trkpt lat="45.747975" lon="9.276915"><ele>278.0</ele><time>2026-04-25T14:33:38.227Z</time></trkpt><trkpt lat="45.7479617" lon="9.2767117"><ele>277.5</ele><time>2026-04-25T14:33:39.228Z</time></trkpt><trkpt lat="45.7479583" lon="9.2765083"><ele>277.0</ele><time>2026-04-25T14:33:40.229Z</time></trkpt><trkpt lat="45.747965" lon="9.2763033"><ele>277.0</ele><time>2026-04-25T14:33:41.228Z</time></trkpt><trkpt lat="45.7479767" lon="9.2760917"><ele>277.0</ele><time>2026-04-25T14:33:42.227Z</time></trkpt><trkpt lat="45.74799" lon="9.27588"><ele>277.0</ele><time>2026-04-25T14:33:43.227Z</time></trkpt><trkpt lat="45.7480067" lon="9.2756717"><ele>277.0</ele><time>2026-04-25T14:33:44.229Z</time></trkpt><trkpt lat="45.7480233" lon="9.275465"><ele>277.0</ele><time>2026-04-25T14:33:45.227Z</time></trkpt><trkpt lat="45.7480417" lon="9.2752633"><ele>277.0</ele><time>2026-04-25T14:33:46.228Z</time></trkpt><trkpt lat="45.7480617" lon="9.2750717"><ele>277.0</ele><time>2026-04-25T14:33:47.228Z</time></trkpt><trkpt lat="45.7480817" lon="9.2748717"><ele>277.0</ele><time>2026-04-25T14:33:48.229Z</time></trkpt><trkpt lat="45.7481017" lon="9.2746717"><ele>277.25</ele><time>2026-04-25T14:33:49.228Z</time></trkpt><trkpt lat="45.74812" lon="9.2744683"><ele>277.5</ele><time>2026-04-25T14:33:50.228Z</time></trkpt><trkpt lat="45.7481383" lon="9.2742667"><ele>277.75</ele><time>2026-04-25T14:33:51.229Z</time></trkpt><trkpt lat="45.7481567" lon="9.2740667"><ele>278.0</ele><time>2026-04-25T14:33:52.229Z</time></trkpt><trkpt lat="45.748175" lon="9.27387"><ele>278.5</ele><time>2026-04-25T14:33:53.229Z</time></trkpt><trkpt lat="45.7481933" lon="9.2736733"><ele>279.0</ele><time>2026-04-25T14:33:54.228Z</time></trkpt><trkpt lat="45.7482083" lon="9.2734883"><ele>279.5</ele><time>2026-04-25T14:33:55.229Z</time></trkpt><trkpt lat="45.7482233" lon="9.2733283"><ele>280.0</ele><time>2026-04-25T14:33:56.229Z</time></trkpt><trkpt lat="45.7482367" lon="9.273195"><ele>279.8</ele><time>2026-04-25T14:33:57.229Z</time></trkpt><trkpt lat="45.7482483" lon="9.2730883"><ele>279.6</ele><time>2026-04-25T14:33:58.227Z</time></trkpt><trkpt lat="45.7482733" lon="9.2729217"><ele>279.4</ele><time>2026-04-25T14:34:00.228Z</time></trkpt><trkpt lat="45.7483167" lon="9.2727583"><ele>279.2</ele><time>2026-04-25T14:34:02.228Z</time></trkpt><trkpt lat="45.7483367" lon="9.2726433"><ele>279.0</ele><time>2026-04-25T14:34:03.228Z</time></trkpt><trkpt lat="45.7483417" lon="9.2725117"><ele>279.0</ele><time>2026-04-25T14:34:04.231Z</time></trkpt><trkpt lat="45.74834" lon="9.2723633"><ele>279.0</ele><time>2026-04-25T14:34:05.228Z</time></trkpt><trkpt lat="45.7483467" lon="9.2722017"><ele>279.0</ele><time>2026-04-25T14:34:06.227Z</time></trkpt><trkpt lat="45.748365" lon="9.2720317"><ele>279.0</ele><time>2026-04-25T14:34:07.23Z</time></trkpt><trkpt lat="45.7483917" lon="9.2718567"><ele>279.25</ele><time>2026-04-25T14:34:08.227Z</time></trkpt><trkpt lat="45.7484267" lon="9.271675"><ele>279.5</ele><time>2026-04-25T14:34:09.229Z</time></trkpt><trkpt lat="45.7484667" lon="9.271495"><ele>279.75</ele><time>2026-04-25T14:34:10.229Z</time></trkpt><trkpt lat="45.748505" lon="9.2713233"><ele>280.0</ele><time>2026-04-25T14:34:11.231Z</time></trkpt><trkpt lat="45.7485417" lon="9.2711567"><ele>280.5</ele><time>2026-04-25T14:34:12.228Z</time></trkpt><trkpt lat="45.7485783" lon="9.2709917"><ele>281.0</ele><time>2026-04-25T14:34:13.23Z</time></trkpt><trkpt lat="45.7486167" lon="9.270825"><ele>281.5</ele><time>2026-04-25T14:34:14.227Z</time></trkpt><trkpt lat="45.748655" lon="9.2706517"><ele>282.0</ele><time>2026-04-25T14:34:15.227Z</time></trkpt><trkpt lat="45.7486933" lon="9.2704683"><ele>281.0</ele><time>2026-04-25T14:34:16.227Z</time></trkpt><trkpt lat="45.7487333" lon="9.2702817"><ele>280.0</ele><time>2026-04-25T14:34:17.228Z</time></trkpt><trkpt lat="45.7487767" lon="9.2700917"><ele>279.0</ele><time>2026-04-25T14:34:18.23Z</time></trkpt><trkpt lat="45.7488233" lon="9.2698983"><ele>278.0</ele><time>2026-04-25T14:34:19.23Z</time></trkpt><trkpt lat="45.7488733" lon="9.26969"><ele>277.0</ele><time>2026-04-25T14:34:20.228Z</time></trkpt><trkpt lat="45.7489217" lon="9.2694767"><ele>276.0</ele><time>2026-04-25T14:34:21.227Z</time></trkpt><trkpt lat="45.74897" lon="9.269255"><ele>275.0</ele><time>2026-04-25T14:34:22.229Z</time></trkpt><trkpt lat="45.7490167" lon="9.2690317"><ele>274.33333333333337</ele><time>2026-04-25T14:34:23.227Z</time></trkpt><trkpt lat="45.749065" lon="9.2688067"><ele>273.6666666666667</ele><time>2026-04-25T14:34:24.227Z</time></trkpt><trkpt lat="45.749115" lon="9.26859"><ele>273.0</ele><time>2026-04-25T14:34:25.229Z</time></trkpt><trkpt lat="45.74916" lon="9.2683767"><ele>273.0</ele><time>2026-04-25T14:34:26.227Z</time></trkpt><trkpt lat="45.7492067" lon="9.2681683"><ele>273.0</ele><time>2026-04-25T14:34:27.227Z</time></trkpt><trkpt lat="45.749255" lon="9.267955"><ele>273.0</ele><time>2026-04-25T14:34:28.228Z</time></trkpt><trkpt lat="45.7493033" lon="9.26774"><ele>272.75</ele><time>2026-04-25T14:34:29.228Z</time></trkpt><trkpt lat="45.74935" lon="9.2675317"><ele>272.5</ele><time>2026-04-25T14:34:30.227Z</time></trkpt><trkpt lat="45.7493967" lon="9.2673283"><ele>272.25</ele><time>2026-04-25T14:34:31.229Z</time></trkpt><trkpt lat="45.74944" lon="9.267135"><ele>272.0</ele><time>2026-04-25T14:34:32.228Z</time></trkpt><trkpt lat="45.7494833" lon="9.266945"><ele>272.0</ele><time>2026-04-25T14:34:33.229Z</time></trkpt><trkpt lat="45.7495217" lon="9.26677"><ele>272.0</ele><time>2026-04-25T14:34:34.227Z</time></trkpt><trkpt lat="45.749555" lon="9.2666217"><ele>272.0</ele><time>2026-04-25T14:34:35.228Z</time></trkpt><trkpt lat="45.7495833" lon="9.2665017"><ele>272.0</ele><time>2026-04-25T14:34:36.227Z</time></trkpt><trkpt lat="45.7496033" lon="9.2664067"><ele>272.0</ele><time>2026-04-25T14:34:37.228Z</time></trkpt><trkpt lat="45.74963" lon="9.2662717"><ele>271.1666666666667</ele><time>2026-04-25T14:34:39.228Z</time></trkpt><trkpt lat="45.749655" lon="9.2661417"><ele>270.33333333333337</ele><time>2026-04-25T14:34:41.227Z</time></trkpt><trkpt lat="45.7496633" lon="9.26605"><ele>269.5</ele><time>2026-04-25T14:34:42.229Z</time></trkpt><trkpt lat="45.749655" lon="9.2659433"><ele>268.6666666666667</ele><time>2026-04-25T14:34:43.229Z</time></trkpt><trkpt lat="45.749645" lon="9.2658133"><ele>267.8333333333333</ele><time>2026-04-25T14:34:44.228Z</time></trkpt><trkpt lat="45.7496283" lon="9.265665"><ele>267.0</ele><time>2026-04-25T14:34:45.228Z</time></trkpt><trkpt lat="45.7496033" lon="9.2655167"><ele>266.2</ele><time>2026-04-25T14:34:46.229Z</time></trkpt><trkpt lat="45.7495733" lon="9.265375"><ele>265.4</ele><time>2026-04-25T14:34:47.229Z</time></trkpt><trkpt lat="45.7495417" lon="9.2652383"><ele>264.6</ele><time>2026-04-25T14:34:48.229Z</time></trkpt><trkpt lat="45.7495117" lon="9.265105"><ele>263.8</ele><time>2026-04-25T14:34:49.229Z</time></trkpt><trkpt lat="45.7494917" lon="9.2649767"><ele>263.0</ele><time>2026-04-25T14:34:50.228Z</time></trkpt><trkpt lat="45.74949" lon="9.26486"><ele>263.1666666666667</ele><time>2026-04-25T14:34:51.229Z</time></trkpt><trkpt lat="45.749485" lon="9.2647433"><ele>263.33333333333337</ele><time>2026-04-25T14:34:52.228Z</time></trkpt><trkpt lat="45.7494617" lon="9.2646367"><ele>263.5</ele><time>2026-04-25T14:34:53.228Z</time></trkpt><trkpt lat="45.74942" lon="9.2645417"><ele>263.6666666666667</ele><time>2026-04-25T14:34:54.228Z</time></trkpt><trkpt lat="45.7493617" lon="9.2644383"><ele>263.8333333333333</ele><time>2026-04-25T14:34:55.228Z</time></trkpt><trkpt lat="45.7493" lon="9.2643217"><ele>264.0</ele><time>2026-04-25T14:34:56.23Z</time></trkpt><trkpt lat="45.7492483" lon="9.2641883"><ele>263.4</ele><time>2026-04-25T14:34:57.228Z</time></trkpt><trkpt lat="45.7492017" lon="9.2640433"><ele>262.79999999999995</ele><time>2026-04-25T14:34:58.228Z</time></trkpt><trkpt lat="45.74916" lon="9.2638933"><ele>262.20000000000005</ele><time>2026-04-25T14:34:59.229Z</time></trkpt><trkpt lat="45.74912" lon="9.2637383"><ele>261.6</ele><time>2026-04-25T14:35:00.228Z</time></trkpt><trkpt lat="45.7490833" lon="9.2636017"><ele>261.0</ele><time>2026-04-25T14:35:01.227Z</time></trkpt><trkpt lat="45.7490317" lon="9.2634467"><ele>261.0</ele><time>2026-04-25T14:35:02.227Z</time></trkpt><trkpt lat="45.7489733" lon="9.2632917"><ele>261.0</ele><time>2026-04-25T14:35:03.228Z</time></trkpt><trkpt lat="45.7489133" lon="9.2631017"><ele>261.0</ele><time>2026-04-25T14:35:04.231Z</time></trkpt><trkpt lat="45.748865" lon="9.262935"><ele>261.0</ele><time>2026-04-25T14:35:05.227Z</time></trkpt><trkpt lat="45.7488117" lon="9.2628"><ele>261.5</ele><time>2026-04-25T14:35:06.228Z</time></trkpt><trkpt lat="45.7487583" lon="9.2626783"><ele>262.0</ele><time>2026-04-25T14:35:07.228Z</time></trkpt><trkpt lat="45.74871" lon="9.262565"><ele>262.5</ele><time>2026-04-25T14:35:08.23Z</time></trkpt><trkpt lat="45.7486733" lon="9.2624633"><ele>263.0</ele><time>2026-04-25T14:35:09.228Z</time></trkpt><trkpt lat="45.7486533" lon="9.262355"><ele>263.5</ele><time>2026-04-25T14:35:10.227Z</time></trkpt><trkpt lat="45.7486533" lon="9.2622433"><ele>264.0</ele><time>2026-04-25T14:35:11.228Z</time></trkpt><trkpt lat="45.74865" lon="9.262135"><ele>264.0</ele><time>2026-04-25T14:35:12.228Z</time></trkpt><trkpt lat="45.7486333" lon="9.2620433"><ele>264.0</ele><time>2026-04-25T14:35:13.228Z</time></trkpt><trkpt lat="45.7485533" lon="9.2619467"><ele>264.0</ele><time>2026-04-25T14:35:15.229Z</time></trkpt><trkpt lat="45.7484433" lon="9.2619783"><ele>264.0</ele><time>2026-04-25T14:35:17.23Z</time></trkpt><trkpt lat="45.74838" lon="9.262005"><ele>264.0</ele><time>2026-04-25T14:35:18.229Z</time></trkpt><trkpt lat="45.7483117" lon="9.262015"><ele>264.0</ele><time>2026-04-25T14:35:19.229Z</time></trkpt><trkpt lat="45.7482317" lon="9.262005"><ele>262.25</ele><time>2026-04-25T14:35:20.228Z</time></trkpt><trkpt lat="45.7481433" lon="9.2619583"><ele>260.5</ele><time>2026-04-25T14:35:21.229Z</time></trkpt><trkpt lat="45.7480267" lon="9.2618683"><ele>258.75</ele><time>2026-04-25T14:35:22.231Z</time></trkpt><trkpt lat="45.7478833" lon="9.26173"><ele>257.0</ele><time>2026-04-25T14:35:23.228Z</time></trkpt><trkpt lat="45.7477367" lon="9.2615933"><ele>257.33333333333337</ele><time>2026-04-25T14:35:24.228Z</time></trkpt><trkpt lat="45.747585" lon="9.2614417"><ele>257.6666666666667</ele><time>2026-04-25T14:35:25.229Z</time></trkpt><trkpt lat="45.7474233" lon="9.26129"><ele>258.0</ele><time>2026-04-25T14:35:26.228Z</time></trkpt><trkpt lat="45.74726" lon="9.2611433"><ele>258.0</ele><time>2026-04-25T14:35:27.228Z</time></trkpt><trkpt lat="45.74711" lon="9.2610117"><ele>258.0</ele><time>2026-04-25T14:35:28.227Z</time></trkpt><trkpt lat="45.746965" lon="9.2608867"><ele>258.0</ele><time>2026-04-25T14:35:29.228Z</time></trkpt><trkpt lat="45.7468217" lon="9.2607633"><ele>258.0</ele><time>2026-04-25T14:35:30.228Z</time></trkpt><trkpt lat="45.7466867" lon="9.2606433"><ele>258.0</ele><time>2026-04-25T14:35:31.228Z</time></trkpt><trkpt lat="45.74656" lon="9.2605317"><ele>258.0</ele><time>2026-04-25T14:35:32.228Z</time></trkpt><trkpt lat="45.7464467" lon="9.2604267"><ele>258.0</ele><time>2026-04-25T14:35:33.229Z</time></trkpt><trkpt lat="45.7463367" lon="9.2603183"><ele>257.5</ele><time>2026-04-25T14:35:34.227Z</time></trkpt><trkpt lat="45.7462283" lon="9.2602033"><ele>257.0</ele><time>2026-04-25T14:35:35.227Z</time></trkpt><trkpt lat="45.7461167" lon="9.260085"><ele>256.5</ele><time>2026-04-25T14:35:36.228Z</time></trkpt><trkpt lat="45.746015" lon="9.25998"><ele>256.0</ele><time>2026-04-25T14:35:37.229Z</time></trkpt><trkpt lat="45.74592" lon="9.2598833"><ele>255.99999999999997</ele><time>2026-04-25T14:35:38.228Z</time></trkpt><trkpt lat="45.7458333" lon="9.2597933"><ele>256.0</ele><time>2026-04-25T14:35:39.229Z</time></trkpt><trkpt lat="45.7457617" lon="9.259715"><ele>256.0</ele><time>2026-04-25T14:35:40.227Z</time></trkpt><trkpt lat="45.7456967" lon="9.2596433"><ele>256.0</ele><time>2026-04-25T14:35:41.228Z</time></trkpt><trkpt lat="45.7456383" lon="9.2595783"><ele>255.99999999999997</ele><time>2026-04-25T14:35:42.229Z</time></trkpt><trkpt lat="45.745585" lon="9.2595167"><ele>256.0</ele><time>2026-04-25T14:35:43.228Z</time></trkpt><trkpt lat="45.7455333" lon="9.2594617"><ele>255.99999999999997</ele><time>2026-04-25T14:35:44.229Z</time></trkpt><trkpt lat="45.7454783" lon="9.2594033"><ele>256.0</ele><time>2026-04-25T14:35:45.229Z</time></trkpt><trkpt lat="45.7454117" lon="9.2593317"><ele>256.0</ele><time>2026-04-25T14:35:46.23Z</time></trkpt><trkpt lat="45.7453383" lon="9.259255"><ele>256.0</ele><time>2026-04-25T14:35:47.23Z</time></trkpt><trkpt lat="45.745265" lon="9.2591783"><ele>255.99999999999997</ele><time>2026-04-25T14:35:48.229Z</time></trkpt><trkpt lat="45.7451933" lon="9.2591033"><ele>256.0</ele><time>2026-04-25T14:35:49.231Z</time></trkpt><trkpt lat="45.74512" lon="9.25903"><ele>256.5</ele><time>2026-04-25T14:35:50.229Z</time></trkpt><trkpt lat="45.74504" lon="9.2589467"><ele>257.0</ele><time>2026-04-25T14:35:51.23Z</time></trkpt><trkpt lat="45.7449483" lon="9.2588517"><ele>257.5</ele><time>2026-04-25T14:35:52.229Z</time></trkpt><trkpt lat="45.744855" lon="9.258745"><ele>258.0</ele><time>2026-04-25T14:35:53.228Z</time></trkpt><trkpt lat="45.7447483" lon="9.2586283"><ele>258.0</ele><time>2026-04-25T14:35:54.23Z</time></trkpt><trkpt lat="45.744635" lon="9.258505"><ele>258.0</ele><time>2026-04-25T14:35:55.23Z</time></trkpt><trkpt lat="45.744515" lon="9.2583767"><ele>258.0</ele><time>2026-04-25T14:35:56.23Z</time></trkpt><trkpt lat="45.7443883" lon="9.258235"><ele>257.6666666666667</ele><time>2026-04-25T14:35:57.229Z</time></trkpt><trkpt lat="45.744255" lon="9.25808"><ele>257.33333333333337</ele><time>2026-04-25T14:35:58.229Z</time></trkpt><trkpt lat="45.744115" lon="9.2579183"><ele>257.0</ele><time>2026-04-25T14:35:59.229Z</time></trkpt><trkpt lat="45.74397" lon="9.2577533"><ele>257.0</ele><time>2026-04-25T14:36:00.229Z</time></trkpt><trkpt lat="45.74381" lon="9.2575833"><ele>257.0</ele><time>2026-04-25T14:36:01.23Z</time></trkpt><trkpt lat="45.7436467" lon="9.25741"><ele>257.0</ele><time>2026-04-25T14:36:02.228Z</time></trkpt><trkpt lat="45.7434883" lon="9.2572367"><ele>256.6666666666667</ele><time>2026-04-25T14:36:03.23Z</time></trkpt><trkpt lat="45.7433333" lon="9.2570683"><ele>256.3333333333333</ele><time>2026-04-25T14:36:04.229Z</time></trkpt><trkpt lat="45.7431817" lon="9.2569"><ele>256.0</ele><time>2026-04-25T14:36:05.228Z</time></trkpt><trkpt lat="45.7430283" lon="9.2567283"><ele>256.0</ele><time>2026-04-25T14:36:06.227Z</time></trkpt><trkpt lat="45.7428767" lon="9.2565583"><ele>256.0</ele><time>2026-04-25T14:36:07.228Z</time></trkpt><trkpt lat="45.7427283" lon="9.2563933"><ele>256.0</ele><time>2026-04-25T14:36:08.231Z</time></trkpt><trkpt lat="45.7425817" lon="9.2562317"><ele>255.33333333333331</ele><time>2026-04-25T14:36:09.228Z</time></trkpt><trkpt lat="45.7424383" lon="9.2560733"><ele>254.66666666666669</ele><time>2026-04-25T14:36:10.228Z</time></trkpt><trkpt lat="45.7422933" lon="9.2559117"><ele>254.0</ele><time>2026-04-25T14:36:11.228Z</time></trkpt><trkpt lat="45.742145" lon="9.2557417"><ele>253.66666666666669</ele><time>2026-04-25T14:36:12.229Z</time></trkpt><trkpt lat="45.7419917" lon="9.2555617"><ele>253.33333333333331</ele><time>2026-04-25T14:36:13.228Z</time></trkpt><trkpt lat="45.7418317" lon="9.255375"><ele>253.0</ele><time>2026-04-25T14:36:14.228Z</time></trkpt><trkpt lat="45.7416667" lon="9.25518"><ele>253.33333333333331</ele><time>2026-04-25T14:36:15.23Z</time></trkpt><trkpt lat="45.741495" lon="9.2549817"><ele>253.66666666666669</ele><time>2026-04-25T14:36:16.229Z</time></trkpt><trkpt lat="45.7413217" lon="9.254785"><ele>254.0</ele><time>2026-04-25T14:36:17.23Z</time></trkpt><trkpt lat="45.74115" lon="9.2545883"><ele>255.0</ele><time>2026-04-25T14:36:18.229Z</time></trkpt><trkpt lat="45.7409783" lon="9.254395"><ele>256.0</ele><time>2026-04-25T14:36:19.23Z</time></trkpt><trkpt lat="45.7408083" lon="9.254205"><ele>257.0</ele><time>2026-04-25T14:36:20.229Z</time></trkpt><trkpt lat="45.7406433" lon="9.2540217"><ele>257.0</ele><time>2026-04-25T14:36:21.229Z</time></trkpt><trkpt lat="45.740485" lon="9.25385"><ele>257.0</ele><time>2026-04-25T14:36:22.23Z</time></trkpt><trkpt lat="45.74033" lon="9.2536783"><ele>257.0</ele><time>2026-04-25T14:36:23.228Z</time></trkpt><trkpt lat="45.7401733" lon="9.2535067"><ele>257.0</ele><time>2026-04-25T14:36:24.229Z</time></trkpt><trkpt lat="45.7400133" lon="9.253325"><ele>257.0</ele><time>2026-04-25T14:36:25.229Z</time></trkpt><trkpt lat="45.73985" lon="9.2531383"><ele>257.0</ele><time>2026-04-25T14:36:26.229Z</time></trkpt><trkpt lat="45.73968" lon="9.2529467"><ele>256.6666666666667</ele><time>2026-04-25T14:36:27.228Z</time></trkpt><trkpt lat="45.739505" lon="9.2527533"><ele>256.3333333333333</ele><time>2026-04-25T14:36:28.228Z</time></trkpt><trkpt lat="45.7393233" lon="9.2525567"><ele>256.0</ele><time>2026-04-25T14:36:29.229Z</time></trkpt><trkpt lat="45.7391467" lon="9.2523567"><ele>254.33333333333331</ele><time>2026-04-25T14:36:30.229Z</time></trkpt><trkpt lat="45.7389733" lon="9.25216"><ele>252.66666666666669</ele><time>2026-04-25T14:36:31.229Z</time></trkpt><trkpt lat="45.7388033" lon="9.2519683"><ele>251.0</ele><time>2026-04-25T14:36:32.229Z</time></trkpt><trkpt lat="45.7386367" lon="9.2517783"><ele>250.33333333333334</ele><time>2026-04-25T14:36:33.228Z</time></trkpt><trkpt lat="45.7384683" lon="9.2515917"><ele>249.66666666666669</ele><time>2026-04-25T14:36:34.228Z</time></trkpt><trkpt lat="45.7383067" lon="9.25141"><ele>249.0</ele><time>2026-04-25T14:36:35.227Z</time></trkpt><trkpt lat="45.73815" lon="9.251235"><ele>248.33333333333331</ele><time>2026-04-25T14:36:36.227Z</time></trkpt><trkpt lat="45.7380017" lon="9.25107"><ele>247.66666666666666</ele><time>2026-04-25T14:36:37.227Z</time></trkpt><trkpt lat="45.737855" lon="9.2509083"><ele>247.0</ele><time>2026-04-25T14:36:38.228Z</time></trkpt><trkpt lat="45.7377133" lon="9.25075"><ele>245.66666666666666</ele><time>2026-04-25T14:36:39.228Z</time></trkpt><trkpt lat="45.7375717" lon="9.2505933"><ele>244.33333333333331</ele><time>2026-04-25T14:36:40.229Z</time></trkpt><trkpt lat="45.73743" lon="9.2504383"><ele>243.0</ele><time>2026-04-25T14:36:41.228Z</time></trkpt><trkpt lat="45.7372833" lon="9.2502933"><ele>243.0</ele><time>2026-04-25T14:36:42.229Z</time></trkpt><trkpt lat="45.737135" lon="9.250155"><ele>243.0</ele><time>2026-04-25T14:36:43.238Z</time></trkpt><trkpt lat="45.7369817" lon="9.2500283"><ele>243.0</ele><time>2026-04-25T14:36:44.228Z</time></trkpt><trkpt lat="45.7368267" lon="9.2499167"><ele>243.0</ele><time>2026-04-25T14:36:45.229Z</time></trkpt><trkpt lat="45.7366733" lon="9.24982"><ele>243.0</ele><time>2026-04-25T14:36:46.228Z</time></trkpt><trkpt lat="45.736525" lon="9.2497367"><ele>243.0</ele><time>2026-04-25T14:36:47.23Z</time></trkpt><trkpt lat="45.7363767" lon="9.249665"><ele>242.66666666666669</ele><time>2026-04-25T14:36:48.228Z</time></trkpt><trkpt lat="45.7362183" lon="9.2496033"><ele>242.33333333333334</ele><time>2026-04-25T14:36:49.229Z</time></trkpt><trkpt lat="45.7360433" lon="9.24955"><ele>242.0</ele><time>2026-04-25T14:36:50.229Z</time></trkpt><trkpt lat="45.7358567" lon="9.249505"><ele>241.66666666666669</ele><time>2026-04-25T14:36:51.231Z</time></trkpt><trkpt lat="45.735655" lon="9.24947"><ele>241.33333333333331</ele><time>2026-04-25T14:36:52.229Z</time></trkpt><trkpt lat="45.7354533" lon="9.2494433"><ele>241.0</ele><time>2026-04-25T14:36:53.23Z</time></trkpt><trkpt lat="45.73526" lon="9.2494183"><ele>241.33333333333331</ele><time>2026-04-25T14:36:54.23Z</time></trkpt><trkpt lat="45.7350733" lon="9.2493917"><ele>241.66666666666669</ele><time>2026-04-25T14:36:55.229Z</time></trkpt><trkpt lat="45.7348867" lon="9.249365"><ele>242.0</ele><time>2026-04-25T14:36:56.229Z</time></trkpt><trkpt lat="45.7346933" lon="9.2493367"><ele>242.0</ele><time>2026-04-25T14:36:57.231Z</time></trkpt><trkpt lat="45.7344967" lon="9.24931"><ele>242.0</ele><time>2026-04-25T14:36:58.229Z</time></trkpt><trkpt lat="45.7342983" lon="9.2492817"><ele>242.0</ele><time>2026-04-25T14:36:59.23Z</time></trkpt><trkpt lat="45.7340967" lon="9.249255"><ele>242.33333333333334</ele><time>2026-04-25T14:37:00.23Z</time></trkpt><trkpt lat="45.7338933" lon="9.2492283"><ele>242.66666666666669</ele><time>2026-04-25T14:37:01.229Z</time></trkpt><trkpt lat="45.7336933" lon="9.2491983"><ele>243.0</ele><time>2026-04-25T14:37:02.23Z</time></trkpt><trkpt lat="45.7334983" lon="9.24917"><ele>243.0</ele><time>2026-04-25T14:37:03.23Z</time></trkpt><trkpt lat="45.7333083" lon="9.2491433"><ele>243.0</ele><time>2026-04-25T14:37:04.229Z</time></trkpt><trkpt lat="45.73312" lon="9.2491167"><ele>243.0</ele><time>2026-04-25T14:37:05.227Z</time></trkpt><trkpt lat="45.73293" lon="9.2490917"><ele>243.0</ele><time>2026-04-25T14:37:06.228Z</time></trkpt><trkpt lat="45.7327383" lon="9.2490633"><ele>243.0</ele><time>2026-04-25T14:37:07.228Z</time></trkpt><trkpt lat="45.7325433" lon="9.249035"><ele>243.0</ele><time>2026-04-25T14:37:08.228Z</time></trkpt><trkpt lat="45.7323483" lon="9.249005"><ele>243.0</ele><time>2026-04-25T14:37:09.231Z</time></trkpt><trkpt lat="45.732155" lon="9.24898"><ele>243.0</ele><time>2026-04-25T14:37:10.229Z</time></trkpt><trkpt lat="45.7319533" lon="9.2489517"><ele>243.0</ele><time>2026-04-25T14:37:11.229Z</time></trkpt><trkpt lat="45.7317483" lon="9.2489217"><ele>243.0</ele><time>2026-04-25T14:37:12.228Z</time></trkpt><trkpt lat="45.7315417" lon="9.2488883"><ele>243.0</ele><time>2026-04-25T14:37:13.229Z</time></trkpt><trkpt lat="45.7313333" lon="9.2488567"><ele>243.0</ele><time>2026-04-25T14:37:14.228Z</time></trkpt><trkpt lat="45.7311217" lon="9.2488267"><ele>244.33333333333331</ele><time>2026-04-25T14:37:15.24Z</time></trkpt><trkpt lat="45.7309117" lon="9.2487967"><ele>245.66666666666666</ele><time>2026-04-25T14:37:16.227Z</time></trkpt><trkpt lat="45.7307017" lon="9.2487667"><ele>247.0</ele><time>2026-04-25T14:37:17.228Z</time></trkpt><trkpt lat="45.730495" lon="9.2487383"><ele>247.0</ele><time>2026-04-25T14:37:18.229Z</time></trkpt><trkpt lat="45.73029" lon="9.2487117"><ele>247.0</ele><time>2026-04-25T14:37:19.23Z</time></trkpt><trkpt lat="45.7300867" lon="9.2486783"><ele>247.0</ele><time>2026-04-25T14:37:20.23Z</time></trkpt><trkpt lat="45.7298833" lon="9.2486317"><ele>249.0</ele><time>2026-04-25T14:37:21.229Z</time></trkpt><trkpt lat="45.7296817" lon="9.24857"><ele>251.0</ele><time>2026-04-25T14:37:22.23Z</time></trkpt><trkpt lat="45.7294817" lon="9.2484917"><ele>253.0</ele><time>2026-04-25T14:37:23.228Z</time></trkpt><trkpt lat="45.7292833" lon="9.2483967"><ele>253.0</ele><time>2026-04-25T14:37:24.229Z</time></trkpt><trkpt lat="45.7290867" lon="9.2482817"><ele>253.0</ele><time>2026-04-25T14:37:25.229Z</time></trkpt><trkpt lat="45.7288933" lon="9.2481483"><ele>253.0</ele><time>2026-04-25T14:37:26.229Z</time></trkpt><trkpt lat="45.7287033" lon="9.248"><ele>254.0</ele><time>2026-04-25T14:37:27.229Z</time></trkpt><trkpt lat="45.7285167" lon="9.2478417"><ele>255.0</ele><time>2026-04-25T14:37:28.229Z</time></trkpt><trkpt lat="45.7283317" lon="9.2476717"><ele>256.0</ele><time>2026-04-25T14:37:29.228Z</time></trkpt><trkpt lat="45.7281467" lon="9.2474917"><ele>256.0</ele><time>2026-04-25T14:37:30.229Z</time></trkpt><trkpt lat="45.727965" lon="9.2473067"><ele>256.0</ele><time>2026-04-25T14:37:31.23Z</time></trkpt><trkpt lat="45.7277817" lon="9.24712"><ele>256.0</ele><time>2026-04-25T14:37:32.228Z</time></trkpt><trkpt lat="45.7275983" lon="9.246935"><ele>258.5</ele><time>2026-04-25T14:37:33.229Z</time></trkpt><trkpt lat="45.7274133" lon="9.2467483"><ele>261.0</ele><time>2026-04-25T14:37:34.228Z</time></trkpt><trkpt lat="45.727225" lon="9.24656"><ele>262.5</ele><time>2026-04-25T14:37:35.229Z</time></trkpt><trkpt lat="45.72704" lon="9.2463633"><ele>264.0</ele><time>2026-04-25T14:37:36.227Z</time></trkpt><trkpt lat="45.7268533" lon="9.246165"><ele>264.0</ele><time>2026-04-25T14:37:37.229Z</time></trkpt><trkpt lat="45.726665" lon="9.2459683"><ele>264.0</ele><time>2026-04-25T14:37:38.23Z</time></trkpt><trkpt lat="45.726485" lon="9.245775"><ele>263.0</ele><time>2026-04-25T14:37:39.228Z</time></trkpt><trkpt lat="45.72631" lon="9.2455967"><ele>262.0</ele><time>2026-04-25T14:37:40.229Z</time></trkpt><trkpt lat="45.726145" lon="9.24543"><ele>261.0</ele><time>2026-04-25T14:37:41.228Z</time></trkpt><trkpt lat="45.7259867" lon="9.24527"><ele>264.0</ele><time>2026-04-25T14:37:42.229Z</time></trkpt><trkpt lat="45.7258317" lon="9.2451183"><ele>267.0</ele><time>2026-04-25T14:37:43.229Z</time></trkpt><trkpt lat="45.7256783" lon="9.2449683"><ele>270.0</ele><time>2026-04-25T14:37:44.228Z</time></trkpt><trkpt lat="45.7255267" lon="9.24482"><ele>270.3333333333333</ele><time>2026-04-25T14:37:45.229Z</time></trkpt><trkpt lat="45.7253733" lon="9.2446717"><ele>270.66666666666663</ele><time>2026-04-25T14:37:46.229Z</time></trkpt><trkpt lat="45.7252167" lon="9.2445183"><ele>271.0</ele><time>2026-04-25T14:37:47.228Z</time></trkpt><trkpt lat="45.7250583" lon="9.24436"><ele>271.0</ele><time>2026-04-25T14:37:48.228Z</time></trkpt><trkpt lat="45.724895" lon="9.2441983"><ele>271.0</ele><time>2026-04-25T14:37:49.228Z</time></trkpt><trkpt lat="45.7247267" lon="9.2440317"><ele>271.0</ele><time>2026-04-25T14:37:50.228Z</time></trkpt><trkpt lat="45.724555" lon="9.2438633"><ele>269.0</ele><time>2026-04-25T14:37:51.228Z</time></trkpt><trkpt lat="45.7243833" lon="9.243695"><ele>267.0</ele><time>2026-04-25T14:37:52.228Z</time></trkpt><trkpt lat="45.724215" lon="9.2435267"><ele>265.0</ele><time>2026-04-25T14:37:53.228Z</time></trkpt><trkpt lat="45.7240567" lon="9.2433617"><ele>265.0</ele><time>2026-04-25T14:37:54.229Z</time></trkpt><trkpt lat="45.72391" lon="9.24319"><ele>265.0</ele><time>2026-04-25T14:37:55.228Z</time></trkpt><trkpt lat="45.7237717" lon="9.243015"><ele>265.0</ele><time>2026-04-25T14:37:56.228Z</time></trkpt><trkpt lat="45.7236367" lon="9.2428267"><ele>263.66666666666663</ele><time>2026-04-25T14:37:57.229Z</time></trkpt><trkpt lat="45.72351" lon="9.2426233"><ele>262.3333333333333</ele><time>2026-04-25T14:37:58.228Z</time></trkpt><trkpt lat="45.7233833" lon="9.24241"><ele>261.0</ele><time>2026-04-25T14:37:59.228Z</time></trkpt><trkpt lat="45.72326" lon="9.2421867"><ele>259.6666666666667</ele><time>2026-04-25T14:38:00.229Z</time></trkpt><trkpt lat="45.72314" lon="9.2419483"><ele>258.33333333333337</ele><time>2026-04-25T14:38:01.229Z</time></trkpt><trkpt lat="45.7230117" lon="9.2417117"><ele>257.0</ele><time>2026-04-25T14:38:02.228Z</time></trkpt><trkpt lat="45.7228817" lon="9.2414667"><ele>256.33333333333337</ele><time>2026-04-25T14:38:03.228Z</time></trkpt><trkpt lat="45.7227517" lon="9.2412217"><ele>255.66666666666669</ele><time>2026-04-25T14:38:04.227Z</time></trkpt><trkpt lat="45.7226217" lon="9.2409783"><ele>255.0</ele><time>2026-04-25T14:38:05.23Z</time></trkpt><trkpt lat="45.7224967" lon="9.2407383"><ele>251.33333333333331</ele><time>2026-04-25T14:38:06.228Z</time></trkpt><trkpt lat="45.7223667" lon="9.2405017"><ele>247.66666666666666</ele><time>2026-04-25T14:38:07.229Z</time></trkpt><trkpt lat="45.7222283" lon="9.2402567"><ele>244.0</ele><time>2026-04-25T14:38:08.231Z</time></trkpt><trkpt lat="45.7220817" lon="9.239995"><ele>243.0</ele><time>2026-04-25T14:38:09.229Z</time></trkpt><trkpt lat="45.7219267" lon="9.239715"><ele>242.0</ele><time>2026-04-25T14:38:10.229Z</time></trkpt><trkpt lat="45.7217717" lon="9.2394233"><ele>242.0</ele><time>2026-04-25T14:38:11.228Z</time></trkpt><trkpt lat="45.7216167" lon="9.2391217"><ele>242.0</ele><time>2026-04-25T14:38:12.228Z</time></trkpt><trkpt lat="45.72146" lon="9.2388217"><ele>241.5</ele><time>2026-04-25T14:38:13.23Z</time></trkpt><trkpt lat="45.7213033" lon="9.2385267"><ele>241.0</ele><time>2026-04-25T14:38:14.23Z</time></trkpt><trkpt lat="45.7211533" lon="9.2382433"><ele>245.0</ele><time>2026-04-25T14:38:15.229Z</time></trkpt><trkpt lat="45.7210133" lon="9.237975"><ele>249.0</ele><time>2026-04-25T14:38:16.229Z</time></trkpt><trkpt lat="45.7208783" lon="9.2377233"><ele>249.0</ele><time>2026-04-25T14:38:17.228Z</time></trkpt><trkpt lat="45.7207483" lon="9.2374817"><ele>249.0</ele><time>2026-04-25T14:38:18.229Z</time></trkpt><trkpt lat="45.7206183" lon="9.2372433"><ele>249.0</ele><time>2026-04-25T14:38:19.23Z</time></trkpt><trkpt lat="45.7204867" lon="9.2370067"><ele>249.66666666666669</ele><time>2026-04-25T14:38:20.229Z</time></trkpt><trkpt lat="45.72035" lon="9.2367683"><ele>250.33333333333334</ele><time>2026-04-25T14:38:21.228Z</time></trkpt><trkpt lat="45.7202133" lon="9.2365233"><ele>251.0</ele><time>2026-04-25T14:38:22.228Z</time></trkpt><trkpt lat="45.7200783" lon="9.2362667"><ele>253.0</ele><time>2026-04-25T14:38:23.228Z</time></trkpt><trkpt lat="45.71994" lon="9.2360067"><ele>255.0</ele><time>2026-04-25T14:38:24.228Z</time></trkpt><trkpt lat="45.7198083" lon="9.2357383"><ele>255.5</ele><time>2026-04-25T14:38:25.229Z</time></trkpt><trkpt lat="45.7196717" lon="9.23547"><ele>256.0</ele><time>2026-04-25T14:38:26.228Z</time></trkpt><trkpt lat="45.7195333" lon="9.235205"><ele>255.0</ele><time>2026-04-25T14:38:27.228Z</time></trkpt><trkpt lat="45.7193967" lon="9.234935"><ele>254.0</ele><time>2026-04-25T14:38:28.23Z</time></trkpt><trkpt lat="45.7192583" lon="9.2346717"><ele>251.33333333333334</ele><time>2026-04-25T14:38:29.23Z</time></trkpt><trkpt lat="45.7191233" lon="9.2344183"><ele>248.66666666666669</ele><time>2026-04-25T14:38:30.23Z</time></trkpt><trkpt lat="45.7189883" lon="9.2341717"><ele>246.0</ele><time>2026-04-25T14:38:31.23Z</time></trkpt><trkpt lat="45.7188583" lon="9.2339283"><ele>244.0</ele><time>2026-04-25T14:38:32.229Z</time></trkpt><trkpt lat="45.718725" lon="9.2336883"><ele>242.0</ele><time>2026-04-25T14:38:33.232Z</time></trkpt><trkpt lat="45.71859" lon="9.2334467"><ele>240.0</ele><time>2026-04-25T14:38:34.229Z</time></trkpt><trkpt lat="45.7184567" lon="9.2332033"><ele>241.66666666666669</ele><time>2026-04-25T14:38:35.229Z</time></trkpt><trkpt lat="45.7183267" lon="9.2329583"><ele>243.33333333333334</ele><time>2026-04-25T14:38:36.227Z</time></trkpt><trkpt lat="45.7181967" lon="9.23271"><ele>245.0</ele><time>2026-04-25T14:38:37.228Z</time></trkpt><trkpt lat="45.7180667" lon="9.232465"><ele>245.66666666666669</ele><time>2026-04-25T14:38:38.228Z</time></trkpt><trkpt lat="45.7179367" lon="9.232215"><ele>246.33333333333331</ele><time>2026-04-25T14:38:39.229Z</time></trkpt><trkpt lat="45.717805" lon="9.2319683"><ele>247.0</ele><time>2026-04-25T14:38:40.228Z</time></trkpt><trkpt lat="45.717675" lon="9.2317183"><ele>249.0</ele><time>2026-04-25T14:38:41.228Z</time></trkpt><trkpt lat="45.71754" lon="9.2314683"><ele>251.0</ele><time>2026-04-25T14:38:42.229Z</time></trkpt><trkpt lat="45.7174067" lon="9.231215"><ele>253.0</ele><time>2026-04-25T14:38:43.23Z</time></trkpt><trkpt lat="45.717275" lon="9.23096"><ele>253.0</ele><time>2026-04-25T14:38:44.229Z</time></trkpt><trkpt lat="45.7171483" lon="9.2307067"><ele>253.0</ele><time>2026-04-25T14:38:45.231Z</time></trkpt><trkpt lat="45.717025" lon="9.23046"><ele>253.0</ele><time>2026-04-25T14:38:46.23Z</time></trkpt><trkpt lat="45.7169067" lon="9.23023"><ele>254.0</ele><time>2026-04-25T14:38:47.23Z</time></trkpt><trkpt lat="45.71679" lon="9.2300067"><ele>255.0</ele><time>2026-04-25T14:38:48.23Z</time></trkpt><trkpt lat="45.7166733" lon="9.229795"><ele>256.0</ele><time>2026-04-25T14:38:49.23Z</time></trkpt><trkpt lat="45.716565" lon="9.2295967"><ele>256.0</ele><time>2026-04-25T14:38:50.228Z</time></trkpt><trkpt lat="45.716465" lon="9.2294083"><ele>256.0</ele><time>2026-04-25T14:38:51.229Z</time></trkpt><trkpt lat="45.7163717" lon="9.2292367"><ele>256.0</ele><time>2026-04-25T14:38:52.228Z</time></trkpt><trkpt lat="45.7162867" lon="9.2290833"><ele>256.8</ele><time>2026-04-25T14:38:53.228Z</time></trkpt><trkpt lat="45.71622" lon="9.2289483"><ele>257.6</ele><time>2026-04-25T14:38:54.229Z</time></trkpt><trkpt lat="45.7161717" lon="9.2288233"><ele>258.4</ele><time>2026-04-25T14:38:55.23Z</time></trkpt><trkpt lat="45.716145" lon="9.2287083"><ele>259.2</ele><time>2026-04-25T14:38:56.229Z</time></trkpt><trkpt lat="45.7161367" lon="9.2285867"><ele>260.0</ele><time>2026-04-25T14:38:57.232Z</time></trkpt><trkpt lat="45.7161417" lon="9.2284617"><ele>260.0</ele><time>2026-04-25T14:38:58.229Z</time></trkpt><trkpt lat="45.71618" lon="9.228325"><ele>260.0</ele><time>2026-04-25T14:38:59.228Z</time></trkpt><trkpt lat="45.7162517" lon="9.2281933"><ele>260.0</ele><time>2026-04-25T14:39:00.23Z</time></trkpt><trkpt lat="45.7163117" lon="9.2280767"><ele>260.0</ele><time>2026-04-25T14:39:01.228Z</time></trkpt><trkpt lat="45.7163667" lon="9.2279583"><ele>260.0</ele><time>2026-04-25T14:39:02.231Z</time></trkpt><trkpt lat="45.7164183" lon="9.2278317"><ele>261.2</ele><time>2026-04-25T14:39:03.228Z</time></trkpt><trkpt lat="45.71648" lon="9.2276983"><ele>262.4</ele><time>2026-04-25T14:39:04.23Z</time></trkpt><trkpt lat="45.716535" lon="9.2275567"><ele>263.6</ele><time>2026-04-25T14:39:05.229Z</time></trkpt><trkpt lat="45.7165883" lon="9.2274167"><ele>264.8</ele><time>2026-04-25T14:39:06.229Z</time></trkpt><trkpt lat="45.71664" lon="9.2272733"><ele>266.0</ele><time>2026-04-25T14:39:07.228Z</time></trkpt><trkpt lat="45.7166867" lon="9.2271383"><ele>267.2</ele><time>2026-04-25T14:39:08.229Z</time></trkpt><trkpt lat="45.7167233" lon="9.2270067"><ele>268.40000000000003</ele><time>2026-04-25T14:39:09.232Z</time></trkpt><trkpt lat="45.716755" lon="9.2268667"><ele>269.6</ele><time>2026-04-25T14:39:10.228Z</time></trkpt><trkpt lat="45.71678" lon="9.2267233"><ele>270.8</ele><time>2026-04-25T14:39:11.229Z</time></trkpt><trkpt lat="45.7168017" lon="9.2265817"><ele>272.0</ele><time>2026-04-25T14:39:12.228Z</time></trkpt><trkpt lat="45.71682" lon="9.226445"><ele>272.6</ele><time>2026-04-25T14:39:13.228Z</time></trkpt><trkpt lat="45.7168333" lon="9.2263083"><ele>273.2</ele><time>2026-04-25T14:39:14.23Z</time></trkpt><trkpt lat="45.71684" lon="9.22617"><ele>273.8</ele><time>2026-04-25T14:39:15.229Z</time></trkpt><trkpt lat="45.7168417" lon="9.226025"><ele>274.4</ele><time>2026-04-25T14:39:16.228Z</time></trkpt><trkpt lat="45.7168367" lon="9.2258667"><ele>275.0</ele><time>2026-04-25T14:39:17.228Z</time></trkpt><trkpt lat="45.71683" lon="9.2257"><ele>276.5</ele><time>2026-04-25T14:39:18.228Z</time></trkpt><trkpt lat="45.7168183" lon="9.2255233"><ele>278.0</ele><time>2026-04-25T14:39:19.229Z</time></trkpt><trkpt lat="45.7168" lon="9.225335"><ele>279.5</ele><time>2026-04-25T14:39:20.23Z</time></trkpt><trkpt lat="45.716775" lon="9.2251267"><ele>281.0</ele><time>2026-04-25T14:39:21.228Z</time></trkpt><trkpt lat="45.7167483" lon="9.2249"><ele>283.0</ele><time>2026-04-25T14:39:22.228Z</time></trkpt><trkpt lat="45.7167217" lon="9.224645"><ele>285.0</ele><time>2026-04-25T14:39:23.231Z</time></trkpt><trkpt lat="45.7166917" lon="9.2243933"><ele>287.0</ele><time>2026-04-25T14:39:24.229Z</time></trkpt><trkpt lat="45.7166583" lon="9.2241467"><ele>288.33333333333337</ele><time>2026-04-25T14:39:25.228Z</time></trkpt><trkpt lat="45.716625" lon="9.2239017"><ele>289.6666666666667</ele><time>2026-04-25T14:39:26.228Z</time></trkpt><trkpt lat="45.71659" lon="9.2236683"><ele>291.0</ele><time>2026-04-25T14:39:27.228Z</time></trkpt><trkpt lat="45.7165483" lon="9.22345"><ele>291.0</ele><time>2026-04-25T14:39:28.227Z</time></trkpt><trkpt lat="45.716495" lon="9.2232367"><ele>291.0</ele><time>2026-04-25T14:39:29.228Z</time></trkpt><trkpt lat="45.7164333" lon="9.2230317"><ele>291.0</ele><time>2026-04-25T14:39:30.23Z</time></trkpt><trkpt lat="45.71636" lon="9.2228217"><ele>290.6666666666667</ele><time>2026-04-25T14:39:31.228Z</time></trkpt><trkpt lat="45.7162733" lon="9.222605"><ele>290.33333333333337</ele><time>2026-04-25T14:39:32.229Z</time></trkpt><trkpt lat="45.7161733" lon="9.2223667"><ele>290.0</ele><time>2026-04-25T14:39:33.228Z</time></trkpt><trkpt lat="45.7160633" lon="9.2221067"><ele>291.0</ele><time>2026-04-25T14:39:34.229Z</time></trkpt><trkpt lat="45.7159533" lon="9.2218333"><ele>292.0</ele><time>2026-04-25T14:39:35.228Z</time></trkpt><trkpt lat="45.7158467" lon="9.22155"><ele>293.0</ele><time>2026-04-25T14:39:36.23Z</time></trkpt><trkpt lat="45.71574" lon="9.2212567"><ele>293.0</ele><time>2026-04-25T14:39:37.228Z</time></trkpt><trkpt lat="45.7156317" lon="9.2209517"><ele>293.0</ele><time>2026-04-25T14:39:38.227Z</time></trkpt><trkpt lat="45.7155183" lon="9.220655"><ele>300.0</ele><time>2026-04-25T14:39:39.229Z</time></trkpt><trkpt lat="45.7152917" lon="9.220075"><ele>299.6666666666667</ele><time>2026-04-25T14:39:41.228Z</time></trkpt><trkpt lat="45.7151917" lon="9.2197933"><ele>299.33333333333337</ele><time>2026-04-25T14:39:42.229Z</time></trkpt><trkpt lat="45.7150967" lon="9.2195217"><ele>299.0</ele><time>2026-04-25T14:39:43.229Z</time></trkpt><trkpt lat="45.7150167" lon="9.2192617"><ele>299.0</ele><time>2026-04-25T14:39:44.228Z</time></trkpt><trkpt lat="45.714945" lon="9.2190233"><ele>299.0</ele><time>2026-04-25T14:39:45.229Z</time></trkpt><trkpt lat="45.7148817" lon="9.2188017"><ele>299.0</ele><time>2026-04-25T14:39:46.227Z</time></trkpt><trkpt lat="45.7148283" lon="9.218585"><ele>299.33333333333337</ele><time>2026-04-25T14:39:47.229Z</time></trkpt><trkpt lat="45.7147767" lon="9.2183633"><ele>299.6666666666667</ele><time>2026-04-25T14:39:48.229Z</time></trkpt><trkpt lat="45.7147333" lon="9.2181333"><ele>300.0</ele><time>2026-04-25T14:39:49.23Z</time></trkpt><trkpt lat="45.7146933" lon="9.2178983"><ele>300.0</ele><time>2026-04-25T14:39:50.23Z</time></trkpt><trkpt lat="45.714655" lon="9.2176533"><ele>300.0</ele><time>2026-04-25T14:39:51.229Z</time></trkpt><trkpt lat="45.714625" lon="9.2174017"><ele>300.0</ele><time>2026-04-25T14:39:52.229Z</time></trkpt><trkpt lat="45.7146117" lon="9.21715"><ele>300.3333333333333</ele><time>2026-04-25T14:39:53.229Z</time></trkpt><trkpt lat="45.71462" lon="9.216895"><ele>300.66666666666663</ele><time>2026-04-25T14:39:54.23Z</time></trkpt><trkpt lat="45.7146383" lon="9.2166417"><ele>301.0</ele><time>2026-04-25T14:39:55.229Z</time></trkpt><trkpt lat="45.7146667" lon="9.216385"><ele>300.3333333333333</ele><time>2026-04-25T14:39:56.229Z</time></trkpt><trkpt lat="45.7146967" lon="9.216125"><ele>299.6666666666667</ele><time>2026-04-25T14:39:57.23Z</time></trkpt><trkpt lat="45.7147317" lon="9.21586"><ele>299.0</ele><time>2026-04-25T14:39:58.229Z</time></trkpt><trkpt lat="45.7147667" lon="9.21559"><ele>298.33333333333337</ele><time>2026-04-25T14:39:59.229Z</time></trkpt><trkpt lat="45.7148033" lon="9.2153067"><ele>297.6666666666667</ele><time>2026-04-25T14:40:00.23Z</time></trkpt><trkpt lat="45.71484" lon="9.215015"><ele>297.0</ele><time>2026-04-25T14:40:01.228Z</time></trkpt><trkpt lat="45.7148783" lon="9.2147133"><ele>295.5</ele><time>2026-04-25T14:40:02.229Z</time></trkpt><trkpt lat="45.71492" lon="9.2143967"><ele>294.0</ele><time>2026-04-25T14:40:03.229Z</time></trkpt><trkpt lat="45.7149617" lon="9.21408"><ele>293.6666666666667</ele><time>2026-04-25T14:40:04.227Z</time></trkpt><trkpt lat="45.7150033" lon="9.2137717"><ele>293.33333333333337</ele><time>2026-04-25T14:40:05.228Z</time></trkpt><trkpt lat="45.7150417" lon="9.2134667"><ele>293.0</ele><time>2026-04-25T14:40:06.229Z</time></trkpt><trkpt lat="45.715075" lon="9.2131867"><ele>293.33333333333337</ele><time>2026-04-25T14:40:07.227Z</time></trkpt><trkpt lat="45.7151" lon="9.2129217"><ele>293.6666666666667</ele><time>2026-04-25T14:40:08.229Z</time></trkpt><trkpt lat="45.71511" lon="9.2126683"><ele>294.0</ele><time>2026-04-25T14:40:09.229Z</time></trkpt><trkpt lat="45.7151033" lon="9.212425"><ele>294.0</ele><time>2026-04-25T14:40:10.228Z</time></trkpt><trkpt lat="45.7150833" lon="9.212185"><ele>294.0</ele><time>2026-04-25T14:40:11.228Z</time></trkpt><trkpt lat="45.7150467" lon="9.2119417"><ele>294.0</ele><time>2026-04-25T14:40:12.228Z</time></trkpt><trkpt lat="45.7150017" lon="9.2116967"><ele>293.0</ele><time>2026-04-25T14:40:13.229Z</time></trkpt><trkpt lat="45.7149533" lon="9.21145"><ele>292.0</ele><time>2026-04-25T14:40:14.228Z</time></trkpt><trkpt lat="45.71491" lon="9.2112083"><ele>291.0</ele><time>2026-04-25T14:40:15.229Z</time></trkpt><trkpt lat="45.7148683" lon="9.2109783"><ele>291.0</ele><time>2026-04-25T14:40:16.228Z</time></trkpt><trkpt lat="45.7148283" lon="9.2107633"><ele>291.0</ele><time>2026-04-25T14:40:17.227Z</time></trkpt><trkpt lat="45.7147933" lon="9.2105533"><ele>291.0</ele><time>2026-04-25T14:40:18.229Z</time></trkpt><trkpt lat="45.714765" lon="9.21036"><ele>291.0</ele><time>2026-04-25T14:40:19.229Z</time></trkpt><trkpt lat="45.7147383" lon="9.21019"><ele>290.8</ele><time>2026-04-25T14:40:20.227Z</time></trkpt><trkpt lat="45.7147083" lon="9.2100367"><ele>290.6</ele><time>2026-04-25T14:40:21.231Z</time></trkpt><trkpt lat="45.7146817" lon="9.209895"><ele>290.4</ele><time>2026-04-25T14:40:22.228Z</time></trkpt><trkpt lat="45.71466" lon="9.2097633"><ele>290.2</ele><time>2026-04-25T14:40:23.23Z</time></trkpt><trkpt lat="45.714635" lon="9.2096367"><ele>290.0</ele><time>2026-04-25T14:40:24.228Z</time></trkpt><trkpt lat="45.714615" lon="9.2095133"><ele>290.0</ele><time>2026-04-25T14:40:25.229Z</time></trkpt><trkpt lat="45.714595" lon="9.2093933"><ele>290.0</ele><time>2026-04-25T14:40:26.228Z</time></trkpt><trkpt lat="45.714575" lon="9.209275"><ele>290.0</ele><time>2026-04-25T14:40:27.23Z</time></trkpt><trkpt lat="45.7145567" lon="9.209165"><ele>290.0</ele><time>2026-04-25T14:40:28.227Z</time></trkpt><trkpt lat="45.7145417" lon="9.209065"><ele>290.0</ele><time>2026-04-25T14:40:29.228Z</time></trkpt><trkpt lat="45.7145233" lon="9.2089117"><ele>290.0</ele><time>2026-04-25T14:40:31.229Z</time></trkpt><trkpt lat="45.71451" lon="9.2088033"><ele>289.83333333333337</ele><time>2026-04-25T14:41:59.228Z</time></trkpt><trkpt lat="45.7145033" lon="9.20863"><ele>289.6666666666667</ele><time>2026-04-25T14:42:01.228Z</time></trkpt><trkpt lat="45.714505" lon="9.208525"><ele>289.5</ele><time>2026-04-25T14:42:02.228Z</time></trkpt><trkpt lat="45.7145083" lon="9.20842"><ele>289.3333333333333</ele><time>2026-04-25T14:42:03.228Z</time></trkpt><trkpt lat="45.714515" lon="9.2083133"><ele>289.16666666666663</ele><time>2026-04-25T14:42:04.23Z</time></trkpt><trkpt lat="45.7145267" lon="9.2081967"><ele>289.0</ele><time>2026-04-25T14:42:05.229Z</time></trkpt><trkpt lat="45.714545" lon="9.208075"><ele>288.8</ele><time>2026-04-25T14:42:06.229Z</time></trkpt><trkpt lat="45.714565" lon="9.20795"><ele>288.59999999999997</ele><time>2026-04-25T14:42:07.23Z</time></trkpt><trkpt lat="45.7145917" lon="9.20782"><ele>288.4</ele><time>2026-04-25T14:42:08.229Z</time></trkpt><trkpt lat="45.7146183" lon="9.207685"><ele>288.2</ele><time>2026-04-25T14:42:09.228Z</time></trkpt><trkpt lat="45.7146517" lon="9.2075567"><ele>288.0</ele><time>2026-04-25T14:42:10.227Z</time></trkpt><trkpt lat="45.7146867" lon="9.207425"><ele>287.8</ele><time>2026-04-25T14:42:11.228Z</time></trkpt><trkpt lat="45.71472" lon="9.2072933"><ele>287.6</ele><time>2026-04-25T14:42:12.229Z</time></trkpt><trkpt lat="45.714755" lon="9.20717"><ele>287.4</ele><time>2026-04-25T14:42:13.229Z</time></trkpt><trkpt lat="45.7147867" lon="9.2070467"><ele>287.2</ele><time>2026-04-25T14:42:14.229Z</time></trkpt><trkpt lat="45.7148183" lon="9.20692"><ele>287.0</ele><time>2026-04-25T14:42:15.228Z</time></trkpt><trkpt lat="45.7148517" lon="9.206785"><ele>287.0</ele><time>2026-04-25T14:42:16.229Z</time></trkpt><trkpt lat="45.7148833" lon="9.2066417"><ele>287.0</ele><time>2026-04-25T14:42:17.228Z</time></trkpt><trkpt lat="45.7149217" lon="9.206485"><ele>287.0</ele><time>2026-04-25T14:42:18.228Z</time></trkpt><trkpt lat="45.71496" lon="9.20631"><ele>287.0</ele><time>2026-04-25T14:42:19.228Z</time></trkpt><trkpt lat="45.7150033" lon="9.2061217"><ele>286.5</ele><time>2026-04-25T14:42:20.228Z</time></trkpt><trkpt lat="45.7150433" lon="9.20592"><ele>286.0</ele><time>2026-04-25T14:42:21.23Z</time></trkpt><trkpt lat="45.71508" lon="9.205715"><ele>285.5</ele><time>2026-04-25T14:42:22.228Z</time></trkpt><trkpt lat="45.7151117" lon="9.2055133"><ele>285.0</ele><time>2026-04-25T14:42:23.228Z</time></trkpt><trkpt lat="45.7151383" lon="9.2053217"><ele>285.0</ele><time>2026-04-25T14:42:24.228Z</time></trkpt><trkpt lat="45.7151633" lon="9.2051367"><ele>285.0</ele><time>2026-04-25T14:42:25.228Z</time></trkpt><trkpt lat="45.7151883" lon="9.2049533"><ele>285.0</ele><time>2026-04-25T14:42:26.228Z</time></trkpt><trkpt lat="45.71521" lon="9.2047683"><ele>285.0</ele><time>2026-04-25T14:42:27.23Z</time></trkpt><trkpt lat="45.7152383" lon="9.2045733"><ele>285.25</ele><time>2026-04-25T14:42:28.231Z</time></trkpt><trkpt lat="45.715265" lon="9.2043767"><ele>285.5</ele><time>2026-04-25T14:42:29.23Z</time></trkpt><trkpt lat="45.7152933" lon="9.2041733"><ele>285.75</ele><time>2026-04-25T14:42:30.231Z</time></trkpt><trkpt lat="45.7153233" lon="9.20396"><ele>286.0</ele><time>2026-04-25T14:42:31.23Z</time></trkpt><trkpt lat="45.7153533" lon="9.2037367"><ele>286.3333333333333</ele><time>2026-04-25T14:42:32.229Z</time></trkpt><trkpt lat="45.7153833" lon="9.2035067"><ele>286.6666666666667</ele><time>2026-04-25T14:42:33.228Z</time></trkpt><trkpt lat="45.715415" lon="9.20327"><ele>287.0</ele><time>2026-04-25T14:42:34.227Z</time></trkpt><trkpt lat="45.7154467" lon="9.2030367"><ele>286.33333333333337</ele><time>2026-04-25T14:42:35.228Z</time></trkpt><trkpt lat="45.7154783" lon="9.2028183"><ele>285.6666666666667</ele><time>2026-04-25T14:42:36.229Z</time></trkpt><trkpt lat="45.71551" lon="9.20261"><ele>285.0</ele><time>2026-04-25T14:42:37.228Z</time></trkpt><trkpt lat="45.715545" lon="9.2024017"><ele>285.6666666666667</ele><time>2026-04-25T14:42:38.228Z</time></trkpt><trkpt lat="45.71558" lon="9.20219"><ele>286.33333333333337</ele><time>2026-04-25T14:42:39.23Z</time></trkpt><trkpt lat="45.7156183" lon="9.201975"><ele>287.0</ele><time>2026-04-25T14:42:40.229Z</time></trkpt><trkpt lat="45.7156567" lon="9.201755"><ele>287.0</ele><time>2026-04-25T14:42:41.227Z</time></trkpt><trkpt lat="45.715695" lon="9.201535"><ele>287.0</ele><time>2026-04-25T14:42:42.229Z</time></trkpt><trkpt lat="45.7157333" lon="9.2013117"><ele>287.0</ele><time>2026-04-25T14:42:43.228Z</time></trkpt><trkpt lat="45.7157717" lon="9.201095"><ele>288.0</ele><time>2026-04-25T14:42:44.229Z</time></trkpt><trkpt lat="45.7158083" lon="9.2008817"><ele>289.0</ele><time>2026-04-25T14:42:45.228Z</time></trkpt><trkpt lat="45.7158467" lon="9.2006667"><ele>290.0</ele><time>2026-04-25T14:42:46.229Z</time></trkpt><trkpt lat="45.7158833" lon="9.20045"><ele>292.0</ele><time>2026-04-25T14:42:47.228Z</time></trkpt><trkpt lat="45.71592" lon="9.2002367"><ele>294.0</ele><time>2026-04-25T14:42:48.228Z</time></trkpt><trkpt lat="45.71596" lon="9.200025"><ele>296.0</ele><time>2026-04-25T14:42:49.227Z</time></trkpt><trkpt lat="45.7159983" lon="9.1998133"><ele>296.33333333333337</ele><time>2026-04-25T14:42:50.229Z</time></trkpt><trkpt lat="45.7160383" lon="9.1996017"><ele>296.6666666666667</ele><time>2026-04-25T14:42:51.229Z</time></trkpt><trkpt lat="45.7160783" lon="9.199385"><ele>297.0</ele><time>2026-04-25T14:42:52.228Z</time></trkpt><trkpt lat="45.7161183" lon="9.19917"><ele>297.6666666666667</ele><time>2026-04-25T14:42:53.228Z</time></trkpt><trkpt lat="45.7161583" lon="9.1989483"><ele>298.33333333333337</ele><time>2026-04-25T14:42:54.227Z</time></trkpt><trkpt lat="45.7161967" lon="9.1987317"><ele>299.0</ele><time>2026-04-25T14:42:55.228Z</time></trkpt><trkpt lat="45.7162333" lon="9.1985133"><ele>299.0</ele><time>2026-04-25T14:42:56.227Z</time></trkpt><trkpt lat="45.7162717" lon="9.198285"><ele>299.0</ele><time>2026-04-25T14:42:57.229Z</time></trkpt><trkpt lat="45.7163133" lon="9.1980467"><ele>299.0</ele><time>2026-04-25T14:42:58.228Z</time></trkpt><trkpt lat="45.7163567" lon="9.19781"><ele>297.6666666666667</ele><time>2026-04-25T14:42:59.227Z</time></trkpt><trkpt lat="45.7164" lon="9.197565"><ele>296.3333333333333</ele><time>2026-04-25T14:43:00.227Z</time></trkpt><trkpt lat="45.7164417" lon="9.1973267"><ele>295.0</ele><time>2026-04-25T14:43:01.229Z</time></trkpt><trkpt lat="45.71649" lon="9.1970833"><ele>294.0</ele><time>2026-04-25T14:43:02.228Z</time></trkpt><trkpt lat="45.7165367" lon="9.19685"><ele>293.0</ele><time>2026-04-25T14:43:03.229Z</time></trkpt><trkpt lat="45.71658" lon="9.1966217"><ele>292.0</ele><time>2026-04-25T14:43:04.229Z</time></trkpt><trkpt lat="45.716615" lon="9.1964033"><ele>288.66666666666663</ele><time>2026-04-25T14:43:05.228Z</time></trkpt><trkpt lat="45.716635" lon="9.1961867"><ele>285.3333333333333</ele><time>2026-04-25T14:43:06.228Z</time></trkpt><trkpt lat="45.7166467" lon="9.1959583"><ele>282.0</ele><time>2026-04-25T14:43:07.229Z</time></trkpt><trkpt lat="45.7166417" lon="9.1957183"><ele>281.0</ele><time>2026-04-25T14:43:08.228Z</time></trkpt><trkpt lat="45.7166217" lon="9.1954717"><ele>280.0</ele><time>2026-04-25T14:43:09.228Z</time></trkpt><trkpt lat="45.7165867" lon="9.19522"><ele>279.0</ele><time>2026-04-25T14:43:10.227Z</time></trkpt><trkpt lat="45.716535" lon="9.1949783"><ele>278.0</ele><time>2026-04-25T14:43:11.229Z</time></trkpt><trkpt lat="45.71646" lon="9.1947467"><ele>277.0</ele><time>2026-04-25T14:43:12.227Z</time></trkpt><trkpt lat="45.7163733" lon="9.1945117"><ele>276.0</ele><time>2026-04-25T14:43:13.228Z</time></trkpt><trkpt lat="45.7162833" lon="9.1942767"><ele>276.0</ele><time>2026-04-25T14:43:14.229Z</time></trkpt><trkpt lat="45.716185" lon="9.19404"><ele>276.0</ele><time>2026-04-25T14:43:15.228Z</time></trkpt><trkpt lat="45.7160917" lon="9.1938017"><ele>276.0</ele><time>2026-04-25T14:43:16.23Z</time></trkpt><trkpt lat="45.7160017" lon="9.193555"><ele>275.3333333333333</ele><time>2026-04-25T14:43:17.228Z</time></trkpt><trkpt lat="45.71591" lon="9.1933133"><ele>274.66666666666663</ele><time>2026-04-25T14:43:18.228Z</time></trkpt><trkpt lat="45.7158183" lon="9.193075"><ele>274.0</ele><time>2026-04-25T14:43:19.228Z</time></trkpt><trkpt lat="45.7157283" lon="9.1928383"><ele>274.0</ele><time>2026-04-25T14:43:20.228Z</time></trkpt><trkpt lat="45.7156367" lon="9.1926033"><ele>274.0</ele><time>2026-04-25T14:43:21.23Z</time></trkpt><trkpt lat="45.7155467" lon="9.1923717"><ele>274.0</ele><time>2026-04-25T14:43:22.229Z</time></trkpt><trkpt lat="45.7154583" lon="9.192145"><ele>274.3333333333333</ele><time>2026-04-25T14:43:23.228Z</time></trkpt><trkpt lat="45.7153683" lon="9.1919267"><ele>274.6666666666667</ele><time>2026-04-25T14:43:24.229Z</time></trkpt><trkpt lat="45.7152817" lon="9.1917017"><ele>275.0</ele><time>2026-04-25T14:43:25.229Z</time></trkpt><trkpt lat="45.7151933" lon="9.1914767"><ele>275.0</ele><time>2026-04-25T14:43:26.228Z</time></trkpt><trkpt lat="45.7151033" lon="9.1912583"><ele>275.0</ele><time>2026-04-25T14:43:27.229Z</time></trkpt><trkpt lat="45.7150167" lon="9.1910383"><ele>275.0</ele><time>2026-04-25T14:43:28.228Z</time></trkpt><trkpt lat="45.7149333" lon="9.190815"><ele>275.0</ele><time>2026-04-25T14:43:29.228Z</time></trkpt><trkpt lat="45.7148517" lon="9.1905917"><ele>275.0</ele><time>2026-04-25T14:43:30.23Z</time></trkpt><trkpt lat="45.71477" lon="9.19037"><ele>275.0</ele><time>2026-04-25T14:43:31.228Z</time></trkpt><trkpt lat="45.7146917" lon="9.1901517"><ele>275.0</ele><time>2026-04-25T14:43:32.229Z</time></trkpt><trkpt lat="45.714615" lon="9.18994"><ele>275.0</ele><time>2026-04-25T14:43:33.228Z</time></trkpt><trkpt lat="45.7145433" lon="9.1897333"><ele>275.0</ele><time>2026-04-25T14:43:34.229Z</time></trkpt><trkpt lat="45.714475" lon="9.189535"><ele>275.0</ele><time>2026-04-25T14:43:35.227Z</time></trkpt><trkpt lat="45.7144067" lon="9.1893433"><ele>275.0</ele><time>2026-04-25T14:43:36.229Z</time></trkpt><trkpt lat="45.7143383" lon="9.1891567"><ele>275.0</ele><time>2026-04-25T14:43:37.229Z</time></trkpt><trkpt lat="45.714265" lon="9.1889717"><ele>275.0</ele><time>2026-04-25T14:43:38.228Z</time></trkpt><trkpt lat="45.71419" lon="9.1887783"><ele>275.0</ele><time>2026-04-25T14:43:39.229Z</time></trkpt><trkpt lat="45.71411" lon="9.1885817"><ele>275.0</ele><time>2026-04-25T14:43:40.228Z</time></trkpt><trkpt lat="45.71403" lon="9.1883733"><ele>275.0</ele><time>2026-04-25T14:43:41.23Z</time></trkpt><trkpt lat="45.7139467" lon="9.1881667"><ele>275.0</ele><time>2026-04-25T14:43:42.228Z</time></trkpt><trkpt lat="45.7138567" lon="9.1879567"><ele>275.0</ele><time>2026-04-25T14:43:43.228Z</time></trkpt><trkpt lat="45.71377" lon="9.1877383"><ele>275.0</ele><time>2026-04-25T14:43:44.229Z</time></trkpt><trkpt lat="45.713685" lon="9.1875083"><ele>274.6666666666667</ele><time>2026-04-25T14:43:45.229Z</time></trkpt><trkpt lat="45.7135967" lon="9.1872733"><ele>274.3333333333333</ele><time>2026-04-25T14:43:46.229Z</time></trkpt><trkpt lat="45.7135067" lon="9.1870467"><ele>274.0</ele><time>2026-04-25T14:43:47.228Z</time></trkpt><trkpt lat="45.71342" lon="9.1868267"><ele>274.0</ele><time>2026-04-25T14:43:48.228Z</time></trkpt><trkpt lat="45.7133367" lon="9.186615"><ele>274.0</ele><time>2026-04-25T14:43:49.228Z</time></trkpt><trkpt lat="45.7132567" lon="9.1864083"><ele>274.0</ele><time>2026-04-25T14:43:50.229Z</time></trkpt><trkpt lat="45.7131767" lon="9.1861967"><ele>274.66666666666663</ele><time>2026-04-25T14:43:51.229Z</time></trkpt><trkpt lat="45.7130933" lon="9.18598"><ele>275.3333333333333</ele><time>2026-04-25T14:43:52.228Z</time></trkpt><trkpt lat="45.7130067" lon="9.1857567"><ele>276.0</ele><time>2026-04-25T14:43:53.227Z</time></trkpt><trkpt lat="45.7129183" lon="9.1855317"><ele>275.6666666666667</ele><time>2026-04-25T14:43:54.228Z</time></trkpt><trkpt lat="45.71283" lon="9.1853"><ele>275.33333333333337</ele><time>2026-04-25T14:43:55.227Z</time></trkpt><trkpt lat="45.7127417" lon="9.18507"><ele>275.0</ele><time>2026-04-25T14:43:56.229Z</time></trkpt><trkpt lat="45.71265" lon="9.184835"><ele>275.0</ele><time>2026-04-25T14:43:57.228Z</time></trkpt><trkpt lat="45.7125633" lon="9.1846"><ele>275.0</ele><time>2026-04-25T14:43:58.228Z</time></trkpt><trkpt lat="45.7124867" lon="9.18437"><ele>275.0</ele><time>2026-04-25T14:43:59.229Z</time></trkpt><trkpt lat="45.7124133" lon="9.18415"><ele>275.25</ele><time>2026-04-25T14:44:00.229Z</time></trkpt><trkpt lat="45.7123483" lon="9.18395"><ele>275.5</ele><time>2026-04-25T14:44:01.229Z</time></trkpt><trkpt lat="45.71229" lon="9.1837617"><ele>275.75</ele><time>2026-04-25T14:44:02.227Z</time></trkpt><trkpt lat="45.7122317" lon="9.1835717"><ele>276.0</ele><time>2026-04-25T14:44:03.228Z</time></trkpt><trkpt lat="45.71218" lon="9.1833833"><ele>276.0</ele><time>2026-04-25T14:44:04.23Z</time></trkpt><trkpt lat="45.712125" lon="9.1831933"><ele>276.0</ele><time>2026-04-25T14:44:05.228Z</time></trkpt><trkpt lat="45.7120667" lon="9.183005"><ele>276.0</ele><time>2026-04-25T14:44:06.227Z</time></trkpt><trkpt lat="45.71201" lon="9.1828117"><ele>276.0</ele><time>2026-04-25T14:44:07.229Z</time></trkpt><trkpt lat="45.7119533" lon="9.1826217"><ele>277.5</ele><time>2026-04-25T14:44:08.228Z</time></trkpt><trkpt lat="45.7118983" lon="9.1824367"><ele>279.0</ele><time>2026-04-25T14:44:09.229Z</time></trkpt><trkpt lat="45.7118417" lon="9.1822483"><ele>280.5</ele><time>2026-04-25T14:44:10.227Z</time></trkpt><trkpt lat="45.7117833" lon="9.182055"><ele>282.0</ele><time>2026-04-25T14:44:11.228Z</time></trkpt><trkpt lat="45.7117267" lon="9.1818617"><ele>285.6666666666667</ele><time>2026-04-25T14:44:12.229Z</time></trkpt><trkpt lat="45.7116667" lon="9.1816617"><ele>289.33333333333337</ele><time>2026-04-25T14:44:13.227Z</time></trkpt><trkpt lat="45.7116083" lon="9.1814633"><ele>293.0</ele><time>2026-04-25T14:44:14.229Z</time></trkpt><trkpt lat="45.7115517" lon="9.1812633"><ele>295.0</ele><time>2026-04-25T14:44:15.228Z</time></trkpt><trkpt lat="45.7114933" lon="9.18106"><ele>297.0</ele><time>2026-04-25T14:44:16.227Z</time></trkpt><trkpt lat="45.7114367" lon="9.18086"><ele>299.0</ele><time>2026-04-25T14:44:17.228Z</time></trkpt><trkpt lat="45.711385" lon="9.18067"><ele>301.0</ele><time>2026-04-25T14:44:18.229Z</time></trkpt><trkpt lat="45.7113333" lon="9.1804817"><ele>302.0</ele><time>2026-04-25T14:44:19.23Z</time></trkpt><trkpt lat="45.711275" lon="9.1802833"><ele>303.0</ele><time>2026-04-25T14:44:20.23Z</time></trkpt><trkpt lat="45.7112183" lon="9.18009"><ele>304.0</ele><time>2026-04-25T14:44:21.229Z</time></trkpt><trkpt lat="45.7111683" lon="9.1798967"><ele>305.0</ele><time>2026-04-25T14:44:22.23Z</time></trkpt><trkpt lat="45.711115" lon="9.179705"><ele>305.75</ele><time>2026-04-25T14:44:23.23Z</time></trkpt><trkpt lat="45.7110617" lon="9.17952"><ele>306.5</ele><time>2026-04-25T14:44:24.229Z</time></trkpt><trkpt lat="45.7110033" lon="9.1793383"><ele>307.25</ele><time>2026-04-25T14:44:25.23Z</time></trkpt><trkpt lat="45.71095" lon="9.17916"><ele>308.0</ele><time>2026-04-25T14:44:26.23Z</time></trkpt><trkpt lat="45.7109" lon="9.1789833"><ele>308.5</ele><time>2026-04-25T14:44:27.231Z</time></trkpt><trkpt lat="45.7108483" lon="9.1788033"><ele>309.0</ele><time>2026-04-25T14:44:28.23Z</time></trkpt><trkpt lat="45.7107983" lon="9.1786217"><ele>309.5</ele><time>2026-04-25T14:44:29.229Z</time></trkpt><trkpt lat="45.710745" lon="9.1784333"><ele>310.0</ele><time>2026-04-25T14:44:30.23Z</time></trkpt><trkpt lat="45.71069" lon="9.1782417"><ele>309.3333333333333</ele><time>2026-04-25T14:44:31.23Z</time></trkpt><trkpt lat="45.7106333" lon="9.1780483"><ele>308.6666666666667</ele><time>2026-04-25T14:44:32.229Z</time></trkpt><trkpt lat="45.710575" lon="9.177845"><ele>308.0</ele><time>2026-04-25T14:44:33.23Z</time></trkpt><trkpt lat="45.7105133" lon="9.177635"><ele>308.0</ele><time>2026-04-25T14:44:34.23Z</time></trkpt><trkpt lat="45.7104483" lon="9.1774217"><ele>308.0</ele><time>2026-04-25T14:44:35.23Z</time></trkpt><trkpt lat="45.710385" lon="9.1772117"><ele>308.0</ele><time>2026-04-25T14:44:36.229Z</time></trkpt><trkpt lat="45.71032" lon="9.176995"><ele>307.6666666666667</ele><time>2026-04-25T14:44:37.23Z</time></trkpt><trkpt lat="45.7102567" lon="9.1767767"><ele>307.3333333333333</ele><time>2026-04-25T14:44:38.231Z</time></trkpt><trkpt lat="45.7101917" lon="9.1765567"><ele>307.0</ele><time>2026-04-25T14:44:39.23Z</time></trkpt><trkpt lat="45.7101283" lon="9.1763383"><ele>305.3333333333333</ele><time>2026-04-25T14:44:40.229Z</time></trkpt><trkpt lat="45.7100667" lon="9.1761283"><ele>303.6666666666667</ele><time>2026-04-25T14:44:41.228Z</time></trkpt><trkpt lat="45.7100067" lon="9.1759167"><ele>302.0</ele><time>2026-04-25T14:44:42.229Z</time></trkpt><trkpt lat="45.7099417" lon="9.1756967"><ele>302.0</ele><time>2026-04-25T14:44:43.23Z</time></trkpt><trkpt lat="45.7098783" lon="9.1754717"><ele>302.0</ele><time>2026-04-25T14:44:44.229Z</time></trkpt><trkpt lat="45.709815" lon="9.1752483"><ele>302.0</ele><time>2026-04-25T14:44:45.23Z</time></trkpt><trkpt lat="45.7097533" lon="9.1750333"><ele>301.0</ele><time>2026-04-25T14:44:46.227Z</time></trkpt><trkpt lat="45.7096917" lon="9.174825"><ele>300.0</ele><time>2026-04-25T14:44:47.227Z</time></trkpt><trkpt lat="45.7096267" lon="9.1746233"><ele>299.0</ele><time>2026-04-25T14:44:48.228Z</time></trkpt><trkpt lat="45.7095667" lon="9.1744233"><ele>299.0</ele><time>2026-04-25T14:44:49.228Z</time></trkpt><trkpt lat="45.7095033" lon="9.1742233"><ele>299.0</ele><time>2026-04-25T14:44:50.227Z</time></trkpt><trkpt lat="45.7094417" lon="9.1740167"><ele>299.0</ele><time>2026-04-25T14:44:51.228Z</time></trkpt><trkpt lat="45.7093783" lon="9.1738"><ele>296.6666666666667</ele><time>2026-04-25T14:44:52.227Z</time></trkpt><trkpt lat="45.7093133" lon="9.1735767"><ele>294.3333333333333</ele><time>2026-04-25T14:44:53.228Z</time></trkpt><trkpt lat="45.7092433" lon="9.173345"><ele>292.0</ele><time>2026-04-25T14:44:54.228Z</time></trkpt><trkpt lat="45.7091733" lon="9.1731083"><ele>292.0</ele><time>2026-04-25T14:44:55.227Z</time></trkpt><trkpt lat="45.7091033" lon="9.1728683"><ele>292.0</ele><time>2026-04-25T14:44:56.227Z</time></trkpt><trkpt lat="45.7090383" lon="9.1726283"><ele>292.0</ele><time>2026-04-25T14:44:57.229Z</time></trkpt><trkpt lat="45.7089733" lon="9.1723933"><ele>292.0</ele><time>2026-04-25T14:44:58.227Z</time></trkpt><trkpt lat="45.7089117" lon="9.1721583"><ele>292.0</ele><time>2026-04-25T14:44:59.227Z</time></trkpt><trkpt lat="45.708855" lon="9.17192"><ele>292.0</ele><time>2026-04-25T14:45:00.227Z</time></trkpt><trkpt lat="45.7087967" lon="9.1716817"><ele>291.66666666666663</ele><time>2026-04-25T14:45:01.228Z</time></trkpt><trkpt lat="45.70874" lon="9.1714433"><ele>291.3333333333333</ele><time>2026-04-25T14:45:02.228Z</time></trkpt><trkpt lat="45.70868" lon="9.1712133"><ele>291.0</ele><time>2026-04-25T14:45:03.228Z</time></trkpt><trkpt lat="45.7086133" lon="9.170985"><ele>291.0</ele><time>2026-04-25T14:45:04.227Z</time></trkpt><trkpt lat="45.7085367" lon="9.170765"><ele>291.0</ele><time>2026-04-25T14:45:05.229Z</time></trkpt><trkpt lat="45.7084517" lon="9.17056"><ele>291.0</ele><time>2026-04-25T14:45:06.229Z</time></trkpt><trkpt lat="45.708355" lon="9.1703533"><ele>291.0</ele><time>2026-04-25T14:45:07.229Z</time></trkpt><trkpt lat="45.7082517" lon="9.1701567"><ele>291.0</ele><time>2026-04-25T14:45:08.227Z</time></trkpt><trkpt lat="45.708145" lon="9.1699583"><ele>291.0</ele><time>2026-04-25T14:45:09.23Z</time></trkpt><trkpt lat="45.70804" lon="9.1697633"><ele>291.3333333333333</ele><time>2026-04-25T14:45:10.228Z</time></trkpt><trkpt lat="45.7079383" lon="9.1695667"><ele>291.66666666666663</ele><time>2026-04-25T14:45:11.23Z</time></trkpt><trkpt lat="45.707835" lon="9.1693683"><ele>292.0</ele><time>2026-04-25T14:45:12.229Z</time></trkpt><trkpt lat="45.70773" lon="9.1691683"><ele>290.3333333333333</ele><time>2026-04-25T14:45:13.228Z</time></trkpt><trkpt lat="45.7076233" lon="9.1689717"><ele>288.6666666666667</ele><time>2026-04-25T14:45:14.23Z</time></trkpt><trkpt lat="45.7075167" lon="9.1687683"><ele>287.0</ele><time>2026-04-25T14:45:15.232Z</time></trkpt><trkpt lat="45.70741" lon="9.1685683"><ele>287.0</ele><time>2026-04-25T14:45:16.233Z</time></trkpt><trkpt lat="45.7073" lon="9.16837"><ele>287.0</ele><time>2026-04-25T14:45:17.227Z</time></trkpt><trkpt lat="45.707195" lon="9.1681767"><ele>287.0</ele><time>2026-04-25T14:45:18.228Z</time></trkpt><trkpt lat="45.7070967" lon="9.1679967"><ele>287.0</ele><time>2026-04-25T14:45:19.229Z</time></trkpt><trkpt lat="45.7069967" lon="9.1678167"><ele>287.0</ele><time>2026-04-25T14:45:20.227Z</time></trkpt><trkpt lat="45.7068983" lon="9.167635"><ele>287.0</ele><time>2026-04-25T14:45:21.229Z</time></trkpt><trkpt lat="45.706805" lon="9.1674467"><ele>286.33333333333337</ele><time>2026-04-25T14:45:22.227Z</time></trkpt><trkpt lat="45.70671" lon="9.1672583"><ele>285.6666666666667</ele><time>2026-04-25T14:45:23.227Z</time></trkpt><trkpt lat="45.7066133" lon="9.167065"><ele>285.0</ele><time>2026-04-25T14:45:24.228Z</time></trkpt><trkpt lat="45.7065117" lon="9.1668733"><ele>285.0</ele><time>2026-04-25T14:45:25.228Z</time></trkpt><trkpt lat="45.7064067" lon="9.1666817"><ele>285.0</ele><time>2026-04-25T14:45:26.228Z</time></trkpt><trkpt lat="45.7063067" lon="9.1664917"><ele>285.0</ele><time>2026-04-25T14:45:27.229Z</time></trkpt><trkpt lat="45.7062067" lon="9.1663083"><ele>285.0</ele><time>2026-04-25T14:45:28.228Z</time></trkpt><trkpt lat="45.7061117" lon="9.1661333"><ele>285.0</ele><time>2026-04-25T14:45:29.227Z</time></trkpt><trkpt lat="45.7060217" lon="9.1659667"><ele>285.0</ele><time>2026-04-25T14:45:30.227Z</time></trkpt><trkpt lat="45.7059367" lon="9.1658067"><ele>285.0</ele><time>2026-04-25T14:45:31.227Z</time></trkpt><trkpt lat="45.7058483" lon="9.1656467"><ele>285.0</ele><time>2026-04-25T14:45:32.228Z</time></trkpt><trkpt lat="45.7057633" lon="9.16548"><ele>285.0</ele><time>2026-04-25T14:45:33.229Z</time></trkpt><trkpt lat="45.705675" lon="9.165315"><ele>285.0</ele><time>2026-04-25T14:45:34.227Z</time></trkpt><trkpt lat="45.7055883" lon="9.1651533"><ele>285.0</ele><time>2026-04-25T14:45:35.227Z</time></trkpt><trkpt lat="45.7055033" lon="9.1649933"><ele>285.25</ele><time>2026-04-25T14:45:36.227Z</time></trkpt><trkpt lat="45.7054183" lon="9.1648383"><ele>285.5</ele><time>2026-04-25T14:45:37.227Z</time></trkpt><trkpt lat="45.7053333" lon="9.164685"><ele>285.75</ele><time>2026-04-25T14:45:38.227Z</time></trkpt><trkpt lat="45.70525" lon="9.1645267"><ele>286.0</ele><time>2026-04-25T14:45:39.228Z</time></trkpt><trkpt lat="45.7051667" lon="9.1643667"><ele>286.25</ele><time>2026-04-25T14:45:40.227Z</time></trkpt><trkpt lat="45.7050783" lon="9.164205"><ele>286.5</ele><time>2026-04-25T14:45:41.228Z</time></trkpt><trkpt lat="45.7049933" lon="9.164035"><ele>286.75</ele><time>2026-04-25T14:45:42.227Z</time></trkpt><trkpt lat="45.7049067" lon="9.16386"><ele>287.0</ele><time>2026-04-25T14:45:43.23Z</time></trkpt><trkpt lat="45.70481" lon="9.16368"><ele>287.33333333333337</ele><time>2026-04-25T14:45:44.227Z</time></trkpt><trkpt lat="45.7047133" lon="9.1634933"><ele>287.6666666666667</ele><time>2026-04-25T14:45:45.227Z</time></trkpt><trkpt lat="45.7046167" lon="9.1633017"><ele>288.0</ele><time>2026-04-25T14:45:46.227Z</time></trkpt><trkpt lat="45.7045233" lon="9.1631133"><ele>287.25</ele><time>2026-04-25T14:45:47.227Z</time></trkpt><trkpt lat="45.7044333" lon="9.1629367"><ele>286.5</ele><time>2026-04-25T14:45:48.227Z</time></trkpt><trkpt lat="45.7043433" lon="9.1627733"><ele>285.75</ele><time>2026-04-25T14:45:49.227Z</time></trkpt><trkpt lat="45.70426" lon="9.1626183"><ele>285.0</ele><time>2026-04-25T14:45:50.228Z</time></trkpt><trkpt lat="45.7041833" lon="9.1624733"><ele>285.0</ele><time>2026-04-25T14:45:51.229Z</time></trkpt><trkpt lat="45.704115" lon="9.1623317"><ele>285.0</ele><time>2026-04-25T14:45:52.227Z</time></trkpt><trkpt lat="45.7040633" lon="9.1621833"><ele>285.0</ele><time>2026-04-25T14:45:53.227Z</time></trkpt><trkpt lat="45.70402" lon="9.1620333"><ele>285.0</ele><time>2026-04-25T14:45:54.227Z</time></trkpt><trkpt lat="45.7039833" lon="9.1618867"><ele>285.0</ele><time>2026-04-25T14:45:55.227Z</time></trkpt><trkpt lat="45.70394" lon="9.1617433"><ele>285.0</ele><time>2026-04-25T14:45:56.227Z</time></trkpt><trkpt lat="45.7038717" lon="9.161615"><ele>285.0</ele><time>2026-04-25T14:45:57.228Z</time></trkpt><trkpt lat="45.7037817" lon="9.1614967"><ele>285.0</ele><time>2026-04-25T14:45:58.227Z</time></trkpt><trkpt lat="45.70368" lon="9.1613917"><ele>284.5</ele><time>2026-04-25T14:45:59.228Z</time></trkpt><trkpt lat="45.7035733" lon="9.1612767"><ele>284.0</ele><time>2026-04-25T14:46:00.228Z</time></trkpt><trkpt lat="45.70347" lon="9.16114"><ele>283.5</ele><time>2026-04-25T14:46:01.227Z</time></trkpt><trkpt lat="45.703375" lon="9.1609767"><ele>283.0</ele><time>2026-04-25T14:46:02.227Z</time></trkpt><trkpt lat="45.7032783" lon="9.1608017"><ele>284.0</ele><time>2026-04-25T14:46:03.227Z</time></trkpt><trkpt lat="45.7031783" lon="9.1606183"><ele>285.0</ele><time>2026-04-25T14:46:04.227Z</time></trkpt><trkpt lat="45.7030833" lon="9.160435"><ele>286.0</ele><time>2026-04-25T14:46:05.227Z</time></trkpt><trkpt lat="45.7029883" lon="9.1602583"><ele>286.0</ele><time>2026-04-25T14:46:06.227Z</time></trkpt><trkpt lat="45.7028983" lon="9.1600867"><ele>286.0</ele><time>2026-04-25T14:46:07.227Z</time></trkpt><trkpt lat="45.7028067" lon="9.159915"><ele>286.0</ele><time>2026-04-25T14:46:08.227Z</time></trkpt><trkpt lat="45.702715" lon="9.1597417"><ele>286.66666666666663</ele><time>2026-04-25T14:46:09.229Z</time></trkpt><trkpt lat="45.70262" lon="9.1595617"><ele>287.3333333333333</ele><time>2026-04-25T14:46:10.227Z</time></trkpt><trkpt lat="45.7025233" lon="9.159375"><ele>288.0</ele><time>2026-04-25T14:46:11.227Z</time></trkpt><trkpt lat="45.702425" lon="9.1591833"><ele>288.6666666666667</ele><time>2026-04-25T14:46:12.23Z</time></trkpt><trkpt lat="45.702325" lon="9.15899"><ele>289.33333333333337</ele><time>2026-04-25T14:46:13.227Z</time></trkpt><trkpt lat="45.7022233" lon="9.1587867"><ele>290.0</ele><time>2026-04-25T14:46:14.23Z</time></trkpt><trkpt lat="45.7021183" lon="9.1585867"><ele>290.0</ele><time>2026-04-25T14:46:15.229Z</time></trkpt><trkpt lat="45.7020133" lon="9.1583833"><ele>290.0</ele><time>2026-04-25T14:46:16.229Z</time></trkpt><trkpt lat="45.7019117" lon="9.158175"><ele>290.0</ele><time>2026-04-25T14:46:17.227Z</time></trkpt><trkpt lat="45.7018183" lon="9.1579617"><ele>290.0</ele><time>2026-04-25T14:46:18.227Z</time></trkpt><trkpt lat="45.7017367" lon="9.15775"><ele>290.0</ele><time>2026-04-25T14:46:19.23Z</time></trkpt><trkpt lat="45.7016733" lon="9.15754"><ele>290.0</ele><time>2026-04-25T14:46:20.227Z</time></trkpt><trkpt lat="45.7016233" lon="9.1573233"><ele>291.33333333333337</ele><time>2026-04-25T14:46:21.227Z</time></trkpt><trkpt lat="45.7015917" lon="9.1570967"><ele>292.6666666666667</ele><time>2026-04-25T14:46:22.228Z</time></trkpt><trkpt lat="45.7015717" lon="9.1568633"><ele>294.0</ele><time>2026-04-25T14:46:23.231Z</time></trkpt><trkpt lat="45.70156" lon="9.156625"><ele>293.6666666666667</ele><time>2026-04-25T14:46:24.228Z</time></trkpt><trkpt lat="45.7015533" lon="9.1563817"><ele>293.33333333333337</ele><time>2026-04-25T14:46:25.229Z</time></trkpt><trkpt lat="45.7015483" lon="9.156135"><ele>293.0</ele><time>2026-04-25T14:46:26.227Z</time></trkpt><trkpt lat="45.7015433" lon="9.1558883"><ele>293.0</ele><time>2026-04-25T14:46:27.229Z</time></trkpt><trkpt lat="45.7015367" lon="9.1556383"><ele>293.0</ele><time>2026-04-25T14:46:28.227Z</time></trkpt><trkpt lat="45.7015283" lon="9.1553883"><ele>293.0</ele><time>2026-04-25T14:46:29.228Z</time></trkpt><trkpt lat="45.7015233" lon="9.155135"><ele>293.0</ele><time>2026-04-25T14:46:30.228Z</time></trkpt><trkpt lat="45.70152" lon="9.1548867"><ele>293.0</ele><time>2026-04-25T14:46:31.23Z</time></trkpt><trkpt lat="45.7015133" lon="9.15464"><ele>293.0</ele><time>2026-04-25T14:46:32.227Z</time></trkpt><trkpt lat="45.701505" lon="9.1544033"><ele>294.0</ele><time>2026-04-25T14:46:33.231Z</time></trkpt><trkpt lat="45.7014933" lon="9.1541733"><ele>295.0</ele><time>2026-04-25T14:46:34.227Z</time></trkpt><trkpt lat="45.7014767" lon="9.1539517"><ele>296.0</ele><time>2026-04-25T14:46:35.228Z</time></trkpt><trkpt lat="45.701455" lon="9.153735"><ele>296.0</ele><time>2026-04-25T14:46:36.229Z</time></trkpt><trkpt lat="45.7014267" lon="9.15352"><ele>296.0</ele><time>2026-04-25T14:46:37.227Z</time></trkpt><trkpt lat="45.701395" lon="9.153305"><ele>296.0</ele><time>2026-04-25T14:46:38.228Z</time></trkpt><trkpt lat="45.7013667" lon="9.1530867"><ele>295.33333333333337</ele><time>2026-04-25T14:46:39.229Z</time></trkpt><trkpt lat="45.7013367" lon="9.15286"><ele>294.6666666666667</ele><time>2026-04-25T14:46:40.228Z</time></trkpt><trkpt lat="45.7013067" lon="9.1526283"><ele>294.0</ele><time>2026-04-25T14:46:41.228Z</time></trkpt><trkpt lat="45.7012767" lon="9.15239"><ele>293.3333333333333</ele><time>2026-04-25T14:46:42.228Z</time></trkpt><trkpt lat="45.7012383" lon="9.15215"><ele>292.66666666666663</ele><time>2026-04-25T14:46:43.227Z</time></trkpt><trkpt lat="45.7012017" lon="9.1519067"><ele>292.0</ele><time>2026-04-25T14:46:44.228Z</time></trkpt><trkpt lat="45.701165" lon="9.1516583"><ele>290.3333333333333</ele><time>2026-04-25T14:46:45.228Z</time></trkpt><trkpt lat="45.701135" lon="9.1514117"><ele>288.6666666666667</ele><time>2026-04-25T14:46:46.229Z</time></trkpt><trkpt lat="45.70111" lon="9.1511617"><ele>287.0</ele><time>2026-04-25T14:46:47.228Z</time></trkpt><trkpt lat="45.7010917" lon="9.1509083"><ele>286.6666666666667</ele><time>2026-04-25T14:46:48.229Z</time></trkpt><trkpt lat="45.701085" lon="9.1506517"><ele>286.3333333333333</ele><time>2026-04-25T14:46:49.229Z</time></trkpt><trkpt lat="45.70109" lon="9.1503933"><ele>286.0</ele><time>2026-04-25T14:46:50.228Z</time></trkpt><trkpt lat="45.701105" lon="9.1501383"><ele>286.0</ele><time>2026-04-25T14:46:51.231Z</time></trkpt><trkpt lat="45.7011217" lon="9.1498883"><ele>286.0</ele><time>2026-04-25T14:46:52.231Z</time></trkpt><trkpt lat="45.70114" lon="9.1496383"><ele>286.0</ele><time>2026-04-25T14:46:53.231Z</time></trkpt><trkpt lat="45.7011567" lon="9.1493917"><ele>286.3333333333333</ele><time>2026-04-25T14:46:54.229Z</time></trkpt><trkpt lat="45.7011733" lon="9.1491433"><ele>286.6666666666667</ele><time>2026-04-25T14:46:55.228Z</time></trkpt><trkpt lat="45.70119" lon="9.1488917"><ele>287.0</ele><time>2026-04-25T14:46:56.228Z</time></trkpt><trkpt lat="45.7012083" lon="9.148645"><ele>287.33333333333337</ele><time>2026-04-25T14:46:57.228Z</time></trkpt><trkpt lat="45.7012267" lon="9.1484017"><ele>287.6666666666667</ele><time>2026-04-25T14:46:58.227Z</time></trkpt><trkpt lat="45.7012433" lon="9.148155"><ele>288.0</ele><time>2026-04-25T14:46:59.229Z</time></trkpt><trkpt lat="45.7012617" lon="9.1479083"><ele>288.3333333333333</ele><time>2026-04-25T14:47:00.228Z</time></trkpt><trkpt lat="45.7012783" lon="9.1476617"><ele>288.66666666666663</ele><time>2026-04-25T14:47:01.228Z</time></trkpt><trkpt lat="45.7012933" lon="9.1474183"><ele>289.0</ele><time>2026-04-25T14:47:02.227Z</time></trkpt><trkpt lat="45.701305" lon="9.1471733"><ele>289.66666666666663</ele><time>2026-04-25T14:47:03.229Z</time></trkpt><trkpt lat="45.70131" lon="9.1469233"><ele>290.3333333333333</ele><time>2026-04-25T14:47:04.229Z</time></trkpt><trkpt lat="45.7013067" lon="9.1466783"><ele>291.0</ele><time>2026-04-25T14:47:05.228Z</time></trkpt><trkpt lat="45.7012983" lon="9.146425"><ele>291.0</ele><time>2026-04-25T14:47:06.227Z</time></trkpt><trkpt lat="45.7012867" lon="9.146175"><ele>291.0</ele><time>2026-04-25T14:47:07.229Z</time></trkpt><trkpt lat="45.701265" lon="9.14593"><ele>291.0</ele><time>2026-04-25T14:47:08.229Z</time></trkpt><trkpt lat="45.7012433" lon="9.145685"><ele>290.6666666666667</ele><time>2026-04-25T14:47:09.229Z</time></trkpt><trkpt lat="45.7012217" lon="9.1454483"><ele>290.33333333333337</ele><time>2026-04-25T14:47:10.228Z</time></trkpt><trkpt lat="45.7012033" lon="9.1452183"><ele>290.0</ele><time>2026-04-25T14:47:11.228Z</time></trkpt><trkpt lat="45.701185" lon="9.1449967"><ele>290.25</ele><time>2026-04-25T14:47:12.229Z</time></trkpt><trkpt lat="45.7011683" lon="9.1447917"><ele>290.5</ele><time>2026-04-25T14:47:13.229Z</time></trkpt><trkpt lat="45.7011517" lon="9.1446033"><ele>290.75</ele><time>2026-04-25T14:47:14.228Z</time></trkpt><trkpt lat="45.7011367" lon="9.1444233"><ele>291.0</ele><time>2026-04-25T14:47:15.229Z</time></trkpt><trkpt lat="45.701125" lon="9.1442533"><ele>291.0</ele><time>2026-04-25T14:47:16.227Z</time></trkpt><trkpt lat="45.7011133" lon="9.1440867"><ele>291.0</ele><time>2026-04-25T14:47:17.228Z</time></trkpt><trkpt lat="45.7011" lon="9.1439117"><ele>291.0</ele><time>2026-04-25T14:47:18.229Z</time></trkpt><trkpt lat="45.7010817" lon="9.1437283"><ele>291.0</ele><time>2026-04-25T14:47:19.228Z</time></trkpt><trkpt lat="45.7010667" lon="9.1435317"><ele>291.0</ele><time>2026-04-25T14:47:20.229Z</time></trkpt><trkpt lat="45.70105" lon="9.14333"><ele>291.0</ele><time>2026-04-25T14:47:21.229Z</time></trkpt><trkpt lat="45.7010333" lon="9.1431283"><ele>291.0</ele><time>2026-04-25T14:47:22.228Z</time></trkpt><trkpt lat="45.7010183" lon="9.142935"><ele>291.0</ele><time>2026-04-25T14:47:23.229Z</time></trkpt><trkpt lat="45.701005" lon="9.1427517"><ele>291.0</ele><time>2026-04-25T14:47:24.228Z</time></trkpt><trkpt lat="45.7009917" lon="9.1425783"><ele>291.0</ele><time>2026-04-25T14:47:25.229Z</time></trkpt><trkpt lat="45.7009767" lon="9.1424183"><ele>291.0</ele><time>2026-04-25T14:47:26.228Z</time></trkpt><trkpt lat="45.7009617" lon="9.14226"><ele>291.0</ele><time>2026-04-25T14:47:27.228Z</time></trkpt><trkpt lat="45.7009483" lon="9.142095"><ele>291.0</ele><time>2026-04-25T14:47:28.227Z</time></trkpt><trkpt lat="45.7009367" lon="9.1419267"><ele>291.0</ele><time>2026-04-25T14:47:29.229Z</time></trkpt><trkpt lat="45.7009217" lon="9.1417533"><ele>291.0</ele><time>2026-04-25T14:47:30.229Z</time></trkpt><trkpt lat="45.7009067" lon="9.1415717"><ele>291.0</ele><time>2026-04-25T14:47:31.229Z</time></trkpt><trkpt lat="45.700895" lon="9.1413867"><ele>290.75</ele><time>2026-04-25T14:47:32.227Z</time></trkpt><trkpt lat="45.70088" lon="9.1412"><ele>290.5</ele><time>2026-04-25T14:47:33.229Z</time></trkpt><trkpt lat="45.7008667" lon="9.1410217"><ele>290.25</ele><time>2026-04-25T14:47:34.228Z</time></trkpt><trkpt lat="45.7008583" lon="9.1408533"><ele>290.0</ele><time>2026-04-25T14:47:35.229Z</time></trkpt><trkpt lat="45.7008517" lon="9.1406967"><ele>289.83333333333337</ele><time>2026-04-25T14:47:36.228Z</time></trkpt><trkpt lat="45.7008483" lon="9.1405517"><ele>289.6666666666667</ele><time>2026-04-25T14:47:37.228Z</time></trkpt><trkpt lat="45.70085" lon="9.1404233"><ele>289.5</ele><time>2026-04-25T14:47:38.227Z</time></trkpt><trkpt lat="45.7008533" lon="9.1403233"><ele>289.3333333333333</ele><time>2026-04-25T14:47:39.229Z</time></trkpt><trkpt lat="45.70086" lon="9.1401883"><ele>289.16666666666663</ele><time>2026-04-25T14:47:41.229Z</time></trkpt><trkpt lat="45.7008733" lon="9.1400767"><ele>289.0</ele><time>2026-04-25T14:47:43.228Z</time></trkpt><trkpt lat="45.700885" lon="9.139915"><ele>289.16666666666663</ele><time>2026-04-25T14:47:45.23Z</time></trkpt><trkpt lat="45.7008783" lon="9.1398233"><ele>289.3333333333333</ele><time>2026-04-25T14:47:46.228Z</time></trkpt><trkpt lat="45.7008617" lon="9.139735"><ele>289.5</ele><time>2026-04-25T14:47:47.228Z</time></trkpt><trkpt lat="45.7008317" lon="9.13964"><ele>289.6666666666667</ele><time>2026-04-25T14:47:48.228Z</time></trkpt><trkpt lat="45.7008067" lon="9.1395317"><ele>289.83333333333337</ele><time>2026-04-25T14:47:49.228Z</time></trkpt><trkpt lat="45.7007967" lon="9.139405"><ele>290.0</ele><time>2026-04-25T14:47:50.228Z</time></trkpt><trkpt lat="45.700795" lon="9.1392467"><ele>290.0</ele><time>2026-04-25T14:47:51.23Z</time></trkpt><trkpt lat="45.7008183" lon="9.1390617"><ele>290.0</ele><time>2026-04-25T14:47:52.23Z</time></trkpt><trkpt lat="45.7008467" lon="9.138855"><ele>290.0</ele><time>2026-04-25T14:47:53.23Z</time></trkpt><trkpt lat="45.7008833" lon="9.138625"><ele>290.0</ele><time>2026-04-25T14:47:54.228Z</time></trkpt><trkpt lat="45.7009233" lon="9.1383783"><ele>290.6666666666667</ele><time>2026-04-25T14:47:55.23Z</time></trkpt><trkpt lat="45.7009667" lon="9.1381183"><ele>291.3333333333333</ele><time>2026-04-25T14:47:56.228Z</time></trkpt><trkpt lat="45.7010117" lon="9.137845"><ele>292.0</ele><time>2026-04-25T14:47:57.228Z</time></trkpt><trkpt lat="45.7010433" lon="9.1375667"><ele>292.0</ele><time>2026-04-25T14:47:58.229Z</time></trkpt><trkpt lat="45.7010567" lon="9.13728"><ele>292.0</ele><time>2026-04-25T14:47:59.228Z</time></trkpt><trkpt lat="45.70105" lon="9.136985"><ele>292.0</ele><time>2026-04-25T14:48:00.227Z</time></trkpt><trkpt lat="45.7010283" lon="9.13668"><ele>292.3333333333333</ele><time>2026-04-25T14:48:01.227Z</time></trkpt><trkpt lat="45.701" lon="9.1363717"><ele>292.6666666666667</ele><time>2026-04-25T14:48:02.228Z</time></trkpt><trkpt lat="45.7009683" lon="9.136065"><ele>293.0</ele><time>2026-04-25T14:48:03.23Z</time></trkpt><trkpt lat="45.7009367" lon="9.1357633"><ele>293.33333333333337</ele><time>2026-04-25T14:48:04.228Z</time></trkpt><trkpt lat="45.7009033" lon="9.13546"><ele>293.6666666666667</ele><time>2026-04-25T14:48:05.23Z</time></trkpt><trkpt lat="45.7008717" lon="9.1351517"><ele>294.0</ele><time>2026-04-25T14:48:06.229Z</time></trkpt><trkpt lat="45.7008383" lon="9.1348433"><ele>293.0</ele><time>2026-04-25T14:48:07.228Z</time></trkpt><trkpt lat="45.7008017" lon="9.1345483"><ele>292.0</ele><time>2026-04-25T14:48:08.229Z</time></trkpt><trkpt lat="45.7007567" lon="9.134275"><ele>291.0</ele><time>2026-04-25T14:48:09.228Z</time></trkpt><trkpt lat="45.7007" lon="9.1340233"><ele>289.3333333333333</ele><time>2026-04-25T14:48:10.229Z</time></trkpt><trkpt lat="45.700625" lon="9.133795"><ele>287.66666666666663</ele><time>2026-04-25T14:48:11.229Z</time></trkpt><trkpt lat="45.70053" lon="9.1335783"><ele>286.0</ele><time>2026-04-25T14:48:12.229Z</time></trkpt><trkpt lat="45.7004167" lon="9.13337"><ele>283.66666666666663</ele><time>2026-04-25T14:48:13.229Z</time></trkpt><trkpt lat="45.7002867" lon="9.1331683"><ele>281.3333333333333</ele><time>2026-04-25T14:48:14.228Z</time></trkpt><trkpt lat="45.700145" lon="9.132965"><ele>279.0</ele><time>2026-04-25T14:48:15.228Z</time></trkpt><trkpt lat="45.6999967" lon="9.1327533"><ele>279.0</ele><time>2026-04-25T14:48:16.232Z</time></trkpt><trkpt lat="45.69984" lon="9.1325267"><ele>279.0</ele><time>2026-04-25T14:48:17.227Z</time></trkpt><trkpt lat="45.6996833" lon="9.1322917"><ele>278.0</ele><time>2026-04-25T14:48:18.229Z</time></trkpt><trkpt lat="45.69953" lon="9.132055"><ele>277.0</ele><time>2026-04-25T14:48:19.23Z</time></trkpt><trkpt lat="45.69938" lon="9.1318233"><ele>276.0</ele><time>2026-04-25T14:48:20.23Z</time></trkpt><trkpt lat="45.69923" lon="9.1315883"><ele>275.5</ele><time>2026-04-25T14:48:21.232Z</time></trkpt><trkpt lat="45.6990783" lon="9.131345"><ele>275.0</ele><time>2026-04-25T14:48:22.229Z</time></trkpt><trkpt lat="45.69893" lon="9.1310983"><ele>275.0</ele><time>2026-04-25T14:48:23.231Z</time></trkpt><trkpt lat="45.6987817" lon="9.13085"><ele>275.0</ele><time>2026-04-25T14:48:24.23Z</time></trkpt><trkpt lat="45.69864" lon="9.130595"><ele>275.0</ele><time>2026-04-25T14:48:25.228Z</time></trkpt><trkpt lat="45.69849" lon="9.13035"><ele>275.0</ele><time>2026-04-25T14:48:26.234Z</time></trkpt><trkpt lat="45.6983333" lon="9.1301"><ele>274.5</ele><time>2026-04-25T14:48:27.229Z</time></trkpt><trkpt lat="45.6981767" lon="9.1298483"><ele>274.0</ele><time>2026-04-25T14:48:28.228Z</time></trkpt><trkpt lat="45.6980267" lon="9.1295983"><ele>274.0</ele><time>2026-04-25T14:48:29.227Z</time></trkpt><trkpt lat="45.6978767" lon="9.1293533"><ele>274.0</ele><time>2026-04-25T14:48:30.228Z</time></trkpt><trkpt lat="45.69773" lon="9.1291167"><ele>274.0</ele><time>2026-04-25T14:48:31.227Z</time></trkpt><trkpt lat="45.6975883" lon="9.1288933"><ele>273.66666666666663</ele><time>2026-04-25T14:48:32.228Z</time></trkpt><trkpt lat="45.697455" lon="9.1286783"><ele>273.3333333333333</ele><time>2026-04-25T14:48:33.23Z</time></trkpt><trkpt lat="45.6973333" lon="9.128485"><ele>273.0</ele><time>2026-04-25T14:48:34.227Z</time></trkpt><trkpt lat="45.6972267" lon="9.1283083"><ele>273.25</ele><time>2026-04-25T14:48:35.228Z</time></trkpt><trkpt lat="45.6971317" lon="9.128145"><ele>273.5</ele><time>2026-04-25T14:48:36.228Z</time></trkpt><trkpt lat="45.69705" lon="9.127995"><ele>273.75</ele><time>2026-04-25T14:48:37.229Z</time></trkpt><trkpt lat="45.6969833" lon="9.12786"><ele>274.0</ele><time>2026-04-25T14:48:38.227Z</time></trkpt><trkpt lat="45.69693" lon="9.1277433"><ele>274.16666666666663</ele><time>2026-04-25T14:48:39.228Z</time></trkpt><trkpt lat="45.6968883" lon="9.12765"><ele>274.3333333333333</ele><time>2026-04-25T14:48:40.229Z</time></trkpt><trkpt lat="45.6968483" lon="9.1275533"><ele>274.5</ele><time>2026-04-25T14:48:42.229Z</time></trkpt><trkpt lat="45.6968133" lon="9.1274217"><ele>274.6666666666667</ele><time>2026-04-25T14:48:46.227Z</time></trkpt><trkpt lat="45.696735" lon="9.1272783"><ele>274.83333333333337</ele><time>2026-04-25T14:48:48.228Z</time></trkpt><trkpt lat="45.6966783" lon="9.127225"><ele>275.0</ele><time>2026-04-25T14:48:49.228Z</time></trkpt><trkpt lat="45.6966117" lon="9.1271717"><ele>275.0</ele><time>2026-04-25T14:48:50.229Z</time></trkpt><trkpt lat="45.6965267" lon="9.1271"><ele>275.0</ele><time>2026-04-25T14:48:51.229Z</time></trkpt><trkpt lat="45.6964333" lon="9.12699"><ele>275.0</ele><time>2026-04-25T14:48:52.228Z</time></trkpt><trkpt lat="45.6963317" lon="9.1268483"><ele>275.0</ele><time>2026-04-25T14:48:53.229Z</time></trkpt><trkpt lat="45.6962283" lon="9.1266833"><ele>275.33333333333337</ele><time>2026-04-25T14:48:54.23Z</time></trkpt><trkpt lat="45.6961233" lon="9.1265067"><ele>275.6666666666667</ele><time>2026-04-25T14:48:55.229Z</time></trkpt><trkpt lat="45.696015" lon="9.1263183"><ele>276.0</ele><time>2026-04-25T14:48:56.229Z</time></trkpt><trkpt lat="45.6959017" lon="9.126135"><ele>274.6666666666667</ele><time>2026-04-25T14:48:57.229Z</time></trkpt><trkpt lat="45.69579" lon="9.12596"><ele>273.33333333333337</ele><time>2026-04-25T14:48:58.228Z</time></trkpt><trkpt lat="45.69569" lon="9.1258"><ele>272.0</ele><time>2026-04-25T14:48:59.228Z</time></trkpt><trkpt lat="45.6955933" lon="9.125645"><ele>272.0</ele><time>2026-04-25T14:49:00.228Z</time></trkpt><trkpt lat="45.6955" lon="9.125505"><ele>272.0</ele><time>2026-04-25T14:49:01.229Z</time></trkpt><trkpt lat="45.69542" lon="9.1253767"><ele>272.0</ele><time>2026-04-25T14:49:02.228Z</time></trkpt><trkpt lat="45.69534" lon="9.1252483"><ele>272.0</ele><time>2026-04-25T14:49:03.229Z</time></trkpt><trkpt lat="45.695265" lon="9.125115"><ele>272.0</ele><time>2026-04-25T14:49:04.228Z</time></trkpt><trkpt lat="45.6951917" lon="9.124975"><ele>272.0</ele><time>2026-04-25T14:49:05.229Z</time></trkpt><trkpt lat="45.6951233" lon="9.12483"><ele>272.0</ele><time>2026-04-25T14:49:06.228Z</time></trkpt><trkpt lat="45.6950617" lon="9.1246867"><ele>272.0</ele><time>2026-04-25T14:49:07.228Z</time></trkpt><trkpt lat="45.69501" lon="9.124555"><ele>272.0</ele><time>2026-04-25T14:49:08.228Z</time></trkpt><trkpt lat="45.694965" lon="9.12442"><ele>272.0</ele><time>2026-04-25T14:49:09.228Z</time></trkpt><trkpt lat="45.6949283" lon="9.124295"><ele>272.0</ele><time>2026-04-25T14:49:10.228Z</time></trkpt><trkpt lat="45.6948967" lon="9.124185"><ele>272.0</ele><time>2026-04-25T14:49:11.228Z</time></trkpt><trkpt lat="45.6948767" lon="9.1240967"><ele>272.0</ele><time>2026-04-25T14:49:12.227Z</time></trkpt><trkpt lat="45.6948633" lon="9.1240067"><ele>272.0</ele><time>2026-04-25T14:49:14.228Z</time></trkpt><trkpt lat="45.69486" lon="9.1239117"><ele>272.2</ele><time>2026-04-25T14:49:16.228Z</time></trkpt><trkpt lat="45.6948517" lon="9.1238183"><ele>272.4</ele><time>2026-04-25T14:49:17.228Z</time></trkpt><trkpt lat="45.6948267" lon="9.1237017"><ele>272.6</ele><time>2026-04-25T14:49:18.231Z</time></trkpt><trkpt lat="45.69479" lon="9.1235667"><ele>272.8</ele><time>2026-04-25T14:49:19.23Z</time></trkpt><trkpt lat="45.6947533" lon="9.1233733"><ele>273.0</ele><time>2026-04-25T14:49:20.229Z</time></trkpt><trkpt lat="45.69473" lon="9.12317"><ele>272.3333333333333</ele><time>2026-04-25T14:49:21.231Z</time></trkpt><trkpt lat="45.6947183" lon="9.1229583"><ele>271.66666666666663</ele><time>2026-04-25T14:49:22.231Z</time></trkpt><trkpt lat="45.6947167" lon="9.1227333"><ele>271.0</ele><time>2026-04-25T14:49:23.229Z</time></trkpt><trkpt lat="45.6947267" lon="9.1224917"><ele>270.66666666666663</ele><time>2026-04-25T14:49:24.229Z</time></trkpt><trkpt lat="45.6947467" lon="9.1222383"><ele>270.3333333333333</ele><time>2026-04-25T14:49:25.228Z</time></trkpt><trkpt lat="45.69477" lon="9.12198"><ele>270.0</ele><time>2026-04-25T14:49:26.228Z</time></trkpt><trkpt lat="45.6947983" lon="9.1217233"><ele>269.6666666666667</ele><time>2026-04-25T14:49:27.229Z</time></trkpt><trkpt lat="45.6948267" lon="9.1214667"><ele>269.33333333333337</ele><time>2026-04-25T14:49:28.228Z</time></trkpt><trkpt lat="45.6948617" lon="9.1212133"><ele>269.0</ele><time>2026-04-25T14:49:29.228Z</time></trkpt><trkpt lat="45.6948967" lon="9.1209617"><ele>268.33333333333337</ele><time>2026-04-25T14:49:30.228Z</time></trkpt><trkpt lat="45.6949283" lon="9.12072"><ele>267.6666666666667</ele><time>2026-04-25T14:49:31.228Z</time></trkpt><trkpt lat="45.6949617" lon="9.120485"><ele>267.0</ele><time>2026-04-25T14:49:32.227Z</time></trkpt><trkpt lat="45.6949917" lon="9.1202617"><ele>267.0</ele><time>2026-04-25T14:49:33.23Z</time></trkpt><trkpt lat="45.6950217" lon="9.12004"><ele>267.0</ele><time>2026-04-25T14:49:34.227Z</time></trkpt><trkpt lat="45.6950517" lon="9.1198017"><ele>267.0</ele><time>2026-04-25T14:49:35.228Z</time></trkpt><trkpt lat="45.695085" lon="9.1195417"><ele>262.3333333333333</ele><time>2026-04-25T14:49:36.228Z</time></trkpt><trkpt lat="45.69512" lon="9.1192667"><ele>257.66666666666663</ele><time>2026-04-25T14:49:37.228Z</time></trkpt><trkpt lat="45.69516" lon="9.1189967"><ele>253.0</ele><time>2026-04-25T14:49:38.229Z</time></trkpt><trkpt lat="45.6951983" lon="9.1187367"><ele>254.0</ele><time>2026-04-25T14:49:39.229Z</time></trkpt><trkpt lat="45.69523" lon="9.1184833"><ele>255.0</ele><time>2026-04-25T14:49:40.229Z</time></trkpt><trkpt lat="45.6952567" lon="9.1182367"><ele>256.0</ele><time>2026-04-25T14:49:41.229Z</time></trkpt><trkpt lat="45.6952683" lon="9.1179917"><ele>252.0</ele><time>2026-04-25T14:49:42.228Z</time></trkpt><trkpt lat="45.6952717" lon="9.11774"><ele>248.0</ele><time>2026-04-25T14:49:43.228Z</time></trkpt><trkpt lat="45.69526" lon="9.1174833"><ele>244.0</ele><time>2026-04-25T14:49:44.228Z</time></trkpt><trkpt lat="45.6952383" lon="9.1172283"><ele>241.33333333333331</ele><time>2026-04-25T14:49:45.229Z</time></trkpt><trkpt lat="45.69521" lon="9.11698"><ele>238.66666666666669</ele><time>2026-04-25T14:49:46.228Z</time></trkpt><trkpt lat="45.6951733" lon="9.1167383"><ele>236.0</ele><time>2026-04-25T14:49:47.227Z</time></trkpt><trkpt lat="45.69513" lon="9.1165033"><ele>236.0</ele><time>2026-04-25T14:49:48.229Z</time></trkpt><trkpt lat="45.6950767" lon="9.1162767"><ele>236.0</ele><time>2026-04-25T14:49:49.228Z</time></trkpt><trkpt lat="45.695015" lon="9.11605"><ele>236.0</ele><time>2026-04-25T14:49:50.228Z</time></trkpt><trkpt lat="45.6949417" lon="9.1158267"><ele>236.0</ele><time>2026-04-25T14:49:51.228Z</time></trkpt><trkpt lat="45.6948583" lon="9.1156133"><ele>236.0</ele><time>2026-04-25T14:49:52.228Z</time></trkpt><trkpt lat="45.6947667" lon="9.1154083"><ele>236.0</ele><time>2026-04-25T14:49:53.228Z</time></trkpt><trkpt lat="45.6946783" lon="9.1152233"><ele>236.0</ele><time>2026-04-25T14:49:54.227Z</time></trkpt><trkpt lat="45.6945917" lon="9.1150517"><ele>236.0</ele><time>2026-04-25T14:49:55.227Z</time></trkpt><trkpt lat="45.6945033" lon="9.1148817"><ele>236.0</ele><time>2026-04-25T14:49:56.229Z</time></trkpt><trkpt lat="45.6944133" lon="9.1147083"><ele>236.0</ele><time>2026-04-25T14:49:57.23Z</time></trkpt><trkpt lat="45.6943217" lon="9.1145367"><ele>236.0</ele><time>2026-04-25T14:49:58.228Z</time></trkpt><trkpt lat="45.6942333" lon="9.1143683"><ele>236.0</ele><time>2026-04-25T14:49:59.228Z</time></trkpt><trkpt lat="45.6941483" lon="9.11421"><ele>236.0</ele><time>2026-04-25T14:50:00.229Z</time></trkpt><trkpt lat="45.6940667" lon="9.1140633"><ele>236.0</ele><time>2026-04-25T14:50:01.229Z</time></trkpt><trkpt lat="45.6939833" lon="9.1139117"><ele>236.0</ele><time>2026-04-25T14:50:02.228Z</time></trkpt><trkpt lat="45.6938983" lon="9.1137583"><ele>236.0</ele><time>2026-04-25T14:50:03.228Z</time></trkpt><trkpt lat="45.6938133" lon="9.1136017"><ele>236.0</ele><time>2026-04-25T14:50:04.228Z</time></trkpt><trkpt lat="45.69373" lon="9.1134433"><ele>236.0</ele><time>2026-04-25T14:50:05.227Z</time></trkpt><trkpt lat="45.6936483" lon="9.113285"><ele>237.25</ele><time>2026-04-25T14:50:06.228Z</time></trkpt><trkpt lat="45.6935667" lon="9.11313"><ele>238.5</ele><time>2026-04-25T14:50:07.227Z</time></trkpt><trkpt lat="45.693485" lon="9.11298"><ele>239.75</ele><time>2026-04-25T14:50:08.23Z</time></trkpt><trkpt lat="45.6934067" lon="9.112835"><ele>241.0</ele><time>2026-04-25T14:50:09.229Z</time></trkpt><trkpt lat="45.693325" lon="9.112685"><ele>241.0</ele><time>2026-04-25T14:50:10.229Z</time></trkpt><trkpt lat="45.6932417" lon="9.11253"><ele>241.0</ele><time>2026-04-25T14:50:11.228Z</time></trkpt><trkpt lat="45.6931567" lon="9.1123683"><ele>241.0</ele><time>2026-04-25T14:50:12.228Z</time></trkpt><trkpt lat="45.69307" lon="9.1121983"><ele>241.0</ele><time>2026-04-25T14:50:13.228Z</time></trkpt><trkpt lat="45.69298" lon="9.1120267"><ele>241.66666666666666</ele><time>2026-04-25T14:50:14.228Z</time></trkpt><trkpt lat="45.6928867" lon="9.11185"><ele>242.33333333333331</ele><time>2026-04-25T14:50:15.228Z</time></trkpt><trkpt lat="45.6927883" lon="9.11167"><ele>243.0</ele><time>2026-04-25T14:50:16.229Z</time></trkpt><trkpt lat="45.692685" lon="9.1114833"><ele>244.66666666666669</ele><time>2026-04-25T14:50:17.229Z</time></trkpt><trkpt lat="45.69258" lon="9.1112967"><ele>246.33333333333334</ele><time>2026-04-25T14:50:18.229Z</time></trkpt><trkpt lat="45.69248" lon="9.111115"><ele>248.0</ele><time>2026-04-25T14:50:19.228Z</time></trkpt><trkpt lat="45.6923883" lon="9.1109467"><ele>248.0</ele><time>2026-04-25T14:50:20.229Z</time></trkpt><trkpt lat="45.6923033" lon="9.1107933"><ele>248.0</ele><time>2026-04-25T14:50:21.229Z</time></trkpt><trkpt lat="45.692225" lon="9.1106517"><ele>248.0</ele><time>2026-04-25T14:50:22.227Z</time></trkpt><trkpt lat="45.6921483" lon="9.11051"><ele>248.0</ele><time>2026-04-25T14:50:23.229Z</time></trkpt><trkpt lat="45.6920733" lon="9.1103717"><ele>247.75</ele><time>2026-04-25T14:50:24.227Z</time></trkpt><trkpt lat="45.691995" lon="9.11023"><ele>247.5</ele><time>2026-04-25T14:50:25.229Z</time></trkpt><trkpt lat="45.691915" lon="9.11008"><ele>247.25</ele><time>2026-04-25T14:50:26.228Z</time></trkpt><trkpt lat="45.6918383" lon="9.109925"><ele>247.0</ele><time>2026-04-25T14:50:27.229Z</time></trkpt><trkpt lat="45.6917567" lon="9.109765"><ele>250.0</ele><time>2026-04-25T14:50:28.229Z</time></trkpt><trkpt lat="45.6916733" lon="9.109605"><ele>253.0</ele><time>2026-04-25T14:50:29.229Z</time></trkpt><trkpt lat="45.691585" lon="9.1094417"><ele>256.0</ele><time>2026-04-25T14:50:30.229Z</time></trkpt><trkpt lat="45.69149" lon="9.109275"><ele>259.0</ele><time>2026-04-25T14:50:31.228Z</time></trkpt><trkpt lat="45.691395" lon="9.109105"><ele>261.0</ele><time>2026-04-25T14:50:32.228Z</time></trkpt><trkpt lat="45.6912983" lon="9.1089283"><ele>263.0</ele><time>2026-04-25T14:50:33.229Z</time></trkpt><trkpt lat="45.6912017" lon="9.1087433"><ele>265.0</ele><time>2026-04-25T14:50:34.227Z</time></trkpt><trkpt lat="45.6911033" lon="9.1085633"><ele>266.25</ele><time>2026-04-25T14:50:35.229Z</time></trkpt><trkpt lat="45.6910083" lon="9.108385"><ele>267.5</ele><time>2026-04-25T14:50:36.228Z</time></trkpt><trkpt lat="45.6909183" lon="9.1082183"><ele>268.75</ele><time>2026-04-25T14:50:37.228Z</time></trkpt><trkpt lat="45.6908417" lon="9.10807"><ele>270.0</ele><time>2026-04-25T14:50:38.229Z</time></trkpt><trkpt lat="45.6907767" lon="9.1079317"><ele>270.4</ele><time>2026-04-25T14:50:39.232Z</time></trkpt><trkpt lat="45.6907167" lon="9.1078"><ele>270.8</ele><time>2026-04-25T14:50:40.229Z</time></trkpt><trkpt lat="45.6906617" lon="9.10767"><ele>271.2</ele><time>2026-04-25T14:50:41.229Z</time></trkpt><trkpt lat="45.6906133" lon="9.1075433"><ele>271.6</ele><time>2026-04-25T14:50:42.229Z</time></trkpt><trkpt lat="45.6905717" lon="9.1074183"><ele>272.0</ele><time>2026-04-25T14:50:43.228Z</time></trkpt><trkpt lat="45.6905333" lon="9.1073033"><ele>272.0</ele><time>2026-04-25T14:50:44.229Z</time></trkpt><trkpt lat="45.6904983" lon="9.1071867"><ele>272.0</ele><time>2026-04-25T14:50:45.229Z</time></trkpt><trkpt lat="45.69046" lon="9.1070733"><ele>272.0</ele><time>2026-04-25T14:50:46.23Z</time></trkpt><trkpt lat="45.6904233" lon="9.1069733"><ele>272.0</ele><time>2026-04-25T14:50:47.229Z</time></trkpt><trkpt lat="45.6903783" lon="9.1068367"><ele>272.0</ele><time>2026-04-25T14:50:49.23Z</time></trkpt><trkpt lat="45.6903617" lon="9.1067467"><ele>272.0</ele><time>2026-04-25T14:50:51.23Z</time></trkpt><trkpt lat="45.6903567" lon="9.1066483"><ele>272.0</ele><time>2026-04-25T14:50:53.229Z</time></trkpt><trkpt lat="45.6903717" lon="9.1064767"><ele>272.0</ele><time>2026-04-25T14:50:55.229Z</time></trkpt><trkpt lat="45.690385" lon="9.1063767"><ele>272.0</ele><time>2026-04-25T14:50:56.229Z</time></trkpt><trkpt lat="45.690405" lon="9.1062783"><ele>272.0</ele><time>2026-04-25T14:50:57.231Z</time></trkpt><trkpt lat="45.690435" lon="9.1061783"><ele>272.0</ele><time>2026-04-25T14:50:58.227Z</time></trkpt><trkpt lat="45.6904733" lon="9.1060783"><ele>272.0</ele><time>2026-04-25T14:50:59.228Z</time></trkpt><trkpt lat="45.69052" lon="9.105975"><ele>272.0</ele><time>2026-04-25T14:51:00.228Z</time></trkpt><trkpt lat="45.690575" lon="9.105875"><ele>272.0</ele><time>2026-04-25T14:51:01.227Z</time></trkpt><trkpt lat="45.69063" lon="9.1057667"><ele>272.0</ele><time>2026-04-25T14:51:02.228Z</time></trkpt><trkpt lat="45.6906967" lon="9.1056517"><ele>272.0</ele><time>2026-04-25T14:51:03.229Z</time></trkpt><trkpt lat="45.690775" lon="9.1055317"><ele>272.0</ele><time>2026-04-25T14:51:04.229Z</time></trkpt><trkpt lat="45.6908617" lon="9.1054083"><ele>272.25</ele><time>2026-04-25T14:51:05.228Z</time></trkpt><trkpt lat="45.6909483" lon="9.1052817"><ele>272.5</ele><time>2026-04-25T14:51:06.228Z</time></trkpt><trkpt lat="45.6910367" lon="9.105155"><ele>272.75</ele><time>2026-04-25T14:51:07.229Z</time></trkpt><trkpt lat="45.6911233" lon="9.1050267"><ele>273.0</ele><time>2026-04-25T14:51:08.228Z</time></trkpt><trkpt lat="45.6912167" lon="9.1048933"><ele>273.25</ele><time>2026-04-25T14:51:09.229Z</time></trkpt><trkpt lat="45.6913083" lon="9.10476"><ele>273.5</ele><time>2026-04-25T14:51:10.228Z</time></trkpt><trkpt lat="45.6914017" lon="9.1046217"><ele>273.75</ele><time>2026-04-25T14:51:11.228Z</time></trkpt><trkpt lat="45.691495" lon="9.104485"><ele>274.0</ele><time>2026-04-25T14:51:12.23Z</time></trkpt><trkpt lat="45.6915867" lon="9.1043517"><ele>274.0</ele><time>2026-04-25T14:51:13.227Z</time></trkpt><trkpt lat="45.6916767" lon="9.10422"><ele>274.0</ele><time>2026-04-25T14:51:14.227Z</time></trkpt><trkpt lat="45.6917683" lon="9.1040883"><ele>274.0</ele><time>2026-04-25T14:51:15.228Z</time></trkpt><trkpt lat="45.6918567" lon="9.1039583"><ele>274.0</ele><time>2026-04-25T14:51:16.228Z</time></trkpt><trkpt lat="45.69195" lon="9.1038267"><ele>274.0</ele><time>2026-04-25T14:51:17.228Z</time></trkpt><trkpt lat="45.6920417" lon="9.1036983"><ele>274.0</ele><time>2026-04-25T14:51:18.229Z</time></trkpt><trkpt lat="45.6921367" lon="9.1035683"><ele>274.0</ele><time>2026-04-25T14:51:19.229Z</time></trkpt><trkpt lat="45.6922267" lon="9.1034367"><ele>274.0</ele><time>2026-04-25T14:51:20.229Z</time></trkpt><trkpt lat="45.6923167" lon="9.1033017"><ele>274.25</ele><time>2026-04-25T14:51:21.231Z</time></trkpt><trkpt lat="45.69241" lon="9.103165"><ele>274.5</ele><time>2026-04-25T14:51:22.23Z</time></trkpt><trkpt lat="45.6925" lon="9.10303"><ele>274.75</ele><time>2026-04-25T14:51:23.23Z</time></trkpt><trkpt lat="45.692585" lon="9.1029"><ele>275.0</ele><time>2026-04-25T14:51:24.228Z</time></trkpt><trkpt lat="45.6926733" lon="9.1027717"><ele>275.25</ele><time>2026-04-25T14:51:25.23Z</time></trkpt><trkpt lat="45.69276" lon="9.102645"><ele>275.5</ele><time>2026-04-25T14:51:26.23Z</time></trkpt><trkpt lat="45.692845" lon="9.1025183"><ele>275.75</ele><time>2026-04-25T14:51:27.23Z</time></trkpt><trkpt lat="45.6929283" lon="9.1023917"><ele>276.0</ele><time>2026-04-25T14:51:28.233Z</time></trkpt><trkpt lat="45.6930183" lon="9.102265"><ele>275.5</ele><time>2026-04-25T14:51:29.229Z</time></trkpt><trkpt lat="45.6931067" lon="9.1021433"><ele>275.0</ele><time>2026-04-25T14:51:30.229Z</time></trkpt><trkpt lat="45.6932" lon="9.1020267"><ele>274.5</ele><time>2026-04-25T14:51:31.228Z</time></trkpt><trkpt lat="45.6932983" lon="9.1019217"><ele>274.0</ele><time>2026-04-25T14:51:32.228Z</time></trkpt><trkpt lat="45.6934" lon="9.10182"><ele>274.0</ele><time>2026-04-25T14:51:33.228Z</time></trkpt><trkpt lat="45.6935" lon="9.101725"><ele>274.0</ele><time>2026-04-25T14:51:34.228Z</time></trkpt><trkpt lat="45.693595" lon="9.1016283"><ele>274.0</ele><time>2026-04-25T14:51:35.228Z</time></trkpt><trkpt lat="45.69369" lon="9.1015217"><ele>274.0</ele><time>2026-04-25T14:51:36.229Z</time></trkpt><trkpt lat="45.6937783" lon="9.1014"><ele>274.5</ele><time>2026-04-25T14:51:37.229Z</time></trkpt><trkpt lat="45.6938633" lon="9.1012583"><ele>275.0</ele><time>2026-04-25T14:51:38.229Z</time></trkpt><trkpt lat="45.6939417" lon="9.10111"><ele>275.5</ele><time>2026-04-25T14:51:39.228Z</time></trkpt><trkpt lat="45.6940083" lon="9.10096"><ele>276.0</ele><time>2026-04-25T14:51:40.23Z</time></trkpt><trkpt lat="45.694075" lon="9.1008167"><ele>276.0</ele><time>2026-04-25T14:51:41.23Z</time></trkpt><trkpt lat="45.6941433" lon="9.100675"><ele>276.0</ele><time>2026-04-25T14:51:42.227Z</time></trkpt><trkpt lat="45.6942167" lon="9.1005317"><ele>276.0</ele><time>2026-04-25T14:51:43.229Z</time></trkpt><trkpt lat="45.6942967" lon="9.100395"><ele>276.0</ele><time>2026-04-25T14:51:44.229Z</time></trkpt><trkpt lat="45.6943733" lon="9.1002667"><ele>275.5</ele><time>2026-04-25T14:51:45.229Z</time></trkpt><trkpt lat="45.6944517" lon="9.1001433"><ele>275.0</ele><time>2026-04-25T14:51:46.228Z</time></trkpt><trkpt lat="45.6945267" lon="9.10001"><ele>274.5</ele><time>2026-04-25T14:51:47.228Z</time></trkpt><trkpt lat="45.6945867" lon="9.0998633"><ele>274.0</ele><time>2026-04-25T14:51:48.229Z</time></trkpt><trkpt lat="45.6946317" lon="9.099705"><ele>274.8</ele><time>2026-04-25T14:51:49.229Z</time></trkpt><trkpt lat="45.694665" lon="9.09954"><ele>275.59999999999997</ele><time>2026-04-25T14:51:50.229Z</time></trkpt><trkpt lat="45.6946917" lon="9.099375"><ele>276.4</ele><time>2026-04-25T14:51:51.23Z</time></trkpt><trkpt lat="45.69472" lon="9.099225"><ele>277.2</ele><time>2026-04-25T14:51:52.23Z</time></trkpt><trkpt lat="45.694755" lon="9.0990883"><ele>278.0</ele><time>2026-04-25T14:51:53.229Z</time></trkpt><trkpt lat="45.694805" lon="9.0989617"><ele>278.2</ele><time>2026-04-25T14:51:54.229Z</time></trkpt><trkpt lat="45.6948717" lon="9.0988483"><ele>278.4</ele><time>2026-04-25T14:51:55.23Z</time></trkpt><trkpt lat="45.6949483" lon="9.0987517"><ele>278.59999999999997</ele><time>2026-04-25T14:51:56.229Z</time></trkpt><trkpt lat="45.6950383" lon="9.09867"><ele>278.8</ele><time>2026-04-25T14:51:57.23Z</time></trkpt><trkpt lat="45.6951317" lon="9.0986067"><ele>279.0</ele><time>2026-04-25T14:51:58.231Z</time></trkpt><trkpt lat="45.69523" lon="9.0985533"><ele>279.0</ele><time>2026-04-25T14:51:59.23Z</time></trkpt><trkpt lat="45.6953383" lon="9.0985017"><ele>279.0</ele><time>2026-04-25T14:52:00.229Z</time></trkpt><trkpt lat="45.69546" lon="9.098445"><ele>279.0</ele><time>2026-04-25T14:52:01.229Z</time></trkpt><trkpt lat="45.6955817" lon="9.0983783"><ele>279.0</ele><time>2026-04-25T14:52:02.229Z</time></trkpt><trkpt lat="45.6956983" lon="9.0983067"><ele>279.75</ele><time>2026-04-25T14:52:03.229Z</time></trkpt><trkpt lat="45.6958133" lon="9.098225"><ele>280.5</ele><time>2026-04-25T14:52:04.228Z</time></trkpt><trkpt lat="45.69593" lon="9.098135"><ele>281.25</ele><time>2026-04-25T14:52:05.228Z</time></trkpt><trkpt lat="45.6960467" lon="9.0980367"><ele>282.0</ele><time>2026-04-25T14:52:06.23Z</time></trkpt><trkpt lat="45.6961667" lon="9.0979333"><ele>282.0</ele><time>2026-04-25T14:52:07.229Z</time></trkpt><trkpt lat="45.6962883" lon="9.0978333"><ele>282.0</ele><time>2026-04-25T14:52:08.229Z</time></trkpt><trkpt lat="45.696415" lon="9.097735"><ele>282.0</ele><time>2026-04-25T14:52:09.228Z</time></trkpt><trkpt lat="45.6965417" lon="9.0976417"><ele>282.0</ele><time>2026-04-25T14:52:10.228Z</time></trkpt><trkpt lat="45.6966717" lon="9.0975533"><ele>282.0</ele><time>2026-04-25T14:52:11.227Z</time></trkpt><trkpt lat="45.6967917" lon="9.0974717"><ele>282.0</ele><time>2026-04-25T14:52:12.229Z</time></trkpt><trkpt lat="45.6969017" lon="9.0974017"><ele>282.0</ele><time>2026-04-25T14:52:13.23Z</time></trkpt><trkpt lat="45.6969967" lon="9.097345"><ele>282.0</ele><time>2026-04-25T14:52:14.227Z</time></trkpt><trkpt lat="45.69709" lon="9.0972983"><ele>283.0</ele><time>2026-04-25T14:52:15.229Z</time></trkpt><trkpt lat="45.6971833" lon="9.0972683"><ele>284.0</ele><time>2026-04-25T14:52:16.229Z</time></trkpt><trkpt lat="45.69728" lon="9.0972483"><ele>285.0</ele><time>2026-04-25T14:52:17.231Z</time></trkpt><trkpt lat="45.6973783" lon="9.0972367"><ele>286.0</ele><time>2026-04-25T14:52:18.228Z</time></trkpt><trkpt lat="45.697475" lon="9.0972167"><ele>287.0</ele><time>2026-04-25T14:52:19.228Z</time></trkpt><trkpt lat="45.6975567" lon="9.0971833"><ele>287.0</ele><time>2026-04-25T14:52:20.23Z</time></trkpt><trkpt lat="45.6976317" lon="9.0971233"><ele>287.0</ele><time>2026-04-25T14:52:21.229Z</time></trkpt><trkpt lat="45.697695" lon="9.09704"><ele>287.0</ele><time>2026-04-25T14:52:22.23Z</time></trkpt><trkpt lat="45.6977167" lon="9.096935"><ele>287.0</ele><time>2026-04-25T14:52:23.231Z</time></trkpt><trkpt lat="45.69772" lon="9.0968217"><ele>287.0</ele><time>2026-04-25T14:52:24.23Z</time></trkpt><trkpt lat="45.697695" lon="9.096715"><ele>287.0</ele><time>2026-04-25T14:52:25.23Z</time></trkpt><trkpt lat="45.69764" lon="9.0966233"><ele>287.4</ele><time>2026-04-25T14:52:26.23Z</time></trkpt><trkpt lat="45.6975567" lon="9.0965483"><ele>287.79999999999995</ele><time>2026-04-25T14:52:27.232Z</time></trkpt><trkpt lat="45.6974633" lon="9.096485"><ele>288.2</ele><time>2026-04-25T14:52:28.231Z</time></trkpt><trkpt lat="45.6973683" lon="9.09641"><ele>288.59999999999997</ele><time>2026-04-25T14:52:29.229Z</time></trkpt><trkpt lat="45.6972817" lon="9.0963033"><ele>289.0</ele><time>2026-04-25T14:52:30.229Z</time></trkpt><trkpt lat="45.6972033" lon="9.0961783"><ele>289.0</ele><time>2026-04-25T14:52:31.229Z</time></trkpt><trkpt lat="45.697135" lon="9.09603"><ele>289.0</ele><time>2026-04-25T14:52:32.228Z</time></trkpt><trkpt lat="45.6970767" lon="9.0958667"><ele>289.0</ele><time>2026-04-25T14:52:33.228Z</time></trkpt><trkpt lat="45.6970283" lon="9.095695"><ele>289.0</ele><time>2026-04-25T14:52:34.228Z</time></trkpt><trkpt lat="45.696985" lon="9.0955183"><ele>287.5</ele><time>2026-04-25T14:52:35.229Z</time></trkpt><trkpt lat="45.6969467" lon="9.0953333"><ele>286.0</ele><time>2026-04-25T14:52:36.229Z</time></trkpt><trkpt lat="45.6969133" lon="9.0951467"><ele>284.5</ele><time>2026-04-25T14:52:37.229Z</time></trkpt><trkpt lat="45.6968817" lon="9.0949583"><ele>283.0</ele><time>2026-04-25T14:52:38.228Z</time></trkpt><trkpt lat="45.69685" lon="9.09478"><ele>283.0</ele><time>2026-04-25T14:52:39.229Z</time></trkpt><trkpt lat="45.6968183" lon="9.09461"><ele>283.0</ele><time>2026-04-25T14:52:40.228Z</time></trkpt><trkpt lat="45.6967883" lon="9.0944383"><ele>283.0</ele><time>2026-04-25T14:52:41.232Z</time></trkpt><trkpt lat="45.6967583" lon="9.0942633"><ele>283.0</ele><time>2026-04-25T14:52:42.228Z</time></trkpt><trkpt lat="45.696725" lon="9.0940783"><ele>283.25</ele><time>2026-04-25T14:52:43.227Z</time></trkpt><trkpt lat="45.696695" lon="9.0938833"><ele>283.5</ele><time>2026-04-25T14:52:44.228Z</time></trkpt><trkpt lat="45.6966683" lon="9.0936817"><ele>283.75</ele><time>2026-04-25T14:52:45.229Z</time></trkpt><trkpt lat="45.6966533" lon="9.0934717"><ele>284.0</ele><time>2026-04-25T14:52:46.228Z</time></trkpt><trkpt lat="45.69665" lon="9.0932433"><ele>284.33333333333337</ele><time>2026-04-25T14:52:47.228Z</time></trkpt><trkpt lat="45.6966667" lon="9.092995"><ele>284.6666666666667</ele><time>2026-04-25T14:52:48.229Z</time></trkpt><trkpt lat="45.696695" lon="9.0927367"><ele>285.0</ele><time>2026-04-25T14:52:49.228Z</time></trkpt><trkpt lat="45.6967333" lon="9.0924717"><ele>285.6666666666667</ele><time>2026-04-25T14:52:50.233Z</time></trkpt><trkpt lat="45.6967733" lon="9.092195"><ele>286.33333333333337</ele><time>2026-04-25T14:52:51.229Z</time></trkpt><trkpt lat="45.6968117" lon="9.09192"><ele>287.0</ele><time>2026-04-25T14:52:52.229Z</time></trkpt><trkpt lat="45.6968467" lon="9.0916467"><ele>287.6666666666667</ele><time>2026-04-25T14:52:53.23Z</time></trkpt><trkpt lat="45.69688" lon="9.091375"><ele>288.3333333333333</ele><time>2026-04-25T14:52:54.231Z</time></trkpt><trkpt lat="45.696905" lon="9.0911017"><ele>289.0</ele><time>2026-04-25T14:52:55.231Z</time></trkpt><trkpt lat="45.6969133" lon="9.09083"><ele>288.66666666666663</ele><time>2026-04-25T14:52:56.231Z</time></trkpt><trkpt lat="45.6969017" lon="9.090555"><ele>288.3333333333333</ele><time>2026-04-25T14:52:57.231Z</time></trkpt><trkpt lat="45.6968683" lon="9.0902867"><ele>288.0</ele><time>2026-04-25T14:52:58.23Z</time></trkpt><trkpt lat="45.6968217" lon="9.0900183"><ele>287.6666666666667</ele><time>2026-04-25T14:52:59.229Z</time></trkpt><trkpt lat="45.69676" lon="9.0897583"><ele>287.33333333333337</ele><time>2026-04-25T14:53:00.228Z</time></trkpt><trkpt lat="45.6966933" lon="9.089505"><ele>287.0</ele><time>2026-04-25T14:53:01.229Z</time></trkpt><trkpt lat="45.6966233" lon="9.0892483"><ele>287.0</ele><time>2026-04-25T14:53:02.228Z</time></trkpt><trkpt lat="45.6965533" lon="9.088995"><ele>287.0</ele><time>2026-04-25T14:53:03.229Z</time></trkpt><trkpt lat="45.6964817" lon="9.0887433"><ele>287.0</ele><time>2026-04-25T14:53:04.228Z</time></trkpt><trkpt lat="45.6964133" lon="9.0884983"><ele>287.0</ele><time>2026-04-25T14:53:05.229Z</time></trkpt><trkpt lat="45.69635" lon="9.0882617"><ele>287.0</ele><time>2026-04-25T14:53:06.228Z</time></trkpt><trkpt lat="45.69629" lon="9.0880433"><ele>287.0</ele><time>2026-04-25T14:53:07.229Z</time></trkpt><trkpt lat="45.69623" lon="9.0878367"><ele>286.5</ele><time>2026-04-25T14:53:08.233Z</time></trkpt><trkpt lat="45.6961783" lon="9.08764"><ele>286.0</ele><time>2026-04-25T14:53:09.229Z</time></trkpt><trkpt lat="45.6961317" lon="9.0874583"><ele>285.5</ele><time>2026-04-25T14:53:10.229Z</time></trkpt><trkpt lat="45.6960883" lon="9.0873017"><ele>285.0</ele><time>2026-04-25T14:53:11.229Z</time></trkpt><trkpt lat="45.6960517" lon="9.0871467"><ele>285.0</ele><time>2026-04-25T14:53:12.228Z</time></trkpt><trkpt lat="45.69602" lon="9.087005"><ele>285.0</ele><time>2026-04-25T14:53:13.229Z</time></trkpt><trkpt lat="45.6959983" lon="9.0868883"><ele>285.0</ele><time>2026-04-25T14:53:14.229Z</time></trkpt><trkpt lat="45.695985" lon="9.0867867"><ele>285.0</ele><time>2026-04-25T14:53:15.228Z</time></trkpt><trkpt lat="45.69598" lon="9.08669"><ele>285.0</ele><time>2026-04-25T14:53:16.228Z</time></trkpt><trkpt lat="45.6959817" lon="9.0865933"><ele>285.0</ele><time>2026-04-25T14:53:17.229Z</time></trkpt><trkpt lat="45.69599" lon="9.08649"><ele>284.6666666666667</ele><time>2026-04-25T14:53:18.229Z</time></trkpt><trkpt lat="45.69599" lon="9.0863967"><ele>284.3333333333333</ele><time>2026-04-25T14:53:19.229Z</time></trkpt><trkpt lat="45.6959817" lon="9.0862983"><ele>284.0</ele><time>2026-04-25T14:53:20.23Z</time></trkpt><trkpt lat="45.69596" lon="9.0861983"><ele>283.66666666666663</ele><time>2026-04-25T14:53:21.23Z</time></trkpt><trkpt lat="45.69593" lon="9.086085"><ele>283.3333333333333</ele><time>2026-04-25T14:53:22.231Z</time></trkpt><trkpt lat="45.6959" lon="9.085955"><ele>283.0</ele><time>2026-04-25T14:53:23.231Z</time></trkpt><trkpt lat="45.695875" lon="9.0858133"><ele>283.25</ele><time>2026-04-25T14:53:24.229Z</time></trkpt><trkpt lat="45.69585" lon="9.085655"><ele>283.5</ele><time>2026-04-25T14:53:25.229Z</time></trkpt><trkpt lat="45.6958333" lon="9.0854883"><ele>283.75</ele><time>2026-04-25T14:53:26.228Z</time></trkpt><trkpt lat="45.6958217" lon="9.0853183"><ele>284.0</ele><time>2026-04-25T14:53:27.23Z</time></trkpt><trkpt lat="45.69581" lon="9.0851433"><ele>284.0</ele><time>2026-04-25T14:53:28.228Z</time></trkpt><trkpt lat="45.6957983" lon="9.0849533"><ele>284.0</ele><time>2026-04-25T14:53:29.228Z</time></trkpt><trkpt lat="45.6957883" lon="9.0847567"><ele>284.0</ele><time>2026-04-25T14:53:30.229Z</time></trkpt><trkpt lat="45.6957767" lon="9.0845583"><ele>284.0</ele><time>2026-04-25T14:53:31.228Z</time></trkpt><trkpt lat="45.6957633" lon="9.0843617"><ele>283.5</ele><time>2026-04-25T14:53:32.228Z</time></trkpt><trkpt lat="45.6957483" lon="9.08416"><ele>283.0</ele><time>2026-04-25T14:53:33.229Z</time></trkpt><trkpt lat="45.6957317" lon="9.0839583"><ele>282.5</ele><time>2026-04-25T14:53:34.228Z</time></trkpt><trkpt lat="45.69571" lon="9.0837583"><ele>282.0</ele><time>2026-04-25T14:53:35.227Z</time></trkpt><trkpt lat="45.6956833" lon="9.0835533"><ele>281.3333333333333</ele><time>2026-04-25T14:53:36.229Z</time></trkpt><trkpt lat="45.6956467" lon="9.083335"><ele>280.66666666666663</ele><time>2026-04-25T14:53:37.229Z</time></trkpt><trkpt lat="45.6956033" lon="9.0831033"><ele>280.0</ele><time>2026-04-25T14:53:38.228Z</time></trkpt><trkpt lat="45.6955567" lon="9.0828483"><ele>279.66666666666663</ele><time>2026-04-25T14:53:39.229Z</time></trkpt><trkpt lat="45.6955167" lon="9.0825767"><ele>279.3333333333333</ele><time>2026-04-25T14:53:40.229Z</time></trkpt><trkpt lat="45.6954817" lon="9.0822967"><ele>279.0</ele><time>2026-04-25T14:53:41.228Z</time></trkpt><trkpt lat="45.6954433" lon="9.0820083"><ele>279.6666666666667</ele><time>2026-04-25T14:53:42.229Z</time></trkpt><trkpt lat="45.6953983" lon="9.0817117"><ele>280.33333333333337</ele><time>2026-04-25T14:53:43.229Z</time></trkpt><trkpt lat="45.6953533" lon="9.08141"><ele>281.0</ele><time>2026-04-25T14:53:44.229Z</time></trkpt><trkpt lat="45.6953083" lon="9.0811083"><ele>281.0</ele><time>2026-04-25T14:53:45.229Z</time></trkpt><trkpt lat="45.6952583" lon="9.080815"><ele>281.0</ele><time>2026-04-25T14:53:46.228Z</time></trkpt><trkpt lat="45.6952133" lon="9.0805467"><ele>281.0</ele><time>2026-04-25T14:53:47.229Z</time></trkpt><trkpt lat="45.695175" lon="9.08031"><ele>281.0</ele><time>2026-04-25T14:53:48.229Z</time></trkpt><trkpt lat="45.6951467" lon="9.0801017"><ele>281.0</ele><time>2026-04-25T14:53:49.229Z</time></trkpt><trkpt lat="45.6951233" lon="9.0799017"><ele>281.0</ele><time>2026-04-25T14:53:50.229Z</time></trkpt><trkpt lat="45.6951133" lon="9.0797167"><ele>281.0</ele><time>2026-04-25T14:53:51.229Z</time></trkpt><trkpt lat="45.6951117" lon="9.0795517"><ele>281.0</ele><time>2026-04-25T14:53:52.23Z</time></trkpt><trkpt lat="45.6951033" lon="9.0793917"><ele>281.0</ele><time>2026-04-25T14:53:53.231Z</time></trkpt><trkpt lat="45.6950883" lon="9.0792217"><ele>281.0</ele><time>2026-04-25T14:53:54.23Z</time></trkpt><trkpt lat="45.6950567" lon="9.0790333"><ele>281.0</ele><time>2026-04-25T14:53:55.228Z</time></trkpt><trkpt lat="45.6950267" lon="9.0788217"><ele>281.0</ele><time>2026-04-25T14:53:56.229Z</time></trkpt><trkpt lat="45.6950017" lon="9.0785967"><ele>281.0</ele><time>2026-04-25T14:53:57.229Z</time></trkpt><trkpt lat="45.6949817" lon="9.0783617"><ele>281.0</ele><time>2026-04-25T14:53:58.228Z</time></trkpt><trkpt lat="45.6949567" lon="9.0781167"><ele>281.0</ele><time>2026-04-25T14:53:59.228Z</time></trkpt><trkpt lat="45.6949283" lon="9.0778533"><ele>281.0</ele><time>2026-04-25T14:54:00.229Z</time></trkpt><trkpt lat="45.6948983" lon="9.0775667"><ele>281.0</ele><time>2026-04-25T14:54:01.23Z</time></trkpt><trkpt lat="45.6948683" lon="9.07727"><ele>281.0</ele><time>2026-04-25T14:54:02.229Z</time></trkpt><trkpt lat="45.69484" lon="9.0769683"><ele>281.0</ele><time>2026-04-25T14:54:03.228Z</time></trkpt><trkpt lat="45.69481" lon="9.076675"><ele>281.0</ele><time>2026-04-25T14:54:04.229Z</time></trkpt><trkpt lat="45.694775" lon="9.076405"><ele>281.0</ele><time>2026-04-25T14:54:05.228Z</time></trkpt><trkpt lat="45.6947367" lon="9.0761533"><ele>281.0</ele><time>2026-04-25T14:54:06.228Z</time></trkpt><trkpt lat="45.6946967" lon="9.0759217"><ele>281.0</ele><time>2026-04-25T14:54:07.228Z</time></trkpt><trkpt lat="45.6946617" lon="9.0757"><ele>280.5</ele><time>2026-04-25T14:54:08.228Z</time></trkpt><trkpt lat="45.69463" lon="9.0754917"><ele>280.0</ele><time>2026-04-25T14:54:09.228Z</time></trkpt><trkpt lat="45.6946" lon="9.075295"><ele>279.5</ele><time>2026-04-25T14:54:10.229Z</time></trkpt><trkpt lat="45.6945733" lon="9.07511"><ele>279.0</ele><time>2026-04-25T14:54:11.228Z</time></trkpt><trkpt lat="45.69455" lon="9.0749383"><ele>279.0</ele><time>2026-04-25T14:54:12.228Z</time></trkpt><trkpt lat="45.6945233" lon="9.074765"><ele>279.0</ele><time>2026-04-25T14:54:13.229Z</time></trkpt><trkpt lat="45.694495" lon="9.0745717"><ele>279.0</ele><time>2026-04-25T14:54:14.227Z</time></trkpt><trkpt lat="45.6944667" lon="9.0743667"><ele>279.0</ele><time>2026-04-25T14:54:15.229Z</time></trkpt><trkpt lat="45.6944383" lon="9.07415"><ele>279.0</ele><time>2026-04-25T14:54:16.229Z</time></trkpt><trkpt lat="45.694415" lon="9.0739283"><ele>279.0</ele><time>2026-04-25T14:54:17.228Z</time></trkpt><trkpt lat="45.694395" lon="9.073705"><ele>279.0</ele><time>2026-04-25T14:54:18.23Z</time></trkpt><trkpt lat="45.6943783" lon="9.0734883"><ele>279.0</ele><time>2026-04-25T14:54:19.229Z</time></trkpt><trkpt lat="45.694365" lon="9.0732767"><ele>279.0</ele><time>2026-04-25T14:54:20.23Z</time></trkpt><trkpt lat="45.6943517" lon="9.073075"><ele>279.0</ele><time>2026-04-25T14:54:21.229Z</time></trkpt><trkpt lat="45.6943383" lon="9.0728833"><ele>279.0</ele><time>2026-04-25T14:54:22.227Z</time></trkpt><trkpt lat="45.6943267" lon="9.072695"><ele>279.5</ele><time>2026-04-25T14:54:23.228Z</time></trkpt><trkpt lat="45.6943133" lon="9.0725033"><ele>280.0</ele><time>2026-04-25T14:54:24.233Z</time></trkpt><trkpt lat="45.6943017" lon="9.072315"><ele>280.5</ele><time>2026-04-25T14:54:25.228Z</time></trkpt><trkpt lat="45.6942867" lon="9.0721433"><ele>281.0</ele><time>2026-04-25T14:54:26.228Z</time></trkpt><trkpt lat="45.69427" lon="9.0719833"><ele>281.0</ele><time>2026-04-25T14:54:27.228Z</time></trkpt><trkpt lat="45.694255" lon="9.0718367"><ele>281.0</ele><time>2026-04-25T14:54:28.227Z</time></trkpt><trkpt lat="45.69424" lon="9.0716933"><ele>281.0</ele><time>2026-04-25T14:54:29.229Z</time></trkpt><trkpt lat="45.6942267" lon="9.0715533"><ele>281.0</ele><time>2026-04-25T14:54:30.228Z</time></trkpt><trkpt lat="45.6942167" lon="9.07143"><ele>281.0</ele><time>2026-04-25T14:54:31.229Z</time></trkpt><trkpt lat="45.69421" lon="9.0713383"><ele>281.0</ele><time>2026-04-25T14:54:32.229Z</time></trkpt><trkpt lat="45.69421" lon="9.0712083"><ele>281.0</ele><time>2026-04-25T14:54:35.229Z</time></trkpt><trkpt lat="45.6942383" lon="9.0710517"><ele>281.0</ele><time>2026-04-25T14:54:37.23Z</time></trkpt><trkpt lat="45.6942433" lon="9.07095"><ele>281.0</ele><time>2026-04-25T14:54:38.228Z</time></trkpt><trkpt lat="45.694225" lon="9.0708367"><ele>281.0</ele><time>2026-04-25T14:54:39.23Z</time></trkpt><trkpt lat="45.6941867" lon="9.0707167"><ele>281.0</ele><time>2026-04-25T14:54:40.229Z</time></trkpt><trkpt lat="45.6941467" lon="9.070565"><ele>280.5</ele><time>2026-04-25T14:54:41.23Z</time></trkpt><trkpt lat="45.6941133" lon="9.070395"><ele>280.0</ele><time>2026-04-25T14:54:42.229Z</time></trkpt><trkpt lat="45.6940817" lon="9.0702167"><ele>279.5</ele><time>2026-04-25T14:54:43.228Z</time></trkpt><trkpt lat="45.6940517" lon="9.070035"><ele>279.0</ele><time>2026-04-25T14:54:44.229Z</time></trkpt><trkpt lat="45.6940183" lon="9.0698583"><ele>279.0</ele><time>2026-04-25T14:54:45.229Z</time></trkpt><trkpt lat="45.69398" lon="9.06968"><ele>279.0</ele><time>2026-04-25T14:54:46.229Z</time></trkpt><trkpt lat="45.6939383" lon="9.0694983"><ele>279.0</ele><time>2026-04-25T14:54:47.229Z</time></trkpt><trkpt lat="45.69389" lon="9.069315"><ele>279.0</ele><time>2026-04-25T14:54:48.229Z</time></trkpt><trkpt lat="45.693835" lon="9.0691217"><ele>278.3333333333333</ele><time>2026-04-25T14:54:49.228Z</time></trkpt><trkpt lat="45.6937717" lon="9.0689217"><ele>277.66666666666663</ele><time>2026-04-25T14:54:50.229Z</time></trkpt><trkpt lat="45.693705" lon="9.0687233"><ele>277.0</ele><time>2026-04-25T14:54:51.228Z</time></trkpt><trkpt lat="45.6936383" lon="9.06854"><ele>277.0</ele><time>2026-04-25T14:54:52.228Z</time></trkpt><trkpt lat="45.6935767" lon="9.0683633"><ele>277.0</ele><time>2026-04-25T14:54:53.228Z</time></trkpt><trkpt lat="45.69352" lon="9.0681967"><ele>277.0</ele><time>2026-04-25T14:54:54.228Z</time></trkpt><trkpt lat="45.693465" lon="9.0680433"><ele>277.0</ele><time>2026-04-25T14:54:55.23Z</time></trkpt><trkpt lat="45.6934133" lon="9.067895"><ele>276.6</ele><time>2026-04-25T14:54:56.231Z</time></trkpt><trkpt lat="45.6933583" lon="9.0677417"><ele>276.2</ele><time>2026-04-25T14:54:57.231Z</time></trkpt><trkpt lat="45.6933067" lon="9.0675917"><ele>275.8</ele><time>2026-04-25T14:54:58.23Z</time></trkpt><trkpt lat="45.6932583" lon="9.0674517"><ele>275.4</ele><time>2026-04-25T14:54:59.231Z</time></trkpt><trkpt lat="45.693215" lon="9.067325"><ele>275.0</ele><time>2026-04-25T14:55:00.231Z</time></trkpt><trkpt lat="45.6931767" lon="9.0672067"><ele>275.0</ele><time>2026-04-25T14:55:01.231Z</time></trkpt><trkpt lat="45.69315" lon="9.0670983"><ele>275.0</ele><time>2026-04-25T14:55:02.23Z</time></trkpt><trkpt lat="45.6931317" lon="9.066995"><ele>275.0</ele><time>2026-04-25T14:55:03.231Z</time></trkpt><trkpt lat="45.6931217" lon="9.0668917"><ele>275.0</ele><time>2026-04-25T14:55:04.231Z</time></trkpt><trkpt lat="45.69312" lon="9.0667833"><ele>275.0</ele><time>2026-04-25T14:55:05.228Z</time></trkpt><trkpt lat="45.6931283" lon="9.066655"><ele>275.0</ele><time>2026-04-25T14:55:06.229Z</time></trkpt><trkpt lat="45.69313" lon="9.0665267"><ele>275.0</ele><time>2026-04-25T14:55:07.228Z</time></trkpt><trkpt lat="45.69311" lon="9.066405"><ele>275.0</ele><time>2026-04-25T14:55:08.228Z</time></trkpt><trkpt lat="45.6930667" lon="9.066295"><ele>275.0</ele><time>2026-04-25T14:55:09.231Z</time></trkpt><trkpt lat="45.6929883" lon="9.0662117"><ele>275.0</ele><time>2026-04-25T14:55:10.228Z</time></trkpt><trkpt lat="45.6928983" lon="9.06614"><ele>275.0</ele><time>2026-04-25T14:55:11.229Z</time></trkpt><trkpt lat="45.692815" lon="9.066055"><ele>275.5</ele><time>2026-04-25T14:55:12.231Z</time></trkpt><trkpt lat="45.6927433" lon="9.0659433"><ele>276.0</ele><time>2026-04-25T14:55:13.228Z</time></trkpt><trkpt lat="45.6926867" lon="9.0658067"><ele>276.5</ele><time>2026-04-25T14:55:14.228Z</time></trkpt><trkpt lat="45.6926317" lon="9.065655"><ele>277.0</ele><time>2026-04-25T14:55:15.232Z</time></trkpt><trkpt lat="45.6925733" lon="9.0654917"><ele>277.25</ele><time>2026-04-25T14:55:16.229Z</time></trkpt><trkpt lat="45.69251" lon="9.06531"><ele>277.5</ele><time>2026-04-25T14:55:17.228Z</time></trkpt><trkpt lat="45.6924433" lon="9.065125"><ele>277.75</ele><time>2026-04-25T14:55:18.228Z</time></trkpt><trkpt lat="45.69238" lon="9.064945"><ele>278.0</ele><time>2026-04-25T14:55:19.229Z</time></trkpt><trkpt lat="45.6923217" lon="9.064775"><ele>278.6</ele><time>2026-04-25T14:55:20.229Z</time></trkpt><trkpt lat="45.692265" lon="9.0646183"><ele>279.20000000000005</ele><time>2026-04-25T14:55:21.228Z</time></trkpt><trkpt lat="45.6922133" lon="9.064475"><ele>279.8</ele><time>2026-04-25T14:55:22.228Z</time></trkpt><trkpt lat="45.69217" lon="9.0643483"><ele>280.40000000000003</ele><time>2026-04-25T14:55:23.229Z</time></trkpt><trkpt lat="45.6921267" lon="9.0642283"><ele>281.0</ele><time>2026-04-25T14:55:24.228Z</time></trkpt><trkpt lat="45.6920817" lon="9.0641133"><ele>280.6</ele><time>2026-04-25T14:55:25.228Z</time></trkpt><trkpt lat="45.6920383" lon="9.063995"><ele>280.20000000000005</ele><time>2026-04-25T14:55:26.23Z</time></trkpt><trkpt lat="45.691995" lon="9.0638767"><ele>279.79999999999995</ele><time>2026-04-25T14:55:27.23Z</time></trkpt><trkpt lat="45.69195" lon="9.0637517"><ele>279.4</ele><time>2026-04-25T14:55:28.228Z</time></trkpt><trkpt lat="45.691905" lon="9.06362"><ele>279.0</ele><time>2026-04-25T14:55:29.228Z</time></trkpt><trkpt lat="45.6918583" lon="9.06348"><ele>278.5</ele><time>2026-04-25T14:55:30.228Z</time></trkpt><trkpt lat="45.6918083" lon="9.0633317"><ele>278.0</ele><time>2026-04-25T14:55:31.229Z</time></trkpt><trkpt lat="45.691755" lon="9.06318"><ele>277.5</ele><time>2026-04-25T14:55:32.229Z</time></trkpt><trkpt lat="45.6917017" lon="9.0630317"><ele>277.0</ele><time>2026-04-25T14:55:33.231Z</time></trkpt><trkpt lat="45.6916517" lon="9.0628933"><ele>277.0</ele><time>2026-04-25T14:55:34.229Z</time></trkpt><trkpt lat="45.6916017" lon="9.0627683"><ele>277.0</ele><time>2026-04-25T14:55:35.228Z</time></trkpt><trkpt lat="45.691555" lon="9.062645"><ele>277.0</ele><time>2026-04-25T14:55:36.229Z</time></trkpt><trkpt lat="45.6915133" lon="9.06252"><ele>277.0</ele><time>2026-04-25T14:55:37.228Z</time></trkpt><trkpt lat="45.6914767" lon="9.0623967"><ele>277.0</ele><time>2026-04-25T14:55:38.228Z</time></trkpt><trkpt lat="45.6914383" lon="9.062275"><ele>277.2</ele><time>2026-04-25T14:55:39.228Z</time></trkpt><trkpt lat="45.6914017" lon="9.0621483"><ele>277.4</ele><time>2026-04-25T14:55:40.228Z</time></trkpt><trkpt lat="45.6913583" lon="9.0620167"><ele>277.6</ele><time>2026-04-25T14:55:41.228Z</time></trkpt><trkpt lat="45.6913133" lon="9.0618833"><ele>277.8</ele><time>2026-04-25T14:55:42.228Z</time></trkpt><trkpt lat="45.6912667" lon="9.061745"><ele>278.0</ele><time>2026-04-25T14:55:43.229Z</time></trkpt><trkpt lat="45.691215" lon="9.0616"><ele>278.25</ele><time>2026-04-25T14:55:44.229Z</time></trkpt><trkpt lat="45.6911617" lon="9.0614467"><ele>278.5</ele><time>2026-04-25T14:55:45.231Z</time></trkpt><trkpt lat="45.691105" lon="9.061285"><ele>278.75</ele><time>2026-04-25T14:55:46.229Z</time></trkpt><trkpt lat="45.6910517" lon="9.0611183"><ele>279.0</ele><time>2026-04-25T14:55:47.23Z</time></trkpt><trkpt lat="45.6909983" lon="9.0609517"><ele>278.0</ele><time>2026-04-25T14:55:48.231Z</time></trkpt><trkpt lat="45.6909433" lon="9.0607817"><ele>277.0</ele><time>2026-04-25T14:55:49.228Z</time></trkpt><trkpt lat="45.6908833" lon="9.0606083"><ele>276.0</ele><time>2026-04-25T14:55:50.228Z</time></trkpt><trkpt lat="45.69083" lon="9.06044"><ele>275.0</ele><time>2026-04-25T14:55:51.228Z</time></trkpt><trkpt lat="45.69078" lon="9.0602767"><ele>275.0</ele><time>2026-04-25T14:55:52.227Z</time></trkpt><trkpt lat="45.690735" lon="9.0601233"><ele>275.0</ele><time>2026-04-25T14:55:53.229Z</time></trkpt><trkpt lat="45.6907" lon="9.0599717"><ele>275.0</ele><time>2026-04-25T14:55:54.228Z</time></trkpt><trkpt lat="45.69067" lon="9.0598183"><ele>275.0</ele><time>2026-04-25T14:55:55.227Z</time></trkpt><trkpt lat="45.69065" lon="9.0596617"><ele>275.2</ele><time>2026-04-25T14:55:56.23Z</time></trkpt><trkpt lat="45.6906333" lon="9.0595033"><ele>275.4</ele><time>2026-04-25T14:55:57.234Z</time></trkpt><trkpt lat="45.6906267" lon="9.0593467"><ele>275.6</ele><time>2026-04-25T14:55:58.228Z</time></trkpt><trkpt lat="45.6906283" lon="9.05919"><ele>275.8</ele><time>2026-04-25T14:55:59.229Z</time></trkpt><trkpt lat="45.6906317" lon="9.05903"><ele>276.0</ele><time>2026-04-25T14:56:00.23Z</time></trkpt><trkpt lat="45.6906467" lon="9.0588883"><ele>276.0</ele><time>2026-04-25T14:56:01.229Z</time></trkpt><trkpt lat="45.6906683" lon="9.0587617"><ele>276.0</ele><time>2026-04-25T14:56:02.229Z</time></trkpt><trkpt lat="45.6906917" lon="9.0586483"><ele>276.0</ele><time>2026-04-25T14:56:03.229Z</time></trkpt><trkpt lat="45.6907167" lon="9.05855"><ele>276.0</ele><time>2026-04-25T14:56:04.228Z</time></trkpt><trkpt lat="45.6907433" lon="9.058465"><ele>276.0</ele><time>2026-04-25T14:56:05.228Z</time></trkpt><trkpt lat="45.6907983" lon="9.0583133"><ele>276.0</ele><time>2026-04-25T14:56:07.228Z</time></trkpt><trkpt lat="45.6908567" lon="9.0581833"><ele>276.0</ele><time>2026-04-25T14:56:09.23Z</time></trkpt><trkpt lat="45.6909367" lon="9.0580417"><ele>276.0</ele><time>2026-04-25T14:56:11.228Z</time></trkpt><trkpt lat="45.6909817" lon="9.0579567"><ele>276.0</ele><time>2026-04-25T14:56:12.229Z</time></trkpt><trkpt lat="45.6910183" lon="9.0578667"><ele>276.0</ele><time>2026-04-25T14:56:13.229Z</time></trkpt><trkpt lat="45.6910433" lon="9.0577617"><ele>276.0</ele><time>2026-04-25T14:56:14.229Z</time></trkpt><trkpt lat="45.69106" lon="9.0576383"><ele>276.0</ele><time>2026-04-25T14:56:15.23Z</time></trkpt><trkpt lat="45.6910733" lon="9.05749"><ele>276.0</ele><time>2026-04-25T14:56:16.229Z</time></trkpt><trkpt lat="45.6910983" lon="9.0573217"><ele>276.0</ele><time>2026-04-25T14:56:17.233Z</time></trkpt><trkpt lat="45.6911283" lon="9.0571483"><ele>276.0</ele><time>2026-04-25T14:56:18.229Z</time></trkpt><trkpt lat="45.6911633" lon="9.0569767"><ele>276.0</ele><time>2026-04-25T14:56:19.229Z</time></trkpt><trkpt lat="45.69121" lon="9.0568"><ele>276.0</ele><time>2026-04-25T14:56:20.228Z</time></trkpt><trkpt lat="45.6912583" lon="9.0566233"><ele>276.0</ele><time>2026-04-25T14:56:21.228Z</time></trkpt><trkpt lat="45.691305" lon="9.0564517"><ele>276.0</ele><time>2026-04-25T14:56:22.228Z</time></trkpt><trkpt lat="45.6913533" lon="9.0562833"><ele>276.0</ele><time>2026-04-25T14:56:23.228Z</time></trkpt><trkpt lat="45.6914017" lon="9.05611"><ele>276.25</ele><time>2026-04-25T14:56:24.228Z</time></trkpt><trkpt lat="45.69145" lon="9.0559417"><ele>276.5</ele><time>2026-04-25T14:56:25.228Z</time></trkpt><trkpt lat="45.691495" lon="9.055775"><ele>276.75</ele><time>2026-04-25T14:56:26.228Z</time></trkpt><trkpt lat="45.6915383" lon="9.05561"><ele>277.0</ele><time>2026-04-25T14:56:27.228Z</time></trkpt><trkpt lat="45.6915733" lon="9.05544"><ele>276.8</ele><time>2026-04-25T14:56:28.227Z</time></trkpt><trkpt lat="45.6916017" lon="9.05527"><ele>276.6</ele><time>2026-04-25T14:56:29.228Z</time></trkpt><trkpt lat="45.6916183" lon="9.0551067"><ele>276.40000000000003</ele><time>2026-04-25T14:56:30.229Z</time></trkpt><trkpt lat="45.6916283" lon="9.054955"><ele>276.2</ele><time>2026-04-25T14:56:31.229Z</time></trkpt><trkpt lat="45.69163" lon="9.0548067"><ele>276.0</ele><time>2026-04-25T14:56:32.228Z</time></trkpt><trkpt lat="45.6916283" lon="9.05466"><ele>276.0</ele><time>2026-04-25T14:56:33.229Z</time></trkpt><trkpt lat="45.691625" lon="9.0545167"><ele>276.0</ele><time>2026-04-25T14:56:34.228Z</time></trkpt><trkpt lat="45.6916233" lon="9.0543783"><ele>276.0</ele><time>2026-04-25T14:56:35.229Z</time></trkpt><trkpt lat="45.69163" lon="9.0542467"><ele>276.0</ele><time>2026-04-25T14:56:36.228Z</time></trkpt><trkpt lat="45.6916417" lon="9.0541183"><ele>276.0</ele><time>2026-04-25T14:56:37.229Z</time></trkpt><trkpt lat="45.691645" lon="9.0539917"><ele>275.40000000000003</ele><time>2026-04-25T14:56:38.228Z</time></trkpt><trkpt lat="45.6916283" lon="9.0538583"><ele>274.8</ele><time>2026-04-25T14:56:39.228Z</time></trkpt><trkpt lat="45.6915967" lon="9.0537217"><ele>274.20000000000005</ele><time>2026-04-25T14:56:40.227Z</time></trkpt><trkpt lat="45.691555" lon="9.0535633"><ele>273.6</ele><time>2026-04-25T14:56:41.228Z</time></trkpt><trkpt lat="45.69151" lon="9.0533883"><ele>273.0</ele><time>2026-04-25T14:56:42.229Z</time></trkpt><trkpt lat="45.6914683" lon="9.0532017"><ele>273.0</ele><time>2026-04-25T14:56:43.229Z</time></trkpt><trkpt lat="45.69143" lon="9.0530067"><ele>273.0</ele><time>2026-04-25T14:56:44.229Z</time></trkpt><trkpt lat="45.69139" lon="9.052805"><ele>273.0</ele><time>2026-04-25T14:56:45.231Z</time></trkpt><trkpt lat="45.6913517" lon="9.0525867"><ele>273.0</ele><time>2026-04-25T14:56:46.229Z</time></trkpt><trkpt lat="45.6913133" lon="9.0523717"><ele>272.0</ele><time>2026-04-25T14:56:47.228Z</time></trkpt><trkpt lat="45.6912783" lon="9.0521533"><ele>271.0</ele><time>2026-04-25T14:56:48.229Z</time></trkpt><trkpt lat="45.6912467" lon="9.0519417"><ele>270.0</ele><time>2026-04-25T14:56:49.229Z</time></trkpt><trkpt lat="45.6912167" lon="9.0517317"><ele>269.3333333333333</ele><time>2026-04-25T14:56:50.229Z</time></trkpt><trkpt lat="45.691185" lon="9.0515183"><ele>268.66666666666663</ele><time>2026-04-25T14:56:51.228Z</time></trkpt><trkpt lat="45.69115" lon="9.0513017"><ele>268.0</ele><time>2026-04-25T14:56:52.228Z</time></trkpt><trkpt lat="45.6911133" lon="9.0510783"><ele>269.0</ele><time>2026-04-25T14:56:53.229Z</time></trkpt><trkpt lat="45.6910783" lon="9.0508483"><ele>270.0</ele><time>2026-04-25T14:56:54.228Z</time></trkpt><trkpt lat="45.69104" lon="9.05061"><ele>271.0</ele><time>2026-04-25T14:56:55.229Z</time></trkpt><trkpt lat="45.6910017" lon="9.05036"><ele>267.66666666666663</ele><time>2026-04-25T14:56:56.228Z</time></trkpt><trkpt lat="45.6909617" lon="9.050105"><ele>264.3333333333333</ele><time>2026-04-25T14:56:57.229Z</time></trkpt><trkpt lat="45.6909183" lon="9.049835"><ele>261.0</ele><time>2026-04-25T14:56:58.228Z</time></trkpt><trkpt lat="45.6908633" lon="9.04954"><ele>258.5</ele><time>2026-04-25T14:56:59.229Z</time></trkpt><trkpt lat="45.6908067" lon="9.0492133"><ele>256.0</ele><time>2026-04-25T14:57:00.229Z</time></trkpt><trkpt lat="45.6907517" lon="9.0488817"><ele>256.0</ele><time>2026-04-25T14:57:01.23Z</time></trkpt><trkpt lat="45.690705" lon="9.04856"><ele>256.0</ele><time>2026-04-25T14:57:02.229Z</time></trkpt><trkpt lat="45.6906617" lon="9.0482617"><ele>256.0</ele><time>2026-04-25T14:57:03.23Z</time></trkpt><trkpt lat="45.6906233" lon="9.0479767"><ele>257.0</ele><time>2026-04-25T14:57:04.23Z</time></trkpt><trkpt lat="45.6905883" lon="9.04771"><ele>258.0</ele><time>2026-04-25T14:57:05.229Z</time></trkpt><trkpt lat="45.6905683" lon="9.047455"><ele>259.0</ele><time>2026-04-25T14:57:06.229Z</time></trkpt><trkpt lat="45.69057" lon="9.0472017"><ele>259.0</ele><time>2026-04-25T14:57:07.231Z</time></trkpt><trkpt lat="45.69059" lon="9.0469483"><ele>259.0</ele><time>2026-04-25T14:57:08.231Z</time></trkpt><trkpt lat="45.690625" lon="9.0467033"><ele>259.0</ele><time>2026-04-25T14:57:09.231Z</time></trkpt><trkpt lat="45.6906717" lon="9.046465"><ele>260.0</ele><time>2026-04-25T14:57:10.23Z</time></trkpt><trkpt lat="45.6907183" lon="9.0462317"><ele>261.0</ele><time>2026-04-25T14:57:11.229Z</time></trkpt><trkpt lat="45.690765" lon="9.0460083"><ele>262.0</ele><time>2026-04-25T14:57:12.23Z</time></trkpt><trkpt lat="45.6908133" lon="9.0457883"><ele>263.66666666666663</ele><time>2026-04-25T14:57:13.23Z</time></trkpt><trkpt lat="45.69086" lon="9.04556"><ele>265.3333333333333</ele><time>2026-04-25T14:57:14.229Z</time></trkpt><trkpt lat="45.6909083" lon="9.04531"><ele>267.0</ele><time>2026-04-25T14:57:15.23Z</time></trkpt><trkpt lat="45.6909633" lon="9.0450433"><ele>269.0</ele><time>2026-04-25T14:57:16.228Z</time></trkpt><trkpt lat="45.6910217" lon="9.0447783"><ele>271.0</ele><time>2026-04-25T14:57:17.228Z</time></trkpt><trkpt lat="45.6910817" lon="9.0445267"><ele>273.0</ele><time>2026-04-25T14:57:18.229Z</time></trkpt><trkpt lat="45.69114" lon="9.0442783"><ele>274.3333333333333</ele><time>2026-04-25T14:57:19.23Z</time></trkpt><trkpt lat="45.691195" lon="9.04403"><ele>275.66666666666663</ele><time>2026-04-25T14:57:20.23Z</time></trkpt><trkpt lat="45.69125" lon="9.0437917"><ele>277.0</ele><time>2026-04-25T14:57:21.228Z</time></trkpt><trkpt lat="45.6913" lon="9.0435733"><ele>277.0</ele><time>2026-04-25T14:57:22.228Z</time></trkpt><trkpt lat="45.6913433" lon="9.0433733"><ele>277.0</ele><time>2026-04-25T14:57:23.229Z</time></trkpt><trkpt lat="45.6913783" lon="9.043185"><ele>277.0</ele><time>2026-04-25T14:57:24.229Z</time></trkpt><trkpt lat="45.6914067" lon="9.04301"><ele>277.0</ele><time>2026-04-25T14:57:25.229Z</time></trkpt><trkpt lat="45.6914283" lon="9.042845"><ele>277.0</ele><time>2026-04-25T14:57:26.228Z</time></trkpt><trkpt lat="45.691445" lon="9.0426983"><ele>277.0</ele><time>2026-04-25T14:57:27.231Z</time></trkpt><trkpt lat="45.69146" lon="9.0425467"><ele>277.0</ele><time>2026-04-25T14:57:28.228Z</time></trkpt><trkpt lat="45.6914783" lon="9.0423883"><ele>277.0</ele><time>2026-04-25T14:57:29.229Z</time></trkpt><trkpt lat="45.691495" lon="9.042225"><ele>277.0</ele><time>2026-04-25T14:57:30.228Z</time></trkpt><trkpt lat="45.6915083" lon="9.04206"><ele>277.0</ele><time>2026-04-25T14:57:31.228Z</time></trkpt><trkpt lat="45.691525" lon="9.0418917"><ele>277.0</ele><time>2026-04-25T14:57:32.229Z</time></trkpt><trkpt lat="45.69154" lon="9.0417233"><ele>277.0</ele><time>2026-04-25T14:57:33.229Z</time></trkpt><trkpt lat="45.6915533" lon="9.04157"><ele>277.0</ele><time>2026-04-25T14:57:34.227Z</time></trkpt><trkpt lat="45.691565" lon="9.0414233"><ele>277.0</ele><time>2026-04-25T14:57:35.229Z</time></trkpt><trkpt lat="45.6915783" lon="9.04129"><ele>277.0</ele><time>2026-04-25T14:57:36.229Z</time></trkpt><trkpt lat="45.691585" lon="9.0411667"><ele>277.0</ele><time>2026-04-25T14:57:37.228Z</time></trkpt><trkpt lat="45.69159" lon="9.04105"><ele>277.0</ele><time>2026-04-25T14:57:38.228Z</time></trkpt><trkpt lat="45.6915983" lon="9.0409383"><ele>277.0</ele><time>2026-04-25T14:57:39.229Z</time></trkpt><trkpt lat="45.6916067" lon="9.0408317"><ele>277.0</ele><time>2026-04-25T14:57:40.228Z</time></trkpt><trkpt lat="45.69162" lon="9.04073"><ele>277.0</ele><time>2026-04-25T14:57:41.229Z</time></trkpt><trkpt lat="45.6916367" lon="9.0406267"><ele>277.0</ele><time>2026-04-25T14:57:42.229Z</time></trkpt><trkpt lat="45.6916633" lon="9.0405167"><ele>277.0</ele><time>2026-04-25T14:57:43.228Z</time></trkpt><trkpt lat="45.691695" lon="9.0404033"><ele>277.0</ele><time>2026-04-25T14:57:44.23Z</time></trkpt><trkpt lat="45.6917183" lon="9.0402967"><ele>277.0</ele><time>2026-04-25T14:57:45.232Z</time></trkpt><trkpt lat="45.69173" lon="9.040185"><ele>277.0</ele><time>2026-04-25T14:57:46.228Z</time></trkpt><trkpt lat="45.69173" lon="9.040065"><ele>277.0</ele><time>2026-04-25T14:57:47.229Z</time></trkpt><trkpt lat="45.691725" lon="9.03992"><ele>277.25</ele><time>2026-04-25T14:57:48.229Z</time></trkpt><trkpt lat="45.69174" lon="9.0397433"><ele>277.5</ele><time>2026-04-25T14:57:49.229Z</time></trkpt><trkpt lat="45.6917683" lon="9.0395583"><ele>277.75</ele><time>2026-04-25T14:57:50.229Z</time></trkpt><trkpt lat="45.6918117" lon="9.0393617"><ele>278.0</ele><time>2026-04-25T14:57:51.229Z</time></trkpt><trkpt lat="45.691865" lon="9.03915"><ele>278.6666666666667</ele><time>2026-04-25T14:57:52.229Z</time></trkpt><trkpt lat="45.691925" lon="9.03892"><ele>279.3333333333333</ele><time>2026-04-25T14:57:53.228Z</time></trkpt><trkpt lat="45.69199" lon="9.0386667"><ele>280.0</ele><time>2026-04-25T14:57:54.235Z</time></trkpt><trkpt lat="45.69206" lon="9.03839"><ele>280.0</ele><time>2026-04-25T14:57:55.23Z</time></trkpt><trkpt lat="45.6921333" lon="9.0381067"><ele>280.0</ele><time>2026-04-25T14:57:56.228Z</time></trkpt><trkpt lat="45.6922183" lon="9.0378167"><ele>280.0</ele><time>2026-04-25T14:57:57.228Z</time></trkpt><trkpt lat="45.6923067" lon="9.0375217"><ele>279.3333333333333</ele><time>2026-04-25T14:57:58.228Z</time></trkpt><trkpt lat="45.69239" lon="9.0372267"><ele>278.6666666666667</ele><time>2026-04-25T14:57:59.229Z</time></trkpt><trkpt lat="45.6924667" lon="9.0369383"><ele>278.0</ele><time>2026-04-25T14:58:00.229Z</time></trkpt><trkpt lat="45.692535" lon="9.0366783"><ele>277.6666666666667</ele><time>2026-04-25T14:58:01.228Z</time></trkpt><trkpt lat="45.6926017" lon="9.0364367"><ele>277.3333333333333</ele><time>2026-04-25T14:58:02.229Z</time></trkpt><trkpt lat="45.692665" lon="9.0362033"><ele>277.0</ele><time>2026-04-25T14:58:03.228Z</time></trkpt><trkpt lat="45.6927217" lon="9.0359833"><ele>278.0</ele><time>2026-04-25T14:58:04.227Z</time></trkpt><trkpt lat="45.69278" lon="9.035775"><ele>279.0</ele><time>2026-04-25T14:58:05.229Z</time></trkpt><trkpt lat="45.6928317" lon="9.0355733"><ele>280.0</ele><time>2026-04-25T14:58:06.23Z</time></trkpt><trkpt lat="45.69288" lon="9.0353767"><ele>280.0</ele><time>2026-04-25T14:58:07.228Z</time></trkpt><trkpt lat="45.6929267" lon="9.0351917"><ele>280.0</ele><time>2026-04-25T14:58:08.23Z</time></trkpt><trkpt lat="45.6929733" lon="9.0350217"><ele>280.0</ele><time>2026-04-25T14:58:09.229Z</time></trkpt><trkpt lat="45.6930233" lon="9.03488"><ele>280.0</ele><time>2026-04-25T14:58:10.228Z</time></trkpt><trkpt lat="45.693065" lon="9.0347917"><ele>280.0</ele><time>2026-04-25T14:58:11.228Z</time></trkpt><trkpt lat="45.6931167" lon="9.034725"><ele>280.0</ele><time>2026-04-25T14:58:13.228Z</time></trkpt><trkpt lat="45.6931783" lon="9.0346333"><ele>280.0</ele><time>2026-04-25T14:58:15.228Z</time></trkpt><trkpt lat="45.693215" lon="9.0345417"><ele>280.0</ele><time>2026-04-25T14:58:16.229Z</time></trkpt><trkpt lat="45.69324" lon="9.0344217"><ele>280.0</ele><time>2026-04-25T14:58:17.228Z</time></trkpt><trkpt lat="45.6932367" lon="9.0342883"><ele>280.0</ele><time>2026-04-25T14:58:18.228Z</time></trkpt><trkpt lat="45.6931867" lon="9.034195"><ele>280.0</ele><time>2026-04-25T14:58:19.229Z</time></trkpt><trkpt lat="45.693115" lon="9.03413"><ele>280.0</ele><time>2026-04-25T14:58:20.227Z</time></trkpt><trkpt lat="45.6930233" lon="9.0340883"><ele>280.0</ele><time>2026-04-25T14:58:21.231Z</time></trkpt><trkpt lat="45.692925" lon="9.0340433"><ele>280.0</ele><time>2026-04-25T14:58:22.229Z</time></trkpt><trkpt lat="45.6928333" lon="9.033955"><ele>280.0</ele><time>2026-04-25T14:58:23.229Z</time></trkpt><trkpt lat="45.692745" lon="9.0338233"><ele>279.3333333333333</ele><time>2026-04-25T14:58:24.229Z</time></trkpt><trkpt lat="45.6926517" lon="9.0336667"><ele>278.6666666666667</ele><time>2026-04-25T14:58:25.228Z</time></trkpt><trkpt lat="45.6925533" lon="9.033495"><ele>278.0</ele><time>2026-04-25T14:58:26.229Z</time></trkpt><trkpt lat="45.6924433" lon="9.0333217"><ele>278.33333333333337</ele><time>2026-04-25T14:58:27.228Z</time></trkpt><trkpt lat="45.6923167" lon="9.033155"><ele>278.6666666666667</ele><time>2026-04-25T14:58:28.228Z</time></trkpt><trkpt lat="45.6921767" lon="9.033"><ele>279.0</ele><time>2026-04-25T14:58:29.228Z</time></trkpt><trkpt lat="45.6920217" lon="9.0328667"><ele>277.3333333333333</ele><time>2026-04-25T14:58:30.228Z</time></trkpt><trkpt lat="45.691865" lon="9.0327333"><ele>275.66666666666663</ele><time>2026-04-25T14:58:31.229Z</time></trkpt><trkpt lat="45.6917133" lon="9.0326017"><ele>274.0</ele><time>2026-04-25T14:58:32.228Z</time></trkpt><trkpt lat="45.69157" lon="9.032475"><ele>274.3333333333333</ele><time>2026-04-25T14:58:33.229Z</time></trkpt><trkpt lat="45.691435" lon="9.03235"><ele>274.6666666666667</ele><time>2026-04-25T14:58:34.227Z</time></trkpt><trkpt lat="45.69131" lon="9.0322183"><ele>275.0</ele><time>2026-04-25T14:58:35.229Z</time></trkpt><trkpt lat="45.6911867" lon="9.032075"><ele>275.33333333333337</ele><time>2026-04-25T14:58:36.227Z</time></trkpt><trkpt lat="45.6910683" lon="9.0319183"><ele>275.6666666666667</ele><time>2026-04-25T14:58:37.229Z</time></trkpt><trkpt lat="45.6909483" lon="9.031745"><ele>276.0</ele><time>2026-04-25T14:58:38.23Z</time></trkpt><trkpt lat="45.6908283" lon="9.0315633"><ele>276.0</ele><time>2026-04-25T14:58:39.229Z</time></trkpt><trkpt lat="45.6906967" lon="9.0313617"><ele>276.0</ele><time>2026-04-25T14:58:40.228Z</time></trkpt><trkpt lat="45.6905583" lon="9.0311533"><ele>276.0</ele><time>2026-04-25T14:58:41.229Z</time></trkpt><trkpt lat="45.6904167" lon="9.03094"><ele>276.0</ele><time>2026-04-25T14:58:42.227Z</time></trkpt><trkpt lat="45.6902683" lon="9.03072"><ele>276.0</ele><time>2026-04-25T14:58:43.227Z</time></trkpt><trkpt lat="45.6901167" lon="9.0304883"><ele>276.0</ele><time>2026-04-25T14:58:44.228Z</time></trkpt><trkpt lat="45.68996" lon="9.0302483"><ele>276.5</ele><time>2026-04-25T14:58:45.229Z</time></trkpt><trkpt lat="45.6898033" lon="9.0300083"><ele>277.0</ele><time>2026-04-25T14:58:46.229Z</time></trkpt><trkpt lat="45.689645" lon="9.0297667"><ele>276.0</ele><time>2026-04-25T14:58:47.228Z</time></trkpt><trkpt lat="45.689485" lon="9.0295233"><ele>275.0</ele><time>2026-04-25T14:58:48.229Z</time></trkpt><trkpt lat="45.6893217" lon="9.029275"><ele>275.5</ele><time>2026-04-25T14:58:49.228Z</time></trkpt><trkpt lat="45.6891567" lon="9.0290267"><ele>276.0</ele><time>2026-04-25T14:58:50.228Z</time></trkpt><trkpt lat="45.6889917" lon="9.0287717"><ele>276.0</ele><time>2026-04-25T14:58:51.23Z</time></trkpt><trkpt lat="45.6888233" lon="9.028515"><ele>276.0</ele><time>2026-04-25T14:58:52.228Z</time></trkpt><trkpt lat="45.6886533" lon="9.02826"><ele>275.5</ele><time>2026-04-25T14:58:53.228Z</time></trkpt><trkpt lat="45.6884783" lon="9.0279983"><ele>275.0</ele><time>2026-04-25T14:58:54.23Z</time></trkpt><trkpt lat="45.688305" lon="9.0277333"><ele>273.5</ele><time>2026-04-25T14:58:55.228Z</time></trkpt><trkpt lat="45.6881267" lon="9.0274683"><ele>272.0</ele><time>2026-04-25T14:58:56.232Z</time></trkpt><trkpt lat="45.6879467" lon="9.0272017"><ele>272.0</ele><time>2026-04-25T14:58:57.229Z</time></trkpt><trkpt lat="45.687765" lon="9.0269317"><ele>272.0</ele><time>2026-04-25T14:58:58.229Z</time></trkpt><trkpt lat="45.6875833" lon="9.02666"><ele>273.0</ele><time>2026-04-25T14:58:59.227Z</time></trkpt><trkpt lat="45.687405" lon="9.0263867"><ele>274.0</ele><time>2026-04-25T14:59:00.228Z</time></trkpt><trkpt lat="45.687225" lon="9.0261083"><ele>274.0</ele><time>2026-04-25T14:59:01.228Z</time></trkpt><trkpt lat="45.6870433" lon="9.0258317"><ele>274.0</ele><time>2026-04-25T14:59:02.229Z</time></trkpt><trkpt lat="45.6868567" lon="9.0255617"><ele>273.0</ele><time>2026-04-25T14:59:03.229Z</time></trkpt><trkpt lat="45.6866717" lon="9.0252883"><ele>272.0</ele><time>2026-04-25T14:59:04.228Z</time></trkpt><trkpt lat="45.6864867" lon="9.0250133"><ele>272.0</ele><time>2026-04-25T14:59:05.228Z</time></trkpt><trkpt lat="45.6863" lon="9.0247367"><ele>272.0</ele><time>2026-04-25T14:59:06.229Z</time></trkpt><trkpt lat="45.6861117" lon="9.024455"><ele>272.0</ele><time>2026-04-25T14:59:07.228Z</time></trkpt><trkpt lat="45.6859233" lon="9.0241733"><ele>272.0</ele><time>2026-04-25T14:59:08.228Z</time></trkpt><trkpt lat="45.6857333" lon="9.0238833"><ele>273.0</ele><time>2026-04-25T14:59:09.23Z</time></trkpt><trkpt lat="45.6855417" lon="9.0235917"><ele>274.0</ele><time>2026-04-25T14:59:10.228Z</time></trkpt><trkpt lat="45.6853517" lon="9.023305"><ele>272.0</ele><time>2026-04-25T14:59:11.229Z</time></trkpt><trkpt lat="45.6851617" lon="9.0230117"><ele>270.0</ele><time>2026-04-25T14:59:12.228Z</time></trkpt><trkpt lat="45.6849683" lon="9.0227167"><ele>270.0</ele><time>2026-04-25T14:59:13.228Z</time></trkpt><trkpt lat="45.6847767" lon="9.0224233"><ele>270.0</ele><time>2026-04-25T14:59:14.228Z</time></trkpt><trkpt lat="45.6845817" lon="9.02213"><ele>270.5</ele><time>2026-04-25T14:59:15.23Z</time></trkpt><trkpt lat="45.6843883" lon="9.0218383"><ele>271.0</ele><time>2026-04-25T14:59:16.229Z</time></trkpt><trkpt lat="45.684195" lon="9.021545"><ele>271.0</ele><time>2026-04-25T14:59:17.228Z</time></trkpt><trkpt lat="45.6839983" lon="9.0212533"><ele>271.0</ele><time>2026-04-25T14:59:18.229Z</time></trkpt><trkpt lat="45.6838017" lon="9.0209633"><ele>271.5</ele><time>2026-04-25T14:59:19.229Z</time></trkpt><trkpt lat="45.6836083" lon="9.02068"><ele>272.0</ele><time>2026-04-25T14:59:20.228Z</time></trkpt><trkpt lat="45.6834233" lon="9.0204067"><ele>272.0</ele><time>2026-04-25T14:59:21.228Z</time></trkpt><trkpt lat="45.68325" lon="9.02015"><ele>272.0</ele><time>2026-04-25T14:59:22.229Z</time></trkpt><trkpt lat="45.6830883" lon="9.0199083"><ele>272.6666666666667</ele><time>2026-04-25T14:59:23.229Z</time></trkpt><trkpt lat="45.6829333" lon="9.0196783"><ele>273.3333333333333</ele><time>2026-04-25T14:59:24.229Z</time></trkpt><trkpt lat="45.6827867" lon="9.0194633"><ele>274.0</ele><time>2026-04-25T14:59:25.229Z</time></trkpt><trkpt lat="45.6826533" lon="9.0192617"><ele>272.3333333333333</ele><time>2026-04-25T14:59:26.229Z</time></trkpt><trkpt lat="45.682525" lon="9.0190617"><ele>270.6666666666667</ele><time>2026-04-25T14:59:27.228Z</time></trkpt><trkpt lat="45.6824" lon="9.018865"><ele>269.0</ele><time>2026-04-25T14:59:28.229Z</time></trkpt><trkpt lat="45.6822717" lon="9.0186633"><ele>269.0</ele><time>2026-04-25T14:59:29.228Z</time></trkpt><trkpt lat="45.6821483" lon="9.0184533"><ele>269.0</ele><time>2026-04-25T14:59:30.229Z</time></trkpt><trkpt lat="45.6820333" lon="9.0182333"><ele>269.0</ele><time>2026-04-25T14:59:31.229Z</time></trkpt><trkpt lat="45.681925" lon="9.0180017"><ele>269.33333333333337</ele><time>2026-04-25T14:59:32.229Z</time></trkpt><trkpt lat="45.6818283" lon="9.017755"><ele>269.6666666666667</ele><time>2026-04-25T14:59:33.23Z</time></trkpt><trkpt lat="45.681735" lon="9.0174967"><ele>270.0</ele><time>2026-04-25T14:59:34.228Z</time></trkpt><trkpt lat="45.6816467" lon="9.0172317"><ele>270.6666666666667</ele><time>2026-04-25T14:59:35.229Z</time></trkpt><trkpt lat="45.681565" lon="9.0169633"><ele>271.33333333333337</ele><time>2026-04-25T14:59:36.228Z</time></trkpt><trkpt lat="45.6814817" lon="9.0166883"><ele>272.0</ele><time>2026-04-25T14:59:37.229Z</time></trkpt><trkpt lat="45.6813983" lon="9.0164133"><ele>272.0</ele><time>2026-04-25T14:59:38.228Z</time></trkpt><trkpt lat="45.6813183" lon="9.0161483"><ele>272.0</ele><time>2026-04-25T14:59:39.228Z</time></trkpt><trkpt lat="45.6812433" lon="9.0158967"><ele>272.0</ele><time>2026-04-25T14:59:40.229Z</time></trkpt><trkpt lat="45.681165" lon="9.01566"><ele>271.33333333333337</ele><time>2026-04-25T14:59:41.228Z</time></trkpt><trkpt lat="45.68108" lon="9.01543"><ele>270.6666666666667</ele><time>2026-04-25T14:59:42.229Z</time></trkpt><trkpt lat="45.6809767" lon="9.0152033"><ele>270.0</ele><time>2026-04-25T14:59:43.229Z</time></trkpt><trkpt lat="45.68085" lon="9.0149867"><ele>270.0</ele><time>2026-04-25T14:59:44.228Z</time></trkpt><trkpt lat="45.6807133" lon="9.0147717"><ele>270.0</ele><time>2026-04-25T14:59:45.228Z</time></trkpt><trkpt lat="45.6805667" lon="9.0145567"><ele>270.0</ele><time>2026-04-25T14:59:46.228Z</time></trkpt><trkpt lat="45.6804133" lon="9.0143333"><ele>269.0</ele><time>2026-04-25T14:59:47.229Z</time></trkpt><trkpt lat="45.68026" lon="9.0141133"><ele>268.0</ele><time>2026-04-25T14:59:48.23Z</time></trkpt><trkpt lat="45.6801133" lon="9.0139017"><ele>267.0</ele><time>2026-04-25T14:59:49.228Z</time></trkpt><trkpt lat="45.6799733" lon="9.013695"><ele>267.0</ele><time>2026-04-25T14:59:50.23Z</time></trkpt><trkpt lat="45.67984" lon="9.0134933"><ele>267.0</ele><time>2026-04-25T14:59:51.228Z</time></trkpt><trkpt lat="45.679715" lon="9.0133017"><ele>267.0</ele><time>2026-04-25T14:59:52.229Z</time></trkpt><trkpt lat="45.6796033" lon="9.0131267"><ele>267.0</ele><time>2026-04-25T14:59:53.229Z</time></trkpt><trkpt lat="45.679515" lon="9.012975"><ele>267.0</ele><time>2026-04-25T14:59:54.231Z</time></trkpt><trkpt lat="45.67945" lon="9.0128383"><ele>267.0</ele><time>2026-04-25T14:59:55.228Z</time></trkpt><trkpt lat="45.6794067" lon="9.012705"><ele>267.0</ele><time>2026-04-25T14:59:56.228Z</time></trkpt><trkpt lat="45.6793767" lon="9.0125767"><ele>267.2</ele><time>2026-04-25T14:59:57.229Z</time></trkpt><trkpt lat="45.6793417" lon="9.01246"><ele>267.4</ele><time>2026-04-25T14:59:58.228Z</time></trkpt><trkpt lat="45.6792933" lon="9.01236"><ele>267.6</ele><time>2026-04-25T14:59:59.229Z</time></trkpt><trkpt lat="45.6792317" lon="9.0122817"><ele>267.8</ele><time>2026-04-25T15:00:00.228Z</time></trkpt><trkpt lat="45.679145" lon="9.0122117"><ele>268.0</ele><time>2026-04-25T15:00:01.228Z</time></trkpt><trkpt lat="45.6790417" lon="9.0121333"><ele>268.0</ele><time>2026-04-25T15:00:02.23Z</time></trkpt><trkpt lat="45.67894" lon="9.012025"><ele>268.0</ele><time>2026-04-25T15:00:03.229Z</time></trkpt><trkpt lat="45.6788383" lon="9.0118833"><ele>268.0</ele><time>2026-04-25T15:00:04.229Z</time></trkpt><trkpt lat="45.6787317" lon="9.01171"><ele>268.0</ele><time>2026-04-25T15:00:05.229Z</time></trkpt><trkpt lat="45.6786167" lon="9.0115133"><ele>267.66666666666663</ele><time>2026-04-25T15:00:06.228Z</time></trkpt><trkpt lat="45.6784933" lon="9.0113183"><ele>267.3333333333333</ele><time>2026-04-25T15:00:07.229Z</time></trkpt><trkpt lat="45.67836" lon="9.0111333"><ele>267.0</ele><time>2026-04-25T15:00:08.229Z</time></trkpt><trkpt lat="45.678215" lon="9.010955"><ele>267.6666666666667</ele><time>2026-04-25T15:00:09.229Z</time></trkpt><trkpt lat="45.678055" lon="9.010785"><ele>268.33333333333337</ele><time>2026-04-25T15:00:10.229Z</time></trkpt><trkpt lat="45.6778767" lon="9.0106317"><ele>269.0</ele><time>2026-04-25T15:00:11.23Z</time></trkpt><trkpt lat="45.6776967" lon="9.010485"><ele>269.33333333333337</ele><time>2026-04-25T15:00:12.229Z</time></trkpt><trkpt lat="45.677515" lon="9.0103417"><ele>269.6666666666667</ele><time>2026-04-25T15:00:13.229Z</time></trkpt><trkpt lat="45.6773083" lon="9.0102133"><ele>270.0</ele><time>2026-04-25T15:00:14.23Z</time></trkpt><trkpt lat="45.67709" lon="9.0101283"><ele>269.3333333333333</ele><time>2026-04-25T15:00:15.233Z</time></trkpt><trkpt lat="45.676885" lon="9.010015"><ele>268.66666666666663</ele><time>2026-04-25T15:00:16.23Z</time></trkpt><trkpt lat="45.6766983" lon="9.0098917"><ele>268.0</ele><time>2026-04-25T15:00:17.229Z</time></trkpt><trkpt lat="45.6765233" lon="9.0097583"><ele>268.0</ele><time>2026-04-25T15:00:18.229Z</time></trkpt><trkpt lat="45.676355" lon="9.0095983"><ele>268.0</ele><time>2026-04-25T15:00:19.23Z</time></trkpt><trkpt lat="45.676195" lon="9.0094217"><ele>268.0</ele><time>2026-04-25T15:00:20.229Z</time></trkpt><trkpt lat="45.6760383" lon="9.0092317"><ele>268.0</ele><time>2026-04-25T15:00:21.23Z</time></trkpt><trkpt lat="45.675885" lon="9.0090333"><ele>268.0</ele><time>2026-04-25T15:00:22.229Z</time></trkpt><trkpt lat="45.6757367" lon="9.0088233"><ele>268.0</ele><time>2026-04-25T15:00:23.229Z</time></trkpt><trkpt lat="45.6755833" lon="9.0086067"><ele>268.0</ele><time>2026-04-25T15:00:24.23Z</time></trkpt><trkpt lat="45.6754233" lon="9.00838"><ele>268.0</ele><time>2026-04-25T15:00:25.23Z</time></trkpt><trkpt lat="45.6752633" lon="9.0081533"><ele>265.5</ele><time>2026-04-25T15:00:26.229Z</time></trkpt><trkpt lat="45.6751083" lon="9.0079217"><ele>263.0</ele><time>2026-04-25T15:00:27.23Z</time></trkpt><trkpt lat="45.6749467" lon="9.0076883"><ele>262.5</ele><time>2026-04-25T15:00:28.228Z</time></trkpt><trkpt lat="45.6747867" lon="9.007455"><ele>262.0</ele><time>2026-04-25T15:00:29.229Z</time></trkpt><trkpt lat="45.67463" lon="9.00722"><ele>262.0</ele><time>2026-04-25T15:00:30.228Z</time></trkpt><trkpt lat="45.6744733" lon="9.0069833"><ele>262.0</ele><time>2026-04-25T15:00:31.228Z</time></trkpt><trkpt lat="45.6743133" lon="9.0067417"><ele>260.0</ele><time>2026-04-25T15:00:32.23Z</time></trkpt><trkpt lat="45.6741533" lon="9.0065017"><ele>258.0</ele><time>2026-04-25T15:00:33.228Z</time></trkpt><trkpt lat="45.67399" lon="9.0062617"><ele>258.0</ele><time>2026-04-25T15:00:34.228Z</time></trkpt><trkpt lat="45.673825" lon="9.0060233"><ele>258.0</ele><time>2026-04-25T15:00:35.227Z</time></trkpt><trkpt lat="45.6736617" lon="9.0057817"><ele>256.5</ele><time>2026-04-25T15:00:36.23Z</time></trkpt><trkpt lat="45.6735" lon="9.0055383"><ele>255.0</ele><time>2026-04-25T15:00:37.228Z</time></trkpt><trkpt lat="45.67334" lon="9.0052983"><ele>255.0</ele><time>2026-04-25T15:00:38.228Z</time></trkpt><trkpt lat="45.6731767" lon="9.0050567"><ele>255.0</ele><time>2026-04-25T15:00:39.229Z</time></trkpt><trkpt lat="45.673015" lon="9.0048133"><ele>256.0</ele><time>2026-04-25T15:00:40.228Z</time></trkpt><trkpt lat="45.6728533" lon="9.00457"><ele>257.0</ele><time>2026-04-25T15:00:41.229Z</time></trkpt><trkpt lat="45.67269" lon="9.0043267"><ele>257.0</ele><time>2026-04-25T15:00:42.228Z</time></trkpt><trkpt lat="45.6725283" lon="9.004085"><ele>257.0</ele><time>2026-04-25T15:00:43.229Z</time></trkpt><trkpt lat="45.67237" lon="9.0038467"><ele>257.0</ele><time>2026-04-25T15:00:44.228Z</time></trkpt><trkpt lat="45.6722217" lon="9.0036217"><ele>257.0</ele><time>2026-04-25T15:00:45.229Z</time></trkpt><trkpt lat="45.6720833" lon="9.0034117"><ele>257.0</ele><time>2026-04-25T15:00:46.231Z</time></trkpt><trkpt lat="45.67195" lon="9.0032133"><ele>256.0</ele><time>2026-04-25T15:00:47.229Z</time></trkpt><trkpt lat="45.6718267" lon="9.0030383"><ele>255.0</ele><time>2026-04-25T15:00:48.231Z</time></trkpt><trkpt lat="45.6717167" lon="9.0028867"><ele>254.0</ele><time>2026-04-25T15:00:49.23Z</time></trkpt><trkpt lat="45.67162" lon="9.0027583"><ele>254.0</ele><time>2026-04-25T15:00:50.233Z</time></trkpt><trkpt lat="45.6715367" lon="9.0026517"><ele>253.99999999999997</ele><time>2026-04-25T15:00:51.23Z</time></trkpt><trkpt lat="45.6714667" lon="9.0025533"><ele>253.99999999999997</ele><time>2026-04-25T15:00:52.229Z</time></trkpt><trkpt lat="45.6714083" lon="9.00245"><ele>254.0</ele><time>2026-04-25T15:00:53.229Z</time></trkpt><trkpt lat="45.6713583" lon="9.0023467"><ele>254.0</ele><time>2026-04-25T15:00:54.228Z</time></trkpt><trkpt lat="45.6713033" lon="9.0022617"><ele>254.00000000000003</ele><time>2026-04-25T15:00:55.232Z</time></trkpt><trkpt lat="45.671235" lon="9.002205"><ele>254.0</ele><time>2026-04-25T15:00:56.228Z</time></trkpt><trkpt lat="45.6711617" lon="9.0021917"><ele>254.0</ele><time>2026-04-25T15:00:57.228Z</time></trkpt><trkpt lat="45.671085" lon="9.0022083"><ele>254.0</ele><time>2026-04-25T15:00:58.228Z</time></trkpt><trkpt lat="45.670995" lon="9.00223"><ele>254.00000000000003</ele><time>2026-04-25T15:00:59.231Z</time></trkpt><trkpt lat="45.67089" lon="9.00223"><ele>254.0</ele><time>2026-04-25T15:01:00.228Z</time></trkpt><trkpt lat="45.6707683" lon="9.002205"><ele>254.0</ele><time>2026-04-25T15:01:01.229Z</time></trkpt><trkpt lat="45.670625" lon="9.00217"><ele>254.0</ele><time>2026-04-25T15:01:02.232Z</time></trkpt><trkpt lat="45.67046" lon="9.0021333"><ele>254.0</ele><time>2026-04-25T15:01:03.231Z</time></trkpt><trkpt lat="45.6702833" lon="9.0020917"><ele>253.0</ele><time>2026-04-25T15:01:04.228Z</time></trkpt><trkpt lat="45.6701067" lon="9.0020483"><ele>252.0</ele><time>2026-04-25T15:01:05.229Z</time></trkpt><trkpt lat="45.6699317" lon="9.002005"><ele>251.0</ele><time>2026-04-25T15:01:06.231Z</time></trkpt><trkpt lat="45.669755" lon="9.0019617"><ele>251.0</ele><time>2026-04-25T15:01:07.229Z</time></trkpt><trkpt lat="45.6695767" lon="9.0019167"><ele>251.0</ele><time>2026-04-25T15:01:08.231Z</time></trkpt><trkpt lat="45.669395" lon="9.0018717"><ele>251.0</ele><time>2026-04-25T15:01:09.23Z</time></trkpt><trkpt lat="45.6692067" lon="9.0018217"><ele>251.33333333333334</ele><time>2026-04-25T15:01:10.228Z</time></trkpt><trkpt lat="45.669015" lon="9.0017733"><ele>251.66666666666669</ele><time>2026-04-25T15:01:11.228Z</time></trkpt><trkpt lat="45.6688183" lon="9.0017283"><ele>252.0</ele><time>2026-04-25T15:01:12.228Z</time></trkpt><trkpt lat="45.668625" lon="9.0016817"><ele>251.66666666666669</ele><time>2026-04-25T15:01:13.228Z</time></trkpt><trkpt lat="45.6684383" lon="9.001635"><ele>251.33333333333334</ele><time>2026-04-25T15:01:14.229Z</time></trkpt><trkpt lat="45.668255" lon="9.0015817"><ele>251.0</ele><time>2026-04-25T15:01:15.232Z</time></trkpt><trkpt lat="45.668075" lon="9.0015333"><ele>251.0</ele><time>2026-04-25T15:01:16.228Z</time></trkpt><trkpt lat="45.6678933" lon="9.001485"><ele>251.0</ele><time>2026-04-25T15:01:17.229Z</time></trkpt><trkpt lat="45.6677083" lon="9.00144"><ele>251.0</ele><time>2026-04-25T15:01:18.228Z</time></trkpt><trkpt lat="45.6675267" lon="9.001395"><ele>251.0</ele><time>2026-04-25T15:01:19.229Z</time></trkpt><trkpt lat="45.667345" lon="9.00135"><ele>251.0</ele><time>2026-04-25T15:01:20.229Z</time></trkpt><trkpt lat="45.66716" lon="9.0013"><ele>251.0</ele><time>2026-04-25T15:01:21.23Z</time></trkpt><trkpt lat="45.6669733" lon="9.00125"><ele>251.66666666666669</ele><time>2026-04-25T15:01:22.228Z</time></trkpt><trkpt lat="45.6667867" lon="9.0012033"><ele>252.33333333333331</ele><time>2026-04-25T15:01:23.229Z</time></trkpt><trkpt lat="45.6665967" lon="9.00116"><ele>253.0</ele><time>2026-04-25T15:01:24.229Z</time></trkpt><trkpt lat="45.6664083" lon="9.0011133"><ele>253.0</ele><time>2026-04-25T15:01:25.228Z</time></trkpt><trkpt lat="45.6662183" lon="9.0010633"><ele>253.0</ele><time>2026-04-25T15:01:26.229Z</time></trkpt><trkpt lat="45.6660283" lon="9.00102"><ele>253.0</ele><time>2026-04-25T15:01:27.231Z</time></trkpt><trkpt lat="45.6658383" lon="9.0009783"><ele>251.33333333333331</ele><time>2026-04-25T15:01:28.228Z</time></trkpt><trkpt lat="45.66565" lon="9.000935"><ele>249.66666666666669</ele><time>2026-04-25T15:01:29.229Z</time></trkpt><trkpt lat="45.66547" lon="9.00089"><ele>248.0</ele><time>2026-04-25T15:01:30.23Z</time></trkpt><trkpt lat="45.6652983" lon="9.0008483"><ele>247.66666666666669</ele><time>2026-04-25T15:01:31.229Z</time></trkpt><trkpt lat="45.6651383" lon="9.00081"><ele>247.33333333333331</ele><time>2026-04-25T15:01:32.23Z</time></trkpt><trkpt lat="45.6649883" lon="9.0007733"><ele>247.0</ele><time>2026-04-25T15:01:33.231Z</time></trkpt><trkpt lat="45.6648483" lon="9.0007367"><ele>247.0</ele><time>2026-04-25T15:01:34.229Z</time></trkpt><trkpt lat="45.664725" lon="9.0007033"><ele>247.0</ele><time>2026-04-25T15:01:35.23Z</time></trkpt><trkpt lat="45.6646133" lon="9.00067"><ele>247.0</ele><time>2026-04-25T15:01:36.23Z</time></trkpt><trkpt lat="45.6645133" lon="9.0006317"><ele>247.0</ele><time>2026-04-25T15:01:37.231Z</time></trkpt><trkpt lat="45.664425" lon="9.0005833"><ele>247.0</ele><time>2026-04-25T15:01:38.23Z</time></trkpt><trkpt lat="45.6643433" lon="9.000525"><ele>247.0</ele><time>2026-04-25T15:01:39.23Z</time></trkpt><trkpt lat="45.6642667" lon="9.00047"><ele>247.0</ele><time>2026-04-25T15:01:40.231Z</time></trkpt><trkpt lat="45.66418" lon="9.000435"><ele>247.0</ele><time>2026-04-25T15:01:41.232Z</time></trkpt><trkpt lat="45.6640817" lon="9.000435"><ele>247.0</ele><time>2026-04-25T15:01:42.23Z</time></trkpt><trkpt lat="45.6639717" lon="9.000455"><ele>247.0</ele><time>2026-04-25T15:01:43.23Z</time></trkpt><trkpt lat="45.6638483" lon="9.0004583"><ele>247.0</ele><time>2026-04-25T15:01:44.229Z</time></trkpt><trkpt lat="45.663715" lon="9.0004417"><ele>247.0</ele><time>2026-04-25T15:01:45.228Z</time></trkpt><trkpt lat="45.6635667" lon="9.0004067"><ele>247.0</ele><time>2026-04-25T15:01:46.227Z</time></trkpt><trkpt lat="45.6634067" lon="9.000365"><ele>247.0</ele><time>2026-04-25T15:01:47.228Z</time></trkpt><trkpt lat="45.6632367" lon="9.0003233"><ele>247.0</ele><time>2026-04-25T15:01:48.229Z</time></trkpt><trkpt lat="45.66307" lon="9.0002783"><ele>247.0</ele><time>2026-04-25T15:01:49.228Z</time></trkpt><trkpt lat="45.6629033" lon="9.000235"><ele>247.0</ele><time>2026-04-25T15:01:50.228Z</time></trkpt><trkpt lat="45.6627333" lon="9.0001967"><ele>247.0</ele><time>2026-04-25T15:01:51.228Z</time></trkpt><trkpt lat="45.6625583" lon="9.000155"><ele>247.0</ele><time>2026-04-25T15:01:52.228Z</time></trkpt><trkpt lat="45.6623783" lon="9.0001133"><ele>247.0</ele><time>2026-04-25T15:01:53.231Z</time></trkpt><trkpt lat="45.662195" lon="9.0000667"><ele>247.0</ele><time>2026-04-25T15:01:54.227Z</time></trkpt><trkpt lat="45.6620133" lon="9.0000217"><ele>247.0</ele><time>2026-04-25T15:01:55.229Z</time></trkpt><trkpt lat="45.661835" lon="8.999975"><ele>247.0</ele><time>2026-04-25T15:01:56.227Z</time></trkpt><trkpt lat="45.6616667" lon="8.9999317"><ele>246.5</ele><time>2026-04-25T15:01:57.229Z</time></trkpt><trkpt lat="45.6615083" lon="8.999895"><ele>246.0</ele><time>2026-04-25T15:01:58.229Z</time></trkpt><trkpt lat="45.66136" lon="8.9998617"><ele>245.5</ele><time>2026-04-25T15:01:59.228Z</time></trkpt><trkpt lat="45.661225" lon="8.9998267"><ele>245.0</ele><time>2026-04-25T15:02:00.228Z</time></trkpt><trkpt lat="45.661095" lon="8.9997917"><ele>244.75</ele><time>2026-04-25T15:02:01.229Z</time></trkpt><trkpt lat="45.660965" lon="8.9997567"><ele>244.5</ele><time>2026-04-25T15:02:02.228Z</time></trkpt><trkpt lat="45.660835" lon="8.9997217"><ele>244.25</ele><time>2026-04-25T15:02:03.229Z</time></trkpt><trkpt lat="45.6607" lon="8.9996883"><ele>244.0</ele><time>2026-04-25T15:02:04.229Z</time></trkpt><trkpt lat="45.6605633" lon="8.9996567"><ele>244.0</ele><time>2026-04-25T15:02:05.228Z</time></trkpt><trkpt lat="45.6604233" lon="8.9996217"><ele>244.0</ele><time>2026-04-25T15:02:06.228Z</time></trkpt><trkpt lat="45.6602783" lon="8.9995883"><ele>244.0</ele><time>2026-04-25T15:02:07.229Z</time></trkpt><trkpt lat="45.66013" lon="8.999555"><ele>244.0</ele><time>2026-04-25T15:02:08.228Z</time></trkpt><trkpt lat="45.6599767" lon="8.9995217"><ele>244.33333333333331</ele><time>2026-04-25T15:02:09.228Z</time></trkpt><trkpt lat="45.6598183" lon="8.999485"><ele>244.66666666666669</ele><time>2026-04-25T15:02:10.228Z</time></trkpt><trkpt lat="45.6596633" lon="8.99944"><ele>245.0</ele><time>2026-04-25T15:02:11.228Z</time></trkpt><trkpt lat="45.6595033" lon="8.999395"><ele>245.0</ele><time>2026-04-25T15:02:12.229Z</time></trkpt><trkpt lat="45.65934" lon="8.9993467"><ele>245.0</ele><time>2026-04-25T15:02:13.229Z</time></trkpt><trkpt lat="45.6591733" lon="8.9993033"><ele>245.0</ele><time>2026-04-25T15:02:14.229Z</time></trkpt><trkpt lat="45.659005" lon="8.9992617"><ele>245.0</ele><time>2026-04-25T15:02:15.228Z</time></trkpt><trkpt lat="45.6588417" lon="8.999225"><ele>245.0</ele><time>2026-04-25T15:02:16.229Z</time></trkpt><trkpt lat="45.6586883" lon="8.99919"><ele>245.0</ele><time>2026-04-25T15:02:17.229Z</time></trkpt><trkpt lat="45.658545" lon="8.9991567"><ele>244.5</ele><time>2026-04-25T15:02:18.229Z</time></trkpt><trkpt lat="45.6584083" lon="8.9991217"><ele>244.0</ele><time>2026-04-25T15:02:19.229Z</time></trkpt><trkpt lat="45.6582867" lon="8.99909"><ele>243.5</ele><time>2026-04-25T15:02:20.229Z</time></trkpt><trkpt lat="45.65818" lon="8.9990583"><ele>243.0</ele><time>2026-04-25T15:02:21.228Z</time></trkpt><trkpt lat="45.6580833" lon="8.99903"><ele>243.0</ele><time>2026-04-25T15:02:22.229Z</time></trkpt><trkpt lat="45.658" lon="8.999005"><ele>243.0</ele><time>2026-04-25T15:02:23.229Z</time></trkpt><trkpt lat="45.6579283" lon="8.9989783"><ele>243.0</ele><time>2026-04-25T15:02:24.228Z</time></trkpt><trkpt lat="45.6578183" lon="8.9989417"><ele>243.0</ele><time>2026-04-25T15:02:26.228Z</time></trkpt><trkpt lat="45.6577383" lon="8.9989133"><ele>243.0</ele><time>2026-04-25T15:02:28.228Z</time></trkpt><trkpt lat="45.6576717" lon="8.9989183"><ele>243.0</ele><time>2026-04-25T15:02:30.229Z</time></trkpt><trkpt lat="45.6575867" lon="8.9989167"><ele>242.8</ele><time>2026-04-25T15:02:33.228Z</time></trkpt><trkpt lat="45.6575083" lon="8.9988933"><ele>242.60000000000002</ele><time>2026-04-25T15:02:36.232Z</time></trkpt><trkpt lat="45.65741" lon="8.9988483"><ele>242.39999999999998</ele><time>2026-04-25T15:02:38.228Z</time></trkpt><trkpt lat="45.65733" lon="8.9988133"><ele>242.2</ele><time>2026-04-25T15:02:39.228Z</time></trkpt><trkpt lat="45.6572367" lon="8.9987767"><ele>242.0</ele><time>2026-04-25T15:02:40.229Z</time></trkpt><trkpt lat="45.657125" lon="8.9987383"><ele>242.0</ele><time>2026-04-25T15:02:41.23Z</time></trkpt><trkpt lat="45.657" lon="8.9986917"><ele>242.0</ele><time>2026-04-25T15:02:42.232Z</time></trkpt><trkpt lat="45.6568633" lon="8.998645"><ele>242.0</ele><time>2026-04-25T15:02:43.23Z</time></trkpt><trkpt lat="45.656725" lon="8.99861"><ele>242.0</ele><time>2026-04-25T15:02:44.228Z</time></trkpt><trkpt lat="45.65658" lon="8.998585"><ele>242.0</ele><time>2026-04-25T15:02:45.229Z</time></trkpt><trkpt lat="45.656425" lon="8.9985633"><ele>242.0</ele><time>2026-04-25T15:02:46.229Z</time></trkpt><trkpt lat="45.65626" lon="8.9985467"><ele>242.0</ele><time>2026-04-25T15:02:47.23Z</time></trkpt><trkpt lat="45.6560983" lon="8.99852"><ele>241.66666666666669</ele><time>2026-04-25T15:02:48.228Z</time></trkpt><trkpt lat="45.65594" lon="8.9984833"><ele>241.33333333333331</ele><time>2026-04-25T15:02:49.228Z</time></trkpt><trkpt lat="45.65578" lon="8.998445"><ele>241.0</ele><time>2026-04-25T15:02:50.228Z</time></trkpt><trkpt lat="45.6556217" lon="8.9984017"><ele>241.0</ele><time>2026-04-25T15:02:51.229Z</time></trkpt><trkpt lat="45.6554667" lon="8.9983533"><ele>241.0</ele><time>2026-04-25T15:02:52.228Z</time></trkpt><trkpt lat="45.6553067" lon="8.9982967"><ele>241.0</ele><time>2026-04-25T15:02:53.229Z</time></trkpt><trkpt lat="45.6551433" lon="8.9982417"><ele>241.0</ele><time>2026-04-25T15:02:54.23Z</time></trkpt><trkpt lat="45.6549783" lon="8.9981783"><ele>241.0</ele><time>2026-04-25T15:02:55.228Z</time></trkpt><trkpt lat="45.6548133" lon="8.998115"><ele>241.0</ele><time>2026-04-25T15:02:56.228Z</time></trkpt><trkpt lat="45.65465" lon="8.9980533"><ele>241.0</ele><time>2026-04-25T15:02:57.229Z</time></trkpt><trkpt lat="45.6544867" lon="8.9979917"><ele>241.0</ele><time>2026-04-25T15:02:58.229Z</time></trkpt><trkpt lat="45.6543367" lon="8.9979317"><ele>241.0</ele><time>2026-04-25T15:02:59.228Z</time></trkpt><trkpt lat="45.6541917" lon="8.9978783"><ele>240.75</ele><time>2026-04-25T15:03:00.228Z</time></trkpt><trkpt lat="45.654055" lon="8.9978283"><ele>240.5</ele><time>2026-04-25T15:03:01.228Z</time></trkpt><trkpt lat="45.653925" lon="8.9977833"><ele>240.25</ele><time>2026-04-25T15:03:02.229Z</time></trkpt><trkpt lat="45.653795" lon="8.9977417"><ele>240.0</ele><time>2026-04-25T15:03:03.229Z</time></trkpt><trkpt lat="45.6536617" lon="8.9976967"><ele>239.25</ele><time>2026-04-25T15:03:04.229Z</time></trkpt><trkpt lat="45.6535283" lon="8.997655"><ele>238.5</ele><time>2026-04-25T15:03:05.229Z</time></trkpt><trkpt lat="45.6534" lon="8.9976117"><ele>237.75</ele><time>2026-04-25T15:03:06.23Z</time></trkpt><trkpt lat="45.6532817" lon="8.9975667"><ele>237.0</ele><time>2026-04-25T15:03:07.23Z</time></trkpt><trkpt lat="45.6531767" lon="8.99752"><ele>237.0</ele><time>2026-04-25T15:03:08.229Z</time></trkpt><trkpt lat="45.6530833" lon="8.9974667"><ele>237.0</ele><time>2026-04-25T15:03:09.228Z</time></trkpt><trkpt lat="45.6530067" lon="8.9974117"><ele>237.0</ele><time>2026-04-25T15:03:10.228Z</time></trkpt><trkpt lat="45.652935" lon="8.9973583"><ele>237.0</ele><time>2026-04-25T15:03:11.23Z</time></trkpt><trkpt lat="45.6528667" lon="8.99731"><ele>237.0</ele><time>2026-04-25T15:03:12.229Z</time></trkpt><trkpt lat="45.652795" lon="8.99727"><ele>237.0</ele><time>2026-04-25T15:03:13.23Z</time></trkpt><trkpt lat="45.6527117" lon="8.99725"><ele>237.0</ele><time>2026-04-25T15:03:14.23Z</time></trkpt><trkpt lat="45.6526067" lon="8.997245"><ele>237.0</ele><time>2026-04-25T15:03:15.228Z</time></trkpt><trkpt lat="45.6524817" lon="8.9972367"><ele>237.0</ele><time>2026-04-25T15:03:16.228Z</time></trkpt><trkpt lat="45.6523533" lon="8.9972167"><ele>237.0</ele><time>2026-04-25T15:03:17.229Z</time></trkpt><trkpt lat="45.652215" lon="8.997185"><ele>237.0</ele><time>2026-04-25T15:03:18.228Z</time></trkpt><trkpt lat="45.6520683" lon="8.99714"><ele>237.0</ele><time>2026-04-25T15:03:19.228Z</time></trkpt><trkpt lat="45.651915" lon="8.9970867"><ele>237.0</ele><time>2026-04-25T15:03:20.23Z</time></trkpt><trkpt lat="45.65176" lon="8.99703"><ele>237.0</ele><time>2026-04-25T15:03:21.23Z</time></trkpt><trkpt lat="45.6516083" lon="8.9969683"><ele>237.0</ele><time>2026-04-25T15:03:22.229Z</time></trkpt><trkpt lat="45.6514617" lon="8.9968933"><ele>237.0</ele><time>2026-04-25T15:03:23.23Z</time></trkpt><trkpt lat="45.6513183" lon="8.9968067"><ele>237.0</ele><time>2026-04-25T15:03:24.233Z</time></trkpt><trkpt lat="45.6511817" lon="8.9967033"><ele>237.0</ele><time>2026-04-25T15:03:25.231Z</time></trkpt><trkpt lat="45.6510483" lon="8.9965833"><ele>237.0</ele><time>2026-04-25T15:03:26.23Z</time></trkpt><trkpt lat="45.65092" lon="8.9964467"><ele>237.0</ele><time>2026-04-25T15:03:27.23Z</time></trkpt><trkpt lat="45.650795" lon="8.9962967"><ele>237.0</ele><time>2026-04-25T15:03:28.23Z</time></trkpt><trkpt lat="45.6506733" lon="8.996135"><ele>237.0</ele><time>2026-04-25T15:03:29.23Z</time></trkpt><trkpt lat="45.6505483" lon="8.9959683"><ele>236.66666666666669</ele><time>2026-04-25T15:03:30.231Z</time></trkpt><trkpt lat="45.6504217" lon="8.9957983"><ele>236.33333333333334</ele><time>2026-04-25T15:03:31.23Z</time></trkpt><trkpt lat="45.6502933" lon="8.995625"><ele>236.0</ele><time>2026-04-25T15:03:32.233Z</time></trkpt><trkpt lat="45.6501683" lon="8.9954567"><ele>235.33333333333334</ele><time>2026-04-25T15:03:33.23Z</time></trkpt><trkpt lat="45.6500483" lon="8.995295"><ele>234.66666666666669</ele><time>2026-04-25T15:03:34.231Z</time></trkpt><trkpt lat="45.649935" lon="8.99514"><ele>234.0</ele><time>2026-04-25T15:03:35.23Z</time></trkpt><trkpt lat="45.6498267" lon="8.9949967"><ele>234.0</ele><time>2026-04-25T15:03:36.23Z</time></trkpt><trkpt lat="45.6497233" lon="8.9948567"><ele>234.0</ele><time>2026-04-25T15:03:37.232Z</time></trkpt><trkpt lat="45.6496233" lon="8.994725"><ele>234.0</ele><time>2026-04-25T15:03:38.23Z</time></trkpt><trkpt lat="45.6495267" lon="8.9945967"><ele>234.0</ele><time>2026-04-25T15:03:39.23Z</time></trkpt><trkpt lat="45.649425" lon="8.994465"><ele>233.5</ele><time>2026-04-25T15:03:40.231Z</time></trkpt><trkpt lat="45.6493233" lon="8.99433"><ele>233.0</ele><time>2026-04-25T15:03:41.229Z</time></trkpt><trkpt lat="45.6492217" lon="8.994195"><ele>232.5</ele><time>2026-04-25T15:03:42.228Z</time></trkpt><trkpt lat="45.64912" lon="8.9940667"><ele>232.0</ele><time>2026-04-25T15:03:43.227Z</time></trkpt><trkpt lat="45.6490267" lon="8.9939417"><ele>231.0</ele><time>2026-04-25T15:03:44.228Z</time></trkpt><trkpt lat="45.64894" lon="8.993825"><ele>230.0</ele><time>2026-04-25T15:03:45.228Z</time></trkpt><trkpt lat="45.648865" lon="8.9937117"><ele>229.0</ele><time>2026-04-25T15:03:46.227Z</time></trkpt><trkpt lat="45.648805" lon="8.9935883"><ele>228.0</ele><time>2026-04-25T15:03:47.228Z</time></trkpt><trkpt lat="45.648765" lon="8.9934533"><ele>227.0</ele><time>2026-04-25T15:03:48.228Z</time></trkpt><trkpt lat="45.6487483" lon="8.9933067"><ele>227.0</ele><time>2026-04-25T15:03:49.228Z</time></trkpt><trkpt lat="45.648755" lon="8.99316"><ele>227.0</ele><time>2026-04-25T15:03:50.229Z</time></trkpt><trkpt lat="45.64878" lon="8.993025"><ele>227.0</ele><time>2026-04-25T15:03:51.229Z</time></trkpt><trkpt lat="45.64881" lon="8.9928983"><ele>227.0</ele><time>2026-04-25T15:03:52.228Z</time></trkpt><trkpt lat="45.6488317" lon="8.9927783"><ele>227.0</ele><time>2026-04-25T15:03:53.23Z</time></trkpt><trkpt lat="45.6488433" lon="8.99266"><ele>227.00000000000003</ele><time>2026-04-25T15:03:54.228Z</time></trkpt><trkpt lat="45.6488417" lon="8.9925467"><ele>227.0</ele><time>2026-04-25T15:03:55.228Z</time></trkpt><trkpt lat="45.6488333" lon="8.992435"><ele>227.0</ele><time>2026-04-25T15:03:56.228Z</time></trkpt><trkpt lat="45.648825" lon="8.9923267"><ele>227.0</ele><time>2026-04-25T15:03:57.23Z</time></trkpt><trkpt lat="45.648815" lon="8.9922167"><ele>227.00000000000003</ele><time>2026-04-25T15:03:58.228Z</time></trkpt><trkpt lat="45.64879" lon="8.9921117"><ele>227.0</ele><time>2026-04-25T15:03:59.229Z</time></trkpt><trkpt lat="45.6487417" lon="8.992035"><ele>227.33333333333334</ele><time>2026-04-25T15:04:00.229Z</time></trkpt><trkpt lat="45.6486767" lon="8.9919867"><ele>227.66666666666669</ele><time>2026-04-25T15:04:01.228Z</time></trkpt><trkpt lat="45.6486033" lon="8.9920217"><ele>228.0</ele><time>2026-04-25T15:04:02.229Z</time></trkpt><trkpt lat="45.6485317" lon="8.99207"><ele>228.33333333333331</ele><time>2026-04-25T15:04:03.228Z</time></trkpt><trkpt lat="45.64849" lon="8.9921817"><ele>228.66666666666666</ele><time>2026-04-25T15:04:04.229Z</time></trkpt><trkpt lat="45.6484567" lon="8.99231"><ele>229.0</ele><time>2026-04-25T15:04:05.227Z</time></trkpt><trkpt lat="45.6484117" lon="8.9924483"><ele>229.0</ele><time>2026-04-25T15:04:06.228Z</time></trkpt><trkpt lat="45.6483483" lon="8.9925933"><ele>229.0</ele><time>2026-04-25T15:04:07.228Z</time></trkpt><trkpt lat="45.648265" lon="8.992735"><ele>229.0</ele><time>2026-04-25T15:04:08.229Z</time></trkpt><trkpt lat="45.6481683" lon="8.992885"><ele>229.0</ele><time>2026-04-25T15:04:09.228Z</time></trkpt><trkpt lat="45.6480567" lon="8.9930517"><ele>229.0</ele><time>2026-04-25T15:04:10.228Z</time></trkpt><trkpt lat="45.6479417" lon="8.9932217"><ele>229.0</ele><time>2026-04-25T15:04:11.23Z</time></trkpt><trkpt lat="45.647835" lon="8.9933883"><ele>229.0</ele><time>2026-04-25T15:04:12.23Z</time></trkpt><trkpt lat="45.647725" lon="8.993555"><ele>229.66666666666666</ele><time>2026-04-25T15:04:13.228Z</time></trkpt><trkpt lat="45.6476133" lon="8.9937233"><ele>230.33333333333331</ele><time>2026-04-25T15:04:14.229Z</time></trkpt><trkpt lat="45.6475067" lon="8.993895"><ele>231.0</ele><time>2026-04-25T15:04:15.229Z</time></trkpt><trkpt lat="45.6473983" lon="8.9940633"><ele>231.66666666666669</ele><time>2026-04-25T15:04:16.229Z</time></trkpt><trkpt lat="45.6472867" lon="8.994225"><ele>232.33333333333334</ele><time>2026-04-25T15:04:17.229Z</time></trkpt><trkpt lat="45.64717" lon="8.9943883"><ele>233.0</ele><time>2026-04-25T15:04:18.228Z</time></trkpt><trkpt lat="45.6470617" lon="8.9945467"><ele>232.66666666666669</ele><time>2026-04-25T15:04:19.229Z</time></trkpt><trkpt lat="45.6469517" lon="8.9947017"><ele>232.33333333333331</ele><time>2026-04-25T15:04:20.229Z</time></trkpt><trkpt lat="45.646845" lon="8.9948617"><ele>232.0</ele><time>2026-04-25T15:04:21.23Z</time></trkpt><trkpt lat="45.646735" lon="8.995025"><ele>231.25</ele><time>2026-04-25T15:04:22.229Z</time></trkpt><trkpt lat="45.6466267" lon="8.9951817"><ele>230.5</ele><time>2026-04-25T15:04:23.228Z</time></trkpt><trkpt lat="45.6465233" lon="8.99533"><ele>229.75</ele><time>2026-04-25T15:04:24.23Z</time></trkpt><trkpt lat="45.6464267" lon="8.9954733"><ele>229.0</ele><time>2026-04-25T15:04:25.228Z</time></trkpt><trkpt lat="45.6463417" lon="8.995605"><ele>229.0</ele><time>2026-04-25T15:04:26.228Z</time></trkpt><trkpt lat="45.64626" lon="8.9957283"><ele>229.0</ele><time>2026-04-25T15:04:27.229Z</time></trkpt><trkpt lat="45.6461817" lon="8.9958517"><ele>229.0</ele><time>2026-04-25T15:04:28.228Z</time></trkpt><trkpt lat="45.6461017" lon="8.9959767"><ele>229.0</ele><time>2026-04-25T15:04:29.229Z</time></trkpt><trkpt lat="45.6460183" lon="8.9961033"><ele>229.25</ele><time>2026-04-25T15:04:30.228Z</time></trkpt><trkpt lat="45.6459367" lon="8.99623"><ele>229.5</ele><time>2026-04-25T15:04:31.228Z</time></trkpt><trkpt lat="45.6458517" lon="8.996355"><ele>229.75</ele><time>2026-04-25T15:04:32.228Z</time></trkpt><trkpt lat="45.6457683" lon="8.9964817"><ele>230.0</ele><time>2026-04-25T15:04:33.231Z</time></trkpt><trkpt lat="45.6456867" lon="8.9966033"><ele>230.4</ele><time>2026-04-25T15:04:34.23Z</time></trkpt><trkpt lat="45.6456067" lon="8.996725"><ele>230.8</ele><time>2026-04-25T15:04:35.23Z</time></trkpt><trkpt lat="45.6455283" lon="8.99684"><ele>231.2</ele><time>2026-04-25T15:04:36.231Z</time></trkpt><trkpt lat="45.6454567" lon="8.99695"><ele>231.6</ele><time>2026-04-25T15:04:37.23Z</time></trkpt><trkpt lat="45.64538" lon="8.9970617"><ele>232.0</ele><time>2026-04-25T15:04:38.23Z</time></trkpt><trkpt lat="45.6453017" lon="8.9971767"><ele>231.25</ele><time>2026-04-25T15:04:39.231Z</time></trkpt><trkpt lat="45.6452217" lon="8.9972933"><ele>230.5</ele><time>2026-04-25T15:04:40.229Z</time></trkpt><trkpt lat="45.6451383" lon="8.9974133"><ele>229.75</ele><time>2026-04-25T15:04:41.229Z</time></trkpt><trkpt lat="45.6450517" lon="8.9975383"><ele>229.0</ele><time>2026-04-25T15:04:42.229Z</time></trkpt><trkpt lat="45.6449633" lon="8.99767"><ele>229.0</ele><time>2026-04-25T15:04:43.23Z</time></trkpt><trkpt lat="45.644875" lon="8.9978017"><ele>229.0</ele><time>2026-04-25T15:04:44.228Z</time></trkpt><trkpt lat="45.644785" lon="8.9979367"><ele>229.0</ele><time>2026-04-25T15:04:45.23Z</time></trkpt><trkpt lat="45.6446933" lon="8.998075"><ele>229.0</ele><time>2026-04-25T15:04:46.228Z</time></trkpt><trkpt lat="45.644595" lon="8.9982233"><ele>229.5</ele><time>2026-04-25T15:04:47.23Z</time></trkpt><trkpt lat="45.6444917" lon="8.9983683"><ele>230.0</ele><time>2026-04-25T15:04:48.23Z</time></trkpt><trkpt lat="45.64439" lon="8.9985167"><ele>230.5</ele><time>2026-04-25T15:04:49.23Z</time></trkpt><trkpt lat="45.644285" lon="8.998665"><ele>231.0</ele><time>2026-04-25T15:04:50.231Z</time></trkpt><trkpt lat="45.64418" lon="8.9988183"><ele>231.0</ele><time>2026-04-25T15:04:51.231Z</time></trkpt><trkpt lat="45.6440717" lon="8.99897"><ele>231.0</ele><time>2026-04-25T15:04:52.229Z</time></trkpt><trkpt lat="45.6439683" lon="8.99912"><ele>231.0</ele><time>2026-04-25T15:04:53.23Z</time></trkpt><trkpt lat="45.64387" lon="8.9992717"><ele>231.0</ele><time>2026-04-25T15:04:54.23Z</time></trkpt><trkpt lat="45.6437683" lon="8.99942"><ele>231.0</ele><time>2026-04-25T15:04:55.231Z</time></trkpt><trkpt lat="45.643665" lon="8.9995633"><ele>231.0</ele><time>2026-04-25T15:04:56.23Z</time></trkpt><trkpt lat="45.64357" lon="8.9997033"><ele>231.0</ele><time>2026-04-25T15:04:57.23Z</time></trkpt><trkpt lat="45.643475" lon="8.9998333"><ele>231.0</ele><time>2026-04-25T15:04:58.23Z</time></trkpt><trkpt lat="45.6433883" lon="8.9999583"><ele>231.0</ele><time>2026-04-25T15:04:59.229Z</time></trkpt><trkpt lat="45.643315" lon="9.0000783"><ele>231.00000000000003</ele><time>2026-04-25T15:05:00.23Z</time></trkpt><trkpt lat="45.6432433" lon="9.0001867"><ele>231.00000000000003</ele><time>2026-04-25T15:05:01.231Z</time></trkpt><trkpt lat="45.6431717" lon="9.0002867"><ele>231.0</ele><time>2026-04-25T15:05:02.23Z</time></trkpt><trkpt lat="45.6431067" lon="9.000385"><ele>231.0</ele><time>2026-04-25T15:05:03.23Z</time></trkpt><trkpt lat="45.6430433" lon="9.0004783"><ele>231.0</ele><time>2026-04-25T15:05:04.23Z</time></trkpt><trkpt lat="45.64298" lon="9.0005683"><ele>231.0</ele><time>2026-04-25T15:05:05.228Z</time></trkpt><trkpt lat="45.6429217" lon="9.0006417"><ele>231.0</ele><time>2026-04-25T15:05:06.229Z</time></trkpt><trkpt lat="45.6428667" lon="9.0006983"><ele>231.0</ele><time>2026-04-25T15:05:07.229Z</time></trkpt><trkpt lat="45.6428" lon="9.000745"><ele>231.0</ele><time>2026-04-25T15:05:10.23Z</time></trkpt><trkpt lat="45.642685" lon="9.0008417"><ele>231.0</ele><time>2026-04-25T15:05:13.232Z</time></trkpt><trkpt lat="45.6426367" lon="9.001"><ele>230.57142857142856</ele><time>2026-04-25T15:05:15.23Z</time></trkpt><trkpt lat="45.6426167" lon="9.0010883"><ele>230.14285714285714</ele><time>2026-04-25T15:05:16.23Z</time></trkpt><trkpt lat="45.6425867" lon="9.00117"><ele>229.71428571428572</ele><time>2026-04-25T15:05:17.229Z</time></trkpt><trkpt lat="45.642545" lon="9.0012467"><ele>229.28571428571428</ele><time>2026-04-25T15:05:18.23Z</time></trkpt><trkpt lat="45.642495" lon="9.00132"><ele>228.85714285714283</ele><time>2026-04-25T15:05:19.231Z</time></trkpt><trkpt lat="45.6424383" lon="9.0013917"><ele>228.42857142857142</ele><time>2026-04-25T15:05:20.231Z</time></trkpt><trkpt lat="45.6423767" lon="9.0014767"><ele>228.0</ele><time>2026-04-25T15:05:21.23Z</time></trkpt><trkpt lat="45.642315" lon="9.0015633"><ele>228.0</ele><time>2026-04-25T15:05:22.23Z</time></trkpt><trkpt lat="45.64225" lon="9.00165"><ele>228.0</ele><time>2026-04-25T15:05:23.23Z</time></trkpt><trkpt lat="45.6421817" lon="9.0017533"><ele>228.0</ele><time>2026-04-25T15:05:24.229Z</time></trkpt><trkpt lat="45.6421067" lon="9.0018633"><ele>228.0</ele><time>2026-04-25T15:05:25.23Z</time></trkpt><trkpt lat="45.642035" lon="9.0019733"><ele>228.0</ele><time>2026-04-25T15:05:26.229Z</time></trkpt><trkpt lat="45.6419667" lon="9.0020783"><ele>228.4</ele><time>2026-04-25T15:05:27.23Z</time></trkpt><trkpt lat="45.6419033" lon="9.00217"><ele>228.8</ele><time>2026-04-25T15:05:28.23Z</time></trkpt><trkpt lat="45.6418433" lon="9.0022567"><ele>229.2</ele><time>2026-04-25T15:05:29.23Z</time></trkpt><trkpt lat="45.6417367" lon="9.002425"><ele>229.6</ele><time>2026-04-25T15:05:31.228Z</time></trkpt><trkpt lat="45.64169" lon="9.002495"><ele>230.0</ele><time>2026-04-25T15:05:32.228Z</time></trkpt><trkpt lat="45.6416083" lon="9.0026167"><ele>230.00000000000003</ele><time>2026-04-25T15:05:34.228Z</time></trkpt><trkpt lat="45.6415433" lon="9.0027117"><ele>230.0</ele><time>2026-04-25T15:05:36.228Z</time></trkpt><trkpt lat="45.6414983" lon="9.0027817"><ele>230.0</ele><time>2026-04-25T15:05:38.228Z</time></trkpt><trkpt lat="45.6414517" lon="9.0028533"><ele>230.0</ele><time>2026-04-25T15:05:40.229Z</time></trkpt><trkpt lat="45.6414017" lon="9.00293"><ele>230.00000000000003</ele><time>2026-04-25T15:05:42.229Z</time></trkpt><trkpt lat="45.6413333" lon="9.003025"><ele>230.0</ele><time>2026-04-25T15:05:44.229Z</time></trkpt><trkpt lat="45.6412583" lon="9.0031283"><ele>230.0</ele><time>2026-04-25T15:05:46.228Z</time></trkpt><trkpt lat="45.6411917" lon="9.0032367"><ele>230.0</ele><time>2026-04-25T15:05:48.229Z</time></trkpt><trkpt lat="45.6411033" lon="9.00338"><ele>230.0</ele><time>2026-04-25T15:05:50.228Z</time></trkpt><trkpt lat="45.641045" lon="9.003475"><ele>230.0</ele><time>2026-04-25T15:05:51.229Z</time></trkpt><trkpt lat="45.64097" lon="9.0035933"><ele>230.0</ele><time>2026-04-25T15:05:52.23Z</time></trkpt><trkpt lat="45.6408867" lon="9.0037217"><ele>230.0</ele><time>2026-04-25T15:05:53.228Z</time></trkpt><trkpt lat="45.6408033" lon="9.0038367"><ele>230.0</ele><time>2026-04-25T15:05:54.228Z</time></trkpt><trkpt lat="45.6407233" lon="9.003945"><ele>230.0</ele><time>2026-04-25T15:05:55.229Z</time></trkpt><trkpt lat="45.640655" lon="9.0040467"><ele>230.0</ele><time>2026-04-25T15:05:56.23Z</time></trkpt><trkpt lat="45.6405883" lon="9.0041533"><ele>230.0</ele><time>2026-04-25T15:05:57.23Z</time></trkpt><trkpt lat="45.6405183" lon="9.00427"><ele>230.0</ele><time>2026-04-25T15:05:58.228Z</time></trkpt><trkpt lat="45.6404333" lon="9.0044033"><ele>230.0</ele><time>2026-04-25T15:05:59.228Z</time></trkpt><trkpt lat="45.640335" lon="9.0045417"><ele>230.0</ele><time>2026-04-25T15:06:00.227Z</time></trkpt><trkpt lat="45.640235" lon="9.0046783"><ele>230.0</ele><time>2026-04-25T15:06:01.229Z</time></trkpt><trkpt lat="45.640135" lon="9.004825"><ele>229.75</ele><time>2026-04-25T15:06:02.228Z</time></trkpt><trkpt lat="45.6400333" lon="9.0049717"><ele>229.5</ele><time>2026-04-25T15:06:03.229Z</time></trkpt><trkpt lat="45.63993" lon="9.0051217"><ele>229.25</ele><time>2026-04-25T15:06:04.228Z</time></trkpt><trkpt lat="45.6398283" lon="9.00527"><ele>229.0</ele><time>2026-04-25T15:06:05.228Z</time></trkpt><trkpt lat="45.63972" lon="9.0054233"><ele>229.0</ele><time>2026-04-25T15:06:06.229Z</time></trkpt><trkpt lat="45.6396217" lon="9.0055717"><ele>229.0</ele><time>2026-04-25T15:06:07.23Z</time></trkpt><trkpt lat="45.63952" lon="9.0057167"><ele>229.0</ele><time>2026-04-25T15:06:08.23Z</time></trkpt><trkpt lat="45.6394283" lon="9.0058517"><ele>229.0</ele><time>2026-04-25T15:06:09.23Z</time></trkpt><trkpt lat="45.639345" lon="9.0059767"><ele>229.0</ele><time>2026-04-25T15:06:10.23Z</time></trkpt><trkpt lat="45.6392617" lon="9.006105"><ele>229.0</ele><time>2026-04-25T15:06:11.231Z</time></trkpt><trkpt lat="45.639175" lon="9.0062383"><ele>229.0</ele><time>2026-04-25T15:06:12.23Z</time></trkpt><trkpt lat="45.6390883" lon="9.0063733"><ele>229.0</ele><time>2026-04-25T15:06:13.23Z</time></trkpt><trkpt lat="45.6389933" lon="9.0065067"><ele>229.0</ele><time>2026-04-25T15:06:14.23Z</time></trkpt><trkpt lat="45.6388967" lon="9.0066383"><ele>229.0</ele><time>2026-04-25T15:06:15.23Z</time></trkpt><trkpt lat="45.6388083" lon="9.0067633"><ele>229.0</ele><time>2026-04-25T15:06:16.23Z</time></trkpt><trkpt lat="45.6387233" lon="9.0068867"><ele>229.0</ele><time>2026-04-25T15:06:17.229Z</time></trkpt><trkpt lat="45.6386417" lon="9.0070083"><ele>228.5</ele><time>2026-04-25T15:06:18.228Z</time></trkpt><trkpt lat="45.6385533" lon="9.0071317"><ele>228.0</ele><time>2026-04-25T15:06:19.229Z</time></trkpt><trkpt lat="45.6384617" lon="9.0072617"><ele>227.5</ele><time>2026-04-25T15:06:20.23Z</time></trkpt><trkpt lat="45.6383633" lon="9.0074"><ele>227.0</ele><time>2026-04-25T15:06:21.229Z</time></trkpt><trkpt lat="45.63827" lon="9.007545"><ele>226.75</ele><time>2026-04-25T15:06:22.229Z</time></trkpt><trkpt lat="45.638175" lon="9.007685"><ele>226.5</ele><time>2026-04-25T15:06:23.228Z</time></trkpt><trkpt lat="45.6380817" lon="9.0078217"><ele>226.25</ele><time>2026-04-25T15:06:24.228Z</time></trkpt><trkpt lat="45.6379933" lon="9.0079533"><ele>226.0</ele><time>2026-04-25T15:06:25.229Z</time></trkpt><trkpt lat="45.6379067" lon="9.008085"><ele>226.0</ele><time>2026-04-25T15:06:26.228Z</time></trkpt><trkpt lat="45.6378167" lon="9.0082167"><ele>226.0</ele><time>2026-04-25T15:06:27.229Z</time></trkpt><trkpt lat="45.637725" lon="9.00835"><ele>226.0</ele><time>2026-04-25T15:06:28.231Z</time></trkpt><trkpt lat="45.6376333" lon="9.0084867"><ele>226.0</ele><time>2026-04-25T15:06:29.228Z</time></trkpt><trkpt lat="45.6375383" lon="9.0086267"><ele>226.0</ele><time>2026-04-25T15:06:30.229Z</time></trkpt><trkpt lat="45.63744" lon="9.00877"><ele>226.0</ele><time>2026-04-25T15:06:31.228Z</time></trkpt><trkpt lat="45.637345" lon="9.0089133"><ele>226.0</ele><time>2026-04-25T15:06:32.229Z</time></trkpt><trkpt lat="45.6372483" lon="9.0090583"><ele>226.0</ele><time>2026-04-25T15:06:33.228Z</time></trkpt><trkpt lat="45.63715" lon="9.0092017"><ele>226.0</ele><time>2026-04-25T15:06:34.229Z</time></trkpt><trkpt lat="45.63705" lon="9.009345"><ele>226.0</ele><time>2026-04-25T15:06:35.228Z</time></trkpt><trkpt lat="45.6369517" lon="9.0094883"><ele>226.0</ele><time>2026-04-25T15:06:36.229Z</time></trkpt><trkpt lat="45.636855" lon="9.00963"><ele>226.0</ele><time>2026-04-25T15:06:37.229Z</time></trkpt><trkpt lat="45.6367583" lon="9.0097717"><ele>226.0</ele><time>2026-04-25T15:06:38.23Z</time></trkpt><trkpt lat="45.6366617" lon="9.0099167"><ele>226.0</ele><time>2026-04-25T15:06:39.229Z</time></trkpt><trkpt lat="45.6365667" lon="9.0100617"><ele>226.0</ele><time>2026-04-25T15:06:40.229Z</time></trkpt><trkpt lat="45.6364717" lon="9.0102083"><ele>226.0</ele><time>2026-04-25T15:06:41.229Z</time></trkpt><trkpt lat="45.636375" lon="9.0103533"><ele>225.75</ele><time>2026-04-25T15:06:42.228Z</time></trkpt><trkpt lat="45.6362783" lon="9.0104917"><ele>225.5</ele><time>2026-04-25T15:06:43.228Z</time></trkpt><trkpt lat="45.6361833" lon="9.0106283"><ele>225.25</ele><time>2026-04-25T15:06:44.228Z</time></trkpt><trkpt lat="45.6360917" lon="9.0107583"><ele>225.0</ele><time>2026-04-25T15:06:45.229Z</time></trkpt><trkpt lat="45.636005" lon="9.0108833"><ele>224.75</ele><time>2026-04-25T15:06:46.229Z</time></trkpt><trkpt lat="45.6359233" lon="9.0110117"><ele>224.5</ele><time>2026-04-25T15:06:47.229Z</time></trkpt><trkpt lat="45.6358433" lon="9.0111383"><ele>224.25</ele><time>2026-04-25T15:06:48.228Z</time></trkpt><trkpt lat="45.6357633" lon="9.0112633"><ele>224.0</ele><time>2026-04-25T15:06:49.229Z</time></trkpt><trkpt lat="45.63568" lon="9.0113833"><ele>224.0</ele><time>2026-04-25T15:06:50.229Z</time></trkpt><trkpt lat="45.6355933" lon="9.0115067"><ele>223.99999999999997</ele><time>2026-04-25T15:06:51.228Z</time></trkpt><trkpt lat="45.6355133" lon="9.0116217"><ele>223.99999999999997</ele><time>2026-04-25T15:06:52.228Z</time></trkpt><trkpt lat="45.6354383" lon="9.01173"><ele>224.0</ele><time>2026-04-25T15:06:53.229Z</time></trkpt><trkpt lat="45.63537" lon="9.011825"><ele>224.0</ele><time>2026-04-25T15:06:54.228Z</time></trkpt><trkpt lat="45.6353067" lon="9.0119133"><ele>224.2</ele><time>2026-04-25T15:06:55.228Z</time></trkpt><trkpt lat="45.6352483" lon="9.0119967"><ele>224.39999999999998</ele><time>2026-04-25T15:06:56.229Z</time></trkpt><trkpt lat="45.6351983" lon="9.0120667"><ele>224.6</ele><time>2026-04-25T15:06:57.23Z</time></trkpt><trkpt lat="45.635115" lon="9.01217"><ele>224.8</ele><time>2026-04-25T15:06:59.228Z</time></trkpt><trkpt lat="45.6350433" lon="9.01225"><ele>225.0</ele><time>2026-04-25T15:07:01.229Z</time></trkpt><trkpt lat="45.634925" lon="9.0122967"><ele>225.0</ele><time>2026-04-25T15:07:03.228Z</time></trkpt><trkpt lat="45.6348433" lon="9.0123067"><ele>225.0</ele><time>2026-04-25T15:07:04.228Z</time></trkpt><trkpt lat="45.634755" lon="9.0123"><ele>225.0</ele><time>2026-04-25T15:07:05.228Z</time></trkpt><trkpt lat="45.63466" lon="9.0122633"><ele>225.0</ele><time>2026-04-25T15:07:06.228Z</time></trkpt><trkpt lat="45.634575" lon="9.0121933"><ele>225.0</ele><time>2026-04-25T15:07:07.228Z</time></trkpt><trkpt lat="45.634505" lon="9.012105"><ele>224.2</ele><time>2026-04-25T15:07:08.231Z</time></trkpt><trkpt lat="45.6344433" lon="9.012015"><ele>223.4</ele><time>2026-04-25T15:07:09.229Z</time></trkpt><trkpt lat="45.63439" lon="9.0119317"><ele>222.60000000000002</ele><time>2026-04-25T15:07:10.229Z</time></trkpt><trkpt lat="45.634335" lon="9.0118317"><ele>221.8</ele><time>2026-04-25T15:07:11.23Z</time></trkpt><trkpt lat="45.6342883" lon="9.0117"><ele>221.0</ele><time>2026-04-25T15:07:12.23Z</time></trkpt><trkpt lat="45.6342583" lon="9.01154"><ele>220.75</ele><time>2026-04-25T15:07:13.228Z</time></trkpt><trkpt lat="45.6342483" lon="9.01136"><ele>220.5</ele><time>2026-04-25T15:07:14.229Z</time></trkpt><trkpt lat="45.6342467" lon="9.0111733"><ele>220.25</ele><time>2026-04-25T15:07:15.229Z</time></trkpt><trkpt lat="45.634245" lon="9.0109817"><ele>220.0</ele><time>2026-04-25T15:07:16.233Z</time></trkpt><trkpt lat="45.6342433" lon="9.0107833"><ele>220.0</ele><time>2026-04-25T15:07:17.229Z</time></trkpt><trkpt lat="45.6342433" lon="9.0105833"><ele>220.0</ele><time>2026-04-25T15:07:18.229Z</time></trkpt><trkpt lat="45.6342433" lon="9.010375"><ele>220.0</ele><time>2026-04-25T15:07:19.229Z</time></trkpt><trkpt lat="45.6342417" lon="9.0101583"><ele>220.0</ele><time>2026-04-25T15:07:20.23Z</time></trkpt><trkpt lat="45.63424" lon="9.009935"><ele>220.5</ele><time>2026-04-25T15:07:21.23Z</time></trkpt><trkpt lat="45.6342383" lon="9.0097233"><ele>221.0</ele><time>2026-04-25T15:07:22.228Z</time></trkpt><trkpt lat="45.634235" lon="9.0095233"><ele>221.5</ele><time>2026-04-25T15:07:23.229Z</time></trkpt><trkpt lat="45.63423" lon="9.00934"><ele>222.0</ele><time>2026-04-25T15:07:24.229Z</time></trkpt><trkpt lat="45.6342167" lon="9.00917"><ele>221.8</ele><time>2026-04-25T15:07:25.228Z</time></trkpt><trkpt lat="45.634195" lon="9.0090133"><ele>221.6</ele><time>2026-04-25T15:07:26.23Z</time></trkpt><trkpt lat="45.6341617" lon="9.0088717"><ele>221.40000000000003</ele><time>2026-04-25T15:07:27.231Z</time></trkpt><trkpt lat="45.6341217" lon="9.00874"><ele>221.20000000000002</ele><time>2026-04-25T15:07:28.23Z</time></trkpt><trkpt lat="45.63408" lon="9.0086183"><ele>221.0</ele><time>2026-04-25T15:07:29.229Z</time></trkpt><trkpt lat="45.6340417" lon="9.0084983"><ele>221.00000000000003</ele><time>2026-04-25T15:07:30.23Z</time></trkpt><trkpt lat="45.6340133" lon="9.00838"><ele>221.0</ele><time>2026-04-25T15:07:31.23Z</time></trkpt><trkpt lat="45.6339967" lon="9.0082583"><ele>221.0</ele><time>2026-04-25T15:07:32.228Z</time></trkpt><trkpt lat="45.6339983" lon="9.0081367"><ele>221.0</ele><time>2026-04-25T15:07:33.229Z</time></trkpt><trkpt lat="45.6340267" lon="9.0080283"><ele>221.00000000000003</ele><time>2026-04-25T15:07:34.228Z</time></trkpt><trkpt lat="45.6340667" lon="9.0079267"><ele>221.0</ele><time>2026-04-25T15:07:35.229Z</time></trkpt><trkpt lat="45.634115" lon="9.0078283"><ele>220.4</ele><time>2026-04-25T15:07:36.229Z</time></trkpt><trkpt lat="45.6341683" lon="9.0077133"><ele>219.8</ele><time>2026-04-25T15:07:37.229Z</time></trkpt><trkpt lat="45.634225" lon="9.007585"><ele>219.20000000000002</ele><time>2026-04-25T15:07:38.228Z</time></trkpt><trkpt lat="45.6342833" lon="9.007445"><ele>218.60000000000002</ele><time>2026-04-25T15:07:39.229Z</time></trkpt><trkpt lat="45.6343417" lon="9.0073"><ele>218.0</ele><time>2026-04-25T15:07:40.228Z</time></trkpt><trkpt lat="45.6343983" lon="9.0071583"><ele>218.0</ele><time>2026-04-25T15:07:41.229Z</time></trkpt><trkpt lat="45.63445" lon="9.007025"><ele>218.0</ele><time>2026-04-25T15:07:42.229Z</time></trkpt><trkpt lat="45.6345033" lon="9.0068983"><ele>218.0</ele><time>2026-04-25T15:07:43.228Z</time></trkpt><trkpt lat="45.634555" lon="9.006785"><ele>218.0</ele><time>2026-04-25T15:07:44.229Z</time></trkpt><trkpt lat="45.6346033" lon="9.00667"><ele>218.0</ele><time>2026-04-25T15:07:45.229Z</time></trkpt><trkpt lat="45.634655" lon="9.0065467"><ele>218.8</ele><time>2026-04-25T15:07:46.229Z</time></trkpt><trkpt lat="45.6347083" lon="9.0064167"><ele>219.60000000000002</ele><time>2026-04-25T15:07:47.227Z</time></trkpt><trkpt lat="45.6347633" lon="9.006285"><ele>220.39999999999998</ele><time>2026-04-25T15:07:48.229Z</time></trkpt><trkpt lat="45.6348217" lon="9.00615"><ele>221.2</ele><time>2026-04-25T15:07:49.228Z</time></trkpt><trkpt lat="45.6348817" lon="9.0060067"><ele>222.0</ele><time>2026-04-25T15:07:50.228Z</time></trkpt><trkpt lat="45.6349417" lon="9.005865"><ele>222.2</ele><time>2026-04-25T15:07:51.23Z</time></trkpt><trkpt lat="45.6350033" lon="9.0057233"><ele>222.39999999999998</ele><time>2026-04-25T15:07:52.228Z</time></trkpt><trkpt lat="45.63506" lon="9.0055917"><ele>222.60000000000002</ele><time>2026-04-25T15:07:53.23Z</time></trkpt><trkpt lat="45.63511" lon="9.0054683"><ele>222.8</ele><time>2026-04-25T15:07:54.228Z</time></trkpt><trkpt lat="45.6351567" lon="9.0053533"><ele>223.0</ele><time>2026-04-25T15:07:55.228Z</time></trkpt><trkpt lat="45.6351933" lon="9.00525"><ele>223.0</ele><time>2026-04-25T15:07:56.23Z</time></trkpt><trkpt lat="45.6352217" lon="9.0051533"><ele>223.0</ele><time>2026-04-25T15:07:57.232Z</time></trkpt><trkpt lat="45.6352317" lon="9.0050633"><ele>223.0</ele><time>2026-04-25T15:07:58.228Z</time></trkpt><trkpt lat="45.6351867" lon="9.0049383"><ele>223.0</ele><time>2026-04-25T15:08:00.23Z</time></trkpt><trkpt lat="45.6351317" lon="9.00489"><ele>223.0</ele><time>2026-04-25T15:08:01.228Z</time></trkpt><trkpt lat="45.6350867" lon="9.0048233"><ele>223.0</ele><time>2026-04-25T15:08:02.229Z</time></trkpt><trkpt lat="45.6350483" lon="9.0047333"><ele>223.0</ele><time>2026-04-25T15:08:03.231Z</time></trkpt><trkpt lat="45.635005" lon="9.0046233"><ele>223.4</ele><time>2026-04-25T15:08:04.228Z</time></trkpt><trkpt lat="45.63496" lon="9.0044967"><ele>223.8</ele><time>2026-04-25T15:08:05.228Z</time></trkpt><trkpt lat="45.634915" lon="9.0043617"><ele>224.2</ele><time>2026-04-25T15:08:06.23Z</time></trkpt><trkpt lat="45.6348667" lon="9.0042217"><ele>224.6</ele><time>2026-04-25T15:08:07.23Z</time></trkpt><trkpt lat="45.6348167" lon="9.0040883"><ele>225.0</ele><time>2026-04-25T15:08:08.228Z</time></trkpt><trkpt lat="45.6347683" lon="9.003965"><ele>225.0</ele><time>2026-04-25T15:08:09.23Z</time></trkpt><trkpt lat="45.63473" lon="9.0038517"><ele>225.0</ele><time>2026-04-25T15:08:10.228Z</time></trkpt><trkpt lat="45.634705" lon="9.0037583"><ele>225.0</ele><time>2026-04-25T15:08:11.228Z</time></trkpt><trkpt lat="45.6346767" lon="9.0036733"><ele>225.0</ele><time>2026-04-25T15:08:12.229Z</time></trkpt><trkpt lat="45.6346467" lon="9.003585"><ele>225.0</ele><time>2026-04-25T15:08:13.229Z</time></trkpt><trkpt lat="45.6346133" lon="9.0034833"><ele>225.0</ele><time>2026-04-25T15:08:14.229Z</time></trkpt><trkpt lat="45.6345717" lon="9.00336"><ele>224.6</ele><time>2026-04-25T15:08:15.229Z</time></trkpt><trkpt lat="45.6345267" lon="9.0032183"><ele>224.2</ele><time>2026-04-25T15:08:16.231Z</time></trkpt><trkpt lat="45.63448" lon="9.003075"><ele>223.8</ele><time>2026-04-25T15:08:17.23Z</time></trkpt><trkpt lat="45.6344283" lon="9.002925"><ele>223.4</ele><time>2026-04-25T15:08:18.229Z</time></trkpt><trkpt lat="45.6343833" lon="9.0027967"><ele>223.0</ele><time>2026-04-25T15:08:19.228Z</time></trkpt><trkpt lat="45.634345" lon="9.0026917"><ele>223.0</ele><time>2026-04-25T15:08:20.228Z</time></trkpt><trkpt lat="45.63431" lon="9.0026033"><ele>223.0</ele><time>2026-04-25T15:08:21.229Z</time></trkpt><trkpt lat="45.6342317" lon="9.0024767"><ele>223.0</ele><time>2026-04-25T15:08:23.228Z</time></trkpt><trkpt lat="45.634145" lon="9.0023767"><ele>223.0</ele><time>2026-04-25T15:08:25.229Z</time></trkpt><trkpt lat="45.6340783" lon="9.0022483"><ele>223.0</ele><time>2026-04-25T15:08:27.229Z</time></trkpt><trkpt lat="45.6340483" lon="9.0021667"><ele>222.83333333333331</ele><time>2026-04-25T15:08:28.228Z</time></trkpt><trkpt lat="45.6340233" lon="9.0020683"><ele>222.66666666666666</ele><time>2026-04-25T15:08:29.232Z</time></trkpt><trkpt lat="45.634" lon="9.001955"><ele>222.5</ele><time>2026-04-25T15:08:30.23Z</time></trkpt><trkpt lat="45.6339733" lon="9.0018367"><ele>222.33333333333331</ele><time>2026-04-25T15:08:31.229Z</time></trkpt><trkpt lat="45.6339467" lon="9.0017183"><ele>222.16666666666666</ele><time>2026-04-25T15:08:32.229Z</time></trkpt><trkpt lat="45.63392" lon="9.001595"><ele>222.0</ele><time>2026-04-25T15:08:33.229Z</time></trkpt><trkpt lat="45.6338933" lon="9.0014733"><ele>222.0</ele><time>2026-04-25T15:08:34.228Z</time></trkpt><trkpt lat="45.6338667" lon="9.0013483"><ele>222.0</ele><time>2026-04-25T15:08:35.229Z</time></trkpt><trkpt lat="45.63384" lon="9.001225"><ele>222.0</ele><time>2026-04-25T15:08:36.228Z</time></trkpt><trkpt lat="45.6338117" lon="9.001095"><ele>222.0</ele><time>2026-04-25T15:08:37.229Z</time></trkpt><trkpt lat="45.6337867" lon="9.00096"><ele>222.0</ele><time>2026-04-25T15:08:38.228Z</time></trkpt><trkpt lat="45.63376" lon="9.0008283"><ele>222.16666666666666</ele><time>2026-04-25T15:08:39.24Z</time></trkpt><trkpt lat="45.63373" lon="9.0007"><ele>222.33333333333331</ele><time>2026-04-25T15:08:40.23Z</time></trkpt><trkpt lat="45.6337033" lon="9.0005817"><ele>222.5</ele><time>2026-04-25T15:08:41.229Z</time></trkpt><trkpt lat="45.6336783" lon="9.00048"><ele>222.66666666666666</ele><time>2026-04-25T15:08:42.229Z</time></trkpt><trkpt lat="45.63366" lon="9.0003917"><ele>222.83333333333331</ele><time>2026-04-25T15:08:43.229Z</time></trkpt><trkpt lat="45.633645" lon="9.0002333"><ele>223.0</ele><time>2026-04-25T15:08:45.23Z</time></trkpt><trkpt lat="45.6336583" lon="9.00009"><ele>223.0</ele><time>2026-04-25T15:08:47.229Z</time></trkpt><trkpt lat="45.6337217" lon="8.9999667"><ele>223.0</ele><time>2026-04-25T15:08:49.229Z</time></trkpt><trkpt lat="45.6337867" lon="8.9999083"><ele>223.0</ele><time>2026-04-25T15:08:50.229Z</time></trkpt><trkpt lat="45.63387" lon="8.99986"><ele>223.0</ele><time>2026-04-25T15:08:51.232Z</time></trkpt><trkpt lat="45.633965" lon="8.9998133"><ele>223.0</ele><time>2026-04-25T15:08:52.229Z</time></trkpt><trkpt lat="45.634075" lon="8.999765"><ele>223.0</ele><time>2026-04-25T15:08:53.229Z</time></trkpt><trkpt lat="45.6341917" lon="8.9997133"><ele>223.0</ele><time>2026-04-25T15:08:54.23Z</time></trkpt><trkpt lat="45.6343183" lon="8.999655"><ele>223.0</ele><time>2026-04-25T15:08:55.229Z</time></trkpt><trkpt lat="45.6344517" lon="8.9995933"><ele>223.0</ele><time>2026-04-25T15:08:56.229Z</time></trkpt><trkpt lat="45.6345883" lon="8.9995317"><ele>223.25</ele><time>2026-04-25T15:08:57.23Z</time></trkpt><trkpt lat="45.6347183" lon="8.9994733"><ele>223.5</ele><time>2026-04-25T15:08:58.229Z</time></trkpt><trkpt lat="45.6348417" lon="8.9994217"><ele>223.75</ele><time>2026-04-25T15:08:59.229Z</time></trkpt><trkpt lat="45.6349533" lon="8.9993717"><ele>224.0</ele><time>2026-04-25T15:09:00.23Z</time></trkpt><trkpt lat="45.6350483" lon="8.99933"><ele>224.0</ele><time>2026-04-25T15:09:01.23Z</time></trkpt><trkpt lat="45.63512" lon="8.999295"><ele>223.99999999999997</ele><time>2026-04-25T15:09:02.228Z</time></trkpt><trkpt lat="45.6351767" lon="8.9992533"><ele>223.99999999999997</ele><time>2026-04-25T15:09:03.229Z</time></trkpt><trkpt lat="45.6352183" lon="8.9991267"><ele>224.0</ele><time>2026-04-25T15:09:05.23Z</time></trkpt><trkpt lat="45.635175" lon="8.9989967"><ele>224.0</ele><time>2026-04-25T15:09:07.229Z</time></trkpt><trkpt lat="45.63511" lon="8.998835"><ele>224.00000000000003</ele><time>2026-04-25T15:09:09.229Z</time></trkpt><trkpt lat="45.6350767" lon="8.998745"><ele>224.0</ele><time>2026-04-25T15:09:10.228Z</time></trkpt><trkpt lat="45.6350433" lon="8.9986467"><ele>224.0</ele><time>2026-04-25T15:09:11.23Z</time></trkpt><trkpt lat="45.6350083" lon="8.998535"><ele>224.0</ele><time>2026-04-25T15:09:12.229Z</time></trkpt><trkpt lat="45.6349683" lon="8.99842"><ele>224.00000000000003</ele><time>2026-04-25T15:09:13.228Z</time></trkpt><trkpt lat="45.634925" lon="8.998295"><ele>224.0</ele><time>2026-04-25T15:09:14.23Z</time></trkpt><trkpt lat="45.6348783" lon="8.9981583"><ele>224.0</ele><time>2026-04-25T15:09:15.231Z</time></trkpt><trkpt lat="45.6348283" lon="8.9980083"><ele>224.0</ele><time>2026-04-25T15:09:16.228Z</time></trkpt><trkpt lat="45.6347783" lon="8.997865"><ele>224.0</ele><time>2026-04-25T15:09:17.23Z</time></trkpt><trkpt lat="45.63473" lon="8.9977183"><ele>224.0</ele><time>2026-04-25T15:09:18.229Z</time></trkpt><trkpt lat="45.6346717" lon="8.9975717"><ele>223.5</ele><time>2026-04-25T15:09:19.229Z</time></trkpt><trkpt lat="45.6346133" lon="8.9974233"><ele>223.0</ele><time>2026-04-25T15:09:20.229Z</time></trkpt><trkpt lat="45.6345533" lon="8.9972683"><ele>222.5</ele><time>2026-04-25T15:09:21.23Z</time></trkpt><trkpt lat="45.6344983" lon="8.9971117"><ele>222.0</ele><time>2026-04-25T15:09:22.228Z</time></trkpt><trkpt lat="45.6344433" lon="8.99695"><ele>221.25</ele><time>2026-04-25T15:09:23.23Z</time></trkpt><trkpt lat="45.6343917" lon="8.9967867"><ele>220.5</ele><time>2026-04-25T15:09:24.228Z</time></trkpt><trkpt lat="45.63434" lon="8.9966167"><ele>219.75</ele><time>2026-04-25T15:09:25.23Z</time></trkpt><trkpt lat="45.6342817" lon="8.996445"><ele>219.0</ele><time>2026-04-25T15:09:26.229Z</time></trkpt><trkpt lat="45.634225" lon="8.99627"><ele>218.75</ele><time>2026-04-25T15:09:27.229Z</time></trkpt><trkpt lat="45.634165" lon="8.9960917"><ele>218.5</ele><time>2026-04-25T15:09:28.228Z</time></trkpt><trkpt lat="45.6341117" lon="8.9959217"><ele>218.25</ele><time>2026-04-25T15:09:29.229Z</time></trkpt><trkpt lat="45.63406" lon="8.995765"><ele>218.0</ele><time>2026-04-25T15:09:30.228Z</time></trkpt><trkpt lat="45.6340167" lon="8.995625"><ele>218.33333333333334</ele><time>2026-04-25T15:09:31.23Z</time></trkpt><trkpt lat="45.63398" lon="8.9955067"><ele>218.66666666666669</ele><time>2026-04-25T15:09:32.229Z</time></trkpt><trkpt lat="45.6339583" lon="8.9954017"><ele>219.0</ele><time>2026-04-25T15:09:33.23Z</time></trkpt><trkpt lat="45.63395" lon="8.99531"><ele>219.33333333333331</ele><time>2026-04-25T15:09:34.229Z</time></trkpt><trkpt lat="45.634005" lon="8.9952017"><ele>219.66666666666666</ele><time>2026-04-25T15:09:36.228Z</time></trkpt><trkpt lat="45.6341233" lon="8.9951617"><ele>220.0</ele><time>2026-04-25T15:09:38.23Z</time></trkpt><trkpt lat="45.6342233" lon="8.9951367"><ele>220.0</ele><time>2026-04-25T15:09:39.23Z</time></trkpt><trkpt lat="45.63434" lon="8.9951133"><ele>220.0</ele><time>2026-04-25T15:09:40.229Z</time></trkpt><trkpt lat="45.63446" lon="8.99508"><ele>220.0</ele><time>2026-04-25T15:09:41.23Z</time></trkpt><trkpt lat="45.6345833" lon="8.9950483"><ele>220.0</ele><time>2026-04-25T15:09:42.229Z</time></trkpt><trkpt lat="45.6347033" lon="8.9950117"><ele>220.5</ele><time>2026-04-25T15:09:43.228Z</time></trkpt><trkpt lat="45.634825" lon="8.9949817"><ele>221.0</ele><time>2026-04-25T15:09:44.228Z</time></trkpt><trkpt lat="45.6349467" lon="8.994955"><ele>221.5</ele><time>2026-04-25T15:09:45.229Z</time></trkpt><trkpt lat="45.6350583" lon="8.99493"><ele>222.0</ele><time>2026-04-25T15:09:46.229Z</time></trkpt><trkpt lat="45.63516" lon="8.9949"><ele>222.0</ele><time>2026-04-25T15:09:47.229Z</time></trkpt><trkpt lat="45.6352533" lon="8.99487"><ele>222.0</ele><time>2026-04-25T15:09:48.23Z</time></trkpt><trkpt lat="45.6353367" lon="8.9948383"><ele>222.0</ele><time>2026-04-25T15:09:49.229Z</time></trkpt><trkpt lat="45.635415" lon="8.9948117"><ele>222.0</ele><time>2026-04-25T15:09:50.229Z</time></trkpt><trkpt lat="45.6354817" lon="8.99479"><ele>222.0</ele><time>2026-04-25T15:09:51.238Z</time></trkpt><trkpt lat="45.63556" lon="8.9947633"><ele>222.0</ele><time>2026-04-25T15:09:53.231Z</time></trkpt><trkpt lat="45.635665" lon="8.9947483"><ele>222.0</ele><time>2026-04-25T15:10:05.229Z</time></trkpt><trkpt lat="45.63574" lon="8.9946667"><ele>222.0</ele><time>2026-04-25T15:10:07.228Z</time></trkpt><trkpt lat="45.6357183" lon="8.9945517"><ele>222.0</ele><time>2026-04-25T15:10:09.23Z</time></trkpt><trkpt lat="45.6356133" lon="8.9944167"><ele>222.0</ele><time>2026-04-25T15:10:11.23Z</time></trkpt><trkpt lat="45.63555" lon="8.9943117"><ele>222.0</ele><time>2026-04-25T15:10:12.228Z</time></trkpt><trkpt lat="45.63549" lon="8.9941833"><ele>221.25</ele><time>2026-04-25T15:10:13.228Z</time></trkpt><trkpt lat="45.6354333" lon="8.9940383"><ele>220.5</ele><time>2026-04-25T15:10:14.23Z</time></trkpt><trkpt lat="45.63538" lon="8.9938733"><ele>219.75</ele><time>2026-04-25T15:10:15.229Z</time></trkpt><trkpt lat="45.6353267" lon="8.9936917"><ele>219.0</ele><time>2026-04-25T15:10:16.229Z</time></trkpt><trkpt lat="45.6352717" lon="8.9935033"><ele>218.5</ele><time>2026-04-25T15:10:17.228Z</time></trkpt><trkpt lat="45.6352217" lon="8.99332"><ele>218.0</ele><time>2026-04-25T15:10:18.228Z</time></trkpt><trkpt lat="45.635175" lon="8.9931517"><ele>217.5</ele><time>2026-04-25T15:10:19.23Z</time></trkpt><trkpt lat="45.6351333" lon="8.992995"><ele>217.0</ele><time>2026-04-25T15:10:20.228Z</time></trkpt><trkpt lat="45.63509" lon="8.9928483"><ele>217.0</ele><time>2026-04-25T15:10:21.228Z</time></trkpt><trkpt lat="45.635045" lon="8.9926933"><ele>217.0</ele><time>2026-04-25T15:10:22.228Z</time></trkpt><trkpt lat="45.634995" lon="8.9925283"><ele>217.0</ele><time>2026-04-25T15:10:23.228Z</time></trkpt><trkpt lat="45.6349467" lon="8.9923567"><ele>217.0</ele><time>2026-04-25T15:10:24.229Z</time></trkpt><trkpt lat="45.6349017" lon="8.99219"><ele>217.39999999999998</ele><time>2026-04-25T15:10:25.229Z</time></trkpt><trkpt lat="45.63486" lon="8.9920383"><ele>217.79999999999998</ele><time>2026-04-25T15:10:26.229Z</time></trkpt><trkpt lat="45.6348267" lon="8.9919067"><ele>218.2</ele><time>2026-04-25T15:10:27.229Z</time></trkpt><trkpt lat="45.6348017" lon="8.9917867"><ele>218.6</ele><time>2026-04-25T15:10:28.228Z</time></trkpt><trkpt lat="45.6347783" lon="8.9916717"><ele>219.0</ele><time>2026-04-25T15:10:29.229Z</time></trkpt><trkpt lat="45.6347483" lon="8.991565"><ele>219.0</ele><time>2026-04-25T15:10:30.229Z</time></trkpt><trkpt lat="45.6347033" lon="8.991465"><ele>218.99999999999997</ele><time>2026-04-25T15:10:31.228Z</time></trkpt><trkpt lat="45.63465" lon="8.9913617"><ele>218.99999999999997</ele><time>2026-04-25T15:10:32.229Z</time></trkpt><trkpt lat="45.6345883" lon="8.9912383"><ele>219.0</ele><time>2026-04-25T15:10:33.229Z</time></trkpt><trkpt lat="45.6345183" lon="8.9910867"><ele>219.0</ele><time>2026-04-25T15:10:34.228Z</time></trkpt><trkpt lat="45.63444" lon="8.9909083"><ele>219.0</ele><time>2026-04-25T15:10:35.228Z</time></trkpt><trkpt lat="45.6343617" lon="8.9907117"><ele>219.0</ele><time>2026-04-25T15:10:36.229Z</time></trkpt><trkpt lat="45.63428" lon="8.9904983"><ele>219.0</ele><time>2026-04-25T15:10:37.228Z</time></trkpt><trkpt lat="45.634195" lon="8.9902767"><ele>219.0</ele><time>2026-04-25T15:10:38.229Z</time></trkpt><trkpt lat="45.6341133" lon="8.990055"><ele>219.0</ele><time>2026-04-25T15:10:39.229Z</time></trkpt><trkpt lat="45.6340333" lon="8.9898283"><ele>219.0</ele><time>2026-04-25T15:10:40.228Z</time></trkpt><trkpt lat="45.6339567" lon="8.989595"><ele>218.66666666666669</ele><time>2026-04-25T15:10:41.228Z</time></trkpt><trkpt lat="45.6338817" lon="8.9893583"><ele>218.33333333333334</ele><time>2026-04-25T15:10:42.229Z</time></trkpt><trkpt lat="45.6338017" lon="8.9891217"><ele>218.0</ele><time>2026-04-25T15:10:43.228Z</time></trkpt><trkpt lat="45.633725" lon="8.988885"><ele>218.0</ele><time>2026-04-25T15:10:44.229Z</time></trkpt><trkpt lat="45.6336483" lon="8.9886467"><ele>218.0</ele><time>2026-04-25T15:10:45.23Z</time></trkpt><trkpt lat="45.6335717" lon="8.9884133"><ele>218.0</ele><time>2026-04-25T15:10:46.229Z</time></trkpt><trkpt lat="45.6335033" lon="8.9881933"><ele>218.25</ele><time>2026-04-25T15:10:47.228Z</time></trkpt><trkpt lat="45.6334367" lon="8.9879867"><ele>218.5</ele><time>2026-04-25T15:10:48.228Z</time></trkpt><trkpt lat="45.6333767" lon="8.9877967"><ele>218.75</ele><time>2026-04-25T15:10:49.228Z</time></trkpt><trkpt lat="45.6333183" lon="8.98762"><ele>219.0</ele><time>2026-04-25T15:10:50.229Z</time></trkpt><trkpt lat="45.6332667" lon="8.9874517"><ele>218.5</ele><time>2026-04-25T15:10:51.229Z</time></trkpt><trkpt lat="45.6332167" lon="8.9872817"><ele>218.0</ele><time>2026-04-25T15:10:52.228Z</time></trkpt><trkpt lat="45.6331717" lon="8.9871033"><ele>217.5</ele><time>2026-04-25T15:10:53.229Z</time></trkpt><trkpt lat="45.6331317" lon="8.9869217"><ele>217.0</ele><time>2026-04-25T15:10:54.229Z</time></trkpt><trkpt lat="45.6330867" lon="8.9867367"><ele>216.75</ele><time>2026-04-25T15:10:55.229Z</time></trkpt><trkpt lat="45.6330467" lon="8.9865583"><ele>216.5</ele><time>2026-04-25T15:10:56.228Z</time></trkpt><trkpt lat="45.63301" lon="8.98639"><ele>216.25</ele><time>2026-04-25T15:10:57.231Z</time></trkpt><trkpt lat="45.63297" lon="8.986235"><ele>216.0</ele><time>2026-04-25T15:10:58.228Z</time></trkpt><trkpt lat="45.6329333" lon="8.9860917"><ele>216.0</ele><time>2026-04-25T15:10:59.23Z</time></trkpt><trkpt lat="45.6329017" lon="8.98596"><ele>216.00000000000003</ele><time>2026-04-25T15:11:00.228Z</time></trkpt><trkpt lat="45.632875" lon="8.9858333"><ele>216.00000000000003</ele><time>2026-04-25T15:11:01.228Z</time></trkpt><trkpt lat="45.6328517" lon="8.98571"><ele>216.0</ele><time>2026-04-25T15:11:02.229Z</time></trkpt><trkpt lat="45.6328267" lon="8.985585"><ele>216.0</ele><time>2026-04-25T15:11:03.23Z</time></trkpt><trkpt lat="45.6327983" lon="8.98545"><ele>216.75</ele><time>2026-04-25T15:11:04.228Z</time></trkpt><trkpt lat="45.6327683" lon="8.9852983"><ele>217.5</ele><time>2026-04-25T15:11:05.228Z</time></trkpt><trkpt lat="45.6327383" lon="8.98514"><ele>218.25</ele><time>2026-04-25T15:11:06.231Z</time></trkpt><trkpt lat="45.6327067" lon="8.98498"><ele>219.0</ele><time>2026-04-25T15:11:07.229Z</time></trkpt><trkpt lat="45.6326733" lon="8.9848317"><ele>219.0</ele><time>2026-04-25T15:11:08.229Z</time></trkpt><trkpt lat="45.6326433" lon="8.9846933"><ele>218.99999999999997</ele><time>2026-04-25T15:11:09.23Z</time></trkpt><trkpt lat="45.6326167" lon="8.98455"><ele>218.99999999999997</ele><time>2026-04-25T15:11:10.228Z</time></trkpt><trkpt lat="45.6325867" lon="8.9844017"><ele>219.0</ele><time>2026-04-25T15:11:11.229Z</time></trkpt><trkpt lat="45.6325567" lon="8.9842417"><ele>219.0</ele><time>2026-04-25T15:11:12.229Z</time></trkpt><trkpt lat="45.6325267" lon="8.984075"><ele>218.5</ele><time>2026-04-25T15:11:13.229Z</time></trkpt><trkpt lat="45.6324933" lon="8.9839033"><ele>218.0</ele><time>2026-04-25T15:11:14.229Z</time></trkpt><trkpt lat="45.6324583" lon="8.983725"><ele>217.5</ele><time>2026-04-25T15:11:15.229Z</time></trkpt><trkpt lat="45.63242" lon="8.9835433"><ele>217.0</ele><time>2026-04-25T15:11:16.228Z</time></trkpt><trkpt lat="45.6323933" lon="8.9833833"><ele>217.33333333333331</ele><time>2026-04-25T15:11:17.229Z</time></trkpt><trkpt lat="45.6323733" lon="8.9832633"><ele>217.66666666666666</ele><time>2026-04-25T15:11:18.23Z</time></trkpt><trkpt lat="45.6323567" lon="8.9831683"><ele>218.0</ele><time>2026-04-25T15:11:19.228Z</time></trkpt><trkpt lat="45.6323383" lon="8.98308"><ele>218.33333333333331</ele><time>2026-04-25T15:11:20.23Z</time></trkpt><trkpt lat="45.6323083" lon="8.982915"><ele>218.66666666666666</ele><time>2026-04-25T15:11:22.228Z</time></trkpt><trkpt lat="45.6322917" lon="8.9828267"><ele>219.0</ele><time>2026-04-25T15:11:23.229Z</time></trkpt><trkpt lat="45.6322733" lon="8.982725"><ele>219.0</ele><time>2026-04-25T15:11:24.23Z</time></trkpt><trkpt lat="45.6322517" lon="8.9826133"><ele>219.0</ele><time>2026-04-25T15:11:25.23Z</time></trkpt><trkpt lat="45.632235" lon="8.9824917"><ele>219.0</ele><time>2026-04-25T15:11:26.23Z</time></trkpt><trkpt lat="45.6322133" lon="8.9823733"><ele>219.0</ele><time>2026-04-25T15:11:27.229Z</time></trkpt><trkpt lat="45.63219" lon="8.9822483"><ele>219.0</ele><time>2026-04-25T15:11:28.23Z</time></trkpt><trkpt lat="45.6321567" lon="8.98211"><ele>219.0</ele><time>2026-04-25T15:11:29.229Z</time></trkpt><trkpt lat="45.6321133" lon="8.981955"><ele>219.25</ele><time>2026-04-25T15:11:30.229Z</time></trkpt><trkpt lat="45.6320517" lon="8.9817833"><ele>219.5</ele><time>2026-04-25T15:11:31.228Z</time></trkpt><trkpt lat="45.6319717" lon="8.9815983"><ele>219.75</ele><time>2026-04-25T15:11:32.232Z</time></trkpt><trkpt lat="45.631885" lon="8.98141"><ele>220.0</ele><time>2026-04-25T15:11:33.232Z</time></trkpt><trkpt lat="45.6317933" lon="8.9812267"><ele>220.0</ele><time>2026-04-25T15:11:34.229Z</time></trkpt><trkpt lat="45.6316117" lon="8.9809067"><ele>220.0</ele><time>2026-04-25T15:11:36.229Z</time></trkpt><trkpt lat="45.6315217" lon="8.9807633"><ele>220.0</ele><time>2026-04-25T15:11:37.23Z</time></trkpt><trkpt lat="45.63144" lon="8.980635"><ele>219.99999999999997</ele><time>2026-04-25T15:11:38.23Z</time></trkpt><trkpt lat="45.6313733" lon="8.980525"><ele>220.0</ele><time>2026-04-25T15:11:39.229Z</time></trkpt><trkpt lat="45.6313217" lon="8.980425"><ele>220.0</ele><time>2026-04-25T15:11:40.228Z</time></trkpt><trkpt lat="45.6312767" lon="8.980325"><ele>220.0</ele><time>2026-04-25T15:11:41.235Z</time></trkpt><trkpt lat="45.6312617" lon="8.9802267"><ele>219.99999999999997</ele><time>2026-04-25T15:11:42.229Z</time></trkpt><trkpt lat="45.6312983" lon="8.9801317"><ele>220.0</ele><time>2026-04-25T15:11:43.229Z</time></trkpt><trkpt lat="45.6313467" lon="8.9800383"><ele>220.25</ele><time>2026-04-25T15:11:44.23Z</time></trkpt><trkpt lat="45.6314183" lon="8.9799333"><ele>220.5</ele><time>2026-04-25T15:11:45.23Z</time></trkpt><trkpt lat="45.631505" lon="8.9798183"><ele>220.75</ele><time>2026-04-25T15:11:46.23Z</time></trkpt><trkpt lat="45.631605" lon="8.9796917"><ele>221.0</ele><time>2026-04-25T15:11:47.233Z</time></trkpt><trkpt lat="45.631715" lon="8.9795533"><ele>221.0</ele><time>2026-04-25T15:11:48.231Z</time></trkpt><trkpt lat="45.6318233" lon="8.97941"><ele>221.0</ele><time>2026-04-25T15:11:49.231Z</time></trkpt><trkpt lat="45.6319333" lon="8.9792667"><ele>221.0</ele><time>2026-04-25T15:11:50.232Z</time></trkpt><trkpt lat="45.63204" lon="8.9791267"><ele>221.0</ele><time>2026-04-25T15:11:51.23Z</time></trkpt><trkpt lat="45.63214" lon="8.9789967"><ele>221.0</ele><time>2026-04-25T15:11:52.23Z</time></trkpt><trkpt lat="45.6322283" lon="8.9788683"><ele>221.00000000000003</ele><time>2026-04-25T15:11:53.23Z</time></trkpt><trkpt lat="45.6323017" lon="8.978745"><ele>221.00000000000003</ele><time>2026-04-25T15:11:54.231Z</time></trkpt><trkpt lat="45.632355" lon="8.9786183"><ele>221.0</ele><time>2026-04-25T15:11:55.231Z</time></trkpt><trkpt lat="45.6324017" lon="8.978485"><ele>221.0</ele><time>2026-04-25T15:11:56.231Z</time></trkpt><trkpt lat="45.6324533" lon="8.97835"><ele>220.75</ele><time>2026-04-25T15:11:57.231Z</time></trkpt><trkpt lat="45.6325183" lon="8.978225"><ele>220.5</ele><time>2026-04-25T15:11:58.229Z</time></trkpt><trkpt lat="45.6325967" lon="8.978105"><ele>220.25</ele><time>2026-04-25T15:11:59.229Z</time></trkpt><trkpt lat="45.63269" lon="8.9779817"><ele>220.0</ele><time>2026-04-25T15:12:00.229Z</time></trkpt><trkpt lat="45.63279" lon="8.9778533"><ele>220.0</ele><time>2026-04-25T15:12:01.228Z</time></trkpt><trkpt lat="45.6328917" lon="8.9777233"><ele>220.0</ele><time>2026-04-25T15:12:02.23Z</time></trkpt><trkpt lat="45.632995" lon="8.9775933"><ele>220.0</ele><time>2026-04-25T15:12:03.229Z</time></trkpt><trkpt lat="45.6330933" lon="8.977465"><ele>220.0</ele><time>2026-04-25T15:12:04.229Z</time></trkpt><trkpt lat="45.6331833" lon="8.97734"><ele>220.16666666666666</ele><time>2026-04-25T15:12:05.229Z</time></trkpt><trkpt lat="45.633265" lon="8.9772267"><ele>220.33333333333331</ele><time>2026-04-25T15:12:06.229Z</time></trkpt><trkpt lat="45.633325" lon="8.977115"><ele>220.5</ele><time>2026-04-25T15:12:07.229Z</time></trkpt><trkpt lat="45.6333733" lon="8.9770133"><ele>220.66666666666669</ele><time>2026-04-25T15:12:08.23Z</time></trkpt><trkpt lat="45.6334183" lon="8.9769217"><ele>220.83333333333334</ele><time>2026-04-25T15:12:09.229Z</time></trkpt><trkpt lat="45.633455" lon="8.9768417"><ele>221.0</ele><time>2026-04-25T15:12:10.228Z</time></trkpt><trkpt lat="45.6335217" lon="8.9767233"><ele>221.60000000000002</ele><time>2026-04-25T15:12:12.23Z</time></trkpt><trkpt lat="45.633575" lon="8.9766283"><ele>222.20000000000002</ele><time>2026-04-25T15:12:14.228Z</time></trkpt><trkpt lat="45.63362" lon="8.9765317"><ele>222.79999999999998</ele><time>2026-04-25T15:12:16.228Z</time></trkpt><trkpt lat="45.6337017" lon="8.976415"><ele>223.39999999999998</ele><time>2026-04-25T15:12:18.229Z</time></trkpt><trkpt lat="45.6337883" lon="8.9763183"><ele>224.0</ele><time>2026-04-25T15:12:20.229Z</time></trkpt><trkpt lat="45.6338433" lon="8.976255"><ele>224.0</ele><time>2026-04-25T15:12:21.229Z</time></trkpt><trkpt lat="45.633915" lon="8.97618"><ele>224.0</ele><time>2026-04-25T15:12:22.228Z</time></trkpt><trkpt lat="45.6340183" lon="8.97609"><ele>224.0</ele><time>2026-04-25T15:12:23.23Z</time></trkpt><trkpt lat="45.6341283" lon="8.9760033"><ele>224.0</ele><time>2026-04-25T15:12:24.23Z</time></trkpt><trkpt lat="45.634245" lon="8.9759233"><ele>224.00000000000003</ele><time>2026-04-25T15:12:25.228Z</time></trkpt><trkpt lat="45.6343483" lon="8.97585"><ele>224.0</ele><time>2026-04-25T15:12:26.228Z</time></trkpt><trkpt lat="45.634435" lon="8.9757833"><ele>224.0</ele><time>2026-04-25T15:12:27.228Z</time></trkpt><trkpt lat="45.63451" lon="8.975725"><ele>224.0</ele><time>2026-04-25T15:12:28.238Z</time></trkpt><trkpt lat="45.6345717" lon="8.9756767"><ele>224.00000000000003</ele><time>2026-04-25T15:12:29.228Z</time></trkpt><trkpt lat="45.6346333" lon="8.9756217"><ele>224.0</ele><time>2026-04-25T15:12:31.229Z</time></trkpt><trkpt lat="45.6346767" lon="8.9755417"><ele>224.0</ele><time>2026-04-25T15:12:35.228Z</time></trkpt><trkpt lat="45.63462" lon="8.9752333"><ele>224.0</ele><time>2026-04-25T15:12:38.229Z</time></trkpt><trkpt lat="45.6345817" lon="8.9750833"><ele>224.0</ele><time>2026-04-25T15:12:39.231Z</time></trkpt><trkpt lat="45.63453" lon="8.9749017"><ele>224.0</ele><time>2026-04-25T15:12:40.232Z</time></trkpt><trkpt lat="45.6344683" lon="8.974705"><ele>224.0</ele><time>2026-04-25T15:12:41.231Z</time></trkpt><trkpt lat="45.6344117" lon="8.9745"><ele>224.0</ele><time>2026-04-25T15:12:42.231Z</time></trkpt><trkpt lat="45.6343567" lon="8.974285"><ele>224.33333333333334</ele><time>2026-04-25T15:12:43.229Z</time></trkpt><trkpt lat="45.634315" lon="8.9740617"><ele>224.66666666666669</ele><time>2026-04-25T15:12:44.228Z</time></trkpt><trkpt lat="45.6342933" lon="8.9738283"><ele>225.0</ele><time>2026-04-25T15:12:45.229Z</time></trkpt><trkpt lat="45.634285" lon="8.9736083"><ele>225.0</ele><time>2026-04-25T15:12:46.229Z</time></trkpt><trkpt lat="45.6342883" lon="8.9734017"><ele>225.0</ele><time>2026-04-25T15:12:47.23Z</time></trkpt><trkpt lat="45.6342967" lon="8.973215"><ele>225.0</ele><time>2026-04-25T15:12:48.23Z</time></trkpt><trkpt lat="45.6343" lon="8.9730467"><ele>225.0</ele><time>2026-04-25T15:12:49.228Z</time></trkpt><trkpt lat="45.6342967" lon="8.9729"><ele>225.16666666666666</ele><time>2026-04-25T15:12:50.228Z</time></trkpt><trkpt lat="45.634295" lon="8.9727717"><ele>225.33333333333331</ele><time>2026-04-25T15:12:51.229Z</time></trkpt><trkpt lat="45.6343017" lon="8.9726567"><ele>225.5</ele><time>2026-04-25T15:12:52.228Z</time></trkpt><trkpt lat="45.6343133" lon="8.972555"><ele>225.66666666666666</ele><time>2026-04-25T15:12:53.228Z</time></trkpt><trkpt lat="45.6343167" lon="8.9724633"><ele>225.83333333333331</ele><time>2026-04-25T15:12:54.23Z</time></trkpt><trkpt lat="45.6342667" lon="8.9723067"><ele>226.0</ele><time>2026-04-25T15:12:56.229Z</time></trkpt><trkpt lat="45.6342017" lon="8.9722517"><ele>226.0</ele><time>2026-04-25T15:12:57.228Z</time></trkpt><trkpt lat="45.63413" lon="8.9721817"><ele>226.00000000000003</ele><time>2026-04-25T15:12:58.228Z</time></trkpt><trkpt lat="45.6340583" lon="8.9720917"><ele>226.00000000000003</ele><time>2026-04-25T15:12:59.23Z</time></trkpt><trkpt lat="45.6339817" lon="8.9719717"><ele>226.0</ele><time>2026-04-25T15:13:00.229Z</time></trkpt><trkpt lat="45.633895" lon="8.9718267"><ele>226.0</ele><time>2026-04-25T15:13:01.228Z</time></trkpt><trkpt lat="45.6338133" lon="8.9716767"><ele>224.5</ele><time>2026-04-25T15:13:02.229Z</time></trkpt><trkpt lat="45.633735" lon="8.9715167"><ele>223.0</ele><time>2026-04-25T15:13:03.229Z</time></trkpt><trkpt lat="45.6336567" lon="8.97135"><ele>221.5</ele><time>2026-04-25T15:13:04.229Z</time></trkpt><trkpt lat="45.6335767" lon="8.971185"><ele>220.0</ele><time>2026-04-25T15:13:05.228Z</time></trkpt><trkpt lat="45.6334967" lon="8.97102"><ele>221.5</ele><time>2026-04-25T15:13:06.23Z</time></trkpt><trkpt lat="45.6334217" lon="8.9708567"><ele>223.0</ele><time>2026-04-25T15:13:07.229Z</time></trkpt><trkpt lat="45.633345" lon="8.9706883"><ele>224.5</ele><time>2026-04-25T15:13:08.23Z</time></trkpt><trkpt lat="45.633265" lon="8.9705167"><ele>226.0</ele><time>2026-04-25T15:13:09.23Z</time></trkpt><trkpt lat="45.6331783" lon="8.9703483"><ele>226.0</ele><time>2026-04-25T15:13:10.229Z</time></trkpt><trkpt lat="45.633095" lon="8.9701917"><ele>226.0</ele><time>2026-04-25T15:13:11.228Z</time></trkpt><trkpt lat="45.633015" lon="8.97006"><ele>226.0</ele><time>2026-04-25T15:13:12.229Z</time></trkpt><trkpt lat="45.63293" lon="8.9699333"><ele>226.0</ele><time>2026-04-25T15:13:13.229Z</time></trkpt><trkpt lat="45.6328467" lon="8.9698317"><ele>225.20000000000002</ele><time>2026-04-25T15:13:14.228Z</time></trkpt><trkpt lat="45.63277" lon="8.96976"><ele>224.40000000000003</ele><time>2026-04-25T15:13:15.229Z</time></trkpt><trkpt lat="45.632685" lon="8.9697033"><ele>223.6</ele><time>2026-04-25T15:13:16.23Z</time></trkpt><trkpt lat="45.6325933" lon="8.9696717"><ele>222.8</ele><time>2026-04-25T15:13:17.229Z</time></trkpt><trkpt lat="45.6324983" lon="8.9696633"><ele>222.0</ele><time>2026-04-25T15:13:18.228Z</time></trkpt><trkpt lat="45.6323967" lon="8.96967"><ele>222.0</ele><time>2026-04-25T15:13:19.228Z</time></trkpt><trkpt lat="45.63229" lon="8.9696917"><ele>222.0</ele><time>2026-04-25T15:13:20.229Z</time></trkpt><trkpt lat="45.63218" lon="8.9697233"><ele>222.0</ele><time>2026-04-25T15:13:21.229Z</time></trkpt><trkpt lat="45.6320717" lon="8.9697567"><ele>222.0</ele><time>2026-04-25T15:13:22.228Z</time></trkpt><trkpt lat="45.6319583" lon="8.96981"><ele>222.0</ele><time>2026-04-25T15:13:23.229Z</time></trkpt><trkpt lat="45.631845" lon="8.9698633"><ele>222.0</ele><time>2026-04-25T15:13:24.229Z</time></trkpt><trkpt lat="45.63174" lon="8.9699083"><ele>222.0</ele><time>2026-04-25T15:13:25.228Z</time></trkpt><trkpt lat="45.6316367" lon="8.969925"><ele>222.0</ele><time>2026-04-25T15:13:26.229Z</time></trkpt><trkpt lat="45.6315467" lon="8.9699217"><ele>222.0</ele><time>2026-04-25T15:13:27.229Z</time></trkpt><trkpt lat="45.6314533" lon="8.9699067"><ele>222.0</ele><time>2026-04-25T15:13:28.229Z</time></trkpt><trkpt lat="45.631365" lon="8.9698417"><ele>222.0</ele><time>2026-04-25T15:13:29.229Z</time></trkpt><trkpt lat="45.6312833" lon="8.96974"><ele>222.0</ele><time>2026-04-25T15:13:30.23Z</time></trkpt><trkpt lat="45.6312" lon="8.9696183"><ele>222.0</ele><time>2026-04-25T15:13:31.228Z</time></trkpt><trkpt lat="45.6311083" lon="8.9694917"><ele>223.0</ele><time>2026-04-25T15:13:32.229Z</time></trkpt><trkpt lat="45.6310083" lon="8.9693617"><ele>224.0</ele><time>2026-04-25T15:13:33.229Z</time></trkpt><trkpt lat="45.6309067" lon="8.96923"><ele>225.0</ele><time>2026-04-25T15:13:34.228Z</time></trkpt><trkpt lat="45.6308" lon="8.9690983"><ele>226.0</ele><time>2026-04-25T15:13:35.229Z</time></trkpt><trkpt lat="45.630685" lon="8.96896"><ele>226.0</ele><time>2026-04-25T15:13:36.23Z</time></trkpt><trkpt lat="45.6305517" lon="8.9688117"><ele>226.0</ele><time>2026-04-25T15:13:37.23Z</time></trkpt><trkpt lat="45.6304067" lon="8.9686483"><ele>226.0</ele><time>2026-04-25T15:13:38.228Z</time></trkpt><trkpt lat="45.6302617" lon="8.96847"><ele>225.33333333333331</ele><time>2026-04-25T15:13:39.23Z</time></trkpt><trkpt lat="45.6301167" lon="8.9682783"><ele>224.66666666666669</ele><time>2026-04-25T15:13:40.228Z</time></trkpt><trkpt lat="45.6299717" lon="8.9680817"><ele>224.0</ele><time>2026-04-25T15:13:41.228Z</time></trkpt><trkpt lat="45.6298217" lon="8.9678817"><ele>224.0</ele><time>2026-04-25T15:13:42.23Z</time></trkpt><trkpt lat="45.6296767" lon="8.9676783"><ele>224.0</ele><time>2026-04-25T15:13:43.229Z</time></trkpt><trkpt lat="45.6295383" lon="8.9674933"><ele>224.0</ele><time>2026-04-25T15:13:44.23Z</time></trkpt><trkpt lat="45.6294117" lon="8.9673233"><ele>225.0</ele><time>2026-04-25T15:13:45.231Z</time></trkpt><trkpt lat="45.629285" lon="8.9671617"><ele>226.0</ele><time>2026-04-25T15:13:46.23Z</time></trkpt><trkpt lat="45.6291583" lon="8.967"><ele>227.0</ele><time>2026-04-25T15:13:47.229Z</time></trkpt><trkpt lat="45.62903" lon="8.96683"><ele>227.33333333333334</ele><time>2026-04-25T15:13:48.228Z</time></trkpt><trkpt lat="45.6289067" lon="8.9666567"><ele>227.66666666666669</ele><time>2026-04-25T15:13:49.23Z</time></trkpt><trkpt lat="45.6287867" lon="8.9664817"><ele>228.0</ele><time>2026-04-25T15:13:50.229Z</time></trkpt><trkpt lat="45.6286617" lon="8.9662983"><ele>227.66666666666669</ele><time>2026-04-25T15:13:51.228Z</time></trkpt><trkpt lat="45.6285333" lon="8.9661133"><ele>227.33333333333334</ele><time>2026-04-25T15:13:52.229Z</time></trkpt><trkpt lat="45.6284067" lon="8.965925"><ele>227.0</ele><time>2026-04-25T15:13:53.229Z</time></trkpt><trkpt lat="45.6282817" lon="8.9657433"><ele>227.0</ele><time>2026-04-25T15:13:54.229Z</time></trkpt><trkpt lat="45.6281533" lon="8.9655567"><ele>227.0</ele><time>2026-04-25T15:13:55.23Z</time></trkpt><trkpt lat="45.6280233" lon="8.96537"><ele>227.0</ele><time>2026-04-25T15:13:56.23Z</time></trkpt><trkpt lat="45.6278883" lon="8.96518"><ele>228.0</ele><time>2026-04-25T15:13:57.23Z</time></trkpt><trkpt lat="45.62775" lon="8.96498"><ele>229.0</ele><time>2026-04-25T15:13:58.228Z</time></trkpt><trkpt lat="45.62761" lon="8.9647733"><ele>230.0</ele><time>2026-04-25T15:13:59.231Z</time></trkpt><trkpt lat="45.6274667" lon="8.9645617"><ele>230.0</ele><time>2026-04-25T15:14:00.23Z</time></trkpt><trkpt lat="45.6273217" lon="8.9643467"><ele>230.0</ele><time>2026-04-25T15:14:01.229Z</time></trkpt><trkpt lat="45.6271733" lon="8.9641317"><ele>230.0</ele><time>2026-04-25T15:14:02.228Z</time></trkpt><trkpt lat="45.6270233" lon="8.963915"><ele>229.66666666666669</ele><time>2026-04-25T15:14:03.23Z</time></trkpt><trkpt lat="45.62687" lon="8.9636983"><ele>229.33333333333331</ele><time>2026-04-25T15:14:04.23Z</time></trkpt><trkpt lat="45.6267167" lon="8.963475"><ele>229.0</ele><time>2026-04-25T15:14:05.229Z</time></trkpt><trkpt lat="45.6265633" lon="8.96325"><ele>227.0</ele><time>2026-04-25T15:14:06.229Z</time></trkpt><trkpt lat="45.6264117" lon="8.9630217"><ele>225.0</ele><time>2026-04-25T15:14:07.228Z</time></trkpt><trkpt lat="45.6260917" lon="8.9625667"><ele>224.0</ele><time>2026-04-25T15:14:09.229Z</time></trkpt><trkpt lat="45.6259283" lon="8.96234"><ele>223.0</ele><time>2026-04-25T15:14:10.228Z</time></trkpt><trkpt lat="45.6257667" lon="8.962115"><ele>223.0</ele><time>2026-04-25T15:14:11.229Z</time></trkpt><trkpt lat="45.6256033" lon="8.9618867"><ele>223.0</ele><time>2026-04-25T15:14:12.229Z</time></trkpt><trkpt lat="45.6254417" lon="8.961665"><ele>223.0</ele><time>2026-04-25T15:14:13.228Z</time></trkpt><trkpt lat="45.62529" lon="8.9614567"><ele>223.0</ele><time>2026-04-25T15:14:14.229Z</time></trkpt><trkpt lat="45.6251483" lon="8.9612583"><ele>223.0</ele><time>2026-04-25T15:14:15.229Z</time></trkpt><trkpt lat="45.6250133" lon="8.9610733"><ele>223.0</ele><time>2026-04-25T15:14:16.228Z</time></trkpt><trkpt lat="45.6248867" lon="8.9609033"><ele>223.0</ele><time>2026-04-25T15:14:17.228Z</time></trkpt><trkpt lat="45.62476" lon="8.9607533"><ele>223.0</ele><time>2026-04-25T15:14:18.229Z</time></trkpt><trkpt lat="45.6246333" lon="8.9606233"><ele>222.75</ele><time>2026-04-25T15:14:19.228Z</time></trkpt><trkpt lat="45.624505" lon="8.9605233"><ele>222.5</ele><time>2026-04-25T15:14:20.229Z</time></trkpt><trkpt lat="45.6243683" lon="8.9604567"><ele>222.25</ele><time>2026-04-25T15:14:21.231Z</time></trkpt><trkpt lat="45.624225" lon="8.96042"><ele>222.0</ele><time>2026-04-25T15:14:22.229Z</time></trkpt><trkpt lat="45.6240733" lon="8.9604083"><ele>222.0</ele><time>2026-04-25T15:14:23.229Z</time></trkpt><trkpt lat="45.623915" lon="8.96042"><ele>222.0</ele><time>2026-04-25T15:14:24.229Z</time></trkpt><trkpt lat="45.62375" lon="8.96043"><ele>222.0</ele><time>2026-04-25T15:14:25.229Z</time></trkpt><trkpt lat="45.62358" lon="8.960455"><ele>222.33333333333331</ele><time>2026-04-25T15:14:26.228Z</time></trkpt><trkpt lat="45.62341" lon="8.9604883"><ele>222.66666666666666</ele><time>2026-04-25T15:14:27.23Z</time></trkpt><trkpt lat="45.6232467" lon="8.960525"><ele>223.0</ele><time>2026-04-25T15:14:28.229Z</time></trkpt><trkpt lat="45.6230933" lon="8.96056"><ele>223.0</ele><time>2026-04-25T15:14:29.228Z</time></trkpt><trkpt lat="45.6229483" lon="8.9605817"><ele>223.0</ele><time>2026-04-25T15:14:30.23Z</time></trkpt><trkpt lat="45.6228133" lon="8.9605867"><ele>223.0</ele><time>2026-04-25T15:14:31.228Z</time></trkpt><trkpt lat="45.62269" lon="8.9605667"><ele>223.0</ele><time>2026-04-25T15:14:32.228Z</time></trkpt><trkpt lat="45.622565" lon="8.9605267"><ele>222.8</ele><time>2026-04-25T15:14:33.229Z</time></trkpt><trkpt lat="45.6224483" lon="8.96047"><ele>222.60000000000002</ele><time>2026-04-25T15:14:34.229Z</time></trkpt><trkpt lat="45.6223433" lon="8.9604117"><ele>222.39999999999998</ele><time>2026-04-25T15:14:35.229Z</time></trkpt><trkpt lat="45.62225" lon="8.9603667"><ele>222.2</ele><time>2026-04-25T15:14:36.228Z</time></trkpt><trkpt lat="45.6221683" lon="8.9603283"><ele>222.0</ele><time>2026-04-25T15:14:37.228Z</time></trkpt><trkpt lat="45.6220933" lon="8.9603033"><ele>222.0</ele><time>2026-04-25T15:14:38.229Z</time></trkpt><trkpt lat="45.62202" lon="8.9602717"><ele>222.0</ele><time>2026-04-25T15:14:39.23Z</time></trkpt><trkpt lat="45.621955" lon="8.960225"><ele>222.0</ele><time>2026-04-25T15:14:40.228Z</time></trkpt><trkpt lat="45.6219" lon="8.960155"><ele>222.0</ele><time>2026-04-25T15:14:41.228Z</time></trkpt><trkpt lat="45.621865" lon="8.960065"><ele>222.0</ele><time>2026-04-25T15:14:42.23Z</time></trkpt><trkpt lat="45.621845" lon="8.9599583"><ele>222.0</ele><time>2026-04-25T15:14:43.231Z</time></trkpt><trkpt lat="45.6218433" lon="8.95983"><ele>222.0</ele><time>2026-04-25T15:14:44.229Z</time></trkpt><trkpt lat="45.6218267" lon="8.9597133"><ele>222.0</ele><time>2026-04-25T15:14:45.229Z</time></trkpt><trkpt lat="45.6217967" lon="8.9596033"><ele>222.0</ele><time>2026-04-25T15:14:46.231Z</time></trkpt><trkpt lat="45.621755" lon="8.9594967"><ele>222.0</ele><time>2026-04-25T15:14:47.228Z</time></trkpt><trkpt lat="45.62169" lon="8.95939"><ele>222.0</ele><time>2026-04-25T15:14:48.229Z</time></trkpt><trkpt lat="45.621615" lon="8.9592717"><ele>221.75</ele><time>2026-04-25T15:14:49.229Z</time></trkpt><trkpt lat="45.6215333" lon="8.95914"><ele>221.5</ele><time>2026-04-25T15:14:50.228Z</time></trkpt><trkpt lat="45.621435" lon="8.9589933"><ele>221.25</ele><time>2026-04-25T15:14:51.229Z</time></trkpt><trkpt lat="45.6213433" lon="8.9588433"><ele>221.0</ele><time>2026-04-25T15:14:52.229Z</time></trkpt><trkpt lat="45.62125" lon="8.9586917"><ele>221.0</ele><time>2026-04-25T15:14:53.229Z</time></trkpt><trkpt lat="45.6211483" lon="8.9585383"><ele>221.0</ele><time>2026-04-25T15:14:54.229Z</time></trkpt><trkpt lat="45.621055" lon="8.9583917"><ele>221.0</ele><time>2026-04-25T15:14:55.229Z</time></trkpt><trkpt lat="45.6209733" lon="8.9582617"><ele>221.0</ele><time>2026-04-25T15:14:56.229Z</time></trkpt><trkpt lat="45.6208933" lon="8.9581417"><ele>221.0</ele><time>2026-04-25T15:14:57.23Z</time></trkpt><trkpt lat="45.6208183" lon="8.9580267"><ele>221.0</ele><time>2026-04-25T15:14:58.228Z</time></trkpt><trkpt lat="45.6207417" lon="8.957915"><ele>221.0</ele><time>2026-04-25T15:14:59.228Z</time></trkpt><trkpt lat="45.62066" lon="8.9577933"><ele>221.0</ele><time>2026-04-25T15:15:00.229Z</time></trkpt><trkpt lat="45.620575" lon="8.9576617"><ele>221.0</ele><time>2026-04-25T15:15:01.229Z</time></trkpt><trkpt lat="45.6204833" lon="8.9575233"><ele>221.0</ele><time>2026-04-25T15:15:02.229Z</time></trkpt><trkpt lat="45.6203883" lon="8.95738"><ele>221.0</ele><time>2026-04-25T15:15:03.229Z</time></trkpt><trkpt lat="45.6202867" lon="8.9572383"><ele>221.0</ele><time>2026-04-25T15:15:04.229Z</time></trkpt><trkpt lat="45.6201867" lon="8.9570933"><ele>221.0</ele><time>2026-04-25T15:15:05.229Z</time></trkpt><trkpt lat="45.6200833" lon="8.956945"><ele>221.0</ele><time>2026-04-25T15:15:06.228Z</time></trkpt><trkpt lat="45.6199817" lon="8.9567883"><ele>221.0</ele><time>2026-04-25T15:15:07.231Z</time></trkpt><trkpt lat="45.6198817" lon="8.9566367"><ele>221.0</ele><time>2026-04-25T15:15:08.228Z</time></trkpt><trkpt lat="45.61979" lon="8.9564917"><ele>221.20000000000002</ele><time>2026-04-25T15:15:09.229Z</time></trkpt><trkpt lat="45.619705" lon="8.9563633"><ele>221.40000000000003</ele><time>2026-04-25T15:15:10.229Z</time></trkpt><trkpt lat="45.6196333" lon="8.9562483"><ele>221.6</ele><time>2026-04-25T15:15:11.229Z</time></trkpt><trkpt lat="45.6195633" lon="8.9561417"><ele>221.8</ele><time>2026-04-25T15:15:12.228Z</time></trkpt><trkpt lat="45.6194967" lon="8.9560433"><ele>222.0</ele><time>2026-04-25T15:15:13.229Z</time></trkpt><trkpt lat="45.6194267" lon="8.95594"><ele>221.66666666666666</ele><time>2026-04-25T15:15:14.229Z</time></trkpt><trkpt lat="45.6193633" lon="8.95584"><ele>221.33333333333331</ele><time>2026-04-25T15:15:15.23Z</time></trkpt><trkpt lat="45.619305" lon="8.9557467"><ele>221.0</ele><time>2026-04-25T15:15:16.228Z</time></trkpt><trkpt lat="45.6192533" lon="8.9556583"><ele>220.66666666666666</ele><time>2026-04-25T15:15:17.23Z</time></trkpt><trkpt lat="45.6192067" lon="8.9555817"><ele>220.33333333333331</ele><time>2026-04-25T15:15:18.229Z</time></trkpt><trkpt lat="45.6191367" lon="8.9554767"><ele>220.0</ele><time>2026-04-25T15:15:20.229Z</time></trkpt><trkpt lat="45.6190883" lon="8.9554117"><ele>220.0</ele><time>2026-04-25T15:15:22.23Z</time></trkpt><trkpt lat="45.619025" lon="8.955295"><ele>220.0</ele><time>2026-04-25T15:15:38.228Z</time></trkpt><trkpt lat="45.6189667" lon="8.955175"><ele>220.0</ele><time>2026-04-25T15:15:40.229Z</time></trkpt><trkpt lat="45.6189717" lon="8.9550483"><ele>220.0</ele><time>2026-04-25T15:15:42.229Z</time></trkpt><trkpt lat="45.619055" lon="8.9549367"><ele>220.0</ele><time>2026-04-25T15:15:44.23Z</time></trkpt><trkpt lat="45.619115" lon="8.9548667"><ele>220.2</ele><time>2026-04-25T15:15:45.23Z</time></trkpt><trkpt lat="45.619185" lon="8.95478"><ele>220.4</ele><time>2026-04-25T15:15:46.229Z</time></trkpt><trkpt lat="45.6192633" lon="8.95468"><ele>220.60000000000002</ele><time>2026-04-25T15:15:47.229Z</time></trkpt><trkpt lat="45.61935" lon="8.9545717"><ele>220.8</ele><time>2026-04-25T15:15:48.23Z</time></trkpt><trkpt lat="45.6194433" lon="8.9544617"><ele>221.0</ele><time>2026-04-25T15:15:49.229Z</time></trkpt><trkpt lat="45.6195417" lon="8.9543467"><ele>221.0</ele><time>2026-04-25T15:15:50.229Z</time></trkpt><trkpt lat="45.61964" lon="8.9542233"><ele>221.0</ele><time>2026-04-25T15:15:51.229Z</time></trkpt><trkpt lat="45.6197417" lon="8.954095"><ele>221.0</ele><time>2026-04-25T15:15:52.229Z</time></trkpt><trkpt lat="45.61985" lon="8.9539583"><ele>221.0</ele><time>2026-04-25T15:15:53.23Z</time></trkpt><trkpt lat="45.61996" lon="8.9538233"><ele>221.0</ele><time>2026-04-25T15:15:54.23Z</time></trkpt><trkpt lat="45.620065" lon="8.9536933"><ele>221.0</ele><time>2026-04-25T15:15:55.229Z</time></trkpt><trkpt lat="45.6201683" lon="8.9535683"><ele>221.0</ele><time>2026-04-25T15:15:56.23Z</time></trkpt><trkpt lat="45.6202717" lon="8.95345"><ele>221.0</ele><time>2026-04-25T15:15:57.229Z</time></trkpt><trkpt lat="45.6203683" lon="8.953335"><ele>221.75</ele><time>2026-04-25T15:15:58.228Z</time></trkpt><trkpt lat="45.6204633" lon="8.9532233"><ele>222.5</ele><time>2026-04-25T15:15:59.229Z</time></trkpt><trkpt lat="45.6205533" lon="8.953115"><ele>223.25</ele><time>2026-04-25T15:16:00.229Z</time></trkpt><trkpt lat="45.62064" lon="8.9530133"><ele>224.0</ele><time>2026-04-25T15:16:01.23Z</time></trkpt><trkpt lat="45.6207233" lon="8.9529017"><ele>224.0</ele><time>2026-04-25T15:16:02.23Z</time></trkpt><trkpt lat="45.6208083" lon="8.9527883"><ele>224.0</ele><time>2026-04-25T15:16:03.23Z</time></trkpt><trkpt lat="45.6209" lon="8.9526733"><ele>224.0</ele><time>2026-04-25T15:16:04.228Z</time></trkpt><trkpt lat="45.621" lon="8.952545"><ele>224.0</ele><time>2026-04-25T15:16:05.228Z</time></trkpt><trkpt lat="45.6211033" lon="8.9524067"><ele>224.0</ele><time>2026-04-25T15:16:06.229Z</time></trkpt><trkpt lat="45.6212117" lon="8.952265"><ele>224.0</ele><time>2026-04-25T15:16:07.228Z</time></trkpt><trkpt lat="45.6213283" lon="8.9521283"><ele>224.0</ele><time>2026-04-25T15:16:08.229Z</time></trkpt><trkpt lat="45.6214517" lon="8.9519883"><ele>224.0</ele><time>2026-04-25T15:16:09.229Z</time></trkpt><trkpt lat="45.6215733" lon="8.9518417"><ele>224.0</ele><time>2026-04-25T15:16:10.229Z</time></trkpt><trkpt lat="45.6216983" lon="8.9516933"><ele>224.0</ele><time>2026-04-25T15:16:11.229Z</time></trkpt><trkpt lat="45.62182" lon="8.9515433"><ele>224.0</ele><time>2026-04-25T15:16:12.228Z</time></trkpt><trkpt lat="45.6219433" lon="8.95139"><ele>224.0</ele><time>2026-04-25T15:16:13.23Z</time></trkpt><trkpt lat="45.6220667" lon="8.9512367"><ele>224.0</ele><time>2026-04-25T15:16:14.229Z</time></trkpt><trkpt lat="45.6221967" lon="8.9510783"><ele>224.0</ele><time>2026-04-25T15:16:15.229Z</time></trkpt><trkpt lat="45.6223233" lon="8.95092"><ele>224.0</ele><time>2026-04-25T15:16:16.229Z</time></trkpt><trkpt lat="45.6224467" lon="8.9507667"><ele>224.0</ele><time>2026-04-25T15:16:17.229Z</time></trkpt><trkpt lat="45.62257" lon="8.9506167"><ele>224.66666666666669</ele><time>2026-04-25T15:16:18.23Z</time></trkpt><trkpt lat="45.622695" lon="8.95047"><ele>225.33333333333331</ele><time>2026-04-25T15:16:19.229Z</time></trkpt><trkpt lat="45.62282" lon="8.95032"><ele>226.0</ele><time>2026-04-25T15:16:20.231Z</time></trkpt><trkpt lat="45.622945" lon="8.9501683"><ele>227.33333333333331</ele><time>2026-04-25T15:16:21.231Z</time></trkpt><trkpt lat="45.6230733" lon="8.9500117"><ele>228.66666666666669</ele><time>2026-04-25T15:16:22.229Z</time></trkpt><trkpt lat="45.6232" lon="8.9498517"><ele>230.0</ele><time>2026-04-25T15:16:23.23Z</time></trkpt><trkpt lat="45.6233267" lon="8.9497017"><ele>230.0</ele><time>2026-04-25T15:16:24.23Z</time></trkpt><trkpt lat="45.623445" lon="8.9495583"><ele>230.0</ele><time>2026-04-25T15:16:25.228Z</time></trkpt><trkpt lat="45.6235583" lon="8.9494183"><ele>230.0</ele><time>2026-04-25T15:16:26.23Z</time></trkpt><trkpt lat="45.6236667" lon="8.9492867"><ele>230.0</ele><time>2026-04-25T15:16:27.231Z</time></trkpt><trkpt lat="45.623765" lon="8.94917"><ele>229.4</ele><time>2026-04-25T15:16:28.229Z</time></trkpt><trkpt lat="45.6238517" lon="8.9490633"><ele>228.8</ele><time>2026-04-25T15:16:29.229Z</time></trkpt><trkpt lat="45.6239283" lon="8.94897"><ele>228.2</ele><time>2026-04-25T15:16:30.23Z</time></trkpt><trkpt lat="45.623995" lon="8.9488917"><ele>227.6</ele><time>2026-04-25T15:16:31.229Z</time></trkpt><trkpt lat="45.6240533" lon="8.9488183"><ele>227.0</ele><time>2026-04-25T15:16:32.229Z</time></trkpt><trkpt lat="45.624105" lon="8.9487483"><ele>227.0</ele><time>2026-04-25T15:16:33.231Z</time></trkpt><trkpt lat="45.6241617" lon="8.9486733"><ele>227.0</ele><time>2026-04-25T15:16:34.228Z</time></trkpt><trkpt lat="45.6242217" lon="8.948585"><ele>227.0</ele><time>2026-04-25T15:16:35.23Z</time></trkpt><trkpt lat="45.6242883" lon="8.9484817"><ele>227.0</ele><time>2026-04-25T15:16:36.228Z</time></trkpt><trkpt lat="45.624365" lon="8.9483683"><ele>227.0</ele><time>2026-04-25T15:16:37.229Z</time></trkpt><trkpt lat="45.6244467" lon="8.9482467"><ele>227.39999999999998</ele><time>2026-04-25T15:16:38.229Z</time></trkpt><trkpt lat="45.6245267" lon="8.94813"><ele>227.79999999999998</ele><time>2026-04-25T15:16:39.23Z</time></trkpt><trkpt lat="45.6246083" lon="8.948025"><ele>228.2</ele><time>2026-04-25T15:16:40.229Z</time></trkpt><trkpt lat="45.624685" lon="8.9479317"><ele>228.6</ele><time>2026-04-25T15:16:41.229Z</time></trkpt><trkpt lat="45.6247567" lon="8.94784"><ele>229.0</ele><time>2026-04-25T15:16:42.229Z</time></trkpt><trkpt lat="45.6248217" lon="8.9477333"><ele>229.0</ele><time>2026-04-25T15:16:43.229Z</time></trkpt><trkpt lat="45.6248817" lon="8.9476117"><ele>228.99999999999997</ele><time>2026-04-25T15:16:44.229Z</time></trkpt><trkpt lat="45.624945" lon="8.9474867"><ele>228.99999999999997</ele><time>2026-04-25T15:16:45.229Z</time></trkpt><trkpt lat="45.62501" lon="8.94736"><ele>229.0</ele><time>2026-04-25T15:16:46.228Z</time></trkpt><trkpt lat="45.6250733" lon="8.94724"><ele>229.0</ele><time>2026-04-25T15:16:47.23Z</time></trkpt><trkpt lat="45.6251367" lon="8.9471217"><ele>229.0</ele><time>2026-04-25T15:16:48.229Z</time></trkpt><trkpt lat="45.6252067" lon="8.9470083"><ele>228.99999999999997</ele><time>2026-04-25T15:16:49.23Z</time></trkpt><trkpt lat="45.6252767" lon="8.9468933"><ele>228.99999999999997</ele><time>2026-04-25T15:16:50.23Z</time></trkpt><trkpt lat="45.6253483" lon="8.9467817"><ele>229.0</ele><time>2026-04-25T15:16:51.23Z</time></trkpt><trkpt lat="45.6254183" lon="8.9466717"><ele>229.0</ele><time>2026-04-25T15:16:52.229Z</time></trkpt><trkpt lat="45.625495" lon="8.9465583"><ele>229.0</ele><time>2026-04-25T15:16:53.229Z</time></trkpt><trkpt lat="45.6255733" lon="8.9464367"><ele>229.0</ele><time>2026-04-25T15:16:54.23Z</time></trkpt><trkpt lat="45.6256567" lon="8.9463183"><ele>229.0</ele><time>2026-04-25T15:16:55.229Z</time></trkpt><trkpt lat="45.6257333" lon="8.9461917"><ele>229.0</ele><time>2026-04-25T15:16:56.229Z</time></trkpt><trkpt lat="45.6258117" lon="8.9460667"><ele>229.0</ele><time>2026-04-25T15:16:57.229Z</time></trkpt><trkpt lat="45.6258867" lon="8.9459417"><ele>228.99999999999997</ele><time>2026-04-25T15:16:58.229Z</time></trkpt><trkpt lat="45.6259533" lon="8.9458217"><ele>228.99999999999997</ele><time>2026-04-25T15:16:59.229Z</time></trkpt><trkpt lat="45.6260233" lon="8.94571"><ele>229.0</ele><time>2026-04-25T15:17:00.229Z</time></trkpt><trkpt lat="45.6261" lon="8.9455967"><ele>229.0</ele><time>2026-04-25T15:17:01.229Z</time></trkpt><trkpt lat="45.626175" lon="8.945485"><ele>229.0</ele><time>2026-04-25T15:17:02.228Z</time></trkpt><trkpt lat="45.6262517" lon="8.94537"><ele>228.99999999999997</ele><time>2026-04-25T15:17:03.231Z</time></trkpt><trkpt lat="45.626325" lon="8.94526"><ele>228.99999999999997</ele><time>2026-04-25T15:17:04.231Z</time></trkpt><trkpt lat="45.6263917" lon="8.9451567"><ele>229.0</ele><time>2026-04-25T15:17:05.23Z</time></trkpt><trkpt lat="45.6264483" lon="8.945055"><ele>229.0</ele><time>2026-04-25T15:17:06.231Z</time></trkpt><trkpt lat="45.6265067" lon="8.9449583"><ele>228.99999999999997</ele><time>2026-04-25T15:17:07.231Z</time></trkpt><trkpt lat="45.62656" lon="8.944865"><ele>229.0</ele><time>2026-04-25T15:17:08.229Z</time></trkpt><trkpt lat="45.62661" lon="8.94478"><ele>229.0</ele><time>2026-04-25T15:17:09.228Z</time></trkpt><trkpt lat="45.6266533" lon="8.9447117"><ele>229.0</ele><time>2026-04-25T15:17:10.229Z</time></trkpt><trkpt lat="45.626715" lon="8.9446483"><ele>228.99999999999997</ele><time>2026-04-25T15:17:12.23Z</time></trkpt><trkpt lat="45.6267767" lon="8.9447017"><ele>229.0</ele><time>2026-04-25T15:17:14.228Z</time></trkpt><trkpt lat="45.6268283" lon="8.9448283"><ele>229.0</ele><time>2026-04-25T15:17:16.228Z</time></trkpt><trkpt lat="45.6268683" lon="8.94491"><ele>228.99999999999997</ele><time>2026-04-25T15:17:17.228Z</time></trkpt><trkpt lat="45.626915" lon="8.94501"><ele>228.99999999999997</ele><time>2026-04-25T15:17:18.23Z</time></trkpt><trkpt lat="45.6269683" lon="8.9451267"><ele>229.0</ele><time>2026-04-25T15:17:19.231Z</time></trkpt><trkpt lat="45.6270267" lon="8.945265"><ele>229.0</ele><time>2026-04-25T15:17:20.23Z</time></trkpt><trkpt lat="45.62709" lon="8.9454083"><ele>229.0</ele><time>2026-04-25T15:17:21.231Z</time></trkpt><trkpt lat="45.6271483" lon="8.9455533"><ele>228.99999999999997</ele><time>2026-04-25T15:17:22.231Z</time></trkpt><trkpt lat="45.627205" lon="8.9456883"><ele>228.99999999999997</ele><time>2026-04-25T15:17:23.231Z</time></trkpt><trkpt lat="45.6272633" lon="8.94582"><ele>229.0</ele><time>2026-04-25T15:17:24.23Z</time></trkpt><trkpt lat="45.6273233" lon="8.9459567"><ele>229.0</ele><time>2026-04-25T15:17:25.23Z</time></trkpt><trkpt lat="45.6273867" lon="8.9460967"><ele>229.0</ele><time>2026-04-25T15:17:26.229Z</time></trkpt><trkpt lat="45.6274517" lon="8.9462367"><ele>229.0</ele><time>2026-04-25T15:17:27.229Z</time></trkpt><trkpt lat="45.6275217" lon="8.9463717"><ele>229.0</ele><time>2026-04-25T15:17:28.228Z</time></trkpt><trkpt lat="45.6275983" lon="8.9464983"><ele>229.0</ele><time>2026-04-25T15:17:29.23Z</time></trkpt><trkpt lat="45.6276817" lon="8.9466217"><ele>229.0</ele><time>2026-04-25T15:17:30.229Z</time></trkpt><trkpt lat="45.627765" lon="8.9467483"><ele>229.0</ele><time>2026-04-25T15:17:31.23Z</time></trkpt><trkpt lat="45.627845" lon="8.9468767"><ele>229.0</ele><time>2026-04-25T15:17:32.23Z</time></trkpt><trkpt lat="45.6279183" lon="8.9470083"><ele>229.0</ele><time>2026-04-25T15:17:33.23Z</time></trkpt><trkpt lat="45.6279917" lon="8.9471417"><ele>229.0</ele><time>2026-04-25T15:17:34.229Z</time></trkpt><trkpt lat="45.6280633" lon="8.9472783"><ele>228.99999999999997</ele><time>2026-04-25T15:17:35.229Z</time></trkpt><trkpt lat="45.6281267" lon="8.9474083"><ele>228.99999999999997</ele><time>2026-04-25T15:17:36.229Z</time></trkpt><trkpt lat="45.628185" lon="8.94753"><ele>229.0</ele><time>2026-04-25T15:17:37.229Z</time></trkpt><trkpt lat="45.6282383" lon="8.9476417"><ele>229.0</ele><time>2026-04-25T15:17:38.228Z</time></trkpt><trkpt lat="45.628285" lon="8.94774"><ele>229.0</ele><time>2026-04-25T15:17:39.229Z</time></trkpt><trkpt lat="45.6283233" lon="8.9478233"><ele>228.99999999999997</ele><time>2026-04-25T15:17:40.228Z</time></trkpt><trkpt lat="45.6284" lon="8.9479117"><ele>228.99999999999997</ele><time>2026-04-25T15:17:42.23Z</time></trkpt><trkpt lat="45.6284783" lon="8.9478833"><ele>229.0</ele><time>2026-04-25T15:17:44.23Z</time></trkpt><trkpt lat="45.6285417" lon="8.94778"><ele>229.0</ele><time>2026-04-25T15:17:46.229Z</time></trkpt><trkpt lat="45.6286233" lon="8.947645"><ele>229.0</ele><time>2026-04-25T15:17:48.23Z</time></trkpt><trkpt lat="45.6286717" lon="8.947565"><ele>228.99999999999997</ele><time>2026-04-25T15:17:49.229Z</time></trkpt><trkpt lat="45.62873" lon="8.9474783"><ele>228.99999999999997</ele><time>2026-04-25T15:17:50.231Z</time></trkpt><trkpt lat="45.6288" lon="8.9473783"><ele>229.0</ele><time>2026-04-25T15:17:51.23Z</time></trkpt><trkpt lat="45.628875" lon="8.9472733"><ele>229.0</ele><time>2026-04-25T15:17:52.23Z</time></trkpt><trkpt lat="45.6289483" lon="8.9471717"><ele>229.0</ele><time>2026-04-25T15:17:53.228Z</time></trkpt><trkpt lat="45.6290233" lon="8.9470667"><ele>229.0</ele><time>2026-04-25T15:17:54.229Z</time></trkpt><trkpt lat="45.629105" lon="8.9469517"><ele>229.0</ele><time>2026-04-25T15:17:55.229Z</time></trkpt><trkpt lat="45.6291933" lon="8.9468317"><ele>229.0</ele><time>2026-04-25T15:17:56.229Z</time></trkpt><trkpt lat="45.6293983" lon="8.9466067"><ele>229.25</ele><time>2026-04-25T15:17:58.229Z</time></trkpt><trkpt lat="45.6295083" lon="8.9464983"><ele>229.5</ele><time>2026-04-25T15:17:59.229Z</time></trkpt><trkpt lat="45.6296267" lon="8.9463867"><ele>229.75</ele><time>2026-04-25T15:18:00.228Z</time></trkpt><trkpt lat="45.629745" lon="8.94628"><ele>230.0</ele><time>2026-04-25T15:18:01.232Z</time></trkpt><trkpt lat="45.62986" lon="8.9461817"><ele>230.0</ele><time>2026-04-25T15:18:02.228Z</time></trkpt><trkpt lat="45.629975" lon="8.9460833"><ele>230.0</ele><time>2026-04-25T15:18:03.23Z</time></trkpt><trkpt lat="45.6300883" lon="8.9459783"><ele>230.0</ele><time>2026-04-25T15:18:04.228Z</time></trkpt><trkpt lat="45.6301983" lon="8.9458683"><ele>230.0</ele><time>2026-04-25T15:18:05.229Z</time></trkpt><trkpt lat="45.6303067" lon="8.9457633"><ele>230.5</ele><time>2026-04-25T15:18:06.228Z</time></trkpt><trkpt lat="45.630415" lon="8.9456583"><ele>231.0</ele><time>2026-04-25T15:18:07.23Z</time></trkpt><trkpt lat="45.630525" lon="8.945555"><ele>231.5</ele><time>2026-04-25T15:18:08.228Z</time></trkpt><trkpt lat="45.6306383" lon="8.9454517"><ele>232.0</ele><time>2026-04-25T15:18:09.23Z</time></trkpt><trkpt lat="45.6307483" lon="8.9453433"><ele>232.0</ele><time>2026-04-25T15:18:10.229Z</time></trkpt><trkpt lat="45.6308583" lon="8.9452433"><ele>232.0</ele><time>2026-04-25T15:18:11.229Z</time></trkpt><trkpt lat="45.6309633" lon="8.9451467"><ele>232.0</ele><time>2026-04-25T15:18:12.23Z</time></trkpt><trkpt lat="45.631065" lon="8.9450617"><ele>232.0</ele><time>2026-04-25T15:18:13.228Z</time></trkpt><trkpt lat="45.631155" lon="8.9449817"><ele>232.6</ele><time>2026-04-25T15:18:14.229Z</time></trkpt><trkpt lat="45.6312367" lon="8.944915"><ele>233.2</ele><time>2026-04-25T15:18:15.229Z</time></trkpt><trkpt lat="45.63132" lon="8.9448517"><ele>233.8</ele><time>2026-04-25T15:18:16.229Z</time></trkpt><trkpt lat="45.631405" lon="8.94479"><ele>234.4</ele><time>2026-04-25T15:18:17.229Z</time></trkpt><trkpt lat="45.6315033" lon="8.9447367"><ele>235.0</ele><time>2026-04-25T15:18:18.229Z</time></trkpt><trkpt lat="45.6316167" lon="8.9446867"><ele>235.0</ele><time>2026-04-25T15:18:19.23Z</time></trkpt><trkpt lat="45.6317367" lon="8.9446283"><ele>235.0</ele><time>2026-04-25T15:18:20.229Z</time></trkpt><trkpt lat="45.631865" lon="8.9445667"><ele>235.0</ele><time>2026-04-25T15:18:21.23Z</time></trkpt><trkpt lat="45.6320017" lon="8.94451"><ele>235.0</ele><time>2026-04-25T15:18:22.229Z</time></trkpt><trkpt lat="45.6321483" lon="8.9444567"><ele>234.5</ele><time>2026-04-25T15:18:23.231Z</time></trkpt><trkpt lat="45.6322883" lon="8.9444033"><ele>234.0</ele><time>2026-04-25T15:18:24.228Z</time></trkpt><trkpt lat="45.6324133" lon="8.9443517"><ele>233.5</ele><time>2026-04-25T15:18:25.229Z</time></trkpt><trkpt lat="45.6325333" lon="8.9443033"><ele>233.0</ele><time>2026-04-25T15:18:26.228Z</time></trkpt><trkpt lat="45.6326417" lon="8.94426"><ele>233.0</ele><time>2026-04-25T15:18:27.23Z</time></trkpt><trkpt lat="45.6327433" lon="8.9442167"><ele>233.0</ele><time>2026-04-25T15:18:28.228Z</time></trkpt><trkpt lat="45.632835" lon="8.9441783"><ele>233.0</ele><time>2026-04-25T15:18:29.228Z</time></trkpt><trkpt lat="45.6329133" lon="8.9441433"><ele>233.0</ele><time>2026-04-25T15:18:30.229Z</time></trkpt><trkpt lat="45.63298" lon="8.9441133"><ele>233.0</ele><time>2026-04-25T15:18:31.228Z</time></trkpt><trkpt lat="45.6330817" lon="8.9440417"><ele>233.16666666666669</ele><time>2026-04-25T15:18:33.231Z</time></trkpt><trkpt lat="45.6331083" lon="8.9439167"><ele>233.33333333333334</ele><time>2026-04-25T15:18:35.229Z</time></trkpt><trkpt lat="45.633065" lon="8.943775"><ele>233.5</ele><time>2026-04-25T15:18:37.23Z</time></trkpt><trkpt lat="45.63304" lon="8.9436883"><ele>233.66666666666669</ele><time>2026-04-25T15:18:38.228Z</time></trkpt><trkpt lat="45.6330117" lon="8.9435917"><ele>233.83333333333334</ele><time>2026-04-25T15:18:39.229Z</time></trkpt><trkpt lat="45.6329833" lon="8.9434867"><ele>234.0</ele><time>2026-04-25T15:18:40.229Z</time></trkpt><trkpt lat="45.632935" lon="8.9432667"><ele>234.0</ele><time>2026-04-25T15:18:42.229Z</time></trkpt><trkpt lat="45.6329083" lon="8.9431567"><ele>234.0</ele><time>2026-04-25T15:18:43.228Z</time></trkpt><trkpt lat="45.632885" lon="8.943055"><ele>234.0</ele><time>2026-04-25T15:18:44.23Z</time></trkpt><trkpt lat="45.6328633" lon="8.9429583"><ele>234.0</ele><time>2026-04-25T15:18:45.228Z</time></trkpt><trkpt lat="45.6328283" lon="8.9427983"><ele>234.0</ele><time>2026-04-25T15:18:47.229Z</time></trkpt><trkpt lat="45.6327917" lon="8.94266"><ele>234.0</ele><time>2026-04-25T15:18:49.23Z</time></trkpt><trkpt lat="45.632755" lon="8.9425233"><ele>234.0</ele><time>2026-04-25T15:18:51.229Z</time></trkpt><trkpt lat="45.6327267" lon="8.9424267"><ele>234.0</ele><time>2026-04-25T15:18:53.229Z</time></trkpt><trkpt lat="45.6327133" lon="8.9423183"><ele>234.0</ele><time>2026-04-25T15:19:27.233Z</time></trkpt><trkpt lat="45.6327817" lon="8.9422733"><ele>234.0</ele><time>2026-04-25T15:19:32.231Z</time></trkpt><trkpt lat="45.63284" lon="8.9422383"><ele>233.0</ele><time>2026-04-25T15:19:35.23Z</time></trkpt></trkseg></trk></gpx>